<?xml version="1.0" encoding="UTF-8" standalone="no" ?>
<gpx xmlns="http://www.topografix.com/GPX/1/1" xmlns:xsi="http://www.w3.org/2001/XMLSchema-instance" xsi:schemaLocation="http://www.topografix.com/GPX/1/1 http://www.topografix.com/GPX/1/1/gpx.xsd" version="1.1" creator="VisuGPX - https://www.visugpx.com">
  <metadata>
    <name>chemin de la maison de fer </name>
    <desc><![CDATA[boucle en partant du chateau de Dampierre. On a mis 2:30 avec la pause gouter pour les enfants :)]]></desc>
  </metadata>
  <trk>
    <name><![CDATA[chemin de la maison de fer Dampierre]]></name>
    <desc><![CDATA[]]></desc>
    <trkseg>
      <trkpt lat="48.70655" lon="1.98817">
        <ele>88.73727</ele>
        <time>2016-05-08T14:41:49Z</time>
      </trkpt>
      <trkpt lat="48.70675" lon="1.98819">
        <ele>88.573818</ele>
        <time>2016-05-08T14:41:50Z</time>
      </trkpt>
      <trkpt lat="48.70675" lon="1.98819">
        <ele>88.573818</ele>
        <time>2016-05-08T14:41:52Z</time>
      </trkpt>
      <trkpt lat="48.70665" lon="1.9882">
        <ele>94.84396</ele>
        <time>2016-05-08T14:41:54Z</time>
      </trkpt>
      <trkpt lat="48.70666" lon="1.98814">
        <ele>88.626125</ele>
        <time>2016-05-08T14:41:56Z</time>
      </trkpt>
      <trkpt lat="48.70666" lon="1.98814">
        <ele>91.693569</ele>
        <time>2016-05-08T14:41:58Z</time>
      </trkpt>
      <trkpt lat="48.70663" lon="1.98813">
        <ele>92.9548</ele>
        <time>2016-05-08T14:42:00Z</time>
      </trkpt>
      <trkpt lat="48.70663" lon="1.98809">
        <ele>92.194546</ele>
        <time>2016-05-08T14:42:02Z</time>
      </trkpt>
      <trkpt lat="48.70662" lon="1.98806">
        <ele>94.547817</ele>
        <time>2016-05-08T14:42:04Z</time>
      </trkpt>
      <trkpt lat="48.70661" lon="1.98805">
        <ele>97.414272</ele>
        <time>2016-05-08T14:42:06Z</time>
      </trkpt>
      <trkpt lat="48.7066" lon="1.98805">
        <ele>97.741848</ele>
        <time>2016-05-08T14:42:08Z</time>
      </trkpt>
      <trkpt lat="48.7066" lon="1.98805">
        <ele>97.806057</ele>
        <time>2016-05-08T14:42:10Z</time>
      </trkpt>
      <trkpt lat="48.7066" lon="1.98805">
        <ele>97.920132</ele>
        <time>2016-05-08T14:42:12Z</time>
      </trkpt>
      <trkpt lat="48.70659" lon="1.98805">
        <ele>98.250393</ele>
        <time>2016-05-08T14:42:14Z</time>
      </trkpt>
      <trkpt lat="48.70657" lon="1.98802">
        <ele>97.742153</ele>
        <time>2016-05-08T14:42:16Z</time>
      </trkpt>
      <trkpt lat="48.70656" lon="1.988">
        <ele>97.139797</ele>
        <time>2016-05-08T14:42:18Z</time>
      </trkpt>
      <trkpt lat="48.70655" lon="1.98797">
        <ele>96.23251</ele>
        <time>2016-05-08T14:42:20Z</time>
      </trkpt>
      <trkpt lat="48.70654" lon="1.98794">
        <ele>96.449551</ele>
        <time>2016-05-08T14:42:22Z</time>
      </trkpt>
      <trkpt lat="48.70654" lon="1.98792">
        <ele>96.502346</ele>
        <time>2016-05-08T14:42:24Z</time>
      </trkpt>
      <trkpt lat="48.70652" lon="1.9879">
        <ele>96.082851</ele>
        <time>2016-05-08T14:42:26Z</time>
      </trkpt>
      <trkpt lat="48.70651" lon="1.98786">
        <ele>96.21133</ele>
        <time>2016-05-08T14:42:28Z</time>
      </trkpt>
      <trkpt lat="48.7065" lon="1.98783">
        <ele>96.102383</ele>
        <time>2016-05-08T14:42:30Z</time>
      </trkpt>
      <trkpt lat="48.70649" lon="1.9878">
        <ele>96.012722</ele>
        <time>2016-05-08T14:42:32Z</time>
      </trkpt>
      <trkpt lat="48.70649" lon="1.98777">
        <ele>96.204983</ele>
        <time>2016-05-08T14:42:34Z</time>
      </trkpt>
      <trkpt lat="48.70648" lon="1.98775">
        <ele>96.053188</ele>
        <time>2016-05-08T14:42:36Z</time>
      </trkpt>
      <trkpt lat="48.70647" lon="1.98775">
        <ele>96.403469</ele>
        <time>2016-05-08T14:42:38Z</time>
      </trkpt>
      <trkpt lat="48.70647" lon="1.98776">
        <ele>96.153225</ele>
        <time>2016-05-08T14:42:40Z</time>
      </trkpt>
      <trkpt lat="48.70647" lon="1.98776">
        <ele>95.661587</ele>
        <time>2016-05-08T14:42:42Z</time>
      </trkpt>
      <trkpt lat="48.70646" lon="1.98779">
        <ele>95.438259</ele>
        <time>2016-05-08T14:42:44Z</time>
      </trkpt>
      <trkpt lat="48.70646" lon="1.98778">
        <ele>95.705898</ele>
        <time>2016-05-08T14:42:46Z</time>
      </trkpt>
      <trkpt lat="48.70646" lon="1.98778">
        <ele>95.573757</ele>
        <time>2016-05-08T14:42:48Z</time>
      </trkpt>
      <trkpt lat="48.70646" lon="1.98778">
        <ele>94.232265</ele>
        <time>2016-05-08T14:42:50Z</time>
      </trkpt>
      <trkpt lat="48.70646" lon="1.98778">
        <ele>93.959866</ele>
        <time>2016-05-08T14:42:52Z</time>
      </trkpt>
      <trkpt lat="48.70646" lon="1.98778">
        <ele>93.426418</ele>
        <time>2016-05-08T14:42:54Z</time>
      </trkpt>
      <trkpt lat="48.70646" lon="1.98778">
        <ele>93.419643</ele>
        <time>2016-05-08T14:42:56Z</time>
      </trkpt>
      <trkpt lat="48.70646" lon="1.98778">
        <ele>93.415676</ele>
        <time>2016-05-08T14:42:58Z</time>
      </trkpt>
      <trkpt lat="48.70647" lon="1.98778">
        <ele>94.11227</ele>
        <time>2016-05-08T14:43:00Z</time>
      </trkpt>
      <trkpt lat="48.70647" lon="1.98778">
        <ele>94.222317</ele>
        <time>2016-05-08T14:43:02Z</time>
      </trkpt>
      <trkpt lat="48.70647" lon="1.98778">
        <ele>94.055691</ele>
        <time>2016-05-08T14:43:04Z</time>
      </trkpt>
      <trkpt lat="48.70647" lon="1.9878">
        <ele>94.14529</ele>
        <time>2016-05-08T14:43:06Z</time>
      </trkpt>
      <trkpt lat="48.70646" lon="1.9878">
        <ele>94.588894</ele>
        <time>2016-05-08T14:43:08Z</time>
      </trkpt>
      <trkpt lat="48.70646" lon="1.9878">
        <ele>93.371304</ele>
        <time>2016-05-08T14:43:10Z</time>
      </trkpt>
      <trkpt lat="48.70646" lon="1.9878">
        <ele>93.063381</ele>
        <time>2016-05-08T14:43:12Z</time>
      </trkpt>
      <trkpt lat="48.70646" lon="1.9878">
        <ele>93.06271</ele>
        <time>2016-05-08T14:43:14Z</time>
      </trkpt>
      <trkpt lat="48.70646" lon="1.9878">
        <ele>93.058437</ele>
        <time>2016-05-08T14:43:16Z</time>
      </trkpt>
      <trkpt lat="48.70646" lon="1.9878">
        <ele>93.059353</ele>
        <time>2016-05-08T14:43:18Z</time>
      </trkpt>
      <trkpt lat="48.70646" lon="1.9878">
        <ele>93.060513</ele>
        <time>2016-05-08T14:43:20Z</time>
      </trkpt>
      <trkpt lat="48.70646" lon="1.98778">
        <ele>92.046963</ele>
        <time>2016-05-08T14:43:22Z</time>
      </trkpt>
      <trkpt lat="48.70646" lon="1.98775">
        <ele>91.379482</ele>
        <time>2016-05-08T14:43:24Z</time>
      </trkpt>
      <trkpt lat="48.70646" lon="1.98772">
        <ele>90.818203</ele>
        <time>2016-05-08T14:43:26Z</time>
      </trkpt>
      <trkpt lat="48.70647" lon="1.98771">
        <ele>90.896633</ele>
        <time>2016-05-08T14:43:28Z</time>
      </trkpt>
      <trkpt lat="48.7065" lon="1.98769">
        <ele>92.845852</ele>
        <time>2016-05-08T14:43:30Z</time>
      </trkpt>
      <trkpt lat="48.70652" lon="1.98767">
        <ele>91.60873</ele>
        <time>2016-05-08T14:43:32Z</time>
      </trkpt>
      <trkpt lat="48.70652" lon="1.98764">
        <ele>93.33749</ele>
        <time>2016-05-08T14:43:34Z</time>
      </trkpt>
      <trkpt lat="48.70653" lon="1.9876">
        <ele>95.434292</ele>
        <time>2016-05-08T14:43:36Z</time>
      </trkpt>
      <trkpt lat="48.70653" lon="1.98757">
        <ele>95.013943</ele>
        <time>2016-05-08T14:43:38Z</time>
      </trkpt>
      <trkpt lat="48.70653" lon="1.98755">
        <ele>94.886684</ele>
        <time>2016-05-08T14:43:40Z</time>
      </trkpt>
      <trkpt lat="48.70653" lon="1.98753">
        <ele>95.392727</ele>
        <time>2016-05-08T14:43:42Z</time>
      </trkpt>
      <trkpt lat="48.70653" lon="1.98752">
        <ele>96.021206</ele>
        <time>2016-05-08T14:43:44Z</time>
      </trkpt>
      <trkpt lat="48.70653" lon="1.98752">
        <ele>94.998745</ele>
        <time>2016-05-08T14:43:46Z</time>
      </trkpt>
      <trkpt lat="48.70651" lon="1.98753">
        <ele>94.582546</ele>
        <time>2016-05-08T14:43:48Z</time>
      </trkpt>
      <trkpt lat="48.70649" lon="1.98754">
        <ele>94.295742</ele>
        <time>2016-05-08T14:43:50Z</time>
      </trkpt>
      <trkpt lat="48.70646" lon="1.98754">
        <ele>95.858181</ele>
        <time>2016-05-08T14:43:52Z</time>
      </trkpt>
      <trkpt lat="48.70643" lon="1.98756">
        <ele>96.846767</ele>
        <time>2016-05-08T14:43:54Z</time>
      </trkpt>
      <trkpt lat="48.70641" lon="1.98758">
        <ele>97.165188</ele>
        <time>2016-05-08T14:43:56Z</time>
      </trkpt>
      <trkpt lat="48.70639" lon="1.98757">
        <ele>96.225491</ele>
        <time>2016-05-08T14:43:58Z</time>
      </trkpt>
      <trkpt lat="48.70636" lon="1.98756">
        <ele>95.404018</ele>
        <time>2016-05-08T14:44:00Z</time>
      </trkpt>
      <trkpt lat="48.70634" lon="1.98754">
        <ele>95.29269</ele>
        <time>2016-05-08T14:44:02Z</time>
      </trkpt>
      <trkpt lat="48.70632" lon="1.9875">
        <ele>94.410854</ele>
        <time>2016-05-08T14:44:04Z</time>
      </trkpt>
      <trkpt lat="48.70631" lon="1.98747">
        <ele>93.690273</ele>
        <time>2016-05-08T14:44:06Z</time>
      </trkpt>
      <trkpt lat="48.70629" lon="1.98744">
        <ele>93.518764</ele>
        <time>2016-05-08T14:44:08Z</time>
      </trkpt>
      <trkpt lat="48.70628" lon="1.98742">
        <ele>93.015469</ele>
        <time>2016-05-08T14:44:10Z</time>
      </trkpt>
      <trkpt lat="48.70626" lon="1.98738">
        <ele>92.864101</ele>
        <time>2016-05-08T14:44:12Z</time>
      </trkpt>
      <trkpt lat="48.70625" lon="1.98734">
        <ele>92.633389</ele>
        <time>2016-05-08T14:44:14Z</time>
      </trkpt>
      <trkpt lat="48.70624" lon="1.9873">
        <ele>92.429531</ele>
        <time>2016-05-08T14:44:16Z</time>
      </trkpt>
      <trkpt lat="48.70623" lon="1.98728">
        <ele>92.398891</ele>
        <time>2016-05-08T14:44:18Z</time>
      </trkpt>
      <trkpt lat="48.70621" lon="1.98726">
        <ele>92.767117</ele>
        <time>2016-05-08T14:44:20Z</time>
      </trkpt>
      <trkpt lat="48.7062" lon="1.98724">
        <ele>93.110073</ele>
        <time>2016-05-08T14:44:22Z</time>
      </trkpt>
      <trkpt lat="48.70619" lon="1.98721">
        <ele>92.47427</ele>
        <time>2016-05-08T14:44:24Z</time>
      </trkpt>
      <trkpt lat="48.70618" lon="1.98719">
        <ele>93.382595</ele>
        <time>2016-05-08T14:44:26Z</time>
      </trkpt>
      <trkpt lat="48.70617" lon="1.98716">
        <ele>93.916348</ele>
        <time>2016-05-08T14:44:28Z</time>
      </trkpt>
      <trkpt lat="48.70616" lon="1.98714">
        <ele>93.755093</ele>
        <time>2016-05-08T14:44:30Z</time>
      </trkpt>
      <trkpt lat="48.70615" lon="1.98712">
        <ele>93.573147</ele>
        <time>2016-05-08T14:44:32Z</time>
      </trkpt>
      <trkpt lat="48.70613" lon="1.9871">
        <ele>93.951138</ele>
        <time>2016-05-08T14:44:34Z</time>
      </trkpt>
      <trkpt lat="48.70611" lon="1.98708">
        <ele>92.934963</ele>
        <time>2016-05-08T14:44:36Z</time>
      </trkpt>
      <trkpt lat="48.7061" lon="1.98706">
        <ele>92.834438</ele>
        <time>2016-05-08T14:44:38Z</time>
      </trkpt>
      <trkpt lat="48.70609" lon="1.98704">
        <ele>92.201565</ele>
        <time>2016-05-08T14:44:40Z</time>
      </trkpt>
      <trkpt lat="48.70607" lon="1.98701">
        <ele>91.613247</ele>
        <time>2016-05-08T14:44:42Z</time>
      </trkpt>
      <trkpt lat="48.70606" lon="1.98698">
        <ele>92.472195</ele>
        <time>2016-05-08T14:44:44Z</time>
      </trkpt>
      <trkpt lat="48.70604" lon="1.98697">
        <ele>92.838467</ele>
        <time>2016-05-08T14:44:46Z</time>
      </trkpt>
      <trkpt lat="48.70603" lon="1.98695">
        <ele>92.378994</ele>
        <time>2016-05-08T14:44:48Z</time>
      </trkpt>
      <trkpt lat="48.70602" lon="1.98693">
        <ele>93.330532</ele>
        <time>2016-05-08T14:44:50Z</time>
      </trkpt>
      <trkpt lat="48.70602" lon="1.98691">
        <ele>92.745693</ele>
        <time>2016-05-08T14:44:52Z</time>
      </trkpt>
      <trkpt lat="48.70602" lon="1.98689">
        <ele>92.07394</ele>
        <time>2016-05-08T14:44:54Z</time>
      </trkpt>
      <trkpt lat="48.70604" lon="1.98687">
        <ele>92.232082</ele>
        <time>2016-05-08T14:44:56Z</time>
      </trkpt>
      <trkpt lat="48.70605" lon="1.98685">
        <ele>92.984097</ele>
        <time>2016-05-08T14:44:58Z</time>
      </trkpt>
      <trkpt lat="48.70605" lon="1.98683">
        <ele>92.998379</ele>
        <time>2016-05-08T14:45:00Z</time>
      </trkpt>
      <trkpt lat="48.70606" lon="1.98681">
        <ele>92.76144</ele>
        <time>2016-05-08T14:45:02Z</time>
      </trkpt>
      <trkpt lat="48.70607" lon="1.98679">
        <ele>93.25613</ele>
        <time>2016-05-08T14:45:04Z</time>
      </trkpt>
      <trkpt lat="48.70607" lon="1.98676">
        <ele>93.745937</ele>
        <time>2016-05-08T14:45:06Z</time>
      </trkpt>
      <trkpt lat="48.70608" lon="1.98673">
        <ele>94.279629</ele>
        <time>2016-05-08T14:45:08Z</time>
      </trkpt>
      <trkpt lat="48.70609" lon="1.9867">
        <ele>94.426052</ele>
        <time>2016-05-08T14:45:10Z</time>
      </trkpt>
      <trkpt lat="48.7061" lon="1.98668">
        <ele>94.2402</ele>
        <time>2016-05-08T14:45:12Z</time>
      </trkpt>
      <trkpt lat="48.7061" lon="1.98665">
        <ele>94.604275</ele>
        <time>2016-05-08T14:45:14Z</time>
      </trkpt>
      <trkpt lat="48.7061" lon="1.98662">
        <ele>95.203457</ele>
        <time>2016-05-08T14:45:16Z</time>
      </trkpt>
      <trkpt lat="48.7061" lon="1.98661">
        <ele>95.094387</ele>
        <time>2016-05-08T14:45:18Z</time>
      </trkpt>
      <trkpt lat="48.7061" lon="1.98658">
        <ele>94.659328</ele>
        <time>2016-05-08T14:45:20Z</time>
      </trkpt>
      <trkpt lat="48.7061" lon="1.98656">
        <ele>95.098843</ele>
        <time>2016-05-08T14:45:22Z</time>
      </trkpt>
      <trkpt lat="48.7061" lon="1.98653">
        <ele>96.096645</ele>
        <time>2016-05-08T14:45:24Z</time>
      </trkpt>
      <trkpt lat="48.70611" lon="1.98652">
        <ele>96.423183</ele>
        <time>2016-05-08T14:45:26Z</time>
      </trkpt>
      <trkpt lat="48.70612" lon="1.98651">
        <ele>96.273525</ele>
        <time>2016-05-08T14:45:28Z</time>
      </trkpt>
      <trkpt lat="48.70614" lon="1.98651">
        <ele>96.230434</ele>
        <time>2016-05-08T14:45:30Z</time>
      </trkpt>
      <trkpt lat="48.70616" lon="1.98651">
        <ele>97.290005</ele>
        <time>2016-05-08T14:45:32Z</time>
      </trkpt>
      <trkpt lat="48.70617" lon="1.98648">
        <ele>97.394619</ele>
        <time>2016-05-08T14:45:34Z</time>
      </trkpt>
      <trkpt lat="48.70617" lon="1.98646">
        <ele>98.484097</ele>
        <time>2016-05-08T14:45:36Z</time>
      </trkpt>
      <trkpt lat="48.70618" lon="1.98644">
        <ele>98.00906</ele>
        <time>2016-05-08T14:45:38Z</time>
      </trkpt>
      <trkpt lat="48.70619" lon="1.98643">
        <ele>98.51321</ele>
        <time>2016-05-08T14:45:40Z</time>
      </trkpt>
      <trkpt lat="48.7062" lon="1.98642">
        <ele>99.266201</ele>
        <time>2016-05-08T14:45:42Z</time>
      </trkpt>
      <trkpt lat="48.70621" lon="1.9864">
        <ele>100.223721</ele>
        <time>2016-05-08T14:45:44Z</time>
      </trkpt>
      <trkpt lat="48.70622" lon="1.98638">
        <ele>100.398403</ele>
        <time>2016-05-08T14:45:46Z</time>
      </trkpt>
      <trkpt lat="48.70623" lon="1.98636">
        <ele>99.598293</ele>
        <time>2016-05-08T14:45:48Z</time>
      </trkpt>
      <trkpt lat="48.70623" lon="1.98634">
        <ele>99.317593</ele>
        <time>2016-05-08T14:45:50Z</time>
      </trkpt>
      <trkpt lat="48.70623" lon="1.98632">
        <ele>98.578396</ele>
        <time>2016-05-08T14:45:52Z</time>
      </trkpt>
      <trkpt lat="48.70623" lon="1.98631">
        <ele>98.248684</ele>
        <time>2016-05-08T14:45:54Z</time>
      </trkpt>
      <trkpt lat="48.70624" lon="1.98629">
        <ele>98.585781</ele>
        <time>2016-05-08T14:45:56Z</time>
      </trkpt>
      <trkpt lat="48.70624" lon="1.98627">
        <ele>98.846889</ele>
        <time>2016-05-08T14:45:58Z</time>
      </trkpt>
      <trkpt lat="48.70624" lon="1.98627">
        <ele>98.937771</ele>
        <time>2016-05-08T14:45:59Z</time>
      </trkpt>
      <trkpt lat="48.70625" lon="1.98626">
        <ele>99.721157</ele>
        <time>2016-05-08T14:46:01Z</time>
      </trkpt>
      <trkpt lat="48.70625" lon="1.98623">
        <ele>99.837246</ele>
        <time>2016-05-08T14:46:03Z</time>
      </trkpt>
      <trkpt lat="48.70626" lon="1.98621">
        <ele>99.661953</ele>
        <time>2016-05-08T14:46:05Z</time>
      </trkpt>
      <trkpt lat="48.70626" lon="1.98618">
        <ele>99.942837</ele>
        <time>2016-05-08T14:46:07Z</time>
      </trkpt>
      <trkpt lat="48.70626" lon="1.98616">
        <ele>100.646633</ele>
        <time>2016-05-08T14:46:09Z</time>
      </trkpt>
      <trkpt lat="48.70627" lon="1.98615">
        <ele>101.08102</ele>
        <time>2016-05-08T14:46:11Z</time>
      </trkpt>
      <trkpt lat="48.70628" lon="1.98614">
        <ele>101.12466</ele>
        <time>2016-05-08T14:46:13Z</time>
      </trkpt>
      <trkpt lat="48.70629" lon="1.98614">
        <ele>102.003262</ele>
        <time>2016-05-08T14:46:15Z</time>
      </trkpt>
      <trkpt lat="48.70629" lon="1.98614">
        <ele>101.813198</ele>
        <time>2016-05-08T14:46:17Z</time>
      </trkpt>
      <trkpt lat="48.70629" lon="1.98612">
        <ele>101.538662</ele>
        <time>2016-05-08T14:46:19Z</time>
      </trkpt>
      <trkpt lat="48.7063" lon="1.98611">
        <ele>101.95248</ele>
        <time>2016-05-08T14:46:21Z</time>
      </trkpt>
      <trkpt lat="48.70631" lon="1.98608">
        <ele>102.018581</ele>
        <time>2016-05-08T14:46:23Z</time>
      </trkpt>
      <trkpt lat="48.70633" lon="1.98606">
        <ele>102.509243</ele>
        <time>2016-05-08T14:46:25Z</time>
      </trkpt>
      <trkpt lat="48.70635" lon="1.98604">
        <ele>102.98196</ele>
        <time>2016-05-08T14:46:27Z</time>
      </trkpt>
      <trkpt lat="48.70636" lon="1.98603">
        <ele>103.543911</ele>
        <time>2016-05-08T14:46:29Z</time>
      </trkpt>
      <trkpt lat="48.70638" lon="1.98601">
        <ele>103.44125</ele>
        <time>2016-05-08T14:46:31Z</time>
      </trkpt>
      <trkpt lat="48.70637" lon="1.98599">
        <ele>103.773281</ele>
        <time>2016-05-08T14:46:33Z</time>
      </trkpt>
      <trkpt lat="48.70638" lon="1.98597">
        <ele>104.382168</ele>
        <time>2016-05-08T14:46:35Z</time>
      </trkpt>
      <trkpt lat="48.7064" lon="1.98596">
        <ele>105.374538</ele>
        <time>2016-05-08T14:46:37Z</time>
      </trkpt>
      <trkpt lat="48.70641" lon="1.98595">
        <ele>105.465847</ele>
        <time>2016-05-08T14:46:39Z</time>
      </trkpt>
      <trkpt lat="48.70643" lon="1.98594">
        <ele>104.70895</ele>
        <time>2016-05-08T14:46:41Z</time>
      </trkpt>
      <trkpt lat="48.70645" lon="1.98593">
        <ele>105.041653</ele>
        <time>2016-05-08T14:46:43Z</time>
      </trkpt>
      <trkpt lat="48.70646" lon="1.98592">
        <ele>105.630337</ele>
        <time>2016-05-08T14:46:45Z</time>
      </trkpt>
      <trkpt lat="48.70647" lon="1.98591">
        <ele>105.742947</ele>
        <time>2016-05-08T14:46:47Z</time>
      </trkpt>
      <trkpt lat="48.70647" lon="1.9859">
        <ele>105.959499</ele>
        <time>2016-05-08T14:46:49Z</time>
      </trkpt>
      <trkpt lat="48.70648" lon="1.98589">
        <ele>106.058132</ele>
        <time>2016-05-08T14:46:51Z</time>
      </trkpt>
      <trkpt lat="48.70649" lon="1.98588">
        <ele>106.523525</ele>
        <time>2016-05-08T14:46:53Z</time>
      </trkpt>
      <trkpt lat="48.7065" lon="1.98587">
        <ele>107.177456</ele>
        <time>2016-05-08T14:46:55Z</time>
      </trkpt>
      <trkpt lat="48.70651" lon="1.98586">
        <ele>107.927029</ele>
        <time>2016-05-08T14:46:57Z</time>
      </trkpt>
      <trkpt lat="48.70653" lon="1.98585">
        <ele>108.649014</ele>
        <time>2016-05-08T14:46:59Z</time>
      </trkpt>
      <trkpt lat="48.70655" lon="1.98584">
        <ele>109.469265</ele>
        <time>2016-05-08T14:47:01Z</time>
      </trkpt>
      <trkpt lat="48.70656" lon="1.98583">
        <ele>110.0173</ele>
        <time>2016-05-08T14:47:03Z</time>
      </trkpt>
      <trkpt lat="48.70658" lon="1.98584">
        <ele>110.199123</ele>
        <time>2016-05-08T14:47:05Z</time>
      </trkpt>
      <trkpt lat="48.7066" lon="1.98584">
        <ele>110.837856</ele>
        <time>2016-05-08T14:47:07Z</time>
      </trkpt>
      <trkpt lat="48.7066" lon="1.98582">
        <ele>110.383633</ele>
        <time>2016-05-08T14:47:09Z</time>
      </trkpt>
      <trkpt lat="48.70661" lon="1.98582">
        <ele>110.106045</ele>
        <time>2016-05-08T14:47:11Z</time>
      </trkpt>
      <trkpt lat="48.70661" lon="1.9858">
        <ele>110.461758</ele>
        <time>2016-05-08T14:47:13Z</time>
      </trkpt>
      <trkpt lat="48.70663" lon="1.98578">
        <ele>111.508205</ele>
        <time>2016-05-08T14:47:15Z</time>
      </trkpt>
      <trkpt lat="48.70663" lon="1.98578">
        <ele>111.243923</ele>
        <time>2016-05-08T14:47:17Z</time>
      </trkpt>
      <trkpt lat="48.70663" lon="1.98578">
        <ele>111.77206</ele>
        <time>2016-05-08T14:47:19Z</time>
      </trkpt>
      <trkpt lat="48.70663" lon="1.98577">
        <ele>111.600613</ele>
        <time>2016-05-08T14:47:21Z</time>
      </trkpt>
      <trkpt lat="48.70662" lon="1.98577">
        <ele>112.139919</ele>
        <time>2016-05-08T14:47:23Z</time>
      </trkpt>
      <trkpt lat="48.70661" lon="1.98577">
        <ele>112.290249</ele>
        <time>2016-05-08T14:47:25Z</time>
      </trkpt>
      <trkpt lat="48.70661" lon="1.98577">
        <ele>112.936184</ele>
        <time>2016-05-08T14:47:27Z</time>
      </trkpt>
      <trkpt lat="48.70661" lon="1.98577">
        <ele>112.479824</ele>
        <time>2016-05-08T14:47:29Z</time>
      </trkpt>
      <trkpt lat="48.70659" lon="1.98578">
        <ele>112.178493</ele>
        <time>2016-05-08T14:47:31Z</time>
      </trkpt>
      <trkpt lat="48.7066" lon="1.9858">
        <ele>112.230434</ele>
        <time>2016-05-08T14:47:33Z</time>
      </trkpt>
      <trkpt lat="48.70662" lon="1.98581">
        <ele>112.688076</ele>
        <time>2016-05-08T14:47:35Z</time>
      </trkpt>
      <trkpt lat="48.70662" lon="1.98581">
        <ele>112.401699</ele>
        <time>2016-05-08T14:47:37Z</time>
      </trkpt>
      <trkpt lat="48.70662" lon="1.98581">
        <ele>112.547451</ele>
        <time>2016-05-08T14:47:38Z</time>
      </trkpt>
      <trkpt lat="48.70662" lon="1.98581">
        <ele>112.501919</ele>
        <time>2016-05-08T14:47:40Z</time>
      </trkpt>
      <trkpt lat="48.70662" lon="1.98581">
        <ele>114.381191</ele>
        <time>2016-05-08T14:47:42Z</time>
      </trkpt>
      <trkpt lat="48.70662" lon="1.98581">
        <ele>114.890591</ele>
        <time>2016-05-08T14:47:44Z</time>
      </trkpt>
      <trkpt lat="48.70662" lon="1.98581">
        <ele>114.069851</ele>
        <time>2016-05-08T14:47:46Z</time>
      </trkpt>
      <trkpt lat="48.70662" lon="1.98586">
        <ele>113.169216</ele>
        <time>2016-05-08T14:47:48Z</time>
      </trkpt>
      <trkpt lat="48.70662" lon="1.98586">
        <ele>113.939236</ele>
        <time>2016-05-08T14:47:50Z</time>
      </trkpt>
      <trkpt lat="48.70663" lon="1.98586">
        <ele>113.765774</ele>
        <time>2016-05-08T14:47:52Z</time>
      </trkpt>
      <trkpt lat="48.70664" lon="1.98585">
        <ele>113.861721</ele>
        <time>2016-05-08T14:47:54Z</time>
      </trkpt>
      <trkpt lat="48.70664" lon="1.98585">
        <ele>113.888027</ele>
        <time>2016-05-08T14:47:56Z</time>
      </trkpt>
      <trkpt lat="48.70663" lon="1.98584">
        <ele>112.807217</ele>
        <time>2016-05-08T14:47:58Z</time>
      </trkpt>
      <trkpt lat="48.70663" lon="1.98584">
        <ele>113.155727</ele>
        <time>2016-05-08T14:48:00Z</time>
      </trkpt>
      <trkpt lat="48.70663" lon="1.98585">
        <ele>113.2626</ele>
        <time>2016-05-08T14:48:02Z</time>
      </trkpt>
      <trkpt lat="48.70663" lon="1.98585">
        <ele>113.578274</ele>
        <time>2016-05-08T14:48:03Z</time>
      </trkpt>
      <trkpt lat="48.70663" lon="1.98585">
        <ele>113.741665</ele>
        <time>2016-05-08T14:48:05Z</time>
      </trkpt>
      <trkpt lat="48.70663" lon="1.98585">
        <ele>113.747768</ele>
        <time>2016-05-08T14:48:07Z</time>
      </trkpt>
      <trkpt lat="48.70663" lon="1.98585">
        <ele>113.756069</ele>
        <time>2016-05-08T14:48:09Z</time>
      </trkpt>
      <trkpt lat="48.70663" lon="1.98585">
        <ele>113.768642</ele>
        <time>2016-05-08T14:48:11Z</time>
      </trkpt>
      <trkpt lat="48.70663" lon="1.98586">
        <ele>113.804775</ele>
        <time>2016-05-08T14:48:13Z</time>
      </trkpt>
      <trkpt lat="48.70662" lon="1.98586">
        <ele>113.321621</ele>
        <time>2016-05-08T14:48:15Z</time>
      </trkpt>
      <trkpt lat="48.70662" lon="1.98587">
        <ele>112.220669</ele>
        <time>2016-05-08T14:48:17Z</time>
      </trkpt>
      <trkpt lat="48.70663" lon="1.98587">
        <ele>111.723598</ele>
        <time>2016-05-08T14:48:19Z</time>
      </trkpt>
      <trkpt lat="48.70666" lon="1.98586">
        <ele>110.221096</ele>
        <time>2016-05-08T14:48:21Z</time>
      </trkpt>
      <trkpt lat="48.70667" lon="1.98584">
        <ele>110.126431</ele>
        <time>2016-05-08T14:48:23Z</time>
      </trkpt>
      <trkpt lat="48.70667" lon="1.98581">
        <ele>111.838589</ele>
        <time>2016-05-08T14:48:25Z</time>
      </trkpt>
      <trkpt lat="48.70667" lon="1.98578">
        <ele>113.485561</ele>
        <time>2016-05-08T14:48:27Z</time>
      </trkpt>
      <trkpt lat="48.70668" lon="1.98575">
        <ele>114.00613</ele>
        <time>2016-05-08T14:48:29Z</time>
      </trkpt>
      <trkpt lat="48.70668" lon="1.98572">
        <ele>116.063869</ele>
        <time>2016-05-08T14:48:31Z</time>
      </trkpt>
      <trkpt lat="48.70669" lon="1.98569">
        <ele>117.646694</ele>
        <time>2016-05-08T14:48:33Z</time>
      </trkpt>
      <trkpt lat="48.7067" lon="1.98567">
        <ele>118.270901</ele>
        <time>2016-05-08T14:48:35Z</time>
      </trkpt>
      <trkpt lat="48.70671" lon="1.98565">
        <ele>118.719143</ele>
        <time>2016-05-08T14:48:37Z</time>
      </trkpt>
      <trkpt lat="48.70672" lon="1.98563">
        <ele>117.738552</ele>
        <time>2016-05-08T14:48:39Z</time>
      </trkpt>
      <trkpt lat="48.70673" lon="1.98561">
        <ele>118.137722</ele>
        <time>2016-05-08T14:48:41Z</time>
      </trkpt>
      <trkpt lat="48.70675" lon="1.98558">
        <ele>118.725918</ele>
        <time>2016-05-08T14:48:43Z</time>
      </trkpt>
      <trkpt lat="48.70675" lon="1.98556">
        <ele>121.506069</ele>
        <time>2016-05-08T14:48:45Z</time>
      </trkpt>
      <trkpt lat="48.70676" lon="1.98554">
        <ele>123.15115</ele>
        <time>2016-05-08T14:48:47Z</time>
      </trkpt>
      <trkpt lat="48.70678" lon="1.98552">
        <ele>123.665798</ele>
        <time>2016-05-08T14:48:49Z</time>
      </trkpt>
      <trkpt lat="48.70679" lon="1.9855">
        <ele>124.065884</ele>
        <time>2016-05-08T14:48:51Z</time>
      </trkpt>
      <trkpt lat="48.70679" lon="1.98547">
        <ele>124.021328</ele>
        <time>2016-05-08T14:48:53Z</time>
      </trkpt>
      <trkpt lat="48.7068" lon="1.98543">
        <ele>123.997341</ele>
        <time>2016-05-08T14:48:55Z</time>
      </trkpt>
      <trkpt lat="48.70681" lon="1.9854">
        <ele>124.679287</ele>
        <time>2016-05-08T14:48:57Z</time>
      </trkpt>
      <trkpt lat="48.70682" lon="1.98537">
        <ele>123.797207</ele>
        <time>2016-05-08T14:48:59Z</time>
      </trkpt>
      <trkpt lat="48.70682" lon="1.98534">
        <ele>123.536282</ele>
        <time>2016-05-08T14:49:01Z</time>
      </trkpt>
      <trkpt lat="48.70682" lon="1.98532">
        <ele>123.229275</ele>
        <time>2016-05-08T14:49:02Z</time>
      </trkpt>
      <trkpt lat="48.70681" lon="1.98528">
        <ele>123.325283</ele>
        <time>2016-05-08T14:49:04Z</time>
      </trkpt>
      <trkpt lat="48.7068" lon="1.98525">
        <ele>123.073391</ele>
        <time>2016-05-08T14:49:06Z</time>
      </trkpt>
      <trkpt lat="48.7068" lon="1.98523">
        <ele>123.613857</ele>
        <time>2016-05-08T14:49:07Z</time>
      </trkpt>
      <trkpt lat="48.7068" lon="1.98523">
        <ele>123.236904</ele>
        <time>2016-05-08T14:49:08Z</time>
      </trkpt>
      <trkpt lat="48.70681" lon="1.9852">
        <ele>123.839504</ele>
        <time>2016-05-08T14:49:10Z</time>
      </trkpt>
      <trkpt lat="48.70683" lon="1.98518">
        <ele>124.880276</ele>
        <time>2016-05-08T14:49:12Z</time>
      </trkpt>
      <trkpt lat="48.70683" lon="1.98516">
        <ele>123.455715</ele>
        <time>2016-05-08T14:49:14Z</time>
      </trkpt>
      <trkpt lat="48.70683" lon="1.98516">
        <ele>123.30447</ele>
        <time>2016-05-08T14:49:16Z</time>
      </trkpt>
      <trkpt lat="48.70684" lon="1.98517">
        <ele>123.137966</ele>
        <time>2016-05-08T14:49:18Z</time>
      </trkpt>
      <trkpt lat="48.70685" lon="1.98517">
        <ele>123.016689</ele>
        <time>2016-05-08T14:49:20Z</time>
      </trkpt>
      <trkpt lat="48.70686" lon="1.98515">
        <ele>123.298061</ele>
        <time>2016-05-08T14:49:22Z</time>
      </trkpt>
      <trkpt lat="48.70688" lon="1.98514">
        <ele>123.096889</ele>
        <time>2016-05-08T14:49:24Z</time>
      </trkpt>
      <trkpt lat="48.7069" lon="1.98512">
        <ele>123.393887</ele>
        <time>2016-05-08T14:49:26Z</time>
      </trkpt>
      <trkpt lat="48.70691" lon="1.98511">
        <ele>123.069851</ele>
        <time>2016-05-08T14:49:28Z</time>
      </trkpt>
      <trkpt lat="48.70692" lon="1.98508">
        <ele>123.196011</ele>
        <time>2016-05-08T14:49:30Z</time>
      </trkpt>
      <trkpt lat="48.70693" lon="1.98505">
        <ele>124.146511</ele>
        <time>2016-05-08T14:49:32Z</time>
      </trkpt>
      <trkpt lat="48.70694" lon="1.98504">
        <ele>123.631924</ele>
        <time>2016-05-08T14:49:34Z</time>
      </trkpt>
      <trkpt lat="48.70694" lon="1.98502">
        <ele>123.47665</ele>
        <time>2016-05-08T14:49:36Z</time>
      </trkpt>
      <trkpt lat="48.70695" lon="1.98501">
        <ele>123.282192</ele>
        <time>2016-05-08T14:49:38Z</time>
      </trkpt>
      <trkpt lat="48.70696" lon="1.985">
        <ele>122.929348</ele>
        <time>2016-05-08T14:49:40Z</time>
      </trkpt>
      <trkpt lat="48.70698" lon="1.985">
        <ele>121.508938</ele>
        <time>2016-05-08T14:49:42Z</time>
      </trkpt>
      <trkpt lat="48.70701" lon="1.985">
        <ele>121.332607</ele>
        <time>2016-05-08T14:49:44Z</time>
      </trkpt>
      <trkpt lat="48.70703" lon="1.98503">
        <ele>120.495937</ele>
        <time>2016-05-08T14:49:46Z</time>
      </trkpt>
      <trkpt lat="48.70704" lon="1.98506">
        <ele>119.848782</ele>
        <time>2016-05-08T14:49:48Z</time>
      </trkpt>
      <trkpt lat="48.70705" lon="1.98508">
        <ele>120.210354</ele>
        <time>2016-05-08T14:49:50Z</time>
      </trkpt>
      <trkpt lat="48.70706" lon="1.9851">
        <ele>119.92416</ele>
        <time>2016-05-08T14:49:52Z</time>
      </trkpt>
      <trkpt lat="48.70708" lon="1.98513">
        <ele>119.743252</ele>
        <time>2016-05-08T14:49:54Z</time>
      </trkpt>
      <trkpt lat="48.70709" lon="1.98515">
        <ele>120.181973</ele>
        <time>2016-05-08T14:49:56Z</time>
      </trkpt>
      <trkpt lat="48.70711" lon="1.98517">
        <ele>119.962673</ele>
        <time>2016-05-08T14:49:58Z</time>
      </trkpt>
      <trkpt lat="48.70713" lon="1.98518">
        <ele>119.905239</ele>
        <time>2016-05-08T14:50:00Z</time>
      </trkpt>
      <trkpt lat="48.70715" lon="1.9852">
        <ele>119.532803</ele>
        <time>2016-05-08T14:50:02Z</time>
      </trkpt>
      <trkpt lat="48.70717" lon="1.98522">
        <ele>120.146084</ele>
        <time>2016-05-08T14:50:04Z</time>
      </trkpt>
      <trkpt lat="48.70721" lon="1.98523">
        <ele>119.577053</ele>
        <time>2016-05-08T14:50:06Z</time>
      </trkpt>
      <trkpt lat="48.70722" lon="1.98526">
        <ele>119.296108</ele>
        <time>2016-05-08T14:50:08Z</time>
      </trkpt>
      <trkpt lat="48.70724" lon="1.9853">
        <ele>119.090298</ele>
        <time>2016-05-08T14:50:10Z</time>
      </trkpt>
      <trkpt lat="48.70724" lon="1.98535">
        <ele>119.130825</ele>
        <time>2016-05-08T14:50:12Z</time>
      </trkpt>
      <trkpt lat="48.70724" lon="1.98539">
        <ele>119.734585</ele>
        <time>2016-05-08T14:50:14Z</time>
      </trkpt>
      <trkpt lat="48.70725" lon="1.98542">
        <ele>120.460415</ele>
        <time>2016-05-08T14:50:16Z</time>
      </trkpt>
      <trkpt lat="48.70727" lon="1.98544">
        <ele>120.839199</ele>
        <time>2016-05-08T14:50:18Z</time>
      </trkpt>
      <trkpt lat="48.70729" lon="1.98546">
        <ele>120.197292</ele>
        <time>2016-05-08T14:50:20Z</time>
      </trkpt>
      <trkpt lat="48.7073" lon="1.98548">
        <ele>119.196621</ele>
        <time>2016-05-08T14:50:22Z</time>
      </trkpt>
      <trkpt lat="48.7073" lon="1.98551">
        <ele>118.484402</ele>
        <time>2016-05-08T14:50:24Z</time>
      </trkpt>
      <trkpt lat="48.70731" lon="1.98553">
        <ele>118.030544</ele>
        <time>2016-05-08T14:50:26Z</time>
      </trkpt>
      <trkpt lat="48.70732" lon="1.98557">
        <ele>117.126736</ele>
        <time>2016-05-08T14:50:28Z</time>
      </trkpt>
      <trkpt lat="48.70733" lon="1.9856">
        <ele>117.098843</ele>
        <time>2016-05-08T14:50:30Z</time>
      </trkpt>
      <trkpt lat="48.70735" lon="1.98562">
        <ele>116.794033</ele>
        <time>2016-05-08T14:50:32Z</time>
      </trkpt>
      <trkpt lat="48.70738" lon="1.98564">
        <ele>116.658291</ele>
        <time>2016-05-08T14:50:34Z</time>
      </trkpt>
      <trkpt lat="48.70741" lon="1.98566">
        <ele>117.134853</ele>
        <time>2016-05-08T14:50:36Z</time>
      </trkpt>
      <trkpt lat="48.70742" lon="1.98568">
        <ele>116.458828</ele>
        <time>2016-05-08T14:50:38Z</time>
      </trkpt>
      <trkpt lat="48.70743" lon="1.98571">
        <ele>116.179409</ele>
        <time>2016-05-08T14:50:40Z</time>
      </trkpt>
      <trkpt lat="48.70744" lon="1.98575">
        <ele>115.887844</ele>
        <time>2016-05-08T14:50:42Z</time>
      </trkpt>
      <trkpt lat="48.70746" lon="1.98577">
        <ele>115.646267</ele>
        <time>2016-05-08T14:50:44Z</time>
      </trkpt>
      <trkpt lat="48.70747" lon="1.9858">
        <ele>115.338345</ele>
        <time>2016-05-08T14:50:46Z</time>
      </trkpt>
      <trkpt lat="48.70749" lon="1.98582">
        <ele>115.118313</ele>
        <time>2016-05-08T14:50:48Z</time>
      </trkpt>
      <trkpt lat="48.70752" lon="1.98585">
        <ele>115.159145</ele>
        <time>2016-05-08T14:50:50Z</time>
      </trkpt>
      <trkpt lat="48.70754" lon="1.98587">
        <ele>115.149075</ele>
        <time>2016-05-08T14:50:52Z</time>
      </trkpt>
      <trkpt lat="48.70756" lon="1.98591">
        <ele>115.409512</ele>
        <time>2016-05-08T14:50:54Z</time>
      </trkpt>
      <trkpt lat="48.70758" lon="1.98594">
        <ele>115.295864</ele>
        <time>2016-05-08T14:50:56Z</time>
      </trkpt>
      <trkpt lat="48.7076" lon="1.98596">
        <ele>115.416042</ele>
        <time>2016-05-08T14:50:58Z</time>
      </trkpt>
      <trkpt lat="48.70761" lon="1.986">
        <ele>115.202847</ele>
        <time>2016-05-08T14:51:00Z</time>
      </trkpt>
      <trkpt lat="48.70763" lon="1.98602">
        <ele>114.247158</ele>
        <time>2016-05-08T14:51:02Z</time>
      </trkpt>
      <trkpt lat="48.70765" lon="1.98605">
        <ele>113.623745</ele>
        <time>2016-05-08T14:51:04Z</time>
      </trkpt>
      <trkpt lat="48.70766" lon="1.98607">
        <ele>113.058559</ele>
        <time>2016-05-08T14:51:06Z</time>
      </trkpt>
      <trkpt lat="48.70768" lon="1.9861">
        <ele>113.046352</ele>
        <time>2016-05-08T14:51:08Z</time>
      </trkpt>
      <trkpt lat="48.7077" lon="1.98612">
        <ele>113.195339</ele>
        <time>2016-05-08T14:51:10Z</time>
      </trkpt>
      <trkpt lat="48.70771" lon="1.98616">
        <ele>113.014309</ele>
        <time>2016-05-08T14:51:12Z</time>
      </trkpt>
      <trkpt lat="48.70771" lon="1.98618">
        <ele>112.737087</ele>
        <time>2016-05-08T14:51:14Z</time>
      </trkpt>
      <trkpt lat="48.70771" lon="1.98621">
        <ele>112.314907</ele>
        <time>2016-05-08T14:51:16Z</time>
      </trkpt>
      <trkpt lat="48.70772" lon="1.98624">
        <ele>112.801296</ele>
        <time>2016-05-08T14:51:18Z</time>
      </trkpt>
      <trkpt lat="48.70773" lon="1.98628">
        <ele>112.207058</ele>
        <time>2016-05-08T14:51:20Z</time>
      </trkpt>
      <trkpt lat="48.70774" lon="1.98631">
        <ele>111.703274</ele>
        <time>2016-05-08T14:51:22Z</time>
      </trkpt>
      <trkpt lat="48.70776" lon="1.98633">
        <ele>111.98727</ele>
        <time>2016-05-08T14:51:24Z</time>
      </trkpt>
      <trkpt lat="48.70777" lon="1.98634">
        <ele>110.942715</ele>
        <time>2016-05-08T14:51:26Z</time>
      </trkpt>
      <trkpt lat="48.70778" lon="1.98636">
        <ele>110.200283</ele>
        <time>2016-05-08T14:51:28Z</time>
      </trkpt>
      <trkpt lat="48.7078" lon="1.98638">
        <ele>110.337246</ele>
        <time>2016-05-08T14:51:30Z</time>
      </trkpt>
      <trkpt lat="48.70781" lon="1.9864">
        <ele>110.432339</ele>
        <time>2016-05-08T14:51:32Z</time>
      </trkpt>
      <trkpt lat="48.70783" lon="1.98642">
        <ele>109.880093</ele>
        <time>2016-05-08T14:51:34Z</time>
      </trkpt>
      <trkpt lat="48.70785" lon="1.98645">
        <ele>109.743313</ele>
        <time>2016-05-08T14:51:36Z</time>
      </trkpt>
      <trkpt lat="48.70785" lon="1.98646">
        <ele>108.161587</ele>
        <time>2016-05-08T14:51:38Z</time>
      </trkpt>
      <trkpt lat="48.70786" lon="1.98646">
        <ele>107.740688</ele>
        <time>2016-05-08T14:51:40Z</time>
      </trkpt>
      <trkpt lat="48.70787" lon="1.98644">
        <ele>107.888699</ele>
        <time>2016-05-08T14:51:42Z</time>
      </trkpt>
      <trkpt lat="48.70789" lon="1.98643">
        <ele>107.10397</ele>
        <time>2016-05-08T14:51:44Z</time>
      </trkpt>
      <trkpt lat="48.7079" lon="1.98641">
        <ele>106.509365</ele>
        <time>2016-05-08T14:51:46Z</time>
      </trkpt>
      <trkpt lat="48.70791" lon="1.98638">
        <ele>105.672573</ele>
        <time>2016-05-08T14:51:48Z</time>
      </trkpt>
      <trkpt lat="48.70793" lon="1.98636">
        <ele>105.833767</ele>
        <time>2016-05-08T14:51:50Z</time>
      </trkpt>
      <trkpt lat="48.70794" lon="1.98634">
        <ele>105.763638</ele>
        <time>2016-05-08T14:51:52Z</time>
      </trkpt>
      <trkpt lat="48.70795" lon="1.9863">
        <ele>105.52676</ele>
        <time>2016-05-08T14:51:54Z</time>
      </trkpt>
      <trkpt lat="48.70795" lon="1.98626">
        <ele>105.442287</ele>
        <time>2016-05-08T14:51:56Z</time>
      </trkpt>
      <trkpt lat="48.70796" lon="1.98623">
        <ele>104.856594</ele>
        <time>2016-05-08T14:51:58Z</time>
      </trkpt>
      <trkpt lat="48.70797" lon="1.9862">
        <ele>105.137417</ele>
        <time>2016-05-08T14:52:00Z</time>
      </trkpt>
      <trkpt lat="48.70798" lon="1.98618">
        <ele>104.936245</ele>
        <time>2016-05-08T14:52:02Z</time>
      </trkpt>
      <trkpt lat="48.70799" lon="1.98616">
        <ele>105.139858</ele>
        <time>2016-05-08T14:52:04Z</time>
      </trkpt>
      <trkpt lat="48.708" lon="1.98614">
        <ele>103.712063</ele>
        <time>2016-05-08T14:52:06Z</time>
      </trkpt>
      <trkpt lat="48.708" lon="1.98612">
        <ele>104.229458</ele>
        <time>2016-05-08T14:52:08Z</time>
      </trkpt>
      <trkpt lat="48.70801" lon="1.9861">
        <ele>103.975368</ele>
        <time>2016-05-08T14:52:10Z</time>
      </trkpt>
      <trkpt lat="48.70803" lon="1.98608">
        <ele>102.508144</ele>
        <time>2016-05-08T14:52:12Z</time>
      </trkpt>
      <trkpt lat="48.70804" lon="1.98606">
        <ele>102.131863</ele>
        <time>2016-05-08T14:52:14Z</time>
      </trkpt>
      <trkpt lat="48.70805" lon="1.98604">
        <ele>102.560452</ele>
        <time>2016-05-08T14:52:16Z</time>
      </trkpt>
      <trkpt lat="48.70806" lon="1.98601">
        <ele>101.962185</ele>
        <time>2016-05-08T14:52:18Z</time>
      </trkpt>
      <trkpt lat="48.70808" lon="1.98599">
        <ele>103.148891</ele>
        <time>2016-05-08T14:52:20Z</time>
      </trkpt>
      <trkpt lat="48.70809" lon="1.98596">
        <ele>103.27737</ele>
        <time>2016-05-08T14:52:22Z</time>
      </trkpt>
      <trkpt lat="48.7081" lon="1.98593">
        <ele>103.748684</ele>
        <time>2016-05-08T14:52:24Z</time>
      </trkpt>
      <trkpt lat="48.70811" lon="1.9859">
        <ele>103.567715</ele>
        <time>2016-05-08T14:52:26Z</time>
      </trkpt>
      <trkpt lat="48.70813" lon="1.98587">
        <ele>105.277554</ele>
        <time>2016-05-08T14:52:28Z</time>
      </trkpt>
      <trkpt lat="48.70814" lon="1.98585">
        <ele>105.408657</ele>
        <time>2016-05-08T14:52:30Z</time>
      </trkpt>
      <trkpt lat="48.70816" lon="1.98583">
        <ele>104.863735</ele>
        <time>2016-05-08T14:52:32Z</time>
      </trkpt>
      <trkpt lat="48.70816" lon="1.9858">
        <ele>104.983486</ele>
        <time>2016-05-08T14:52:34Z</time>
      </trkpt>
      <trkpt lat="48.70817" lon="1.98577">
        <ele>104.651577</ele>
        <time>2016-05-08T14:52:36Z</time>
      </trkpt>
      <trkpt lat="48.70819" lon="1.98575">
        <ele>104.475552</ele>
        <time>2016-05-08T14:52:38Z</time>
      </trkpt>
      <trkpt lat="48.70819" lon="1.98572">
        <ele>104.245693</ele>
        <time>2016-05-08T14:52:40Z</time>
      </trkpt>
      <trkpt lat="48.7082" lon="1.98569">
        <ele>103.744106</ele>
        <time>2016-05-08T14:52:42Z</time>
      </trkpt>
      <trkpt lat="48.70821" lon="1.98566">
        <ele>103.355434</ele>
        <time>2016-05-08T14:52:44Z</time>
      </trkpt>
      <trkpt lat="48.70822" lon="1.98563">
        <ele>103.186184</ele>
        <time>2016-05-08T14:52:46Z</time>
      </trkpt>
      <trkpt lat="48.70822" lon="1.9856">
        <ele>103.002407</ele>
        <time>2016-05-08T14:52:48Z</time>
      </trkpt>
      <trkpt lat="48.70823" lon="1.98558">
        <ele>103.248257</ele>
        <time>2016-05-08T14:52:50Z</time>
      </trkpt>
      <trkpt lat="48.70824" lon="1.98556">
        <ele>103.374233</ele>
        <time>2016-05-08T14:52:52Z</time>
      </trkpt>
      <trkpt lat="48.70824" lon="1.98555">
        <ele>104.229702</ele>
        <time>2016-05-08T14:52:54Z</time>
      </trkpt>
      <trkpt lat="48.70826" lon="1.98552">
        <ele>104.926235</ele>
        <time>2016-05-08T14:52:56Z</time>
      </trkpt>
      <trkpt lat="48.70829" lon="1.98551">
        <ele>104.502651</ele>
        <time>2016-05-08T14:52:58Z</time>
      </trkpt>
      <trkpt lat="48.70831" lon="1.98549">
        <ele>105.017422</ele>
        <time>2016-05-08T14:53:00Z</time>
      </trkpt>
      <trkpt lat="48.70834" lon="1.98548">
        <ele>105.055264</ele>
        <time>2016-05-08T14:53:02Z</time>
      </trkpt>
      <trkpt lat="48.70837" lon="1.98547">
        <ele>107.492519</ele>
        <time>2016-05-08T14:53:04Z</time>
      </trkpt>
      <trkpt lat="48.7084" lon="1.98545">
        <ele>108.035732</ele>
        <time>2016-05-08T14:53:06Z</time>
      </trkpt>
      <trkpt lat="48.70841" lon="1.98542">
        <ele>108.632168</ele>
        <time>2016-05-08T14:53:08Z</time>
      </trkpt>
      <trkpt lat="48.70841" lon="1.98541">
        <ele>108.081203</ele>
        <time>2016-05-08T14:53:10Z</time>
      </trkpt>
      <trkpt lat="48.7084" lon="1.98541">
        <ele>108.437588</ele>
        <time>2016-05-08T14:53:12Z</time>
      </trkpt>
      <trkpt lat="48.7084" lon="1.98541">
        <ele>108.464382</ele>
        <time>2016-05-08T14:53:14Z</time>
      </trkpt>
      <trkpt lat="48.7084" lon="1.98544">
        <ele>108.312344</ele>
        <time>2016-05-08T14:53:16Z</time>
      </trkpt>
      <trkpt lat="48.70842" lon="1.98544">
        <ele>108.374844</ele>
        <time>2016-05-08T14:53:18Z</time>
      </trkpt>
      <trkpt lat="48.70844" lon="1.98543">
        <ele>107.500332</ele>
        <time>2016-05-08T14:53:20Z</time>
      </trkpt>
      <trkpt lat="48.70845" lon="1.98542">
        <ele>108.077419</ele>
        <time>2016-05-08T14:53:22Z</time>
      </trkpt>
      <trkpt lat="48.70847" lon="1.98541">
        <ele>108.331387</ele>
        <time>2016-05-08T14:53:24Z</time>
      </trkpt>
      <trkpt lat="48.70849" lon="1.98541">
        <ele>109.013332</ele>
        <time>2016-05-08T14:53:26Z</time>
      </trkpt>
      <trkpt lat="48.70852" lon="1.9854">
        <ele>109.002651</ele>
        <time>2016-05-08T14:53:28Z</time>
      </trkpt>
      <trkpt lat="48.70854" lon="1.9854">
        <ele>109.656582</ele>
        <time>2016-05-08T14:53:30Z</time>
      </trkpt>
      <trkpt lat="48.70857" lon="1.9854">
        <ele>109.018398</ele>
        <time>2016-05-08T14:53:32Z</time>
      </trkpt>
      <trkpt lat="48.70859" lon="1.98539">
        <ele>107.354946</ele>
        <time>2016-05-08T14:53:34Z</time>
      </trkpt>
      <trkpt lat="48.70863" lon="1.98539">
        <ele>106.661953</ele>
        <time>2016-05-08T14:53:36Z</time>
      </trkpt>
      <trkpt lat="48.70867" lon="1.98538">
        <ele>103.763393</ele>
        <time>2016-05-08T14:53:38Z</time>
      </trkpt>
      <trkpt lat="48.70869" lon="1.98538">
        <ele>102.790737</ele>
        <time>2016-05-08T14:53:40Z</time>
      </trkpt>
      <trkpt lat="48.7087" lon="1.98538">
        <ele>102.981411</ele>
        <time>2016-05-08T14:53:42Z</time>
      </trkpt>
      <trkpt lat="48.70872" lon="1.98538">
        <ele>101.914089</ele>
        <time>2016-05-08T14:53:44Z</time>
      </trkpt>
      <trkpt lat="48.70873" lon="1.98539">
        <ele>101.806179</ele>
        <time>2016-05-08T14:53:46Z</time>
      </trkpt>
      <trkpt lat="48.70875" lon="1.9854">
        <ele>101.829678</ele>
        <time>2016-05-08T14:53:48Z</time>
      </trkpt>
      <trkpt lat="48.70878" lon="1.9854">
        <ele>100.67001</ele>
        <time>2016-05-08T14:53:50Z</time>
      </trkpt>
      <trkpt lat="48.70881" lon="1.98541">
        <ele>100.931911</ele>
        <time>2016-05-08T14:53:52Z</time>
      </trkpt>
      <trkpt lat="48.70883" lon="1.98542">
        <ele>101.206509</ele>
        <time>2016-05-08T14:53:54Z</time>
      </trkpt>
      <trkpt lat="48.70884" lon="1.98543">
        <ele>101.068386</ele>
        <time>2016-05-08T14:53:56Z</time>
      </trkpt>
      <trkpt lat="48.70887" lon="1.98543">
        <ele>101.034817</ele>
        <time>2016-05-08T14:53:58Z</time>
      </trkpt>
      <trkpt lat="48.7089" lon="1.98542">
        <ele>101.352993</ele>
        <time>2016-05-08T14:54:00Z</time>
      </trkpt>
      <trkpt lat="48.70893" lon="1.98541">
        <ele>98.9501</ele>
        <time>2016-05-08T14:54:02Z</time>
      </trkpt>
      <trkpt lat="48.70895" lon="1.98541">
        <ele>98.853298</ele>
        <time>2016-05-08T14:54:04Z</time>
      </trkpt>
      <trkpt lat="48.70899" lon="1.98542">
        <ele>99.442287</ele>
        <time>2016-05-08T14:54:06Z</time>
      </trkpt>
      <trkpt lat="48.70902" lon="1.98543">
        <ele>100.788601</ele>
        <time>2016-05-08T14:54:08Z</time>
      </trkpt>
      <trkpt lat="48.70906" lon="1.98545">
        <ele>100.317532</ele>
        <time>2016-05-08T14:54:10Z</time>
      </trkpt>
      <trkpt lat="48.70908" lon="1.98545">
        <ele>100.409206</ele>
        <time>2016-05-08T14:54:12Z</time>
      </trkpt>
      <trkpt lat="48.70911" lon="1.98545">
        <ele>101.410732</ele>
        <time>2016-05-08T14:54:14Z</time>
      </trkpt>
      <trkpt lat="48.70914" lon="1.98546">
        <ele>101.536587</ele>
        <time>2016-05-08T14:54:16Z</time>
      </trkpt>
      <trkpt lat="48.70914" lon="1.98548">
        <ele>100.753201</ele>
        <time>2016-05-08T14:54:18Z</time>
      </trkpt>
      <trkpt lat="48.70915" lon="1.98549">
        <ele>100.501797</ele>
        <time>2016-05-08T14:54:20Z</time>
      </trkpt>
      <trkpt lat="48.70917" lon="1.98549">
        <ele>99.869167</ele>
        <time>2016-05-08T14:54:22Z</time>
      </trkpt>
      <trkpt lat="48.70918" lon="1.98551">
        <ele>99.881069</ele>
        <time>2016-05-08T14:54:24Z</time>
      </trkpt>
      <trkpt lat="48.7092" lon="1.98553">
        <ele>101.159206</ele>
        <time>2016-05-08T14:54:26Z</time>
      </trkpt>
      <trkpt lat="48.70923" lon="1.98553">
        <ele>101.253017</ele>
        <time>2016-05-08T14:54:28Z</time>
      </trkpt>
      <trkpt lat="48.70925" lon="1.98554">
        <ele>101.769375</ele>
        <time>2016-05-08T14:54:30Z</time>
      </trkpt>
      <trkpt lat="48.70928" lon="1.98555">
        <ele>101.616604</ele>
        <time>2016-05-08T14:54:32Z</time>
      </trkpt>
      <trkpt lat="48.70931" lon="1.98556">
        <ele>101.957241</ele>
        <time>2016-05-08T14:54:34Z</time>
      </trkpt>
      <trkpt lat="48.70933" lon="1.98556">
        <ele>101.879482</ele>
        <time>2016-05-08T14:54:36Z</time>
      </trkpt>
      <trkpt lat="48.70935" lon="1.98557">
        <ele>101.996731</ele>
        <time>2016-05-08T14:54:38Z</time>
      </trkpt>
      <trkpt lat="48.70937" lon="1.98558">
        <ele>100.55331</ele>
        <time>2016-05-08T14:54:40Z</time>
      </trkpt>
      <trkpt lat="48.70938" lon="1.98559">
        <ele>100.353603</ele>
        <time>2016-05-08T14:54:42Z</time>
      </trkpt>
      <trkpt lat="48.7094" lon="1.98561">
        <ele>99.084316</ele>
        <time>2016-05-08T14:54:44Z</time>
      </trkpt>
      <trkpt lat="48.7094" lon="1.98564">
        <ele>97.49667</ele>
        <time>2016-05-08T14:54:46Z</time>
      </trkpt>
      <trkpt lat="48.70941" lon="1.98566">
        <ele>98.204556</ele>
        <time>2016-05-08T14:54:48Z</time>
      </trkpt>
      <trkpt lat="48.70941" lon="1.98569">
        <ele>96.647671</ele>
        <time>2016-05-08T14:54:50Z</time>
      </trkpt>
      <trkpt lat="48.70941" lon="1.98571">
        <ele>95.181362</ele>
        <time>2016-05-08T14:54:52Z</time>
      </trkpt>
      <trkpt lat="48.70943" lon="1.98572">
        <ele>94.465664</ele>
        <time>2016-05-08T14:54:54Z</time>
      </trkpt>
      <trkpt lat="48.70944" lon="1.98573">
        <ele>94.472805</ele>
        <time>2016-05-08T14:54:56Z</time>
      </trkpt>
      <trkpt lat="48.70946" lon="1.98574">
        <ele>94.690884</ele>
        <time>2016-05-08T14:54:58Z</time>
      </trkpt>
      <trkpt lat="48.70949" lon="1.98576">
        <ele>94.567593</ele>
        <time>2016-05-08T14:55:00Z</time>
      </trkpt>
      <trkpt lat="48.70951" lon="1.98578">
        <ele>93.521328</ele>
        <time>2016-05-08T14:55:02Z</time>
      </trkpt>
      <trkpt lat="48.70953" lon="1.9858">
        <ele>94.142849</ele>
        <time>2016-05-08T14:55:04Z</time>
      </trkpt>
      <trkpt lat="48.70953" lon="1.9858">
        <ele>94.533169</ele>
        <time>2016-05-08T14:55:06Z</time>
      </trkpt>
      <trkpt lat="48.70954" lon="1.98581">
        <ele>95.030056</ele>
        <time>2016-05-08T14:55:08Z</time>
      </trkpt>
      <trkpt lat="48.70956" lon="1.98582">
        <ele>94.804958</ele>
        <time>2016-05-08T14:55:10Z</time>
      </trkpt>
      <trkpt lat="48.70958" lon="1.98584">
        <ele>92.593349</ele>
        <time>2016-05-08T14:55:12Z</time>
      </trkpt>
      <trkpt lat="48.7096" lon="1.98585">
        <ele>92.297695</ele>
        <time>2016-05-08T14:55:14Z</time>
      </trkpt>
      <trkpt lat="48.70963" lon="1.98587">
        <ele>91.978603</ele>
        <time>2016-05-08T14:55:16Z</time>
      </trkpt>
      <trkpt lat="48.70966" lon="1.98589">
        <ele>91.706509</ele>
        <time>2016-05-08T14:55:18Z</time>
      </trkpt>
      <trkpt lat="48.70967" lon="1.9859">
        <ele>91.641506</ele>
        <time>2016-05-08T14:55:20Z</time>
      </trkpt>
      <trkpt lat="48.7097" lon="1.9859">
        <ele>91.217861</ele>
        <time>2016-05-08T14:55:22Z</time>
      </trkpt>
      <trkpt lat="48.70973" lon="1.98591">
        <ele>91.648464</ele>
        <time>2016-05-08T14:55:24Z</time>
      </trkpt>
      <trkpt lat="48.70974" lon="1.98591">
        <ele>91.298672</ele>
        <time>2016-05-08T14:55:26Z</time>
      </trkpt>
      <trkpt lat="48.70974" lon="1.98591">
        <ele>91.662441</ele>
        <time>2016-05-08T14:55:28Z</time>
      </trkpt>
      <trkpt lat="48.70974" lon="1.98591">
        <ele>91.663662</ele>
        <time>2016-05-08T14:55:30Z</time>
      </trkpt>
      <trkpt lat="48.70974" lon="1.98591">
        <ele>91.654507</ele>
        <time>2016-05-08T14:55:32Z</time>
      </trkpt>
      <trkpt lat="48.70974" lon="1.98591">
        <ele>91.650967</ele>
        <time>2016-05-08T14:55:34Z</time>
      </trkpt>
      <trkpt lat="48.70974" lon="1.98591">
        <ele>91.647915</ele>
        <time>2016-05-08T14:55:36Z</time>
      </trkpt>
      <trkpt lat="48.70974" lon="1.98591">
        <ele>91.64706</ele>
        <time>2016-05-08T14:55:38Z</time>
      </trkpt>
      <trkpt lat="48.70974" lon="1.98591">
        <ele>91.64352</ele>
        <time>2016-05-08T14:55:40Z</time>
      </trkpt>
      <trkpt lat="48.70974" lon="1.98591">
        <ele>91.640285</ele>
        <time>2016-05-08T14:55:42Z</time>
      </trkpt>
      <trkpt lat="48.70974" lon="1.98591">
        <ele>91.639065</ele>
        <time>2016-05-08T14:55:44Z</time>
      </trkpt>
      <trkpt lat="48.70974" lon="1.98591">
        <ele>91.636562</ele>
        <time>2016-05-08T14:55:46Z</time>
      </trkpt>
      <trkpt lat="48.70974" lon="1.98591">
        <ele>91.635708</ele>
        <time>2016-05-08T14:55:48Z</time>
      </trkpt>
      <trkpt lat="48.70974" lon="1.98591">
        <ele>91.628017</ele>
        <time>2016-05-08T14:55:50Z</time>
      </trkpt>
      <trkpt lat="48.70974" lon="1.98591">
        <ele>91.672146</ele>
        <time>2016-05-08T14:55:52Z</time>
      </trkpt>
      <trkpt lat="48.70972" lon="1.98592">
        <ele>91.745449</ele>
        <time>2016-05-08T14:55:54Z</time>
      </trkpt>
      <trkpt lat="48.70972" lon="1.98592">
        <ele>91.745205</ele>
        <time>2016-05-08T14:55:56Z</time>
      </trkpt>
      <trkpt lat="48.70972" lon="1.98592">
        <ele>91.754116</ele>
        <time>2016-05-08T14:55:58Z</time>
      </trkpt>
      <trkpt lat="48.70972" lon="1.98592">
        <ele>91.760769</ele>
        <time>2016-05-08T14:56:00Z</time>
      </trkpt>
      <trkpt lat="48.70972" lon="1.98592">
        <ele>91.765224</ele>
        <time>2016-05-08T14:56:02Z</time>
      </trkpt>
      <trkpt lat="48.70972" lon="1.98592">
        <ele>91.766567</ele>
        <time>2016-05-08T14:56:03Z</time>
      </trkpt>
      <trkpt lat="48.70972" lon="1.98592">
        <ele>91.774136</ele>
        <time>2016-05-08T14:56:05Z</time>
      </trkpt>
      <trkpt lat="48.70972" lon="1.98592">
        <ele>91.778347</ele>
        <time>2016-05-08T14:56:07Z</time>
      </trkpt>
      <trkpt lat="48.70972" lon="1.98592">
        <ele>91.781277</ele>
        <time>2016-05-08T14:56:09Z</time>
      </trkpt>
      <trkpt lat="48.70972" lon="1.98592">
        <ele>91.785366</ele>
        <time>2016-05-08T14:56:11Z</time>
      </trkpt>
      <trkpt lat="48.70972" lon="1.98592">
        <ele>91.783291</ele>
        <time>2016-05-08T14:56:13Z</time>
      </trkpt>
      <trkpt lat="48.70972" lon="1.98592">
        <ele>91.790127</ele>
        <time>2016-05-08T14:56:15Z</time>
      </trkpt>
      <trkpt lat="48.70972" lon="1.98592">
        <ele>91.795681</ele>
        <time>2016-05-08T14:56:17Z</time>
      </trkpt>
      <trkpt lat="48.70972" lon="1.98592">
        <ele>91.795376</ele>
        <time>2016-05-08T14:56:19Z</time>
      </trkpt>
      <trkpt lat="48.70972" lon="1.98592">
        <ele>91.791653</ele>
        <time>2016-05-08T14:56:21Z</time>
      </trkpt>
      <trkpt lat="48.70972" lon="1.98592">
        <ele>91.791531</ele>
        <time>2016-05-08T14:56:23Z</time>
      </trkpt>
      <trkpt lat="48.70972" lon="1.98592">
        <ele>91.794399</ele>
        <time>2016-05-08T14:56:25Z</time>
      </trkpt>
      <trkpt lat="48.70972" lon="1.98592">
        <ele>91.795498</ele>
        <time>2016-05-08T14:56:27Z</time>
      </trkpt>
      <trkpt lat="48.70972" lon="1.98592">
        <ele>91.794399</ele>
        <time>2016-05-08T14:56:29Z</time>
      </trkpt>
      <trkpt lat="48.70972" lon="1.98592">
        <ele>91.793911</ele>
        <time>2016-05-08T14:56:31Z</time>
      </trkpt>
      <trkpt lat="48.70972" lon="1.98592">
        <ele>91.791775</ele>
        <time>2016-05-08T14:56:33Z</time>
      </trkpt>
      <trkpt lat="48.70972" lon="1.98592">
        <ele>92.130093</ele>
        <time>2016-05-08T14:56:35Z</time>
      </trkpt>
      <trkpt lat="48.70973" lon="1.98592">
        <ele>92.599209</ele>
        <time>2016-05-08T14:56:37Z</time>
      </trkpt>
      <trkpt lat="48.70976" lon="1.98593">
        <ele>94.049038</ele>
        <time>2016-05-08T14:56:39Z</time>
      </trkpt>
      <trkpt lat="48.7098" lon="1.98593">
        <ele>94.077297</ele>
        <time>2016-05-08T14:56:41Z</time>
      </trkpt>
      <trkpt lat="48.70983" lon="1.98594">
        <ele>92.574429</ele>
        <time>2016-05-08T14:56:43Z</time>
      </trkpt>
      <trkpt lat="48.70986" lon="1.98594">
        <ele>91.802456</ele>
        <time>2016-05-08T14:56:45Z</time>
      </trkpt>
      <trkpt lat="48.70989" lon="1.98594">
        <ele>90.288784</ele>
        <time>2016-05-08T14:56:47Z</time>
      </trkpt>
      <trkpt lat="48.70989" lon="1.98594">
        <ele>90.295437</ele>
        <time>2016-05-08T14:56:49Z</time>
      </trkpt>
      <trkpt lat="48.70989" lon="1.98594">
        <ele>90.314419</ele>
        <time>2016-05-08T14:56:51Z</time>
      </trkpt>
      <trkpt lat="48.70989" lon="1.98594">
        <ele>92.217373</ele>
        <time>2016-05-08T14:56:53Z</time>
      </trkpt>
      <trkpt lat="48.70992" lon="1.98593">
        <ele>92.476162</ele>
        <time>2016-05-08T14:56:55Z</time>
      </trkpt>
      <trkpt lat="48.70995" lon="1.98591">
        <ele>91.356777</ele>
        <time>2016-05-08T14:56:57Z</time>
      </trkpt>
      <trkpt lat="48.70998" lon="1.9859">
        <ele>90.995998</ele>
        <time>2016-05-08T14:56:59Z</time>
      </trkpt>
      <trkpt lat="48.71" lon="1.98588">
        <ele>87.280972</ele>
        <time>2016-05-08T14:57:01Z</time>
      </trkpt>
      <trkpt lat="48.71003" lon="1.98586">
        <ele>87.4631</ele>
        <time>2016-05-08T14:57:03Z</time>
      </trkpt>
      <trkpt lat="48.71005" lon="1.98585">
        <ele>89.276333</ele>
        <time>2016-05-08T14:57:05Z</time>
      </trkpt>
      <trkpt lat="48.71008" lon="1.98584">
        <ele>89.70956</ele>
        <time>2016-05-08T14:57:07Z</time>
      </trkpt>
      <trkpt lat="48.71009" lon="1.98583">
        <ele>89.665432</ele>
        <time>2016-05-08T14:57:09Z</time>
      </trkpt>
      <trkpt lat="48.71009" lon="1.98583">
        <ele>87.635708</ele>
        <time>2016-05-08T14:57:10Z</time>
      </trkpt>
      <trkpt lat="48.71009" lon="1.98583">
        <ele>85.670376</ele>
        <time>2016-05-08T14:57:12Z</time>
      </trkpt>
      <trkpt lat="48.71008" lon="1.98584">
        <ele>83.888638</ele>
        <time>2016-05-08T14:57:13Z</time>
      </trkpt>
      <trkpt lat="48.71008" lon="1.98584">
        <ele>85.404263</ele>
        <time>2016-05-08T14:57:14Z</time>
      </trkpt>
      <trkpt lat="48.71009" lon="1.98585">
        <ele>84.374599</ele>
        <time>2016-05-08T14:57:15Z</time>
      </trkpt>
      <trkpt lat="48.7101" lon="1.98585">
        <ele>82.644131</ele>
        <time>2016-05-08T14:57:16Z</time>
      </trkpt>
      <trkpt lat="48.71011" lon="1.98584">
        <ele>83.303371</ele>
        <time>2016-05-08T14:57:17Z</time>
      </trkpt>
      <trkpt lat="48.71012" lon="1.98583">
        <ele>83.747768</ele>
        <time>2016-05-08T14:57:18Z</time>
      </trkpt>
      <trkpt lat="48.71014" lon="1.98582">
        <ele>83.538662</ele>
        <time>2016-05-08T14:57:19Z</time>
      </trkpt>
      <trkpt lat="48.71015" lon="1.98581">
        <ele>84.69656</ele>
        <time>2016-05-08T14:57:20Z</time>
      </trkpt>
      <trkpt lat="48.71016" lon="1.98581">
        <ele>85.66885</ele>
        <time>2016-05-08T14:57:21Z</time>
      </trkpt>
      <trkpt lat="48.71018" lon="1.9858">
        <ele>84.902309</ele>
        <time>2016-05-08T14:57:22Z</time>
      </trkpt>
      <trkpt lat="48.71019" lon="1.98579">
        <ele>85.513149</ele>
        <time>2016-05-08T14:57:23Z</time>
      </trkpt>
      <trkpt lat="48.71021" lon="1.98579">
        <ele>85.873379</ele>
        <time>2016-05-08T14:57:24Z</time>
      </trkpt>
      <trkpt lat="48.71022" lon="1.98579">
        <ele>86.697109</ele>
        <time>2016-05-08T14:57:25Z</time>
      </trkpt>
      <trkpt lat="48.71023" lon="1.98578">
        <ele>86.939419</ele>
        <time>2016-05-08T14:57:26Z</time>
      </trkpt>
      <trkpt lat="48.71025" lon="1.98578">
        <ele>86.856411</ele>
        <time>2016-05-08T14:57:27Z</time>
      </trkpt>
      <trkpt lat="48.71027" lon="1.98578">
        <ele>86.689419</ele>
        <time>2016-05-08T14:57:28Z</time>
      </trkpt>
      <trkpt lat="48.71028" lon="1.98577">
        <ele>86.978054</ele>
        <time>2016-05-08T14:57:29Z</time>
      </trkpt>
      <trkpt lat="48.7103" lon="1.98577">
        <ele>86.946987</ele>
        <time>2016-05-08T14:57:30Z</time>
      </trkpt>
      <trkpt lat="48.71031" lon="1.98576">
        <ele>86.657375</ele>
        <time>2016-05-08T14:57:31Z</time>
      </trkpt>
      <trkpt lat="48.71033" lon="1.98577">
        <ele>86.79562</ele>
        <time>2016-05-08T14:57:32Z</time>
      </trkpt>
      <trkpt lat="48.71033" lon="1.98577">
        <ele>86.842251</ele>
        <time>2016-05-08T14:57:33Z</time>
      </trkpt>
      <trkpt lat="48.71034" lon="1.98578">
        <ele>86.893032</ele>
        <time>2016-05-08T14:57:34Z</time>
      </trkpt>
      <trkpt lat="48.71035" lon="1.98578">
        <ele>86.883572</ele>
        <time>2016-05-08T14:57:35Z</time>
      </trkpt>
      <trkpt lat="48.71037" lon="1.98578">
        <ele>86.276089</ele>
        <time>2016-05-08T14:57:36Z</time>
      </trkpt>
      <trkpt lat="48.71038" lon="1.98578">
        <ele>86.500393</ele>
        <time>2016-05-08T14:57:37Z</time>
      </trkpt>
      <trkpt lat="48.71039" lon="1.98578">
        <ele>83.976894</ele>
        <time>2016-05-08T14:57:38Z</time>
      </trkpt>
      <trkpt lat="48.71041" lon="1.98578">
        <ele>83.729946</ele>
        <time>2016-05-08T14:57:39Z</time>
      </trkpt>
      <trkpt lat="48.71042" lon="1.98579">
        <ele>83.906216</ele>
        <time>2016-05-08T14:57:40Z</time>
      </trkpt>
      <trkpt lat="48.71044" lon="1.98579">
        <ele>83.312466</ele>
        <time>2016-05-08T14:57:41Z</time>
      </trkpt>
      <trkpt lat="48.71045" lon="1.98579">
        <ele>83.280483</ele>
        <time>2016-05-08T14:57:42Z</time>
      </trkpt>
      <trkpt lat="48.71045" lon="1.98579">
        <ele>83.90292</ele>
        <time>2016-05-08T14:57:43Z</time>
      </trkpt>
      <trkpt lat="48.71046" lon="1.98579">
        <ele>84.301113</ele>
        <time>2016-05-08T14:57:44Z</time>
      </trkpt>
      <trkpt lat="48.71047" lon="1.98578">
        <ele>85.279018</ele>
        <time>2016-05-08T14:57:45Z</time>
      </trkpt>
      <trkpt lat="48.71047" lon="1.98578">
        <ele>85.045376</ele>
        <time>2016-05-08T14:57:46Z</time>
      </trkpt>
      <trkpt lat="48.71049" lon="1.98578">
        <ele>85.025906</ele>
        <time>2016-05-08T14:57:47Z</time>
      </trkpt>
      <trkpt lat="48.7105" lon="1.98578">
        <ele>85.365505</ele>
        <time>2016-05-08T14:57:48Z</time>
      </trkpt>
      <trkpt lat="48.71052" lon="1.98578">
        <ele>85.017666</ele>
        <time>2016-05-08T14:57:49Z</time>
      </trkpt>
      <trkpt lat="48.71054" lon="1.98578">
        <ele>84.992031</ele>
        <time>2016-05-08T14:57:50Z</time>
      </trkpt>
      <trkpt lat="48.71055" lon="1.98577">
        <ele>84.79385</ele>
        <time>2016-05-08T14:57:51Z</time>
      </trkpt>
      <trkpt lat="48.71057" lon="1.98577">
        <ele>84.70364</ele>
        <time>2016-05-08T14:57:52Z</time>
      </trkpt>
      <trkpt lat="48.71059" lon="1.98577">
        <ele>84.359707</ele>
        <time>2016-05-08T14:57:53Z</time>
      </trkpt>
      <trkpt lat="48.7106" lon="1.98577">
        <ele>84.772854</ele>
        <time>2016-05-08T14:57:54Z</time>
      </trkpt>
      <trkpt lat="48.71061" lon="1.98577">
        <ele>85.22311</ele>
        <time>2016-05-08T14:57:55Z</time>
      </trkpt>
      <trkpt lat="48.71062" lon="1.98577">
        <ele>85.269314</ele>
        <time>2016-05-08T14:57:56Z</time>
      </trkpt>
      <trkpt lat="48.71063" lon="1.98578">
        <ele>85.254421</ele>
        <time>2016-05-08T14:57:57Z</time>
      </trkpt>
      <trkpt lat="48.71064" lon="1.98578">
        <ele>85.278591</ele>
        <time>2016-05-08T14:57:58Z</time>
      </trkpt>
      <trkpt lat="48.71065" lon="1.98578">
        <ele>86.186794</ele>
        <time>2016-05-08T14:57:59Z</time>
      </trkpt>
      <trkpt lat="48.71065" lon="1.98578">
        <ele>86.215054</ele>
        <time>2016-05-08T14:58:00Z</time>
      </trkpt>
      <trkpt lat="48.71066" lon="1.98578">
        <ele>86.78738</ele>
        <time>2016-05-08T14:58:01Z</time>
      </trkpt>
      <trkpt lat="48.71067" lon="1.98578">
        <ele>86.596157</ele>
        <time>2016-05-08T14:58:02Z</time>
      </trkpt>
      <trkpt lat="48.71068" lon="1.98579">
        <ele>86.601345</ele>
        <time>2016-05-08T14:58:03Z</time>
      </trkpt>
      <trkpt lat="48.71069" lon="1.98579">
        <ele>87.233974</ele>
        <time>2016-05-08T14:58:04Z</time>
      </trkpt>
      <trkpt lat="48.7107" lon="1.98578">
        <ele>87.239529</ele>
        <time>2016-05-08T14:58:05Z</time>
      </trkpt>
      <trkpt lat="48.71072" lon="1.98578">
        <ele>87.459316</ele>
        <time>2016-05-08T14:58:06Z</time>
      </trkpt>
      <trkpt lat="48.71073" lon="1.98578">
        <ele>85.70602</ele>
        <time>2016-05-08T14:58:07Z</time>
      </trkpt>
      <trkpt lat="48.71074" lon="1.98579">
        <ele>85.096218</ele>
        <time>2016-05-08T14:58:08Z</time>
      </trkpt>
      <trkpt lat="48.71075" lon="1.98579">
        <ele>84.469326</ele>
        <time>2016-05-08T14:58:09Z</time>
      </trkpt>
      <trkpt lat="48.71075" lon="1.9858">
        <ele>84.500149</ele>
        <time>2016-05-08T14:58:10Z</time>
      </trkpt>
      <trkpt lat="48.71076" lon="1.9858">
        <ele>84.513454</ele>
        <time>2016-05-08T14:58:11Z</time>
      </trkpt>
      <trkpt lat="48.71077" lon="1.98581">
        <ele>84.501431</ele>
        <time>2016-05-08T14:58:12Z</time>
      </trkpt>
      <trkpt lat="48.71078" lon="1.98581">
        <ele>84.426235</ele>
        <time>2016-05-08T14:58:13Z</time>
      </trkpt>
      <trkpt lat="48.71079" lon="1.98581">
        <ele>83.226223</ele>
        <time>2016-05-08T14:58:14Z</time>
      </trkpt>
      <trkpt lat="48.7108" lon="1.98581">
        <ele>83.089626</ele>
        <time>2016-05-08T14:58:15Z</time>
      </trkpt>
      <trkpt lat="48.71081" lon="1.98581">
        <ele>82.164272</ele>
        <time>2016-05-08T14:58:16Z</time>
      </trkpt>
      <trkpt lat="48.71082" lon="1.98581">
        <ele>82.273037</ele>
        <time>2016-05-08T14:58:17Z</time>
      </trkpt>
      <trkpt lat="48.71084" lon="1.98581">
        <ele>83.491787</ele>
        <time>2016-05-08T14:58:18Z</time>
      </trkpt>
      <trkpt lat="48.71086" lon="1.98582">
        <ele>84.035061</ele>
        <time>2016-05-08T14:58:19Z</time>
      </trkpt>
      <trkpt lat="48.71088" lon="1.98582">
        <ele>84.074062</ele>
        <time>2016-05-08T14:58:20Z</time>
      </trkpt>
      <trkpt lat="48.7109" lon="1.98582">
        <ele>84.321072</ele>
        <time>2016-05-08T14:58:21Z</time>
      </trkpt>
      <trkpt lat="48.71092" lon="1.98582">
        <ele>84.351772</ele>
        <time>2016-05-08T14:58:22Z</time>
      </trkpt>
      <trkpt lat="48.71093" lon="1.98582">
        <ele>84.639553</ele>
        <time>2016-05-08T14:58:23Z</time>
      </trkpt>
      <trkpt lat="48.71095" lon="1.98581">
        <ele>84.339809</ele>
        <time>2016-05-08T14:58:24Z</time>
      </trkpt>
      <trkpt lat="48.71096" lon="1.98581">
        <ele>84.439114</ele>
        <time>2016-05-08T14:58:25Z</time>
      </trkpt>
      <trkpt lat="48.71097" lon="1.9858">
        <ele>83.915188</ele>
        <time>2016-05-08T14:58:26Z</time>
      </trkpt>
      <trkpt lat="48.71098" lon="1.9858">
        <ele>83.878384</ele>
        <time>2016-05-08T14:58:27Z</time>
      </trkpt>
      <trkpt lat="48.71099" lon="1.9858">
        <ele>85.261806</ele>
        <time>2016-05-08T14:58:28Z</time>
      </trkpt>
      <trkpt lat="48.71101" lon="1.98581">
        <ele>84.865078</ele>
        <time>2016-05-08T14:58:29Z</time>
      </trkpt>
      <trkpt lat="48.71103" lon="1.98581">
        <ele>84.985317</ele>
        <time>2016-05-08T14:58:30Z</time>
      </trkpt>
      <trkpt lat="48.71105" lon="1.98582">
        <ele>85.729946</ele>
        <time>2016-05-08T14:58:31Z</time>
      </trkpt>
      <trkpt lat="48.71107" lon="1.98582">
        <ele>87.16354</ele>
        <time>2016-05-08T14:58:32Z</time>
      </trkpt>
      <trkpt lat="48.71108" lon="1.98581">
        <ele>87.277859</ele>
        <time>2016-05-08T14:58:33Z</time>
      </trkpt>
      <trkpt lat="48.71109" lon="1.98581">
        <ele>87.549953</ele>
        <time>2016-05-08T14:58:34Z</time>
      </trkpt>
      <trkpt lat="48.7111" lon="1.98581">
        <ele>87.351894</ele>
        <time>2016-05-08T14:58:35Z</time>
      </trkpt>
      <trkpt lat="48.71112" lon="1.98581">
        <ele>86.857449</ele>
        <time>2016-05-08T14:58:36Z</time>
      </trkpt>
      <trkpt lat="48.71113" lon="1.9858">
        <ele>87.753872</ele>
        <time>2016-05-08T14:58:37Z</time>
      </trkpt>
      <trkpt lat="48.71115" lon="1.9858">
        <ele>89.019009</ele>
        <time>2016-05-08T14:58:38Z</time>
      </trkpt>
      <trkpt lat="48.71117" lon="1.98579">
        <ele>89.195034</ele>
        <time>2016-05-08T14:58:39Z</time>
      </trkpt>
      <trkpt lat="48.71119" lon="1.98579">
        <ele>90.160061</ele>
        <time>2016-05-08T14:58:40Z</time>
      </trkpt>
      <trkpt lat="48.71121" lon="1.98579">
        <ele>90.241909</ele>
        <time>2016-05-08T14:58:41Z</time>
      </trkpt>
      <trkpt lat="48.71123" lon="1.98579">
        <ele>91.733181</ele>
        <time>2016-05-08T14:58:42Z</time>
      </trkpt>
      <trkpt lat="48.71124" lon="1.9858">
        <ele>86.863247</ele>
        <time>2016-05-08T14:58:43Z</time>
      </trkpt>
      <trkpt lat="48.71126" lon="1.9858">
        <ele>86.909512</ele>
        <time>2016-05-08T14:58:44Z</time>
      </trkpt>
      <trkpt lat="48.71127" lon="1.9858">
        <ele>85.502346</ele>
        <time>2016-05-08T14:58:45Z</time>
      </trkpt>
      <trkpt lat="48.71127" lon="1.9858">
        <ele>85.338467</ele>
        <time>2016-05-08T14:58:46Z</time>
      </trkpt>
      <trkpt lat="48.71128" lon="1.9858">
        <ele>85.35812</ele>
        <time>2016-05-08T14:58:47Z</time>
      </trkpt>
      <trkpt lat="48.71129" lon="1.98581">
        <ele>85.778164</ele>
        <time>2016-05-08T14:58:48Z</time>
      </trkpt>
      <trkpt lat="48.7113" lon="1.98581">
        <ele>85.561184</ele>
        <time>2016-05-08T14:58:49Z</time>
      </trkpt>
      <trkpt lat="48.71131" lon="1.98581">
        <ele>85.052029</ele>
        <time>2016-05-08T14:58:50Z</time>
      </trkpt>
      <trkpt lat="48.71132" lon="1.98581">
        <ele>85.589077</ele>
        <time>2016-05-08T14:58:51Z</time>
      </trkpt>
      <trkpt lat="48.71134" lon="1.98581">
        <ele>85.97366</ele>
        <time>2016-05-08T14:58:52Z</time>
      </trkpt>
      <trkpt lat="48.71135" lon="1.98581">
        <ele>85.948635</ele>
        <time>2016-05-08T14:58:53Z</time>
      </trkpt>
      <trkpt lat="48.71137" lon="1.98581">
        <ele>86.388577</ele>
        <time>2016-05-08T14:58:54Z</time>
      </trkpt>
      <trkpt lat="48.71139" lon="1.98582">
        <ele>84.760342</ele>
        <time>2016-05-08T14:58:55Z</time>
      </trkpt>
      <trkpt lat="48.7114" lon="1.98582">
        <ele>82.949062</ele>
        <time>2016-05-08T14:58:56Z</time>
      </trkpt>
      <trkpt lat="48.71141" lon="1.98582">
        <ele>83.047573</ele>
        <time>2016-05-08T14:58:57Z</time>
      </trkpt>
      <trkpt lat="48.71143" lon="1.98582">
        <ele>83.408047</ele>
        <time>2016-05-08T14:58:58Z</time>
      </trkpt>
      <trkpt lat="48.71145" lon="1.98582">
        <ele>83.777798</ele>
        <time>2016-05-08T14:58:59Z</time>
      </trkpt>
      <trkpt lat="48.71146" lon="1.98582">
        <ele>82.229275</ele>
        <time>2016-05-08T14:59:00Z</time>
      </trkpt>
      <trkpt lat="48.71147" lon="1.98582">
        <ele>82.35873</ele>
        <time>2016-05-08T14:59:01Z</time>
      </trkpt>
      <trkpt lat="48.71148" lon="1.98583">
        <ele>82.626675</ele>
        <time>2016-05-08T14:59:02Z</time>
      </trkpt>
      <trkpt lat="48.71149" lon="1.98583">
        <ele>83.313259</ele>
        <time>2016-05-08T14:59:03Z</time>
      </trkpt>
      <trkpt lat="48.71149" lon="1.98583">
        <ele>83.181545</ele>
        <time>2016-05-08T14:59:04Z</time>
      </trkpt>
      <trkpt lat="48.71149" lon="1.98584">
        <ele>83.891018</ele>
        <time>2016-05-08T14:59:05Z</time>
      </trkpt>
      <trkpt lat="48.7115" lon="1.98584">
        <ele>83.347073</ele>
        <time>2016-05-08T14:59:06Z</time>
      </trkpt>
      <trkpt lat="48.71151" lon="1.98585">
        <ele>83.498257</ele>
        <time>2016-05-08T14:59:07Z</time>
      </trkpt>
      <trkpt lat="48.71153" lon="1.98585">
        <ele>84.474514</ele>
        <time>2016-05-08T14:59:08Z</time>
      </trkpt>
      <trkpt lat="48.71154" lon="1.98585">
        <ele>84.173428</ele>
        <time>2016-05-08T14:59:09Z</time>
      </trkpt>
      <trkpt lat="48.71154" lon="1.98586">
        <ele>82.167812</ele>
        <time>2016-05-08T14:59:10Z</time>
      </trkpt>
      <trkpt lat="48.71154" lon="1.98586">
        <ele>83.477749</ele>
        <time>2016-05-08T14:59:11Z</time>
      </trkpt>
      <trkpt lat="48.71154" lon="1.98586">
        <ele>83.380947</ele>
        <time>2016-05-08T14:59:12Z</time>
      </trkpt>
      <trkpt lat="48.71154" lon="1.98586">
        <ele>82.971523</ele>
        <time>2016-05-08T14:59:13Z</time>
      </trkpt>
      <trkpt lat="48.71154" lon="1.98587">
        <ele>82.9006</ele>
        <time>2016-05-08T14:59:14Z</time>
      </trkpt>
      <trkpt lat="48.71155" lon="1.98587">
        <ele>83.094509</ele>
        <time>2016-05-08T14:59:15Z</time>
      </trkpt>
      <trkpt lat="48.71157" lon="1.98587">
        <ele>83.875759</ele>
        <time>2016-05-08T14:59:16Z</time>
      </trkpt>
      <trkpt lat="48.71158" lon="1.98588">
        <ele>84.359097</ele>
        <time>2016-05-08T14:59:17Z</time>
      </trkpt>
      <trkpt lat="48.7116" lon="1.98588">
        <ele>83.972439</ele>
        <time>2016-05-08T14:59:18Z</time>
      </trkpt>
      <trkpt lat="48.71161" lon="1.98588">
        <ele>83.666714</ele>
        <time>2016-05-08T14:59:19Z</time>
      </trkpt>
      <trkpt lat="48.71163" lon="1.98588">
        <ele>83.771084</ele>
        <time>2016-05-08T14:59:20Z</time>
      </trkpt>
      <trkpt lat="48.71163" lon="1.98589">
        <ele>83.728298</ele>
        <time>2016-05-08T14:59:21Z</time>
      </trkpt>
      <trkpt lat="48.71163" lon="1.98589">
        <ele>82.438076</ele>
        <time>2016-05-08T14:59:22Z</time>
      </trkpt>
      <trkpt lat="48.71163" lon="1.9859">
        <ele>82.204311</ele>
        <time>2016-05-08T14:59:23Z</time>
      </trkpt>
      <trkpt lat="48.71164" lon="1.98589">
        <ele>81.827114</ele>
        <time>2016-05-08T14:59:24Z</time>
      </trkpt>
      <trkpt lat="48.71165" lon="1.98589">
        <ele>81.725246</ele>
        <time>2016-05-08T14:59:25Z</time>
      </trkpt>
      <trkpt lat="48.71166" lon="1.98589">
        <ele>81.3298</ele>
        <time>2016-05-08T14:59:26Z</time>
      </trkpt>
      <trkpt lat="48.71166" lon="1.98589">
        <ele>81.272671</ele>
        <time>2016-05-08T14:59:27Z</time>
      </trkpt>
      <trkpt lat="48.71167" lon="1.98589">
        <ele>80.927944</ele>
        <time>2016-05-08T14:59:28Z</time>
      </trkpt>
      <trkpt lat="48.71168" lon="1.98588">
        <ele>78.500698</ele>
        <time>2016-05-08T14:59:29Z</time>
      </trkpt>
      <trkpt lat="48.71169" lon="1.98588">
        <ele>79.261806</ele>
        <time>2016-05-08T14:59:30Z</time>
      </trkpt>
      <trkpt lat="48.7117" lon="1.98588">
        <ele>78.896694</ele>
        <time>2016-05-08T14:59:31Z</time>
      </trkpt>
      <trkpt lat="48.71172" lon="1.98587">
        <ele>79.067776</ele>
        <time>2016-05-08T14:59:32Z</time>
      </trkpt>
      <trkpt lat="48.71173" lon="1.98587">
        <ele>79.065456</ele>
        <time>2016-05-08T14:59:33Z</time>
      </trkpt>
      <trkpt lat="48.71175" lon="1.98587">
        <ele>80.544216</ele>
        <time>2016-05-08T14:59:34Z</time>
      </trkpt>
      <trkpt lat="48.71177" lon="1.98587">
        <ele>79.76907</ele>
        <time>2016-05-08T14:59:35Z</time>
      </trkpt>
      <trkpt lat="48.71179" lon="1.98586">
        <ele>79.711697</ele>
        <time>2016-05-08T14:59:36Z</time>
      </trkpt>
      <trkpt lat="48.7118" lon="1.98585">
        <ele>79.576565</ele>
        <time>2016-05-08T14:59:37Z</time>
      </trkpt>
      <trkpt lat="48.71181" lon="1.98584">
        <ele>79.599087</ele>
        <time>2016-05-08T14:59:38Z</time>
      </trkpt>
      <trkpt lat="48.71182" lon="1.98583">
        <ele>79.752285</ele>
        <time>2016-05-08T14:59:39Z</time>
      </trkpt>
      <trkpt lat="48.71184" lon="1.98581">
        <ele>79.620815</ele>
        <time>2016-05-08T14:59:40Z</time>
      </trkpt>
      <trkpt lat="48.71185" lon="1.98579">
        <ele>79.522305</ele>
        <time>2016-05-08T14:59:41Z</time>
      </trkpt>
      <trkpt lat="48.71186" lon="1.98577">
        <ele>79.751614</ele>
        <time>2016-05-08T14:59:42Z</time>
      </trkpt>
      <trkpt lat="48.71188" lon="1.98576">
        <ele>80.290127</ele>
        <time>2016-05-08T14:59:43Z</time>
      </trkpt>
      <trkpt lat="48.71189" lon="1.98575">
        <ele>80.589138</ele>
        <time>2016-05-08T14:59:44Z</time>
      </trkpt>
      <trkpt lat="48.71191" lon="1.98574">
        <ele>80.740627</ele>
        <time>2016-05-08T14:59:45Z</time>
      </trkpt>
      <trkpt lat="48.71192" lon="1.98573">
        <ele>80.70834</ele>
        <time>2016-05-08T14:59:46Z</time>
      </trkpt>
      <trkpt lat="48.71194" lon="1.98574">
        <ele>79.091152</ele>
        <time>2016-05-08T14:59:47Z</time>
      </trkpt>
      <trkpt lat="48.71196" lon="1.98574">
        <ele>78.760464</ele>
        <time>2016-05-08T14:59:48Z</time>
      </trkpt>
      <trkpt lat="48.71197" lon="1.98575">
        <ele>78.758877</ele>
        <time>2016-05-08T14:59:49Z</time>
      </trkpt>
      <trkpt lat="48.71199" lon="1.98576">
        <ele>76.704189</ele>
        <time>2016-05-08T14:59:50Z</time>
      </trkpt>
      <trkpt lat="48.712" lon="1.98577">
        <ele>76.499966</ele>
        <time>2016-05-08T14:59:51Z</time>
      </trkpt>
      <trkpt lat="48.71201" lon="1.98578">
        <ele>76.180202</ele>
        <time>2016-05-08T14:59:52Z</time>
      </trkpt>
      <trkpt lat="48.71202" lon="1.98578">
        <ele>75.879726</ele>
        <time>2016-05-08T14:59:53Z</time>
      </trkpt>
      <trkpt lat="48.71202" lon="1.98578">
        <ele>76.420254</ele>
        <time>2016-05-08T14:59:54Z</time>
      </trkpt>
      <trkpt lat="48.71203" lon="1.98579">
        <ele>73.521084</ele>
        <time>2016-05-08T14:59:55Z</time>
      </trkpt>
      <trkpt lat="48.71203" lon="1.98579">
        <ele>74.536526</ele>
        <time>2016-05-08T14:59:56Z</time>
      </trkpt>
      <trkpt lat="48.71203" lon="1.98579">
        <ele>77.164455</ele>
        <time>2016-05-08T14:59:57Z</time>
      </trkpt>
      <trkpt lat="48.71203" lon="1.98579">
        <ele>77.167324</ele>
        <time>2016-05-08T14:59:58Z</time>
      </trkpt>
      <trkpt lat="48.71203" lon="1.98579">
        <ele>77.182949</ele>
        <time>2016-05-08T14:59:59Z</time>
      </trkpt>
      <trkpt lat="48.71203" lon="1.98579">
        <ele>77.200466</ele>
        <time>2016-05-08T15:00:00Z</time>
      </trkpt>
      <trkpt lat="48.71203" lon="1.98579">
        <ele>77.212063</ele>
        <time>2016-05-08T15:00:01Z</time>
      </trkpt>
      <trkpt lat="48.71203" lon="1.98579">
        <ele>77.242519</ele>
        <time>2016-05-08T15:00:02Z</time>
      </trkpt>
      <trkpt lat="48.71203" lon="1.98579">
        <ele>77.254604</ele>
        <time>2016-05-08T15:00:03Z</time>
      </trkpt>
      <trkpt lat="48.71203" lon="1.98579">
        <ele>77.25613</ele>
        <time>2016-05-08T15:00:04Z</time>
      </trkpt>
      <trkpt lat="48.71203" lon="1.98579">
        <ele>77.278652</ele>
        <time>2016-05-08T15:00:05Z</time>
      </trkpt>
      <trkpt lat="48.71203" lon="1.98579">
        <ele>77.30978</ele>
        <time>2016-05-08T15:00:06Z</time>
      </trkpt>
      <trkpt lat="48.71203" lon="1.98579">
        <ele>77.317959</ele>
        <time>2016-05-08T15:00:07Z</time>
      </trkpt>
      <trkpt lat="48.71203" lon="1.98579">
        <ele>77.358486</ele>
        <time>2016-05-08T15:00:08Z</time>
      </trkpt>
      <trkpt lat="48.71203" lon="1.98579">
        <ele>80.008755</ele>
        <time>2016-05-08T15:00:09Z</time>
      </trkpt>
      <trkpt lat="48.71203" lon="1.98579">
        <ele>80.130825</ele>
        <time>2016-05-08T15:00:10Z</time>
      </trkpt>
      <trkpt lat="48.71203" lon="1.98579">
        <ele>82.767056</ele>
        <time>2016-05-08T15:00:11Z</time>
      </trkpt>
      <trkpt lat="48.71203" lon="1.98579">
        <ele>82.737453</ele>
        <time>2016-05-08T15:00:12Z</time>
      </trkpt>
      <trkpt lat="48.71203" lon="1.98579">
        <ele>83.923794</ele>
        <time>2016-05-08T15:00:13Z</time>
      </trkpt>
      <trkpt lat="48.71204" lon="1.98579">
        <ele>84.64645</ele>
        <time>2016-05-08T15:00:14Z</time>
      </trkpt>
      <trkpt lat="48.71203" lon="1.98579">
        <ele>84.542019</ele>
        <time>2016-05-08T15:00:15Z</time>
      </trkpt>
      <trkpt lat="48.71203" lon="1.98579">
        <ele>83.93771</ele>
        <time>2016-05-08T15:00:16Z</time>
      </trkpt>
      <trkpt lat="48.71204" lon="1.98579">
        <ele>83.700771</ele>
        <time>2016-05-08T15:00:17Z</time>
      </trkpt>
      <trkpt lat="48.71204" lon="1.98579">
        <ele>83.629482</ele>
        <time>2016-05-08T15:00:18Z</time>
      </trkpt>
      <trkpt lat="48.71204" lon="1.98579">
        <ele>84.224941</ele>
        <time>2016-05-08T15:00:19Z</time>
      </trkpt>
      <trkpt lat="48.71204" lon="1.98579">
        <ele>83.767361</ele>
        <time>2016-05-08T15:00:20Z</time>
      </trkpt>
      <trkpt lat="48.71204" lon="1.98579">
        <ele>83.755154</ele>
        <time>2016-05-08T15:00:21Z</time>
      </trkpt>
      <trkpt lat="48.71204" lon="1.98579">
        <ele>84.61697</ele>
        <time>2016-05-08T15:00:22Z</time>
      </trkpt>
      <trkpt lat="48.71206" lon="1.98578">
        <ele>85.172329</ele>
        <time>2016-05-08T15:00:23Z</time>
      </trkpt>
      <trkpt lat="48.71206" lon="1.98578">
        <ele>84.679348</ele>
        <time>2016-05-08T15:00:24Z</time>
      </trkpt>
      <trkpt lat="48.71206" lon="1.98578">
        <ele>85.091152</ele>
        <time>2016-05-08T15:00:25Z</time>
      </trkpt>
      <trkpt lat="48.71206" lon="1.98578">
        <ele>85.352505</ele>
        <time>2016-05-08T15:00:26Z</time>
      </trkpt>
      <trkpt lat="48.71206" lon="1.98578">
        <ele>85.681423</ele>
        <time>2016-05-08T15:00:27Z</time>
      </trkpt>
      <trkpt lat="48.71206" lon="1.98578">
        <ele>86.235561</ele>
        <time>2016-05-08T15:00:28Z</time>
      </trkpt>
      <trkpt lat="48.71206" lon="1.98579">
        <ele>87.154995</ele>
        <time>2016-05-08T15:00:29Z</time>
      </trkpt>
      <trkpt lat="48.71206" lon="1.98578">
        <ele>86.481289</ele>
        <time>2016-05-08T15:00:30Z</time>
      </trkpt>
      <trkpt lat="48.71206" lon="1.98577">
        <ele>86.264309</ele>
        <time>2016-05-08T15:00:31Z</time>
      </trkpt>
      <trkpt lat="48.71206" lon="1.98576">
        <ele>85.925381</ele>
        <time>2016-05-08T15:00:32Z</time>
      </trkpt>
      <trkpt lat="48.71207" lon="1.98575">
        <ele>85.940701</ele>
        <time>2016-05-08T15:00:33Z</time>
      </trkpt>
      <trkpt lat="48.71207" lon="1.98573">
        <ele>85.575527</ele>
        <time>2016-05-08T15:00:34Z</time>
      </trkpt>
      <trkpt lat="48.71208" lon="1.98571">
        <ele>85.482693</ele>
        <time>2016-05-08T15:00:35Z</time>
      </trkpt>
      <trkpt lat="48.71208" lon="1.98571">
        <ele>86.057583</ele>
        <time>2016-05-08T15:00:36Z</time>
      </trkpt>
      <trkpt lat="48.71208" lon="1.9857">
        <ele>85.245632</ele>
        <time>2016-05-08T15:00:37Z</time>
      </trkpt>
      <trkpt lat="48.71209" lon="1.98569">
        <ele>85.363857</ele>
        <time>2016-05-08T15:00:38Z</time>
      </trkpt>
      <trkpt lat="48.7121" lon="1.98569">
        <ele>85.430325</ele>
        <time>2016-05-08T15:00:39Z</time>
      </trkpt>
      <trkpt lat="48.71212" lon="1.98568">
        <ele>84.646755</ele>
        <time>2016-05-08T15:00:40Z</time>
      </trkpt>
      <trkpt lat="48.71213" lon="1.98567">
        <ele>83.981594</ele>
        <time>2016-05-08T15:00:41Z</time>
      </trkpt>
      <trkpt lat="48.71214" lon="1.98566">
        <ele>84.695889</ele>
        <time>2016-05-08T15:00:42Z</time>
      </trkpt>
      <trkpt lat="48.71215" lon="1.98564">
        <ele>84.906765</ele>
        <time>2016-05-08T15:00:43Z</time>
      </trkpt>
      <trkpt lat="48.71216" lon="1.98564">
        <ele>85.260647</ele>
        <time>2016-05-08T15:00:44Z</time>
      </trkpt>
      <trkpt lat="48.71217" lon="1.98563">
        <ele>83.405666</ele>
        <time>2016-05-08T15:00:45Z</time>
      </trkpt>
      <trkpt lat="48.71218" lon="1.98562">
        <ele>83.047024</ele>
        <time>2016-05-08T15:00:46Z</time>
      </trkpt>
      <trkpt lat="48.71219" lon="1.98562">
        <ele>82.696377</ele>
        <time>2016-05-08T15:00:47Z</time>
      </trkpt>
      <trkpt lat="48.7122" lon="1.98561">
        <ele>81.627895</ele>
        <time>2016-05-08T15:00:48Z</time>
      </trkpt>
      <trkpt lat="48.7122" lon="1.98559">
        <ele>81.800625</ele>
        <time>2016-05-08T15:00:49Z</time>
      </trkpt>
      <trkpt lat="48.71221" lon="1.98559">
        <ele>80.362453</ele>
        <time>2016-05-08T15:00:50Z</time>
      </trkpt>
      <trkpt lat="48.71221" lon="1.98558">
        <ele>79.914944</ele>
        <time>2016-05-08T15:00:51Z</time>
      </trkpt>
      <trkpt lat="48.71222" lon="1.98558">
        <ele>79.805874</ele>
        <time>2016-05-08T15:00:52Z</time>
      </trkpt>
      <trkpt lat="48.71222" lon="1.98557">
        <ele>80.988003</ele>
        <time>2016-05-08T15:00:53Z</time>
      </trkpt>
      <trkpt lat="48.71223" lon="1.98556">
        <ele>81.140347</ele>
        <time>2016-05-08T15:00:54Z</time>
      </trkpt>
      <trkpt lat="48.71224" lon="1.98554">
        <ele>81.183559</ele>
        <time>2016-05-08T15:00:55Z</time>
      </trkpt>
      <trkpt lat="48.71225" lon="1.98553">
        <ele>81.490566</ele>
        <time>2016-05-08T15:00:56Z</time>
      </trkpt>
      <trkpt lat="48.71225" lon="1.98551">
        <ele>80.929043</ele>
        <time>2016-05-08T15:00:57Z</time>
      </trkpt>
      <trkpt lat="48.71226" lon="1.9855">
        <ele>81.15646</ele>
        <time>2016-05-08T15:00:58Z</time>
      </trkpt>
      <trkpt lat="48.71227" lon="1.98549">
        <ele>81.254421</ele>
        <time>2016-05-08T15:00:59Z</time>
      </trkpt>
      <trkpt lat="48.71227" lon="1.98549">
        <ele>81.048977</ele>
        <time>2016-05-08T15:01:00Z</time>
      </trkpt>
      <trkpt lat="48.71228" lon="1.98548">
        <ele>80.700893</ele>
        <time>2016-05-08T15:01:01Z</time>
      </trkpt>
      <trkpt lat="48.71229" lon="1.98547">
        <ele>80.665493</ele>
        <time>2016-05-08T15:01:02Z</time>
      </trkpt>
      <trkpt lat="48.71229" lon="1.98546">
        <ele>80.592312</ele>
        <time>2016-05-08T15:01:03Z</time>
      </trkpt>
      <trkpt lat="48.7123" lon="1.98544">
        <ele>80.703335</ele>
        <time>2016-05-08T15:01:04Z</time>
      </trkpt>
      <trkpt lat="48.71231" lon="1.98543">
        <ele>80.637661</ele>
        <time>2016-05-08T15:01:05Z</time>
      </trkpt>
      <trkpt lat="48.71232" lon="1.98543">
        <ele>81.645718</ele>
        <time>2016-05-08T15:01:06Z</time>
      </trkpt>
      <trkpt lat="48.71233" lon="1.98543">
        <ele>81.697598</ele>
        <time>2016-05-08T15:01:07Z</time>
      </trkpt>
      <trkpt lat="48.71234" lon="1.98542">
        <ele>81.381741</ele>
        <time>2016-05-08T15:01:08Z</time>
      </trkpt>
      <trkpt lat="48.71235" lon="1.98542">
        <ele>81.356289</ele>
        <time>2016-05-08T15:01:09Z</time>
      </trkpt>
      <trkpt lat="48.71236" lon="1.98541">
        <ele>81.303493</ele>
        <time>2016-05-08T15:01:10Z</time>
      </trkpt>
      <trkpt lat="48.71236" lon="1.9854">
        <ele>81.609402</ele>
        <time>2016-05-08T15:01:11Z</time>
      </trkpt>
      <trkpt lat="48.71237" lon="1.98539">
        <ele>81.621731</ele>
        <time>2016-05-08T15:01:12Z</time>
      </trkpt>
      <trkpt lat="48.71238" lon="1.98537">
        <ele>81.390285</ele>
        <time>2016-05-08T15:01:13Z</time>
      </trkpt>
      <trkpt lat="48.71238" lon="1.98536">
        <ele>81.332241</ele>
        <time>2016-05-08T15:01:14Z</time>
      </trkpt>
      <trkpt lat="48.71239" lon="1.98534">
        <ele>81.339199</ele>
        <time>2016-05-08T15:01:15Z</time>
      </trkpt>
      <trkpt lat="48.7124" lon="1.98532">
        <ele>81.370144</ele>
        <time>2016-05-08T15:01:16Z</time>
      </trkpt>
      <trkpt lat="48.71241" lon="1.98531">
        <ele>81.518826</ele>
        <time>2016-05-08T15:01:17Z</time>
      </trkpt>
      <trkpt lat="48.71241" lon="1.9853">
        <ele>82.368313</ele>
        <time>2016-05-08T15:01:18Z</time>
      </trkpt>
      <trkpt lat="48.71242" lon="1.9853">
        <ele>81.541225</ele>
        <time>2016-05-08T15:01:19Z</time>
      </trkpt>
      <trkpt lat="48.71243" lon="1.98529">
        <ele>81.61874</ele>
        <time>2016-05-08T15:01:20Z</time>
      </trkpt>
      <trkpt lat="48.71244" lon="1.98528">
        <ele>82.010342</ele>
        <time>2016-05-08T15:01:21Z</time>
      </trkpt>
      <trkpt lat="48.71245" lon="1.98527">
        <ele>80.851528</ele>
        <time>2016-05-08T15:01:22Z</time>
      </trkpt>
      <trkpt lat="48.71245" lon="1.98525">
        <ele>80.891445</ele>
        <time>2016-05-08T15:01:23Z</time>
      </trkpt>
      <trkpt lat="48.71246" lon="1.98524">
        <ele>82.176968</ele>
        <time>2016-05-08T15:01:24Z</time>
      </trkpt>
      <trkpt lat="48.71246" lon="1.98522">
        <ele>82.306179</ele>
        <time>2016-05-08T15:01:25Z</time>
      </trkpt>
      <trkpt lat="48.71248" lon="1.98521">
        <ele>82.894619</ele>
        <time>2016-05-08T15:01:26Z</time>
      </trkpt>
      <trkpt lat="48.71249" lon="1.9852">
        <ele>83.251614</ele>
        <time>2016-05-08T15:01:27Z</time>
      </trkpt>
      <trkpt lat="48.7125" lon="1.98519">
        <ele>83.779202</ele>
        <time>2016-05-08T15:01:28Z</time>
      </trkpt>
      <trkpt lat="48.71252" lon="1.98519">
        <ele>82.800747</ele>
        <time>2016-05-08T15:01:29Z</time>
      </trkpt>
      <trkpt lat="48.71253" lon="1.98517">
        <ele>83.144253</ele>
        <time>2016-05-08T15:01:30Z</time>
      </trkpt>
      <trkpt lat="48.71254" lon="1.98517">
        <ele>83.689907</ele>
        <time>2016-05-08T15:01:31Z</time>
      </trkpt>
      <trkpt lat="48.71255" lon="1.98516">
        <ele>84.200405</ele>
        <time>2016-05-08T15:01:32Z</time>
      </trkpt>
      <trkpt lat="48.71256" lon="1.98515">
        <ele>84.353054</ele>
        <time>2016-05-08T15:01:33Z</time>
      </trkpt>
      <trkpt lat="48.71258" lon="1.98514">
        <ele>84.448818</ele>
        <time>2016-05-08T15:01:34Z</time>
      </trkpt>
      <trkpt lat="48.71259" lon="1.98514">
        <ele>84.52206</ele>
        <time>2016-05-08T15:01:35Z</time>
      </trkpt>
      <trkpt lat="48.7126" lon="1.98513">
        <ele>84.542629</ele>
        <time>2016-05-08T15:01:36Z</time>
      </trkpt>
      <trkpt lat="48.71261" lon="1.98513">
        <ele>85.261501</ele>
        <time>2016-05-08T15:01:37Z</time>
      </trkpt>
      <trkpt lat="48.71263" lon="1.98512">
        <ele>85.111538</ele>
        <time>2016-05-08T15:01:38Z</time>
      </trkpt>
      <trkpt lat="48.71264" lon="1.98511">
        <ele>85.107571</ele>
        <time>2016-05-08T15:01:39Z</time>
      </trkpt>
      <trkpt lat="48.71265" lon="1.98511">
        <ele>85.169827</ele>
        <time>2016-05-08T15:01:40Z</time>
      </trkpt>
      <trkpt lat="48.71266" lon="1.9851">
        <ele>85.685085</ele>
        <time>2016-05-08T15:01:41Z</time>
      </trkpt>
      <trkpt lat="48.71267" lon="1.98508">
        <ele>85.782925</ele>
        <time>2016-05-08T15:01:42Z</time>
      </trkpt>
      <trkpt lat="48.71268" lon="1.98507">
        <ele>86.033352</ele>
        <time>2016-05-08T15:01:43Z</time>
      </trkpt>
      <trkpt lat="48.71269" lon="1.98507">
        <ele>85.28323</ele>
        <time>2016-05-08T15:01:44Z</time>
      </trkpt>
      <trkpt lat="48.71269" lon="1.98507">
        <ele>85.582302</ele>
        <time>2016-05-08T15:01:45Z</time>
      </trkpt>
      <trkpt lat="48.71269" lon="1.98507">
        <ele>86.165676</ele>
        <time>2016-05-08T15:01:46Z</time>
      </trkpt>
      <trkpt lat="48.7127" lon="1.98508">
        <ele>85.682644</ele>
        <time>2016-05-08T15:01:47Z</time>
      </trkpt>
      <trkpt lat="48.7127" lon="1.98507">
        <ele>86.318691</ele>
        <time>2016-05-08T15:01:48Z</time>
      </trkpt>
      <trkpt lat="48.71271" lon="1.98507">
        <ele>86.372402</ele>
        <time>2016-05-08T15:01:49Z</time>
      </trkpt>
      <trkpt lat="48.71272" lon="1.98507">
        <ele>86.600796</ele>
        <time>2016-05-08T15:01:50Z</time>
      </trkpt>
      <trkpt lat="48.71273" lon="1.98507">
        <ele>86.720974</ele>
        <time>2016-05-08T15:01:51Z</time>
      </trkpt>
      <trkpt lat="48.71275" lon="1.98507">
        <ele>86.204067</ele>
        <time>2016-05-08T15:01:52Z</time>
      </trkpt>
      <trkpt lat="48.71276" lon="1.98507">
        <ele>86.147549</ele>
        <time>2016-05-08T15:01:53Z</time>
      </trkpt>
      <trkpt lat="48.71276" lon="1.98507">
        <ele>86.116421</ele>
        <time>2016-05-08T15:01:54Z</time>
      </trkpt>
      <trkpt lat="48.71277" lon="1.98507">
        <ele>86.998318</ele>
        <time>2016-05-08T15:01:55Z</time>
      </trkpt>
      <trkpt lat="48.71278" lon="1.98506">
        <ele>86.846401</ele>
        <time>2016-05-08T15:01:56Z</time>
      </trkpt>
      <trkpt lat="48.71279" lon="1.98505">
        <ele>86.824062</ele>
        <time>2016-05-08T15:01:57Z</time>
      </trkpt>
      <trkpt lat="48.7128" lon="1.98505">
        <ele>87.247829</ele>
        <time>2016-05-08T15:01:58Z</time>
      </trkpt>
      <trkpt lat="48.71281" lon="1.98504">
        <ele>87.280422</ele>
        <time>2016-05-08T15:01:59Z</time>
      </trkpt>
      <trkpt lat="48.71281" lon="1.98503">
        <ele>87.561489</ele>
        <time>2016-05-08T15:02:00Z</time>
      </trkpt>
      <trkpt lat="48.71282" lon="1.98502">
        <ele>87.985317</ele>
        <time>2016-05-08T15:02:01Z</time>
      </trkpt>
      <trkpt lat="48.71283" lon="1.98502">
        <ele>88.122524</ele>
        <time>2016-05-08T15:02:02Z</time>
      </trkpt>
      <trkpt lat="48.71284" lon="1.98501">
        <ele>88.567104</ele>
        <time>2016-05-08T15:02:03Z</time>
      </trkpt>
      <trkpt lat="48.71285" lon="1.98501">
        <ele>89.112759</ele>
        <time>2016-05-08T15:02:04Z</time>
      </trkpt>
      <trkpt lat="48.71286" lon="1.98501">
        <ele>89.249111</ele>
        <time>2016-05-08T15:02:05Z</time>
      </trkpt>
      <trkpt lat="48.71286" lon="1.98501">
        <ele>88.781155</ele>
        <time>2016-05-08T15:02:06Z</time>
      </trkpt>
      <trkpt lat="48.71287" lon="1.985">
        <ele>88.998989</ele>
        <time>2016-05-08T15:02:07Z</time>
      </trkpt>
      <trkpt lat="48.71288" lon="1.985">
        <ele>89.512234</ele>
        <time>2016-05-08T15:02:08Z</time>
      </trkpt>
      <trkpt lat="48.71288" lon="1.985">
        <ele>89.927822</ele>
        <time>2016-05-08T15:02:09Z</time>
      </trkpt>
      <trkpt lat="48.71288" lon="1.985">
        <ele>90.674648</ele>
        <time>2016-05-08T15:02:10Z</time>
      </trkpt>
      <trkpt lat="48.71288" lon="1.985">
        <ele>91.846584</ele>
        <time>2016-05-08T15:02:11Z</time>
      </trkpt>
      <trkpt lat="48.71289" lon="1.98498">
        <ele>92.328457</ele>
        <time>2016-05-08T15:02:12Z</time>
      </trkpt>
      <trkpt lat="48.7129" lon="1.98498">
        <ele>92.503139</ele>
        <time>2016-05-08T15:02:13Z</time>
      </trkpt>
      <trkpt lat="48.7129" lon="1.98498">
        <ele>92.464321</ele>
        <time>2016-05-08T15:02:14Z</time>
      </trkpt>
      <trkpt lat="48.71291" lon="1.98497">
        <ele>91.824551</ele>
        <time>2016-05-08T15:02:15Z</time>
      </trkpt>
      <trkpt lat="48.71291" lon="1.98496">
        <ele>92.179043</ele>
        <time>2016-05-08T15:02:16Z</time>
      </trkpt>
      <trkpt lat="48.71291" lon="1.98495">
        <ele>92.529507</ele>
        <time>2016-05-08T15:02:17Z</time>
      </trkpt>
      <trkpt lat="48.71292" lon="1.98494">
        <ele>91.657803</ele>
        <time>2016-05-08T15:02:18Z</time>
      </trkpt>
      <trkpt lat="48.71292" lon="1.98492">
        <ele>92.168362</ele>
        <time>2016-05-08T15:02:19Z</time>
      </trkpt>
      <trkpt lat="48.71293" lon="1.98492">
        <ele>91.845181</ele>
        <time>2016-05-08T15:02:20Z</time>
      </trkpt>
      <trkpt lat="48.71295" lon="1.98491">
        <ele>92.173794</ele>
        <time>2016-05-08T15:02:21Z</time>
      </trkpt>
      <trkpt lat="48.71296" lon="1.9849">
        <ele>92.499477</ele>
        <time>2016-05-08T15:02:22Z</time>
      </trkpt>
      <trkpt lat="48.71297" lon="1.9849">
        <ele>92.404507</ele>
        <time>2016-05-08T15:02:23Z</time>
      </trkpt>
      <trkpt lat="48.71297" lon="1.9849">
        <ele>92.42062</ele>
        <time>2016-05-08T15:02:24Z</time>
      </trkpt>
      <trkpt lat="48.71298" lon="1.98489">
        <ele>92.455166</ele>
        <time>2016-05-08T15:02:25Z</time>
      </trkpt>
      <trkpt lat="48.71298" lon="1.98489">
        <ele>92.684414</ele>
        <time>2016-05-08T15:02:26Z</time>
      </trkpt>
      <trkpt lat="48.71299" lon="1.98489">
        <ele>91.864407</ele>
        <time>2016-05-08T15:02:27Z</time>
      </trkpt>
      <trkpt lat="48.71299" lon="1.98489">
        <ele>91.528286</ele>
        <time>2016-05-08T15:02:28Z</time>
      </trkpt>
      <trkpt lat="48.71299" lon="1.98489">
        <ele>91.061367</ele>
        <time>2016-05-08T15:02:29Z</time>
      </trkpt>
      <trkpt lat="48.71299" lon="1.98489">
        <ele>90.935696</ele>
        <time>2016-05-08T15:02:30Z</time>
      </trkpt>
      <trkpt lat="48.713" lon="1.98489">
        <ele>91.327297</ele>
        <time>2016-05-08T15:02:31Z</time>
      </trkpt>
      <trkpt lat="48.713" lon="1.98489">
        <ele>91.554165</ele>
        <time>2016-05-08T15:02:32Z</time>
      </trkpt>
      <trkpt lat="48.713" lon="1.98489">
        <ele>91.649014</ele>
        <time>2016-05-08T15:02:33Z</time>
      </trkpt>
      <trkpt lat="48.713" lon="1.98489">
        <ele>91.742031</ele>
        <time>2016-05-08T15:02:34Z</time>
      </trkpt>
      <trkpt lat="48.713" lon="1.98489">
        <ele>91.472134</ele>
        <time>2016-05-08T15:02:35Z</time>
      </trkpt>
      <trkpt lat="48.713" lon="1.98489">
        <ele>91.566189</ele>
        <time>2016-05-08T15:02:36Z</time>
      </trkpt>
      <trkpt lat="48.713" lon="1.98489">
        <ele>91.576077</ele>
        <time>2016-05-08T15:02:37Z</time>
      </trkpt>
      <trkpt lat="48.71298" lon="1.98489">
        <ele>92.092312</ele>
        <time>2016-05-08T15:02:38Z</time>
      </trkpt>
      <trkpt lat="48.71298" lon="1.98489">
        <ele>92.179958</ele>
        <time>2016-05-08T15:02:39Z</time>
      </trkpt>
      <trkpt lat="48.71298" lon="1.98489">
        <ele>92.192348</ele>
        <time>2016-05-08T15:02:40Z</time>
      </trkpt>
      <trkpt lat="48.71298" lon="1.98489">
        <ele>92.200222</ele>
        <time>2016-05-08T15:02:41Z</time>
      </trkpt>
      <trkpt lat="48.71298" lon="1.98489">
        <ele>92.208279</ele>
        <time>2016-05-08T15:02:42Z</time>
      </trkpt>
      <trkpt lat="48.71298" lon="1.98489">
        <ele>92.212124</ele>
        <time>2016-05-08T15:02:43Z</time>
      </trkpt>
      <trkpt lat="48.71298" lon="1.98489">
        <ele>92.214748</ele>
        <time>2016-05-08T15:02:44Z</time>
      </trkpt>
      <trkpt lat="48.71298" lon="1.98489">
        <ele>92.222622</ele>
        <time>2016-05-08T15:02:45Z</time>
      </trkpt>
      <trkpt lat="48.71298" lon="1.98489">
        <ele>92.22604</ele>
        <time>2016-05-08T15:02:46Z</time>
      </trkpt>
      <trkpt lat="48.71298" lon="1.98489">
        <ele>92.470974</ele>
        <time>2016-05-08T15:02:47Z</time>
      </trkpt>
      <trkpt lat="48.71297" lon="1.98489">
        <ele>92.559353</ele>
        <time>2016-05-08T15:02:48Z</time>
      </trkpt>
      <trkpt lat="48.71297" lon="1.98488">
        <ele>92.473721</ele>
        <time>2016-05-08T15:02:49Z</time>
      </trkpt>
      <trkpt lat="48.71296" lon="1.98487">
        <ele>92.592312</ele>
        <time>2016-05-08T15:02:50Z</time>
      </trkpt>
      <trkpt lat="48.71295" lon="1.98486">
        <ele>92.80154</ele>
        <time>2016-05-08T15:02:51Z</time>
      </trkpt>
      <trkpt lat="48.71295" lon="1.98485">
        <ele>93.115749</ele>
        <time>2016-05-08T15:02:52Z</time>
      </trkpt>
      <trkpt lat="48.71295" lon="1.98483">
        <ele>93.244411</ele>
        <time>2016-05-08T15:02:53Z</time>
      </trkpt>
      <trkpt lat="48.71295" lon="1.9848">
        <ele>93.258266</ele>
        <time>2016-05-08T15:02:54Z</time>
      </trkpt>
      <trkpt lat="48.71295" lon="1.98478">
        <ele>93.340664</ele>
        <time>2016-05-08T15:02:55Z</time>
      </trkpt>
      <trkpt lat="48.71295" lon="1.98476">
        <ele>93.631435</ele>
        <time>2016-05-08T15:02:56Z</time>
      </trkpt>
      <trkpt lat="48.71295" lon="1.98474">
        <ele>93.275967</ele>
        <time>2016-05-08T15:02:57Z</time>
      </trkpt>
      <trkpt lat="48.71294" lon="1.98472">
        <ele>93.420437</ele>
        <time>2016-05-08T15:02:58Z</time>
      </trkpt>
      <trkpt lat="48.71294" lon="1.9847">
        <ele>93.445522</ele>
        <time>2016-05-08T15:02:59Z</time>
      </trkpt>
      <trkpt lat="48.71294" lon="1.98468">
        <ele>93.273952</ele>
        <time>2016-05-08T15:03:00Z</time>
      </trkpt>
      <trkpt lat="48.71293" lon="1.98467">
        <ele>94.038662</ele>
        <time>2016-05-08T15:03:01Z</time>
      </trkpt>
      <trkpt lat="48.71293" lon="1.98465">
        <ele>95.16116</ele>
        <time>2016-05-08T15:03:02Z</time>
      </trkpt>
      <trkpt lat="48.71293" lon="1.98463">
        <ele>95.591946</ele>
        <time>2016-05-08T15:03:03Z</time>
      </trkpt>
      <trkpt lat="48.71294" lon="1.98462">
        <ele>95.290249</ele>
        <time>2016-05-08T15:03:04Z</time>
      </trkpt>
      <trkpt lat="48.71294" lon="1.98461">
        <ele>95.196194</ele>
        <time>2016-05-08T15:03:05Z</time>
      </trkpt>
      <trkpt lat="48.71294" lon="1.98459">
        <ele>94.643703</ele>
        <time>2016-05-08T15:03:06Z</time>
      </trkpt>
      <trkpt lat="48.71294" lon="1.98457">
        <ele>94.925259</ele>
        <time>2016-05-08T15:03:07Z</time>
      </trkpt>
      <trkpt lat="48.71294" lon="1.98456">
        <ele>95.23428</ele>
        <time>2016-05-08T15:03:08Z</time>
      </trkpt>
      <trkpt lat="48.71294" lon="1.98455">
        <ele>94.48666</ele>
        <time>2016-05-08T15:03:09Z</time>
      </trkpt>
      <trkpt lat="48.71295" lon="1.98455">
        <ele>94.570522</ele>
        <time>2016-05-08T15:03:10Z</time>
      </trkpt>
      <trkpt lat="48.71295" lon="1.98454">
        <ele>94.205532</ele>
        <time>2016-05-08T15:03:11Z</time>
      </trkpt>
      <trkpt lat="48.71296" lon="1.98453">
        <ele>93.96133</ele>
        <time>2016-05-08T15:03:12Z</time>
      </trkpt>
      <trkpt lat="48.71296" lon="1.98452">
        <ele>94.242886</ele>
        <time>2016-05-08T15:03:13Z</time>
      </trkpt>
      <trkpt lat="48.71296" lon="1.98451">
        <ele>94.348965</ele>
        <time>2016-05-08T15:03:14Z</time>
      </trkpt>
      <trkpt lat="48.71296" lon="1.98449">
        <ele>94.365261</ele>
        <time>2016-05-08T15:03:15Z</time>
      </trkpt>
      <trkpt lat="48.71296" lon="1.98447">
        <ele>93.691921</ele>
        <time>2016-05-08T15:03:16Z</time>
      </trkpt>
      <trkpt lat="48.71296" lon="1.98445">
        <ele>94.004604</ele>
        <time>2016-05-08T15:03:17Z</time>
      </trkpt>
      <trkpt lat="48.71296" lon="1.98444">
        <ele>94.244228</ele>
        <time>2016-05-08T15:03:18Z</time>
      </trkpt>
      <trkpt lat="48.71296" lon="1.98442">
        <ele>94.133389</ele>
        <time>2016-05-08T15:03:19Z</time>
      </trkpt>
      <trkpt lat="48.71297" lon="1.98441">
        <ele>94.269802</ele>
        <time>2016-05-08T15:03:20Z</time>
      </trkpt>
      <trkpt lat="48.71297" lon="1.98439">
        <ele>94.148403</ele>
        <time>2016-05-08T15:03:21Z</time>
      </trkpt>
      <trkpt lat="48.71297" lon="1.98437">
        <ele>93.807339</ele>
        <time>2016-05-08T15:03:22Z</time>
      </trkpt>
      <trkpt lat="48.71297" lon="1.98435">
        <ele>94.491055</ele>
        <time>2016-05-08T15:03:23Z</time>
      </trkpt>
      <trkpt lat="48.71296" lon="1.98433">
        <ele>94.931301</ele>
        <time>2016-05-08T15:03:24Z</time>
      </trkpt>
      <trkpt lat="48.71297" lon="1.98431">
        <ele>94.923672</ele>
        <time>2016-05-08T15:03:25Z</time>
      </trkpt>
      <trkpt lat="48.71297" lon="1.9843">
        <ele>94.632168</ele>
        <time>2016-05-08T15:03:26Z</time>
      </trkpt>
      <trkpt lat="48.71296" lon="1.98428">
        <ele>93.831448</ele>
        <time>2016-05-08T15:03:27Z</time>
      </trkpt>
      <trkpt lat="48.71296" lon="1.98426">
        <ele>93.689053</ele>
        <time>2016-05-08T15:03:28Z</time>
      </trkpt>
      <trkpt lat="48.71295" lon="1.98424">
        <ele>93.563198</ele>
        <time>2016-05-08T15:03:29Z</time>
      </trkpt>
      <trkpt lat="48.71295" lon="1.98422">
        <ele>93.640102</ele>
        <time>2016-05-08T15:03:30Z</time>
      </trkpt>
      <trkpt lat="48.71296" lon="1.9842">
        <ele>94.044399</ele>
        <time>2016-05-08T15:03:31Z</time>
      </trkpt>
      <trkpt lat="48.71296" lon="1.98419">
        <ele>94.429409</ele>
        <time>2016-05-08T15:03:32Z</time>
      </trkpt>
      <trkpt lat="48.71297" lon="1.98417">
        <ele>94.591946</ele>
        <time>2016-05-08T15:03:33Z</time>
      </trkpt>
      <trkpt lat="48.71298" lon="1.98416">
        <ele>94.381618</ele>
        <time>2016-05-08T15:03:34Z</time>
      </trkpt>
      <trkpt lat="48.71299" lon="1.98415">
        <ele>94.307034</ele>
        <time>2016-05-08T15:03:35Z</time>
      </trkpt>
      <trkpt lat="48.713" lon="1.98413">
        <ele>94.4277</ele>
        <time>2016-05-08T15:03:36Z</time>
      </trkpt>
      <trkpt lat="48.71301" lon="1.98412">
        <ele>94.827785</ele>
        <time>2016-05-08T15:03:37Z</time>
      </trkpt>
      <trkpt lat="48.71302" lon="1.98411">
        <ele>95.160366</ele>
        <time>2016-05-08T15:03:38Z</time>
      </trkpt>
      <trkpt lat="48.71302" lon="1.9841">
        <ele>94.524685</ele>
        <time>2016-05-08T15:03:39Z</time>
      </trkpt>
      <trkpt lat="48.71301" lon="1.98408">
        <ele>94.275784</ele>
        <time>2016-05-08T15:03:40Z</time>
      </trkpt>
      <trkpt lat="48.71302" lon="1.98406">
        <ele>94.07571</ele>
        <time>2016-05-08T15:03:41Z</time>
      </trkpt>
      <trkpt lat="48.71302" lon="1.98404">
        <ele>93.428432</ele>
        <time>2016-05-08T15:03:42Z</time>
      </trkpt>
      <trkpt lat="48.71302" lon="1.98402">
        <ele>93.532619</ele>
        <time>2016-05-08T15:03:43Z</time>
      </trkpt>
      <trkpt lat="48.71303" lon="1.98402">
        <ele>94.005581</ele>
        <time>2016-05-08T15:03:44Z</time>
      </trkpt>
      <trkpt lat="48.71303" lon="1.98401">
        <ele>93.885525</ele>
        <time>2016-05-08T15:03:45Z</time>
      </trkpt>
      <trkpt lat="48.71303" lon="1.984">
        <ele>93.91885</ele>
        <time>2016-05-08T15:03:46Z</time>
      </trkpt>
      <trkpt lat="48.71303" lon="1.98399">
        <ele>93.513332</ele>
        <time>2016-05-08T15:03:47Z</time>
      </trkpt>
      <trkpt lat="48.71304" lon="1.98398">
        <ele>93.578335</ele>
        <time>2016-05-08T15:03:48Z</time>
      </trkpt>
      <trkpt lat="48.71305" lon="1.98397">
        <ele>93.853115</ele>
        <time>2016-05-08T15:03:49Z</time>
      </trkpt>
      <trkpt lat="48.71305" lon="1.98396">
        <ele>94.271084</ele>
        <time>2016-05-08T15:03:50Z</time>
      </trkpt>
      <trkpt lat="48.71308" lon="1.98394">
        <ele>95.13522</ele>
        <time>2016-05-08T15:03:51Z</time>
      </trkpt>
      <trkpt lat="48.71309" lon="1.98393">
        <ele>95.332607</ele>
        <time>2016-05-08T15:03:52Z</time>
      </trkpt>
      <trkpt lat="48.7131" lon="1.98392">
        <ele>94.986294</ele>
        <time>2016-05-08T15:03:53Z</time>
      </trkpt>
      <trkpt lat="48.7131" lon="1.9839">
        <ele>94.913235</ele>
        <time>2016-05-08T15:03:54Z</time>
      </trkpt>
      <trkpt lat="48.71311" lon="1.9839">
        <ele>95.1777</ele>
        <time>2016-05-08T15:03:55Z</time>
      </trkpt>
      <trkpt lat="48.71311" lon="1.98389">
        <ele>94.479519</ele>
        <time>2016-05-08T15:03:56Z</time>
      </trkpt>
      <trkpt lat="48.71311" lon="1.98388">
        <ele>94.350613</ele>
        <time>2016-05-08T15:03:57Z</time>
      </trkpt>
      <trkpt lat="48.71312" lon="1.98386">
        <ele>93.702785</ele>
        <time>2016-05-08T15:03:58Z</time>
      </trkpt>
      <trkpt lat="48.71312" lon="1.98385">
        <ele>93.416286</ele>
        <time>2016-05-08T15:03:59Z</time>
      </trkpt>
      <trkpt lat="48.71312" lon="1.98384">
        <ele>93.335049</ele>
        <time>2016-05-08T15:04:00Z</time>
      </trkpt>
      <trkpt lat="48.71313" lon="1.98384">
        <ele>93.451077</ele>
        <time>2016-05-08T15:04:01Z</time>
      </trkpt>
      <trkpt lat="48.71313" lon="1.98383">
        <ele>93.646328</ele>
        <time>2016-05-08T15:04:02Z</time>
      </trkpt>
      <trkpt lat="48.71314" lon="1.98383">
        <ele>93.792446</ele>
        <time>2016-05-08T15:04:03Z</time>
      </trkpt>
      <trkpt lat="48.71315" lon="1.98384">
        <ele>93.819729</ele>
        <time>2016-05-08T15:04:04Z</time>
      </trkpt>
      <trkpt lat="48.71316" lon="1.98383">
        <ele>93.861721</ele>
        <time>2016-05-08T15:04:05Z</time>
      </trkpt>
      <trkpt lat="48.71317" lon="1.98384">
        <ele>94.071133</ele>
        <time>2016-05-08T15:04:06Z</time>
      </trkpt>
      <trkpt lat="48.71317" lon="1.98384">
        <ele>94.054775</ele>
        <time>2016-05-08T15:04:07Z</time>
      </trkpt>
      <trkpt lat="48.71318" lon="1.98384">
        <ele>94.308559</ele>
        <time>2016-05-08T15:04:08Z</time>
      </trkpt>
      <trkpt lat="48.71318" lon="1.98384">
        <ele>94.655422</ele>
        <time>2016-05-08T15:04:09Z</time>
      </trkpt>
      <trkpt lat="48.71319" lon="1.98384">
        <ele>94.813564</ele>
        <time>2016-05-08T15:04:10Z</time>
      </trkpt>
      <trkpt lat="48.7132" lon="1.98384">
        <ele>94.715969</ele>
        <time>2016-05-08T15:04:11Z</time>
      </trkpt>
      <trkpt lat="48.7132" lon="1.98383">
        <ele>94.89407</ele>
        <time>2016-05-08T15:04:12Z</time>
      </trkpt>
      <trkpt lat="48.71321" lon="1.98383">
        <ele>94.806973</ele>
        <time>2016-05-08T15:04:13Z</time>
      </trkpt>
      <trkpt lat="48.71321" lon="1.98382">
        <ele>94.89883</ele>
        <time>2016-05-08T15:04:14Z</time>
      </trkpt>
      <trkpt lat="48.71322" lon="1.98381">
        <ele>94.96188</ele>
        <time>2016-05-08T15:04:15Z</time>
      </trkpt>
      <trkpt lat="48.71322" lon="1.98381">
        <ele>95.026882</ele>
        <time>2016-05-08T15:04:16Z</time>
      </trkpt>
      <trkpt lat="48.71322" lon="1.98382">
        <ele>95.014431</ele>
        <time>2016-05-08T15:04:17Z</time>
      </trkpt>
      <trkpt lat="48.71322" lon="1.98382">
        <ele>95.135525</ele>
        <time>2016-05-08T15:04:18Z</time>
      </trkpt>
      <trkpt lat="48.71322" lon="1.98382">
        <ele>94.872219</ele>
        <time>2016-05-08T15:04:19Z</time>
      </trkpt>
      <trkpt lat="48.71322" lon="1.98382">
        <ele>94.274014</ele>
        <time>2016-05-08T15:04:21Z</time>
      </trkpt>
      <trkpt lat="48.71322" lon="1.98381">
        <ele>93.736721</ele>
        <time>2016-05-08T15:04:22Z</time>
      </trkpt>
      <trkpt lat="48.71323" lon="1.98381">
        <ele>93.650478</ele>
        <time>2016-05-08T15:04:23Z</time>
      </trkpt>
      <trkpt lat="48.71323" lon="1.98381">
        <ele>93.724026</ele>
        <time>2016-05-08T15:04:24Z</time>
      </trkpt>
      <trkpt lat="48.71323" lon="1.98381">
        <ele>94.043423</ele>
        <time>2016-05-08T15:04:26Z</time>
      </trkpt>
      <trkpt lat="48.71323" lon="1.98381">
        <ele>93.95956</ele>
        <time>2016-05-08T15:04:27Z</time>
      </trkpt>
      <trkpt lat="48.71323" lon="1.98381">
        <ele>93.599087</ele>
        <time>2016-05-08T15:04:29Z</time>
      </trkpt>
      <trkpt lat="48.71324" lon="1.98386">
        <ele>93.22781</ele>
        <time>2016-05-08T15:04:31Z</time>
      </trkpt>
      <trkpt lat="48.71324" lon="1.98386">
        <ele>92.845852</ele>
        <time>2016-05-08T15:04:32Z</time>
      </trkpt>
      <trkpt lat="48.71323" lon="1.98387">
        <ele>93.289639</ele>
        <time>2016-05-08T15:04:34Z</time>
      </trkpt>
      <trkpt lat="48.71321" lon="1.98387">
        <ele>93.236782</ele>
        <time>2016-05-08T15:04:36Z</time>
      </trkpt>
      <trkpt lat="48.71321" lon="1.98387">
        <ele>91.844448</ele>
        <time>2016-05-08T15:04:38Z</time>
      </trkpt>
      <trkpt lat="48.71323" lon="1.98387">
        <ele>91.96664</ele>
        <time>2016-05-08T15:04:40Z</time>
      </trkpt>
      <trkpt lat="48.71323" lon="1.98389">
        <ele>92.444668</ele>
        <time>2016-05-08T15:04:42Z</time>
      </trkpt>
      <trkpt lat="48.71323" lon="1.98389">
        <ele>93.062222</ele>
        <time>2016-05-08T15:04:44Z</time>
      </trkpt>
      <trkpt lat="48.71325" lon="1.9839">
        <ele>93.219143</ele>
        <time>2016-05-08T15:04:46Z</time>
      </trkpt>
      <trkpt lat="48.71328" lon="1.98392">
        <ele>94.044521</ele>
        <time>2016-05-08T15:04:48Z</time>
      </trkpt>
      <trkpt lat="48.71328" lon="1.98394">
        <ele>94.314114</ele>
        <time>2016-05-08T15:04:50Z</time>
      </trkpt>
      <trkpt lat="48.71328" lon="1.98394">
        <ele>94.054226</ele>
        <time>2016-05-08T15:04:52Z</time>
      </trkpt>
      <trkpt lat="48.71328" lon="1.98395">
        <ele>95.704067</ele>
        <time>2016-05-08T15:04:54Z</time>
      </trkpt>
      <trkpt lat="48.71329" lon="1.98394">
        <ele>96.977749</ele>
        <time>2016-05-08T15:04:56Z</time>
      </trkpt>
      <trkpt lat="48.71329" lon="1.98395">
        <ele>97.666409</ele>
        <time>2016-05-08T15:04:58Z</time>
      </trkpt>
      <trkpt lat="48.71329" lon="1.98395">
        <ele>96.652004</ele>
        <time>2016-05-08T15:05:00Z</time>
      </trkpt>
      <trkpt lat="48.71328" lon="1.98395">
        <ele>95.483242</ele>
        <time>2016-05-08T15:05:02Z</time>
      </trkpt>
      <trkpt lat="48.71326" lon="1.98394">
        <ele>94.973049</ele>
        <time>2016-05-08T15:05:04Z</time>
      </trkpt>
      <trkpt lat="48.71325" lon="1.98393">
        <ele>95.634304</ele>
        <time>2016-05-08T15:05:06Z</time>
      </trkpt>
      <trkpt lat="48.71325" lon="1.98392">
        <ele>95.531582</ele>
        <time>2016-05-08T15:05:08Z</time>
      </trkpt>
      <trkpt lat="48.71326" lon="1.98393">
        <ele>94.99966</ele>
        <time>2016-05-08T15:05:10Z</time>
      </trkpt>
      <trkpt lat="48.71326" lon="1.98393">
        <ele>93.789455</ele>
        <time>2016-05-08T15:05:12Z</time>
      </trkpt>
      <trkpt lat="48.71327" lon="1.98391">
        <ele>94.249111</ele>
        <time>2016-05-08T15:05:14Z</time>
      </trkpt>
      <trkpt lat="48.71328" lon="1.98388">
        <ele>98.568569</ele>
        <time>2016-05-08T15:05:16Z</time>
      </trkpt>
      <trkpt lat="48.71329" lon="1.98385">
        <ele>97.600552</ele>
        <time>2016-05-08T15:05:18Z</time>
      </trkpt>
      <trkpt lat="48.7133" lon="1.98382">
        <ele>97.654385</ele>
        <time>2016-05-08T15:05:20Z</time>
      </trkpt>
      <trkpt lat="48.7133" lon="1.9838">
        <ele>93.829678</ele>
        <time>2016-05-08T15:05:22Z</time>
      </trkpt>
      <trkpt lat="48.71331" lon="1.98377">
        <ele>90.791348</ele>
        <time>2016-05-08T15:05:24Z</time>
      </trkpt>
      <trkpt lat="48.71332" lon="1.98374">
        <ele>91.730679</ele>
        <time>2016-05-08T15:05:26Z</time>
      </trkpt>
      <trkpt lat="48.71333" lon="1.98372">
        <ele>91.191982</ele>
        <time>2016-05-08T15:05:28Z</time>
      </trkpt>
      <trkpt lat="48.71334" lon="1.98369">
        <ele>91.791592</ele>
        <time>2016-05-08T15:05:30Z</time>
      </trkpt>
      <trkpt lat="48.71334" lon="1.98366">
        <ele>91.378567</ele>
        <time>2016-05-08T15:05:32Z</time>
      </trkpt>
      <trkpt lat="48.71335" lon="1.98362">
        <ele>91.975307</ele>
        <time>2016-05-08T15:05:34Z</time>
      </trkpt>
      <trkpt lat="48.71336" lon="1.98359">
        <ele>94.051846</ele>
        <time>2016-05-08T15:05:36Z</time>
      </trkpt>
      <trkpt lat="48.71337" lon="1.98356">
        <ele>93.797817</ele>
        <time>2016-05-08T15:05:38Z</time>
      </trkpt>
      <trkpt lat="48.71337" lon="1.98353">
        <ele>93.708279</ele>
        <time>2016-05-08T15:05:40Z</time>
      </trkpt>
      <trkpt lat="48.71339" lon="1.9835">
        <ele>93.058681</ele>
        <time>2016-05-08T15:05:42Z</time>
      </trkpt>
      <trkpt lat="48.7134" lon="1.98347">
        <ele>93.276089</ele>
        <time>2016-05-08T15:05:44Z</time>
      </trkpt>
      <trkpt lat="48.71342" lon="1.98344">
        <ele>94.673183</ele>
        <time>2016-05-08T15:05:46Z</time>
      </trkpt>
      <trkpt lat="48.71343" lon="1.98339">
        <ele>96.366055</ele>
        <time>2016-05-08T15:05:48Z</time>
      </trkpt>
      <trkpt lat="48.71344" lon="1.98334">
        <ele>96.348843</ele>
        <time>2016-05-08T15:05:50Z</time>
      </trkpt>
      <trkpt lat="48.71345" lon="1.98331">
        <ele>97.232388</ele>
        <time>2016-05-08T15:05:52Z</time>
      </trkpt>
      <trkpt lat="48.71347" lon="1.9833">
        <ele>97.103115</ele>
        <time>2016-05-08T15:05:54Z</time>
      </trkpt>
      <trkpt lat="48.71347" lon="1.98327">
        <ele>96.314907</ele>
        <time>2016-05-08T15:05:56Z</time>
      </trkpt>
      <trkpt lat="48.71347" lon="1.98324">
        <ele>96.602139</ele>
        <time>2016-05-08T15:05:58Z</time>
      </trkpt>
      <trkpt lat="48.71347" lon="1.98322">
        <ele>96.914394</ele>
        <time>2016-05-08T15:06:00Z</time>
      </trkpt>
      <trkpt lat="48.71347" lon="1.98318">
        <ele>97.624294</ele>
        <time>2016-05-08T15:06:02Z</time>
      </trkpt>
      <trkpt lat="48.71347" lon="1.98315">
        <ele>97.239407</ele>
        <time>2016-05-08T15:06:04Z</time>
      </trkpt>
      <trkpt lat="48.71346" lon="1.98312">
        <ele>97.806484</ele>
        <time>2016-05-08T15:06:06Z</time>
      </trkpt>
      <trkpt lat="48.71346" lon="1.98309">
        <ele>98.562588</ele>
        <time>2016-05-08T15:06:08Z</time>
      </trkpt>
      <trkpt lat="48.71346" lon="1.98305">
        <ele>98.396206</ele>
        <time>2016-05-08T15:06:10Z</time>
      </trkpt>
      <trkpt lat="48.71347" lon="1.98302">
        <ele>98.683071</ele>
        <time>2016-05-08T15:06:12Z</time>
      </trkpt>
      <trkpt lat="48.71348" lon="1.983">
        <ele>97.910976</ele>
        <time>2016-05-08T15:06:14Z</time>
      </trkpt>
      <trkpt lat="48.71351" lon="1.98298">
        <ele>97.313992</ele>
        <time>2016-05-08T15:06:16Z</time>
      </trkpt>
      <trkpt lat="48.71352" lon="1.98296">
        <ele>96.725613</ele>
        <time>2016-05-08T15:06:18Z</time>
      </trkpt>
      <trkpt lat="48.71353" lon="1.98294">
        <ele>96.124844</ele>
        <time>2016-05-08T15:06:20Z</time>
      </trkpt>
      <trkpt lat="48.71354" lon="1.98293">
        <ele>96.791103</ele>
        <time>2016-05-08T15:06:22Z</time>
      </trkpt>
      <trkpt lat="48.71356" lon="1.98292">
        <ele>95.887356</ele>
        <time>2016-05-08T15:06:24Z</time>
      </trkpt>
      <trkpt lat="48.71357" lon="1.98291">
        <ele>96.948086</ele>
        <time>2016-05-08T15:06:26Z</time>
      </trkpt>
      <trkpt lat="48.71358" lon="1.98289">
        <ele>96.253445</ele>
        <time>2016-05-08T15:06:28Z</time>
      </trkpt>
      <trkpt lat="48.71359" lon="1.98286">
        <ele>96.047573</ele>
        <time>2016-05-08T15:06:30Z</time>
      </trkpt>
      <trkpt lat="48.71361" lon="1.98284">
        <ele>96.769985</ele>
        <time>2016-05-08T15:06:32Z</time>
      </trkpt>
      <trkpt lat="48.71363" lon="1.98282">
        <ele>97.078152</ele>
        <time>2016-05-08T15:06:34Z</time>
      </trkpt>
      <trkpt lat="48.71363" lon="1.98279">
        <ele>97.164639</ele>
        <time>2016-05-08T15:06:36Z</time>
      </trkpt>
      <trkpt lat="48.71364" lon="1.98275">
        <ele>97.485928</ele>
        <time>2016-05-08T15:06:38Z</time>
      </trkpt>
      <trkpt lat="48.71365" lon="1.98273">
        <ele>98.015347</ele>
        <time>2016-05-08T15:06:40Z</time>
      </trkpt>
      <trkpt lat="48.71368" lon="1.9827">
        <ele>98.81271</ele>
        <time>2016-05-08T15:06:42Z</time>
      </trkpt>
      <trkpt lat="48.71368" lon="1.98268">
        <ele>98.310207</ele>
        <time>2016-05-08T15:06:44Z</time>
      </trkpt>
      <trkpt lat="48.71369" lon="1.98263">
        <ele>99.637234</ele>
        <time>2016-05-08T15:06:46Z</time>
      </trkpt>
      <trkpt lat="48.7137" lon="1.98261">
        <ele>99.630581</ele>
        <time>2016-05-08T15:06:48Z</time>
      </trkpt>
      <trkpt lat="48.71373" lon="1.98262">
        <ele>100.880825</ele>
        <time>2016-05-08T15:06:50Z</time>
      </trkpt>
      <trkpt lat="48.71376" lon="1.98264">
        <ele>100.775845</ele>
        <time>2016-05-08T15:06:52Z</time>
      </trkpt>
      <trkpt lat="48.71378" lon="1.98264">
        <ele>101.331509</ele>
        <time>2016-05-08T15:06:54Z</time>
      </trkpt>
      <trkpt lat="48.71379" lon="1.98265">
        <ele>101.680874</ele>
        <time>2016-05-08T15:06:56Z</time>
      </trkpt>
      <trkpt lat="48.71381" lon="1.98265">
        <ele>102.427395</ele>
        <time>2016-05-08T15:06:58Z</time>
      </trkpt>
      <trkpt lat="48.71382" lon="1.98264">
        <ele>103.488003</ele>
        <time>2016-05-08T15:07:00Z</time>
      </trkpt>
      <trkpt lat="48.71384" lon="1.98262">
        <ele>104.889126</ele>
        <time>2016-05-08T15:07:02Z</time>
      </trkpt>
      <trkpt lat="48.71384" lon="1.98259">
        <ele>106.057705</ele>
        <time>2016-05-08T15:07:04Z</time>
      </trkpt>
      <trkpt lat="48.71386" lon="1.98256">
        <ele>107.514187</ele>
        <time>2016-05-08T15:07:06Z</time>
      </trkpt>
      <trkpt lat="48.71387" lon="1.98254">
        <ele>109.244289</ele>
        <time>2016-05-08T15:07:08Z</time>
      </trkpt>
      <trkpt lat="48.71389" lon="1.98252">
        <ele>110.36166</ele>
        <time>2016-05-08T15:07:10Z</time>
      </trkpt>
      <trkpt lat="48.71391" lon="1.98249">
        <ele>111.58987</ele>
        <time>2016-05-08T15:07:12Z</time>
      </trkpt>
      <trkpt lat="48.71392" lon="1.98248">
        <ele>111.355862</ele>
        <time>2016-05-08T15:07:14Z</time>
      </trkpt>
      <trkpt lat="48.71393" lon="1.98246">
        <ele>112.023769</ele>
        <time>2016-05-08T15:07:16Z</time>
      </trkpt>
      <trkpt lat="48.71395" lon="1.98245">
        <ele>109.677273</ele>
        <time>2016-05-08T15:07:18Z</time>
      </trkpt>
      <trkpt lat="48.71397" lon="1.98243">
        <ele>110.747036</ele>
        <time>2016-05-08T15:07:20Z</time>
      </trkpt>
      <trkpt lat="48.71398" lon="1.9824">
        <ele>111.136929</ele>
        <time>2016-05-08T15:07:22Z</time>
      </trkpt>
      <trkpt lat="48.714" lon="1.98239">
        <ele>110.778286</ele>
        <time>2016-05-08T15:07:24Z</time>
      </trkpt>
      <trkpt lat="48.71401" lon="1.98238">
        <ele>110.286282</ele>
        <time>2016-05-08T15:07:26Z</time>
      </trkpt>
      <trkpt lat="48.71402" lon="1.98237">
        <ele>111.384975</ele>
        <time>2016-05-08T15:07:28Z</time>
      </trkpt>
      <trkpt lat="48.71403" lon="1.98236">
        <ele>111.540615</ele>
        <time>2016-05-08T15:07:30Z</time>
      </trkpt>
      <trkpt lat="48.71404" lon="1.98235">
        <ele>111.411098</ele>
        <time>2016-05-08T15:07:32Z</time>
      </trkpt>
      <trkpt lat="48.71404" lon="1.98235">
        <ele>110.346096</ele>
        <time>2016-05-08T15:07:34Z</time>
      </trkpt>
      <trkpt lat="48.71405" lon="1.98234">
        <ele>108.979519</ele>
        <time>2016-05-08T15:07:36Z</time>
      </trkpt>
      <trkpt lat="48.71406" lon="1.98233">
        <ele>108.447842</ele>
        <time>2016-05-08T15:07:38Z</time>
      </trkpt>
      <trkpt lat="48.71407" lon="1.98232">
        <ele>109.331509</ele>
        <time>2016-05-08T15:07:40Z</time>
      </trkpt>
      <trkpt lat="48.71407" lon="1.98232">
        <ele>108.767971</ele>
        <time>2016-05-08T15:07:42Z</time>
      </trkpt>
      <trkpt lat="48.71406" lon="1.98233">
        <ele>107.697903</ele>
        <time>2016-05-08T15:07:44Z</time>
      </trkpt>
      <trkpt lat="48.71406" lon="1.98232">
        <ele>107.202724</ele>
        <time>2016-05-08T15:07:46Z</time>
      </trkpt>
      <trkpt lat="48.71406" lon="1.98232">
        <ele>106.875393</ele>
        <time>2016-05-08T15:07:48Z</time>
      </trkpt>
      <trkpt lat="48.71406" lon="1.98231">
        <ele>106.810146</ele>
        <time>2016-05-08T15:07:50Z</time>
      </trkpt>
      <trkpt lat="48.71406" lon="1.98231">
        <ele>107.19363</ele>
        <time>2016-05-08T15:07:52Z</time>
      </trkpt>
      <trkpt lat="48.71406" lon="1.9823">
        <ele>106.047939</ele>
        <time>2016-05-08T15:07:54Z</time>
      </trkpt>
      <trkpt lat="48.71406" lon="1.98228">
        <ele>105.695278</ele>
        <time>2016-05-08T15:07:56Z</time>
      </trkpt>
      <trkpt lat="48.71407" lon="1.98226">
        <ele>106.196621</ele>
        <time>2016-05-08T15:07:58Z</time>
      </trkpt>
      <trkpt lat="48.71408" lon="1.98223">
        <ele>105.776089</ele>
        <time>2016-05-08T15:08:00Z</time>
      </trkpt>
      <trkpt lat="48.71408" lon="1.98222">
        <ele>104.680691</ele>
        <time>2016-05-08T15:08:02Z</time>
      </trkpt>
      <trkpt lat="48.71409" lon="1.9822">
        <ele>104.324856</ele>
        <time>2016-05-08T15:08:04Z</time>
      </trkpt>
      <trkpt lat="48.71411" lon="1.98218">
        <ele>104.52145</ele>
        <time>2016-05-08T15:08:06Z</time>
      </trkpt>
      <trkpt lat="48.71412" lon="1.98217">
        <ele>103.935329</ele>
        <time>2016-05-08T15:08:08Z</time>
      </trkpt>
      <trkpt lat="48.71412" lon="1.98217">
        <ele>103.760952</ele>
        <time>2016-05-08T15:08:10Z</time>
      </trkpt>
      <trkpt lat="48.71413" lon="1.98215">
        <ele>104.272976</ele>
        <time>2016-05-08T15:08:12Z</time>
      </trkpt>
      <trkpt lat="48.71413" lon="1.98215">
        <ele>103.516445</ele>
        <time>2016-05-08T15:08:14Z</time>
      </trkpt>
      <trkpt lat="48.71414" lon="1.98213">
        <ele>104.231472</ele>
        <time>2016-05-08T15:08:16Z</time>
      </trkpt>
      <trkpt lat="48.71415" lon="1.98212">
        <ele>104.405666</ele>
        <time>2016-05-08T15:08:18Z</time>
      </trkpt>
      <trkpt lat="48.71415" lon="1.98212">
        <ele>104.442593</ele>
        <time>2016-05-08T15:08:20Z</time>
      </trkpt>
      <trkpt lat="48.71416" lon="1.9821">
        <ele>104.46603</ele>
        <time>2016-05-08T15:08:22Z</time>
      </trkpt>
      <trkpt lat="48.71416" lon="1.98208">
        <ele>105.173794</ele>
        <time>2016-05-08T15:08:24Z</time>
      </trkpt>
      <trkpt lat="48.71416" lon="1.98206">
        <ele>105.016323</ele>
        <time>2016-05-08T15:08:26Z</time>
      </trkpt>
      <trkpt lat="48.71416" lon="1.98204">
        <ele>105.936184</ele>
        <time>2016-05-08T15:08:28Z</time>
      </trkpt>
      <trkpt lat="48.71415" lon="1.98202">
        <ele>106.462246</ele>
        <time>2016-05-08T15:08:30Z</time>
      </trkpt>
      <trkpt lat="48.71415" lon="1.98199">
        <ele>107.379726</ele>
        <time>2016-05-08T15:08:32Z</time>
      </trkpt>
      <trkpt lat="48.71415" lon="1.98196">
        <ele>107.5704</ele>
        <time>2016-05-08T15:08:34Z</time>
      </trkpt>
      <trkpt lat="48.71416" lon="1.98194">
        <ele>106.772182</ele>
        <time>2016-05-08T15:08:36Z</time>
      </trkpt>
      <trkpt lat="48.71418" lon="1.98192">
        <ele>105.928982</ele>
        <time>2016-05-08T15:08:38Z</time>
      </trkpt>
      <trkpt lat="48.71418" lon="1.98189">
        <ele>106.401821</ele>
        <time>2016-05-08T15:08:40Z</time>
      </trkpt>
      <trkpt lat="48.71418" lon="1.98186">
        <ele>107.151272</ele>
        <time>2016-05-08T15:08:42Z</time>
      </trkpt>
      <trkpt lat="48.71418" lon="1.98183">
        <ele>106.475552</ele>
        <time>2016-05-08T15:08:44Z</time>
      </trkpt>
      <trkpt lat="48.71418" lon="1.98181">
        <ele>106.362514</ele>
        <time>2016-05-08T15:08:46Z</time>
      </trkpt>
      <trkpt lat="48.71418" lon="1.98178">
        <ele>105.803555</ele>
        <time>2016-05-08T15:08:48Z</time>
      </trkpt>
      <trkpt lat="48.71419" lon="1.98176">
        <ele>105.122158</ele>
        <time>2016-05-08T15:08:50Z</time>
      </trkpt>
      <trkpt lat="48.71419" lon="1.98174">
        <ele>104.677578</ele>
        <time>2016-05-08T15:08:52Z</time>
      </trkpt>
      <trkpt lat="48.71421" lon="1.98172">
        <ele>104.485867</ele>
        <time>2016-05-08T15:08:54Z</time>
      </trkpt>
      <trkpt lat="48.71422" lon="1.98169">
        <ele>104.636074</ele>
        <time>2016-05-08T15:08:56Z</time>
      </trkpt>
      <trkpt lat="48.71422" lon="1.98167">
        <ele>104.844326</ele>
        <time>2016-05-08T15:08:58Z</time>
      </trkpt>
      <trkpt lat="48.71423" lon="1.98165">
        <ele>105.744167</ele>
        <time>2016-05-08T15:09:00Z</time>
      </trkpt>
      <trkpt lat="48.71423" lon="1.98163">
        <ele>105.50082</ele>
        <time>2016-05-08T15:09:02Z</time>
      </trkpt>
      <trkpt lat="48.71424" lon="1.98161">
        <ele>105.833645</ele>
        <time>2016-05-08T15:09:04Z</time>
      </trkpt>
      <trkpt lat="48.71425" lon="1.98159">
        <ele>105.943081</ele>
        <time>2016-05-08T15:09:06Z</time>
      </trkpt>
      <trkpt lat="48.71425" lon="1.98157">
        <ele>106.230801</ele>
        <time>2016-05-08T15:09:08Z</time>
      </trkpt>
      <trkpt lat="48.71424" lon="1.98157">
        <ele>106.388088</ele>
        <time>2016-05-08T15:09:10Z</time>
      </trkpt>
      <trkpt lat="48.71424" lon="1.98156">
        <ele>107.268032</ele>
        <time>2016-05-08T15:09:12Z</time>
      </trkpt>
      <trkpt lat="48.71425" lon="1.98154">
        <ele>107.949062</ele>
        <time>2016-05-08T15:09:14Z</time>
      </trkpt>
      <trkpt lat="48.71425" lon="1.98152">
        <ele>108.456875</ele>
        <time>2016-05-08T15:09:16Z</time>
      </trkpt>
      <trkpt lat="48.71425" lon="1.9815">
        <ele>108.827541</ele>
        <time>2016-05-08T15:09:18Z</time>
      </trkpt>
      <trkpt lat="48.71426" lon="1.98148">
        <ele>108.681606</ele>
        <time>2016-05-08T15:09:20Z</time>
      </trkpt>
      <trkpt lat="48.71426" lon="1.98146">
        <ele>108.595669</ele>
        <time>2016-05-08T15:09:22Z</time>
      </trkpt>
      <trkpt lat="48.71427" lon="1.98143">
        <ele>109.028408</ele>
        <time>2016-05-08T15:09:24Z</time>
      </trkpt>
      <trkpt lat="48.71427" lon="1.9814">
        <ele>109.515591</ele>
        <time>2016-05-08T15:09:26Z</time>
      </trkpt>
      <trkpt lat="48.71427" lon="1.98138">
        <ele>109.620815</ele>
        <time>2016-05-08T15:09:28Z</time>
      </trkpt>
      <trkpt lat="48.71427" lon="1.98136">
        <ele>109.99612</ele>
        <time>2016-05-08T15:09:30Z</time>
      </trkpt>
      <trkpt lat="48.71427" lon="1.98134">
        <ele>110.703579</ele>
        <time>2016-05-08T15:09:32Z</time>
      </trkpt>
      <trkpt lat="48.71427" lon="1.98131">
        <ele>110.23904</ele>
        <time>2016-05-08T15:09:34Z</time>
      </trkpt>
      <trkpt lat="48.71427" lon="1.98128">
        <ele>110.295803</ele>
        <time>2016-05-08T15:09:36Z</time>
      </trkpt>
      <trkpt lat="48.71426" lon="1.98124">
        <ele>109.875393</ele>
        <time>2016-05-08T15:09:38Z</time>
      </trkpt>
      <trkpt lat="48.71427" lon="1.98122">
        <ele>110.163967</ele>
        <time>2016-05-08T15:09:40Z</time>
      </trkpt>
      <trkpt lat="48.71426" lon="1.98119">
        <ele>109.935879</ele>
        <time>2016-05-08T15:09:42Z</time>
      </trkpt>
      <trkpt lat="48.71426" lon="1.98117">
        <ele>110.113613</ele>
        <time>2016-05-08T15:09:44Z</time>
      </trkpt>
      <trkpt lat="48.71425" lon="1.98114">
        <ele>110.546474</ele>
        <time>2016-05-08T15:09:46Z</time>
      </trkpt>
      <trkpt lat="48.71425" lon="1.9811">
        <ele>110.655727</ele>
        <time>2016-05-08T15:09:48Z</time>
      </trkpt>
      <trkpt lat="48.71425" lon="1.98108">
        <ele>110.775356</ele>
        <time>2016-05-08T15:09:50Z</time>
      </trkpt>
      <trkpt lat="48.71426" lon="1.98104">
        <ele>110.148525</ele>
        <time>2016-05-08T15:09:52Z</time>
      </trkpt>
      <trkpt lat="48.71427" lon="1.98102">
        <ele>108.839016</ele>
        <time>2016-05-08T15:09:54Z</time>
      </trkpt>
      <trkpt lat="48.71428" lon="1.981">
        <ele>107.575527</ele>
        <time>2016-05-08T15:09:56Z</time>
      </trkpt>
      <trkpt lat="48.7143" lon="1.98097">
        <ele>107.983425</ele>
        <time>2016-05-08T15:09:58Z</time>
      </trkpt>
      <trkpt lat="48.71431" lon="1.98094">
        <ele>108.52792</ele>
        <time>2016-05-08T15:10:00Z</time>
      </trkpt>
      <trkpt lat="48.71432" lon="1.98091">
        <ele>109.446011</ele>
        <time>2016-05-08T15:10:02Z</time>
      </trkpt>
      <trkpt lat="48.71433" lon="1.98088">
        <ele>109.32571</ele>
        <time>2016-05-08T15:10:04Z</time>
      </trkpt>
      <trkpt lat="48.71433" lon="1.98084">
        <ele>108.697842</ele>
        <time>2016-05-08T15:10:06Z</time>
      </trkpt>
      <trkpt lat="48.71432" lon="1.98081">
        <ele>108.070644</ele>
        <time>2016-05-08T15:10:08Z</time>
      </trkpt>
      <trkpt lat="48.71432" lon="1.98078">
        <ele>107.785854</ele>
        <time>2016-05-08T15:10:10Z</time>
      </trkpt>
      <trkpt lat="48.71432" lon="1.98076">
        <ele>107.954556</ele>
        <time>2016-05-08T15:10:12Z</time>
      </trkpt>
      <trkpt lat="48.71433" lon="1.98073">
        <ele>108.083645</ele>
        <time>2016-05-08T15:10:14Z</time>
      </trkpt>
      <trkpt lat="48.71433" lon="1.9807">
        <ele>107.567837</ele>
        <time>2016-05-08T15:10:16Z</time>
      </trkpt>
      <trkpt lat="48.71433" lon="1.98067">
        <ele>107.232021</ele>
        <time>2016-05-08T15:10:18Z</time>
      </trkpt>
      <trkpt lat="48.71434" lon="1.98064">
        <ele>107.404812</ele>
        <time>2016-05-08T15:10:20Z</time>
      </trkpt>
      <trkpt lat="48.71433" lon="1.9806">
        <ele>106.558193</ele>
        <time>2016-05-08T15:10:22Z</time>
      </trkpt>
      <trkpt lat="48.71433" lon="1.98059">
        <ele>106.183071</ele>
        <time>2016-05-08T15:10:23Z</time>
      </trkpt>
      <trkpt lat="48.71433" lon="1.98055">
        <ele>105.95779</ele>
        <time>2016-05-08T15:10:25Z</time>
      </trkpt>
      <trkpt lat="48.71432" lon="1.98053">
        <ele>107.172878</ele>
        <time>2016-05-08T15:10:27Z</time>
      </trkpt>
      <trkpt lat="48.71432" lon="1.9805">
        <ele>106.024197</ele>
        <time>2016-05-08T15:10:29Z</time>
      </trkpt>
      <trkpt lat="48.71432" lon="1.98048">
        <ele>105.534878</ele>
        <time>2016-05-08T15:10:31Z</time>
      </trkpt>
      <trkpt lat="48.71432" lon="1.98046">
        <ele>105.925686</ele>
        <time>2016-05-08T15:10:33Z</time>
      </trkpt>
      <trkpt lat="48.71431" lon="1.98043">
        <ele>106.355679</ele>
        <time>2016-05-08T15:10:35Z</time>
      </trkpt>
      <trkpt lat="48.71431" lon="1.98042">
        <ele>105.745022</ele>
        <time>2016-05-08T15:10:37Z</time>
      </trkpt>
      <trkpt lat="48.7143" lon="1.9804">
        <ele>105.461147</ele>
        <time>2016-05-08T15:10:39Z</time>
      </trkpt>
      <trkpt lat="48.71431" lon="1.98037">
        <ele>104.758694</ele>
        <time>2016-05-08T15:10:41Z</time>
      </trkpt>
      <trkpt lat="48.7143" lon="1.98035">
        <ele>104.913357</ele>
        <time>2016-05-08T15:10:43Z</time>
      </trkpt>
      <trkpt lat="48.7143" lon="1.98034">
        <ele>105.325771</ele>
        <time>2016-05-08T15:10:45Z</time>
      </trkpt>
      <trkpt lat="48.71431" lon="1.98034">
        <ele>104.502224</ele>
        <time>2016-05-08T15:10:47Z</time>
      </trkpt>
      <trkpt lat="48.71431" lon="1.98033">
        <ele>104.598598</ele>
        <time>2016-05-08T15:10:49Z</time>
      </trkpt>
      <trkpt lat="48.71432" lon="1.98031">
        <ele>104.908779</ele>
        <time>2016-05-08T15:10:51Z</time>
      </trkpt>
      <trkpt lat="48.71433" lon="1.98028">
        <ele>104.58395</ele>
        <time>2016-05-08T15:10:53Z</time>
      </trkpt>
      <trkpt lat="48.71434" lon="1.98025">
        <ele>104.89352</ele>
        <time>2016-05-08T15:10:55Z</time>
      </trkpt>
      <trkpt lat="48.71435" lon="1.98024">
        <ele>104.496914</ele>
        <time>2016-05-08T15:10:57Z</time>
      </trkpt>
      <trkpt lat="48.71435" lon="1.98022">
        <ele>104.841274</ele>
        <time>2016-05-08T15:10:59Z</time>
      </trkpt>
      <trkpt lat="48.71436" lon="1.98019">
        <ele>105.452847</ele>
        <time>2016-05-08T15:11:01Z</time>
      </trkpt>
      <trkpt lat="48.71435" lon="1.98017">
        <ele>105.973293</ele>
        <time>2016-05-08T15:11:03Z</time>
      </trkpt>
      <trkpt lat="48.71435" lon="1.98016">
        <ele>105.105862</ele>
        <time>2016-05-08T15:11:05Z</time>
      </trkpt>
      <trkpt lat="48.71437" lon="1.98016">
        <ele>105.220669</ele>
        <time>2016-05-08T15:11:07Z</time>
      </trkpt>
      <trkpt lat="48.71439" lon="1.98016">
        <ele>105.098232</ele>
        <time>2016-05-08T15:11:09Z</time>
      </trkpt>
      <trkpt lat="48.7144" lon="1.98015">
        <ele>104.231045</ele>
        <time>2016-05-08T15:11:11Z</time>
      </trkpt>
      <trkpt lat="48.71441" lon="1.98013">
        <ele>103.93124</ele>
        <time>2016-05-08T15:11:13Z</time>
      </trkpt>
      <trkpt lat="48.71441" lon="1.98009">
        <ele>105.197536</ele>
        <time>2016-05-08T15:11:15Z</time>
      </trkpt>
      <trkpt lat="48.71441" lon="1.98006">
        <ele>105.375088</ele>
        <time>2016-05-08T15:11:17Z</time>
      </trkpt>
      <trkpt lat="48.71442" lon="1.98003">
        <ele>105.60043</ele>
        <time>2016-05-08T15:11:19Z</time>
      </trkpt>
      <trkpt lat="48.71443" lon="1.97999">
        <ele>106.443752</ele>
        <time>2016-05-08T15:11:21Z</time>
      </trkpt>
      <trkpt lat="48.71444" lon="1.97993">
        <ele>105.851467</ele>
        <time>2016-05-08T15:11:23Z</time>
      </trkpt>
      <trkpt lat="48.71444" lon="1.9799">
        <ele>105.982021</ele>
        <time>2016-05-08T15:11:25Z</time>
      </trkpt>
      <trkpt lat="48.71445" lon="1.97988">
        <ele>105.31979</ele>
        <time>2016-05-08T15:11:27Z</time>
      </trkpt>
      <trkpt lat="48.71444" lon="1.97984">
        <ele>104.438869</ele>
        <time>2016-05-08T15:11:29Z</time>
      </trkpt>
      <trkpt lat="48.71444" lon="1.97979">
        <ele>105.691433</ele>
        <time>2016-05-08T15:11:31Z</time>
      </trkpt>
      <trkpt lat="48.71444" lon="1.97976">
        <ele>104.781338</ele>
        <time>2016-05-08T15:11:32Z</time>
      </trkpt>
      <trkpt lat="48.71443" lon="1.97971">
        <ele>104.047939</ele>
        <time>2016-05-08T15:11:34Z</time>
      </trkpt>
      <trkpt lat="48.71443" lon="1.97966">
        <ele>104.062954</ele>
        <time>2016-05-08T15:11:36Z</time>
      </trkpt>
      <trkpt lat="48.71443" lon="1.97964">
        <ele>103.567348</ele>
        <time>2016-05-08T15:11:38Z</time>
      </trkpt>
      <trkpt lat="48.71443" lon="1.97964">
        <ele>103.565273</ele>
        <time>2016-05-08T15:11:39Z</time>
      </trkpt>
      <trkpt lat="48.71444" lon="1.97965">
        <ele>103.452541</ele>
        <time>2016-05-08T15:11:40Z</time>
      </trkpt>
      <trkpt lat="48.71445" lon="1.97965">
        <ele>102.468227</ele>
        <time>2016-05-08T15:11:41Z</time>
      </trkpt>
      <trkpt lat="48.71445" lon="1.97965">
        <ele>102.312222</ele>
        <time>2016-05-08T15:11:42Z</time>
      </trkpt>
      <trkpt lat="48.71445" lon="1.97964">
        <ele>102.442104</ele>
        <time>2016-05-08T15:11:43Z</time>
      </trkpt>
      <trkpt lat="48.71446" lon="1.97963">
        <ele>101.670498</ele>
        <time>2016-05-08T15:11:44Z</time>
      </trkpt>
      <trkpt lat="48.71446" lon="1.97962">
        <ele>102.240444</ele>
        <time>2016-05-08T15:11:45Z</time>
      </trkpt>
      <trkpt lat="48.71446" lon="1.97961">
        <ele>101.633572</ele>
        <time>2016-05-08T15:11:46Z</time>
      </trkpt>
      <trkpt lat="48.71446" lon="1.97959">
        <ele>101.438808</ele>
        <time>2016-05-08T15:11:47Z</time>
      </trkpt>
      <trkpt lat="48.71446" lon="1.97957">
        <ele>100.535793</ele>
        <time>2016-05-08T15:11:48Z</time>
      </trkpt>
      <trkpt lat="48.71446" lon="1.97956">
        <ele>99.704861</ele>
        <time>2016-05-08T15:11:49Z</time>
      </trkpt>
      <trkpt lat="48.71446" lon="1.97954">
        <ele>100.430996</ele>
        <time>2016-05-08T15:11:50Z</time>
      </trkpt>
      <trkpt lat="48.71447" lon="1.97953">
        <ele>100.981045</ele>
        <time>2016-05-08T15:11:51Z</time>
      </trkpt>
      <trkpt lat="48.71447" lon="1.97952">
        <ele>101.865322</ele>
        <time>2016-05-08T15:11:52Z</time>
      </trkpt>
      <trkpt lat="48.71448" lon="1.9795">
        <ele>101.654751</ele>
        <time>2016-05-08T15:11:53Z</time>
      </trkpt>
      <trkpt lat="48.71448" lon="1.97949">
        <ele>101.018093</ele>
        <time>2016-05-08T15:11:54Z</time>
      </trkpt>
      <trkpt lat="48.71449" lon="1.97948">
        <ele>100.734463</ele>
        <time>2016-05-08T15:11:55Z</time>
      </trkpt>
      <trkpt lat="48.7145" lon="1.97947">
        <ele>100.225735</ele>
        <time>2016-05-08T15:11:56Z</time>
      </trkpt>
      <trkpt lat="48.71451" lon="1.97946">
        <ele>99.350796</ele>
        <time>2016-05-08T15:11:57Z</time>
      </trkpt>
      <trkpt lat="48.71451" lon="1.97944">
        <ele>99.257778</ele>
        <time>2016-05-08T15:11:58Z</time>
      </trkpt>
      <trkpt lat="48.71452" lon="1.97942">
        <ele>98.850918</ele>
        <time>2016-05-08T15:11:59Z</time>
      </trkpt>
      <trkpt lat="48.71451" lon="1.9794">
        <ele>98.538784</ele>
        <time>2016-05-08T15:12:00Z</time>
      </trkpt>
      <trkpt lat="48.71451" lon="1.97938">
        <ele>98.015713</ele>
        <time>2016-05-08T15:12:01Z</time>
      </trkpt>
      <trkpt lat="48.71451" lon="1.97936">
        <ele>98.116604</ele>
        <time>2016-05-08T15:12:02Z</time>
      </trkpt>
      <trkpt lat="48.71451" lon="1.97935">
        <ele>97.607143</ele>
        <time>2016-05-08T15:12:03Z</time>
      </trkpt>
      <trkpt lat="48.71451" lon="1.97934">
        <ele>97.607265</ele>
        <time>2016-05-08T15:12:04Z</time>
      </trkpt>
      <trkpt lat="48.71452" lon="1.97932">
        <ele>98.788296</ele>
        <time>2016-05-08T15:12:05Z</time>
      </trkpt>
      <trkpt lat="48.71452" lon="1.97931">
        <ele>98.087124</ele>
        <time>2016-05-08T15:12:06Z</time>
      </trkpt>
      <trkpt lat="48.71452" lon="1.97929">
        <ele>98.403286</ele>
        <time>2016-05-08T15:12:07Z</time>
      </trkpt>
      <trkpt lat="48.71452" lon="1.97927">
        <ele>98.439968</ele>
        <time>2016-05-08T15:12:08Z</time>
      </trkpt>
      <trkpt lat="48.71451" lon="1.97926">
        <ele>98.522182</ele>
        <time>2016-05-08T15:12:09Z</time>
      </trkpt>
      <trkpt lat="48.71451" lon="1.97924">
        <ele>98.379971</ele>
        <time>2016-05-08T15:12:10Z</time>
      </trkpt>
      <trkpt lat="48.7145" lon="1.97922">
        <ele>98.514248</ele>
        <time>2016-05-08T15:12:11Z</time>
      </trkpt>
      <trkpt lat="48.71449" lon="1.9792">
        <ele>98.475185</ele>
        <time>2016-05-08T15:12:12Z</time>
      </trkpt>
      <trkpt lat="48.71449" lon="1.97918">
        <ele>99.417934</ele>
        <time>2016-05-08T15:12:13Z</time>
      </trkpt>
      <trkpt lat="48.71449" lon="1.97917">
        <ele>99.420864</ele>
        <time>2016-05-08T15:12:14Z</time>
      </trkpt>
      <trkpt lat="48.71449" lon="1.97915">
        <ele>99.554531</ele>
        <time>2016-05-08T15:12:15Z</time>
      </trkpt>
      <trkpt lat="48.71449" lon="1.97915">
        <ele>99.633999</ele>
        <time>2016-05-08T15:12:16Z</time>
      </trkpt>
      <trkpt lat="48.71449" lon="1.97915">
        <ele>99.666836</ele>
        <time>2016-05-08T15:12:17Z</time>
      </trkpt>
      <trkpt lat="48.71449" lon="1.97915">
        <ele>98.645473</ele>
        <time>2016-05-08T15:12:18Z</time>
      </trkpt>
      <trkpt lat="48.7145" lon="1.97914">
        <ele>99.171413</ele>
        <time>2016-05-08T15:12:19Z</time>
      </trkpt>
      <trkpt lat="48.7145" lon="1.97913">
        <ele>98.749172</ele>
        <time>2016-05-08T15:12:20Z</time>
      </trkpt>
      <trkpt lat="48.7145" lon="1.97912">
        <ele>98.285488</ele>
        <time>2016-05-08T15:12:21Z</time>
      </trkpt>
      <trkpt lat="48.71451" lon="1.9791">
        <ele>98.053188</ele>
        <time>2016-05-08T15:12:22Z</time>
      </trkpt>
      <trkpt lat="48.71451" lon="1.97908">
        <ele>97.342861</ele>
        <time>2016-05-08T15:12:23Z</time>
      </trkpt>
      <trkpt lat="48.71451" lon="1.97907">
        <ele>97.878628</ele>
        <time>2016-05-08T15:12:24Z</time>
      </trkpt>
      <trkpt lat="48.71452" lon="1.97906">
        <ele>97.402431</ele>
        <time>2016-05-08T15:12:25Z</time>
      </trkpt>
      <trkpt lat="48.71453" lon="1.97905">
        <ele>97.956753</ele>
        <time>2016-05-08T15:12:26Z</time>
      </trkpt>
      <trkpt lat="48.71453" lon="1.97904">
        <ele>98.048733</ele>
        <time>2016-05-08T15:12:27Z</time>
      </trkpt>
      <trkpt lat="48.71454" lon="1.97903">
        <ele>99.043911</ele>
        <time>2016-05-08T15:12:28Z</time>
      </trkpt>
      <trkpt lat="48.71454" lon="1.97902">
        <ele>98.350857</ele>
        <time>2016-05-08T15:12:29Z</time>
      </trkpt>
      <trkpt lat="48.71455" lon="1.97901">
        <ele>98.16061</ele>
        <time>2016-05-08T15:12:30Z</time>
      </trkpt>
      <trkpt lat="48.71455" lon="1.979">
        <ele>97.639431</ele>
        <time>2016-05-08T15:12:31Z</time>
      </trkpt>
      <trkpt lat="48.71456" lon="1.97899">
        <ele>97.879116</ele>
        <time>2016-05-08T15:12:32Z</time>
      </trkpt>
      <trkpt lat="48.71457" lon="1.97898">
        <ele>97.986599</ele>
        <time>2016-05-08T15:12:33Z</time>
      </trkpt>
      <trkpt lat="48.71458" lon="1.97898">
        <ele>98.135525</ele>
        <time>2016-05-08T15:12:34Z</time>
      </trkpt>
      <trkpt lat="48.71458" lon="1.97897">
        <ele>96.154812</ele>
        <time>2016-05-08T15:12:35Z</time>
      </trkpt>
      <trkpt lat="48.71457" lon="1.97896">
        <ele>97.004848</ele>
        <time>2016-05-08T15:12:36Z</time>
      </trkpt>
      <trkpt lat="48.71457" lon="1.97895">
        <ele>97.994717</ele>
        <time>2016-05-08T15:12:37Z</time>
      </trkpt>
      <trkpt lat="48.71457" lon="1.97894">
        <ele>99.004299</ele>
        <time>2016-05-08T15:12:38Z</time>
      </trkpt>
      <trkpt lat="48.71456" lon="1.97894">
        <ele>99.503445</ele>
        <time>2016-05-08T15:12:39Z</time>
      </trkpt>
      <trkpt lat="48.71456" lon="1.97893">
        <ele>99.619656</ele>
        <time>2016-05-08T15:12:40Z</time>
      </trkpt>
      <trkpt lat="48.71456" lon="1.97892">
        <ele>99.433132</ele>
        <time>2016-05-08T15:12:41Z</time>
      </trkpt>
      <trkpt lat="48.71457" lon="1.97891">
        <ele>99.39468</ele>
        <time>2016-05-08T15:12:42Z</time>
      </trkpt>
      <trkpt lat="48.71457" lon="1.97891">
        <ele>99.441677</ele>
        <time>2016-05-08T15:12:43Z</time>
      </trkpt>
      <trkpt lat="48.71458" lon="1.9789">
        <ele>100.174892</ele>
        <time>2016-05-08T15:12:44Z</time>
      </trkpt>
      <trkpt lat="48.71458" lon="1.97889">
        <ele>99.798367</ele>
        <time>2016-05-08T15:12:45Z</time>
      </trkpt>
      <trkpt lat="48.71458" lon="1.97889">
        <ele>99.881618</ele>
        <time>2016-05-08T15:12:46Z</time>
      </trkpt>
      <trkpt lat="48.71458" lon="1.97889">
        <ele>100.475796</ele>
        <time>2016-05-08T15:12:47Z</time>
      </trkpt>
      <trkpt lat="48.71459" lon="1.97888">
        <ele>100.293179</ele>
        <time>2016-05-08T15:12:48Z</time>
      </trkpt>
      <trkpt lat="48.71459" lon="1.97887">
        <ele>99.895229</ele>
        <time>2016-05-08T15:12:49Z</time>
      </trkpt>
      <trkpt lat="48.71459" lon="1.97886">
        <ele>99.487637</ele>
        <time>2016-05-08T15:12:50Z</time>
      </trkpt>
      <trkpt lat="48.71459" lon="1.97884">
        <ele>99.155972</ele>
        <time>2016-05-08T15:12:51Z</time>
      </trkpt>
      <trkpt lat="48.71459" lon="1.97883">
        <ele>99.014248</ele>
        <time>2016-05-08T15:12:52Z</time>
      </trkpt>
      <trkpt lat="48.71459" lon="1.97882">
        <ele>99.214138</ele>
        <time>2016-05-08T15:12:53Z</time>
      </trkpt>
      <trkpt lat="48.71457" lon="1.97881">
        <ele>99.056973</ele>
        <time>2016-05-08T15:12:54Z</time>
      </trkpt>
      <trkpt lat="48.71456" lon="1.97881">
        <ele>99.127895</ele>
        <time>2016-05-08T15:12:55Z</time>
      </trkpt>
      <trkpt lat="48.71456" lon="1.9788">
        <ele>99.163113</ele>
        <time>2016-05-08T15:12:56Z</time>
      </trkpt>
      <trkpt lat="48.71455" lon="1.97881">
        <ele>99.38113</ele>
        <time>2016-05-08T15:12:57Z</time>
      </trkpt>
      <trkpt lat="48.71455" lon="1.97881">
        <ele>99.889004</ele>
        <time>2016-05-08T15:12:58Z</time>
      </trkpt>
      <trkpt lat="48.71455" lon="1.9788">
        <ele>100.072842</ele>
        <time>2016-05-08T15:12:59Z</time>
      </trkpt>
      <trkpt lat="48.71456" lon="1.9788">
        <ele>100.084805</ele>
        <time>2016-05-08T15:13:00Z</time>
      </trkpt>
      <trkpt lat="48.71456" lon="1.97879">
        <ele>100.398586</ele>
        <time>2016-05-08T15:13:01Z</time>
      </trkpt>
      <trkpt lat="48.71456" lon="1.97878">
        <ele>100.920559</ele>
        <time>2016-05-08T15:13:02Z</time>
      </trkpt>
      <trkpt lat="48.71456" lon="1.97876">
        <ele>100.790249</ele>
        <time>2016-05-08T15:13:03Z</time>
      </trkpt>
      <trkpt lat="48.71456" lon="1.97875">
        <ele>100.601284</ele>
        <time>2016-05-08T15:13:04Z</time>
      </trkpt>
      <trkpt lat="48.71456" lon="1.97873">
        <ele>101.365261</ele>
        <time>2016-05-08T15:13:05Z</time>
      </trkpt>
      <trkpt lat="48.71455" lon="1.97872">
        <ele>101.123684</ele>
        <time>2016-05-08T15:13:06Z</time>
      </trkpt>
      <trkpt lat="48.71455" lon="1.97871">
        <ele>100.75729</ele>
        <time>2016-05-08T15:13:07Z</time>
      </trkpt>
      <trkpt lat="48.71455" lon="1.9787">
        <ele>101.118679</ele>
        <time>2016-05-08T15:13:08Z</time>
      </trkpt>
      <trkpt lat="48.71455" lon="1.97869">
        <ele>101.793118</ele>
        <time>2016-05-08T15:13:09Z</time>
      </trkpt>
      <trkpt lat="48.71455" lon="1.97867">
        <ele>102.00082</ele>
        <time>2016-05-08T15:13:10Z</time>
      </trkpt>
      <trkpt lat="48.71454" lon="1.97865">
        <ele>102.73727</ele>
        <time>2016-05-08T15:13:11Z</time>
      </trkpt>
      <trkpt lat="48.71455" lon="1.97864">
        <ele>103.100124</ele>
        <time>2016-05-08T15:13:12Z</time>
      </trkpt>
      <trkpt lat="48.71455" lon="1.97864">
        <ele>102.064297</ele>
        <time>2016-05-08T15:13:13Z</time>
      </trkpt>
      <trkpt lat="48.71456" lon="1.97863">
        <ele>101.864162</ele>
        <time>2016-05-08T15:13:14Z</time>
      </trkpt>
      <trkpt lat="48.71457" lon="1.97863">
        <ele>102.10751</ele>
        <time>2016-05-08T15:13:15Z</time>
      </trkpt>
      <trkpt lat="48.71457" lon="1.97862">
        <ele>102.574429</ele>
        <time>2016-05-08T15:13:16Z</time>
      </trkpt>
      <trkpt lat="48.71458" lon="1.97861">
        <ele>102.154812</ele>
        <time>2016-05-08T15:13:17Z</time>
      </trkpt>
      <trkpt lat="48.71459" lon="1.97861">
        <ele>101.365383</ele>
        <time>2016-05-08T15:13:18Z</time>
      </trkpt>
      <trkpt lat="48.7146" lon="1.9786">
        <ele>100.910183</ele>
        <time>2016-05-08T15:13:19Z</time>
      </trkpt>
      <trkpt lat="48.7146" lon="1.97859">
        <ele>100.45834</ele>
        <time>2016-05-08T15:13:20Z</time>
      </trkpt>
      <trkpt lat="48.71461" lon="1.97858">
        <ele>99.829739</ele>
        <time>2016-05-08T15:13:21Z</time>
      </trkpt>
      <trkpt lat="48.71462" lon="1.97857">
        <ele>99.68478</ele>
        <time>2016-05-08T15:13:22Z</time>
      </trkpt>
      <trkpt lat="48.71463" lon="1.97856">
        <ele>99.820217</ele>
        <time>2016-05-08T15:13:23Z</time>
      </trkpt>
      <trkpt lat="48.71463" lon="1.97854">
        <ele>99.105068</ele>
        <time>2016-05-08T15:13:24Z</time>
      </trkpt>
      <trkpt lat="48.71464" lon="1.97853">
        <ele>98.897549</ele>
        <time>2016-05-08T15:13:25Z</time>
      </trkpt>
      <trkpt lat="48.71464" lon="1.97852">
        <ele>98.907131</ele>
        <time>2016-05-08T15:13:26Z</time>
      </trkpt>
      <trkpt lat="48.71464" lon="1.97851">
        <ele>98.667202</ele>
        <time>2016-05-08T15:13:27Z</time>
      </trkpt>
      <trkpt lat="48.71465" lon="1.9785">
        <ele>98.938992</ele>
        <time>2016-05-08T15:13:28Z</time>
      </trkpt>
      <trkpt lat="48.71465" lon="1.97849">
        <ele>99.065578</ele>
        <time>2016-05-08T15:13:29Z</time>
      </trkpt>
      <trkpt lat="48.71465" lon="1.97848">
        <ele>99.237392</ele>
        <time>2016-05-08T15:13:30Z</time>
      </trkpt>
      <trkpt lat="48.71465" lon="1.97847">
        <ele>97.889919</ele>
        <time>2016-05-08T15:13:31Z</time>
      </trkpt>
      <trkpt lat="48.71466" lon="1.97846">
        <ele>96.822598</ele>
        <time>2016-05-08T15:13:32Z</time>
      </trkpt>
      <trkpt lat="48.71466" lon="1.97846">
        <ele>96.802029</ele>
        <time>2016-05-08T15:13:33Z</time>
      </trkpt>
      <trkpt lat="48.71467" lon="1.97846">
        <ele>96.965969</ele>
        <time>2016-05-08T15:13:34Z</time>
      </trkpt>
      <trkpt lat="48.71467" lon="1.97847">
        <ele>96.98727</ele>
        <time>2016-05-08T15:13:35Z</time>
      </trkpt>
      <trkpt lat="48.71468" lon="1.97847">
        <ele>96.47665</ele>
        <time>2016-05-08T15:13:36Z</time>
      </trkpt>
      <trkpt lat="48.71468" lon="1.97847">
        <ele>95.973721</ele>
        <time>2016-05-08T15:13:37Z</time>
      </trkpt>
      <trkpt lat="48.71467" lon="1.97847">
        <ele>95.944546</ele>
        <time>2016-05-08T15:13:38Z</time>
      </trkpt>
      <trkpt lat="48.71467" lon="1.97846">
        <ele>95.96896</ele>
        <time>2016-05-08T15:13:39Z</time>
      </trkpt>
      <trkpt lat="48.71467" lon="1.97845">
        <ele>96.291836</ele>
        <time>2016-05-08T15:13:40Z</time>
      </trkpt>
      <trkpt lat="48.71467" lon="1.97844">
        <ele>96.053799</ele>
        <time>2016-05-08T15:13:41Z</time>
      </trkpt>
      <trkpt lat="48.71467" lon="1.97843">
        <ele>96.242764</ele>
        <time>2016-05-08T15:13:42Z</time>
      </trkpt>
      <trkpt lat="48.71467" lon="1.97842">
        <ele>96.88583</ele>
        <time>2016-05-08T15:13:43Z</time>
      </trkpt>
      <trkpt lat="48.71467" lon="1.97841">
        <ele>97.175014</ele>
        <time>2016-05-08T15:13:44Z</time>
      </trkpt>
      <trkpt lat="48.71466" lon="1.9784">
        <ele>96.997952</ele>
        <time>2016-05-08T15:13:45Z</time>
      </trkpt>
      <trkpt lat="48.71466" lon="1.97839">
        <ele>96.8475</ele>
        <time>2016-05-08T15:13:46Z</time>
      </trkpt>
      <trkpt lat="48.71466" lon="1.97838">
        <ele>96.413479</ele>
        <time>2016-05-08T15:13:47Z</time>
      </trkpt>
      <trkpt lat="48.71466" lon="1.97837">
        <ele>96.940029</ele>
        <time>2016-05-08T15:13:48Z</time>
      </trkpt>
      <trkpt lat="48.71466" lon="1.97836">
        <ele>96.742031</ele>
        <time>2016-05-08T15:13:49Z</time>
      </trkpt>
      <trkpt lat="48.71467" lon="1.97835">
        <ele>96.131863</ele>
        <time>2016-05-08T15:13:50Z</time>
      </trkpt>
      <trkpt lat="48.71467" lon="1.97834">
        <ele>95.986538</ele>
        <time>2016-05-08T15:13:51Z</time>
      </trkpt>
      <trkpt lat="48.71467" lon="1.97833">
        <ele>95.958706</ele>
        <time>2016-05-08T15:13:52Z</time>
      </trkpt>
      <trkpt lat="48.71467" lon="1.97832">
        <ele>95.571865</ele>
        <time>2016-05-08T15:13:53Z</time>
      </trkpt>
      <trkpt lat="48.71467" lon="1.9783">
        <ele>95.009304</ele>
        <time>2016-05-08T15:13:54Z</time>
      </trkpt>
      <trkpt lat="48.71466" lon="1.97829">
        <ele>95.297268</ele>
        <time>2016-05-08T15:13:55Z</time>
      </trkpt>
      <trkpt lat="48.71466" lon="1.97828">
        <ele>95.785305</ele>
        <time>2016-05-08T15:13:56Z</time>
      </trkpt>
      <trkpt lat="48.71466" lon="1.97827">
        <ele>96.315212</ele>
        <time>2016-05-08T15:13:57Z</time>
      </trkpt>
      <trkpt lat="48.71467" lon="1.97826">
        <ele>96.842373</ele>
        <time>2016-05-08T15:13:58Z</time>
      </trkpt>
      <trkpt lat="48.71467" lon="1.97826">
        <ele>96.179897</ele>
        <time>2016-05-08T15:13:59Z</time>
      </trkpt>
      <trkpt lat="48.71467" lon="1.97825">
        <ele>96.483364</ele>
        <time>2016-05-08T15:14:00Z</time>
      </trkpt>
      <trkpt lat="48.71467" lon="1.97825">
        <ele>96.659756</ele>
        <time>2016-05-08T15:14:01Z</time>
      </trkpt>
      <trkpt lat="48.71467" lon="1.97825">
        <ele>96.791164</ele>
        <time>2016-05-08T15:14:02Z</time>
      </trkpt>
      <trkpt lat="48.71467" lon="1.97825">
        <ele>96.810757</ele>
        <time>2016-05-08T15:14:03Z</time>
      </trkpt>
      <trkpt lat="48.71467" lon="1.97824">
        <ele>96.410427</ele>
        <time>2016-05-08T15:14:04Z</time>
      </trkpt>
      <trkpt lat="48.71467" lon="1.97824">
        <ele>96.676357</ele>
        <time>2016-05-08T15:14:05Z</time>
      </trkpt>
      <trkpt lat="48.71467" lon="1.97823">
        <ele>96.533047</ele>
        <time>2016-05-08T15:14:06Z</time>
      </trkpt>
      <trkpt lat="48.71467" lon="1.97822">
        <ele>96.539516</ele>
        <time>2016-05-08T15:14:07Z</time>
      </trkpt>
      <trkpt lat="48.71467" lon="1.9782">
        <ele>96.874844</ele>
        <time>2016-05-08T15:14:08Z</time>
      </trkpt>
      <trkpt lat="48.71468" lon="1.97819">
        <ele>96.783779</ele>
        <time>2016-05-08T15:14:09Z</time>
      </trkpt>
      <trkpt lat="48.71468" lon="1.97818">
        <ele>97.151882</ele>
        <time>2016-05-08T15:14:10Z</time>
      </trkpt>
      <trkpt lat="48.71468" lon="1.97818">
        <ele>96.994228</ele>
        <time>2016-05-08T15:14:11Z</time>
      </trkpt>
      <trkpt lat="48.71468" lon="1.97817">
        <ele>96.854092</ele>
        <time>2016-05-08T15:14:12Z</time>
      </trkpt>
      <trkpt lat="48.71469" lon="1.97816">
        <ele>96.825283</ele>
        <time>2016-05-08T15:14:13Z</time>
      </trkpt>
      <trkpt lat="48.71469" lon="1.97815">
        <ele>96.944607</ele>
        <time>2016-05-08T15:14:14Z</time>
      </trkpt>
      <trkpt lat="48.71469" lon="1.97814">
        <ele>96.846645</ele>
        <time>2016-05-08T15:14:15Z</time>
      </trkpt>
      <trkpt lat="48.7147" lon="1.97813">
        <ele>97.203091</ele>
        <time>2016-05-08T15:14:16Z</time>
      </trkpt>
      <trkpt lat="48.71471" lon="1.97812">
        <ele>97.759731</ele>
        <time>2016-05-08T15:14:17Z</time>
      </trkpt>
      <trkpt lat="48.71471" lon="1.97812">
        <ele>98.989223</ele>
        <time>2016-05-08T15:14:18Z</time>
      </trkpt>
      <trkpt lat="48.71472" lon="1.97811">
        <ele>98.699795</ele>
        <time>2016-05-08T15:14:19Z</time>
      </trkpt>
      <trkpt lat="48.71472" lon="1.9781">
        <ele>98.883022</ele>
        <time>2016-05-08T15:14:20Z</time>
      </trkpt>
      <trkpt lat="48.71472" lon="1.97809">
        <ele>99.433498</ele>
        <time>2016-05-08T15:14:21Z</time>
      </trkpt>
      <trkpt lat="48.71473" lon="1.97807">
        <ele>99.703091</ele>
        <time>2016-05-08T15:14:22Z</time>
      </trkpt>
      <trkpt lat="48.71472" lon="1.97805">
        <ele>99.815701</ele>
        <time>2016-05-08T15:14:23Z</time>
      </trkpt>
      <trkpt lat="48.71472" lon="1.97804">
        <ele>100.493008</ele>
        <time>2016-05-08T15:14:24Z</time>
      </trkpt>
      <trkpt lat="48.71472" lon="1.97802">
        <ele>100.52914</ele>
        <time>2016-05-08T15:14:25Z</time>
      </trkpt>
      <trkpt lat="48.71472" lon="1.97801">
        <ele>100.531277</ele>
        <time>2016-05-08T15:14:26Z</time>
      </trkpt>
      <trkpt lat="48.71472" lon="1.978">
        <ele>100.462795</ele>
        <time>2016-05-08T15:14:27Z</time>
      </trkpt>
      <trkpt lat="48.71472" lon="1.97799">
        <ele>100.579128</ele>
        <time>2016-05-08T15:14:28Z</time>
      </trkpt>
      <trkpt lat="48.71472" lon="1.97798">
        <ele>101.151577</ele>
        <time>2016-05-08T15:14:29Z</time>
      </trkpt>
      <trkpt lat="48.71472" lon="1.97796">
        <ele>101.209682</ele>
        <time>2016-05-08T15:14:30Z</time>
      </trkpt>
      <trkpt lat="48.71472" lon="1.97795">
        <ele>101.619411</ele>
        <time>2016-05-08T15:14:31Z</time>
      </trkpt>
      <trkpt lat="48.71473" lon="1.97794">
        <ele>101.462734</ele>
        <time>2016-05-08T15:14:32Z</time>
      </trkpt>
      <trkpt lat="48.71473" lon="1.97793">
        <ele>101.401943</ele>
        <time>2016-05-08T15:14:33Z</time>
      </trkpt>
      <trkpt lat="48.71473" lon="1.97791">
        <ele>101.48373</ele>
        <time>2016-05-08T15:14:34Z</time>
      </trkpt>
      <trkpt lat="48.71474" lon="1.97789">
        <ele>101.11935</ele>
        <time>2016-05-08T15:14:35Z</time>
      </trkpt>
      <trkpt lat="48.71474" lon="1.97788">
        <ele>100.544094</ele>
        <time>2016-05-08T15:14:36Z</time>
      </trkpt>
      <trkpt lat="48.71474" lon="1.97787">
        <ele>101.142605</ele>
        <time>2016-05-08T15:14:37Z</time>
      </trkpt>
      <trkpt lat="48.71474" lon="1.97786">
        <ele>101.352139</ele>
        <time>2016-05-08T15:14:38Z</time>
      </trkpt>
      <trkpt lat="48.71474" lon="1.97785">
        <ele>101.519131</ele>
        <time>2016-05-08T15:14:39Z</time>
      </trkpt>
      <trkpt lat="48.71473" lon="1.97783">
        <ele>101.76852</ele>
        <time>2016-05-08T15:14:40Z</time>
      </trkpt>
      <trkpt lat="48.71473" lon="1.97781">
        <ele>101.854214</ele>
        <time>2016-05-08T15:14:41Z</time>
      </trkpt>
      <trkpt lat="48.71473" lon="1.9778">
        <ele>101.328518</ele>
        <time>2016-05-08T15:14:42Z</time>
      </trkpt>
      <trkpt lat="48.71473" lon="1.97779">
        <ele>101.096279</ele>
        <time>2016-05-08T15:14:43Z</time>
      </trkpt>
      <trkpt lat="48.71474" lon="1.97778">
        <ele>101.372707</ele>
        <time>2016-05-08T15:14:44Z</time>
      </trkpt>
      <trkpt lat="48.71474" lon="1.97777">
        <ele>101.849758</ele>
        <time>2016-05-08T15:14:45Z</time>
      </trkpt>
      <trkpt lat="48.71474" lon="1.97776">
        <ele>102.484402</ele>
        <time>2016-05-08T15:14:46Z</time>
      </trkpt>
      <trkpt lat="48.71474" lon="1.97775">
        <ele>102.812893</ele>
        <time>2016-05-08T15:14:47Z</time>
      </trkpt>
      <trkpt lat="48.71474" lon="1.97774">
        <ele>103.113613</ele>
        <time>2016-05-08T15:14:48Z</time>
      </trkpt>
      <trkpt lat="48.71474" lon="1.97773">
        <ele>103.41238</ele>
        <time>2016-05-08T15:14:49Z</time>
      </trkpt>
      <trkpt lat="48.71475" lon="1.97772">
        <ele>103.55685</ele>
        <time>2016-05-08T15:14:50Z</time>
      </trkpt>
      <trkpt lat="48.71476" lon="1.97771">
        <ele>103.708645</ele>
        <time>2016-05-08T15:14:51Z</time>
      </trkpt>
      <trkpt lat="48.71476" lon="1.9777">
        <ele>103.586514</ele>
        <time>2016-05-08T15:14:52Z</time>
      </trkpt>
      <trkpt lat="48.71476" lon="1.97768">
        <ele>103.766933</ele>
        <time>2016-05-08T15:14:53Z</time>
      </trkpt>
      <trkpt lat="48.71477" lon="1.97767">
        <ele>103.490627</ele>
        <time>2016-05-08T15:14:54Z</time>
      </trkpt>
      <trkpt lat="48.71477" lon="1.97766">
        <ele>102.956692</ele>
        <time>2016-05-08T15:14:55Z</time>
      </trkpt>
      <trkpt lat="48.71477" lon="1.97766">
        <ele>102.841213</ele>
        <time>2016-05-08T15:14:56Z</time>
      </trkpt>
      <trkpt lat="48.71476" lon="1.97765">
        <ele>102.655361</ele>
        <time>2016-05-08T15:14:57Z</time>
      </trkpt>
      <trkpt lat="48.71476" lon="1.97764">
        <ele>103.038357</ele>
        <time>2016-05-08T15:14:58Z</time>
      </trkpt>
      <trkpt lat="48.71476" lon="1.97763">
        <ele>102.958828</ele>
        <time>2016-05-08T15:14:59Z</time>
      </trkpt>
      <trkpt lat="48.71476" lon="1.97762">
        <ele>103.859402</ele>
        <time>2016-05-08T15:15:00Z</time>
      </trkpt>
      <trkpt lat="48.71477" lon="1.97762">
        <ele>103.908047</ele>
        <time>2016-05-08T15:15:01Z</time>
      </trkpt>
      <trkpt lat="48.71478" lon="1.97761">
        <ele>103.188137</ele>
        <time>2016-05-08T15:15:02Z</time>
      </trkpt>
      <trkpt lat="48.71479" lon="1.9776">
        <ele>102.72073</ele>
        <time>2016-05-08T15:15:03Z</time>
      </trkpt>
      <trkpt lat="48.7148" lon="1.97759">
        <ele>103.035732</ele>
        <time>2016-05-08T15:15:04Z</time>
      </trkpt>
      <trkpt lat="48.71481" lon="1.97758">
        <ele>103.1152</ele>
        <time>2016-05-08T15:15:05Z</time>
      </trkpt>
      <trkpt lat="48.71481" lon="1.97756">
        <ele>102.615078</ele>
        <time>2016-05-08T15:15:06Z</time>
      </trkpt>
      <trkpt lat="48.71482" lon="1.97755">
        <ele>103.308865</ele>
        <time>2016-05-08T15:15:07Z</time>
      </trkpt>
      <trkpt lat="48.71482" lon="1.97754">
        <ele>103.119534</ele>
        <time>2016-05-08T15:15:08Z</time>
      </trkpt>
      <trkpt lat="48.71483" lon="1.97753">
        <ele>103.160366</ele>
        <time>2016-05-08T15:15:09Z</time>
      </trkpt>
      <trkpt lat="48.71484" lon="1.97753">
        <ele>103.095669</ele>
        <time>2016-05-08T15:15:10Z</time>
      </trkpt>
      <trkpt lat="48.71484" lon="1.97753">
        <ele>102.860195</ele>
        <time>2016-05-08T15:15:11Z</time>
      </trkpt>
      <trkpt lat="48.71485" lon="1.97752">
        <ele>102.826626</ele>
        <time>2016-05-08T15:15:12Z</time>
      </trkpt>
      <trkpt lat="48.71485" lon="1.97751">
        <ele>102.697598</ele>
        <time>2016-05-08T15:15:13Z</time>
      </trkpt>
      <trkpt lat="48.71486" lon="1.9775">
        <ele>102.368435</ele>
        <time>2016-05-08T15:15:14Z</time>
      </trkpt>
      <trkpt lat="48.71486" lon="1.97748">
        <ele>102.605556</ele>
        <time>2016-05-08T15:15:15Z</time>
      </trkpt>
      <trkpt lat="48.71486" lon="1.97748">
        <ele>102.863247</ele>
        <time>2016-05-08T15:15:16Z</time>
      </trkpt>
      <trkpt lat="48.71486" lon="1.97747">
        <ele>103.152004</ele>
        <time>2016-05-08T15:15:17Z</time>
      </trkpt>
      <trkpt lat="48.71486" lon="1.97746">
        <ele>102.992641</ele>
        <time>2016-05-08T15:15:18Z</time>
      </trkpt>
      <trkpt lat="48.71486" lon="1.97746">
        <ele>102.818874</ele>
        <time>2016-05-08T15:15:19Z</time>
      </trkpt>
      <trkpt lat="48.71486" lon="1.97745">
        <ele>102.621487</ele>
        <time>2016-05-08T15:15:20Z</time>
      </trkpt>
      <trkpt lat="48.71486" lon="1.97745">
        <ele>103.109768</ele>
        <time>2016-05-08T15:15:21Z</time>
      </trkpt>
      <trkpt lat="48.71486" lon="1.97744">
        <ele>102.616665</ele>
        <time>2016-05-08T15:15:22Z</time>
      </trkpt>
      <trkpt lat="48.71486" lon="1.97743">
        <ele>103.147915</ele>
        <time>2016-05-08T15:15:23Z</time>
      </trkpt>
      <trkpt lat="48.71486" lon="1.97744">
        <ele>103.496609</ele>
        <time>2016-05-08T15:15:24Z</time>
      </trkpt>
      <trkpt lat="48.71486" lon="1.97744">
        <ele>103.733913</ele>
        <time>2016-05-08T15:15:25Z</time>
      </trkpt>
      <trkpt lat="48.71486" lon="1.97746">
        <ele>103.760036</ele>
        <time>2016-05-08T15:15:26Z</time>
      </trkpt>
      <trkpt lat="48.71486" lon="1.97748">
        <ele>103.682644</ele>
        <time>2016-05-08T15:15:27Z</time>
      </trkpt>
      <trkpt lat="48.71487" lon="1.97748">
        <ele>104.045376</ele>
        <time>2016-05-08T15:15:28Z</time>
      </trkpt>
      <trkpt lat="48.71487" lon="1.97748">
        <ele>104.075649</ele>
        <time>2016-05-08T15:15:29Z</time>
      </trkpt>
      <trkpt lat="48.71486" lon="1.97746">
        <ele>103.824062</ele>
        <time>2016-05-08T15:15:30Z</time>
      </trkpt>
      <trkpt lat="48.71486" lon="1.97744">
        <ele>104.022854</ele>
        <time>2016-05-08T15:15:31Z</time>
      </trkpt>
      <trkpt lat="48.71485" lon="1.97742">
        <ele>104.368801</ele>
        <time>2016-05-08T15:15:32Z</time>
      </trkpt>
      <trkpt lat="48.71485" lon="1.97741">
        <ele>104.74313</ele>
        <time>2016-05-08T15:15:33Z</time>
      </trkpt>
      <trkpt lat="48.71485" lon="1.97739">
        <ele>104.937588</ele>
        <time>2016-05-08T15:15:34Z</time>
      </trkpt>
      <trkpt lat="48.71485" lon="1.97737">
        <ele>104.39822</ele>
        <time>2016-05-08T15:15:35Z</time>
      </trkpt>
      <trkpt lat="48.71485" lon="1.97736">
        <ele>104.197842</ele>
        <time>2016-05-08T15:15:36Z</time>
      </trkpt>
      <trkpt lat="48.71485" lon="1.97736">
        <ele>104.226101</ele>
        <time>2016-05-08T15:15:37Z</time>
      </trkpt>
      <trkpt lat="48.71485" lon="1.97736">
        <ele>102.867153</ele>
        <time>2016-05-08T15:15:38Z</time>
      </trkpt>
      <trkpt lat="48.71486" lon="1.97734">
        <ele>102.931118</ele>
        <time>2016-05-08T15:15:39Z</time>
      </trkpt>
      <trkpt lat="48.71487" lon="1.97734">
        <ele>102.8923</ele>
        <time>2016-05-08T15:15:40Z</time>
      </trkpt>
      <trkpt lat="48.71487" lon="1.97733">
        <ele>103.010586</ele>
        <time>2016-05-08T15:15:41Z</time>
      </trkpt>
      <trkpt lat="48.71488" lon="1.97733">
        <ele>103.293667</ele>
        <time>2016-05-08T15:15:42Z</time>
      </trkpt>
      <trkpt lat="48.71488" lon="1.97733">
        <ele>102.74136</ele>
        <time>2016-05-08T15:15:43Z</time>
      </trkpt>
      <trkpt lat="48.71489" lon="1.97734">
        <ele>102.220242</ele>
        <time>2016-05-08T15:15:44Z</time>
      </trkpt>
      <trkpt lat="48.7149" lon="1.97734">
        <ele>102.118923</ele>
        <time>2016-05-08T15:15:45Z</time>
      </trkpt>
      <trkpt lat="48.7149" lon="1.97733">
        <ele>102.326809</ele>
        <time>2016-05-08T15:15:46Z</time>
      </trkpt>
      <trkpt lat="48.71491" lon="1.97733">
        <ele>102.480923</ele>
        <time>2016-05-08T15:15:47Z</time>
      </trkpt>
      <trkpt lat="48.71492" lon="1.97733">
        <ele>101.881313</ele>
        <time>2016-05-08T15:15:48Z</time>
      </trkpt>
      <trkpt lat="48.71492" lon="1.97732">
        <ele>101.807644</ele>
        <time>2016-05-08T15:15:49Z</time>
      </trkpt>
      <trkpt lat="48.71492" lon="1.97732">
        <ele>101.82864</ele>
        <time>2016-05-08T15:15:50Z</time>
      </trkpt>
      <trkpt lat="48.71493" lon="1.9773">
        <ele>102.200405</ele>
        <time>2016-05-08T15:15:51Z</time>
      </trkpt>
      <trkpt lat="48.71493" lon="1.97729">
        <ele>101.818935</ele>
        <time>2016-05-08T15:15:52Z</time>
      </trkpt>
      <trkpt lat="48.71493" lon="1.97727">
        <ele>101.304409</ele>
        <time>2016-05-08T15:15:53Z</time>
      </trkpt>
      <trkpt lat="48.71493" lon="1.97725">
        <ele>101.282925</ele>
        <time>2016-05-08T15:15:54Z</time>
      </trkpt>
      <trkpt lat="48.71494" lon="1.97724">
        <ele>101.541958</ele>
        <time>2016-05-08T15:15:55Z</time>
      </trkpt>
      <trkpt lat="48.71495" lon="1.97723">
        <ele>101.437466</ele>
        <time>2016-05-08T15:15:56Z</time>
      </trkpt>
      <trkpt lat="48.71496" lon="1.97723">
        <ele>101.482082</ele>
        <time>2016-05-08T15:15:57Z</time>
      </trkpt>
      <trkpt lat="48.71498" lon="1.97723">
        <ele>101.241726</ele>
        <time>2016-05-08T15:15:58Z</time>
      </trkpt>
      <trkpt lat="48.715" lon="1.97723">
        <ele>101.143642</ele>
        <time>2016-05-08T15:15:59Z</time>
      </trkpt>
      <trkpt lat="48.71501" lon="1.97723">
        <ele>100.954128</ele>
        <time>2016-05-08T15:16:00Z</time>
      </trkpt>
      <trkpt lat="48.71502" lon="1.97722">
        <ele>101.434475</ele>
        <time>2016-05-08T15:16:01Z</time>
      </trkpt>
      <trkpt lat="48.71503" lon="1.97722">
        <ele>101.279568</ele>
        <time>2016-05-08T15:16:02Z</time>
      </trkpt>
      <trkpt lat="48.71504" lon="1.97721">
        <ele>101.690212</ele>
        <time>2016-05-08T15:16:03Z</time>
      </trkpt>
      <trkpt lat="48.71505" lon="1.97721">
        <ele>101.739529</ele>
        <time>2016-05-08T15:16:04Z</time>
      </trkpt>
      <trkpt lat="48.71505" lon="1.9772">
        <ele>101.432644</ele>
        <time>2016-05-08T15:16:05Z</time>
      </trkpt>
      <trkpt lat="48.71506" lon="1.97719">
        <ele>102.018215</ele>
        <time>2016-05-08T15:16:06Z</time>
      </trkpt>
      <trkpt lat="48.71506" lon="1.97719">
        <ele>102.087856</ele>
        <time>2016-05-08T15:16:07Z</time>
      </trkpt>
      <trkpt lat="48.71506" lon="1.97719">
        <ele>101.777065</ele>
        <time>2016-05-08T15:16:08Z</time>
      </trkpt>
      <trkpt lat="48.71506" lon="1.97718">
        <ele>101.404507</ele>
        <time>2016-05-08T15:16:09Z</time>
      </trkpt>
      <trkpt lat="48.71507" lon="1.97717">
        <ele>101.426723</ele>
        <time>2016-05-08T15:16:10Z</time>
      </trkpt>
      <trkpt lat="48.71508" lon="1.97715">
        <ele>100.850063</ele>
        <time>2016-05-08T15:16:11Z</time>
      </trkpt>
      <trkpt lat="48.71509" lon="1.97714">
        <ele>100.749783</ele>
        <time>2016-05-08T15:16:12Z</time>
      </trkpt>
      <trkpt lat="48.7151" lon="1.97713">
        <ele>100.888332</ele>
        <time>2016-05-08T15:16:13Z</time>
      </trkpt>
      <trkpt lat="48.7151" lon="1.97712">
        <ele>101.104702</ele>
        <time>2016-05-08T15:16:14Z</time>
      </trkpt>
      <trkpt lat="48.7151" lon="1.9771">
        <ele>101.557644</ele>
        <time>2016-05-08T15:16:15Z</time>
      </trkpt>
      <trkpt lat="48.7151" lon="1.97708">
        <ele>101.727261</ele>
        <time>2016-05-08T15:16:16Z</time>
      </trkpt>
      <trkpt lat="48.7151" lon="1.97706">
        <ele>101.68301</ele>
        <time>2016-05-08T15:16:17Z</time>
      </trkpt>
      <trkpt lat="48.7151" lon="1.97705">
        <ele>102.301113</ele>
        <time>2016-05-08T15:16:18Z</time>
      </trkpt>
      <trkpt lat="48.7151" lon="1.97704">
        <ele>102.2626</ele>
        <time>2016-05-08T15:16:19Z</time>
      </trkpt>
      <trkpt lat="48.7151" lon="1.97702">
        <ele>101.515408</ele>
        <time>2016-05-08T15:16:20Z</time>
      </trkpt>
      <trkpt lat="48.71511" lon="1.97701">
        <ele>101.97897</ele>
        <time>2016-05-08T15:16:21Z</time>
      </trkpt>
      <trkpt lat="48.71511" lon="1.977">
        <ele>101.683315</ele>
        <time>2016-05-08T15:16:22Z</time>
      </trkpt>
      <trkpt lat="48.71512" lon="1.97698">
        <ele>102.109585</ele>
        <time>2016-05-08T15:16:23Z</time>
      </trkpt>
      <trkpt lat="48.71513" lon="1.97696">
        <ele>102.234768</ele>
        <time>2016-05-08T15:16:24Z</time>
      </trkpt>
      <trkpt lat="48.71514" lon="1.97695">
        <ele>102.419582</ele>
        <time>2016-05-08T15:16:25Z</time>
      </trkpt>
      <trkpt lat="48.71516" lon="1.97695">
        <ele>102.362453</ele>
        <time>2016-05-08T15:16:26Z</time>
      </trkpt>
      <trkpt lat="48.71518" lon="1.97696">
        <ele>102.8298</ele>
        <time>2016-05-08T15:16:27Z</time>
      </trkpt>
      <trkpt lat="48.71518" lon="1.97697">
        <ele>102.677151</ele>
        <time>2016-05-08T15:16:28Z</time>
      </trkpt>
      <trkpt lat="48.71519" lon="1.97698">
        <ele>102.720669</ele>
        <time>2016-05-08T15:16:29Z</time>
      </trkpt>
      <trkpt lat="48.7152" lon="1.97698">
        <ele>102.704311</ele>
        <time>2016-05-08T15:16:30Z</time>
      </trkpt>
      <trkpt lat="48.71521" lon="1.97699">
        <ele>102.748745</ele>
        <time>2016-05-08T15:16:31Z</time>
      </trkpt>
      <trkpt lat="48.7152" lon="1.97699">
        <ele>102.711269</ele>
        <time>2016-05-08T15:16:32Z</time>
      </trkpt>
      <trkpt lat="48.7152" lon="1.97699">
        <ele>102.790249</ele>
        <time>2016-05-08T15:16:33Z</time>
      </trkpt>
      <trkpt lat="48.7152" lon="1.97698">
        <ele>102.569302</ele>
        <time>2016-05-08T15:16:34Z</time>
      </trkpt>
      <trkpt lat="48.7152" lon="1.97698">
        <ele>102.624966</ele>
        <time>2016-05-08T15:16:35Z</time>
      </trkpt>
      <trkpt lat="48.7152" lon="1.97697">
        <ele>102.516384</ele>
        <time>2016-05-08T15:16:36Z</time>
      </trkpt>
      <trkpt lat="48.7152" lon="1.97697">
        <ele>102.523098</ele>
        <time>2016-05-08T15:16:37Z</time>
      </trkpt>
      <trkpt lat="48.7152" lon="1.97697">
        <ele>102.270107</ele>
        <time>2016-05-08T15:16:38Z</time>
      </trkpt>
      <trkpt lat="48.71521" lon="1.97698">
        <ele>102.321011</ele>
        <time>2016-05-08T15:16:39Z</time>
      </trkpt>
      <trkpt lat="48.71521" lon="1.97698">
        <ele>101.806606</ele>
        <time>2016-05-08T15:16:40Z</time>
      </trkpt>
      <trkpt lat="48.71521" lon="1.97698">
        <ele>101.63998</ele>
        <time>2016-05-08T15:16:41Z</time>
      </trkpt>
      <trkpt lat="48.7152" lon="1.97698">
        <ele>101.347683</ele>
        <time>2016-05-08T15:16:42Z</time>
      </trkpt>
      <trkpt lat="48.71519" lon="1.97698">
        <ele>101.29324</ele>
        <time>2016-05-08T15:16:43Z</time>
      </trkpt>
      <trkpt lat="48.71519" lon="1.97697">
        <ele>101.458706</ele>
        <time>2016-05-08T15:16:44Z</time>
      </trkpt>
      <trkpt lat="48.71518" lon="1.97695">
        <ele>101.962307</ele>
        <time>2016-05-08T15:16:45Z</time>
      </trkpt>
      <trkpt lat="48.71516" lon="1.97694">
        <ele>101.899014</ele>
        <time>2016-05-08T15:16:46Z</time>
      </trkpt>
      <trkpt lat="48.71515" lon="1.97693">
        <ele>102.459927</ele>
        <time>2016-05-08T15:16:47Z</time>
      </trkpt>
      <trkpt lat="48.71515" lon="1.97693">
        <ele>102.904812</ele>
        <time>2016-05-08T15:16:48Z</time>
      </trkpt>
      <trkpt lat="48.71515" lon="1.97693">
        <ele>102.778164</ele>
        <time>2016-05-08T15:16:49Z</time>
      </trkpt>
      <trkpt lat="48.71515" lon="1.97693">
        <ele>103.298733</ele>
        <time>2016-05-08T15:16:50Z</time>
      </trkpt>
      <trkpt lat="48.71515" lon="1.97691">
        <ele>103.324551</ele>
        <time>2016-05-08T15:16:51Z</time>
      </trkpt>
      <trkpt lat="48.71515" lon="1.9769">
        <ele>103.476345</ele>
        <time>2016-05-08T15:16:52Z</time>
      </trkpt>
      <trkpt lat="48.71515" lon="1.97689">
        <ele>103.461636</ele>
        <time>2016-05-08T15:16:53Z</time>
      </trkpt>
      <trkpt lat="48.71515" lon="1.97688">
        <ele>103.488491</ele>
        <time>2016-05-08T15:16:54Z</time>
      </trkpt>
      <trkpt lat="48.71515" lon="1.97687">
        <ele>103.740444</ele>
        <time>2016-05-08T15:16:55Z</time>
      </trkpt>
      <trkpt lat="48.71514" lon="1.97686">
        <ele>103.897121</ele>
        <time>2016-05-08T15:16:56Z</time>
      </trkpt>
      <trkpt lat="48.71514" lon="1.97685">
        <ele>104.124233</ele>
        <time>2016-05-08T15:16:57Z</time>
      </trkpt>
      <trkpt lat="48.71514" lon="1.97684">
        <ele>104.925808</ele>
        <time>2016-05-08T15:16:58Z</time>
      </trkpt>
      <trkpt lat="48.71515" lon="1.97683">
        <ele>105.289883</ele>
        <time>2016-05-08T15:16:59Z</time>
      </trkpt>
      <trkpt lat="48.71515" lon="1.97683">
        <ele>104.861599</ele>
        <time>2016-05-08T15:17:00Z</time>
      </trkpt>
      <trkpt lat="48.71516" lon="1.97682">
        <ele>104.390835</ele>
        <time>2016-05-08T15:17:01Z</time>
      </trkpt>
      <trkpt lat="48.71516" lon="1.97681">
        <ele>104.51614</ele>
        <time>2016-05-08T15:17:02Z</time>
      </trkpt>
      <trkpt lat="48.71516" lon="1.9768">
        <ele>103.994656</ele>
        <time>2016-05-08T15:17:03Z</time>
      </trkpt>
      <trkpt lat="48.71517" lon="1.9768">
        <ele>105.607082</ele>
        <time>2016-05-08T15:17:04Z</time>
      </trkpt>
      <trkpt lat="48.71517" lon="1.97679">
        <ele>105.363308</ele>
        <time>2016-05-08T15:17:05Z</time>
      </trkpt>
      <trkpt lat="48.71517" lon="1.9768">
        <ele>104.736294</ele>
        <time>2016-05-08T15:17:06Z</time>
      </trkpt>
      <trkpt lat="48.71518" lon="1.97679">
        <ele>104.686977</ele>
        <time>2016-05-08T15:17:07Z</time>
      </trkpt>
      <trkpt lat="48.71518" lon="1.97679">
        <ele>104.545376</ele>
        <time>2016-05-08T15:17:08Z</time>
      </trkpt>
      <trkpt lat="48.71518" lon="1.97677">
        <ele>103.711391</ele>
        <time>2016-05-08T15:17:09Z</time>
      </trkpt>
      <trkpt lat="48.71517" lon="1.97676">
        <ele>103.957729</ele>
        <time>2016-05-08T15:17:10Z</time>
      </trkpt>
      <trkpt lat="48.71517" lon="1.97674">
        <ele>103.993984</ele>
        <time>2016-05-08T15:17:11Z</time>
      </trkpt>
      <trkpt lat="48.71517" lon="1.97673">
        <ele>103.554836</ele>
        <time>2016-05-08T15:17:12Z</time>
      </trkpt>
      <trkpt lat="48.71517" lon="1.97672">
        <ele>104.127773</ele>
        <time>2016-05-08T15:17:13Z</time>
      </trkpt>
      <trkpt lat="48.71518" lon="1.97671">
        <ele>104.095425</ele>
        <time>2016-05-08T15:17:14Z</time>
      </trkpt>
      <trkpt lat="48.71518" lon="1.97671">
        <ele>104.112087</ele>
        <time>2016-05-08T15:17:15Z</time>
      </trkpt>
      <trkpt lat="48.71518" lon="1.9767">
        <ele>103.564053</ele>
        <time>2016-05-08T15:17:16Z</time>
      </trkpt>
      <trkpt lat="48.71518" lon="1.97668">
        <ele>103.770596</ele>
        <time>2016-05-08T15:17:17Z</time>
      </trkpt>
      <trkpt lat="48.71518" lon="1.97667">
        <ele>103.594204</ele>
        <time>2016-05-08T15:17:18Z</time>
      </trkpt>
      <trkpt lat="48.71518" lon="1.97666">
        <ele>103.599453</ele>
        <time>2016-05-08T15:17:19Z</time>
      </trkpt>
      <trkpt lat="48.71518" lon="1.97664">
        <ele>104.012295</ele>
        <time>2016-05-08T15:17:20Z</time>
      </trkpt>
      <trkpt lat="48.71518" lon="1.97662">
        <ele>104.43832</ele>
        <time>2016-05-08T15:17:21Z</time>
      </trkpt>
      <trkpt lat="48.71518" lon="1.97661">
        <ele>104.281582</ele>
        <time>2016-05-08T15:17:22Z</time>
      </trkpt>
      <trkpt lat="48.71518" lon="1.9766">
        <ele>104.390347</ele>
        <time>2016-05-08T15:17:23Z</time>
      </trkpt>
      <trkpt lat="48.71518" lon="1.9766">
        <ele>104.922085</ele>
        <time>2016-05-08T15:17:24Z</time>
      </trkpt>
      <trkpt lat="48.71519" lon="1.97659">
        <ele>104.583157</ele>
        <time>2016-05-08T15:17:25Z</time>
      </trkpt>
      <trkpt lat="48.71518" lon="1.97658">
        <ele>104.710842</ele>
        <time>2016-05-08T15:17:26Z</time>
      </trkpt>
      <trkpt lat="48.71518" lon="1.97658">
        <ele>105.533413</ele>
        <time>2016-05-08T15:17:27Z</time>
      </trkpt>
      <trkpt lat="48.71518" lon="1.97657">
        <ele>105.995754</ele>
        <time>2016-05-08T15:17:28Z</time>
      </trkpt>
      <trkpt lat="48.71518" lon="1.97657">
        <ele>106.168667</ele>
        <time>2016-05-08T15:17:29Z</time>
      </trkpt>
      <trkpt lat="48.71518" lon="1.97656">
        <ele>105.773891</ele>
        <time>2016-05-08T15:17:30Z</time>
      </trkpt>
      <trkpt lat="48.71518" lon="1.97655">
        <ele>105.497158</ele>
        <time>2016-05-08T15:17:31Z</time>
      </trkpt>
      <trkpt lat="48.71518" lon="1.97655">
        <ele>104.826626</ele>
        <time>2016-05-08T15:17:32Z</time>
      </trkpt>
      <trkpt lat="48.71518" lon="1.97654">
        <ele>104.398281</ele>
        <time>2016-05-08T15:17:33Z</time>
      </trkpt>
      <trkpt lat="48.71519" lon="1.97653">
        <ele>104.255032</ele>
        <time>2016-05-08T15:17:34Z</time>
      </trkpt>
      <trkpt lat="48.71519" lon="1.97651">
        <ele>104.4053</ele>
        <time>2016-05-08T15:17:35Z</time>
      </trkpt>
      <trkpt lat="48.71518" lon="1.9765">
        <ele>103.907681</ele>
        <time>2016-05-08T15:17:36Z</time>
      </trkpt>
      <trkpt lat="48.71518" lon="1.97648">
        <ele>103.068691</ele>
        <time>2016-05-08T15:17:37Z</time>
      </trkpt>
      <trkpt lat="48.71517" lon="1.97646">
        <ele>102.274014</ele>
        <time>2016-05-08T15:17:38Z</time>
      </trkpt>
      <trkpt lat="48.71516" lon="1.97644">
        <ele>102.430874</ele>
        <time>2016-05-08T15:17:39Z</time>
      </trkpt>
      <trkpt lat="48.71516" lon="1.97642">
        <ele>101.541103</ele>
        <time>2016-05-08T15:17:40Z</time>
      </trkpt>
      <trkpt lat="48.71516" lon="1.9764">
        <ele>101.835964</ele>
        <time>2016-05-08T15:17:41Z</time>
      </trkpt>
      <trkpt lat="48.71516" lon="1.97638">
        <ele>101.619595</ele>
        <time>2016-05-08T15:17:42Z</time>
      </trkpt>
      <trkpt lat="48.71516" lon="1.97637">
        <ele>101.11166</ele>
        <time>2016-05-08T15:17:43Z</time>
      </trkpt>
      <trkpt lat="48.71517" lon="1.97636">
        <ele>101.419521</ele>
        <time>2016-05-08T15:17:44Z</time>
      </trkpt>
      <trkpt lat="48.71517" lon="1.97635">
        <ele>101.853298</ele>
        <time>2016-05-08T15:17:45Z</time>
      </trkpt>
      <trkpt lat="48.71517" lon="1.97634">
        <ele>101.402493</ele>
        <time>2016-05-08T15:17:46Z</time>
      </trkpt>
      <trkpt lat="48.71518" lon="1.97634">
        <ele>101.471523</ele>
        <time>2016-05-08T15:17:47Z</time>
      </trkpt>
      <trkpt lat="48.71518" lon="1.97633">
        <ele>101.037868</ele>
        <time>2016-05-08T15:17:48Z</time>
      </trkpt>
      <trkpt lat="48.71519" lon="1.97633">
        <ele>101.088039</ele>
        <time>2016-05-08T15:17:49Z</time>
      </trkpt>
      <trkpt lat="48.71519" lon="1.97633">
        <ele>101.317348</ele>
        <time>2016-05-08T15:17:50Z</time>
      </trkpt>
      <trkpt lat="48.71519" lon="1.97633">
        <ele>101.250637</ele>
        <time>2016-05-08T15:17:51Z</time>
      </trkpt>
      <trkpt lat="48.71519" lon="1.97633">
        <ele>101.203457</ele>
        <time>2016-05-08T15:17:52Z</time>
      </trkpt>
      <trkpt lat="48.71519" lon="1.97633">
        <ele>101.370754</ele>
        <time>2016-05-08T15:17:53Z</time>
      </trkpt>
      <trkpt lat="48.71519" lon="1.97634">
        <ele>100.205166</ele>
        <time>2016-05-08T15:17:54Z</time>
      </trkpt>
      <trkpt lat="48.71519" lon="1.97634">
        <ele>100.707546</ele>
        <time>2016-05-08T15:17:55Z</time>
      </trkpt>
      <trkpt lat="48.7152" lon="1.97634">
        <ele>101.103603</ele>
        <time>2016-05-08T15:17:56Z</time>
      </trkpt>
      <trkpt lat="48.7152" lon="1.97634">
        <ele>101.311001</ele>
        <time>2016-05-08T15:17:57Z</time>
      </trkpt>
      <trkpt lat="48.71521" lon="1.97634">
        <ele>100.843288</ele>
        <time>2016-05-08T15:17:58Z</time>
      </trkpt>
      <trkpt lat="48.71522" lon="1.97634">
        <ele>100.133999</ele>
        <time>2016-05-08T15:17:59Z</time>
      </trkpt>
      <trkpt lat="48.71522" lon="1.97635">
        <ele>100.923</ele>
        <time>2016-05-08T15:18:00Z</time>
      </trkpt>
      <trkpt lat="48.71523" lon="1.97636">
        <ele>101.742275</ele>
        <time>2016-05-08T15:18:01Z</time>
      </trkpt>
      <trkpt lat="48.71524" lon="1.97636">
        <ele>101.385952</ele>
        <time>2016-05-08T15:18:02Z</time>
      </trkpt>
      <trkpt lat="48.71525" lon="1.97636">
        <ele>101.20956</ele>
        <time>2016-05-08T15:18:03Z</time>
      </trkpt>
      <trkpt lat="48.71526" lon="1.97635">
        <ele>100.943142</ele>
        <time>2016-05-08T15:18:04Z</time>
      </trkpt>
      <trkpt lat="48.71526" lon="1.97634">
        <ele>101.36166</ele>
        <time>2016-05-08T15:18:05Z</time>
      </trkpt>
      <trkpt lat="48.71527" lon="1.97633">
        <ele>101.599636</ele>
        <time>2016-05-08T15:18:06Z</time>
      </trkpt>
      <trkpt lat="48.71527" lon="1.97632">
        <ele>101.719021</ele>
        <time>2016-05-08T15:18:07Z</time>
      </trkpt>
      <trkpt lat="48.71528" lon="1.97631">
        <ele>101.035183</ele>
        <time>2016-05-08T15:18:08Z</time>
      </trkpt>
      <trkpt lat="48.71528" lon="1.97631">
        <ele>101.276699</ele>
        <time>2016-05-08T15:18:09Z</time>
      </trkpt>
      <trkpt lat="48.7153" lon="1.9763">
        <ele>100.831814</ele>
        <time>2016-05-08T15:18:10Z</time>
      </trkpt>
      <trkpt lat="48.71531" lon="1.9763">
        <ele>101.236111</ele>
        <time>2016-05-08T15:18:11Z</time>
      </trkpt>
      <trkpt lat="48.71531" lon="1.97629">
        <ele>101.976162</ele>
        <time>2016-05-08T15:18:12Z</time>
      </trkpt>
      <trkpt lat="48.71531" lon="1.97629">
        <ele>102.444363</ele>
        <time>2016-05-08T15:18:13Z</time>
      </trkpt>
      <trkpt lat="48.71531" lon="1.97628">
        <ele>101.446133</ele>
        <time>2016-05-08T15:18:14Z</time>
      </trkpt>
      <trkpt lat="48.71531" lon="1.97627">
        <ele>100.961269</ele>
        <time>2016-05-08T15:18:15Z</time>
      </trkpt>
      <trkpt lat="48.71532" lon="1.97626">
        <ele>100.730434</ele>
        <time>2016-05-08T15:18:16Z</time>
      </trkpt>
      <trkpt lat="48.71533" lon="1.97626">
        <ele>102.004726</ele>
        <time>2016-05-08T15:18:17Z</time>
      </trkpt>
      <trkpt lat="48.71534" lon="1.97625">
        <ele>101.706387</ele>
        <time>2016-05-08T15:18:18Z</time>
      </trkpt>
      <trkpt lat="48.71535" lon="1.97625">
        <ele>101.669155</ele>
        <time>2016-05-08T15:18:19Z</time>
      </trkpt>
      <trkpt lat="48.71536" lon="1.97624">
        <ele>101.53561</ele>
        <time>2016-05-08T15:18:20Z</time>
      </trkpt>
      <trkpt lat="48.71537" lon="1.97623">
        <ele>101.648037</ele>
        <time>2016-05-08T15:18:21Z</time>
      </trkpt>
      <trkpt lat="48.71537" lon="1.97623">
        <ele>102.057827</ele>
        <time>2016-05-08T15:18:22Z</time>
      </trkpt>
      <trkpt lat="48.71538" lon="1.97622">
        <ele>102.757168</ele>
        <time>2016-05-08T15:18:23Z</time>
      </trkpt>
      <trkpt lat="48.71539" lon="1.97621">
        <ele>102.431728</ele>
        <time>2016-05-08T15:18:24Z</time>
      </trkpt>
      <trkpt lat="48.71539" lon="1.9762">
        <ele>102.367092</ele>
        <time>2016-05-08T15:18:25Z</time>
      </trkpt>
      <trkpt lat="48.7154" lon="1.9762">
        <ele>102.810146</ele>
        <time>2016-05-08T15:18:26Z</time>
      </trkpt>
      <trkpt lat="48.7154" lon="1.9762">
        <ele>103.040371</ele>
        <time>2016-05-08T15:18:27Z</time>
      </trkpt>
      <trkpt lat="48.71541" lon="1.9762">
        <ele>103.285854</ele>
        <time>2016-05-08T15:18:28Z</time>
      </trkpt>
      <trkpt lat="48.71542" lon="1.9762">
        <ele>103.666958</ele>
        <time>2016-05-08T15:18:29Z</time>
      </trkpt>
      <trkpt lat="48.71542" lon="1.97619">
        <ele>103.67593</ele>
        <time>2016-05-08T15:18:30Z</time>
      </trkpt>
      <trkpt lat="48.71542" lon="1.97619">
        <ele>103.606411</ele>
        <time>2016-05-08T15:18:31Z</time>
      </trkpt>
      <trkpt lat="48.71543" lon="1.97618">
        <ele>104.399563</ele>
        <time>2016-05-08T15:18:32Z</time>
      </trkpt>
      <trkpt lat="48.71543" lon="1.97617">
        <ele>104.540188</ele>
        <time>2016-05-08T15:18:33Z</time>
      </trkpt>
      <trkpt lat="48.71543" lon="1.97616">
        <ele>104.418423</ele>
        <time>2016-05-08T15:18:34Z</time>
      </trkpt>
      <trkpt lat="48.71543" lon="1.97615">
        <ele>105.392727</ele>
        <time>2016-05-08T15:18:35Z</time>
      </trkpt>
      <trkpt lat="48.71543" lon="1.97613">
        <ele>105.148647</ele>
        <time>2016-05-08T15:18:36Z</time>
      </trkpt>
      <trkpt lat="48.71543" lon="1.97612">
        <ele>105.143887</ele>
        <time>2016-05-08T15:18:37Z</time>
      </trkpt>
      <trkpt lat="48.71542" lon="1.97612">
        <ele>105.01614</ele>
        <time>2016-05-08T15:18:38Z</time>
      </trkpt>
      <trkpt lat="48.71542" lon="1.97612">
        <ele>104.63229</ele>
        <time>2016-05-08T15:18:39Z</time>
      </trkpt>
      <trkpt lat="48.71542" lon="1.97612">
        <ele>103.969631</ele>
        <time>2016-05-08T15:18:40Z</time>
      </trkpt>
      <trkpt lat="48.71542" lon="1.97612">
        <ele>104.029995</ele>
        <time>2016-05-08T15:18:41Z</time>
      </trkpt>
      <trkpt lat="48.71542" lon="1.97612">
        <ele>103.881618</ele>
        <time>2016-05-08T15:18:42Z</time>
      </trkpt>
      <trkpt lat="48.71543" lon="1.97611">
        <ele>103.931301</ele>
        <time>2016-05-08T15:18:43Z</time>
      </trkpt>
      <trkpt lat="48.71544" lon="1.97609">
        <ele>103.777554</ele>
        <time>2016-05-08T15:18:45Z</time>
      </trkpt>
      <trkpt lat="48.71544" lon="1.97608">
        <ele>103.910244</ele>
        <time>2016-05-08T15:18:46Z</time>
      </trkpt>
      <trkpt lat="48.71544" lon="1.97607">
        <ele>103.478481</ele>
        <time>2016-05-08T15:18:47Z</time>
      </trkpt>
      <trkpt lat="48.71544" lon="1.97606">
        <ele>102.858974</ele>
        <time>2016-05-08T15:18:48Z</time>
      </trkpt>
      <trkpt lat="48.71544" lon="1.97605">
        <ele>103.456936</ele>
        <time>2016-05-08T15:18:49Z</time>
      </trkpt>
      <trkpt lat="48.71544" lon="1.97604">
        <ele>103.576626</ele>
        <time>2016-05-08T15:18:50Z</time>
      </trkpt>
      <trkpt lat="48.71543" lon="1.97604">
        <ele>103.65646</ele>
        <time>2016-05-08T15:18:51Z</time>
      </trkpt>
      <trkpt lat="48.71544" lon="1.97604">
        <ele>103.717068</ele>
        <time>2016-05-08T15:18:52Z</time>
      </trkpt>
      <trkpt lat="48.71544" lon="1.97604">
        <ele>103.629299</ele>
        <time>2016-05-08T15:18:53Z</time>
      </trkpt>
      <trkpt lat="48.71544" lon="1.97604">
        <ele>103.265896</ele>
        <time>2016-05-08T15:18:54Z</time>
      </trkpt>
      <trkpt lat="48.71544" lon="1.97605">
        <ele>103.934414</ele>
        <time>2016-05-08T15:18:55Z</time>
      </trkpt>
      <trkpt lat="48.71545" lon="1.97606">
        <ele>104.047878</ele>
        <time>2016-05-08T15:18:56Z</time>
      </trkpt>
      <trkpt lat="48.71545" lon="1.97606">
        <ele>103.853481</ele>
        <time>2016-05-08T15:18:57Z</time>
      </trkpt>
      <trkpt lat="48.71546" lon="1.97606">
        <ele>103.280605</ele>
        <time>2016-05-08T15:18:58Z</time>
      </trkpt>
      <trkpt lat="48.71546" lon="1.97605">
        <ele>102.710842</ele>
        <time>2016-05-08T15:18:59Z</time>
      </trkpt>
      <trkpt lat="48.71547" lon="1.97604">
        <ele>103.142483</ele>
        <time>2016-05-08T15:19:00Z</time>
      </trkpt>
      <trkpt lat="48.71547" lon="1.97603">
        <ele>103.312344</ele>
        <time>2016-05-08T15:19:01Z</time>
      </trkpt>
      <trkpt lat="48.71548" lon="1.97601">
        <ele>102.766689</ele>
        <time>2016-05-08T15:19:02Z</time>
      </trkpt>
      <trkpt lat="48.71549" lon="1.97601">
        <ele>102.541531</ele>
        <time>2016-05-08T15:19:03Z</time>
      </trkpt>
      <trkpt lat="48.7155" lon="1.976">
        <ele>102.348232</ele>
        <time>2016-05-08T15:19:04Z</time>
      </trkpt>
      <trkpt lat="48.71551" lon="1.976">
        <ele>103.118313</ele>
        <time>2016-05-08T15:19:05Z</time>
      </trkpt>
      <trkpt lat="48.71551" lon="1.976">
        <ele>103.426479</ele>
        <time>2016-05-08T15:19:06Z</time>
      </trkpt>
      <trkpt lat="48.71551" lon="1.97599">
        <ele>103.649807</ele>
        <time>2016-05-08T15:19:07Z</time>
      </trkpt>
      <trkpt lat="48.71551" lon="1.97599">
        <ele>103.744961</ele>
        <time>2016-05-08T15:19:08Z</time>
      </trkpt>
      <trkpt lat="48.71551" lon="1.97598">
        <ele>104.04501</ele>
        <time>2016-05-08T15:19:09Z</time>
      </trkpt>
      <trkpt lat="48.71551" lon="1.97598">
        <ele>103.73019</ele>
        <time>2016-05-08T15:19:10Z</time>
      </trkpt>
      <trkpt lat="48.71551" lon="1.97596">
        <ele>103.446804</ele>
        <time>2016-05-08T15:19:11Z</time>
      </trkpt>
      <trkpt lat="48.71551" lon="1.97595">
        <ele>103.863491</ele>
        <time>2016-05-08T15:19:12Z</time>
      </trkpt>
      <trkpt lat="48.71552" lon="1.97595">
        <ele>103.334316</ele>
        <time>2016-05-08T15:19:13Z</time>
      </trkpt>
      <trkpt lat="48.71552" lon="1.97594">
        <ele>103.638515</ele>
        <time>2016-05-08T15:19:14Z</time>
      </trkpt>
      <trkpt lat="48.71553" lon="1.97594">
        <ele>104.060024</ele>
        <time>2016-05-08T15:19:15Z</time>
      </trkpt>
      <trkpt lat="48.71554" lon="1.97593">
        <ele>104.421535</ele>
        <time>2016-05-08T15:19:16Z</time>
      </trkpt>
      <trkpt lat="48.71554" lon="1.97592">
        <ele>104.566677</ele>
        <time>2016-05-08T15:19:17Z</time>
      </trkpt>
      <trkpt lat="48.71555" lon="1.9759">
        <ele>104.77499</ele>
        <time>2016-05-08T15:19:18Z</time>
      </trkpt>
      <trkpt lat="48.71556" lon="1.97588">
        <ele>104.222866</ele>
        <time>2016-05-08T15:19:19Z</time>
      </trkpt>
      <trkpt lat="48.71556" lon="1.97586">
        <ele>104.716885</ele>
        <time>2016-05-08T15:19:20Z</time>
      </trkpt>
      <trkpt lat="48.71557" lon="1.97584">
        <ele>104.566799</ele>
        <time>2016-05-08T15:19:21Z</time>
      </trkpt>
      <trkpt lat="48.71558" lon="1.97581">
        <ele>104.884121</ele>
        <time>2016-05-08T15:19:22Z</time>
      </trkpt>
      <trkpt lat="48.71558" lon="1.97579">
        <ele>104.434353</ele>
        <time>2016-05-08T15:19:23Z</time>
      </trkpt>
      <trkpt lat="48.71558" lon="1.97577">
        <ele>104.422695</ele>
        <time>2016-05-08T15:19:24Z</time>
      </trkpt>
      <trkpt lat="48.71557" lon="1.97576">
        <ele>104.297207</ele>
        <time>2016-05-08T15:19:25Z</time>
      </trkpt>
      <trkpt lat="48.71558" lon="1.97575">
        <ele>103.92062</ele>
        <time>2016-05-08T15:19:26Z</time>
      </trkpt>
      <trkpt lat="48.71558" lon="1.97574">
        <ele>104.170864</ele>
        <time>2016-05-08T15:19:27Z</time>
      </trkpt>
      <trkpt lat="48.71558" lon="1.97574">
        <ele>104.22073</ele>
        <time>2016-05-08T15:19:28Z</time>
      </trkpt>
      <trkpt lat="48.71558" lon="1.97573">
        <ele>104.401882</ele>
        <time>2016-05-08T15:19:29Z</time>
      </trkpt>
      <trkpt lat="48.71559" lon="1.97572">
        <ele>103.520901</ele>
        <time>2016-05-08T15:19:30Z</time>
      </trkpt>
      <trkpt lat="48.71559" lon="1.97572">
        <ele>103.063992</ele>
        <time>2016-05-08T15:19:31Z</time>
      </trkpt>
      <trkpt lat="48.71559" lon="1.97571">
        <ele>103.082546</ele>
        <time>2016-05-08T15:19:32Z</time>
      </trkpt>
      <trkpt lat="48.71559" lon="1.97569">
        <ele>103.01376</ele>
        <time>2016-05-08T15:19:33Z</time>
      </trkpt>
      <trkpt lat="48.7156" lon="1.97568">
        <ele>103.53677</ele>
        <time>2016-05-08T15:19:34Z</time>
      </trkpt>
      <trkpt lat="48.7156" lon="1.97566">
        <ele>103.137539</ele>
        <time>2016-05-08T15:19:35Z</time>
      </trkpt>
      <trkpt lat="48.71561" lon="1.97564">
        <ele>102.538052</ele>
        <time>2016-05-08T15:19:36Z</time>
      </trkpt>
      <trkpt lat="48.71562" lon="1.97561">
        <ele>101.209072</ele>
        <time>2016-05-08T15:19:37Z</time>
      </trkpt>
      <trkpt lat="48.71562" lon="1.97559">
        <ele>101.187099</ele>
        <time>2016-05-08T15:19:38Z</time>
      </trkpt>
      <trkpt lat="48.71563" lon="1.97557">
        <ele>101.707912</ele>
        <time>2016-05-08T15:19:39Z</time>
      </trkpt>
      <trkpt lat="48.71564" lon="1.97554">
        <ele>101.885036</ele>
        <time>2016-05-08T15:19:40Z</time>
      </trkpt>
      <trkpt lat="48.71564" lon="1.97554">
        <ele>101.902065</ele>
        <time>2016-05-08T15:19:41Z</time>
      </trkpt>
      <trkpt lat="48.71565" lon="1.97552">
        <ele>102.432766</ele>
        <time>2016-05-08T15:19:42Z</time>
      </trkpt>
      <trkpt lat="48.71566" lon="1.97552">
        <ele>102.404263</ele>
        <time>2016-05-08T15:19:43Z</time>
      </trkpt>
      <trkpt lat="48.71566" lon="1.97551">
        <ele>102.047573</ele>
        <time>2016-05-08T15:19:44Z</time>
      </trkpt>
      <trkpt lat="48.71567" lon="1.97551">
        <ele>102.376369</ele>
        <time>2016-05-08T15:19:45Z</time>
      </trkpt>
      <trkpt lat="48.71568" lon="1.9755">
        <ele>103.211575</ele>
        <time>2016-05-08T15:19:46Z</time>
      </trkpt>
      <trkpt lat="48.71568" lon="1.9755">
        <ele>103.326748</ele>
        <time>2016-05-08T15:19:47Z</time>
      </trkpt>
      <trkpt lat="48.71569" lon="1.97549">
        <ele>103.480679</ele>
        <time>2016-05-08T15:19:48Z</time>
      </trkpt>
      <trkpt lat="48.71569" lon="1.97548">
        <ele>103.990261</ele>
        <time>2016-05-08T15:19:49Z</time>
      </trkpt>
      <trkpt lat="48.7157" lon="1.97546">
        <ele>103.232082</ele>
        <time>2016-05-08T15:19:50Z</time>
      </trkpt>
      <trkpt lat="48.7157" lon="1.97545">
        <ele>104.205776</ele>
        <time>2016-05-08T15:19:51Z</time>
      </trkpt>
      <trkpt lat="48.71571" lon="1.97543">
        <ele>105.341824</ele>
        <time>2016-05-08T15:19:52Z</time>
      </trkpt>
      <trkpt lat="48.71571" lon="1.97542">
        <ele>104.688442</ele>
        <time>2016-05-08T15:19:53Z</time>
      </trkpt>
      <trkpt lat="48.71571" lon="1.97541">
        <ele>104.712734</ele>
        <time>2016-05-08T15:19:54Z</time>
      </trkpt>
      <trkpt lat="48.71572" lon="1.9754">
        <ele>104.421597</ele>
        <time>2016-05-08T15:19:55Z</time>
      </trkpt>
      <trkpt lat="48.71572" lon="1.97539">
        <ele>104.248745</ele>
        <time>2016-05-08T15:19:56Z</time>
      </trkpt>
      <trkpt lat="48.71573" lon="1.97538">
        <ele>104.482632</ele>
        <time>2016-05-08T15:19:57Z</time>
      </trkpt>
      <trkpt lat="48.71573" lon="1.97537">
        <ele>104.164639</ele>
        <time>2016-05-08T15:19:58Z</time>
      </trkpt>
      <trkpt lat="48.71574" lon="1.97536">
        <ele>104.012722</ele>
        <time>2016-05-08T15:19:59Z</time>
      </trkpt>
      <trkpt lat="48.71574" lon="1.97535">
        <ele>104.771816</ele>
        <time>2016-05-08T15:20:00Z</time>
      </trkpt>
      <trkpt lat="48.71574" lon="1.97534">
        <ele>104.64938</ele>
        <time>2016-05-08T15:20:01Z</time>
      </trkpt>
      <trkpt lat="48.71575" lon="1.97534">
        <ele>104.824551</ele>
        <time>2016-05-08T15:20:02Z</time>
      </trkpt>
      <trkpt lat="48.71575" lon="1.97534">
        <ele>105.263027</ele>
        <time>2016-05-08T15:20:03Z</time>
      </trkpt>
      <trkpt lat="48.71576" lon="1.97534">
        <ele>105.874355</ele>
        <time>2016-05-08T15:20:04Z</time>
      </trkpt>
      <trkpt lat="48.71577" lon="1.97534">
        <ele>104.048122</ele>
        <time>2016-05-08T15:20:05Z</time>
      </trkpt>
      <trkpt lat="48.71578" lon="1.97534">
        <ele>104.633755</ele>
        <time>2016-05-08T15:20:06Z</time>
      </trkpt>
      <trkpt lat="48.71578" lon="1.97534">
        <ele>104.054287</ele>
        <time>2016-05-08T15:20:07Z</time>
      </trkpt>
      <trkpt lat="48.71579" lon="1.97534">
        <ele>103.955837</ele>
        <time>2016-05-08T15:20:08Z</time>
      </trkpt>
      <trkpt lat="48.7158" lon="1.97533">
        <ele>103.814907</ele>
        <time>2016-05-08T15:20:09Z</time>
      </trkpt>
      <trkpt lat="48.7158" lon="1.97532">
        <ele>104.26022</ele>
        <time>2016-05-08T15:20:10Z</time>
      </trkpt>
      <trkpt lat="48.71581" lon="1.97531">
        <ele>105.26199</ele>
        <time>2016-05-08T15:20:11Z</time>
      </trkpt>
      <trkpt lat="48.71582" lon="1.9753">
        <ele>106.041225</ele>
        <time>2016-05-08T15:20:12Z</time>
      </trkpt>
      <trkpt lat="48.71583" lon="1.97529">
        <ele>106.076687</ele>
        <time>2016-05-08T15:20:13Z</time>
      </trkpt>
      <trkpt lat="48.71583" lon="1.97528">
        <ele>106.219448</ele>
        <time>2016-05-08T15:20:14Z</time>
      </trkpt>
      <trkpt lat="48.71584" lon="1.97527">
        <ele>106.002407</ele>
        <time>2016-05-08T15:20:15Z</time>
      </trkpt>
      <trkpt lat="48.71584" lon="1.97527">
        <ele>105.894375</ele>
        <time>2016-05-08T15:20:16Z</time>
      </trkpt>
      <trkpt lat="48.71584" lon="1.97526">
        <ele>105.980923</ele>
        <time>2016-05-08T15:20:17Z</time>
      </trkpt>
      <trkpt lat="48.71584" lon="1.97525">
        <ele>104.58865</ele>
        <time>2016-05-08T15:20:18Z</time>
      </trkpt>
      <trkpt lat="48.71585" lon="1.97524">
        <ele>104.844509</ele>
        <time>2016-05-08T15:20:19Z</time>
      </trkpt>
      <trkpt lat="48.71586" lon="1.97523">
        <ele>105.235195</ele>
        <time>2016-05-08T15:20:20Z</time>
      </trkpt>
      <trkpt lat="48.71587" lon="1.97521">
        <ele>105.002041</ele>
        <time>2016-05-08T15:20:21Z</time>
      </trkpt>
      <trkpt lat="48.71587" lon="1.9752">
        <ele>105.733791</ele>
        <time>2016-05-08T15:20:22Z</time>
      </trkpt>
      <trkpt lat="48.71588" lon="1.97518">
        <ele>104.524502</ele>
        <time>2016-05-08T15:20:23Z</time>
      </trkpt>
      <trkpt lat="48.71589" lon="1.97517">
        <ele>103.761318</ele>
        <time>2016-05-08T15:20:24Z</time>
      </trkpt>
      <trkpt lat="48.71589" lon="1.97516">
        <ele>105.324551</ele>
        <time>2016-05-08T15:20:25Z</time>
      </trkpt>
      <trkpt lat="48.7159" lon="1.97514">
        <ele>106.240261</ele>
        <time>2016-05-08T15:20:26Z</time>
      </trkpt>
      <trkpt lat="48.7159" lon="1.97512">
        <ele>106.589199</ele>
        <time>2016-05-08T15:20:27Z</time>
      </trkpt>
      <trkpt lat="48.7159" lon="1.9751">
        <ele>105.822598</ele>
        <time>2016-05-08T15:20:28Z</time>
      </trkpt>
      <trkpt lat="48.71591" lon="1.97507">
        <ele>106.819729</ele>
        <time>2016-05-08T15:20:29Z</time>
      </trkpt>
      <trkpt lat="48.71591" lon="1.97505">
        <ele>106.69949</ele>
        <time>2016-05-08T15:20:30Z</time>
      </trkpt>
      <trkpt lat="48.71591" lon="1.97504">
        <ele>106.288723</ele>
        <time>2016-05-08T15:20:31Z</time>
      </trkpt>
      <trkpt lat="48.71591" lon="1.97503">
        <ele>106.260036</ele>
        <time>2016-05-08T15:20:32Z</time>
      </trkpt>
      <trkpt lat="48.71592" lon="1.97503">
        <ele>106.159267</ele>
        <time>2016-05-08T15:20:33Z</time>
      </trkpt>
      <trkpt lat="48.71593" lon="1.97502">
        <ele>106.01321</ele>
        <time>2016-05-08T15:20:34Z</time>
      </trkpt>
      <trkpt lat="48.71593" lon="1.97501">
        <ele>106.030972</ele>
        <time>2016-05-08T15:20:35Z</time>
      </trkpt>
      <trkpt lat="48.71594" lon="1.975">
        <ele>106.483547</ele>
        <time>2016-05-08T15:20:36Z</time>
      </trkpt>
      <trkpt lat="48.71595" lon="1.97499">
        <ele>106.078701</ele>
        <time>2016-05-08T15:20:37Z</time>
      </trkpt>
      <trkpt lat="48.71595" lon="1.97498">
        <ele>105.588345</ele>
        <time>2016-05-08T15:20:38Z</time>
      </trkpt>
      <trkpt lat="48.71596" lon="1.97497">
        <ele>105.229336</ele>
        <time>2016-05-08T15:20:39Z</time>
      </trkpt>
      <trkpt lat="48.71597" lon="1.97496">
        <ele>105.978481</ele>
        <time>2016-05-08T15:20:40Z</time>
      </trkpt>
      <trkpt lat="48.71597" lon="1.97495">
        <ele>105.976284</ele>
        <time>2016-05-08T15:20:41Z</time>
      </trkpt>
      <trkpt lat="48.71598" lon="1.97493">
        <ele>105.648159</ele>
        <time>2016-05-08T15:20:42Z</time>
      </trkpt>
      <trkpt lat="48.71599" lon="1.97492">
        <ele>106.035244</ele>
        <time>2016-05-08T15:20:43Z</time>
      </trkpt>
      <trkpt lat="48.71599" lon="1.9749">
        <ele>105.830898</ele>
        <time>2016-05-08T15:20:44Z</time>
      </trkpt>
      <trkpt lat="48.71599" lon="1.97488">
        <ele>106.012783</ele>
        <time>2016-05-08T15:20:45Z</time>
      </trkpt>
      <trkpt lat="48.716" lon="1.97487">
        <ele>105.718777</ele>
        <time>2016-05-08T15:20:46Z</time>
      </trkpt>
      <trkpt lat="48.71601" lon="1.97488">
        <ele>105.357754</ele>
        <time>2016-05-08T15:20:47Z</time>
      </trkpt>
      <trkpt lat="48.71601" lon="1.97488">
        <ele>106.564724</ele>
        <time>2016-05-08T15:20:48Z</time>
      </trkpt>
      <trkpt lat="48.71602" lon="1.97487">
        <ele>106.446743</ele>
        <time>2016-05-08T15:20:49Z</time>
      </trkpt>
      <trkpt lat="48.71603" lon="1.97486">
        <ele>106.902676</ele>
        <time>2016-05-08T15:20:50Z</time>
      </trkpt>
      <trkpt lat="48.71604" lon="1.97486">
        <ele>106.038174</ele>
        <time>2016-05-08T15:20:51Z</time>
      </trkpt>
      <trkpt lat="48.71605" lon="1.97485">
        <ele>105.770107</ele>
        <time>2016-05-08T15:20:52Z</time>
      </trkpt>
      <trkpt lat="48.71606" lon="1.97485">
        <ele>105.361477</ele>
        <time>2016-05-08T15:20:53Z</time>
      </trkpt>
      <trkpt lat="48.71607" lon="1.97485">
        <ele>104.585903</ele>
        <time>2016-05-08T15:20:54Z</time>
      </trkpt>
      <trkpt lat="48.71608" lon="1.97484">
        <ele>104.818874</ele>
        <time>2016-05-08T15:20:55Z</time>
      </trkpt>
      <trkpt lat="48.7161" lon="1.97484">
        <ele>105.062771</ele>
        <time>2016-05-08T15:20:56Z</time>
      </trkpt>
      <trkpt lat="48.7161" lon="1.97484">
        <ele>104.710903</ele>
        <time>2016-05-08T15:20:57Z</time>
      </trkpt>
      <trkpt lat="48.71611" lon="1.97484">
        <ele>105.146633</ele>
        <time>2016-05-08T15:20:58Z</time>
      </trkpt>
      <trkpt lat="48.71612" lon="1.97484">
        <ele>105.387417</ele>
        <time>2016-05-08T15:20:59Z</time>
      </trkpt>
      <trkpt lat="48.71613" lon="1.97484">
        <ele>105.376125</ele>
        <time>2016-05-08T15:21:00Z</time>
      </trkpt>
      <trkpt lat="48.71614" lon="1.97484">
        <ele>105.209316</ele>
        <time>2016-05-08T15:21:01Z</time>
      </trkpt>
      <trkpt lat="48.71615" lon="1.97483">
        <ele>104.869595</ele>
        <time>2016-05-08T15:21:02Z</time>
      </trkpt>
      <trkpt lat="48.71616" lon="1.97483">
        <ele>104.574306</ele>
        <time>2016-05-08T15:21:03Z</time>
      </trkpt>
      <trkpt lat="48.71617" lon="1.97483">
        <ele>104.410915</ele>
        <time>2016-05-08T15:21:04Z</time>
      </trkpt>
      <trkpt lat="48.71618" lon="1.97482">
        <ele>104.606777</ele>
        <time>2016-05-08T15:21:05Z</time>
      </trkpt>
      <trkpt lat="48.71619" lon="1.97481">
        <ele>105.42532</ele>
        <time>2016-05-08T15:21:06Z</time>
      </trkpt>
      <trkpt lat="48.7162" lon="1.9748">
        <ele>106.087734</ele>
        <time>2016-05-08T15:21:07Z</time>
      </trkpt>
      <trkpt lat="48.7162" lon="1.9748">
        <ele>105.939968</ele>
        <time>2016-05-08T15:21:08Z</time>
      </trkpt>
      <trkpt lat="48.71621" lon="1.9748">
        <ele>106.626797</ele>
        <time>2016-05-08T15:21:09Z</time>
      </trkpt>
      <trkpt lat="48.71622" lon="1.9748">
        <ele>106.848232</ele>
        <time>2016-05-08T15:21:10Z</time>
      </trkpt>
      <trkpt lat="48.71622" lon="1.9748">
        <ele>105.970181</ele>
        <time>2016-05-08T15:21:11Z</time>
      </trkpt>
      <trkpt lat="48.71623" lon="1.97479">
        <ele>105.784267</ele>
        <time>2016-05-08T15:21:12Z</time>
      </trkpt>
      <trkpt lat="48.71623" lon="1.97478">
        <ele>105.718044</ele>
        <time>2016-05-08T15:21:13Z</time>
      </trkpt>
      <trkpt lat="48.71623" lon="1.97476">
        <ele>105.756985</ele>
        <time>2016-05-08T15:21:14Z</time>
      </trkpt>
      <trkpt lat="48.71623" lon="1.97474">
        <ele>106.353725</ele>
        <time>2016-05-08T15:21:15Z</time>
      </trkpt>
      <trkpt lat="48.71623" lon="1.97472">
        <ele>107.24789</ele>
        <time>2016-05-08T15:21:16Z</time>
      </trkpt>
      <trkpt lat="48.71624" lon="1.97471">
        <ele>107.563625</ele>
        <time>2016-05-08T15:21:17Z</time>
      </trkpt>
      <trkpt lat="48.71624" lon="1.9747">
        <ele>107.511623</ele>
        <time>2016-05-08T15:21:18Z</time>
      </trkpt>
      <trkpt lat="48.71624" lon="1.9747">
        <ele>107.167202</ele>
        <time>2016-05-08T15:21:19Z</time>
      </trkpt>
      <trkpt lat="48.71624" lon="1.97469">
        <ele>106.633877</ele>
        <time>2016-05-08T15:21:20Z</time>
      </trkpt>
      <trkpt lat="48.71624" lon="1.97469">
        <ele>106.462368</ele>
        <time>2016-05-08T15:21:21Z</time>
      </trkpt>
      <trkpt lat="48.71624" lon="1.97469">
        <ele>106.144802</ele>
        <time>2016-05-08T15:21:22Z</time>
      </trkpt>
      <trkpt lat="48.71625" lon="1.97467">
        <ele>105.950283</ele>
        <time>2016-05-08T15:21:23Z</time>
      </trkpt>
      <trkpt lat="48.71625" lon="1.97465">
        <ele>106.006496</ele>
        <time>2016-05-08T15:21:24Z</time>
      </trkpt>
      <trkpt lat="48.71625" lon="1.97463">
        <ele>105.66177</ele>
        <time>2016-05-08T15:21:25Z</time>
      </trkpt>
      <trkpt lat="48.71625" lon="1.97461">
        <ele>105.859463</ele>
        <time>2016-05-08T15:21:26Z</time>
      </trkpt>
      <trkpt lat="48.71625" lon="1.97459">
        <ele>106.816494</ele>
        <time>2016-05-08T15:21:27Z</time>
      </trkpt>
      <trkpt lat="48.71626" lon="1.97458">
        <ele>106.155605</ele>
        <time>2016-05-08T15:21:28Z</time>
      </trkpt>
      <trkpt lat="48.71626" lon="1.97458">
        <ele>106.383389</ele>
        <time>2016-05-08T15:21:29Z</time>
      </trkpt>
      <trkpt lat="48.71626" lon="1.97458">
        <ele>106.752346</ele>
        <time>2016-05-08T15:21:30Z</time>
      </trkpt>
      <trkpt lat="48.71626" lon="1.97458">
        <ele>106.554592</ele>
        <time>2016-05-08T15:21:31Z</time>
      </trkpt>
      <trkpt lat="48.71627" lon="1.97455">
        <ele>105.869717</ele>
        <time>2016-05-08T15:21:32Z</time>
      </trkpt>
      <trkpt lat="48.71627" lon="1.97454">
        <ele>105.888332</ele>
        <time>2016-05-08T15:21:33Z</time>
      </trkpt>
      <trkpt lat="48.71628" lon="1.97453">
        <ele>105.685635</ele>
        <time>2016-05-08T15:21:34Z</time>
      </trkpt>
      <trkpt lat="48.71629" lon="1.97452">
        <ele>105.710049</ele>
        <time>2016-05-08T15:21:35Z</time>
      </trkpt>
      <trkpt lat="48.7163" lon="1.97451">
        <ele>105.813198</ele>
        <time>2016-05-08T15:21:36Z</time>
      </trkpt>
      <trkpt lat="48.71632" lon="1.9745">
        <ele>105.706997</ele>
        <time>2016-05-08T15:21:37Z</time>
      </trkpt>
      <trkpt lat="48.71633" lon="1.97448">
        <ele>105.790432</ele>
        <time>2016-05-08T15:21:38Z</time>
      </trkpt>
      <trkpt lat="48.71634" lon="1.97447">
        <ele>105.809353</ele>
        <time>2016-05-08T15:21:39Z</time>
      </trkpt>
      <trkpt lat="48.71636" lon="1.97446">
        <ele>105.977505</ele>
        <time>2016-05-08T15:21:40Z</time>
      </trkpt>
      <trkpt lat="48.71637" lon="1.97445">
        <ele>105.66415</ele>
        <time>2016-05-08T15:21:41Z</time>
      </trkpt>
      <trkpt lat="48.71638" lon="1.97444">
        <ele>106.001003</ele>
        <time>2016-05-08T15:21:42Z</time>
      </trkpt>
      <trkpt lat="48.71639" lon="1.97442">
        <ele>105.314175</ele>
        <time>2016-05-08T15:21:43Z</time>
      </trkpt>
      <trkpt lat="48.71639" lon="1.97441">
        <ele>104.904446</ele>
        <time>2016-05-08T15:21:44Z</time>
      </trkpt>
      <trkpt lat="48.71641" lon="1.9744">
        <ele>105.480434</ele>
        <time>2016-05-08T15:21:45Z</time>
      </trkpt>
      <trkpt lat="48.71641" lon="1.97439">
        <ele>105.344143</ele>
        <time>2016-05-08T15:21:46Z</time>
      </trkpt>
      <trkpt lat="48.71641" lon="1.97439">
        <ele>105.493435</ele>
        <time>2016-05-08T15:21:47Z</time>
      </trkpt>
      <trkpt lat="48.71641" lon="1.97438">
        <ele>105.631435</ele>
        <time>2016-05-08T15:21:48Z</time>
      </trkpt>
      <trkpt lat="48.71641" lon="1.97437">
        <ele>105.562954</ele>
        <time>2016-05-08T15:21:49Z</time>
      </trkpt>
      <trkpt lat="48.71642" lon="1.97437">
        <ele>105.935329</ele>
        <time>2016-05-08T15:21:50Z</time>
      </trkpt>
      <trkpt lat="48.71643" lon="1.97437">
        <ele>106.011562</ele>
        <time>2016-05-08T15:21:51Z</time>
      </trkpt>
      <trkpt lat="48.71643" lon="1.97437">
        <ele>106.216091</ele>
        <time>2016-05-08T15:21:52Z</time>
      </trkpt>
      <trkpt lat="48.71644" lon="1.97437">
        <ele>106.312099</ele>
        <time>2016-05-08T15:21:53Z</time>
      </trkpt>
      <trkpt lat="48.71644" lon="1.97437">
        <ele>106.676785</ele>
        <time>2016-05-08T15:21:54Z</time>
      </trkpt>
      <trkpt lat="48.71644" lon="1.97437">
        <ele>106.888393</ele>
        <time>2016-05-08T15:21:55Z</time>
      </trkpt>
      <trkpt lat="48.71644" lon="1.97436">
        <ele>106.594143</ele>
        <time>2016-05-08T15:21:56Z</time>
      </trkpt>
      <trkpt lat="48.71643" lon="1.97436">
        <ele>106.884304</ele>
        <time>2016-05-08T15:21:57Z</time>
      </trkpt>
      <trkpt lat="48.71643" lon="1.97434">
        <ele>107.007046</ele>
        <time>2016-05-08T15:21:58Z</time>
      </trkpt>
      <trkpt lat="48.71643" lon="1.97433">
        <ele>107.123135</ele>
        <time>2016-05-08T15:21:59Z</time>
      </trkpt>
      <trkpt lat="48.71643" lon="1.97432">
        <ele>107.150417</ele>
        <time>2016-05-08T15:22:00Z</time>
      </trkpt>
      <trkpt lat="48.71643" lon="1.97432">
        <ele>106.907192</ele>
        <time>2016-05-08T15:22:01Z</time>
      </trkpt>
      <trkpt lat="48.71643" lon="1.97432">
        <ele>106.566433</ele>
        <time>2016-05-08T15:22:02Z</time>
      </trkpt>
      <trkpt lat="48.71645" lon="1.97432">
        <ele>106.612392</ele>
        <time>2016-05-08T15:22:03Z</time>
      </trkpt>
      <trkpt lat="48.71646" lon="1.97432">
        <ele>106.629421</ele>
        <time>2016-05-08T15:22:04Z</time>
      </trkpt>
      <trkpt lat="48.71647" lon="1.97432">
        <ele>107.152737</ele>
        <time>2016-05-08T15:22:05Z</time>
      </trkpt>
      <trkpt lat="48.71647" lon="1.97432">
        <ele>107.965237</ele>
        <time>2016-05-08T15:22:06Z</time>
      </trkpt>
      <trkpt lat="48.71648" lon="1.97432">
        <ele>108.066189</ele>
        <time>2016-05-08T15:22:07Z</time>
      </trkpt>
      <trkpt lat="48.71649" lon="1.97431">
        <ele>108.533413</ele>
        <time>2016-05-08T15:22:08Z</time>
      </trkpt>
      <trkpt lat="48.71651" lon="1.97431">
        <ele>108.105679</ele>
        <time>2016-05-08T15:22:09Z</time>
      </trkpt>
      <trkpt lat="48.71652" lon="1.97432">
        <ele>107.755642</ele>
        <time>2016-05-08T15:22:10Z</time>
      </trkpt>
      <trkpt lat="48.71653" lon="1.97432">
        <ele>107.913052</ele>
        <time>2016-05-08T15:22:11Z</time>
      </trkpt>
      <trkpt lat="48.71654" lon="1.97432">
        <ele>109.071499</ele>
        <time>2016-05-08T15:22:12Z</time>
      </trkpt>
      <trkpt lat="48.71655" lon="1.97431">
        <ele>109.576077</ele>
        <time>2016-05-08T15:22:13Z</time>
      </trkpt>
      <trkpt lat="48.71655" lon="1.9743">
        <ele>110.291286</ele>
        <time>2016-05-08T15:22:14Z</time>
      </trkpt>
      <trkpt lat="48.71656" lon="1.9743">
        <ele>109.602139</ele>
        <time>2016-05-08T15:22:15Z</time>
      </trkpt>
      <trkpt lat="48.71656" lon="1.9743">
        <ele>109.25668</ele>
        <time>2016-05-08T15:22:16Z</time>
      </trkpt>
      <trkpt lat="48.71657" lon="1.9743">
        <ele>109.954494</ele>
        <time>2016-05-08T15:22:17Z</time>
      </trkpt>
      <trkpt lat="48.71657" lon="1.9743">
        <ele>109.881496</ele>
        <time>2016-05-08T15:22:18Z</time>
      </trkpt>
      <trkpt lat="48.71658" lon="1.97432">
        <ele>110.50375</ele>
        <time>2016-05-08T15:22:19Z</time>
      </trkpt>
      <trkpt lat="48.71658" lon="1.97432">
        <ele>110.156094</ele>
        <time>2016-05-08T15:22:20Z</time>
      </trkpt>
      <trkpt lat="48.71658" lon="1.97432">
        <ele>110.149319</ele>
        <time>2016-05-08T15:22:21Z</time>
      </trkpt>
      <trkpt lat="48.71658" lon="1.97432">
        <ele>110.145473</ele>
        <time>2016-05-08T15:22:22Z</time>
      </trkpt>
      <trkpt lat="48.71658" lon="1.97432">
        <ele>110.154568</ele>
        <time>2016-05-08T15:22:23Z</time>
      </trkpt>
      <trkpt lat="48.71658" lon="1.97432">
        <ele>110.157192</ele>
        <time>2016-05-08T15:22:24Z</time>
      </trkpt>
      <trkpt lat="48.71658" lon="1.97432">
        <ele>110.155666</ele>
        <time>2016-05-08T15:22:25Z</time>
      </trkpt>
      <trkpt lat="48.71658" lon="1.97432">
        <ele>110.153408</ele>
        <time>2016-05-08T15:22:26Z</time>
      </trkpt>
      <trkpt lat="48.71659" lon="1.97433">
        <ele>110.470974</ele>
        <time>2016-05-08T15:22:27Z</time>
      </trkpt>
      <trkpt lat="48.71658" lon="1.97434">
        <ele>110.577969</ele>
        <time>2016-05-08T15:22:28Z</time>
      </trkpt>
      <trkpt lat="48.71658" lon="1.97434">
        <ele>110.390835</ele>
        <time>2016-05-08T15:22:29Z</time>
      </trkpt>
      <trkpt lat="48.71658" lon="1.97435">
        <ele>110.894863</ele>
        <time>2016-05-08T15:22:30Z</time>
      </trkpt>
      <trkpt lat="48.71659" lon="1.97436">
        <ele>110.395046</ele>
        <time>2016-05-08T15:22:31Z</time>
      </trkpt>
      <trkpt lat="48.71661" lon="1.97437">
        <ele>110.154446</ele>
        <time>2016-05-08T15:22:32Z</time>
      </trkpt>
      <trkpt lat="48.71662" lon="1.97438">
        <ele>110.537563</ele>
        <time>2016-05-08T15:22:33Z</time>
      </trkpt>
      <trkpt lat="48.71664" lon="1.97439">
        <ele>110.521816</ele>
        <time>2016-05-08T15:22:34Z</time>
      </trkpt>
      <trkpt lat="48.71665" lon="1.9744">
        <ele>109.490566</ele>
        <time>2016-05-08T15:22:35Z</time>
      </trkpt>
      <trkpt lat="48.71667" lon="1.9744">
        <ele>109.257229</ele>
        <time>2016-05-08T15:22:36Z</time>
      </trkpt>
      <trkpt lat="48.71667" lon="1.9744">
        <ele>108.971767</ele>
        <time>2016-05-08T15:22:37Z</time>
      </trkpt>
      <trkpt lat="48.71667" lon="1.9744">
        <ele>108.86935</ele>
        <time>2016-05-08T15:22:38Z</time>
      </trkpt>
      <trkpt lat="48.71667" lon="1.9744">
        <ele>109.059292</ele>
        <time>2016-05-08T15:22:39Z</time>
      </trkpt>
      <trkpt lat="48.71667" lon="1.9744">
        <ele>108.462795</ele>
        <time>2016-05-08T15:22:40Z</time>
      </trkpt>
      <trkpt lat="48.71667" lon="1.9744">
        <ele>108.068447</ele>
        <time>2016-05-08T15:22:41Z</time>
      </trkpt>
      <trkpt lat="48.71667" lon="1.9744">
        <ele>107.987759</ele>
        <time>2016-05-08T15:22:42Z</time>
      </trkpt>
      <trkpt lat="48.71667" lon="1.9744">
        <ele>107.730129</ele>
        <time>2016-05-08T15:22:43Z</time>
      </trkpt>
      <trkpt lat="48.71667" lon="1.9744">
        <ele>106.818691</ele>
        <time>2016-05-08T15:22:44Z</time>
      </trkpt>
      <trkpt lat="48.71671" lon="1.97439">
        <ele>106.047085</ele>
        <time>2016-05-08T15:22:45Z</time>
      </trkpt>
      <trkpt lat="48.71672" lon="1.97438">
        <ele>106.461697</ele>
        <time>2016-05-08T15:22:46Z</time>
      </trkpt>
      <trkpt lat="48.71672" lon="1.97437">
        <ele>106.49667</ele>
        <time>2016-05-08T15:22:47Z</time>
      </trkpt>
      <trkpt lat="48.71672" lon="1.97436">
        <ele>105.820644</ele>
        <time>2016-05-08T15:22:48Z</time>
      </trkpt>
      <trkpt lat="48.71672" lon="1.97434">
        <ele>105.690151</ele>
        <time>2016-05-08T15:22:49Z</time>
      </trkpt>
      <trkpt lat="48.71671" lon="1.97433">
        <ele>105.733974</ele>
        <time>2016-05-08T15:22:50Z</time>
      </trkpt>
      <trkpt lat="48.7167" lon="1.97432">
        <ele>106.48019</ele>
        <time>2016-05-08T15:22:51Z</time>
      </trkpt>
      <trkpt lat="48.71669" lon="1.9743">
        <ele>106.627407</ele>
        <time>2016-05-08T15:22:52Z</time>
      </trkpt>
      <trkpt lat="48.71668" lon="1.97429">
        <ele>107.39706</ele>
        <time>2016-05-08T15:22:53Z</time>
      </trkpt>
      <trkpt lat="48.71667" lon="1.97428">
        <ele>107.938076</ele>
        <time>2016-05-08T15:22:54Z</time>
      </trkpt>
      <trkpt lat="48.71666" lon="1.97428">
        <ele>109.124599</ele>
        <time>2016-05-08T15:22:55Z</time>
      </trkpt>
      <trkpt lat="48.71666" lon="1.97427">
        <ele>110.096767</ele>
        <time>2016-05-08T15:22:56Z</time>
      </trkpt>
      <trkpt lat="48.71665" lon="1.97426">
        <ele>110.653042</ele>
        <time>2016-05-08T15:22:57Z</time>
      </trkpt>
      <trkpt lat="48.71664" lon="1.97426">
        <ele>111.063686</ele>
        <time>2016-05-08T15:22:58Z</time>
      </trkpt>
      <trkpt lat="48.71663" lon="1.97426">
        <ele>110.998257</ele>
        <time>2016-05-08T15:22:59Z</time>
      </trkpt>
      <trkpt lat="48.71663" lon="1.97426">
        <ele>112.087612</ele>
        <time>2016-05-08T15:23:00Z</time>
      </trkpt>
      <trkpt lat="48.71662" lon="1.97425">
        <ele>112.091518</ele>
        <time>2016-05-08T15:23:01Z</time>
      </trkpt>
      <trkpt lat="48.71661" lon="1.97425">
        <ele>113.436001</ele>
        <time>2016-05-08T15:23:02Z</time>
      </trkpt>
      <trkpt lat="48.7166" lon="1.97424">
        <ele>113.426052</ele>
        <time>2016-05-08T15:23:03Z</time>
      </trkpt>
      <trkpt lat="48.71659" lon="1.97423">
        <ele>113.65115</ele>
        <time>2016-05-08T15:23:04Z</time>
      </trkpt>
      <trkpt lat="48.71657" lon="1.97421">
        <ele>113.762295</ele>
        <time>2016-05-08T15:23:05Z</time>
      </trkpt>
      <trkpt lat="48.71657" lon="1.9742">
        <ele>112.93478</ele>
        <time>2016-05-08T15:23:06Z</time>
      </trkpt>
      <trkpt lat="48.71657" lon="1.97418">
        <ele>112.247768</ele>
        <time>2016-05-08T15:23:07Z</time>
      </trkpt>
      <trkpt lat="48.71656" lon="1.97416">
        <ele>112.070461</ele>
        <time>2016-05-08T15:23:08Z</time>
      </trkpt>
      <trkpt lat="48.71656" lon="1.97414">
        <ele>111.467678</ele>
        <time>2016-05-08T15:23:09Z</time>
      </trkpt>
      <trkpt lat="48.71656" lon="1.97412">
        <ele>109.93301</ele>
        <time>2016-05-08T15:23:10Z</time>
      </trkpt>
      <trkpt lat="48.71656" lon="1.97411">
        <ele>107.081875</ele>
        <time>2016-05-08T15:23:11Z</time>
      </trkpt>
      <trkpt lat="48.71656" lon="1.9741">
        <ele>106.411587</ele>
        <time>2016-05-08T15:23:12Z</time>
      </trkpt>
      <trkpt lat="48.71657" lon="1.97408">
        <ele>105.348843</ele>
        <time>2016-05-08T15:23:13Z</time>
      </trkpt>
      <trkpt lat="48.71657" lon="1.97407">
        <ele>105.361782</ele>
        <time>2016-05-08T15:23:14Z</time>
      </trkpt>
      <trkpt lat="48.71658" lon="1.97405">
        <ele>103.899014</ele>
        <time>2016-05-08T15:23:15Z</time>
      </trkpt>
      <trkpt lat="48.71658" lon="1.97404">
        <ele>104.80685</ele>
        <time>2016-05-08T15:23:16Z</time>
      </trkpt>
      <trkpt lat="48.71659" lon="1.97402">
        <ele>104.608486</ele>
        <time>2016-05-08T15:23:17Z</time>
      </trkpt>
      <trkpt lat="48.71659" lon="1.97401">
        <ele>104.372036</ele>
        <time>2016-05-08T15:23:18Z</time>
      </trkpt>
      <trkpt lat="48.71659" lon="1.974">
        <ele>104.628017</ele>
        <time>2016-05-08T15:23:19Z</time>
      </trkpt>
      <trkpt lat="48.71659" lon="1.97399">
        <ele>105.333706</ele>
        <time>2016-05-08T15:23:20Z</time>
      </trkpt>
      <trkpt lat="48.71659" lon="1.97398">
        <ele>105.976955</ele>
        <time>2016-05-08T15:23:21Z</time>
      </trkpt>
      <trkpt lat="48.7166" lon="1.97397">
        <ele>104.665737</ele>
        <time>2016-05-08T15:23:22Z</time>
      </trkpt>
      <trkpt lat="48.7166" lon="1.97396">
        <ele>104.964809</ele>
        <time>2016-05-08T15:23:23Z</time>
      </trkpt>
      <trkpt lat="48.7166" lon="1.97395">
        <ele>103.988308</ele>
        <time>2016-05-08T15:23:24Z</time>
      </trkpt>
      <trkpt lat="48.7166" lon="1.97393">
        <ele>105.137722</ele>
        <time>2016-05-08T15:23:25Z</time>
      </trkpt>
      <trkpt lat="48.7166" lon="1.97391">
        <ele>105.775417</ele>
        <time>2016-05-08T15:23:26Z</time>
      </trkpt>
      <trkpt lat="48.71661" lon="1.97389">
        <ele>104.907925</ele>
        <time>2016-05-08T15:23:27Z</time>
      </trkpt>
      <trkpt lat="48.71661" lon="1.97387">
        <ele>103.552395</ele>
        <time>2016-05-08T15:23:28Z</time>
      </trkpt>
      <trkpt lat="48.71662" lon="1.97385">
        <ele>103.866909</ele>
        <time>2016-05-08T15:23:29Z</time>
      </trkpt>
      <trkpt lat="48.71662" lon="1.97383">
        <ele>103.882229</ele>
        <time>2016-05-08T15:23:30Z</time>
      </trkpt>
      <trkpt lat="48.71663" lon="1.97381">
        <ele>104.258694</ele>
        <time>2016-05-08T15:23:31Z</time>
      </trkpt>
      <trkpt lat="48.71663" lon="1.97379">
        <ele>104.45126</ele>
        <time>2016-05-08T15:23:32Z</time>
      </trkpt>
      <trkpt lat="48.71663" lon="1.97378">
        <ele>104.91824</ele>
        <time>2016-05-08T15:23:33Z</time>
      </trkpt>
      <trkpt lat="48.71663" lon="1.97376">
        <ele>105.207485</ele>
        <time>2016-05-08T15:23:34Z</time>
      </trkpt>
      <trkpt lat="48.71663" lon="1.97375">
        <ele>105.254726</ele>
        <time>2016-05-08T15:23:35Z</time>
      </trkpt>
      <trkpt lat="48.71663" lon="1.97373">
        <ele>104.865566</ele>
        <time>2016-05-08T15:23:36Z</time>
      </trkpt>
      <trkpt lat="48.71664" lon="1.97372">
        <ele>105.076992</ele>
        <time>2016-05-08T15:23:37Z</time>
      </trkpt>
      <trkpt lat="48.71664" lon="1.9737">
        <ele>104.640163</ele>
        <time>2016-05-08T15:23:38Z</time>
      </trkpt>
      <trkpt lat="48.71665" lon="1.97369">
        <ele>104.036709</ele>
        <time>2016-05-08T15:23:39Z</time>
      </trkpt>
      <trkpt lat="48.71666" lon="1.97368">
        <ele>104.670437</ele>
        <time>2016-05-08T15:23:40Z</time>
      </trkpt>
      <trkpt lat="48.71667" lon="1.97367">
        <ele>104.417934</ele>
        <time>2016-05-08T15:23:41Z</time>
      </trkpt>
      <trkpt lat="48.71667" lon="1.97366">
        <ele>105.406216</ele>
        <time>2016-05-08T15:23:42Z</time>
      </trkpt>
      <trkpt lat="48.71668" lon="1.97365">
        <ele>106.110928</ele>
        <time>2016-05-08T15:23:43Z</time>
      </trkpt>
      <trkpt lat="48.71668" lon="1.97364">
        <ele>106.20303</ele>
        <time>2016-05-08T15:23:44Z</time>
      </trkpt>
      <trkpt lat="48.71669" lon="1.97363">
        <ele>106.544521</ele>
        <time>2016-05-08T15:23:45Z</time>
      </trkpt>
      <trkpt lat="48.7167" lon="1.97361">
        <ele>107.04031</ele>
        <time>2016-05-08T15:23:46Z</time>
      </trkpt>
      <trkpt lat="48.71671" lon="1.9736">
        <ele>106.30862</ele>
        <time>2016-05-08T15:23:47Z</time>
      </trkpt>
      <trkpt lat="48.71671" lon="1.97359">
        <ele>105.54269</ele>
        <time>2016-05-08T15:23:48Z</time>
      </trkpt>
      <trkpt lat="48.71671" lon="1.97359">
        <ele>105.283901</ele>
        <time>2016-05-08T15:23:49Z</time>
      </trkpt>
      <trkpt lat="48.71672" lon="1.97358">
        <ele>105.651394</ele>
        <time>2016-05-08T15:23:50Z</time>
      </trkpt>
      <trkpt lat="48.71672" lon="1.97358">
        <ele>105.677029</ele>
        <time>2016-05-08T15:23:51Z</time>
      </trkpt>
      <trkpt lat="48.71672" lon="1.97358">
        <ele>106.525051</ele>
        <time>2016-05-08T15:23:52Z</time>
      </trkpt>
      <trkpt lat="48.71672" lon="1.97357">
        <ele>107.566433</ele>
        <time>2016-05-08T15:23:53Z</time>
      </trkpt>
      <trkpt lat="48.71672" lon="1.97357">
        <ele>107.813931</ele>
        <time>2016-05-08T15:23:54Z</time>
      </trkpt>
      <trkpt lat="48.71672" lon="1.97355">
        <ele>107.977505</ele>
        <time>2016-05-08T15:23:55Z</time>
      </trkpt>
      <trkpt lat="48.71672" lon="1.97354">
        <ele>107.886684</ele>
        <time>2016-05-08T15:23:56Z</time>
      </trkpt>
      <trkpt lat="48.71672" lon="1.97352">
        <ele>107.829922</ele>
        <time>2016-05-08T15:23:57Z</time>
      </trkpt>
      <trkpt lat="48.71672" lon="1.9735">
        <ele>108.196621</ele>
        <time>2016-05-08T15:23:58Z</time>
      </trkpt>
      <trkpt lat="48.71672" lon="1.97349">
        <ele>108.24081</ele>
        <time>2016-05-08T15:23:59Z</time>
      </trkpt>
      <trkpt lat="48.71672" lon="1.97347">
        <ele>108.570156</ele>
        <time>2016-05-08T15:24:00Z</time>
      </trkpt>
      <trkpt lat="48.71673" lon="1.97346">
        <ele>108.925625</ele>
        <time>2016-05-08T15:24:01Z</time>
      </trkpt>
      <trkpt lat="48.71673" lon="1.97345">
        <ele>108.938992</ele>
        <time>2016-05-08T15:24:02Z</time>
      </trkpt>
      <trkpt lat="48.71673" lon="1.97345">
        <ele>109.447292</ele>
        <time>2016-05-08T15:24:03Z</time>
      </trkpt>
      <trkpt lat="48.71674" lon="1.97343">
        <ele>109.083218</ele>
        <time>2016-05-08T15:24:04Z</time>
      </trkpt>
      <trkpt lat="48.71674" lon="1.97342">
        <ele>109.197964</ele>
        <time>2016-05-08T15:24:05Z</time>
      </trkpt>
      <trkpt lat="48.71674" lon="1.97341">
        <ele>109.086697</ele>
        <time>2016-05-08T15:24:06Z</time>
      </trkpt>
      <trkpt lat="48.71674" lon="1.97339">
        <ele>109.907131</ele>
        <time>2016-05-08T15:24:07Z</time>
      </trkpt>
      <trkpt lat="48.71674" lon="1.97338">
        <ele>109.854885</ele>
        <time>2016-05-08T15:24:08Z</time>
      </trkpt>
      <trkpt lat="48.71674" lon="1.97337">
        <ele>109.985928</ele>
        <time>2016-05-08T15:24:09Z</time>
      </trkpt>
      <trkpt lat="48.71674" lon="1.97334">
        <ele>109.569912</ele>
        <time>2016-05-08T15:24:10Z</time>
      </trkpt>
      <trkpt lat="48.71674" lon="1.97332">
        <ele>109.594997</ele>
        <time>2016-05-08T15:24:11Z</time>
      </trkpt>
      <trkpt lat="48.71674" lon="1.97329">
        <ele>110.07272</ele>
        <time>2016-05-08T15:24:12Z</time>
      </trkpt>
      <trkpt lat="48.71673" lon="1.97327">
        <ele>109.298794</ele>
        <time>2016-05-08T15:24:13Z</time>
      </trkpt>
      <trkpt lat="48.71674" lon="1.97324">
        <ele>108.936611</ele>
        <time>2016-05-08T15:24:14Z</time>
      </trkpt>
      <trkpt lat="48.71674" lon="1.97323">
        <ele>108.947964</ele>
        <time>2016-05-08T15:24:15Z</time>
      </trkpt>
      <trkpt lat="48.71675" lon="1.97321">
        <ele>108.637051</ele>
        <time>2016-05-08T15:24:16Z</time>
      </trkpt>
      <trkpt lat="48.71677" lon="1.9732">
        <ele>108.0798</ele>
        <time>2016-05-08T15:24:17Z</time>
      </trkpt>
      <trkpt lat="48.71679" lon="1.97319">
        <ele>107.669399</ele>
        <time>2016-05-08T15:24:18Z</time>
      </trkpt>
      <trkpt lat="48.71681" lon="1.97318">
        <ele>107.208401</ele>
        <time>2016-05-08T15:24:19Z</time>
      </trkpt>
      <trkpt lat="48.71683" lon="1.97318">
        <ele>107.565334</ele>
        <time>2016-05-08T15:24:20Z</time>
      </trkpt>
      <trkpt lat="48.71684" lon="1.97317">
        <ele>107.425381</ele>
        <time>2016-05-08T15:24:21Z</time>
      </trkpt>
      <trkpt lat="48.71684" lon="1.97315">
        <ele>106.77261</ele>
        <time>2016-05-08T15:24:22Z</time>
      </trkpt>
      <trkpt lat="48.71685" lon="1.97313">
        <ele>106.073879</ele>
        <time>2016-05-08T15:24:23Z</time>
      </trkpt>
      <trkpt lat="48.71685" lon="1.97312">
        <ele>105.810024</ele>
        <time>2016-05-08T15:24:24Z</time>
      </trkpt>
      <trkpt lat="48.71685" lon="1.97311">
        <ele>105.45895</ele>
        <time>2016-05-08T15:24:25Z</time>
      </trkpt>
      <trkpt lat="48.71685" lon="1.9731">
        <ele>105.712978</ele>
        <time>2016-05-08T15:24:26Z</time>
      </trkpt>
      <trkpt lat="48.71685" lon="1.97309">
        <ele>105.713772</ele>
        <time>2016-05-08T15:24:27Z</time>
      </trkpt>
      <trkpt lat="48.71686" lon="1.97308">
        <ele>105.301723</ele>
        <time>2016-05-08T15:24:28Z</time>
      </trkpt>
      <trkpt lat="48.71685" lon="1.97307">
        <ele>105.367764</ele>
        <time>2016-05-08T15:24:29Z</time>
      </trkpt>
      <trkpt lat="48.71685" lon="1.97306">
        <ele>105.614346</ele>
        <time>2016-05-08T15:24:30Z</time>
      </trkpt>
      <trkpt lat="48.71684" lon="1.97304">
        <ele>105.713833</ele>
        <time>2016-05-08T15:24:31Z</time>
      </trkpt>
      <trkpt lat="48.71683" lon="1.97303">
        <ele>105.856228</ele>
        <time>2016-05-08T15:24:32Z</time>
      </trkpt>
      <trkpt lat="48.71683" lon="1.97303">
        <ele>105.701809</ele>
        <time>2016-05-08T15:24:33Z</time>
      </trkpt>
      <trkpt lat="48.71682" lon="1.97301">
        <ele>105.633205</ele>
        <time>2016-05-08T15:24:34Z</time>
      </trkpt>
      <trkpt lat="48.71682" lon="1.973">
        <ele>105.504971</ele>
        <time>2016-05-08T15:24:35Z</time>
      </trkpt>
      <trkpt lat="48.71682" lon="1.97299">
        <ele>105.410671</ele>
        <time>2016-05-08T15:24:36Z</time>
      </trkpt>
      <trkpt lat="48.71682" lon="1.97298">
        <ele>105.245327</ele>
        <time>2016-05-08T15:24:37Z</time>
      </trkpt>
      <trkpt lat="48.71683" lon="1.97297">
        <ele>105.374599</ele>
        <time>2016-05-08T15:24:38Z</time>
      </trkpt>
      <trkpt lat="48.71683" lon="1.97296">
        <ele>105.461514</ele>
        <time>2016-05-08T15:24:39Z</time>
      </trkpt>
      <trkpt lat="48.71684" lon="1.97295">
        <ele>105.267544</ele>
        <time>2016-05-08T15:24:40Z</time>
      </trkpt>
      <trkpt lat="48.71684" lon="1.97294">
        <ele>104.757046</ele>
        <time>2016-05-08T15:24:41Z</time>
      </trkpt>
      <trkpt lat="48.71684" lon="1.97293">
        <ele>104.605251</ele>
        <time>2016-05-08T15:24:42Z</time>
      </trkpt>
      <trkpt lat="48.71684" lon="1.97292">
        <ele>104.770473</ele>
        <time>2016-05-08T15:24:43Z</time>
      </trkpt>
      <trkpt lat="48.71684" lon="1.97291">
        <ele>104.669033</ele>
        <time>2016-05-08T15:24:44Z</time>
      </trkpt>
      <trkpt lat="48.71684" lon="1.97288">
        <ele>104.90353</ele>
        <time>2016-05-08T15:24:45Z</time>
      </trkpt>
      <trkpt lat="48.71684" lon="1.97287">
        <ele>105.209805</ele>
        <time>2016-05-08T15:24:46Z</time>
      </trkpt>
      <trkpt lat="48.71684" lon="1.97286">
        <ele>105.238979</ele>
        <time>2016-05-08T15:24:47Z</time>
      </trkpt>
      <trkpt lat="48.71685" lon="1.97284">
        <ele>105.396511</ele>
        <time>2016-05-08T15:24:48Z</time>
      </trkpt>
      <trkpt lat="48.71686" lon="1.97284">
        <ele>105.533962</ele>
        <time>2016-05-08T15:24:49Z</time>
      </trkpt>
      <trkpt lat="48.71686" lon="1.97283">
        <ele>106.02499</ele>
        <time>2016-05-08T15:24:50Z</time>
      </trkpt>
      <trkpt lat="48.71687" lon="1.97283">
        <ele>105.973171</ele>
        <time>2016-05-08T15:24:51Z</time>
      </trkpt>
      <trkpt lat="48.71687" lon="1.97283">
        <ele>106.004971</ele>
        <time>2016-05-08T15:24:52Z</time>
      </trkpt>
      <trkpt lat="48.71687" lon="1.97282">
        <ele>105.803738</ele>
        <time>2016-05-08T15:24:53Z</time>
      </trkpt>
      <trkpt lat="48.71687" lon="1.97281">
        <ele>106.007107</ele>
        <time>2016-05-08T15:24:54Z</time>
      </trkpt>
      <trkpt lat="48.71687" lon="1.9728">
        <ele>105.696621</ele>
        <time>2016-05-08T15:24:55Z</time>
      </trkpt>
      <trkpt lat="48.71687" lon="1.97278">
        <ele>105.505154</ele>
        <time>2016-05-08T15:24:56Z</time>
      </trkpt>
      <trkpt lat="48.71687" lon="1.97277">
        <ele>105.263393</ele>
        <time>2016-05-08T15:24:57Z</time>
      </trkpt>
      <trkpt lat="48.71688" lon="1.97276">
        <ele>105.153286</ele>
        <time>2016-05-08T15:24:58Z</time>
      </trkpt>
      <trkpt lat="48.71688" lon="1.97275">
        <ele>104.790981</ele>
        <time>2016-05-08T15:24:59Z</time>
      </trkpt>
      <trkpt lat="48.71687" lon="1.97274">
        <ele>104.405544</ele>
        <time>2016-05-08T15:25:00Z</time>
      </trkpt>
      <trkpt lat="48.71687" lon="1.97273">
        <ele>104.401638</ele>
        <time>2016-05-08T15:25:01Z</time>
      </trkpt>
      <trkpt lat="48.71686" lon="1.97273">
        <ele>104.639919</ele>
        <time>2016-05-08T15:25:02Z</time>
      </trkpt>
      <trkpt lat="48.71686" lon="1.97273">
        <ele>104.664333</ele>
        <time>2016-05-08T15:25:03Z</time>
      </trkpt>
      <trkpt lat="48.71686" lon="1.97272">
        <ele>104.378872</ele>
        <time>2016-05-08T15:25:04Z</time>
      </trkpt>
      <trkpt lat="48.71686" lon="1.97272">
        <ele>104.095303</ele>
        <time>2016-05-08T15:25:05Z</time>
      </trkpt>
      <trkpt lat="48.71686" lon="1.97272">
        <ele>104.013393</ele>
        <time>2016-05-08T15:25:06Z</time>
      </trkpt>
      <trkpt lat="48.71686" lon="1.97273">
        <ele>103.836269</ele>
        <time>2016-05-08T15:25:07Z</time>
      </trkpt>
      <trkpt lat="48.71687" lon="1.97273">
        <ele>103.923733</ele>
        <time>2016-05-08T15:25:08Z</time>
      </trkpt>
      <trkpt lat="48.71688" lon="1.97273">
        <ele>103.992336</ele>
        <time>2016-05-08T15:25:09Z</time>
      </trkpt>
      <trkpt lat="48.7169" lon="1.97273">
        <ele>103.363247</ele>
        <time>2016-05-08T15:25:10Z</time>
      </trkpt>
      <trkpt lat="48.7169" lon="1.97273">
        <ele>102.824673</ele>
        <time>2016-05-08T15:25:11Z</time>
      </trkpt>
      <trkpt lat="48.71691" lon="1.97273">
        <ele>103.37167</ele>
        <time>2016-05-08T15:25:12Z</time>
      </trkpt>
      <trkpt lat="48.71692" lon="1.97272">
        <ele>103.784756</ele>
        <time>2016-05-08T15:25:13Z</time>
      </trkpt>
      <trkpt lat="48.71692" lon="1.97272">
        <ele>104.118374</ele>
        <time>2016-05-08T15:25:14Z</time>
      </trkpt>
      <trkpt lat="48.71693" lon="1.97271">
        <ele>104.6329</ele>
        <time>2016-05-08T15:25:15Z</time>
      </trkpt>
      <trkpt lat="48.71694" lon="1.9727">
        <ele>104.190456</ele>
        <time>2016-05-08T15:25:16Z</time>
      </trkpt>
      <trkpt lat="48.71694" lon="1.9727">
        <ele>104.746853</ele>
        <time>2016-05-08T15:25:17Z</time>
      </trkpt>
      <trkpt lat="48.71695" lon="1.97268">
        <ele>104.486355</ele>
        <time>2016-05-08T15:25:18Z</time>
      </trkpt>
      <trkpt lat="48.71695" lon="1.97267">
        <ele>104.807095</ele>
        <time>2016-05-08T15:25:19Z</time>
      </trkpt>
      <trkpt lat="48.71695" lon="1.97265">
        <ele>105.128384</ele>
        <time>2016-05-08T15:25:20Z</time>
      </trkpt>
      <trkpt lat="48.71694" lon="1.97263">
        <ele>104.73782</ele>
        <time>2016-05-08T15:25:21Z</time>
      </trkpt>
      <trkpt lat="48.71694" lon="1.97261">
        <ele>104.845425</ele>
        <time>2016-05-08T15:25:22Z</time>
      </trkpt>
      <trkpt lat="48.71693" lon="1.9726">
        <ele>105.491299</ele>
        <time>2016-05-08T15:25:23Z</time>
      </trkpt>
      <trkpt lat="48.71694" lon="1.97259">
        <ele>105.904934</ele>
        <time>2016-05-08T15:25:24Z</time>
      </trkpt>
      <trkpt lat="48.71694" lon="1.97258">
        <ele>106.187099</ele>
        <time>2016-05-08T15:25:25Z</time>
      </trkpt>
      <trkpt lat="48.71695" lon="1.97257">
        <ele>106.145596</ele>
        <time>2016-05-08T15:25:26Z</time>
      </trkpt>
      <trkpt lat="48.71695" lon="1.97256">
        <ele>106.347988</ele>
        <time>2016-05-08T15:25:27Z</time>
      </trkpt>
      <trkpt lat="48.71695" lon="1.97256">
        <ele>106.330776</ele>
        <time>2016-05-08T15:25:28Z</time>
      </trkpt>
      <trkpt lat="48.71695" lon="1.97255">
        <ele>106.228725</ele>
        <time>2016-05-08T15:25:29Z</time>
      </trkpt>
      <trkpt lat="48.71695" lon="1.97254">
        <ele>106.551785</ele>
        <time>2016-05-08T15:25:30Z</time>
      </trkpt>
      <trkpt lat="48.71695" lon="1.97254">
        <ele>106.320522</ele>
        <time>2016-05-08T15:25:31Z</time>
      </trkpt>
      <trkpt lat="48.71695" lon="1.97253">
        <ele>106.885952</ele>
        <time>2016-05-08T15:25:32Z</time>
      </trkpt>
      <trkpt lat="48.71695" lon="1.97251">
        <ele>106.881435</ele>
        <time>2016-05-08T15:25:33Z</time>
      </trkpt>
      <trkpt lat="48.71696" lon="1.9725">
        <ele>107.543789</ele>
        <time>2016-05-08T15:25:34Z</time>
      </trkpt>
      <trkpt lat="48.71696" lon="1.97249">
        <ele>107.963284</ele>
        <time>2016-05-08T15:25:35Z</time>
      </trkpt>
      <trkpt lat="48.71697" lon="1.97247">
        <ele>107.652737</ele>
        <time>2016-05-08T15:25:36Z</time>
      </trkpt>
      <trkpt lat="48.71697" lon="1.97244">
        <ele>107.80862</ele>
        <time>2016-05-08T15:25:37Z</time>
      </trkpt>
      <trkpt lat="48.71697" lon="1.97241">
        <ele>108.156948</ele>
        <time>2016-05-08T15:25:38Z</time>
      </trkpt>
      <trkpt lat="48.71697" lon="1.97238">
        <ele>108.396389</ele>
        <time>2016-05-08T15:25:39Z</time>
      </trkpt>
      <trkpt lat="48.71697" lon="1.97236">
        <ele>108.417019</ele>
        <time>2016-05-08T15:25:40Z</time>
      </trkpt>
      <trkpt lat="48.71698" lon="1.97235">
        <ele>108.44833</ele>
        <time>2016-05-08T15:25:41Z</time>
      </trkpt>
      <trkpt lat="48.71698" lon="1.97234">
        <ele>108.663113</ele>
        <time>2016-05-08T15:25:42Z</time>
      </trkpt>
      <trkpt lat="48.71699" lon="1.97232">
        <ele>108.589077</ele>
        <time>2016-05-08T15:25:43Z</time>
      </trkpt>
      <trkpt lat="48.71699" lon="1.97232">
        <ele>108.007961</ele>
        <time>2016-05-08T15:25:44Z</time>
      </trkpt>
      <trkpt lat="48.717" lon="1.9723">
        <ele>107.383938</ele>
        <time>2016-05-08T15:25:45Z</time>
      </trkpt>
      <trkpt lat="48.717" lon="1.97228">
        <ele>107.810879</ele>
        <time>2016-05-08T15:25:46Z</time>
      </trkpt>
      <trkpt lat="48.717" lon="1.97226">
        <ele>108.106777</ele>
        <time>2016-05-08T15:25:47Z</time>
      </trkpt>
      <trkpt lat="48.717" lon="1.97223">
        <ele>107.945095</ele>
        <time>2016-05-08T15:25:48Z</time>
      </trkpt>
      <trkpt lat="48.717" lon="1.97221">
        <ele>108.242153</ele>
        <time>2016-05-08T15:25:49Z</time>
      </trkpt>
      <trkpt lat="48.717" lon="1.97219">
        <ele>108.348232</ele>
        <time>2016-05-08T15:25:50Z</time>
      </trkpt>
      <trkpt lat="48.717" lon="1.97218">
        <ele>108.084682</ele>
        <time>2016-05-08T15:25:51Z</time>
      </trkpt>
      <trkpt lat="48.717" lon="1.97216">
        <ele>107.817715</ele>
        <time>2016-05-08T15:25:52Z</time>
      </trkpt>
      <trkpt lat="48.71701" lon="1.97215">
        <ele>107.68063</ele>
        <time>2016-05-08T15:25:53Z</time>
      </trkpt>
      <trkpt lat="48.71701" lon="1.97215">
        <ele>107.60397</ele>
        <time>2016-05-08T15:25:54Z</time>
      </trkpt>
      <trkpt lat="48.71702" lon="1.97213">
        <ele>106.446377</ele>
        <time>2016-05-08T15:25:56Z</time>
      </trkpt>
      <trkpt lat="48.71702" lon="1.97213">
        <ele>105.926174</ele>
        <time>2016-05-08T15:25:57Z</time>
      </trkpt>
      <trkpt lat="48.71703" lon="1.97211">
        <ele>106.124477</ele>
        <time>2016-05-08T15:25:59Z</time>
      </trkpt>
      <trkpt lat="48.71703" lon="1.97211">
        <ele>106.351955</ele>
        <time>2016-05-08T15:26:00Z</time>
      </trkpt>
      <trkpt lat="48.71704" lon="1.97211">
        <ele>105.729336</ele>
        <time>2016-05-08T15:26:01Z</time>
      </trkpt>
      <trkpt lat="48.71706" lon="1.97211">
        <ele>105.566616</ele>
        <time>2016-05-08T15:26:03Z</time>
      </trkpt>
      <trkpt lat="48.71706" lon="1.97211">
        <ele>105.949734</ele>
        <time>2016-05-08T15:26:05Z</time>
      </trkpt>
      <trkpt lat="48.71706" lon="1.97211">
        <ele>106.216457</ele>
        <time>2016-05-08T15:26:07Z</time>
      </trkpt>
      <trkpt lat="48.71705" lon="1.97209">
        <ele>105.960659</ele>
        <time>2016-05-08T15:26:09Z</time>
      </trkpt>
      <trkpt lat="48.71704" lon="1.97207">
        <ele>105.709988</ele>
        <time>2016-05-08T15:26:11Z</time>
      </trkpt>
      <trkpt lat="48.71704" lon="1.97207">
        <ele>106.363735</ele>
        <time>2016-05-08T15:26:13Z</time>
      </trkpt>
      <trkpt lat="48.71705" lon="1.97205">
        <ele>107.181973</ele>
        <time>2016-05-08T15:26:15Z</time>
      </trkpt>
      <trkpt lat="48.71705" lon="1.97204">
        <ele>107.226223</ele>
        <time>2016-05-08T15:26:17Z</time>
      </trkpt>
      <trkpt lat="48.71705" lon="1.97201">
        <ele>108.019497</ele>
        <time>2016-05-08T15:26:19Z</time>
      </trkpt>
      <trkpt lat="48.71705" lon="1.97199">
        <ele>108.012539</ele>
        <time>2016-05-08T15:26:21Z</time>
      </trkpt>
      <trkpt lat="48.71705" lon="1.97197">
        <ele>107.435513</ele>
        <time>2016-05-08T15:26:23Z</time>
      </trkpt>
      <trkpt lat="48.71705" lon="1.97195">
        <ele>107.445217</ele>
        <time>2016-05-08T15:26:25Z</time>
      </trkpt>
      <trkpt lat="48.71706" lon="1.97193">
        <ele>107.823696</ele>
        <time>2016-05-08T15:26:27Z</time>
      </trkpt>
      <trkpt lat="48.71708" lon="1.9719">
        <ele>108.730495</ele>
        <time>2016-05-08T15:26:29Z</time>
      </trkpt>
      <trkpt lat="48.71709" lon="1.97186">
        <ele>108.228848</ele>
        <time>2016-05-08T15:26:31Z</time>
      </trkpt>
      <trkpt lat="48.71709" lon="1.97182">
        <ele>108.359097</ele>
        <time>2016-05-08T15:26:33Z</time>
      </trkpt>
      <trkpt lat="48.7171" lon="1.97179">
        <ele>109.036465</ele>
        <time>2016-05-08T15:26:35Z</time>
      </trkpt>
      <trkpt lat="48.71711" lon="1.97177">
        <ele>109.843594</ele>
        <time>2016-05-08T15:26:37Z</time>
      </trkpt>
      <trkpt lat="48.71712" lon="1.97175">
        <ele>109.879848</ele>
        <time>2016-05-08T15:26:39Z</time>
      </trkpt>
      <trkpt lat="48.71714" lon="1.97171">
        <ele>110.005642</ele>
        <time>2016-05-08T15:26:41Z</time>
      </trkpt>
      <trkpt lat="48.71714" lon="1.97167">
        <ele>111.2001</ele>
        <time>2016-05-08T15:26:43Z</time>
      </trkpt>
      <trkpt lat="48.71714" lon="1.97165">
        <ele>111.128506</ele>
        <time>2016-05-08T15:26:45Z</time>
      </trkpt>
      <trkpt lat="48.71715" lon="1.97163">
        <ele>111.136074</ele>
        <time>2016-05-08T15:26:47Z</time>
      </trkpt>
      <trkpt lat="48.71714" lon="1.97162">
        <ele>111.037075</ele>
        <time>2016-05-08T15:26:49Z</time>
      </trkpt>
      <trkpt lat="48.71714" lon="1.97161">
        <ele>110.554165</ele>
        <time>2016-05-08T15:26:51Z</time>
      </trkpt>
      <trkpt lat="48.71715" lon="1.97159">
        <ele>109.298244</ele>
        <time>2016-05-08T15:26:53Z</time>
      </trkpt>
      <trkpt lat="48.71718" lon="1.97157">
        <ele>107.83987</ele>
        <time>2016-05-08T15:26:55Z</time>
      </trkpt>
      <trkpt lat="48.71719" lon="1.97155">
        <ele>107.300625</ele>
        <time>2016-05-08T15:26:57Z</time>
      </trkpt>
      <trkpt lat="48.7172" lon="1.97153">
        <ele>107.972927</ele>
        <time>2016-05-08T15:26:59Z</time>
      </trkpt>
      <trkpt lat="48.71721" lon="1.9715">
        <ele>106.658352</ele>
        <time>2016-05-08T15:27:01Z</time>
      </trkpt>
      <trkpt lat="48.71722" lon="1.97147">
        <ele>107.172817</ele>
        <time>2016-05-08T15:27:03Z</time>
      </trkpt>
      <trkpt lat="48.71724" lon="1.97143">
        <ele>107.700222</ele>
        <time>2016-05-08T15:27:05Z</time>
      </trkpt>
      <trkpt lat="48.71725" lon="1.97139">
        <ele>107.245693</ele>
        <time>2016-05-08T15:27:07Z</time>
      </trkpt>
      <trkpt lat="48.71726" lon="1.97134">
        <ele>107.999905</ele>
        <time>2016-05-08T15:27:09Z</time>
      </trkpt>
      <trkpt lat="48.71727" lon="1.97131">
        <ele>107.866665</ele>
        <time>2016-05-08T15:27:11Z</time>
      </trkpt>
      <trkpt lat="48.71728" lon="1.97127">
        <ele>107.061794</ele>
        <time>2016-05-08T15:27:13Z</time>
      </trkpt>
      <trkpt lat="48.71729" lon="1.97121">
        <ele>105.938808</ele>
        <time>2016-05-08T15:27:15Z</time>
      </trkpt>
      <trkpt lat="48.7173" lon="1.97118">
        <ele>105.517361</ele>
        <time>2016-05-08T15:27:17Z</time>
      </trkpt>
      <trkpt lat="48.71731" lon="1.97115">
        <ele>105.930996</ele>
        <time>2016-05-08T15:27:19Z</time>
      </trkpt>
      <trkpt lat="48.71731" lon="1.97112">
        <ele>106.964626</ele>
        <time>2016-05-08T15:27:21Z</time>
      </trkpt>
      <trkpt lat="48.71732" lon="1.97107">
        <ele>106.35043</ele>
        <time>2016-05-08T15:27:23Z</time>
      </trkpt>
      <trkpt lat="48.71732" lon="1.97102">
        <ele>106.616787</ele>
        <time>2016-05-08T15:27:25Z</time>
      </trkpt>
      <trkpt lat="48.71731" lon="1.97097">
        <ele>106.39407</ele>
        <time>2016-05-08T15:27:27Z</time>
      </trkpt>
      <trkpt lat="48.71731" lon="1.97094">
        <ele>106.484768</ele>
        <time>2016-05-08T15:27:29Z</time>
      </trkpt>
      <trkpt lat="48.71731" lon="1.9709">
        <ele>106.769863</ele>
        <time>2016-05-08T15:27:31Z</time>
      </trkpt>
      <trkpt lat="48.7173" lon="1.97086">
        <ele>106.372402</ele>
        <time>2016-05-08T15:27:33Z</time>
      </trkpt>
      <trkpt lat="48.7173" lon="1.97083">
        <ele>105.946499</ele>
        <time>2016-05-08T15:27:35Z</time>
      </trkpt>
      <trkpt lat="48.71731" lon="1.97081">
        <ele>105.839809</ele>
        <time>2016-05-08T15:27:37Z</time>
      </trkpt>
      <trkpt lat="48.71732" lon="1.9708">
        <ele>105.45248</ele>
        <time>2016-05-08T15:27:39Z</time>
      </trkpt>
      <trkpt lat="48.71732" lon="1.97078">
        <ele>106.761074</ele>
        <time>2016-05-08T15:27:41Z</time>
      </trkpt>
      <trkpt lat="48.71733" lon="1.97074">
        <ele>106.742519</ele>
        <time>2016-05-08T15:27:43Z</time>
      </trkpt>
      <trkpt lat="48.71733" lon="1.97069">
        <ele>106.953152</ele>
        <time>2016-05-08T15:27:45Z</time>
      </trkpt>
      <trkpt lat="48.71733" lon="1.97067">
        <ele>107.140652</ele>
        <time>2016-05-08T15:27:47Z</time>
      </trkpt>
      <trkpt lat="48.71732" lon="1.97063">
        <ele>107.059536</ele>
        <time>2016-05-08T15:27:49Z</time>
      </trkpt>
      <trkpt lat="48.71731" lon="1.9706">
        <ele>107.704556</ele>
        <time>2016-05-08T15:27:51Z</time>
      </trkpt>
      <trkpt lat="48.71731" lon="1.97057">
        <ele>108.760891</ele>
        <time>2016-05-08T15:27:53Z</time>
      </trkpt>
      <trkpt lat="48.71731" lon="1.97054">
        <ele>109.980556</ele>
        <time>2016-05-08T15:27:55Z</time>
      </trkpt>
      <trkpt lat="48.71731" lon="1.97051">
        <ele>109.863979</ele>
        <time>2016-05-08T15:27:57Z</time>
      </trkpt>
      <trkpt lat="48.71731" lon="1.9705">
        <ele>110.518826</ele>
        <time>2016-05-08T15:27:59Z</time>
      </trkpt>
      <trkpt lat="48.71731" lon="1.9705">
        <ele>109.106472</ele>
        <time>2016-05-08T15:28:01Z</time>
      </trkpt>
      <trkpt lat="48.7173" lon="1.9705">
        <ele>107.635342</ele>
        <time>2016-05-08T15:28:03Z</time>
      </trkpt>
      <trkpt lat="48.71729" lon="1.97048">
        <ele>107.411953</ele>
        <time>2016-05-08T15:28:05Z</time>
      </trkpt>
      <trkpt lat="48.71729" lon="1.97046">
        <ele>108.85751</ele>
        <time>2016-05-08T15:28:07Z</time>
      </trkpt>
      <trkpt lat="48.71728" lon="1.97044">
        <ele>109.389065</ele>
        <time>2016-05-08T15:28:09Z</time>
      </trkpt>
      <trkpt lat="48.71727" lon="1.97043">
        <ele>110.096951</ele>
        <time>2016-05-08T15:28:11Z</time>
      </trkpt>
      <trkpt lat="48.71726" lon="1.9704">
        <ele>110.034267</ele>
        <time>2016-05-08T15:28:13Z</time>
      </trkpt>
      <trkpt lat="48.71726" lon="1.97036">
        <ele>109.407314</ele>
        <time>2016-05-08T15:28:15Z</time>
      </trkpt>
      <trkpt lat="48.71727" lon="1.97034">
        <ele>109.712978</ele>
        <time>2016-05-08T15:28:17Z</time>
      </trkpt>
      <trkpt lat="48.71729" lon="1.97034">
        <ele>108.522915</ele>
        <time>2016-05-08T15:28:19Z</time>
      </trkpt>
      <trkpt lat="48.71731" lon="1.97033">
        <ele>107.817715</ele>
        <time>2016-05-08T15:28:21Z</time>
      </trkpt>
      <trkpt lat="48.71731" lon="1.97032">
        <ele>108.300198</ele>
        <time>2016-05-08T15:28:23Z</time>
      </trkpt>
      <trkpt lat="48.71731" lon="1.97032">
        <ele>106.459805</ele>
        <time>2016-05-08T15:28:25Z</time>
      </trkpt>
      <trkpt lat="48.71727" lon="1.97024">
        <ele>105.073208</ele>
        <time>2016-05-08T15:28:27Z</time>
      </trkpt>
      <trkpt lat="48.71726" lon="1.97023">
        <ele>105.657925</ele>
        <time>2016-05-08T15:28:29Z</time>
      </trkpt>
      <trkpt lat="48.71724" lon="1.9702">
        <ele>106.347012</ele>
        <time>2016-05-08T15:28:31Z</time>
      </trkpt>
      <trkpt lat="48.71724" lon="1.9702">
        <ele>106.339504</ele>
        <time>2016-05-08T15:28:33Z</time>
      </trkpt>
      <trkpt lat="48.71724" lon="1.9702">
        <ele>106.330715</ele>
        <time>2016-05-08T15:28:35Z</time>
      </trkpt>
      <trkpt lat="48.71724" lon="1.9702">
        <ele>106.331326</ele>
        <time>2016-05-08T15:28:37Z</time>
      </trkpt>
      <trkpt lat="48.71724" lon="1.9702">
        <ele>106.332607</ele>
        <time>2016-05-08T15:28:39Z</time>
      </trkpt>
      <trkpt lat="48.71724" lon="1.9702">
        <ele>106.339443</ele>
        <time>2016-05-08T15:28:41Z</time>
      </trkpt>
      <trkpt lat="48.71724" lon="1.9702">
        <ele>106.327236</ele>
        <time>2016-05-08T15:28:43Z</time>
      </trkpt>
      <trkpt lat="48.71724" lon="1.9702">
        <ele>106.332119</ele>
        <time>2016-05-08T15:28:45Z</time>
      </trkpt>
      <trkpt lat="48.71724" lon="1.9702">
        <ele>106.330166</ele>
        <time>2016-05-08T15:28:47Z</time>
      </trkpt>
      <trkpt lat="48.71724" lon="1.9702">
        <ele>106.32217</ele>
        <time>2016-05-08T15:28:49Z</time>
      </trkpt>
      <trkpt lat="48.71724" lon="1.9702">
        <ele>106.308315</ele>
        <time>2016-05-08T15:28:51Z</time>
      </trkpt>
      <trkpt lat="48.71724" lon="1.9702">
        <ele>106.304104</ele>
        <time>2016-05-08T15:28:53Z</time>
      </trkpt>
      <trkpt lat="48.71724" lon="1.9702">
        <ele>106.312466</ele>
        <time>2016-05-08T15:28:55Z</time>
      </trkpt>
      <trkpt lat="48.71724" lon="1.9702">
        <ele>106.286465</ele>
        <time>2016-05-08T15:28:57Z</time>
      </trkpt>
      <trkpt lat="48.71724" lon="1.9702">
        <ele>106.263821</ele>
        <time>2016-05-08T15:28:59Z</time>
      </trkpt>
      <trkpt lat="48.71724" lon="1.9702">
        <ele>106.251553</ele>
        <time>2016-05-08T15:29:01Z</time>
      </trkpt>
      <trkpt lat="48.71724" lon="1.9702">
        <ele>106.235622</ele>
        <time>2016-05-08T15:29:03Z</time>
      </trkpt>
      <trkpt lat="48.71724" lon="1.9702">
        <ele>106.220425</ele>
        <time>2016-05-08T15:29:05Z</time>
      </trkpt>
      <trkpt lat="48.71724" lon="1.9702">
        <ele>106.200893</ele>
        <time>2016-05-08T15:29:07Z</time>
      </trkpt>
      <trkpt lat="48.71724" lon="1.9702">
        <ele>106.18539</ele>
        <time>2016-05-08T15:29:09Z</time>
      </trkpt>
      <trkpt lat="48.71724" lon="1.9702">
        <ele>106.15414</ele>
        <time>2016-05-08T15:29:11Z</time>
      </trkpt>
      <trkpt lat="48.71724" lon="1.9702">
        <ele>106.138393</ele>
        <time>2016-05-08T15:29:13Z</time>
      </trkpt>
      <trkpt lat="48.71722" lon="1.97017">
        <ele>105.703579</ele>
        <time>2016-05-08T15:29:15Z</time>
      </trkpt>
      <trkpt lat="48.71723" lon="1.97017">
        <ele>105.421963</ele>
        <time>2016-05-08T15:29:17Z</time>
      </trkpt>
      <trkpt lat="48.71724" lon="1.97015">
        <ele>105.381557</ele>
        <time>2016-05-08T15:29:19Z</time>
      </trkpt>
      <trkpt lat="48.71726" lon="1.97015">
        <ele>104.576321</ele>
        <time>2016-05-08T15:29:21Z</time>
      </trkpt>
      <trkpt lat="48.71727" lon="1.97015">
        <ele>105.067837</ele>
        <time>2016-05-08T15:29:23Z</time>
      </trkpt>
      <trkpt lat="48.71728" lon="1.97015">
        <ele>105.542629</ele>
        <time>2016-05-08T15:29:25Z</time>
      </trkpt>
      <trkpt lat="48.71729" lon="1.97017">
        <ele>106.082119</ele>
        <time>2016-05-08T15:29:27Z</time>
      </trkpt>
      <trkpt lat="48.71729" lon="1.97017">
        <ele>105.158474</ele>
        <time>2016-05-08T15:29:29Z</time>
      </trkpt>
      <trkpt lat="48.7173" lon="1.97019">
        <ele>105.818508</ele>
        <time>2016-05-08T15:29:31Z</time>
      </trkpt>
      <trkpt lat="48.7173" lon="1.97021">
        <ele>105.352749</ele>
        <time>2016-05-08T15:29:33Z</time>
      </trkpt>
      <trkpt lat="48.7173" lon="1.97021">
        <ele>105.412746</ele>
        <time>2016-05-08T15:29:35Z</time>
      </trkpt>
      <trkpt lat="48.71732" lon="1.97023">
        <ele>104.67654</ele>
        <time>2016-05-08T15:29:37Z</time>
      </trkpt>
      <trkpt lat="48.71731" lon="1.97025">
        <ele>103.388943</ele>
        <time>2016-05-08T15:29:39Z</time>
      </trkpt>
      <trkpt lat="48.7173" lon="1.97026">
        <ele>103.092495</ele>
        <time>2016-05-08T15:29:41Z</time>
      </trkpt>
      <trkpt lat="48.7173" lon="1.97027">
        <ele>102.729214</ele>
        <time>2016-05-08T15:29:43Z</time>
      </trkpt>
      <trkpt lat="48.71729" lon="1.9703">
        <ele>104.200588</ele>
        <time>2016-05-08T15:29:45Z</time>
      </trkpt>
      <trkpt lat="48.71729" lon="1.97033">
        <ele>105.688564</ele>
        <time>2016-05-08T15:29:47Z</time>
      </trkpt>
      <trkpt lat="48.71728" lon="1.97036">
        <ele>106.150967</ele>
        <time>2016-05-08T15:29:49Z</time>
      </trkpt>
      <trkpt lat="48.71727" lon="1.97036">
        <ele>107.655178</ele>
        <time>2016-05-08T15:29:51Z</time>
      </trkpt>
      <trkpt lat="48.71726" lon="1.97036">
        <ele>106.883633</ele>
        <time>2016-05-08T15:29:53Z</time>
      </trkpt>
      <trkpt lat="48.71725" lon="1.97036">
        <ele>108.001308</ele>
        <time>2016-05-08T15:29:55Z</time>
      </trkpt>
      <trkpt lat="48.71725" lon="1.97037">
        <ele>107.96011</ele>
        <time>2016-05-08T15:29:57Z</time>
      </trkpt>
      <trkpt lat="48.71725" lon="1.97037">
        <ele>109.08041</ele>
        <time>2016-05-08T15:29:59Z</time>
      </trkpt>
      <trkpt lat="48.71726" lon="1.97035">
        <ele>108.91061</ele>
        <time>2016-05-08T15:30:01Z</time>
      </trkpt>
      <trkpt lat="48.71727" lon="1.97034">
        <ele>108.077419</ele>
        <time>2016-05-08T15:30:03Z</time>
      </trkpt>
      <trkpt lat="48.71727" lon="1.97034">
        <ele>108.355434</ele>
        <time>2016-05-08T15:30:05Z</time>
      </trkpt>
      <trkpt lat="48.71727" lon="1.97034">
        <ele>108.360867</ele>
        <time>2016-05-08T15:30:07Z</time>
      </trkpt>
      <trkpt lat="48.71727" lon="1.97033">
        <ele>108.652859</ele>
        <time>2016-05-08T15:30:09Z</time>
      </trkpt>
      <trkpt lat="48.71727" lon="1.97033">
        <ele>110.162441</ele>
        <time>2016-05-08T15:30:11Z</time>
      </trkpt>
      <trkpt lat="48.71726" lon="1.97035">
        <ele>109.901516</ele>
        <time>2016-05-08T15:30:13Z</time>
      </trkpt>
      <trkpt lat="48.71726" lon="1.97035">
        <ele>108.808498</ele>
        <time>2016-05-08T15:30:15Z</time>
      </trkpt>
      <trkpt lat="48.71725" lon="1.97034">
        <ele>109.566677</ele>
        <time>2016-05-08T15:30:17Z</time>
      </trkpt>
      <trkpt lat="48.71723" lon="1.97031">
        <ele>110.371365</ele>
        <time>2016-05-08T15:30:19Z</time>
      </trkpt>
      <trkpt lat="48.71722" lon="1.97028">
        <ele>111.342129</ele>
        <time>2016-05-08T15:30:21Z</time>
      </trkpt>
      <trkpt lat="48.71722" lon="1.97025">
        <ele>110.60165</ele>
        <time>2016-05-08T15:30:23Z</time>
      </trkpt>
      <trkpt lat="48.71723" lon="1.97022">
        <ele>110.789272</ele>
        <time>2016-05-08T15:30:25Z</time>
      </trkpt>
      <trkpt lat="48.71725" lon="1.9702">
        <ele>111.57333</ele>
        <time>2016-05-08T15:30:27Z</time>
      </trkpt>
      <trkpt lat="48.71726" lon="1.97018">
        <ele>111.041042</ele>
        <time>2016-05-08T15:30:29Z</time>
      </trkpt>
      <trkpt lat="48.71728" lon="1.97015">
        <ele>111.457241</ele>
        <time>2016-05-08T15:30:31Z</time>
      </trkpt>
      <trkpt lat="48.71729" lon="1.97012">
        <ele>111.678127</ele>
        <time>2016-05-08T15:30:33Z</time>
      </trkpt>
      <trkpt lat="48.71731" lon="1.9701">
        <ele>111.884792</ele>
        <time>2016-05-08T15:30:35Z</time>
      </trkpt>
      <trkpt lat="48.71734" lon="1.9701">
        <ele>111.654507</ele>
        <time>2016-05-08T15:30:37Z</time>
      </trkpt>
      <trkpt lat="48.71735" lon="1.97009">
        <ele>112.19009</ele>
        <time>2016-05-08T15:30:39Z</time>
      </trkpt>
      <trkpt lat="48.71737" lon="1.97009">
        <ele>112.574612</ele>
        <time>2016-05-08T15:30:41Z</time>
      </trkpt>
      <trkpt lat="48.71738" lon="1.97008">
        <ele>112.492275</ele>
        <time>2016-05-08T15:30:43Z</time>
      </trkpt>
      <trkpt lat="48.71739" lon="1.97007">
        <ele>112.651333</ele>
        <time>2016-05-08T15:30:45Z</time>
      </trkpt>
      <trkpt lat="48.71739" lon="1.97007">
        <ele>113.814297</ele>
        <time>2016-05-08T15:30:47Z</time>
      </trkpt>
      <trkpt lat="48.71741" lon="1.97006">
        <ele>113.794643</ele>
        <time>2016-05-08T15:30:49Z</time>
      </trkpt>
      <trkpt lat="48.71742" lon="1.97004">
        <ele>113.769497</ele>
        <time>2016-05-08T15:30:51Z</time>
      </trkpt>
      <trkpt lat="48.71742" lon="1.97001">
        <ele>113.955349</ele>
        <time>2016-05-08T15:30:53Z</time>
      </trkpt>
      <trkpt lat="48.71743" lon="1.97">
        <ele>113.911404</ele>
        <time>2016-05-08T15:30:55Z</time>
      </trkpt>
      <trkpt lat="48.71742" lon="1.97">
        <ele>112.72073</ele>
        <time>2016-05-08T15:30:57Z</time>
      </trkpt>
      <trkpt lat="48.71742" lon="1.97">
        <ele>113.852566</ele>
        <time>2016-05-08T15:30:59Z</time>
      </trkpt>
      <trkpt lat="48.71742" lon="1.97">
        <ele>114.160732</ele>
        <time>2016-05-08T15:31:01Z</time>
      </trkpt>
      <trkpt lat="48.71742" lon="1.97">
        <ele>114.246365</ele>
        <time>2016-05-08T15:31:03Z</time>
      </trkpt>
      <trkpt lat="48.71743" lon="1.96999">
        <ele>114.673916</ele>
        <time>2016-05-08T15:31:05Z</time>
      </trkpt>
      <trkpt lat="48.71743" lon="1.96999">
        <ele>115.313076</ele>
        <time>2016-05-08T15:31:07Z</time>
      </trkpt>
      <trkpt lat="48.71743" lon="1.96999">
        <ele>115.721462</ele>
        <time>2016-05-08T15:31:09Z</time>
      </trkpt>
      <trkpt lat="48.71743" lon="1.97">
        <ele>115.659634</ele>
        <time>2016-05-08T15:31:11Z</time>
      </trkpt>
      <trkpt lat="48.71743" lon="1.97">
        <ele>115.674709</ele>
        <time>2016-05-08T15:31:13Z</time>
      </trkpt>
      <trkpt lat="48.71743" lon="1.97">
        <ele>114.758694</ele>
        <time>2016-05-08T15:31:15Z</time>
      </trkpt>
      <trkpt lat="48.71742" lon="1.97">
        <ele>115.157253</ele>
        <time>2016-05-08T15:31:17Z</time>
      </trkpt>
      <trkpt lat="48.71742" lon="1.97001">
        <ele>115.427151</ele>
        <time>2016-05-08T15:31:19Z</time>
      </trkpt>
      <trkpt lat="48.71742" lon="1.97001">
        <ele>115.399624</ele>
        <time>2016-05-08T15:31:21Z</time>
      </trkpt>
      <trkpt lat="48.71743" lon="1.97001">
        <ele>115.281094</ele>
        <time>2016-05-08T15:31:23Z</time>
      </trkpt>
      <trkpt lat="48.71743" lon="1.97001">
        <ele>115.235073</ele>
        <time>2016-05-08T15:31:25Z</time>
      </trkpt>
      <trkpt lat="48.71743" lon="1.97001">
        <ele>115.97665</ele>
        <time>2016-05-08T15:31:27Z</time>
      </trkpt>
      <trkpt lat="48.71744" lon="1.97001">
        <ele>116.385281</ele>
        <time>2016-05-08T15:31:29Z</time>
      </trkpt>
      <trkpt lat="48.71744" lon="1.97001">
        <ele>116.499844</ele>
        <time>2016-05-08T15:31:31Z</time>
      </trkpt>
      <trkpt lat="48.71744" lon="1.97001">
        <ele>116.504726</ele>
        <time>2016-05-08T15:31:33Z</time>
      </trkpt>
      <trkpt lat="48.71744" lon="1.97001">
        <ele>116.50491</ele>
        <time>2016-05-08T15:31:35Z</time>
      </trkpt>
      <trkpt lat="48.71744" lon="1.97001">
        <ele>116.51376</ele>
        <time>2016-05-08T15:31:37Z</time>
      </trkpt>
      <trkpt lat="48.71744" lon="1.97001">
        <ele>116.514614</ele>
        <time>2016-05-08T15:31:39Z</time>
      </trkpt>
      <trkpt lat="48.71744" lon="1.97001">
        <ele>116.509487</ele>
        <time>2016-05-08T15:31:41Z</time>
      </trkpt>
      <trkpt lat="48.71744" lon="1.97001">
        <ele>116.502163</ele>
        <time>2016-05-08T15:31:43Z</time>
      </trkpt>
      <trkpt lat="48.71744" lon="1.97001">
        <ele>116.498928</ele>
        <time>2016-05-08T15:31:45Z</time>
      </trkpt>
      <trkpt lat="48.71744" lon="1.97001">
        <ele>116.502529</ele>
        <time>2016-05-08T15:31:47Z</time>
      </trkpt>
      <trkpt lat="48.71744" lon="1.97001">
        <ele>116.499477</ele>
        <time>2016-05-08T15:31:49Z</time>
      </trkpt>
      <trkpt lat="48.71744" lon="1.97001">
        <ele>116.494839</ele>
        <time>2016-05-08T15:31:51Z</time>
      </trkpt>
      <trkpt lat="48.71744" lon="1.97001">
        <ele>116.484646</ele>
        <time>2016-05-08T15:31:53Z</time>
      </trkpt>
      <trkpt lat="48.71744" lon="1.97001">
        <ele>116.489468</ele>
        <time>2016-05-08T15:31:55Z</time>
      </trkpt>
      <trkpt lat="48.71744" lon="1.97001">
        <ele>116.492214</ele>
        <time>2016-05-08T15:31:57Z</time>
      </trkpt>
      <trkpt lat="48.71744" lon="1.97001">
        <ele>116.501431</ele>
        <time>2016-05-08T15:31:59Z</time>
      </trkpt>
      <trkpt lat="48.71744" lon="1.97001">
        <ele>116.503139</ele>
        <time>2016-05-08T15:32:01Z</time>
      </trkpt>
      <trkpt lat="48.71744" lon="1.97001">
        <ele>116.513699</ele>
        <time>2016-05-08T15:32:03Z</time>
      </trkpt>
      <trkpt lat="48.71744" lon="1.97001">
        <ele>116.519985</ele>
        <time>2016-05-08T15:32:05Z</time>
      </trkpt>
      <trkpt lat="48.71744" lon="1.97001">
        <ele>116.518276</ele>
        <time>2016-05-08T15:32:07Z</time>
      </trkpt>
      <trkpt lat="48.71744" lon="1.97001">
        <ele>116.521145</ele>
        <time>2016-05-08T15:32:09Z</time>
      </trkpt>
      <trkpt lat="48.71744" lon="1.97001">
        <ele>116.516994</ele>
        <time>2016-05-08T15:32:11Z</time>
      </trkpt>
      <trkpt lat="48.71744" lon="1.97001">
        <ele>116.514492</ele>
        <time>2016-05-08T15:32:13Z</time>
      </trkpt>
      <trkpt lat="48.71744" lon="1.97001">
        <ele>116.518948</ele>
        <time>2016-05-08T15:32:15Z</time>
      </trkpt>
      <trkpt lat="48.71744" lon="1.97001">
        <ele>116.524319</ele>
        <time>2016-05-08T15:32:17Z</time>
      </trkpt>
      <trkpt lat="48.71744" lon="1.97">
        <ele>116.294033</ele>
        <time>2016-05-08T15:32:19Z</time>
      </trkpt>
      <trkpt lat="48.71745" lon="1.96997">
        <ele>116.861843</ele>
        <time>2016-05-08T15:32:21Z</time>
      </trkpt>
      <trkpt lat="48.71746" lon="1.96995">
        <ele>116.519924</ele>
        <time>2016-05-08T15:32:23Z</time>
      </trkpt>
      <trkpt lat="48.71748" lon="1.96994">
        <ele>115.454983</ele>
        <time>2016-05-08T15:32:25Z</time>
      </trkpt>
      <trkpt lat="48.7175" lon="1.96992">
        <ele>114.958706</ele>
        <time>2016-05-08T15:32:27Z</time>
      </trkpt>
      <trkpt lat="48.7175" lon="1.9699">
        <ele>114.419827</ele>
        <time>2016-05-08T15:32:29Z</time>
      </trkpt>
      <trkpt lat="48.7175" lon="1.96987">
        <ele>112.51791</ele>
        <time>2016-05-08T15:32:31Z</time>
      </trkpt>
      <trkpt lat="48.71751" lon="1.96984">
        <ele>112.410671</ele>
        <time>2016-05-08T15:32:33Z</time>
      </trkpt>
      <trkpt lat="48.71751" lon="1.96981">
        <ele>110.637722</ele>
        <time>2016-05-08T15:32:35Z</time>
      </trkpt>
      <trkpt lat="48.71752" lon="1.96978">
        <ele>110.845486</ele>
        <time>2016-05-08T15:32:37Z</time>
      </trkpt>
      <trkpt lat="48.71752" lon="1.96974">
        <ele>109.509975</ele>
        <time>2016-05-08T15:32:39Z</time>
      </trkpt>
      <trkpt lat="48.71752" lon="1.96971">
        <ele>109.895351</ele>
        <time>2016-05-08T15:32:41Z</time>
      </trkpt>
      <trkpt lat="48.71752" lon="1.96968">
        <ele>109.875881</ele>
        <time>2016-05-08T15:32:43Z</time>
      </trkpt>
      <trkpt lat="48.71752" lon="1.96965">
        <ele>109.023159</ele>
        <time>2016-05-08T15:32:45Z</time>
      </trkpt>
      <trkpt lat="48.71753" lon="1.96961">
        <ele>109.209499</ele>
        <time>2016-05-08T15:32:47Z</time>
      </trkpt>
      <trkpt lat="48.71754" lon="1.96957">
        <ele>108.626186</ele>
        <time>2016-05-08T15:32:49Z</time>
      </trkpt>
      <trkpt lat="48.71755" lon="1.96954">
        <ele>107.707241</ele>
        <time>2016-05-08T15:32:51Z</time>
      </trkpt>
      <trkpt lat="48.71755" lon="1.96952">
        <ele>105.403347</ele>
        <time>2016-05-08T15:32:53Z</time>
      </trkpt>
      <trkpt lat="48.71755" lon="1.96949">
        <ele>106.053066</ele>
        <time>2016-05-08T15:32:55Z</time>
      </trkpt>
      <trkpt lat="48.71754" lon="1.96946">
        <ele>104.031094</ele>
        <time>2016-05-08T15:32:57Z</time>
      </trkpt>
      <trkpt lat="48.71754" lon="1.96942">
        <ele>104.46896</ele>
        <time>2016-05-08T15:32:59Z</time>
      </trkpt>
      <trkpt lat="48.71754" lon="1.9694">
        <ele>104.75729</ele>
        <time>2016-05-08T15:33:01Z</time>
      </trkpt>
      <trkpt lat="48.71754" lon="1.96937">
        <ele>106.159573</ele>
        <time>2016-05-08T15:33:03Z</time>
      </trkpt>
      <trkpt lat="48.71754" lon="1.96935">
        <ele>105.222744</ele>
        <time>2016-05-08T15:33:05Z</time>
      </trkpt>
      <trkpt lat="48.71754" lon="1.96933">
        <ele>104.71487</ele>
        <time>2016-05-08T15:33:07Z</time>
      </trkpt>
      <trkpt lat="48.71755" lon="1.96931">
        <ele>104.470791</ele>
        <time>2016-05-08T15:33:09Z</time>
      </trkpt>
      <trkpt lat="48.71755" lon="1.96928">
        <ele>103.752163</ele>
        <time>2016-05-08T15:33:11Z</time>
      </trkpt>
      <trkpt lat="48.71755" lon="1.96927">
        <ele>104.211208</ele>
        <time>2016-05-08T15:33:12Z</time>
      </trkpt>
      <trkpt lat="48.71755" lon="1.96926">
        <ele>103.800442</ele>
        <time>2016-05-08T15:33:13Z</time>
      </trkpt>
      <trkpt lat="48.71754" lon="1.96925">
        <ele>103.896999</ele>
        <time>2016-05-08T15:33:14Z</time>
      </trkpt>
      <trkpt lat="48.71754" lon="1.96924">
        <ele>104.180813</ele>
        <time>2016-05-08T15:33:15Z</time>
      </trkpt>
      <trkpt lat="48.71754" lon="1.96924">
        <ele>104.762783</ele>
        <time>2016-05-08T15:33:16Z</time>
      </trkpt>
      <trkpt lat="48.71754" lon="1.96923">
        <ele>104.680202</ele>
        <time>2016-05-08T15:33:17Z</time>
      </trkpt>
      <trkpt lat="48.71754" lon="1.96922">
        <ele>104.932095</ele>
        <time>2016-05-08T15:33:18Z</time>
      </trkpt>
      <trkpt lat="48.71754" lon="1.96921">
        <ele>105.151455</ele>
        <time>2016-05-08T15:33:19Z</time>
      </trkpt>
      <trkpt lat="48.71754" lon="1.96921">
        <ele>105.148769</ele>
        <time>2016-05-08T15:33:20Z</time>
      </trkpt>
      <trkpt lat="48.71753" lon="1.9692">
        <ele>104.120205</ele>
        <time>2016-05-08T15:33:21Z</time>
      </trkpt>
      <trkpt lat="48.71753" lon="1.9692">
        <ele>104.014004</ele>
        <time>2016-05-08T15:33:22Z</time>
      </trkpt>
      <trkpt lat="48.71753" lon="1.9692">
        <ele>105.001308</ele>
        <time>2016-05-08T15:33:23Z</time>
      </trkpt>
      <trkpt lat="48.71753" lon="1.9692">
        <ele>105.482876</ele>
        <time>2016-05-08T15:33:24Z</time>
      </trkpt>
      <trkpt lat="48.71753" lon="1.9692">
        <ele>105.769497</ele>
        <time>2016-05-08T15:33:25Z</time>
      </trkpt>
      <trkpt lat="48.71754" lon="1.96919">
        <ele>106.371181</ele>
        <time>2016-05-08T15:33:26Z</time>
      </trkpt>
      <trkpt lat="48.71754" lon="1.96919">
        <ele>106.891811</ele>
        <time>2016-05-08T15:33:27Z</time>
      </trkpt>
      <trkpt lat="48.71754" lon="1.96919">
        <ele>106.888088</ele>
        <time>2016-05-08T15:33:28Z</time>
      </trkpt>
      <trkpt lat="48.71754" lon="1.96919">
        <ele>106.88937</ele>
        <time>2016-05-08T15:33:29Z</time>
      </trkpt>
      <trkpt lat="48.71754" lon="1.96919">
        <ele>106.88583</ele>
        <time>2016-05-08T15:33:30Z</time>
      </trkpt>
      <trkpt lat="48.71754" lon="1.96919">
        <ele>106.889675</ele>
        <time>2016-05-08T15:33:31Z</time>
      </trkpt>
      <trkpt lat="48.71754" lon="1.96919">
        <ele>106.894253</ele>
        <time>2016-05-08T15:33:32Z</time>
      </trkpt>
      <trkpt lat="48.71754" lon="1.96919">
        <ele>106.899502</ele>
        <time>2016-05-08T15:33:33Z</time>
      </trkpt>
      <trkpt lat="48.71754" lon="1.96919">
        <ele>106.902004</ele>
        <time>2016-05-08T15:33:34Z</time>
      </trkpt>
      <trkpt lat="48.71754" lon="1.96919">
        <ele>106.906094</ele>
        <time>2016-05-08T15:33:35Z</time>
      </trkpt>
      <trkpt lat="48.71754" lon="1.96919">
        <ele>106.911343</ele>
        <time>2016-05-08T15:33:36Z</time>
      </trkpt>
      <trkpt lat="48.71754" lon="1.96919">
        <ele>106.911343</ele>
        <time>2016-05-08T15:33:37Z</time>
      </trkpt>
      <trkpt lat="48.71754" lon="1.96919">
        <ele>106.918728</ele>
        <time>2016-05-08T15:33:38Z</time>
      </trkpt>
      <trkpt lat="48.71754" lon="1.96919">
        <ele>106.926723</ele>
        <time>2016-05-08T15:33:39Z</time>
      </trkpt>
      <trkpt lat="48.71754" lon="1.96919">
        <ele>106.941311</ele>
        <time>2016-05-08T15:33:40Z</time>
      </trkpt>
      <trkpt lat="48.71754" lon="1.96919">
        <ele>106.951077</ele>
        <time>2016-05-08T15:33:41Z</time>
      </trkpt>
      <trkpt lat="48.71754" lon="1.96919">
        <ele>106.956387</ele>
        <time>2016-05-08T15:33:42Z</time>
      </trkpt>
      <trkpt lat="48.71754" lon="1.96919">
        <ele>106.96249</ele>
        <time>2016-05-08T15:33:43Z</time>
      </trkpt>
      <trkpt lat="48.71754" lon="1.96919">
        <ele>106.975063</ele>
        <time>2016-05-08T15:33:44Z</time>
      </trkpt>
      <trkpt lat="48.71754" lon="1.96919">
        <ele>106.98666</ele>
        <time>2016-05-08T15:33:45Z</time>
      </trkpt>
      <trkpt lat="48.71754" lon="1.96919">
        <ele>107.254482</ele>
        <time>2016-05-08T15:33:46Z</time>
      </trkpt>
      <trkpt lat="48.71755" lon="1.96919">
        <ele>105.585537</ele>
        <time>2016-05-08T15:33:47Z</time>
      </trkpt>
      <trkpt lat="48.71755" lon="1.96919">
        <ele>105.519741</ele>
        <time>2016-05-08T15:33:48Z</time>
      </trkpt>
      <trkpt lat="48.71756" lon="1.96918">
        <ele>104.44949</ele>
        <time>2016-05-08T15:33:49Z</time>
      </trkpt>
      <trkpt lat="48.71756" lon="1.96918">
        <ele>105.048</ele>
        <time>2016-05-08T15:33:50Z</time>
      </trkpt>
      <trkpt lat="48.71757" lon="1.96917">
        <ele>105.423428</ele>
        <time>2016-05-08T15:33:51Z</time>
      </trkpt>
      <trkpt lat="48.71758" lon="1.96917">
        <ele>104.436489</ele>
        <time>2016-05-08T15:33:52Z</time>
      </trkpt>
      <trkpt lat="48.71758" lon="1.96916">
        <ele>104.031948</ele>
        <time>2016-05-08T15:33:53Z</time>
      </trkpt>
      <trkpt lat="48.71759" lon="1.96916">
        <ele>105.249599</ele>
        <time>2016-05-08T15:33:54Z</time>
      </trkpt>
      <trkpt lat="48.71759" lon="1.96916">
        <ele>104.953945</ele>
        <time>2016-05-08T15:33:55Z</time>
      </trkpt>
      <trkpt lat="48.7176" lon="1.96916">
        <ele>104.823574</ele>
        <time>2016-05-08T15:33:56Z</time>
      </trkpt>
      <trkpt lat="48.71762" lon="1.96916">
        <ele>104.162624</ele>
        <time>2016-05-08T15:33:57Z</time>
      </trkpt>
      <trkpt lat="48.71763" lon="1.96915">
        <ele>104.696072</ele>
        <time>2016-05-08T15:33:58Z</time>
      </trkpt>
      <trkpt lat="48.71764" lon="1.96915">
        <ele>105.202358</ele>
        <time>2016-05-08T15:33:59Z</time>
      </trkpt>
      <trkpt lat="48.71765" lon="1.96915">
        <ele>104.374233</ele>
        <time>2016-05-08T15:34:00Z</time>
      </trkpt>
      <trkpt lat="48.71766" lon="1.96914">
        <ele>104.372829</ele>
        <time>2016-05-08T15:34:01Z</time>
      </trkpt>
      <trkpt lat="48.71767" lon="1.96914">
        <ele>103.707363</ele>
        <time>2016-05-08T15:34:02Z</time>
      </trkpt>
      <trkpt lat="48.71768" lon="1.96914">
        <ele>103.100979</ele>
        <time>2016-05-08T15:34:03Z</time>
      </trkpt>
      <trkpt lat="48.71768" lon="1.96915">
        <ele>102.830105</ele>
        <time>2016-05-08T15:34:04Z</time>
      </trkpt>
      <trkpt lat="48.71769" lon="1.96915">
        <ele>102.285</ele>
        <time>2016-05-08T15:34:05Z</time>
      </trkpt>
      <trkpt lat="48.71769" lon="1.96915">
        <ele>102.534939</ele>
        <time>2016-05-08T15:34:06Z</time>
      </trkpt>
      <trkpt lat="48.7177" lon="1.96915">
        <ele>103.224392</ele>
        <time>2016-05-08T15:34:07Z</time>
      </trkpt>
      <trkpt lat="48.7177" lon="1.96914">
        <ele>103.638577</ele>
        <time>2016-05-08T15:34:08Z</time>
      </trkpt>
      <trkpt lat="48.71771" lon="1.96913">
        <ele>103.624111</ele>
        <time>2016-05-08T15:34:09Z</time>
      </trkpt>
      <trkpt lat="48.71771" lon="1.96913">
        <ele>103.941189</ele>
        <time>2016-05-08T15:34:10Z</time>
      </trkpt>
      <trkpt lat="48.71772" lon="1.96912">
        <ele>104.653286</ele>
        <time>2016-05-08T15:34:11Z</time>
      </trkpt>
      <trkpt lat="48.71772" lon="1.96912">
        <ele>104.587063</ele>
        <time>2016-05-08T15:34:12Z</time>
      </trkpt>
      <trkpt lat="48.71773" lon="1.96912">
        <ele>104.828213</ele>
        <time>2016-05-08T15:34:13Z</time>
      </trkpt>
      <trkpt lat="48.71773" lon="1.96912">
        <ele>105.120205</ele>
        <time>2016-05-08T15:34:14Z</time>
      </trkpt>
      <trkpt lat="48.71774" lon="1.96911">
        <ele>105.329189</ele>
        <time>2016-05-08T15:34:15Z</time>
      </trkpt>
      <trkpt lat="48.71774" lon="1.9691">
        <ele>105.63229</ele>
        <time>2016-05-08T15:34:16Z</time>
      </trkpt>
      <trkpt lat="48.71775" lon="1.96909">
        <ele>105.235928</ele>
        <time>2016-05-08T15:34:17Z</time>
      </trkpt>
      <trkpt lat="48.71775" lon="1.96908">
        <ele>105.113552</ele>
        <time>2016-05-08T15:34:18Z</time>
      </trkpt>
      <trkpt lat="48.71776" lon="1.96906">
        <ele>105.381863</ele>
        <time>2016-05-08T15:34:19Z</time>
      </trkpt>
      <trkpt lat="48.71776" lon="1.96904">
        <ele>105.376553</ele>
        <time>2016-05-08T15:34:20Z</time>
      </trkpt>
      <trkpt lat="48.71776" lon="1.96903">
        <ele>105.285305</ele>
        <time>2016-05-08T15:34:21Z</time>
      </trkpt>
      <trkpt lat="48.71775" lon="1.96902">
        <ele>105.460354</ele>
        <time>2016-05-08T15:34:22Z</time>
      </trkpt>
      <trkpt lat="48.71775" lon="1.969">
        <ele>105.239651</ele>
        <time>2016-05-08T15:34:23Z</time>
      </trkpt>
      <trkpt lat="48.71775" lon="1.96898">
        <ele>104.62698</ele>
        <time>2016-05-08T15:34:24Z</time>
      </trkpt>
      <trkpt lat="48.71775" lon="1.96896">
        <ele>104.26022</ele>
        <time>2016-05-08T15:34:25Z</time>
      </trkpt>
      <trkpt lat="48.71776" lon="1.96895">
        <ele>104.408474</ele>
        <time>2016-05-08T15:34:26Z</time>
      </trkpt>
      <trkpt lat="48.71777" lon="1.96895">
        <ele>104.606045</ele>
        <time>2016-05-08T15:34:27Z</time>
      </trkpt>
      <trkpt lat="48.71777" lon="1.96893">
        <ele>104.335171</ele>
        <time>2016-05-08T15:34:28Z</time>
      </trkpt>
      <trkpt lat="48.71778" lon="1.96892">
        <ele>104.045742</ele>
        <time>2016-05-08T15:34:29Z</time>
      </trkpt>
      <trkpt lat="48.71778" lon="1.9689">
        <ele>104.243801</ele>
        <time>2016-05-08T15:34:30Z</time>
      </trkpt>
      <trkpt lat="48.71778" lon="1.96889">
        <ele>104.384243</ele>
        <time>2016-05-08T15:34:31Z</time>
      </trkpt>
      <trkpt lat="48.71779" lon="1.96888">
        <ele>104.953701</ele>
        <time>2016-05-08T15:34:32Z</time>
      </trkpt>
      <trkpt lat="48.71779" lon="1.96886">
        <ele>104.661953</ele>
        <time>2016-05-08T15:34:33Z</time>
      </trkpt>
      <trkpt lat="48.71779" lon="1.96884">
        <ele>105.238491</ele>
        <time>2016-05-08T15:34:34Z</time>
      </trkpt>
      <trkpt lat="48.71779" lon="1.96882">
        <ele>104.753139</ele>
        <time>2016-05-08T15:34:35Z</time>
      </trkpt>
      <trkpt lat="48.7178" lon="1.96881">
        <ele>105.15353</ele>
        <time>2016-05-08T15:34:36Z</time>
      </trkpt>
      <trkpt lat="48.7178" lon="1.96879">
        <ele>105.069241</ele>
        <time>2016-05-08T15:34:37Z</time>
      </trkpt>
      <trkpt lat="48.71781" lon="1.96878">
        <ele>104.767788</ele>
        <time>2016-05-08T15:34:38Z</time>
      </trkpt>
      <trkpt lat="48.71781" lon="1.96877">
        <ele>104.426907</ele>
        <time>2016-05-08T15:34:39Z</time>
      </trkpt>
      <trkpt lat="48.71781" lon="1.96875">
        <ele>104.446438</ele>
        <time>2016-05-08T15:34:40Z</time>
      </trkpt>
      <trkpt lat="48.71782" lon="1.96874">
        <ele>104.645229</ele>
        <time>2016-05-08T15:34:41Z</time>
      </trkpt>
      <trkpt lat="48.71782" lon="1.96873">
        <ele>104.289944</ele>
        <time>2016-05-08T15:34:42Z</time>
      </trkpt>
      <trkpt lat="48.71782" lon="1.96871">
        <ele>103.80917</ele>
        <time>2016-05-08T15:34:43Z</time>
      </trkpt>
      <trkpt lat="48.71782" lon="1.9687">
        <ele>103.988369</ele>
        <time>2016-05-08T15:34:44Z</time>
      </trkpt>
      <trkpt lat="48.71782" lon="1.96869">
        <ele>103.844509</ele>
        <time>2016-05-08T15:34:45Z</time>
      </trkpt>
      <trkpt lat="48.71782" lon="1.96868">
        <ele>103.490139</ele>
        <time>2016-05-08T15:34:46Z</time>
      </trkpt>
      <trkpt lat="48.71782" lon="1.96867">
        <ele>103.739407</ele>
        <time>2016-05-08T15:34:47Z</time>
      </trkpt>
      <trkpt lat="48.71781" lon="1.96865">
        <ele>103.914333</ele>
        <time>2016-05-08T15:34:48Z</time>
      </trkpt>
      <trkpt lat="48.7178" lon="1.96863">
        <ele>103.701504</ele>
        <time>2016-05-08T15:34:49Z</time>
      </trkpt>
      <trkpt lat="48.7178" lon="1.9686">
        <ele>103.728115</ele>
        <time>2016-05-08T15:34:50Z</time>
      </trkpt>
      <trkpt lat="48.7178" lon="1.96858">
        <ele>103.569118</ele>
        <time>2016-05-08T15:34:51Z</time>
      </trkpt>
      <trkpt lat="48.7178" lon="1.96856">
        <ele>103.651882</ele>
        <time>2016-05-08T15:34:52Z</time>
      </trkpt>
      <trkpt lat="48.7178" lon="1.96854">
        <ele>103.64706</ele>
        <time>2016-05-08T15:34:53Z</time>
      </trkpt>
      <trkpt lat="48.7178" lon="1.96853">
        <ele>103.784756</ele>
        <time>2016-05-08T15:34:54Z</time>
      </trkpt>
      <trkpt lat="48.7178" lon="1.96851">
        <ele>104.143398</ele>
        <time>2016-05-08T15:34:55Z</time>
      </trkpt>
      <trkpt lat="48.7178" lon="1.96851">
        <ele>104.180569</ele>
        <time>2016-05-08T15:34:56Z</time>
      </trkpt>
      <trkpt lat="48.71781" lon="1.96849">
        <ele>104.431973</ele>
        <time>2016-05-08T15:34:57Z</time>
      </trkpt>
      <trkpt lat="48.71781" lon="1.96848">
        <ele>104.306911</ele>
        <time>2016-05-08T15:34:58Z</time>
      </trkpt>
      <trkpt lat="48.71782" lon="1.96848">
        <ele>103.89645</ele>
        <time>2016-05-08T15:34:59Z</time>
      </trkpt>
      <trkpt lat="48.71782" lon="1.96847">
        <ele>104.21664</ele>
        <time>2016-05-08T15:35:00Z</time>
      </trkpt>
      <trkpt lat="48.71782" lon="1.96845">
        <ele>103.77322</ele>
        <time>2016-05-08T15:35:01Z</time>
      </trkpt>
      <trkpt lat="48.71782" lon="1.96844">
        <ele>103.71072</ele>
        <time>2016-05-08T15:35:02Z</time>
      </trkpt>
      <trkpt lat="48.71782" lon="1.96842">
        <ele>103.448513</ele>
        <time>2016-05-08T15:35:03Z</time>
      </trkpt>
      <trkpt lat="48.71782" lon="1.9684">
        <ele>103.329983</ele>
        <time>2016-05-08T15:35:04Z</time>
      </trkpt>
      <trkpt lat="48.71782" lon="1.96839">
        <ele>103.123013</ele>
        <time>2016-05-08T15:35:05Z</time>
      </trkpt>
      <trkpt lat="48.71782" lon="1.96839">
        <ele>102.86105</ele>
        <time>2016-05-08T15:35:06Z</time>
      </trkpt>
      <trkpt lat="48.71783" lon="1.96838">
        <ele>102.350246</ele>
        <time>2016-05-08T15:35:07Z</time>
      </trkpt>
      <trkpt lat="48.71783" lon="1.96838">
        <ele>102.676418</ele>
        <time>2016-05-08T15:35:08Z</time>
      </trkpt>
      <trkpt lat="48.71783" lon="1.96838">
        <ele>102.345303</ele>
        <time>2016-05-08T15:35:09Z</time>
      </trkpt>
      <trkpt lat="48.71783" lon="1.96838">
        <ele>102.059963</ele>
        <time>2016-05-08T15:35:10Z</time>
      </trkpt>
      <trkpt lat="48.71783" lon="1.96838">
        <ele>102.128262</ele>
        <time>2016-05-08T15:35:11Z</time>
      </trkpt>
      <trkpt lat="48.71784" lon="1.96837">
        <ele>102.853481</ele>
        <time>2016-05-08T15:35:12Z</time>
      </trkpt>
      <trkpt lat="48.71784" lon="1.96836">
        <ele>102.216091</ele>
        <time>2016-05-08T15:35:13Z</time>
      </trkpt>
      <trkpt lat="48.71785" lon="1.96836">
        <ele>102.731899</ele>
        <time>2016-05-08T15:35:14Z</time>
      </trkpt>
      <trkpt lat="48.71785" lon="1.96835">
        <ele>103.088528</ele>
        <time>2016-05-08T15:35:15Z</time>
      </trkpt>
      <trkpt lat="48.71786" lon="1.96835">
        <ele>102.710842</ele>
        <time>2016-05-08T15:35:16Z</time>
      </trkpt>
      <trkpt lat="48.71786" lon="1.96834">
        <ele>102.980679</ele>
        <time>2016-05-08T15:35:17Z</time>
      </trkpt>
      <trkpt lat="48.71786" lon="1.96833">
        <ele>102.985561</ele>
        <time>2016-05-08T15:35:18Z</time>
      </trkpt>
      <trkpt lat="48.71786" lon="1.96831">
        <ele>102.817471</ele>
        <time>2016-05-08T15:35:19Z</time>
      </trkpt>
      <trkpt lat="48.71786" lon="1.9683">
        <ele>103.235928</ele>
        <time>2016-05-08T15:35:20Z</time>
      </trkpt>
      <trkpt lat="48.71786" lon="1.96828">
        <ele>103.283413</ele>
        <time>2016-05-08T15:35:21Z</time>
      </trkpt>
      <trkpt lat="48.71786" lon="1.96827">
        <ele>103.529934</ele>
        <time>2016-05-08T15:35:22Z</time>
      </trkpt>
      <trkpt lat="48.71786" lon="1.96826">
        <ele>103.533535</ele>
        <time>2016-05-08T15:35:23Z</time>
      </trkpt>
      <trkpt lat="48.71785" lon="1.96825">
        <ele>103.343227</ele>
        <time>2016-05-08T15:35:24Z</time>
      </trkpt>
      <trkpt lat="48.71785" lon="1.96824">
        <ele>103.017178</ele>
        <time>2016-05-08T15:35:25Z</time>
      </trkpt>
      <trkpt lat="48.71786" lon="1.96824">
        <ele>102.230923</ele>
        <time>2016-05-08T15:35:26Z</time>
      </trkpt>
      <trkpt lat="48.71786" lon="1.96825">
        <ele>102.364468</ele>
        <time>2016-05-08T15:35:27Z</time>
      </trkpt>
      <trkpt lat="48.71786" lon="1.96826">
        <ele>102.598965</ele>
        <time>2016-05-08T15:35:28Z</time>
      </trkpt>
      <trkpt lat="48.71787" lon="1.96825">
        <ele>102.551357</ele>
        <time>2016-05-08T15:35:29Z</time>
      </trkpt>
      <trkpt lat="48.71787" lon="1.96825">
        <ele>101.980618</ele>
        <time>2016-05-08T15:35:30Z</time>
      </trkpt>
      <trkpt lat="48.71787" lon="1.96824">
        <ele>101.585659</ele>
        <time>2016-05-08T15:35:31Z</time>
      </trkpt>
      <trkpt lat="48.71787" lon="1.96824">
        <ele>101.092068</ele>
        <time>2016-05-08T15:35:32Z</time>
      </trkpt>
      <trkpt lat="48.71788" lon="1.96823">
        <ele>100.987453</ele>
        <time>2016-05-08T15:35:33Z</time>
      </trkpt>
      <trkpt lat="48.71788" lon="1.96822">
        <ele>100.982754</ele>
        <time>2016-05-08T15:35:34Z</time>
      </trkpt>
      <trkpt lat="48.71788" lon="1.9682">
        <ele>100.670071</ele>
        <time>2016-05-08T15:35:35Z</time>
      </trkpt>
      <trkpt lat="48.71788" lon="1.9682">
        <ele>101.042385</ele>
        <time>2016-05-08T15:35:36Z</time>
      </trkpt>
      <trkpt lat="48.71788" lon="1.96819">
        <ele>101.168056</ele>
        <time>2016-05-08T15:35:37Z</time>
      </trkpt>
      <trkpt lat="48.71789" lon="1.96817">
        <ele>101.445889</ele>
        <time>2016-05-08T15:35:38Z</time>
      </trkpt>
      <trkpt lat="48.71789" lon="1.96816">
        <ele>101.326138</ele>
        <time>2016-05-08T15:35:39Z</time>
      </trkpt>
      <trkpt lat="48.71789" lon="1.96815">
        <ele>101.129971</ele>
        <time>2016-05-08T15:35:40Z</time>
      </trkpt>
      <trkpt lat="48.71789" lon="1.96815">
        <ele>101.170742</ele>
        <time>2016-05-08T15:35:41Z</time>
      </trkpt>
      <trkpt lat="48.71789" lon="1.96813">
        <ele>101.285488</ele>
        <time>2016-05-08T15:35:42Z</time>
      </trkpt>
      <trkpt lat="48.7179" lon="1.96811">
        <ele>101.133511</ele>
        <time>2016-05-08T15:35:43Z</time>
      </trkpt>
      <trkpt lat="48.7179" lon="1.96809">
        <ele>101.392178</ele>
        <time>2016-05-08T15:35:44Z</time>
      </trkpt>
      <trkpt lat="48.7179" lon="1.96808">
        <ele>101.877041</ele>
        <time>2016-05-08T15:35:45Z</time>
      </trkpt>
      <trkpt lat="48.71789" lon="1.96807">
        <ele>101.384487</ele>
        <time>2016-05-08T15:35:46Z</time>
      </trkpt>
      <trkpt lat="48.71789" lon="1.96805">
        <ele>101.641079</ele>
        <time>2016-05-08T15:35:47Z</time>
      </trkpt>
      <trkpt lat="48.71789" lon="1.96804">
        <ele>101.614712</ele>
        <time>2016-05-08T15:35:48Z</time>
      </trkpt>
      <trkpt lat="48.71789" lon="1.96803">
        <ele>101.435452</ele>
        <time>2016-05-08T15:35:49Z</time>
      </trkpt>
      <trkpt lat="48.71789" lon="1.96802">
        <ele>101.581509</ele>
        <time>2016-05-08T15:35:50Z</time>
      </trkpt>
      <trkpt lat="48.71788" lon="1.96801">
        <ele>102.030544</ele>
        <time>2016-05-08T15:35:51Z</time>
      </trkpt>
      <trkpt lat="48.71788" lon="1.968">
        <ele>101.750881</ele>
        <time>2016-05-08T15:35:52Z</time>
      </trkpt>
      <trkpt lat="48.71788" lon="1.96798">
        <ele>101.682156</ele>
        <time>2016-05-08T15:35:53Z</time>
      </trkpt>
      <trkpt lat="48.71788" lon="1.96797">
        <ele>101.738186</ele>
        <time>2016-05-08T15:35:54Z</time>
      </trkpt>
      <trkpt lat="48.71787" lon="1.96796">
        <ele>101.642361</ele>
        <time>2016-05-08T15:35:55Z</time>
      </trkpt>
      <trkpt lat="48.71787" lon="1.96795">
        <ele>101.137783</ele>
        <time>2016-05-08T15:35:56Z</time>
      </trkpt>
      <trkpt lat="48.71787" lon="1.96794">
        <ele>101.569363</ele>
        <time>2016-05-08T15:35:57Z</time>
      </trkpt>
      <trkpt lat="48.71787" lon="1.96792">
        <ele>101.671474</ele>
        <time>2016-05-08T15:35:58Z</time>
      </trkpt>
      <trkpt lat="48.71788" lon="1.96791">
        <ele>101.857265</ele>
        <time>2016-05-08T15:35:59Z</time>
      </trkpt>
      <trkpt lat="48.71788" lon="1.96789">
        <ele>101.565395</ele>
        <time>2016-05-08T15:36:00Z</time>
      </trkpt>
      <trkpt lat="48.71788" lon="1.96788">
        <ele>101.236782</ele>
        <time>2016-05-08T15:36:01Z</time>
      </trkpt>
      <trkpt lat="48.71788" lon="1.96788">
        <ele>100.914883</ele>
        <time>2016-05-08T15:36:02Z</time>
      </trkpt>
      <trkpt lat="48.71788" lon="1.96787">
        <ele>100.854397</ele>
        <time>2016-05-08T15:36:03Z</time>
      </trkpt>
      <trkpt lat="48.71788" lon="1.96787">
        <ele>100.998135</ele>
        <time>2016-05-08T15:36:04Z</time>
      </trkpt>
      <trkpt lat="48.71787" lon="1.96785">
        <ele>101.100857</ele>
        <time>2016-05-08T15:36:05Z</time>
      </trkpt>
      <trkpt lat="48.71786" lon="1.96784">
        <ele>101.045559</ele>
        <time>2016-05-08T15:36:06Z</time>
      </trkpt>
      <trkpt lat="48.71785" lon="1.96783">
        <ele>100.666348</ele>
        <time>2016-05-08T15:36:07Z</time>
      </trkpt>
      <trkpt lat="48.71785" lon="1.96783">
        <ele>100.858425</ele>
        <time>2016-05-08T15:36:08Z</time>
      </trkpt>
      <trkpt lat="48.71786" lon="1.96782">
        <ele>101.446926</ele>
        <time>2016-05-08T15:36:09Z</time>
      </trkpt>
      <trkpt lat="48.71786" lon="1.9678">
        <ele>100.83395</ele>
        <time>2016-05-08T15:36:10Z</time>
      </trkpt>
      <trkpt lat="48.71787" lon="1.96779">
        <ele>100.596279</ele>
        <time>2016-05-08T15:36:11Z</time>
      </trkpt>
      <trkpt lat="48.71788" lon="1.96777">
        <ele>100.737514</ele>
        <time>2016-05-08T15:36:12Z</time>
      </trkpt>
      <trkpt lat="48.71788" lon="1.96775">
        <ele>101.064968</ele>
        <time>2016-05-08T15:36:13Z</time>
      </trkpt>
      <trkpt lat="48.71789" lon="1.96773">
        <ele>101.6777</ele>
        <time>2016-05-08T15:36:14Z</time>
      </trkpt>
      <trkpt lat="48.71789" lon="1.96772">
        <ele>102.034512</ele>
        <time>2016-05-08T15:36:15Z</time>
      </trkpt>
      <trkpt lat="48.7179" lon="1.9677">
        <ele>102.099758</ele>
        <time>2016-05-08T15:36:16Z</time>
      </trkpt>
      <trkpt lat="48.7179" lon="1.96768">
        <ele>101.332363</ele>
        <time>2016-05-08T15:36:17Z</time>
      </trkpt>
      <trkpt lat="48.71791" lon="1.96766">
        <ele>101.52853</ele>
        <time>2016-05-08T15:36:18Z</time>
      </trkpt>
      <trkpt lat="48.71791" lon="1.96764">
        <ele>101.910061</ele>
        <time>2016-05-08T15:36:19Z</time>
      </trkpt>
      <trkpt lat="48.71792" lon="1.96763">
        <ele>103.04147</ele>
        <time>2016-05-08T15:36:20Z</time>
      </trkpt>
      <trkpt lat="48.71792" lon="1.9676">
        <ele>102.296963</ele>
        <time>2016-05-08T15:36:21Z</time>
      </trkpt>
      <trkpt lat="48.71792" lon="1.96758">
        <ele>102.891201</ele>
        <time>2016-05-08T15:36:22Z</time>
      </trkpt>
      <trkpt lat="48.71791" lon="1.96755">
        <ele>102.83633</ele>
        <time>2016-05-08T15:36:23Z</time>
      </trkpt>
      <trkpt lat="48.71791" lon="1.96753">
        <ele>103.099697</ele>
        <time>2016-05-08T15:36:24Z</time>
      </trkpt>
      <trkpt lat="48.7179" lon="1.96751">
        <ele>103.13821</ele>
        <time>2016-05-08T15:36:25Z</time>
      </trkpt>
      <trkpt lat="48.7179" lon="1.96748">
        <ele>103.612637</ele>
        <time>2016-05-08T15:36:26Z</time>
      </trkpt>
      <trkpt lat="48.7179" lon="1.96746">
        <ele>104.354153</ele>
        <time>2016-05-08T15:36:27Z</time>
      </trkpt>
      <trkpt lat="48.7179" lon="1.96743">
        <ele>103.611782</ele>
        <time>2016-05-08T15:36:28Z</time>
      </trkpt>
      <trkpt lat="48.71791" lon="1.9674">
        <ele>103.640102</ele>
        <time>2016-05-08T15:36:29Z</time>
      </trkpt>
      <trkpt lat="48.71792" lon="1.96738">
        <ele>103.353725</ele>
        <time>2016-05-08T15:36:30Z</time>
      </trkpt>
      <trkpt lat="48.71794" lon="1.96737">
        <ele>103.173061</ele>
        <time>2016-05-08T15:36:31Z</time>
      </trkpt>
      <trkpt lat="48.71795" lon="1.96736">
        <ele>103.043056</ele>
        <time>2016-05-08T15:36:32Z</time>
      </trkpt>
      <trkpt lat="48.71795" lon="1.96734">
        <ele>102.498318</ele>
        <time>2016-05-08T15:36:33Z</time>
      </trkpt>
      <trkpt lat="48.71796" lon="1.96734">
        <ele>102.182339</ele>
        <time>2016-05-08T15:36:34Z</time>
      </trkpt>
      <trkpt lat="48.71796" lon="1.96733">
        <ele>102.417812</ele>
        <time>2016-05-08T15:36:35Z</time>
      </trkpt>
      <trkpt lat="48.71796" lon="1.96732">
        <ele>102.306484</ele>
        <time>2016-05-08T15:36:36Z</time>
      </trkpt>
      <trkpt lat="48.71796" lon="1.96731">
        <ele>101.859585</ele>
        <time>2016-05-08T15:36:37Z</time>
      </trkpt>
      <trkpt lat="48.71797" lon="1.9673">
        <ele>101.539394</ele>
        <time>2016-05-08T15:36:38Z</time>
      </trkpt>
      <trkpt lat="48.71797" lon="1.96728">
        <ele>101.954433</ele>
        <time>2016-05-08T15:36:39Z</time>
      </trkpt>
      <trkpt lat="48.71798" lon="1.96727">
        <ele>102.234463</ele>
        <time>2016-05-08T15:36:40Z</time>
      </trkpt>
      <trkpt lat="48.71798" lon="1.96726">
        <ele>102.418056</ele>
        <time>2016-05-08T15:36:41Z</time>
      </trkpt>
      <trkpt lat="48.71798" lon="1.96724">
        <ele>102.296658</ele>
        <time>2016-05-08T15:36:42Z</time>
      </trkpt>
      <trkpt lat="48.71798" lon="1.96723">
        <ele>102.246792</ele>
        <time>2016-05-08T15:36:43Z</time>
      </trkpt>
      <trkpt lat="48.71798" lon="1.96722">
        <ele>102.474392</ele>
        <time>2016-05-08T15:36:44Z</time>
      </trkpt>
      <trkpt lat="48.71798" lon="1.9672">
        <ele>101.488125</ele>
        <time>2016-05-08T15:36:45Z</time>
      </trkpt>
      <trkpt lat="48.71799" lon="1.96718">
        <ele>100.964565</ele>
        <time>2016-05-08T15:36:46Z</time>
      </trkpt>
      <trkpt lat="48.718" lon="1.96716">
        <ele>99.995083</ele>
        <time>2016-05-08T15:36:47Z</time>
      </trkpt>
      <trkpt lat="48.718" lon="1.96714">
        <ele>100.019985</ele>
        <time>2016-05-08T15:36:48Z</time>
      </trkpt>
      <trkpt lat="48.71801" lon="1.96712">
        <ele>99.909267</ele>
        <time>2016-05-08T15:36:49Z</time>
      </trkpt>
      <trkpt lat="48.71801" lon="1.9671">
        <ele>99.230312</ele>
        <time>2016-05-08T15:36:50Z</time>
      </trkpt>
      <trkpt lat="48.71801" lon="1.96709">
        <ele>98.769009</ele>
        <time>2016-05-08T15:36:51Z</time>
      </trkpt>
      <trkpt lat="48.71801" lon="1.96706">
        <ele>97.717617</ele>
        <time>2016-05-08T15:36:52Z</time>
      </trkpt>
      <trkpt lat="48.71801" lon="1.96705">
        <ele>96.383144</ele>
        <time>2016-05-08T15:36:53Z</time>
      </trkpt>
      <trkpt lat="48.71801" lon="1.96704">
        <ele>96.566189</ele>
        <time>2016-05-08T15:36:54Z</time>
      </trkpt>
      <trkpt lat="48.71801" lon="1.96704">
        <ele>95.642117</ele>
        <time>2016-05-08T15:36:55Z</time>
      </trkpt>
      <trkpt lat="48.71801" lon="1.96703">
        <ele>96.033047</ele>
        <time>2016-05-08T15:36:56Z</time>
      </trkpt>
      <trkpt lat="48.71802" lon="1.96703">
        <ele>97.757839</ele>
        <time>2016-05-08T15:36:57Z</time>
      </trkpt>
      <trkpt lat="48.71802" lon="1.96702">
        <ele>97.029751</ele>
        <time>2016-05-08T15:36:58Z</time>
      </trkpt>
      <trkpt lat="48.71802" lon="1.967">
        <ele>97.051601</ele>
        <time>2016-05-08T15:36:59Z</time>
      </trkpt>
      <trkpt lat="48.71803" lon="1.96699">
        <ele>96.616543</ele>
        <time>2016-05-08T15:37:00Z</time>
      </trkpt>
      <trkpt lat="48.71802" lon="1.96698">
        <ele>96.636379</ele>
        <time>2016-05-08T15:37:01Z</time>
      </trkpt>
      <trkpt lat="48.71802" lon="1.96697">
        <ele>96.827663</ele>
        <time>2016-05-08T15:37:02Z</time>
      </trkpt>
      <trkpt lat="48.71802" lon="1.96696">
        <ele>97.325344</ele>
        <time>2016-05-08T15:37:03Z</time>
      </trkpt>
      <trkpt lat="48.71802" lon="1.96694">
        <ele>97.919338</ele>
        <time>2016-05-08T15:37:04Z</time>
      </trkpt>
      <trkpt lat="48.71802" lon="1.96692">
        <ele>97.932156</ele>
        <time>2016-05-08T15:37:05Z</time>
      </trkpt>
      <trkpt lat="48.71802" lon="1.9669">
        <ele>97.710537</ele>
        <time>2016-05-08T15:37:06Z</time>
      </trkpt>
      <trkpt lat="48.71801" lon="1.96689">
        <ele>97.553982</ele>
        <time>2016-05-08T15:37:07Z</time>
      </trkpt>
      <trkpt lat="48.71802" lon="1.96687">
        <ele>98.702541</ele>
        <time>2016-05-08T15:37:08Z</time>
      </trkpt>
      <trkpt lat="48.71802" lon="1.96685">
        <ele>98.537563</ele>
        <time>2016-05-08T15:37:09Z</time>
      </trkpt>
      <trkpt lat="48.71802" lon="1.96682">
        <ele>98.97665</ele>
        <time>2016-05-08T15:37:10Z</time>
      </trkpt>
      <trkpt lat="48.71802" lon="1.9668">
        <ele>98.044277</ele>
        <time>2016-05-08T15:37:11Z</time>
      </trkpt>
      <trkpt lat="48.71802" lon="1.96678">
        <ele>98.085415</ele>
        <time>2016-05-08T15:37:12Z</time>
      </trkpt>
      <trkpt lat="48.71802" lon="1.96677">
        <ele>98.02145</ele>
        <time>2016-05-08T15:37:13Z</time>
      </trkpt>
      <trkpt lat="48.71802" lon="1.96676">
        <ele>98.567593</ele>
        <time>2016-05-08T15:37:14Z</time>
      </trkpt>
      <trkpt lat="48.71802" lon="1.96676">
        <ele>98.499477</ele>
        <time>2016-05-08T15:37:15Z</time>
      </trkpt>
      <trkpt lat="48.71802" lon="1.96675">
        <ele>99.111233</ele>
        <time>2016-05-08T15:37:16Z</time>
      </trkpt>
      <trkpt lat="48.71802" lon="1.96673">
        <ele>98.138027</ele>
        <time>2016-05-08T15:37:17Z</time>
      </trkpt>
      <trkpt lat="48.71802" lon="1.96672">
        <ele>98.179836</ele>
        <time>2016-05-08T15:37:18Z</time>
      </trkpt>
      <trkpt lat="48.71803" lon="1.9667">
        <ele>97.690517</ele>
        <time>2016-05-08T15:37:19Z</time>
      </trkpt>
      <trkpt lat="48.71803" lon="1.96668">
        <ele>98.279446</ele>
        <time>2016-05-08T15:37:20Z</time>
      </trkpt>
      <trkpt lat="48.71803" lon="1.96667">
        <ele>96.635586</ele>
        <time>2016-05-08T15:37:21Z</time>
      </trkpt>
      <trkpt lat="48.71803" lon="1.96665">
        <ele>97.02029</ele>
        <time>2016-05-08T15:37:22Z</time>
      </trkpt>
      <trkpt lat="48.71804" lon="1.96664">
        <ele>97.012966</ele>
        <time>2016-05-08T15:37:23Z</time>
      </trkpt>
      <trkpt lat="48.71804" lon="1.96663">
        <ele>96.832912</ele>
        <time>2016-05-08T15:37:24Z</time>
      </trkpt>
      <trkpt lat="48.71805" lon="1.96661">
        <ele>95.954678</ele>
        <time>2016-05-08T15:37:25Z</time>
      </trkpt>
      <trkpt lat="48.71806" lon="1.96659">
        <ele>95.250088</ele>
        <time>2016-05-08T15:37:26Z</time>
      </trkpt>
      <trkpt lat="48.71807" lon="1.96657">
        <ele>94.806973</ele>
        <time>2016-05-08T15:37:27Z</time>
      </trkpt>
      <trkpt lat="48.71808" lon="1.96656">
        <ele>94.684475</ele>
        <time>2016-05-08T15:37:28Z</time>
      </trkpt>
      <trkpt lat="48.71808" lon="1.96655">
        <ele>95.228909</ele>
        <time>2016-05-08T15:37:29Z</time>
      </trkpt>
      <trkpt lat="48.71808" lon="1.96654">
        <ele>94.153713</ele>
        <time>2016-05-08T15:37:30Z</time>
      </trkpt>
      <trkpt lat="48.71808" lon="1.96652">
        <ele>93.973232</ele>
        <time>2016-05-08T15:37:31Z</time>
      </trkpt>
      <trkpt lat="48.71808" lon="1.9665">
        <ele>94.149746</ele>
        <time>2016-05-08T15:37:32Z</time>
      </trkpt>
      <trkpt lat="48.71808" lon="1.96648">
        <ele>94.928555</ele>
        <time>2016-05-08T15:37:33Z</time>
      </trkpt>
      <trkpt lat="48.71808" lon="1.96647">
        <ele>94.923672</ele>
        <time>2016-05-08T15:37:34Z</time>
      </trkpt>
      <trkpt lat="48.71808" lon="1.96644">
        <ele>95.261074</ele>
        <time>2016-05-08T15:37:35Z</time>
      </trkpt>
      <trkpt lat="48.71807" lon="1.96641">
        <ele>95.448696</ele>
        <time>2016-05-08T15:37:36Z</time>
      </trkpt>
      <trkpt lat="48.71807" lon="1.96638">
        <ele>95.677334</ele>
        <time>2016-05-08T15:37:37Z</time>
      </trkpt>
      <trkpt lat="48.71807" lon="1.96637">
        <ele>96.121731</ele>
        <time>2016-05-08T15:37:38Z</time>
      </trkpt>
      <trkpt lat="48.71808" lon="1.96635">
        <ele>96.167141</ele>
        <time>2016-05-08T15:37:39Z</time>
      </trkpt>
      <trkpt lat="48.71809" lon="1.96634">
        <ele>95.757046</ele>
        <time>2016-05-08T15:37:40Z</time>
      </trkpt>
      <trkpt lat="48.71809" lon="1.96632">
        <ele>96.659145</ele>
        <time>2016-05-08T15:37:41Z</time>
      </trkpt>
      <trkpt lat="48.7181" lon="1.96631">
        <ele>96.378689</ele>
        <time>2016-05-08T15:37:42Z</time>
      </trkpt>
      <trkpt lat="48.7181" lon="1.96631">
        <ele>96.776699</ele>
        <time>2016-05-08T15:37:43Z</time>
      </trkpt>
      <trkpt lat="48.7181" lon="1.96629">
        <ele>96.580105</ele>
        <time>2016-05-08T15:37:44Z</time>
      </trkpt>
      <trkpt lat="48.7181" lon="1.96628">
        <ele>96.654018</ele>
        <time>2016-05-08T15:37:45Z</time>
      </trkpt>
      <trkpt lat="48.7181" lon="1.96627">
        <ele>95.857143</ele>
        <time>2016-05-08T15:37:46Z</time>
      </trkpt>
      <trkpt lat="48.7181" lon="1.96626">
        <ele>95.177151</ele>
        <time>2016-05-08T15:37:47Z</time>
      </trkpt>
      <trkpt lat="48.71811" lon="1.96625">
        <ele>95.697903</ele>
        <time>2016-05-08T15:37:48Z</time>
      </trkpt>
      <trkpt lat="48.71811" lon="1.96623">
        <ele>94.994656</ele>
        <time>2016-05-08T15:37:49Z</time>
      </trkpt>
      <trkpt lat="48.71812" lon="1.96623">
        <ele>95.235195</ele>
        <time>2016-05-08T15:37:50Z</time>
      </trkpt>
      <trkpt lat="48.71813" lon="1.96623">
        <ele>95.396816</ele>
        <time>2016-05-08T15:37:51Z</time>
      </trkpt>
      <trkpt lat="48.71813" lon="1.96622">
        <ele>97.155605</ele>
        <time>2016-05-08T15:37:52Z</time>
      </trkpt>
      <trkpt lat="48.71814" lon="1.9662">
        <ele>97.707729</ele>
        <time>2016-05-08T15:37:53Z</time>
      </trkpt>
      <trkpt lat="48.71814" lon="1.96619">
        <ele>98.418545</ele>
        <time>2016-05-08T15:37:54Z</time>
      </trkpt>
      <trkpt lat="48.71815" lon="1.96617">
        <ele>100.566616</ele>
        <time>2016-05-08T15:37:55Z</time>
      </trkpt>
      <trkpt lat="48.71814" lon="1.96614">
        <ele>101.086269</ele>
        <time>2016-05-08T15:37:56Z</time>
      </trkpt>
      <trkpt lat="48.71814" lon="1.96612">
        <ele>101.381985</ele>
        <time>2016-05-08T15:37:57Z</time>
      </trkpt>
      <trkpt lat="48.71814" lon="1.96609">
        <ele>101.611477</ele>
        <time>2016-05-08T15:37:58Z</time>
      </trkpt>
      <trkpt lat="48.71814" lon="1.96608">
        <ele>100.421719</ele>
        <time>2016-05-08T15:37:59Z</time>
      </trkpt>
      <trkpt lat="48.71814" lon="1.96606">
        <ele>101.02615</ele>
        <time>2016-05-08T15:38:00Z</time>
      </trkpt>
      <trkpt lat="48.71814" lon="1.96604">
        <ele>99.644863</ele>
        <time>2016-05-08T15:38:01Z</time>
      </trkpt>
      <trkpt lat="48.71814" lon="1.96602">
        <ele>99.795742</ele>
        <time>2016-05-08T15:38:02Z</time>
      </trkpt>
      <trkpt lat="48.71814" lon="1.96601">
        <ele>100.512844</ele>
        <time>2016-05-08T15:38:03Z</time>
      </trkpt>
      <trkpt lat="48.71815" lon="1.966">
        <ele>99.940517</ele>
        <time>2016-05-08T15:38:04Z</time>
      </trkpt>
      <trkpt lat="48.71815" lon="1.96598">
        <ele>100.672024</ele>
        <time>2016-05-08T15:38:05Z</time>
      </trkpt>
      <trkpt lat="48.71815" lon="1.96597">
        <ele>100.681728</ele>
        <time>2016-05-08T15:38:06Z</time>
      </trkpt>
      <trkpt lat="48.71816" lon="1.96596">
        <ele>99.299892</ele>
        <time>2016-05-08T15:38:07Z</time>
      </trkpt>
      <trkpt lat="48.71817" lon="1.96595">
        <ele>99.965969</ele>
        <time>2016-05-08T15:38:08Z</time>
      </trkpt>
      <trkpt lat="48.71818" lon="1.96593">
        <ele>101.214687</ele>
        <time>2016-05-08T15:38:09Z</time>
      </trkpt>
      <trkpt lat="48.71819" lon="1.96592">
        <ele>102.215664</ele>
        <time>2016-05-08T15:38:10Z</time>
      </trkpt>
      <trkpt lat="48.7182" lon="1.96591">
        <ele>102.044155</ele>
        <time>2016-05-08T15:38:11Z</time>
      </trkpt>
      <trkpt lat="48.71821" lon="1.9659">
        <ele>102.622036</ele>
        <time>2016-05-08T15:38:12Z</time>
      </trkpt>
      <trkpt lat="48.71822" lon="1.96588">
        <ele>103.186367</ele>
        <time>2016-05-08T15:38:13Z</time>
      </trkpt>
      <trkpt lat="48.71823" lon="1.96586">
        <ele>103.632961</ele>
        <time>2016-05-08T15:38:14Z</time>
      </trkpt>
      <trkpt lat="48.71823" lon="1.96583">
        <ele>103.591274</ele>
        <time>2016-05-08T15:38:15Z</time>
      </trkpt>
      <trkpt lat="48.71823" lon="1.96581">
        <ele>103.230556</ele>
        <time>2016-05-08T15:38:16Z</time>
      </trkpt>
      <trkpt lat="48.71823" lon="1.96579">
        <ele>102.251919</ele>
        <time>2016-05-08T15:38:17Z</time>
      </trkpt>
      <trkpt lat="48.71823" lon="1.96577">
        <ele>102.294827</ele>
        <time>2016-05-08T15:38:18Z</time>
      </trkpt>
      <trkpt lat="48.71824" lon="1.96575">
        <ele>102.542202</ele>
        <time>2016-05-08T15:38:19Z</time>
      </trkpt>
      <trkpt lat="48.71824" lon="1.96573">
        <ele>103.818691</ele>
        <time>2016-05-08T15:38:20Z</time>
      </trkpt>
      <trkpt lat="48.71824" lon="1.96571">
        <ele>104.189175</ele>
        <time>2016-05-08T15:38:21Z</time>
      </trkpt>
      <trkpt lat="48.71824" lon="1.96571">
        <ele>103.729214</ele>
        <time>2016-05-08T15:38:22Z</time>
      </trkpt>
      <trkpt lat="48.71825" lon="1.96571">
        <ele>104.300259</ele>
        <time>2016-05-08T15:38:23Z</time>
      </trkpt>
      <trkpt lat="48.71825" lon="1.96571">
        <ele>104.231167</ele>
        <time>2016-05-08T15:38:24Z</time>
      </trkpt>
      <trkpt lat="48.71825" lon="1.96571">
        <ele>105.444302</ele>
        <time>2016-05-08T15:38:25Z</time>
      </trkpt>
      <trkpt lat="48.71825" lon="1.96571">
        <ele>104.742641</ele>
        <time>2016-05-08T15:38:26Z</time>
      </trkpt>
      <trkpt lat="48.71825" lon="1.9657">
        <ele>105.252285</ele>
        <time>2016-05-08T15:38:27Z</time>
      </trkpt>
      <trkpt lat="48.71825" lon="1.96569">
        <ele>105.887295</ele>
        <time>2016-05-08T15:38:28Z</time>
      </trkpt>
      <trkpt lat="48.71825" lon="1.96568">
        <ele>105.845303</ele>
        <time>2016-05-08T15:38:29Z</time>
      </trkpt>
      <trkpt lat="48.71825" lon="1.96567">
        <ele>106.231838</ele>
        <time>2016-05-08T15:38:30Z</time>
      </trkpt>
      <trkpt lat="48.71825" lon="1.96566">
        <ele>107.815334</ele>
        <time>2016-05-08T15:38:31Z</time>
      </trkpt>
      <trkpt lat="48.71826" lon="1.96565">
        <ele>107.302822</ele>
        <time>2016-05-08T15:38:32Z</time>
      </trkpt>
      <trkpt lat="48.71826" lon="1.96564">
        <ele>107.841885</ele>
        <time>2016-05-08T15:38:33Z</time>
      </trkpt>
      <trkpt lat="48.71827" lon="1.96562">
        <ele>108.086025</ele>
        <time>2016-05-08T15:38:34Z</time>
      </trkpt>
      <trkpt lat="48.71827" lon="1.96559">
        <ele>108.582363</ele>
        <time>2016-05-08T15:38:35Z</time>
      </trkpt>
      <trkpt lat="48.71828" lon="1.96558">
        <ele>109.770046</ele>
        <time>2016-05-08T15:38:36Z</time>
      </trkpt>
      <trkpt lat="48.71829" lon="1.96556">
        <ele>109.666103</ele>
        <time>2016-05-08T15:38:37Z</time>
      </trkpt>
      <trkpt lat="48.71829" lon="1.96555">
        <ele>109.600979</ele>
        <time>2016-05-08T15:38:38Z</time>
      </trkpt>
      <trkpt lat="48.7183" lon="1.96553">
        <ele>110.897427</ele>
        <time>2016-05-08T15:38:39Z</time>
      </trkpt>
      <trkpt lat="48.7183" lon="1.96551">
        <ele>112.400723</ele>
        <time>2016-05-08T15:38:40Z</time>
      </trkpt>
      <trkpt lat="48.7183" lon="1.9655">
        <ele>112.965847</ele>
        <time>2016-05-08T15:38:41Z</time>
      </trkpt>
      <trkpt lat="48.71831" lon="1.96548">
        <ele>111.969082</ele>
        <time>2016-05-08T15:38:42Z</time>
      </trkpt>
      <trkpt lat="48.71832" lon="1.96546">
        <ele>112.326504</ele>
        <time>2016-05-08T15:38:43Z</time>
      </trkpt>
      <trkpt lat="48.71833" lon="1.96544">
        <ele>111.426601</ele>
        <time>2016-05-08T15:38:44Z</time>
      </trkpt>
      <trkpt lat="48.71833" lon="1.96543">
        <ele>111.974209</ele>
        <time>2016-05-08T15:38:45Z</time>
      </trkpt>
      <trkpt lat="48.71834" lon="1.96542">
        <ele>110.712734</ele>
        <time>2016-05-08T15:38:46Z</time>
      </trkpt>
      <trkpt lat="48.71835" lon="1.9654">
        <ele>109.634731</ele>
        <time>2016-05-08T15:38:47Z</time>
      </trkpt>
      <trkpt lat="48.71836" lon="1.96539">
        <ele>111.550076</ele>
        <time>2016-05-08T15:38:48Z</time>
      </trkpt>
      <trkpt lat="48.71836" lon="1.96538">
        <ele>111.690884</ele>
        <time>2016-05-08T15:38:49Z</time>
      </trkpt>
      <trkpt lat="48.71837" lon="1.96536">
        <ele>111.662075</ele>
        <time>2016-05-08T15:38:50Z</time>
      </trkpt>
      <trkpt lat="48.71838" lon="1.96535">
        <ele>110.6954</ele>
        <time>2016-05-08T15:38:51Z</time>
      </trkpt>
      <trkpt lat="48.71839" lon="1.96533">
        <ele>109.695766</ele>
        <time>2016-05-08T15:38:52Z</time>
      </trkpt>
      <trkpt lat="48.7184" lon="1.96532">
        <ele>109.506252</ele>
        <time>2016-05-08T15:38:53Z</time>
      </trkpt>
      <trkpt lat="48.71841" lon="1.96531">
        <ele>109.872524</ele>
        <time>2016-05-08T15:38:54Z</time>
      </trkpt>
      <trkpt lat="48.71841" lon="1.9653">
        <ele>108.795132</ele>
        <time>2016-05-08T15:38:55Z</time>
      </trkpt>
      <trkpt lat="48.71842" lon="1.96528">
        <ele>109.35873</ele>
        <time>2016-05-08T15:38:56Z</time>
      </trkpt>
      <trkpt lat="48.71842" lon="1.96526">
        <ele>109.415066</ele>
        <time>2016-05-08T15:38:57Z</time>
      </trkpt>
      <trkpt lat="48.71843" lon="1.96525">
        <ele>107.417751</ele>
        <time>2016-05-08T15:38:58Z</time>
      </trkpt>
      <trkpt lat="48.71844" lon="1.96524">
        <ele>108.00436</ele>
        <time>2016-05-08T15:38:59Z</time>
      </trkpt>
      <trkpt lat="48.71844" lon="1.96523">
        <ele>108.444057</ele>
        <time>2016-05-08T15:39:00Z</time>
      </trkpt>
      <trkpt lat="48.71846" lon="1.96522">
        <ele>108.652065</ele>
        <time>2016-05-08T15:39:01Z</time>
      </trkpt>
      <trkpt lat="48.71847" lon="1.96521">
        <ele>109.252834</ele>
        <time>2016-05-08T15:39:02Z</time>
      </trkpt>
      <trkpt lat="48.71848" lon="1.9652">
        <ele>109.445889</ele>
        <time>2016-05-08T15:39:03Z</time>
      </trkpt>
      <trkpt lat="48.71849" lon="1.96519">
        <ele>110.225857</ele>
        <time>2016-05-08T15:39:04Z</time>
      </trkpt>
      <trkpt lat="48.71849" lon="1.96517">
        <ele>109.840115</ele>
        <time>2016-05-08T15:39:05Z</time>
      </trkpt>
      <trkpt lat="48.71849" lon="1.96516">
        <ele>110.145657</ele>
        <time>2016-05-08T15:39:06Z</time>
      </trkpt>
      <trkpt lat="48.7185" lon="1.96515">
        <ele>110.411404</ele>
        <time>2016-05-08T15:39:07Z</time>
      </trkpt>
      <trkpt lat="48.7185" lon="1.96513">
        <ele>109.868984</ele>
        <time>2016-05-08T15:39:08Z</time>
      </trkpt>
      <trkpt lat="48.7185" lon="1.96512">
        <ele>110.003078</ele>
        <time>2016-05-08T15:39:09Z</time>
      </trkpt>
      <trkpt lat="48.71851" lon="1.9651">
        <ele>110.3475</ele>
        <time>2016-05-08T15:39:10Z</time>
      </trkpt>
      <trkpt lat="48.71851" lon="1.96508">
        <ele>110.003506</ele>
        <time>2016-05-08T15:39:11Z</time>
      </trkpt>
      <trkpt lat="48.71852" lon="1.96507">
        <ele>109.788784</ele>
        <time>2016-05-08T15:39:12Z</time>
      </trkpt>
      <trkpt lat="48.71853" lon="1.96505">
        <ele>109.333767</ele>
        <time>2016-05-08T15:39:13Z</time>
      </trkpt>
      <trkpt lat="48.71853" lon="1.96503">
        <ele>109.668972</ele>
        <time>2016-05-08T15:39:14Z</time>
      </trkpt>
      <trkpt lat="48.71854" lon="1.96501">
        <ele>109.257229</ele>
        <time>2016-05-08T15:39:15Z</time>
      </trkpt>
      <trkpt lat="48.71854" lon="1.96499">
        <ele>109.699673</ele>
        <time>2016-05-08T15:39:16Z</time>
      </trkpt>
      <trkpt lat="48.71854" lon="1.96497">
        <ele>109.49728</ele>
        <time>2016-05-08T15:39:17Z</time>
      </trkpt>
      <trkpt lat="48.71854" lon="1.96495">
        <ele>109.3381</ele>
        <time>2016-05-08T15:39:18Z</time>
      </trkpt>
      <trkpt lat="48.71855" lon="1.96493">
        <ele>108.366299</ele>
        <time>2016-05-08T15:39:19Z</time>
      </trkpt>
      <trkpt lat="48.71855" lon="1.96491">
        <ele>108.667446</ele>
        <time>2016-05-08T15:39:20Z</time>
      </trkpt>
      <trkpt lat="48.71855" lon="1.96489">
        <ele>109.55685</ele>
        <time>2016-05-08T15:39:21Z</time>
      </trkpt>
      <trkpt lat="48.71855" lon="1.96487">
        <ele>108.447903</ele>
        <time>2016-05-08T15:39:22Z</time>
      </trkpt>
      <trkpt lat="48.71856" lon="1.96486">
        <ele>109.229458</ele>
        <time>2016-05-08T15:39:23Z</time>
      </trkpt>
      <trkpt lat="48.71856" lon="1.96484">
        <ele>108.966702</ele>
        <time>2016-05-08T15:39:24Z</time>
      </trkpt>
      <trkpt lat="48.71856" lon="1.96484">
        <ele>109.462673</ele>
        <time>2016-05-08T15:39:25Z</time>
      </trkpt>
      <trkpt lat="48.71857" lon="1.96483">
        <ele>109.667385</ele>
        <time>2016-05-08T15:39:26Z</time>
      </trkpt>
      <trkpt lat="48.71857" lon="1.96483">
        <ele>109.862392</ele>
        <time>2016-05-08T15:39:27Z</time>
      </trkpt>
      <trkpt lat="48.71857" lon="1.96482">
        <ele>110.175076</ele>
        <time>2016-05-08T15:39:28Z</time>
      </trkpt>
      <trkpt lat="48.71857" lon="1.9648">
        <ele>108.789639</ele>
        <time>2016-05-08T15:39:29Z</time>
      </trkpt>
      <trkpt lat="48.71858" lon="1.96478">
        <ele>109.389797</ele>
        <time>2016-05-08T15:39:30Z</time>
      </trkpt>
      <trkpt lat="48.71858" lon="1.96477">
        <ele>110.446133</ele>
        <time>2016-05-08T15:39:31Z</time>
      </trkpt>
      <trkpt lat="48.71859" lon="1.96476">
        <ele>109.29916</ele>
        <time>2016-05-08T15:39:32Z</time>
      </trkpt>
      <trkpt lat="48.71859" lon="1.96474">
        <ele>109.680386</ele>
        <time>2016-05-08T15:39:33Z</time>
      </trkpt>
      <trkpt lat="48.71859" lon="1.96473">
        <ele>109.598354</ele>
        <time>2016-05-08T15:39:34Z</time>
      </trkpt>
      <trkpt lat="48.71859" lon="1.96472">
        <ele>109.178005</ele>
        <time>2016-05-08T15:39:35Z</time>
      </trkpt>
      <trkpt lat="48.71859" lon="1.96471">
        <ele>107.913357</ele>
        <time>2016-05-08T15:39:36Z</time>
      </trkpt>
      <trkpt lat="48.71859" lon="1.96471">
        <ele>108.791286</ele>
        <time>2016-05-08T15:39:37Z</time>
      </trkpt>
      <trkpt lat="48.71859" lon="1.9647">
        <ele>109.251308</ele>
        <time>2016-05-08T15:39:38Z</time>
      </trkpt>
      <trkpt lat="48.7186" lon="1.96469">
        <ele>110.467129</ele>
        <time>2016-05-08T15:39:39Z</time>
      </trkpt>
      <trkpt lat="48.7186" lon="1.96469">
        <ele>110.557644</ele>
        <time>2016-05-08T15:39:40Z</time>
      </trkpt>
      <trkpt lat="48.71861" lon="1.96467">
        <ele>110.549831</ele>
        <time>2016-05-08T15:39:41Z</time>
      </trkpt>
      <trkpt lat="48.71861" lon="1.96465">
        <ele>110.387661</ele>
        <time>2016-05-08T15:39:42Z</time>
      </trkpt>
      <trkpt lat="48.71862" lon="1.96463">
        <ele>109.020351</ele>
        <time>2016-05-08T15:39:43Z</time>
      </trkpt>
      <trkpt lat="48.71863" lon="1.96461">
        <ele>108.767056</ele>
        <time>2016-05-08T15:39:44Z</time>
      </trkpt>
      <trkpt lat="48.71863" lon="1.96459">
        <ele>108.55685</ele>
        <time>2016-05-08T15:39:45Z</time>
      </trkpt>
      <trkpt lat="48.71863" lon="1.96456">
        <ele>107.707241</ele>
        <time>2016-05-08T15:39:46Z</time>
      </trkpt>
      <trkpt lat="48.71864" lon="1.96454">
        <ele>107.273586</ele>
        <time>2016-05-08T15:39:47Z</time>
      </trkpt>
      <trkpt lat="48.71864" lon="1.96452">
        <ele>106.782436</ele>
        <time>2016-05-08T15:39:48Z</time>
      </trkpt>
      <trkpt lat="48.71864" lon="1.96449">
        <ele>106.979885</ele>
        <time>2016-05-08T15:39:49Z</time>
      </trkpt>
      <trkpt lat="48.71864" lon="1.96447">
        <ele>106.108242</ele>
        <time>2016-05-08T15:39:50Z</time>
      </trkpt>
      <trkpt lat="48.71865" lon="1.96445">
        <ele>105.827297</ele>
        <time>2016-05-08T15:39:51Z</time>
      </trkpt>
      <trkpt lat="48.71865" lon="1.96443">
        <ele>106.406094</ele>
        <time>2016-05-08T15:39:52Z</time>
      </trkpt>
      <trkpt lat="48.71865" lon="1.96441">
        <ele>106.490444</ele>
        <time>2016-05-08T15:39:53Z</time>
      </trkpt>
      <trkpt lat="48.71865" lon="1.96439">
        <ele>106.851467</ele>
        <time>2016-05-08T15:39:54Z</time>
      </trkpt>
      <trkpt lat="48.71865" lon="1.96438">
        <ele>107.235989</ele>
        <time>2016-05-08T15:39:55Z</time>
      </trkpt>
      <trkpt lat="48.71865" lon="1.96435">
        <ele>107.290066</ele>
        <time>2016-05-08T15:39:56Z</time>
      </trkpt>
      <trkpt lat="48.71866" lon="1.96434">
        <ele>105.290127</ele>
        <time>2016-05-08T15:39:57Z</time>
      </trkpt>
      <trkpt lat="48.71866" lon="1.96432">
        <ele>105.878017</ele>
        <time>2016-05-08T15:39:58Z</time>
      </trkpt>
      <trkpt lat="48.71867" lon="1.96431">
        <ele>105.974575</ele>
        <time>2016-05-08T15:39:59Z</time>
      </trkpt>
      <trkpt lat="48.71868" lon="1.96431">
        <ele>105.818447</ele>
        <time>2016-05-08T15:40:00Z</time>
      </trkpt>
      <trkpt lat="48.71868" lon="1.9643">
        <ele>106.453518</ele>
        <time>2016-05-08T15:40:01Z</time>
      </trkpt>
      <trkpt lat="48.71868" lon="1.96429">
        <ele>107.168606</ele>
        <time>2016-05-08T15:40:02Z</time>
      </trkpt>
      <trkpt lat="48.71867" lon="1.96428">
        <ele>107.681423</ele>
        <time>2016-05-08T15:40:03Z</time>
      </trkpt>
      <trkpt lat="48.71867" lon="1.96428">
        <ele>106.700832</ele>
        <time>2016-05-08T15:40:04Z</time>
      </trkpt>
      <trkpt lat="48.71867" lon="1.96427">
        <ele>105.408474</ele>
        <time>2016-05-08T15:40:05Z</time>
      </trkpt>
      <trkpt lat="48.71867" lon="1.96426">
        <ele>106.313992</ele>
        <time>2016-05-08T15:40:06Z</time>
      </trkpt>
      <trkpt lat="48.71868" lon="1.96425">
        <ele>106.244473</ele>
        <time>2016-05-08T15:40:07Z</time>
      </trkpt>
      <trkpt lat="48.71869" lon="1.96424">
        <ele>105.806118</ele>
        <time>2016-05-08T15:40:08Z</time>
      </trkpt>
      <trkpt lat="48.71869" lon="1.96422">
        <ele>105.92947</ele>
        <time>2016-05-08T15:40:09Z</time>
      </trkpt>
      <trkpt lat="48.71869" lon="1.96421">
        <ele>106.457485</ele>
        <time>2016-05-08T15:40:10Z</time>
      </trkpt>
      <trkpt lat="48.71869" lon="1.9642">
        <ele>106.766933</ele>
        <time>2016-05-08T15:40:11Z</time>
      </trkpt>
      <trkpt lat="48.71869" lon="1.96419">
        <ele>107.661465</ele>
        <time>2016-05-08T15:40:12Z</time>
      </trkpt>
      <trkpt lat="48.71869" lon="1.96417">
        <ele>108.474148</ele>
        <time>2016-05-08T15:40:13Z</time>
      </trkpt>
      <trkpt lat="48.71869" lon="1.96416">
        <ele>108.128017</ele>
        <time>2016-05-08T15:40:14Z</time>
      </trkpt>
      <trkpt lat="48.71869" lon="1.96414">
        <ele>107.924953</ele>
        <time>2016-05-08T15:40:15Z</time>
      </trkpt>
      <trkpt lat="48.71869" lon="1.96412">
        <ele>108.589931</ele>
        <time>2016-05-08T15:40:16Z</time>
      </trkpt>
      <trkpt lat="48.71869" lon="1.96411">
        <ele>108.000515</ele>
        <time>2016-05-08T15:40:18Z</time>
      </trkpt>
      <trkpt lat="48.71868" lon="1.9641">
        <ele>107.602016</ele>
        <time>2016-05-08T15:40:19Z</time>
      </trkpt>
      <trkpt lat="48.71868" lon="1.9641">
        <ele>107.233486</ele>
        <time>2016-05-08T15:40:21Z</time>
      </trkpt>
      <trkpt lat="48.71868" lon="1.96411">
        <ele>107.264065</ele>
        <time>2016-05-08T15:40:22Z</time>
      </trkpt>
      <trkpt lat="48.71869" lon="1.96411">
        <ele>106.802212</ele>
        <time>2016-05-08T15:40:23Z</time>
      </trkpt>
      <trkpt lat="48.71869" lon="1.96411">
        <ele>106.781948</ele>
        <time>2016-05-08T15:40:24Z</time>
      </trkpt>
      <trkpt lat="48.71869" lon="1.96411">
        <ele>106.378994</ele>
        <time>2016-05-08T15:40:25Z</time>
      </trkpt>
      <trkpt lat="48.71869" lon="1.96411">
        <ele>106.521938</ele>
        <time>2016-05-08T15:40:26Z</time>
      </trkpt>
      <trkpt lat="48.71868" lon="1.96411">
        <ele>107.116482</ele>
        <time>2016-05-08T15:40:27Z</time>
      </trkpt>
      <trkpt lat="48.71868" lon="1.96411">
        <ele>108.645473</ele>
        <time>2016-05-08T15:40:28Z</time>
      </trkpt>
      <trkpt lat="48.71867" lon="1.96411">
        <ele>109.308559</ele>
        <time>2016-05-08T15:40:29Z</time>
      </trkpt>
      <trkpt lat="48.71866" lon="1.96411">
        <ele>109.556545</ele>
        <time>2016-05-08T15:40:30Z</time>
      </trkpt>
      <trkpt lat="48.71866" lon="1.9641">
        <ele>109.960659</ele>
        <time>2016-05-08T15:40:31Z</time>
      </trkpt>
      <trkpt lat="48.71865" lon="1.9641">
        <ele>111.20425</ele>
        <time>2016-05-08T15:40:32Z</time>
      </trkpt>
      <trkpt lat="48.71865" lon="1.9641">
        <ele>110.824917</ele>
        <time>2016-05-08T15:40:33Z</time>
      </trkpt>
      <trkpt lat="48.71865" lon="1.9641">
        <ele>110.972256</ele>
        <time>2016-05-08T15:40:34Z</time>
      </trkpt>
      <trkpt lat="48.71865" lon="1.9641">
        <ele>110.914761</ele>
        <time>2016-05-08T15:40:35Z</time>
      </trkpt>
      <trkpt lat="48.71865" lon="1.9641">
        <ele>110.467495</ele>
        <time>2016-05-08T15:40:36Z</time>
      </trkpt>
      <trkpt lat="48.71865" lon="1.9641">
        <ele>109.947292</ele>
        <time>2016-05-08T15:40:37Z</time>
      </trkpt>
      <trkpt lat="48.71865" lon="1.9641">
        <ele>110.86813</ele>
        <time>2016-05-08T15:40:38Z</time>
      </trkpt>
      <trkpt lat="48.71865" lon="1.9641">
        <ele>111.047512</ele>
        <time>2016-05-08T15:40:39Z</time>
      </trkpt>
      <trkpt lat="48.71868" lon="1.96408">
        <ele>110.565029</ele>
        <time>2016-05-08T15:40:40Z</time>
      </trkpt>
      <trkpt lat="48.71868" lon="1.96408">
        <ele>110.219631</ele>
        <time>2016-05-08T15:40:41Z</time>
      </trkpt>
      <trkpt lat="48.71868" lon="1.96408">
        <ele>111.407253</ele>
        <time>2016-05-08T15:40:42Z</time>
      </trkpt>
      <trkpt lat="48.71868" lon="1.96408">
        <ele>112.318264</ele>
        <time>2016-05-08T15:40:43Z</time>
      </trkpt>
      <trkpt lat="48.71868" lon="1.96408">
        <ele>110.674404</ele>
        <time>2016-05-08T15:40:44Z</time>
      </trkpt>
      <trkpt lat="48.71868" lon="1.96408">
        <ele>111.766994</ele>
        <time>2016-05-08T15:40:45Z</time>
      </trkpt>
      <trkpt lat="48.71868" lon="1.96408">
        <ele>111.761379</ele>
        <time>2016-05-08T15:40:46Z</time>
      </trkpt>
      <trkpt lat="48.71868" lon="1.96408">
        <ele>111.764248</ele>
        <time>2016-05-08T15:40:47Z</time>
      </trkpt>
      <trkpt lat="48.71868" lon="1.96408">
        <ele>111.775845</ele>
        <time>2016-05-08T15:40:48Z</time>
      </trkpt>
      <trkpt lat="48.71868" lon="1.96408">
        <ele>111.776821</ele>
        <time>2016-05-08T15:40:49Z</time>
      </trkpt>
      <trkpt lat="48.71868" lon="1.96408">
        <ele>111.778835</ele>
        <time>2016-05-08T15:40:50Z</time>
      </trkpt>
      <trkpt lat="48.71868" lon="1.96408">
        <ele>111.786037</ele>
        <time>2016-05-08T15:40:51Z</time>
      </trkpt>
      <trkpt lat="48.71868" lon="1.96408">
        <ele>111.785732</ele>
        <time>2016-05-08T15:40:52Z</time>
      </trkpt>
      <trkpt lat="48.71868" lon="1.96408">
        <ele>111.809475</ele>
        <time>2016-05-08T15:40:53Z</time>
      </trkpt>
      <trkpt lat="48.71868" lon="1.96408">
        <ele>111.805202</ele>
        <time>2016-05-08T15:40:54Z</time>
      </trkpt>
      <trkpt lat="48.71868" lon="1.96408">
        <ele>111.801357</ele>
        <time>2016-05-08T15:40:55Z</time>
      </trkpt>
      <trkpt lat="48.71868" lon="1.96408">
        <ele>111.794033</ele>
        <time>2016-05-08T15:40:56Z</time>
      </trkpt>
      <trkpt lat="48.71868" lon="1.96408">
        <ele>111.790249</ele>
        <time>2016-05-08T15:40:57Z</time>
      </trkpt>
      <trkpt lat="48.71868" lon="1.96408">
        <ele>111.786221</ele>
        <time>2016-05-08T15:40:58Z</time>
      </trkpt>
      <trkpt lat="48.71868" lon="1.96408">
        <ele>111.778225</ele>
        <time>2016-05-08T15:40:59Z</time>
      </trkpt>
      <trkpt lat="48.71868" lon="1.96408">
        <ele>111.774868</ele>
        <time>2016-05-08T15:41:00Z</time>
      </trkpt>
      <trkpt lat="48.71868" lon="1.96408">
        <ele>111.775417</ele>
        <time>2016-05-08T15:41:01Z</time>
      </trkpt>
      <trkpt lat="48.71868" lon="1.96408">
        <ele>111.768642</ele>
        <time>2016-05-08T15:41:02Z</time>
      </trkpt>
      <trkpt lat="48.71868" lon="1.96408">
        <ele>111.780972</ele>
        <time>2016-05-08T15:41:03Z</time>
      </trkpt>
      <trkpt lat="48.71868" lon="1.96408">
        <ele>111.784512</ele>
        <time>2016-05-08T15:41:04Z</time>
      </trkpt>
      <trkpt lat="48.71868" lon="1.96408">
        <ele>111.909512</ele>
        <time>2016-05-08T15:41:05Z</time>
      </trkpt>
      <trkpt lat="48.71868" lon="1.96408">
        <ele>111.936245</ele>
        <time>2016-05-08T15:41:06Z</time>
      </trkpt>
      <trkpt lat="48.71868" lon="1.96408">
        <ele>111.934597</ele>
        <time>2016-05-08T15:41:07Z</time>
      </trkpt>
      <trkpt lat="48.71868" lon="1.96408">
        <ele>111.938747</ele>
        <time>2016-05-08T15:41:08Z</time>
      </trkpt>
      <trkpt lat="48.71868" lon="1.96408">
        <ele>111.935452</ele>
        <time>2016-05-08T15:41:09Z</time>
      </trkpt>
      <trkpt lat="48.71868" lon="1.96408">
        <ele>111.915493</ele>
        <time>2016-05-08T15:41:10Z</time>
      </trkpt>
      <trkpt lat="48.71868" lon="1.96408">
        <ele>111.923244</ele>
        <time>2016-05-08T15:41:11Z</time>
      </trkpt>
      <trkpt lat="48.71868" lon="1.96408">
        <ele>111.926357</ele>
        <time>2016-05-08T15:41:12Z</time>
      </trkpt>
      <trkpt lat="48.71868" lon="1.96408">
        <ele>111.927639</ele>
        <time>2016-05-08T15:41:13Z</time>
      </trkpt>
      <trkpt lat="48.71868" lon="1.96408">
        <ele>111.874355</ele>
        <time>2016-05-08T15:41:14Z</time>
      </trkpt>
      <trkpt lat="48.71868" lon="1.96408">
        <ele>111.873867</ele>
        <time>2016-05-08T15:41:15Z</time>
      </trkpt>
      <trkpt lat="48.71868" lon="1.96408">
        <ele>111.873318</ele>
        <time>2016-05-08T15:41:16Z</time>
      </trkpt>
      <trkpt lat="48.71868" lon="1.96408">
        <ele>111.866909</ele>
        <time>2016-05-08T15:41:17Z</time>
      </trkpt>
      <trkpt lat="48.71868" lon="1.96408">
        <ele>111.866604</ele>
        <time>2016-05-08T15:41:18Z</time>
      </trkpt>
      <trkpt lat="48.71868" lon="1.96408">
        <ele>111.873623</ele>
        <time>2016-05-08T15:41:19Z</time>
      </trkpt>
      <trkpt lat="48.71868" lon="1.96408">
        <ele>111.870632</ele>
        <time>2016-05-08T15:41:20Z</time>
      </trkpt>
      <trkpt lat="48.71868" lon="1.96408">
        <ele>111.875393</ele>
        <time>2016-05-08T15:41:21Z</time>
      </trkpt>
      <trkpt lat="48.71868" lon="1.96408">
        <ele>111.880154</ele>
        <time>2016-05-08T15:41:22Z</time>
      </trkpt>
      <trkpt lat="48.71868" lon="1.96408">
        <ele>111.875332</ele>
        <time>2016-05-08T15:41:23Z</time>
      </trkpt>
      <trkpt lat="48.71868" lon="1.96408">
        <ele>111.877041</ele>
        <time>2016-05-08T15:41:24Z</time>
      </trkpt>
      <trkpt lat="48.71868" lon="1.96408">
        <ele>111.876431</ele>
        <time>2016-05-08T15:41:25Z</time>
      </trkpt>
      <trkpt lat="48.71868" lon="1.96408">
        <ele>111.884304</ele>
        <time>2016-05-08T15:41:26Z</time>
      </trkpt>
      <trkpt lat="48.71868" lon="1.96408">
        <ele>111.884121</ele>
        <time>2016-05-08T15:41:27Z</time>
      </trkpt>
      <trkpt lat="48.71868" lon="1.96408">
        <ele>111.883633</ele>
        <time>2016-05-08T15:41:28Z</time>
      </trkpt>
      <trkpt lat="48.71868" lon="1.96408">
        <ele>111.883572</ele>
        <time>2016-05-08T15:41:29Z</time>
      </trkpt>
      <trkpt lat="48.71868" lon="1.96408">
        <ele>111.884609</ele>
        <time>2016-05-08T15:41:30Z</time>
      </trkpt>
      <trkpt lat="48.71868" lon="1.96408">
        <ele>111.887112</ele>
        <time>2016-05-08T15:41:31Z</time>
      </trkpt>
      <trkpt lat="48.71868" lon="1.96408">
        <ele>111.886562</ele>
        <time>2016-05-08T15:41:32Z</time>
      </trkpt>
      <trkpt lat="48.71868" lon="1.96408">
        <ele>111.884243</ele>
        <time>2016-05-08T15:41:33Z</time>
      </trkpt>
      <trkpt lat="48.71868" lon="1.96408">
        <ele>111.883999</ele>
        <time>2016-05-08T15:41:34Z</time>
      </trkpt>
      <trkpt lat="48.71869" lon="1.96408">
        <ele>111.482265</ele>
        <time>2016-05-08T15:41:35Z</time>
      </trkpt>
      <trkpt lat="48.71869" lon="1.96408">
        <ele>110.957119</ele>
        <time>2016-05-08T15:41:36Z</time>
      </trkpt>
      <trkpt lat="48.71869" lon="1.96408">
        <ele>111.435818</ele>
        <time>2016-05-08T15:41:37Z</time>
      </trkpt>
      <trkpt lat="48.7187" lon="1.96408">
        <ele>112.028286</ele>
        <time>2016-05-08T15:41:38Z</time>
      </trkpt>
      <trkpt lat="48.7187" lon="1.96408">
        <ele>112.81686</ele>
        <time>2016-05-08T15:41:39Z</time>
      </trkpt>
      <trkpt lat="48.71871" lon="1.96408">
        <ele>113.58395</ele>
        <time>2016-05-08T15:41:40Z</time>
      </trkpt>
      <trkpt lat="48.71871" lon="1.96408">
        <ele>113.644497</ele>
        <time>2016-05-08T15:41:41Z</time>
      </trkpt>
      <trkpt lat="48.71872" lon="1.96407">
        <ele>112.918545</ele>
        <time>2016-05-08T15:41:42Z</time>
      </trkpt>
      <trkpt lat="48.71872" lon="1.96406">
        <ele>112.145901</ele>
        <time>2016-05-08T15:41:43Z</time>
      </trkpt>
      <trkpt lat="48.71873" lon="1.96405">
        <ele>111.538723</ele>
        <time>2016-05-08T15:41:44Z</time>
      </trkpt>
      <trkpt lat="48.71873" lon="1.96403">
        <ele>109.175869</ele>
        <time>2016-05-08T15:41:45Z</time>
      </trkpt>
      <trkpt lat="48.71873" lon="1.96402">
        <ele>108.639675</ele>
        <time>2016-05-08T15:41:46Z</time>
      </trkpt>
      <trkpt lat="48.71873" lon="1.964">
        <ele>108.453457</ele>
        <time>2016-05-08T15:41:47Z</time>
      </trkpt>
      <trkpt lat="48.71873" lon="1.96399">
        <ele>106.759609</ele>
        <time>2016-05-08T15:41:48Z</time>
      </trkpt>
      <trkpt lat="48.71873" lon="1.96397">
        <ele>107.424343</ele>
        <time>2016-05-08T15:41:49Z</time>
      </trkpt>
      <trkpt lat="48.71873" lon="1.96396">
        <ele>108.292324</ele>
        <time>2016-05-08T15:41:50Z</time>
      </trkpt>
      <trkpt lat="48.71873" lon="1.96393">
        <ele>106.338833</ele>
        <time>2016-05-08T15:41:51Z</time>
      </trkpt>
      <trkpt lat="48.71873" lon="1.96391">
        <ele>106.061123</ele>
        <time>2016-05-08T15:41:52Z</time>
      </trkpt>
      <trkpt lat="48.71873" lon="1.96388">
        <ele>104.047634</ele>
        <time>2016-05-08T15:41:53Z</time>
      </trkpt>
      <trkpt lat="48.71874" lon="1.96387">
        <ele>99.836575</ele>
        <time>2016-05-08T15:41:54Z</time>
      </trkpt>
      <trkpt lat="48.71874" lon="1.96385">
        <ele>99.215481</ele>
        <time>2016-05-08T15:41:55Z</time>
      </trkpt>
      <trkpt lat="48.71875" lon="1.96384">
        <ele>99.922329</ele>
        <time>2016-05-08T15:41:56Z</time>
      </trkpt>
      <trkpt lat="48.71875" lon="1.96382">
        <ele>99.993984</ele>
        <time>2016-05-08T15:41:57Z</time>
      </trkpt>
      <trkpt lat="48.71876" lon="1.96381">
        <ele>100.389553</ele>
        <time>2016-05-08T15:41:58Z</time>
      </trkpt>
      <trkpt lat="48.71877" lon="1.9638">
        <ele>101.406704</ele>
        <time>2016-05-08T15:41:59Z</time>
      </trkpt>
      <trkpt lat="48.71879" lon="1.96379">
        <ele>101.086514</ele>
        <time>2016-05-08T15:42:00Z</time>
      </trkpt>
      <trkpt lat="48.71879" lon="1.96379">
        <ele>100.713955</ele>
        <time>2016-05-08T15:42:01Z</time>
      </trkpt>
      <trkpt lat="48.7188" lon="1.96378">
        <ele>101.094753</ele>
        <time>2016-05-08T15:42:02Z</time>
      </trkpt>
      <trkpt lat="48.71881" lon="1.96377">
        <ele>101.510281</ele>
        <time>2016-05-08T15:42:03Z</time>
      </trkpt>
      <trkpt lat="48.71881" lon="1.96376">
        <ele>101.897121</ele>
        <time>2016-05-08T15:42:04Z</time>
      </trkpt>
      <trkpt lat="48.71881" lon="1.96375">
        <ele>103.63998</ele>
        <time>2016-05-08T15:42:05Z</time>
      </trkpt>
      <trkpt lat="48.71881" lon="1.96374">
        <ele>103.463345</ele>
        <time>2016-05-08T15:42:06Z</time>
      </trkpt>
      <trkpt lat="48.71881" lon="1.96373">
        <ele>103.957912</ele>
        <time>2016-05-08T15:42:07Z</time>
      </trkpt>
      <trkpt lat="48.71881" lon="1.96372">
        <ele>104.768337</ele>
        <time>2016-05-08T15:42:08Z</time>
      </trkpt>
      <trkpt lat="48.71881" lon="1.96371">
        <ele>105.067654</ele>
        <time>2016-05-08T15:42:09Z</time>
      </trkpt>
      <trkpt lat="48.71882" lon="1.96369">
        <ele>105.861416</ele>
        <time>2016-05-08T15:42:10Z</time>
      </trkpt>
      <trkpt lat="48.71882" lon="1.96367">
        <ele>105.309109</ele>
        <time>2016-05-08T15:42:11Z</time>
      </trkpt>
      <trkpt lat="48.71883" lon="1.96364">
        <ele>105.444485</ele>
        <time>2016-05-08T15:42:12Z</time>
      </trkpt>
      <trkpt lat="48.71884" lon="1.96363">
        <ele>104.929409</ele>
        <time>2016-05-08T15:42:13Z</time>
      </trkpt>
      <trkpt lat="48.71884" lon="1.96361">
        <ele>105.647671</ele>
        <time>2016-05-08T15:42:14Z</time>
      </trkpt>
      <trkpt lat="48.71885" lon="1.9636">
        <ele>106.394863</ele>
        <time>2016-05-08T15:42:15Z</time>
      </trkpt>
      <trkpt lat="48.71885" lon="1.96358">
        <ele>106.418789</ele>
        <time>2016-05-08T15:42:16Z</time>
      </trkpt>
      <trkpt lat="48.71885" lon="1.96356">
        <ele>106.689846</ele>
        <time>2016-05-08T15:42:17Z</time>
      </trkpt>
      <trkpt lat="48.71886" lon="1.96355">
        <ele>106.406216</ele>
        <time>2016-05-08T15:42:18Z</time>
      </trkpt>
      <trkpt lat="48.71886" lon="1.96353">
        <ele>107.102688</ele>
        <time>2016-05-08T15:42:19Z</time>
      </trkpt>
      <trkpt lat="48.71886" lon="1.96351">
        <ele>107.514431</ele>
        <time>2016-05-08T15:42:20Z</time>
      </trkpt>
      <trkpt lat="48.71887" lon="1.96349">
        <ele>108.072414</ele>
        <time>2016-05-08T15:42:21Z</time>
      </trkpt>
      <trkpt lat="48.71887" lon="1.96347">
        <ele>108.237026</ele>
        <time>2016-05-08T15:42:22Z</time>
      </trkpt>
      <trkpt lat="48.71888" lon="1.96346">
        <ele>108.571621</ele>
        <time>2016-05-08T15:42:23Z</time>
      </trkpt>
      <trkpt lat="48.71888" lon="1.96344">
        <ele>108.388638</ele>
        <time>2016-05-08T15:42:24Z</time>
      </trkpt>
      <trkpt lat="48.71888" lon="1.96343">
        <ele>107.807034</ele>
        <time>2016-05-08T15:42:25Z</time>
      </trkpt>
      <trkpt lat="48.71888" lon="1.96341">
        <ele>108.498928</ele>
        <time>2016-05-08T15:42:26Z</time>
      </trkpt>
      <trkpt lat="48.71889" lon="1.9634">
        <ele>108.142178</ele>
        <time>2016-05-08T15:42:27Z</time>
      </trkpt>
      <trkpt lat="48.71889" lon="1.96339">
        <ele>108.296719</ele>
        <time>2016-05-08T15:42:28Z</time>
      </trkpt>
      <trkpt lat="48.7189" lon="1.96337">
        <ele>108.306606</ele>
        <time>2016-05-08T15:42:29Z</time>
      </trkpt>
      <trkpt lat="48.7189" lon="1.96336">
        <ele>108.841763</ele>
        <time>2016-05-08T15:42:30Z</time>
      </trkpt>
      <trkpt lat="48.7189" lon="1.96334">
        <ele>108.617031</ele>
        <time>2016-05-08T15:42:31Z</time>
      </trkpt>
      <trkpt lat="48.7189" lon="1.96332">
        <ele>108.593044</ele>
        <time>2016-05-08T15:42:32Z</time>
      </trkpt>
      <trkpt lat="48.71891" lon="1.9633">
        <ele>108.914394</ele>
        <time>2016-05-08T15:42:33Z</time>
      </trkpt>
      <trkpt lat="48.71892" lon="1.96328">
        <ele>108.899746</ele>
        <time>2016-05-08T15:42:34Z</time>
      </trkpt>
      <trkpt lat="48.71892" lon="1.96327">
        <ele>109.088833</ele>
        <time>2016-05-08T15:42:35Z</time>
      </trkpt>
      <trkpt lat="48.71893" lon="1.96326">
        <ele>108.976589</ele>
        <time>2016-05-08T15:42:36Z</time>
      </trkpt>
      <trkpt lat="48.71893" lon="1.96324">
        <ele>109.24905</ele>
        <time>2016-05-08T15:42:37Z</time>
      </trkpt>
      <trkpt lat="48.71894" lon="1.96323">
        <ele>108.797024</ele>
        <time>2016-05-08T15:42:38Z</time>
      </trkpt>
      <trkpt lat="48.71894" lon="1.96321">
        <ele>108.915981</ele>
        <time>2016-05-08T15:42:39Z</time>
      </trkpt>
      <trkpt lat="48.71894" lon="1.9632">
        <ele>108.810146</ele>
        <time>2016-05-08T15:42:40Z</time>
      </trkpt>
      <trkpt lat="48.71895" lon="1.96319">
        <ele>108.961758</ele>
        <time>2016-05-08T15:42:41Z</time>
      </trkpt>
      <trkpt lat="48.71896" lon="1.96317">
        <ele>107.419155</ele>
        <time>2016-05-08T15:42:42Z</time>
      </trkpt>
      <trkpt lat="48.71896" lon="1.96316">
        <ele>107.522854</ele>
        <time>2016-05-08T15:42:43Z</time>
      </trkpt>
      <trkpt lat="48.71897" lon="1.96314">
        <ele>107.92416</ele>
        <time>2016-05-08T15:42:44Z</time>
      </trkpt>
      <trkpt lat="48.71897" lon="1.96312">
        <ele>108.644497</ele>
        <time>2016-05-08T15:42:45Z</time>
      </trkpt>
      <trkpt lat="48.71897" lon="1.96309">
        <ele>109.464443</ele>
        <time>2016-05-08T15:42:46Z</time>
      </trkpt>
      <trkpt lat="48.71897" lon="1.96306">
        <ele>109.441494</ele>
        <time>2016-05-08T15:42:47Z</time>
      </trkpt>
      <trkpt lat="48.71898" lon="1.96304">
        <ele>110.026516</ele>
        <time>2016-05-08T15:42:48Z</time>
      </trkpt>
      <trkpt lat="48.71898" lon="1.96302">
        <ele>111.181606</ele>
        <time>2016-05-08T15:42:49Z</time>
      </trkpt>
      <trkpt lat="48.71898" lon="1.96301">
        <ele>110.256008</ele>
        <time>2016-05-08T15:42:50Z</time>
      </trkpt>
      <trkpt lat="48.71899" lon="1.96299">
        <ele>110.279324</ele>
        <time>2016-05-08T15:42:51Z</time>
      </trkpt>
      <trkpt lat="48.71899" lon="1.96297">
        <ele>110.761806</ele>
        <time>2016-05-08T15:42:52Z</time>
      </trkpt>
      <trkpt lat="48.719" lon="1.96295">
        <ele>110.323452</ele>
        <time>2016-05-08T15:42:53Z</time>
      </trkpt>
      <trkpt lat="48.71901" lon="1.96294">
        <ele>109.645107</ele>
        <time>2016-05-08T15:42:54Z</time>
      </trkpt>
      <trkpt lat="48.71902" lon="1.96292">
        <ele>108.514248</ele>
        <time>2016-05-08T15:42:55Z</time>
      </trkpt>
      <trkpt lat="48.71904" lon="1.96291">
        <ele>108.086819</ele>
        <time>2016-05-08T15:42:56Z</time>
      </trkpt>
      <trkpt lat="48.71905" lon="1.9629">
        <ele>107.307461</ele>
        <time>2016-05-08T15:42:57Z</time>
      </trkpt>
      <trkpt lat="48.71906" lon="1.96288">
        <ele>107.364712</ele>
        <time>2016-05-08T15:42:58Z</time>
      </trkpt>
      <trkpt lat="48.71906" lon="1.96286">
        <ele>107.132473</ele>
        <time>2016-05-08T15:42:59Z</time>
      </trkpt>
      <trkpt lat="48.71906" lon="1.96284">
        <ele>106.47543</ele>
        <time>2016-05-08T15:43:00Z</time>
      </trkpt>
      <trkpt lat="48.71907" lon="1.96282">
        <ele>106.546841</ele>
        <time>2016-05-08T15:43:01Z</time>
      </trkpt>
      <trkpt lat="48.71907" lon="1.96281">
        <ele>105.054409</ele>
        <time>2016-05-08T15:43:02Z</time>
      </trkpt>
      <trkpt lat="48.71907" lon="1.9628">
        <ele>105.456326</ele>
        <time>2016-05-08T15:43:03Z</time>
      </trkpt>
      <trkpt lat="48.71908" lon="1.96278">
        <ele>106.286098</ele>
        <time>2016-05-08T15:43:04Z</time>
      </trkpt>
      <trkpt lat="48.71909" lon="1.96277">
        <ele>103.618374</ele>
        <time>2016-05-08T15:43:05Z</time>
      </trkpt>
      <trkpt lat="48.71911" lon="1.96277">
        <ele>103.736233</ele>
        <time>2016-05-08T15:43:06Z</time>
      </trkpt>
      <trkpt lat="48.71912" lon="1.96277">
        <ele>103.506435</ele>
        <time>2016-05-08T15:43:07Z</time>
      </trkpt>
      <trkpt lat="48.71913" lon="1.96277">
        <ele>103.197598</ele>
        <time>2016-05-08T15:43:08Z</time>
      </trkpt>
      <trkpt lat="48.71914" lon="1.96276">
        <ele>104.669216</ele>
        <time>2016-05-08T15:43:09Z</time>
      </trkpt>
      <trkpt lat="48.71915" lon="1.96275">
        <ele>104.975857</ele>
        <time>2016-05-08T15:43:10Z</time>
      </trkpt>
      <trkpt lat="48.71916" lon="1.96274">
        <ele>105.02322</ele>
        <time>2016-05-08T15:43:11Z</time>
      </trkpt>
      <trkpt lat="48.71916" lon="1.96273">
        <ele>105.974148</ele>
        <time>2016-05-08T15:43:12Z</time>
      </trkpt>
      <trkpt lat="48.71917" lon="1.96271">
        <ele>105.936916</ele>
        <time>2016-05-08T15:43:13Z</time>
      </trkpt>
      <trkpt lat="48.71917" lon="1.9627">
        <ele>106.771999</ele>
        <time>2016-05-08T15:43:14Z</time>
      </trkpt>
      <trkpt lat="48.71918" lon="1.96268">
        <ele>107.284145</ele>
        <time>2016-05-08T15:43:15Z</time>
      </trkpt>
      <trkpt lat="48.71918" lon="1.96267">
        <ele>108.185757</ele>
        <time>2016-05-08T15:43:16Z</time>
      </trkpt>
      <trkpt lat="48.71918" lon="1.96265">
        <ele>108.321194</ele>
        <time>2016-05-08T15:43:17Z</time>
      </trkpt>
      <trkpt lat="48.71918" lon="1.96264">
        <ele>109.38522</ele>
        <time>2016-05-08T15:43:18Z</time>
      </trkpt>
      <trkpt lat="48.71918" lon="1.96262">
        <ele>109.066738</ele>
        <time>2016-05-08T15:43:19Z</time>
      </trkpt>
      <trkpt lat="48.71918" lon="1.9626">
        <ele>110.164211</ele>
        <time>2016-05-08T15:43:20Z</time>
      </trkpt>
      <trkpt lat="48.71919" lon="1.96258">
        <ele>109.418911</ele>
        <time>2016-05-08T15:43:21Z</time>
      </trkpt>
      <trkpt lat="48.71919" lon="1.96257">
        <ele>109.003078</ele>
        <time>2016-05-08T15:43:22Z</time>
      </trkpt>
      <trkpt lat="48.7192" lon="1.96255">
        <ele>109.914394</ele>
        <time>2016-05-08T15:43:23Z</time>
      </trkpt>
      <trkpt lat="48.71921" lon="1.96254">
        <ele>109.690823</ele>
        <time>2016-05-08T15:43:24Z</time>
      </trkpt>
      <trkpt lat="48.71922" lon="1.96253">
        <ele>108.346523</ele>
        <time>2016-05-08T15:43:25Z</time>
      </trkpt>
      <trkpt lat="48.71923" lon="1.96252">
        <ele>109.259365</ele>
        <time>2016-05-08T15:43:26Z</time>
      </trkpt>
      <trkpt lat="48.71923" lon="1.96251">
        <ele>109.75021</ele>
        <time>2016-05-08T15:43:27Z</time>
      </trkpt>
      <trkpt lat="48.71923" lon="1.96249">
        <ele>110.300014</ele>
        <time>2016-05-08T15:43:28Z</time>
      </trkpt>
      <trkpt lat="48.71923" lon="1.96247">
        <ele>109.771389</ele>
        <time>2016-05-08T15:43:29Z</time>
      </trkpt>
      <trkpt lat="48.71923" lon="1.96245">
        <ele>109.619045</ele>
        <time>2016-05-08T15:43:30Z</time>
      </trkpt>
      <trkpt lat="48.71923" lon="1.96243">
        <ele>110.410976</ele>
        <time>2016-05-08T15:43:31Z</time>
      </trkpt>
      <trkpt lat="48.71923" lon="1.96242">
        <ele>111.356655</ele>
        <time>2016-05-08T15:43:32Z</time>
      </trkpt>
      <trkpt lat="48.71924" lon="1.96241">
        <ele>111.238979</ele>
        <time>2016-05-08T15:43:33Z</time>
      </trkpt>
      <trkpt lat="48.71924" lon="1.96239">
        <ele>110.824673</ele>
        <time>2016-05-08T15:43:34Z</time>
      </trkpt>
      <trkpt lat="48.71924" lon="1.96237">
        <ele>110.233547</ele>
        <time>2016-05-08T15:43:35Z</time>
      </trkpt>
      <trkpt lat="48.71925" lon="1.96235">
        <ele>108.028286</ele>
        <time>2016-05-08T15:43:36Z</time>
      </trkpt>
      <trkpt lat="48.71925" lon="1.96232">
        <ele>108.558743</ele>
        <time>2016-05-08T15:43:37Z</time>
      </trkpt>
      <trkpt lat="48.71926" lon="1.96231">
        <ele>108.228786</ele>
        <time>2016-05-08T15:43:38Z</time>
      </trkpt>
      <trkpt lat="48.71927" lon="1.96229">
        <ele>107.933681</ele>
        <time>2016-05-08T15:43:39Z</time>
      </trkpt>
      <trkpt lat="48.71928" lon="1.96227">
        <ele>108.632473</ele>
        <time>2016-05-08T15:43:40Z</time>
      </trkpt>
      <trkpt lat="48.71929" lon="1.96225">
        <ele>108.231533</ele>
        <time>2016-05-08T15:43:41Z</time>
      </trkpt>
      <trkpt lat="48.71929" lon="1.96223">
        <ele>108.228359</ele>
        <time>2016-05-08T15:43:42Z</time>
      </trkpt>
      <trkpt lat="48.7193" lon="1.96221">
        <ele>108.257168</ele>
        <time>2016-05-08T15:43:43Z</time>
      </trkpt>
      <trkpt lat="48.71932" lon="1.96219">
        <ele>109.005947</ele>
        <time>2016-05-08T15:43:44Z</time>
      </trkpt>
      <trkpt lat="48.71933" lon="1.96217">
        <ele>108.522121</ele>
        <time>2016-05-08T15:43:45Z</time>
      </trkpt>
      <trkpt lat="48.71933" lon="1.96215">
        <ele>109.073452</ele>
        <time>2016-05-08T15:43:46Z</time>
      </trkpt>
      <trkpt lat="48.71934" lon="1.96213">
        <ele>110.191494</ele>
        <time>2016-05-08T15:43:47Z</time>
      </trkpt>
      <trkpt lat="48.71934" lon="1.96212">
        <ele>110.485928</ele>
        <time>2016-05-08T15:43:48Z</time>
      </trkpt>
      <trkpt lat="48.71935" lon="1.9621">
        <ele>110.514309</ele>
        <time>2016-05-08T15:43:49Z</time>
      </trkpt>
      <trkpt lat="48.71936" lon="1.96209">
        <ele>111.373928</ele>
        <time>2016-05-08T15:43:50Z</time>
      </trkpt>
      <trkpt lat="48.71937" lon="1.96208">
        <ele>109.670986</ele>
        <time>2016-05-08T15:43:51Z</time>
      </trkpt>
      <trkpt lat="48.71938" lon="1.96206">
        <ele>109.229702</ele>
        <time>2016-05-08T15:43:52Z</time>
      </trkpt>
      <trkpt lat="48.71938" lon="1.96205">
        <ele>107.999966</ele>
        <time>2016-05-08T15:43:53Z</time>
      </trkpt>
      <trkpt lat="48.71937" lon="1.96204">
        <ele>108.082973</ele>
        <time>2016-05-08T15:43:54Z</time>
      </trkpt>
      <trkpt lat="48.71936" lon="1.96203">
        <ele>107.742886</ele>
        <time>2016-05-08T15:43:55Z</time>
      </trkpt>
      <trkpt lat="48.71935" lon="1.96203">
        <ele>107.232815</ele>
        <time>2016-05-08T15:43:56Z</time>
      </trkpt>
      <trkpt lat="48.71934" lon="1.96202">
        <ele>106.385708</ele>
        <time>2016-05-08T15:43:57Z</time>
      </trkpt>
      <trkpt lat="48.71934" lon="1.962">
        <ele>105.880703</ele>
        <time>2016-05-08T15:43:58Z</time>
      </trkpt>
      <trkpt lat="48.71934" lon="1.96198">
        <ele>105.987087</ele>
        <time>2016-05-08T15:43:59Z</time>
      </trkpt>
      <trkpt lat="48.71935" lon="1.96196">
        <ele>105.265102</ele>
        <time>2016-05-08T15:44:00Z</time>
      </trkpt>
      <trkpt lat="48.71936" lon="1.96193">
        <ele>104.697598</ele>
        <time>2016-05-08T15:44:01Z</time>
      </trkpt>
      <trkpt lat="48.71936" lon="1.96191">
        <ele>104.80917</ele>
        <time>2016-05-08T15:44:02Z</time>
      </trkpt>
      <trkpt lat="48.71937" lon="1.96187">
        <ele>104.006069</ele>
        <time>2016-05-08T15:44:03Z</time>
      </trkpt>
      <trkpt lat="48.71937" lon="1.96185">
        <ele>104.327847</ele>
        <time>2016-05-08T15:44:04Z</time>
      </trkpt>
      <trkpt lat="48.71937" lon="1.96181">
        <ele>103.532742</ele>
        <time>2016-05-08T15:44:05Z</time>
      </trkpt>
      <trkpt lat="48.71938" lon="1.96178">
        <ele>104.264187</ele>
        <time>2016-05-08T15:44:06Z</time>
      </trkpt>
      <trkpt lat="48.71938" lon="1.96175">
        <ele>104.647549</ele>
        <time>2016-05-08T15:44:07Z</time>
      </trkpt>
      <trkpt lat="48.71939" lon="1.96173">
        <ele>104.197353</ele>
        <time>2016-05-08T15:44:08Z</time>
      </trkpt>
      <trkpt lat="48.71939" lon="1.96171">
        <ele>103.284389</ele>
        <time>2016-05-08T15:44:09Z</time>
      </trkpt>
      <trkpt lat="48.7194" lon="1.96169">
        <ele>103.91824</ele>
        <time>2016-05-08T15:44:10Z</time>
      </trkpt>
      <trkpt lat="48.71941" lon="1.96168">
        <ele>105.216152</ele>
        <time>2016-05-08T15:44:11Z</time>
      </trkpt>
      <trkpt lat="48.71941" lon="1.96166">
        <ele>106.064236</ele>
        <time>2016-05-08T15:44:12Z</time>
      </trkpt>
      <trkpt lat="48.71942" lon="1.96165">
        <ele>106.321926</ele>
        <time>2016-05-08T15:44:13Z</time>
      </trkpt>
      <trkpt lat="48.71942" lon="1.96164">
        <ele>106.602139</ele>
        <time>2016-05-08T15:44:14Z</time>
      </trkpt>
      <trkpt lat="48.71942" lon="1.96162">
        <ele>107.237209</ele>
        <time>2016-05-08T15:44:15Z</time>
      </trkpt>
      <trkpt lat="48.71942" lon="1.9616">
        <ele>106.943264</ele>
        <time>2016-05-08T15:44:16Z</time>
      </trkpt>
      <trkpt lat="48.71942" lon="1.96158">
        <ele>106.739407</ele>
        <time>2016-05-08T15:44:17Z</time>
      </trkpt>
      <trkpt lat="48.71942" lon="1.96157">
        <ele>106.753994</ele>
        <time>2016-05-08T15:44:18Z</time>
      </trkpt>
      <trkpt lat="48.71942" lon="1.96156">
        <ele>106.934292</ele>
        <time>2016-05-08T15:44:19Z</time>
      </trkpt>
      <trkpt lat="48.71942" lon="1.96155">
        <ele>106.336147</ele>
        <time>2016-05-08T15:44:20Z</time>
      </trkpt>
      <trkpt lat="48.71942" lon="1.96153">
        <ele>106.705288</ele>
        <time>2016-05-08T15:44:21Z</time>
      </trkpt>
      <trkpt lat="48.71941" lon="1.96152">
        <ele>106.002346</ele>
        <time>2016-05-08T15:44:22Z</time>
      </trkpt>
      <trkpt lat="48.71941" lon="1.9615">
        <ele>106.527309</ele>
        <time>2016-05-08T15:44:23Z</time>
      </trkpt>
      <trkpt lat="48.71941" lon="1.96148">
        <ele>106.211452</ele>
        <time>2016-05-08T15:44:24Z</time>
      </trkpt>
      <trkpt lat="48.71941" lon="1.96148">
        <ele>106.80978</ele>
        <time>2016-05-08T15:44:25Z</time>
      </trkpt>
      <trkpt lat="48.71941" lon="1.96147">
        <ele>106.719448</ele>
        <time>2016-05-08T15:44:26Z</time>
      </trkpt>
      <trkpt lat="48.7194" lon="1.96146">
        <ele>107.289272</ele>
        <time>2016-05-08T15:44:27Z</time>
      </trkpt>
      <trkpt lat="48.7194" lon="1.96144">
        <ele>107.616055</ele>
        <time>2016-05-08T15:44:28Z</time>
      </trkpt>
      <trkpt lat="48.7194" lon="1.96143">
        <ele>107.692776</ele>
        <time>2016-05-08T15:44:29Z</time>
      </trkpt>
      <trkpt lat="48.71941" lon="1.96142">
        <ele>107.369228</ele>
        <time>2016-05-08T15:44:30Z</time>
      </trkpt>
      <trkpt lat="48.71941" lon="1.9614">
        <ele>107.185757</ele>
        <time>2016-05-08T15:44:31Z</time>
      </trkpt>
      <trkpt lat="48.71941" lon="1.96138">
        <ele>107.054775</ele>
        <time>2016-05-08T15:44:32Z</time>
      </trkpt>
      <trkpt lat="48.71941" lon="1.96136">
        <ele>106.633755</ele>
        <time>2016-05-08T15:44:33Z</time>
      </trkpt>
      <trkpt lat="48.7194" lon="1.96134">
        <ele>106.473415</ele>
        <time>2016-05-08T15:44:34Z</time>
      </trkpt>
      <trkpt lat="48.7194" lon="1.96133">
        <ele>106.758022</ele>
        <time>2016-05-08T15:44:35Z</time>
      </trkpt>
      <trkpt lat="48.7194" lon="1.96131">
        <ele>106.801723</ele>
        <time>2016-05-08T15:44:36Z</time>
      </trkpt>
      <trkpt lat="48.7194" lon="1.96131">
        <ele>106.524746</ele>
        <time>2016-05-08T15:44:37Z</time>
      </trkpt>
      <trkpt lat="48.71939" lon="1.96129">
        <ele>106.633877</ele>
        <time>2016-05-08T15:44:38Z</time>
      </trkpt>
      <trkpt lat="48.71939" lon="1.96128">
        <ele>106.409695</ele>
        <time>2016-05-08T15:44:39Z</time>
      </trkpt>
      <trkpt lat="48.71939" lon="1.96126">
        <ele>106.861416</ele>
        <time>2016-05-08T15:44:40Z</time>
      </trkpt>
      <trkpt lat="48.71939" lon="1.96124">
        <ele>107.009853</ele>
        <time>2016-05-08T15:44:41Z</time>
      </trkpt>
      <trkpt lat="48.71939" lon="1.96122">
        <ele>106.764858</ele>
        <time>2016-05-08T15:44:42Z</time>
      </trkpt>
      <trkpt lat="48.71938" lon="1.9612">
        <ele>106.496609</ele>
        <time>2016-05-08T15:44:43Z</time>
      </trkpt>
      <trkpt lat="48.71938" lon="1.96119">
        <ele>105.859707</ele>
        <time>2016-05-08T15:44:44Z</time>
      </trkpt>
      <trkpt lat="48.71937" lon="1.96117">
        <ele>105.710598</ele>
        <time>2016-05-08T15:44:45Z</time>
      </trkpt>
      <trkpt lat="48.71936" lon="1.96116">
        <ele>104.97366</ele>
        <time>2016-05-08T15:44:46Z</time>
      </trkpt>
      <trkpt lat="48.71936" lon="1.96114">
        <ele>105.517666</ele>
        <time>2016-05-08T15:44:47Z</time>
      </trkpt>
      <trkpt lat="48.71935" lon="1.96111">
        <ele>105.868435</ele>
        <time>2016-05-08T15:44:48Z</time>
      </trkpt>
      <trkpt lat="48.71935" lon="1.9611">
        <ele>106.313076</ele>
        <time>2016-05-08T15:44:49Z</time>
      </trkpt>
      <trkpt lat="48.71934" lon="1.96109">
        <ele>106.323574</ele>
        <time>2016-05-08T15:44:50Z</time>
      </trkpt>
      <trkpt lat="48.71933" lon="1.96108">
        <ele>106.474697</ele>
        <time>2016-05-08T15:44:51Z</time>
      </trkpt>
      <trkpt lat="48.71933" lon="1.96107">
        <ele>106.562222</ele>
        <time>2016-05-08T15:44:52Z</time>
      </trkpt>
      <trkpt lat="48.71932" lon="1.96107">
        <ele>106.390408</ele>
        <time>2016-05-08T15:44:53Z</time>
      </trkpt>
      <trkpt lat="48.71932" lon="1.96106">
        <ele>106.320278</ele>
        <time>2016-05-08T15:44:54Z</time>
      </trkpt>
      <trkpt lat="48.71932" lon="1.96106">
        <ele>106.051968</ele>
        <time>2016-05-08T15:44:55Z</time>
      </trkpt>
      <trkpt lat="48.71932" lon="1.96106">
        <ele>106.151272</ele>
        <time>2016-05-08T15:44:56Z</time>
      </trkpt>
      <trkpt lat="48.71931" lon="1.96105">
        <ele>105.645779</ele>
        <time>2016-05-08T15:44:57Z</time>
      </trkpt>
      <trkpt lat="48.71931" lon="1.96104">
        <ele>105.199306</ele>
        <time>2016-05-08T15:44:58Z</time>
      </trkpt>
      <trkpt lat="48.71931" lon="1.96103">
        <ele>104.94894</ele>
        <time>2016-05-08T15:44:59Z</time>
      </trkpt>
      <trkpt lat="48.7193" lon="1.96102">
        <ele>105.911404</ele>
        <time>2016-05-08T15:45:00Z</time>
      </trkpt>
      <trkpt lat="48.7193" lon="1.96101">
        <ele>105.92355</ele>
        <time>2016-05-08T15:45:01Z</time>
      </trkpt>
      <trkpt lat="48.71929" lon="1.96101">
        <ele>105.085049</ele>
        <time>2016-05-08T15:45:02Z</time>
      </trkpt>
      <trkpt lat="48.71928" lon="1.961">
        <ele>104.861599</ele>
        <time>2016-05-08T15:45:03Z</time>
      </trkpt>
      <trkpt lat="48.71927" lon="1.96099">
        <ele>103.371181</ele>
        <time>2016-05-08T15:45:04Z</time>
      </trkpt>
      <trkpt lat="48.71927" lon="1.96098">
        <ele>104.202541</ele>
        <time>2016-05-08T15:45:05Z</time>
      </trkpt>
      <trkpt lat="48.71926" lon="1.96097">
        <ele>102.98074</ele>
        <time>2016-05-08T15:45:06Z</time>
      </trkpt>
      <trkpt lat="48.71925" lon="1.96097">
        <ele>102.283291</ele>
        <time>2016-05-08T15:45:07Z</time>
      </trkpt>
      <trkpt lat="48.71924" lon="1.96096">
        <ele>100.925869</ele>
        <time>2016-05-08T15:45:08Z</time>
      </trkpt>
      <trkpt lat="48.71923" lon="1.96096">
        <ele>99.616055</ele>
        <time>2016-05-08T15:45:09Z</time>
      </trkpt>
      <trkpt lat="48.71922" lon="1.96095">
        <ele>98.014858</ele>
        <time>2016-05-08T15:45:10Z</time>
      </trkpt>
      <trkpt lat="48.71922" lon="1.96094">
        <ele>97.835659</ele>
        <time>2016-05-08T15:45:11Z</time>
      </trkpt>
      <trkpt lat="48.71921" lon="1.96093">
        <ele>98.006618</ele>
        <time>2016-05-08T15:45:12Z</time>
      </trkpt>
      <trkpt lat="48.7192" lon="1.96092">
        <ele>98.795803</ele>
        <time>2016-05-08T15:45:13Z</time>
      </trkpt>
      <trkpt lat="48.71919" lon="1.96092">
        <ele>99.107754</ele>
        <time>2016-05-08T15:45:14Z</time>
      </trkpt>
      <trkpt lat="48.71919" lon="1.96091">
        <ele>97.367153</ele>
        <time>2016-05-08T15:45:15Z</time>
      </trkpt>
      <trkpt lat="48.71918" lon="1.9609">
        <ele>96.770657</ele>
        <time>2016-05-08T15:45:16Z</time>
      </trkpt>
      <trkpt lat="48.71917" lon="1.9609">
        <ele>96.463345</ele>
        <time>2016-05-08T15:45:17Z</time>
      </trkpt>
      <trkpt lat="48.71916" lon="1.96089">
        <ele>96.663174</ele>
        <time>2016-05-08T15:45:18Z</time>
      </trkpt>
      <trkpt lat="48.71915" lon="1.96089">
        <ele>96.965054</ele>
        <time>2016-05-08T15:45:19Z</time>
      </trkpt>
      <trkpt lat="48.71914" lon="1.96089">
        <ele>96.902065</ele>
        <time>2016-05-08T15:45:20Z</time>
      </trkpt>
      <trkpt lat="48.71913" lon="1.96088">
        <ele>97.839504</ele>
        <time>2016-05-08T15:45:21Z</time>
      </trkpt>
      <trkpt lat="48.71911" lon="1.96088">
        <ele>99.109951</ele>
        <time>2016-05-08T15:45:22Z</time>
      </trkpt>
      <trkpt lat="48.7191" lon="1.96088">
        <ele>98.972195</ele>
        <time>2016-05-08T15:45:23Z</time>
      </trkpt>
      <trkpt lat="48.71909" lon="1.96088">
        <ele>98.700466</ele>
        <time>2016-05-08T15:45:24Z</time>
      </trkpt>
      <trkpt lat="48.71908" lon="1.96088">
        <ele>97.707241</ele>
        <time>2016-05-08T15:45:25Z</time>
      </trkpt>
      <trkpt lat="48.71907" lon="1.96088">
        <ele>97.250576</ele>
        <time>2016-05-08T15:45:26Z</time>
      </trkpt>
      <trkpt lat="48.71906" lon="1.96089">
        <ele>97.148159</ele>
        <time>2016-05-08T15:45:27Z</time>
      </trkpt>
      <trkpt lat="48.71906" lon="1.96091">
        <ele>96.870815</ele>
        <time>2016-05-08T15:45:28Z</time>
      </trkpt>
      <trkpt lat="48.71905" lon="1.96092">
        <ele>95.788296</ele>
        <time>2016-05-08T15:45:29Z</time>
      </trkpt>
      <trkpt lat="48.71904" lon="1.96093">
        <ele>95.836514</ele>
        <time>2016-05-08T15:45:30Z</time>
      </trkpt>
      <trkpt lat="48.71903" lon="1.96094">
        <ele>94.851711</ele>
        <time>2016-05-08T15:45:31Z</time>
      </trkpt>
      <trkpt lat="48.71902" lon="1.96095">
        <ele>93.8251</ele>
        <time>2016-05-08T15:45:32Z</time>
      </trkpt>
      <trkpt lat="48.71902" lon="1.96095">
        <ele>94.179165</ele>
        <time>2016-05-08T15:45:33Z</time>
      </trkpt>
      <trkpt lat="48.71901" lon="1.96096">
        <ele>94.039577</ele>
        <time>2016-05-08T15:45:34Z</time>
      </trkpt>
      <trkpt lat="48.719" lon="1.96098">
        <ele>93.886318</ele>
        <time>2016-05-08T15:45:35Z</time>
      </trkpt>
      <trkpt lat="48.71899" lon="1.96099">
        <ele>94.464382</ele>
        <time>2016-05-08T15:45:36Z</time>
      </trkpt>
      <trkpt lat="48.71898" lon="1.96101">
        <ele>95.206936</ele>
        <time>2016-05-08T15:45:37Z</time>
      </trkpt>
      <trkpt lat="48.71897" lon="1.96102">
        <ele>95.341152</ele>
        <time>2016-05-08T15:45:38Z</time>
      </trkpt>
      <trkpt lat="48.71896" lon="1.96104">
        <ele>94.898708</ele>
        <time>2016-05-08T15:45:39Z</time>
      </trkpt>
      <trkpt lat="48.71895" lon="1.96106">
        <ele>96.416958</ele>
        <time>2016-05-08T15:45:40Z</time>
      </trkpt>
      <trkpt lat="48.71893" lon="1.96108">
        <ele>97.105251</ele>
        <time>2016-05-08T15:45:41Z</time>
      </trkpt>
      <trkpt lat="48.71892" lon="1.96111">
        <ele>98.167446</ele>
        <time>2016-05-08T15:45:42Z</time>
      </trkpt>
      <trkpt lat="48.71892" lon="1.96113">
        <ele>96.206264</ele>
        <time>2016-05-08T15:45:43Z</time>
      </trkpt>
      <trkpt lat="48.71892" lon="1.96115">
        <ele>94.868984</ele>
        <time>2016-05-08T15:45:44Z</time>
      </trkpt>
      <trkpt lat="48.71892" lon="1.96117">
        <ele>95.805386</ele>
        <time>2016-05-08T15:45:45Z</time>
      </trkpt>
      <trkpt lat="48.71892" lon="1.96118">
        <ele>95.984341</ele>
        <time>2016-05-08T15:45:46Z</time>
      </trkpt>
      <trkpt lat="48.71891" lon="1.96119">
        <ele>96.864773</ele>
        <time>2016-05-08T15:45:47Z</time>
      </trkpt>
      <trkpt lat="48.71891" lon="1.96119">
        <ele>96.444546</ele>
        <time>2016-05-08T15:45:48Z</time>
      </trkpt>
      <trkpt lat="48.71891" lon="1.96119">
        <ele>96.14468</ele>
        <time>2016-05-08T15:45:49Z</time>
      </trkpt>
      <trkpt lat="48.71891" lon="1.96118">
        <ele>95.223537</ele>
        <time>2016-05-08T15:45:50Z</time>
      </trkpt>
      <trkpt lat="48.71891" lon="1.96118">
        <ele>95.26144</ele>
        <time>2016-05-08T15:45:51Z</time>
      </trkpt>
      <trkpt lat="48.71891" lon="1.96118">
        <ele>95.256741</ele>
        <time>2016-05-08T15:45:52Z</time>
      </trkpt>
      <trkpt lat="48.71891" lon="1.96118">
        <ele>95.256313</ele>
        <time>2016-05-08T15:45:53Z</time>
      </trkpt>
      <trkpt lat="48.71892" lon="1.96116">
        <ele>95.465237</ele>
        <time>2016-05-08T15:45:54Z</time>
      </trkpt>
      <trkpt lat="48.71892" lon="1.96117">
        <ele>95.195827</ele>
        <time>2016-05-08T15:45:55Z</time>
      </trkpt>
      <trkpt lat="48.71892" lon="1.96118">
        <ele>95.108852</ele>
        <time>2016-05-08T15:45:56Z</time>
      </trkpt>
      <trkpt lat="48.71892" lon="1.96119">
        <ele>94.825832</ele>
        <time>2016-05-08T15:45:57Z</time>
      </trkpt>
      <trkpt lat="48.71892" lon="1.9612">
        <ele>94.495205</ele>
        <time>2016-05-08T15:45:58Z</time>
      </trkpt>
      <trkpt lat="48.71892" lon="1.96122">
        <ele>94.761501</ele>
        <time>2016-05-08T15:45:59Z</time>
      </trkpt>
      <trkpt lat="48.71892" lon="1.96123">
        <ele>94.884121</ele>
        <time>2016-05-08T15:46:00Z</time>
      </trkpt>
      <trkpt lat="48.71892" lon="1.96124">
        <ele>96.307949</ele>
        <time>2016-05-08T15:46:01Z</time>
      </trkpt>
      <trkpt lat="48.71892" lon="1.96125">
        <ele>97.230556</ele>
        <time>2016-05-08T15:46:02Z</time>
      </trkpt>
      <trkpt lat="48.71891" lon="1.96126">
        <ele>96.921047</ele>
        <time>2016-05-08T15:46:03Z</time>
      </trkpt>
      <trkpt lat="48.71891" lon="1.96128">
        <ele>96.596401</ele>
        <time>2016-05-08T15:46:04Z</time>
      </trkpt>
      <trkpt lat="48.7189" lon="1.96129">
        <ele>95.497402</ele>
        <time>2016-05-08T15:46:05Z</time>
      </trkpt>
      <trkpt lat="48.7189" lon="1.96129">
        <ele>95.195522</ele>
        <time>2016-05-08T15:46:06Z</time>
      </trkpt>
      <trkpt lat="48.71891" lon="1.96131">
        <ele>95.948391</ele>
        <time>2016-05-08T15:46:07Z</time>
      </trkpt>
      <trkpt lat="48.71891" lon="1.96132">
        <ele>96.042568</ele>
        <time>2016-05-08T15:46:08Z</time>
      </trkpt>
      <trkpt lat="48.71891" lon="1.96133">
        <ele>96.425381</ele>
        <time>2016-05-08T15:46:09Z</time>
      </trkpt>
      <trkpt lat="48.71892" lon="1.96134">
        <ele>97.965542</ele>
        <time>2016-05-08T15:46:10Z</time>
      </trkpt>
      <trkpt lat="48.71893" lon="1.96135">
        <ele>98.433437</ele>
        <time>2016-05-08T15:46:11Z</time>
      </trkpt>
      <trkpt lat="48.71893" lon="1.96135">
        <ele>98.812954</ele>
        <time>2016-05-08T15:46:12Z</time>
      </trkpt>
      <trkpt lat="48.71894" lon="1.96137">
        <ele>97.00906</ele>
        <time>2016-05-08T15:46:13Z</time>
      </trkpt>
      <trkpt lat="48.71893" lon="1.96138">
        <ele>96.691677</ele>
        <time>2016-05-08T15:46:14Z</time>
      </trkpt>
      <trkpt lat="48.71893" lon="1.96139">
        <ele>95.746548</ele>
        <time>2016-05-08T15:46:15Z</time>
      </trkpt>
      <trkpt lat="48.71893" lon="1.96141">
        <ele>95.013515</ele>
        <time>2016-05-08T15:46:16Z</time>
      </trkpt>
      <trkpt lat="48.71893" lon="1.96143">
        <ele>95.125088</ele>
        <time>2016-05-08T15:46:17Z</time>
      </trkpt>
      <trkpt lat="48.71894" lon="1.96145">
        <ele>95.297207</ele>
        <time>2016-05-08T15:46:18Z</time>
      </trkpt>
      <trkpt lat="48.71895" lon="1.96147">
        <ele>95.496914</ele>
        <time>2016-05-08T15:46:19Z</time>
      </trkpt>
      <trkpt lat="48.71895" lon="1.96149">
        <ele>94.974697</ele>
        <time>2016-05-08T15:46:20Z</time>
      </trkpt>
      <trkpt lat="48.71896" lon="1.9615">
        <ele>94.691982</ele>
        <time>2016-05-08T15:46:21Z</time>
      </trkpt>
      <trkpt lat="48.71896" lon="1.96152">
        <ele>95.260342</ele>
        <time>2016-05-08T15:46:22Z</time>
      </trkpt>
      <trkpt lat="48.71896" lon="1.96154">
        <ele>95.275356</ele>
        <time>2016-05-08T15:46:23Z</time>
      </trkpt>
      <trkpt lat="48.71897" lon="1.96156">
        <ele>94.651943</ele>
        <time>2016-05-08T15:46:24Z</time>
      </trkpt>
      <trkpt lat="48.71898" lon="1.96158">
        <ele>94.560024</ele>
        <time>2016-05-08T15:46:25Z</time>
      </trkpt>
      <trkpt lat="48.71898" lon="1.9616">
        <ele>94.178677</ele>
        <time>2016-05-08T15:46:26Z</time>
      </trkpt>
      <trkpt lat="48.71898" lon="1.96162">
        <ele>93.826992</ele>
        <time>2016-05-08T15:46:27Z</time>
      </trkpt>
      <trkpt lat="48.71899" lon="1.96164">
        <ele>92.333523</ele>
        <time>2016-05-08T15:46:28Z</time>
      </trkpt>
      <trkpt lat="48.71899" lon="1.96165">
        <ele>93.114834</ele>
        <time>2016-05-08T15:46:29Z</time>
      </trkpt>
      <trkpt lat="48.71899" lon="1.96167">
        <ele>92.388515</ele>
        <time>2016-05-08T15:46:30Z</time>
      </trkpt>
      <trkpt lat="48.71898" lon="1.9617">
        <ele>92.574917</ele>
        <time>2016-05-08T15:46:31Z</time>
      </trkpt>
      <trkpt lat="48.71898" lon="1.96171">
        <ele>92.487148</ele>
        <time>2016-05-08T15:46:32Z</time>
      </trkpt>
      <trkpt lat="48.71897" lon="1.96173">
        <ele>92.453579</ele>
        <time>2016-05-08T15:46:33Z</time>
      </trkpt>
      <trkpt lat="48.71896" lon="1.96174">
        <ele>92.629848</ele>
        <time>2016-05-08T15:46:34Z</time>
      </trkpt>
      <trkpt lat="48.71894" lon="1.96176">
        <ele>93.070889</ele>
        <time>2016-05-08T15:46:35Z</time>
      </trkpt>
      <trkpt lat="48.71893" lon="1.96177">
        <ele>92.556118</ele>
        <time>2016-05-08T15:46:36Z</time>
      </trkpt>
      <trkpt lat="48.71892" lon="1.96179">
        <ele>92.720364</ele>
        <time>2016-05-08T15:46:37Z</time>
      </trkpt>
      <trkpt lat="48.71891" lon="1.9618">
        <ele>92.053799</ele>
        <time>2016-05-08T15:46:38Z</time>
      </trkpt>
      <trkpt lat="48.7189" lon="1.96181">
        <ele>91.811733</ele>
        <time>2016-05-08T15:46:39Z</time>
      </trkpt>
      <trkpt lat="48.71889" lon="1.96183">
        <ele>92.029568</ele>
        <time>2016-05-08T15:46:40Z</time>
      </trkpt>
      <trkpt lat="48.71888" lon="1.96185">
        <ele>93.03915</ele>
        <time>2016-05-08T15:46:41Z</time>
      </trkpt>
      <trkpt lat="48.71887" lon="1.96186">
        <ele>92.992153</ele>
        <time>2016-05-08T15:46:42Z</time>
      </trkpt>
      <trkpt lat="48.71886" lon="1.96188">
        <ele>92.7579</ele>
        <time>2016-05-08T15:46:43Z</time>
      </trkpt>
      <trkpt lat="48.71885" lon="1.96189">
        <ele>92.753628</ele>
        <time>2016-05-08T15:46:44Z</time>
      </trkpt>
      <trkpt lat="48.71884" lon="1.96191">
        <ele>93.933559</ele>
        <time>2016-05-08T15:46:45Z</time>
      </trkpt>
      <trkpt lat="48.71882" lon="1.96192">
        <ele>93.319118</ele>
        <time>2016-05-08T15:46:46Z</time>
      </trkpt>
      <trkpt lat="48.71882" lon="1.96194">
        <ele>94.703457</ele>
        <time>2016-05-08T15:46:47Z</time>
      </trkpt>
      <trkpt lat="48.71881" lon="1.96195">
        <ele>94.406094</ele>
        <time>2016-05-08T15:46:48Z</time>
      </trkpt>
      <trkpt lat="48.7188" lon="1.96197">
        <ele>94.869411</ele>
        <time>2016-05-08T15:46:49Z</time>
      </trkpt>
      <trkpt lat="48.71879" lon="1.962">
        <ele>94.968899</ele>
        <time>2016-05-08T15:46:50Z</time>
      </trkpt>
      <trkpt lat="48.71878" lon="1.96202">
        <ele>95.813442</ele>
        <time>2016-05-08T15:46:51Z</time>
      </trkpt>
      <trkpt lat="48.71877" lon="1.96204">
        <ele>95.757229</ele>
        <time>2016-05-08T15:46:52Z</time>
      </trkpt>
      <trkpt lat="48.71876" lon="1.96205">
        <ele>95.518826</ele>
        <time>2016-05-08T15:46:53Z</time>
      </trkpt>
      <trkpt lat="48.71875" lon="1.96207">
        <ele>95.959377</ele>
        <time>2016-05-08T15:46:54Z</time>
      </trkpt>
      <trkpt lat="48.71875" lon="1.96209">
        <ele>96.266811</ele>
        <time>2016-05-08T15:46:55Z</time>
      </trkpt>
      <trkpt lat="48.71874" lon="1.96211">
        <ele>96.765469</ele>
        <time>2016-05-08T15:46:56Z</time>
      </trkpt>
      <trkpt lat="48.71873" lon="1.96213">
        <ele>98.068874</ele>
        <time>2016-05-08T15:46:57Z</time>
      </trkpt>
      <trkpt lat="48.71872" lon="1.96214">
        <ele>97.768276</ele>
        <time>2016-05-08T15:46:58Z</time>
      </trkpt>
      <trkpt lat="48.7187" lon="1.96217">
        <ele>97.110195</ele>
        <time>2016-05-08T15:46:59Z</time>
      </trkpt>
      <trkpt lat="48.71869" lon="1.96219">
        <ele>97.550991</ele>
        <time>2016-05-08T15:47:00Z</time>
      </trkpt>
      <trkpt lat="48.71868" lon="1.9622">
        <ele>96.789883</ele>
        <time>2016-05-08T15:47:01Z</time>
      </trkpt>
      <trkpt lat="48.71868" lon="1.96222">
        <ele>96.756802</ele>
        <time>2016-05-08T15:47:02Z</time>
      </trkpt>
      <trkpt lat="48.71867" lon="1.96223">
        <ele>97.15115</ele>
        <time>2016-05-08T15:47:03Z</time>
      </trkpt>
      <trkpt lat="48.71866" lon="1.96224">
        <ele>97.497402</ele>
        <time>2016-05-08T15:47:04Z</time>
      </trkpt>
      <trkpt lat="48.71865" lon="1.96225">
        <ele>97.54855</ele>
        <time>2016-05-08T15:47:05Z</time>
      </trkpt>
      <trkpt lat="48.71864" lon="1.96226">
        <ele>96.39999</ele>
        <time>2016-05-08T15:47:06Z</time>
      </trkpt>
      <trkpt lat="48.71864" lon="1.96227">
        <ele>96.108608</ele>
        <time>2016-05-08T15:47:07Z</time>
      </trkpt>
      <trkpt lat="48.71863" lon="1.96229">
        <ele>96.229824</ele>
        <time>2016-05-08T15:47:08Z</time>
      </trkpt>
      <trkpt lat="48.71862" lon="1.96231">
        <ele>95.764797</ele>
        <time>2016-05-08T15:47:09Z</time>
      </trkpt>
      <trkpt lat="48.71861" lon="1.96232">
        <ele>95.434414</ele>
        <time>2016-05-08T15:47:10Z</time>
      </trkpt>
      <trkpt lat="48.7186" lon="1.96234">
        <ele>95.827602</ele>
        <time>2016-05-08T15:47:11Z</time>
      </trkpt>
      <trkpt lat="48.71859" lon="1.96236">
        <ele>97.16116</ele>
        <time>2016-05-08T15:47:12Z</time>
      </trkpt>
      <trkpt lat="48.71859" lon="1.96237">
        <ele>96.641201</ele>
        <time>2016-05-08T15:47:13Z</time>
      </trkpt>
      <trkpt lat="48.71857" lon="1.96239">
        <ele>97.058559</ele>
        <time>2016-05-08T15:47:14Z</time>
      </trkpt>
      <trkpt lat="48.71857" lon="1.96241">
        <ele>97.045132</ele>
        <time>2016-05-08T15:47:15Z</time>
      </trkpt>
      <trkpt lat="48.71857" lon="1.96243">
        <ele>96.003628</ele>
        <time>2016-05-08T15:47:16Z</time>
      </trkpt>
      <trkpt lat="48.71857" lon="1.96245">
        <ele>95.971828</ele>
        <time>2016-05-08T15:47:17Z</time>
      </trkpt>
      <trkpt lat="48.71857" lon="1.96246">
        <ele>95.942776</ele>
        <time>2016-05-08T15:47:18Z</time>
      </trkpt>
      <trkpt lat="48.71856" lon="1.96248">
        <ele>96.176662</ele>
        <time>2016-05-08T15:47:19Z</time>
      </trkpt>
      <trkpt lat="48.71856" lon="1.96249">
        <ele>96.008511</ele>
        <time>2016-05-08T15:47:20Z</time>
      </trkpt>
      <trkpt lat="48.71855" lon="1.9625">
        <ele>96.223721</ele>
        <time>2016-05-08T15:47:21Z</time>
      </trkpt>
      <trkpt lat="48.71855" lon="1.96251">
        <ele>96.855984</ele>
        <time>2016-05-08T15:47:22Z</time>
      </trkpt>
      <trkpt lat="48.71854" lon="1.96253">
        <ele>95.999905</ele>
        <time>2016-05-08T15:47:23Z</time>
      </trkpt>
      <trkpt lat="48.71853" lon="1.96254">
        <ele>95.403774</ele>
        <time>2016-05-08T15:47:24Z</time>
      </trkpt>
      <trkpt lat="48.71853" lon="1.96255">
        <ele>95.707241</ele>
        <time>2016-05-08T15:47:25Z</time>
      </trkpt>
      <trkpt lat="48.71853" lon="1.96256">
        <ele>96.32864</ele>
        <time>2016-05-08T15:47:26Z</time>
      </trkpt>
      <trkpt lat="48.71852" lon="1.96257">
        <ele>97.603725</ele>
        <time>2016-05-08T15:47:27Z</time>
      </trkpt>
      <trkpt lat="48.71852" lon="1.96258">
        <ele>97.866726</ele>
        <time>2016-05-08T15:47:29Z</time>
      </trkpt>
      <trkpt lat="48.71851" lon="1.9626">
        <ele>97.358364</ele>
        <time>2016-05-08T15:47:31Z</time>
      </trkpt>
      <trkpt lat="48.71849" lon="1.96265">
        <ele>97.271816</ele>
        <time>2016-05-08T15:47:33Z</time>
      </trkpt>
      <trkpt lat="48.71847" lon="1.96269">
        <ele>97.238613</ele>
        <time>2016-05-08T15:47:35Z</time>
      </trkpt>
      <trkpt lat="48.71846" lon="1.96272">
        <ele>94.731106</ele>
        <time>2016-05-08T15:47:37Z</time>
      </trkpt>
      <trkpt lat="48.71846" lon="1.96276">
        <ele>95.623623</ele>
        <time>2016-05-08T15:47:39Z</time>
      </trkpt>
      <trkpt lat="48.71847" lon="1.9628">
        <ele>95.91531</ele>
        <time>2016-05-08T15:47:41Z</time>
      </trkpt>
      <trkpt lat="48.71847" lon="1.96283">
        <ele>95.059292</ele>
        <time>2016-05-08T15:47:43Z</time>
      </trkpt>
      <trkpt lat="48.71848" lon="1.96286">
        <ele>95.308681</ele>
        <time>2016-05-08T15:47:45Z</time>
      </trkpt>
      <trkpt lat="48.71848" lon="1.96291">
        <ele>96.503017</ele>
        <time>2016-05-08T15:47:47Z</time>
      </trkpt>
      <trkpt lat="48.71849" lon="1.96295">
        <ele>97.06802</ele>
        <time>2016-05-08T15:47:49Z</time>
      </trkpt>
      <trkpt lat="48.71849" lon="1.96299">
        <ele>96.58511</ele>
        <time>2016-05-08T15:47:51Z</time>
      </trkpt>
      <trkpt lat="48.71848" lon="1.96304">
        <ele>96.550686</ele>
        <time>2016-05-08T15:47:53Z</time>
      </trkpt>
      <trkpt lat="48.71847" lon="1.96308">
        <ele>97.258877</ele>
        <time>2016-05-08T15:47:55Z</time>
      </trkpt>
      <trkpt lat="48.71847" lon="1.96311">
        <ele>96.494534</ele>
        <time>2016-05-08T15:47:57Z</time>
      </trkpt>
      <trkpt lat="48.71846" lon="1.96314">
        <ele>94.814846</ele>
        <time>2016-05-08T15:47:59Z</time>
      </trkpt>
      <trkpt lat="48.71845" lon="1.96316">
        <ele>95.87405</ele>
        <time>2016-05-08T15:48:01Z</time>
      </trkpt>
      <trkpt lat="48.71846" lon="1.96318">
        <ele>95.198452</ele>
        <time>2016-05-08T15:48:03Z</time>
      </trkpt>
      <trkpt lat="48.71847" lon="1.96319">
        <ele>95.581875</ele>
        <time>2016-05-08T15:48:05Z</time>
      </trkpt>
      <trkpt lat="48.71847" lon="1.9632">
        <ele>96.282864</ele>
        <time>2016-05-08T15:48:06Z</time>
      </trkpt>
      <trkpt lat="48.71847" lon="1.9632">
        <ele>96.282864</ele>
        <time>2016-05-08T15:48:07Z</time>
      </trkpt>
      <trkpt lat="48.71846" lon="1.96321">
        <ele>97.563625</ele>
        <time>2016-05-08T15:48:09Z</time>
      </trkpt>
      <trkpt lat="48.71846" lon="1.96321">
        <ele>97.223415</ele>
        <time>2016-05-08T15:48:11Z</time>
      </trkpt>
      <trkpt lat="48.71846" lon="1.96321">
        <ele>98.334927</ele>
        <time>2016-05-08T15:48:13Z</time>
      </trkpt>
      <trkpt lat="48.71846" lon="1.96321">
        <ele>98.333889</ele>
        <time>2016-05-08T15:48:15Z</time>
      </trkpt>
      <trkpt lat="48.71846" lon="1.96321">
        <ele>97.876919</ele>
        <time>2016-05-08T15:48:17Z</time>
      </trkpt>
      <trkpt lat="48.71849" lon="1.96324">
        <ele>96.655666</ele>
        <time>2016-05-08T15:48:19Z</time>
      </trkpt>
      <trkpt lat="48.71849" lon="1.96324">
        <ele>96.311489</ele>
        <time>2016-05-08T15:48:21Z</time>
      </trkpt>
      <trkpt lat="48.71849" lon="1.96324">
        <ele>96.396084</ele>
        <time>2016-05-08T15:48:23Z</time>
      </trkpt>
      <trkpt lat="48.71849" lon="1.96324">
        <ele>96.989773</ele>
        <time>2016-05-08T15:48:24Z</time>
      </trkpt>
      <trkpt lat="48.7185" lon="1.96324">
        <ele>95.797878</ele>
        <time>2016-05-08T15:48:26Z</time>
      </trkpt>
      <trkpt lat="48.7185" lon="1.96324">
        <ele>95.618862</ele>
        <time>2016-05-08T15:48:28Z</time>
      </trkpt>
      <trkpt lat="48.71851" lon="1.96325">
        <ele>96.863857</ele>
        <time>2016-05-08T15:48:30Z</time>
      </trkpt>
      <trkpt lat="48.71852" lon="1.96326">
        <ele>98.52792</ele>
        <time>2016-05-08T15:48:32Z</time>
      </trkpt>
      <trkpt lat="48.71852" lon="1.96326">
        <ele>98.768764</ele>
        <time>2016-05-08T15:48:34Z</time>
      </trkpt>
      <trkpt lat="48.71852" lon="1.96326">
        <ele>98.419704</ele>
        <time>2016-05-08T15:48:36Z</time>
      </trkpt>
      <trkpt lat="48.71852" lon="1.96326">
        <ele>98.411648</ele>
        <time>2016-05-08T15:48:38Z</time>
      </trkpt>
      <trkpt lat="48.71852" lon="1.96326">
        <ele>98.411892</ele>
        <time>2016-05-08T15:48:40Z</time>
      </trkpt>
      <trkpt lat="48.71852" lon="1.96326">
        <ele>98.408474</ele>
        <time>2016-05-08T15:48:42Z</time>
      </trkpt>
      <trkpt lat="48.71852" lon="1.96326">
        <ele>98.404812</ele>
        <time>2016-05-08T15:48:44Z</time>
      </trkpt>
      <trkpt lat="48.71852" lon="1.96326">
        <ele>98.397976</ele>
        <time>2016-05-08T15:48:46Z</time>
      </trkpt>
      <trkpt lat="48.71852" lon="1.96326">
        <ele>98.387295</ele>
        <time>2016-05-08T15:48:48Z</time>
      </trkpt>
      <trkpt lat="48.71852" lon="1.96326">
        <ele>98.378017</ele>
        <time>2016-05-08T15:48:50Z</time>
      </trkpt>
      <trkpt lat="48.71852" lon="1.96326">
        <ele>98.379848</ele>
        <time>2016-05-08T15:48:52Z</time>
      </trkpt>
      <trkpt lat="48.71852" lon="1.96326">
        <ele>98.780666</ele>
        <time>2016-05-08T15:48:54Z</time>
      </trkpt>
      <trkpt lat="48.71855" lon="1.96331">
        <ele>98.339016</ele>
        <time>2016-05-08T15:48:56Z</time>
      </trkpt>
      <trkpt lat="48.71855" lon="1.9633">
        <ele>96.650967</ele>
        <time>2016-05-08T15:48:58Z</time>
      </trkpt>
      <trkpt lat="48.71855" lon="1.96329">
        <ele>98.343716</ele>
        <time>2016-05-08T15:49:00Z</time>
      </trkpt>
      <trkpt lat="48.71854" lon="1.96328">
        <ele>97.149258</ele>
        <time>2016-05-08T15:49:02Z</time>
      </trkpt>
      <trkpt lat="48.71853" lon="1.96328">
        <ele>96.961391</ele>
        <time>2016-05-08T15:49:04Z</time>
      </trkpt>
      <trkpt lat="48.71854" lon="1.96327">
        <ele>97.069546</ele>
        <time>2016-05-08T15:49:06Z</time>
      </trkpt>
      <trkpt lat="48.71853" lon="1.96325">
        <ele>96.744717</ele>
        <time>2016-05-08T15:49:08Z</time>
      </trkpt>
      <trkpt lat="48.71853" lon="1.96323">
        <ele>97.342007</ele>
        <time>2016-05-08T15:49:10Z</time>
      </trkpt>
      <trkpt lat="48.71853" lon="1.96323">
        <ele>97.943264</ele>
        <time>2016-05-08T15:49:12Z</time>
      </trkpt>
      <trkpt lat="48.71853" lon="1.96322">
        <ele>95.14645</ele>
        <time>2016-05-08T15:49:14Z</time>
      </trkpt>
      <trkpt lat="48.71853" lon="1.96322">
        <ele>94.451504</ele>
        <time>2016-05-08T15:49:16Z</time>
      </trkpt>
      <trkpt lat="48.71853" lon="1.96322">
        <ele>91.763088</ele>
        <time>2016-05-08T15:49:18Z</time>
      </trkpt>
      <trkpt lat="48.71857" lon="1.96324">
        <ele>92.231045</ele>
        <time>2016-05-08T15:49:20Z</time>
      </trkpt>
      <trkpt lat="48.71859" lon="1.96323">
        <ele>91.87228</ele>
        <time>2016-05-08T15:49:22Z</time>
      </trkpt>
      <trkpt lat="48.7186" lon="1.96324">
        <ele>93.48074</ele>
        <time>2016-05-08T15:49:24Z</time>
      </trkpt>
      <trkpt lat="48.71859" lon="1.96323">
        <ele>93.227993</ele>
        <time>2016-05-08T15:49:26Z</time>
      </trkpt>
      <trkpt lat="48.71859" lon="1.96323">
        <ele>93.498623</ele>
        <time>2016-05-08T15:49:28Z</time>
      </trkpt>
      <trkpt lat="48.71859" lon="1.96323">
        <ele>93.492641</ele>
        <time>2016-05-08T15:49:30Z</time>
      </trkpt>
      <trkpt lat="48.71859" lon="1.96323">
        <ele>93.49258</ele>
        <time>2016-05-08T15:49:32Z</time>
      </trkpt>
      <trkpt lat="48.71859" lon="1.96323">
        <ele>93.503078</ele>
        <time>2016-05-08T15:49:34Z</time>
      </trkpt>
      <trkpt lat="48.71859" lon="1.96323">
        <ele>93.507961</ele>
        <time>2016-05-08T15:49:36Z</time>
      </trkpt>
      <trkpt lat="48.71859" lon="1.96323">
        <ele>93.509304</ele>
        <time>2016-05-08T15:49:38Z</time>
      </trkpt>
      <trkpt lat="48.71856" lon="1.96322">
        <ele>93.694118</ele>
        <time>2016-05-08T15:49:40Z</time>
      </trkpt>
      <trkpt lat="48.71854" lon="1.96324">
        <ele>93.681606</ele>
        <time>2016-05-08T15:49:42Z</time>
      </trkpt>
      <trkpt lat="48.7185" lon="1.96324">
        <ele>93.840054</ele>
        <time>2016-05-08T15:49:44Z</time>
      </trkpt>
      <trkpt lat="48.71847" lon="1.96324">
        <ele>93.031338</ele>
        <time>2016-05-08T15:49:46Z</time>
      </trkpt>
      <trkpt lat="48.71844" lon="1.96323">
        <ele>91.282009</ele>
        <time>2016-05-08T15:49:48Z</time>
      </trkpt>
      <trkpt lat="48.71841" lon="1.96325">
        <ele>91.226833</ele>
        <time>2016-05-08T15:49:50Z</time>
      </trkpt>
      <trkpt lat="48.71839" lon="1.96327">
        <ele>89.884121</ele>
        <time>2016-05-08T15:49:52Z</time>
      </trkpt>
      <trkpt lat="48.71837" lon="1.96328">
        <ele>90.085781</ele>
        <time>2016-05-08T15:49:54Z</time>
      </trkpt>
      <trkpt lat="48.71833" lon="1.96328">
        <ele>91.638577</ele>
        <time>2016-05-08T15:49:56Z</time>
      </trkpt>
      <trkpt lat="48.7183" lon="1.96329">
        <ele>93.561733</ele>
        <time>2016-05-08T15:49:58Z</time>
      </trkpt>
      <trkpt lat="48.71827" lon="1.96332">
        <ele>95.508389</ele>
        <time>2016-05-08T15:50:00Z</time>
      </trkpt>
      <trkpt lat="48.71825" lon="1.96337">
        <ele>96.753139</ele>
        <time>2016-05-08T15:50:02Z</time>
      </trkpt>
      <trkpt lat="48.71825" lon="1.96343">
        <ele>96.698635</ele>
        <time>2016-05-08T15:50:04Z</time>
      </trkpt>
      <trkpt lat="48.71824" lon="1.96348">
        <ele>97.785915</ele>
        <time>2016-05-08T15:50:06Z</time>
      </trkpt>
      <trkpt lat="48.71823" lon="1.96352">
        <ele>99.577419</ele>
        <time>2016-05-08T15:50:08Z</time>
      </trkpt>
      <trkpt lat="48.71823" lon="1.96356">
        <ele>100.60928</ele>
        <time>2016-05-08T15:50:10Z</time>
      </trkpt>
      <trkpt lat="48.71822" lon="1.96358">
        <ele>99.954861</ele>
        <time>2016-05-08T15:50:12Z</time>
      </trkpt>
      <trkpt lat="48.71823" lon="1.96358">
        <ele>100.929165</ele>
        <time>2016-05-08T15:50:14Z</time>
      </trkpt>
      <trkpt lat="48.71825" lon="1.96356">
        <ele>100.938686</ele>
        <time>2016-05-08T15:50:16Z</time>
      </trkpt>
      <trkpt lat="48.71828" lon="1.96356">
        <ele>100.37759</ele>
        <time>2016-05-08T15:50:18Z</time>
      </trkpt>
      <trkpt lat="48.7183" lon="1.96355">
        <ele>99.02206</ele>
        <time>2016-05-08T15:50:20Z</time>
      </trkpt>
      <trkpt lat="48.71831" lon="1.96356">
        <ele>98.032986</ele>
        <time>2016-05-08T15:50:22Z</time>
      </trkpt>
      <trkpt lat="48.71831" lon="1.96356">
        <ele>98.047451</ele>
        <time>2016-05-08T15:50:24Z</time>
      </trkpt>
      <trkpt lat="48.7183" lon="1.96355">
        <ele>98.605618</ele>
        <time>2016-05-08T15:50:26Z</time>
      </trkpt>
      <trkpt lat="48.7183" lon="1.96354">
        <ele>98.287014</ele>
        <time>2016-05-08T15:50:28Z</time>
      </trkpt>
      <trkpt lat="48.7183" lon="1.96354">
        <ele>98.079128</ele>
        <time>2016-05-08T15:50:30Z</time>
      </trkpt>
      <trkpt lat="48.7183" lon="1.96354">
        <ele>98.012722</ele>
        <time>2016-05-08T15:50:32Z</time>
      </trkpt>
      <trkpt lat="48.7183" lon="1.96354">
        <ele>98.005337</ele>
        <time>2016-05-08T15:50:34Z</time>
      </trkpt>
      <trkpt lat="48.7183" lon="1.96353">
        <ele>97.434536</ele>
        <time>2016-05-08T15:50:36Z</time>
      </trkpt>
      <trkpt lat="48.71829" lon="1.96354">
        <ele>95.514065</ele>
        <time>2016-05-08T15:50:38Z</time>
      </trkpt>
      <trkpt lat="48.71828" lon="1.96356">
        <ele>95.201138</ele>
        <time>2016-05-08T15:50:40Z</time>
      </trkpt>
      <trkpt lat="48.71827" lon="1.96358">
        <ele>94.592251</ele>
        <time>2016-05-08T15:50:42Z</time>
      </trkpt>
      <trkpt lat="48.71826" lon="1.96358">
        <ele>94.945095</ele>
        <time>2016-05-08T15:50:44Z</time>
      </trkpt>
      <trkpt lat="48.71825" lon="1.96358">
        <ele>95.589199</ele>
        <time>2016-05-08T15:50:46Z</time>
      </trkpt>
      <trkpt lat="48.71825" lon="1.96357">
        <ele>95.347073</ele>
        <time>2016-05-08T15:50:48Z</time>
      </trkpt>
      <trkpt lat="48.71825" lon="1.96357">
        <ele>95.346096</ele>
        <time>2016-05-08T15:50:50Z</time>
      </trkpt>
      <trkpt lat="48.71825" lon="1.96357">
        <ele>95.347256</ele>
        <time>2016-05-08T15:50:52Z</time>
      </trkpt>
      <trkpt lat="48.71825" lon="1.96357">
        <ele>95.351772</ele>
        <time>2016-05-08T15:50:54Z</time>
      </trkpt>
      <trkpt lat="48.71825" lon="1.96357">
        <ele>96.678493</ele>
        <time>2016-05-08T15:50:56Z</time>
      </trkpt>
      <trkpt lat="48.71826" lon="1.96354">
        <ele>97.297817</ele>
        <time>2016-05-08T15:50:58Z</time>
      </trkpt>
      <trkpt lat="48.71826" lon="1.96354">
        <ele>96.540737</ele>
        <time>2016-05-08T15:51:00Z</time>
      </trkpt>
      <trkpt lat="48.71826" lon="1.96354">
        <ele>96.557278</ele>
        <time>2016-05-08T15:51:02Z</time>
      </trkpt>
      <trkpt lat="48.71825" lon="1.96355">
        <ele>96.863369</ele>
        <time>2016-05-08T15:51:04Z</time>
      </trkpt>
      <trkpt lat="48.71825" lon="1.96355">
        <ele>97.521755</ele>
        <time>2016-05-08T15:51:06Z</time>
      </trkpt>
      <trkpt lat="48.71825" lon="1.96355">
        <ele>97.423916</ele>
        <time>2016-05-08T15:51:08Z</time>
      </trkpt>
      <trkpt lat="48.71825" lon="1.96355">
        <ele>97.36581</ele>
        <time>2016-05-08T15:51:10Z</time>
      </trkpt>
      <trkpt lat="48.71825" lon="1.96355">
        <ele>97.367702</ele>
        <time>2016-05-08T15:51:12Z</time>
      </trkpt>
      <trkpt lat="48.71825" lon="1.96355">
        <ele>97.365566</ele>
        <time>2016-05-08T15:51:14Z</time>
      </trkpt>
      <trkpt lat="48.71825" lon="1.96355">
        <ele>97.529018</ele>
        <time>2016-05-08T15:51:16Z</time>
      </trkpt>
      <trkpt lat="48.71825" lon="1.96355">
        <ele>97.533901</ele>
        <time>2016-05-08T15:51:18Z</time>
      </trkpt>
      <trkpt lat="48.71825" lon="1.96355">
        <ele>97.535</ele>
        <time>2016-05-08T15:51:20Z</time>
      </trkpt>
      <trkpt lat="48.71825" lon="1.96355">
        <ele>97.530972</ele>
        <time>2016-05-08T15:51:22Z</time>
      </trkpt>
      <trkpt lat="48.71825" lon="1.96356">
        <ele>97.228115</ele>
        <time>2016-05-08T15:51:24Z</time>
      </trkpt>
      <trkpt lat="48.71824" lon="1.96356">
        <ele>97.369961</ele>
        <time>2016-05-08T15:51:26Z</time>
      </trkpt>
      <trkpt lat="48.71824" lon="1.96356">
        <ele>97.371792</ele>
        <time>2016-05-08T15:51:28Z</time>
      </trkpt>
      <trkpt lat="48.71823" lon="1.96357">
        <ele>97.717556</ele>
        <time>2016-05-08T15:51:30Z</time>
      </trkpt>
      <trkpt lat="48.71823" lon="1.96357">
        <ele>98.317715</ele>
        <time>2016-05-08T15:51:32Z</time>
      </trkpt>
      <trkpt lat="48.71821" lon="1.96356">
        <ele>99.075954</ele>
        <time>2016-05-08T15:51:34Z</time>
      </trkpt>
      <trkpt lat="48.71821" lon="1.96357">
        <ele>98.674282</ele>
        <time>2016-05-08T15:51:36Z</time>
      </trkpt>
      <trkpt lat="48.71823" lon="1.96356">
        <ele>95.271267</ele>
        <time>2016-05-08T15:51:38Z</time>
      </trkpt>
      <trkpt lat="48.71824" lon="1.96354">
        <ele>94.181667</ele>
        <time>2016-05-08T15:51:40Z</time>
      </trkpt>
      <trkpt lat="48.71824" lon="1.96353">
        <ele>94.568386</ele>
        <time>2016-05-08T15:51:42Z</time>
      </trkpt>
      <trkpt lat="48.71824" lon="1.96353">
        <ele>94.578274</ele>
        <time>2016-05-08T15:51:44Z</time>
      </trkpt>
      <trkpt lat="48.71824" lon="1.96353">
        <ele>94.568813</ele>
        <time>2016-05-08T15:51:46Z</time>
      </trkpt>
      <trkpt lat="48.71824" lon="1.96353">
        <ele>94.575771</ele>
        <time>2016-05-08T15:51:48Z</time>
      </trkpt>
      <trkpt lat="48.71824" lon="1.96353">
        <ele>94.590908</ele>
        <time>2016-05-08T15:51:50Z</time>
      </trkpt>
      <trkpt lat="48.71824" lon="1.96353">
        <ele>94.599941</ele>
        <time>2016-05-08T15:51:52Z</time>
      </trkpt>
      <trkpt lat="48.71824" lon="1.96351">
        <ele>95.226162</ele>
        <time>2016-05-08T15:51:54Z</time>
      </trkpt>
      <trkpt lat="48.71823" lon="1.9635">
        <ele>95.219204</ele>
        <time>2016-05-08T15:51:56Z</time>
      </trkpt>
      <trkpt lat="48.71822" lon="1.96348">
        <ele>96.326382</ele>
        <time>2016-05-08T15:51:58Z</time>
      </trkpt>
      <trkpt lat="48.71821" lon="1.96347">
        <ele>96.632961</ele>
        <time>2016-05-08T15:52:00Z</time>
      </trkpt>
      <trkpt lat="48.7182" lon="1.96346">
        <ele>95.93185</ele>
        <time>2016-05-08T15:52:02Z</time>
      </trkpt>
      <trkpt lat="48.71818" lon="1.96346">
        <ele>97.615749</ele>
        <time>2016-05-08T15:52:04Z</time>
      </trkpt>
      <trkpt lat="48.71817" lon="1.96347">
        <ele>99.073696</ele>
        <time>2016-05-08T15:52:06Z</time>
      </trkpt>
      <trkpt lat="48.71816" lon="1.96349">
        <ele>100.772182</ele>
        <time>2016-05-08T15:52:08Z</time>
      </trkpt>
      <trkpt lat="48.71815" lon="1.96351">
        <ele>102.117153</ele>
        <time>2016-05-08T15:52:10Z</time>
      </trkpt>
      <trkpt lat="48.71814" lon="1.96354">
        <ele>103.693325</ele>
        <time>2016-05-08T15:52:12Z</time>
      </trkpt>
      <trkpt lat="48.71814" lon="1.96356">
        <ele>104.36343</ele>
        <time>2016-05-08T15:52:14Z</time>
      </trkpt>
      <trkpt lat="48.71814" lon="1.96357">
        <ele>105.487514</ele>
        <time>2016-05-08T15:52:16Z</time>
      </trkpt>
      <trkpt lat="48.71815" lon="1.96356">
        <ele>104.758083</ele>
        <time>2016-05-08T15:52:18Z</time>
      </trkpt>
      <trkpt lat="48.71815" lon="1.96356">
        <ele>104.467739</ele>
        <time>2016-05-08T15:52:20Z</time>
      </trkpt>
      <trkpt lat="48.71815" lon="1.96356">
        <ele>103.53915</ele>
        <time>2016-05-08T15:52:22Z</time>
      </trkpt>
      <trkpt lat="48.71815" lon="1.96356">
        <ele>103.369411</ele>
        <time>2016-05-08T15:52:24Z</time>
      </trkpt>
      <trkpt lat="48.71815" lon="1.96356">
        <ele>103.375027</ele>
        <time>2016-05-08T15:52:26Z</time>
      </trkpt>
      <trkpt lat="48.71815" lon="1.96356">
        <ele>103.399563</ele>
        <time>2016-05-08T15:52:28Z</time>
      </trkpt>
      <trkpt lat="48.71815" lon="1.96356">
        <ele>103.424404</ele>
        <time>2016-05-08T15:52:30Z</time>
      </trkpt>
      <trkpt lat="48.71815" lon="1.96356">
        <ele>103.431667</ele>
        <time>2016-05-08T15:52:32Z</time>
      </trkpt>
      <trkpt lat="48.71815" lon="1.96356">
        <ele>103.449245</ele>
        <time>2016-05-08T15:52:34Z</time>
      </trkpt>
      <trkpt lat="48.71815" lon="1.96356">
        <ele>103.463406</ele>
        <time>2016-05-08T15:52:36Z</time>
      </trkpt>
      <trkpt lat="48.71815" lon="1.96356">
        <ele>103.482388</ele>
        <time>2016-05-08T15:52:38Z</time>
      </trkpt>
      <trkpt lat="48.71815" lon="1.96356">
        <ele>103.484646</ele>
        <time>2016-05-08T15:52:40Z</time>
      </trkpt>
      <trkpt lat="48.71815" lon="1.96358">
        <ele>104.404324</ele>
        <time>2016-05-08T15:52:42Z</time>
      </trkpt>
      <trkpt lat="48.71814" lon="1.96358">
        <ele>104.551723</ele>
        <time>2016-05-08T15:52:44Z</time>
      </trkpt>
      <trkpt lat="48.71813" lon="1.96359">
        <ele>104.701382</ele>
        <time>2016-05-08T15:52:46Z</time>
      </trkpt>
      <trkpt lat="48.71813" lon="1.96359">
        <ele>104.682949</ele>
        <time>2016-05-08T15:52:48Z</time>
      </trkpt>
      <trkpt lat="48.71813" lon="1.96359">
        <ele>104.690151</ele>
        <time>2016-05-08T15:52:50Z</time>
      </trkpt>
      <trkpt lat="48.71813" lon="1.96359">
        <ele>104.703762</ele>
        <time>2016-05-08T15:52:52Z</time>
      </trkpt>
      <trkpt lat="48.71813" lon="1.96358">
        <ele>105.409023</ele>
        <time>2016-05-08T15:52:54Z</time>
      </trkpt>
      <trkpt lat="48.71812" lon="1.96357">
        <ele>104.482815</ele>
        <time>2016-05-08T15:52:56Z</time>
      </trkpt>
      <trkpt lat="48.71811" lon="1.96355">
        <ele>105.236294</ele>
        <time>2016-05-08T15:52:58Z</time>
      </trkpt>
      <trkpt lat="48.71809" lon="1.96353">
        <ele>105.060146</ele>
        <time>2016-05-08T15:53:00Z</time>
      </trkpt>
      <trkpt lat="48.71806" lon="1.96351">
        <ele>106.763699</ele>
        <time>2016-05-08T15:53:02Z</time>
      </trkpt>
      <trkpt lat="48.71805" lon="1.9635">
        <ele>106.974575</ele>
        <time>2016-05-08T15:53:04Z</time>
      </trkpt>
      <trkpt lat="48.71802" lon="1.9635">
        <ele>107.973598</ele>
        <time>2016-05-08T15:53:06Z</time>
      </trkpt>
      <trkpt lat="48.71798" lon="1.96351">
        <ele>109.671597</ele>
        <time>2016-05-08T15:53:08Z</time>
      </trkpt>
      <trkpt lat="48.71795" lon="1.96353">
        <ele>110.606777</ele>
        <time>2016-05-08T15:53:10Z</time>
      </trkpt>
      <trkpt lat="48.71792" lon="1.96354">
        <ele>110.656216</ele>
        <time>2016-05-08T15:53:12Z</time>
      </trkpt>
      <trkpt lat="48.71789" lon="1.96353">
        <ele>111.567837</ele>
        <time>2016-05-08T15:53:14Z</time>
      </trkpt>
      <trkpt lat="48.71786" lon="1.96352">
        <ele>110.90646</ele>
        <time>2016-05-08T15:53:16Z</time>
      </trkpt>
      <trkpt lat="48.71783" lon="1.96351">
        <ele>111.424526</ele>
        <time>2016-05-08T15:53:18Z</time>
      </trkpt>
      <trkpt lat="48.7178" lon="1.96351">
        <ele>113.142239</ele>
        <time>2016-05-08T15:53:20Z</time>
      </trkpt>
      <trkpt lat="48.71779" lon="1.96351">
        <ele>113.483364</ele>
        <time>2016-05-08T15:53:22Z</time>
      </trkpt>
      <trkpt lat="48.71777" lon="1.96351">
        <ele>113.927578</ele>
        <time>2016-05-08T15:53:24Z</time>
      </trkpt>
      <trkpt lat="48.71775" lon="1.9635">
        <ele>114.062954</ele>
        <time>2016-05-08T15:53:26Z</time>
      </trkpt>
      <trkpt lat="48.71774" lon="1.96349">
        <ele>113.623074</ele>
        <time>2016-05-08T15:53:28Z</time>
      </trkpt>
      <trkpt lat="48.71773" lon="1.96348">
        <ele>112.880703</ele>
        <time>2016-05-08T15:53:30Z</time>
      </trkpt>
      <trkpt lat="48.71772" lon="1.96347">
        <ele>113.55209</ele>
        <time>2016-05-08T15:53:32Z</time>
      </trkpt>
      <trkpt lat="48.71773" lon="1.96347">
        <ele>111.765591</ele>
        <time>2016-05-08T15:53:34Z</time>
      </trkpt>
      <trkpt lat="48.71773" lon="1.96348">
        <ele>111.224758</ele>
        <time>2016-05-08T15:53:36Z</time>
      </trkpt>
      <trkpt lat="48.71772" lon="1.96347">
        <ele>111.904934</ele>
        <time>2016-05-08T15:53:38Z</time>
      </trkpt>
      <trkpt lat="48.7177" lon="1.96345">
        <ele>112.253689</ele>
        <time>2016-05-08T15:53:40Z</time>
      </trkpt>
      <trkpt lat="48.71768" lon="1.96343">
        <ele>112.31094</ele>
        <time>2016-05-08T15:53:42Z</time>
      </trkpt>
      <trkpt lat="48.71766" lon="1.96341">
        <ele>112.734707</ele>
        <time>2016-05-08T15:53:44Z</time>
      </trkpt>
      <trkpt lat="48.71764" lon="1.96339">
        <ele>113.623379</ele>
        <time>2016-05-08T15:53:46Z</time>
      </trkpt>
      <trkpt lat="48.71762" lon="1.96338">
        <ele>114.815884</ele>
        <time>2016-05-08T15:53:48Z</time>
      </trkpt>
      <trkpt lat="48.7176" lon="1.96337">
        <ele>115.901699</ele>
        <time>2016-05-08T15:53:50Z</time>
      </trkpt>
      <trkpt lat="48.71758" lon="1.96336">
        <ele>116.796658</ele>
        <time>2016-05-08T15:53:52Z</time>
      </trkpt>
      <trkpt lat="48.71755" lon="1.96335">
        <ele>117.052578</ele>
        <time>2016-05-08T15:53:54Z</time>
      </trkpt>
      <trkpt lat="48.71753" lon="1.96333">
        <ele>116.313442</ele>
        <time>2016-05-08T15:53:56Z</time>
      </trkpt>
      <trkpt lat="48.71751" lon="1.96331">
        <ele>117.269253</ele>
        <time>2016-05-08T15:53:58Z</time>
      </trkpt>
      <trkpt lat="48.71748" lon="1.96329">
        <ele>117.182644</ele>
        <time>2016-05-08T15:54:00Z</time>
      </trkpt>
      <trkpt lat="48.71746" lon="1.96327">
        <ele>118.438931</ele>
        <time>2016-05-08T15:54:02Z</time>
      </trkpt>
      <trkpt lat="48.71745" lon="1.96326">
        <ele>116.81094</ele>
        <time>2016-05-08T15:54:04Z</time>
      </trkpt>
      <trkpt lat="48.71743" lon="1.96324">
        <ele>117.144741</ele>
        <time>2016-05-08T15:54:06Z</time>
      </trkpt>
      <trkpt lat="48.71741" lon="1.96322">
        <ele>115.604336</ele>
        <time>2016-05-08T15:54:08Z</time>
      </trkpt>
      <trkpt lat="48.71739" lon="1.96321">
        <ele>113.67477</ele>
        <time>2016-05-08T15:54:10Z</time>
      </trkpt>
      <trkpt lat="48.71737" lon="1.96319">
        <ele>115.086025</ele>
        <time>2016-05-08T15:54:12Z</time>
      </trkpt>
      <trkpt lat="48.71735" lon="1.96318">
        <ele>114.256802</ele>
        <time>2016-05-08T15:54:14Z</time>
      </trkpt>
      <trkpt lat="48.71733" lon="1.96316">
        <ele>114.505337</ele>
        <time>2016-05-08T15:54:16Z</time>
      </trkpt>
      <trkpt lat="48.71732" lon="1.96314">
        <ele>113.083584</ele>
        <time>2016-05-08T15:54:18Z</time>
      </trkpt>
      <trkpt lat="48.71731" lon="1.96312">
        <ele>112.713039</ele>
        <time>2016-05-08T15:54:20Z</time>
      </trkpt>
      <trkpt lat="48.71731" lon="1.96312">
        <ele>111.628201</ele>
        <time>2016-05-08T15:54:22Z</time>
      </trkpt>
      <trkpt lat="48.71729" lon="1.96313">
        <ele>111.795315</ele>
        <time>2016-05-08T15:54:24Z</time>
      </trkpt>
      <trkpt lat="48.71729" lon="1.96314">
        <ele>111.676235</ele>
        <time>2016-05-08T15:54:26Z</time>
      </trkpt>
      <trkpt lat="48.71728" lon="1.96315">
        <ele>111.525784</ele>
        <time>2016-05-08T15:54:28Z</time>
      </trkpt>
      <trkpt lat="48.71728" lon="1.96316">
        <ele>111.37167</ele>
        <time>2016-05-08T15:54:30Z</time>
      </trkpt>
      <trkpt lat="48.71728" lon="1.96317">
        <ele>111.476589</ele>
        <time>2016-05-08T15:54:32Z</time>
      </trkpt>
      <trkpt lat="48.71727" lon="1.96319">
        <ele>111.584316</ele>
        <time>2016-05-08T15:54:34Z</time>
      </trkpt>
      <trkpt lat="48.71727" lon="1.96321">
        <ele>111.176113</ele>
        <time>2016-05-08T15:54:36Z</time>
      </trkpt>
      <trkpt lat="48.71727" lon="1.96323">
        <ele>110.858303</ele>
        <time>2016-05-08T15:54:38Z</time>
      </trkpt>
      <trkpt lat="48.71726" lon="1.96325">
        <ele>110.555019</ele>
        <time>2016-05-08T15:54:40Z</time>
      </trkpt>
      <trkpt lat="48.71726" lon="1.96327">
        <ele>109.949795</ele>
        <time>2016-05-08T15:54:42Z</time>
      </trkpt>
      <trkpt lat="48.71726" lon="1.9633">
        <ele>110.118313</ele>
        <time>2016-05-08T15:54:44Z</time>
      </trkpt>
      <trkpt lat="48.71725" lon="1.96332">
        <ele>109.747402</ele>
        <time>2016-05-08T15:54:46Z</time>
      </trkpt>
      <trkpt lat="48.71723" lon="1.96336">
        <ele>109.971645</ele>
        <time>2016-05-08T15:54:48Z</time>
      </trkpt>
      <trkpt lat="48.71721" lon="1.96341">
        <ele>109.948696</ele>
        <time>2016-05-08T15:54:50Z</time>
      </trkpt>
      <trkpt lat="48.71719" lon="1.96347">
        <ele>110.138882</ele>
        <time>2016-05-08T15:54:52Z</time>
      </trkpt>
      <trkpt lat="48.71719" lon="1.96351">
        <ele>109.994473</ele>
        <time>2016-05-08T15:54:54Z</time>
      </trkpt>
      <trkpt lat="48.71721" lon="1.96355">
        <ele>110.206448</ele>
        <time>2016-05-08T15:54:56Z</time>
      </trkpt>
      <trkpt lat="48.71723" lon="1.9636">
        <ele>110.499294</ele>
        <time>2016-05-08T15:54:58Z</time>
      </trkpt>
      <trkpt lat="48.71724" lon="1.96364">
        <ele>108.241604</ele>
        <time>2016-05-08T15:55:00Z</time>
      </trkpt>
      <trkpt lat="48.71725" lon="1.96368">
        <ele>106.034451</ele>
        <time>2016-05-08T15:55:02Z</time>
      </trkpt>
      <trkpt lat="48.71724" lon="1.96371">
        <ele>104.226772</ele>
        <time>2016-05-08T15:55:04Z</time>
      </trkpt>
      <trkpt lat="48.71722" lon="1.96373">
        <ele>103.824917</ele>
        <time>2016-05-08T15:55:06Z</time>
      </trkpt>
      <trkpt lat="48.71722" lon="1.96376">
        <ele>103.575832</ele>
        <time>2016-05-08T15:55:08Z</time>
      </trkpt>
      <trkpt lat="48.71724" lon="1.96379">
        <ele>103.919094</ele>
        <time>2016-05-08T15:55:10Z</time>
      </trkpt>
      <trkpt lat="48.71725" lon="1.96382">
        <ele>104.455654</ele>
        <time>2016-05-08T15:55:12Z</time>
      </trkpt>
      <trkpt lat="48.71725" lon="1.96384">
        <ele>104.096279</ele>
        <time>2016-05-08T15:55:14Z</time>
      </trkpt>
      <trkpt lat="48.71726" lon="1.96387">
        <ele>102.88583</ele>
        <time>2016-05-08T15:55:16Z</time>
      </trkpt>
      <trkpt lat="48.71726" lon="1.96388">
        <ele>102.679531</ele>
        <time>2016-05-08T15:55:18Z</time>
      </trkpt>
      <trkpt lat="48.71728" lon="1.96389">
        <ele>102.904751</ele>
        <time>2016-05-08T15:55:20Z</time>
      </trkpt>
      <trkpt lat="48.71728" lon="1.96389">
        <ele>102.628201</ele>
        <time>2016-05-08T15:55:22Z</time>
      </trkpt>
      <trkpt lat="48.71729" lon="1.96389">
        <ele>102.932827</ele>
        <time>2016-05-08T15:55:24Z</time>
      </trkpt>
      <trkpt lat="48.71729" lon="1.96389">
        <ele>102.940945</ele>
        <time>2016-05-08T15:55:26Z</time>
      </trkpt>
      <trkpt lat="48.71729" lon="1.96389">
        <ele>102.943813</ele>
        <time>2016-05-08T15:55:28Z</time>
      </trkpt>
      <trkpt lat="48.71729" lon="1.96389">
        <ele>102.9454</ele>
        <time>2016-05-08T15:55:30Z</time>
      </trkpt>
      <trkpt lat="48.71729" lon="1.96389">
        <ele>102.946743</ele>
        <time>2016-05-08T15:55:32Z</time>
      </trkpt>
      <trkpt lat="48.71729" lon="1.96389">
        <ele>102.955288</ele>
        <time>2016-05-08T15:55:34Z</time>
      </trkpt>
      <trkpt lat="48.71729" lon="1.96389">
        <ele>102.278286</ele>
        <time>2016-05-08T15:55:36Z</time>
      </trkpt>
      <trkpt lat="48.71729" lon="1.96392">
        <ele>100.546902</ele>
        <time>2016-05-08T15:55:38Z</time>
      </trkpt>
      <trkpt lat="48.71729" lon="1.96394">
        <ele>101.796047</ele>
        <time>2016-05-08T15:55:40Z</time>
      </trkpt>
      <trkpt lat="48.71729" lon="1.96396">
        <ele>101.559597</ele>
        <time>2016-05-08T15:55:42Z</time>
      </trkpt>
      <trkpt lat="48.7173" lon="1.96399">
        <ele>102.418911</ele>
        <time>2016-05-08T15:55:44Z</time>
      </trkpt>
      <trkpt lat="48.71731" lon="1.96402">
        <ele>103.086391</ele>
        <time>2016-05-08T15:55:46Z</time>
      </trkpt>
      <trkpt lat="48.71732" lon="1.96405">
        <ele>102.504421</ele>
        <time>2016-05-08T15:55:48Z</time>
      </trkpt>
      <trkpt lat="48.71732" lon="1.96409">
        <ele>101.726833</ele>
        <time>2016-05-08T15:55:50Z</time>
      </trkpt>
      <trkpt lat="48.71733" lon="1.96412">
        <ele>102.8699</ele>
        <time>2016-05-08T15:55:52Z</time>
      </trkpt>
      <trkpt lat="48.71734" lon="1.96416">
        <ele>103.689419</ele>
        <time>2016-05-08T15:55:54Z</time>
      </trkpt>
      <trkpt lat="48.71736" lon="1.96419">
        <ele>103.153713</ele>
        <time>2016-05-08T15:55:56Z</time>
      </trkpt>
      <trkpt lat="48.71737" lon="1.96422">
        <ele>102.31509</ele>
        <time>2016-05-08T15:55:58Z</time>
      </trkpt>
      <trkpt lat="48.71737" lon="1.96425">
        <ele>101.548733</ele>
        <time>2016-05-08T15:56:00Z</time>
      </trkpt>
      <trkpt lat="48.71738" lon="1.96427">
        <ele>102.015774</ele>
        <time>2016-05-08T15:56:02Z</time>
      </trkpt>
      <trkpt lat="48.71739" lon="1.96429">
        <ele>101.931667</ele>
        <time>2016-05-08T15:56:04Z</time>
      </trkpt>
      <trkpt lat="48.71739" lon="1.96431">
        <ele>102.628506</ele>
        <time>2016-05-08T15:56:06Z</time>
      </trkpt>
      <trkpt lat="48.71739" lon="1.96432">
        <ele>102.325893</ele>
        <time>2016-05-08T15:56:08Z</time>
      </trkpt>
      <trkpt lat="48.71739" lon="1.96433">
        <ele>102.354458</ele>
        <time>2016-05-08T15:56:10Z</time>
      </trkpt>
      <trkpt lat="48.71739" lon="1.96433">
        <ele>102.69894</ele>
        <time>2016-05-08T15:56:12Z</time>
      </trkpt>
      <trkpt lat="48.7174" lon="1.96435">
        <ele>101.752468</ele>
        <time>2016-05-08T15:56:14Z</time>
      </trkpt>
      <trkpt lat="48.71742" lon="1.96438">
        <ele>102.550014</ele>
        <time>2016-05-08T15:56:16Z</time>
      </trkpt>
      <trkpt lat="48.71743" lon="1.96441">
        <ele>101.832241</ele>
        <time>2016-05-08T15:56:18Z</time>
      </trkpt>
      <trkpt lat="48.71744" lon="1.96444">
        <ele>102.072964</ele>
        <time>2016-05-08T15:56:20Z</time>
      </trkpt>
      <trkpt lat="48.71744" lon="1.96447">
        <ele>101.882351</ele>
        <time>2016-05-08T15:56:22Z</time>
      </trkpt>
      <trkpt lat="48.71744" lon="1.9645">
        <ele>101.52438</ele>
        <time>2016-05-08T15:56:24Z</time>
      </trkpt>
      <trkpt lat="48.71745" lon="1.96453">
        <ele>101.250271</ele>
        <time>2016-05-08T15:56:26Z</time>
      </trkpt>
      <trkpt lat="48.71747" lon="1.96454">
        <ele>100.392849</ele>
        <time>2016-05-08T15:56:28Z</time>
      </trkpt>
      <trkpt lat="48.71747" lon="1.96455">
        <ele>100.27029</ele>
        <time>2016-05-08T15:56:30Z</time>
      </trkpt>
      <trkpt lat="48.71748" lon="1.96456">
        <ele>99.444118</ele>
        <time>2016-05-08T15:56:32Z</time>
      </trkpt>
      <trkpt lat="48.71748" lon="1.96457">
        <ele>99.598049</ele>
        <time>2016-05-08T15:56:34Z</time>
      </trkpt>
      <trkpt lat="48.71749" lon="1.96459">
        <ele>101.009853</ele>
        <time>2016-05-08T15:56:36Z</time>
      </trkpt>
      <trkpt lat="48.71749" lon="1.96461">
        <ele>101.281826</ele>
        <time>2016-05-08T15:56:38Z</time>
      </trkpt>
      <trkpt lat="48.7175" lon="1.96463">
        <ele>102.404507</ele>
        <time>2016-05-08T15:56:40Z</time>
      </trkpt>
      <trkpt lat="48.7175" lon="1.96464">
        <ele>101.803677</ele>
        <time>2016-05-08T15:56:42Z</time>
      </trkpt>
      <trkpt lat="48.71751" lon="1.96464">
        <ele>101.983486</ele>
        <time>2016-05-08T15:56:44Z</time>
      </trkpt>
      <trkpt lat="48.71751" lon="1.96465">
        <ele>102.166164</ele>
        <time>2016-05-08T15:56:46Z</time>
      </trkpt>
      <trkpt lat="48.71752" lon="1.96466">
        <ele>101.9902</ele>
        <time>2016-05-08T15:56:48Z</time>
      </trkpt>
      <trkpt lat="48.71752" lon="1.96465">
        <ele>101.764858</ele>
        <time>2016-05-08T15:56:50Z</time>
      </trkpt>
      <trkpt lat="48.71753" lon="1.96465">
        <ele>102.156338</ele>
        <time>2016-05-08T15:56:52Z</time>
      </trkpt>
      <trkpt lat="48.71753" lon="1.96465">
        <ele>102.937954</ele>
        <time>2016-05-08T15:56:54Z</time>
      </trkpt>
      <trkpt lat="48.71754" lon="1.96465">
        <ele>103.340908</ele>
        <time>2016-05-08T15:56:56Z</time>
      </trkpt>
      <trkpt lat="48.71755" lon="1.96465">
        <ele>102.058437</ele>
        <time>2016-05-08T15:56:58Z</time>
      </trkpt>
      <trkpt lat="48.71756" lon="1.96464">
        <ele>101.062832</ele>
        <time>2016-05-08T15:57:00Z</time>
      </trkpt>
      <trkpt lat="48.71758" lon="1.96464">
        <ele>100.473476</ele>
        <time>2016-05-08T15:57:02Z</time>
      </trkpt>
      <trkpt lat="48.71758" lon="1.96464">
        <ele>99.991299</ele>
        <time>2016-05-08T15:57:04Z</time>
      </trkpt>
      <trkpt lat="48.71759" lon="1.96463">
        <ele>100.309231</ele>
        <time>2016-05-08T15:57:06Z</time>
      </trkpt>
      <trkpt lat="48.7176" lon="1.96463">
        <ele>101.244717</ele>
        <time>2016-05-08T15:57:08Z</time>
      </trkpt>
      <trkpt lat="48.71761" lon="1.96463">
        <ele>101.219021</ele>
        <time>2016-05-08T15:57:10Z</time>
      </trkpt>
      <trkpt lat="48.71763" lon="1.96463">
        <ele>102.725674</ele>
        <time>2016-05-08T15:57:12Z</time>
      </trkpt>
      <trkpt lat="48.71764" lon="1.96462">
        <ele>102.33334</ele>
        <time>2016-05-08T15:57:14Z</time>
      </trkpt>
      <trkpt lat="48.71765" lon="1.96462">
        <ele>101.519253</ele>
        <time>2016-05-08T15:57:16Z</time>
      </trkpt>
      <trkpt lat="48.71766" lon="1.9646">
        <ele>101.456509</ele>
        <time>2016-05-08T15:57:18Z</time>
      </trkpt>
      <trkpt lat="48.71768" lon="1.96459">
        <ele>100.639492</ele>
        <time>2016-05-08T15:57:20Z</time>
      </trkpt>
      <trkpt lat="48.71769" lon="1.96458">
        <ele>99.99081</ele>
        <time>2016-05-08T15:57:22Z</time>
      </trkpt>
      <trkpt lat="48.7177" lon="1.96457">
        <ele>99.429165</ele>
        <time>2016-05-08T15:57:24Z</time>
      </trkpt>
      <trkpt lat="48.71771" lon="1.96457">
        <ele>98.87289</ele>
        <time>2016-05-08T15:57:26Z</time>
      </trkpt>
      <trkpt lat="48.71773" lon="1.96457">
        <ele>98.940823</ele>
        <time>2016-05-08T15:57:28Z</time>
      </trkpt>
      <trkpt lat="48.71775" lon="1.96457">
        <ele>97.812344</ele>
        <time>2016-05-08T15:57:30Z</time>
      </trkpt>
      <trkpt lat="48.71776" lon="1.96457">
        <ele>97.972134</ele>
        <time>2016-05-08T15:57:32Z</time>
      </trkpt>
      <trkpt lat="48.71778" lon="1.96458">
        <ele>97.371487</ele>
        <time>2016-05-08T15:57:34Z</time>
      </trkpt>
      <trkpt lat="48.71779" lon="1.96459">
        <ele>97.522182</ele>
        <time>2016-05-08T15:57:36Z</time>
      </trkpt>
      <trkpt lat="48.71779" lon="1.96459">
        <ele>97.691433</ele>
        <time>2016-05-08T15:57:38Z</time>
      </trkpt>
      <trkpt lat="48.71779" lon="1.96459">
        <ele>98.088711</ele>
        <time>2016-05-08T15:57:40Z</time>
      </trkpt>
      <trkpt lat="48.71779" lon="1.96459">
        <ele>98.091702</ele>
        <time>2016-05-08T15:57:42Z</time>
      </trkpt>
      <trkpt lat="48.71779" lon="1.96459">
        <ele>98.096584</ele>
        <time>2016-05-08T15:57:44Z</time>
      </trkpt>
      <trkpt lat="48.7178" lon="1.9646">
        <ele>98.100735</ele>
        <time>2016-05-08T15:57:46Z</time>
      </trkpt>
      <trkpt lat="48.7178" lon="1.9646">
        <ele>98.779629</ele>
        <time>2016-05-08T15:57:48Z</time>
      </trkpt>
      <trkpt lat="48.7178" lon="1.9646">
        <ele>99.083706</ele>
        <time>2016-05-08T15:57:50Z</time>
      </trkpt>
      <trkpt lat="48.7178" lon="1.9646">
        <ele>98.945889</ele>
        <time>2016-05-08T15:57:52Z</time>
      </trkpt>
      <trkpt lat="48.7178" lon="1.9646">
        <ele>99.231899</ele>
        <time>2016-05-08T15:57:54Z</time>
      </trkpt>
      <trkpt lat="48.7178" lon="1.9646">
        <ele>99.228115</ele>
        <time>2016-05-08T15:57:56Z</time>
      </trkpt>
      <trkpt lat="48.71778" lon="1.96464">
        <ele>99.472256</ele>
        <time>2016-05-08T15:57:58Z</time>
      </trkpt>
      <trkpt lat="48.71777" lon="1.96466">
        <ele>99.252041</ele>
        <time>2016-05-08T15:58:00Z</time>
      </trkpt>
      <trkpt lat="48.71777" lon="1.96468">
        <ele>98.746365</ele>
        <time>2016-05-08T15:58:02Z</time>
      </trkpt>
      <trkpt lat="48.71776" lon="1.9647">
        <ele>98.958157</ele>
        <time>2016-05-08T15:58:04Z</time>
      </trkpt>
      <trkpt lat="48.71775" lon="1.96473">
        <ele>98.453457</ele>
        <time>2016-05-08T15:58:06Z</time>
      </trkpt>
      <trkpt lat="48.71775" lon="1.96473">
        <ele>97.964443</ele>
        <time>2016-05-08T15:58:08Z</time>
      </trkpt>
      <trkpt lat="48.71775" lon="1.96473">
        <ele>97.235256</ele>
        <time>2016-05-08T15:58:10Z</time>
      </trkpt>
      <trkpt lat="48.71775" lon="1.96475">
        <ele>97.258083</ele>
        <time>2016-05-08T15:58:12Z</time>
      </trkpt>
      <trkpt lat="48.71775" lon="1.96477">
        <ele>97.386562</ele>
        <time>2016-05-08T15:58:14Z</time>
      </trkpt>
      <trkpt lat="48.71774" lon="1.96479">
        <ele>93.664978</ele>
        <time>2016-05-08T15:58:16Z</time>
      </trkpt>
      <trkpt lat="48.71773" lon="1.9648">
        <ele>93.535522</ele>
        <time>2016-05-08T15:58:18Z</time>
      </trkpt>
      <trkpt lat="48.71773" lon="1.9648">
        <ele>93.161743</ele>
        <time>2016-05-08T15:58:20Z</time>
      </trkpt>
      <trkpt lat="48.71773" lon="1.96479">
        <ele>93.681519</ele>
        <time>2016-05-08T15:58:22Z</time>
      </trkpt>
      <trkpt lat="48.71773" lon="1.96479">
        <ele>93.696167</ele>
        <time>2016-05-08T15:58:24Z</time>
      </trkpt>
      <trkpt lat="48.71774" lon="1.96477">
        <ele>94.061584</ele>
        <time>2016-05-08T15:58:26Z</time>
      </trkpt>
      <trkpt lat="48.71774" lon="1.96476">
        <ele>93.843018</ele>
        <time>2016-05-08T15:58:28Z</time>
      </trkpt>
      <trkpt lat="48.71774" lon="1.96474">
        <ele>94.177979</ele>
        <time>2016-05-08T15:58:30Z</time>
      </trkpt>
      <trkpt lat="48.71775" lon="1.96473">
        <ele>95.347656</ele>
        <time>2016-05-08T15:58:32Z</time>
      </trkpt>
      <trkpt lat="48.71775" lon="1.96472">
        <ele>96.196472</ele>
        <time>2016-05-08T15:58:34Z</time>
      </trkpt>
      <trkpt lat="48.71775" lon="1.96473">
        <ele>95.97229</ele>
        <time>2016-05-08T15:58:36Z</time>
      </trkpt>
      <trkpt lat="48.71776" lon="1.96473">
        <ele>96.720947</ele>
        <time>2016-05-08T15:58:38Z</time>
      </trkpt>
      <trkpt lat="48.71776" lon="1.96474">
        <ele>96.633545</ele>
        <time>2016-05-08T15:58:40Z</time>
      </trkpt>
      <trkpt lat="48.71775" lon="1.96474">
        <ele>97.113892</ele>
        <time>2016-05-08T15:58:42Z</time>
      </trkpt>
      <trkpt lat="48.71774" lon="1.96474">
        <ele>97.624634</ele>
        <time>2016-05-08T15:58:44Z</time>
      </trkpt>
      <trkpt lat="48.71773" lon="1.96476">
        <ele>97.210938</ele>
        <time>2016-05-08T15:58:46Z</time>
      </trkpt>
      <trkpt lat="48.71774" lon="1.96478">
        <ele>96.712646</ele>
        <time>2016-05-08T15:58:48Z</time>
      </trkpt>
      <trkpt lat="48.71774" lon="1.9648">
        <ele>97.591064</ele>
        <time>2016-05-08T15:58:50Z</time>
      </trkpt>
      <trkpt lat="48.71774" lon="1.96483">
        <ele>96.974609</ele>
        <time>2016-05-08T15:58:52Z</time>
      </trkpt>
      <trkpt lat="48.71773" lon="1.96486">
        <ele>97.159424</ele>
        <time>2016-05-08T15:58:54Z</time>
      </trkpt>
      <trkpt lat="48.71772" lon="1.96488">
        <ele>97.807251</ele>
        <time>2016-05-08T15:58:56Z</time>
      </trkpt>
      <trkpt lat="48.71771" lon="1.96492">
        <ele>97.433472</ele>
        <time>2016-05-08T15:58:58Z</time>
      </trkpt>
      <trkpt lat="48.7177" lon="1.96496">
        <ele>97.820312</ele>
        <time>2016-05-08T15:59:00Z</time>
      </trkpt>
      <trkpt lat="48.71769" lon="1.96498">
        <ele>98.41156</ele>
        <time>2016-05-08T15:59:02Z</time>
      </trkpt>
      <trkpt lat="48.71767" lon="1.965">
        <ele>98.744812</ele>
        <time>2016-05-08T15:59:04Z</time>
      </trkpt>
      <trkpt lat="48.71766" lon="1.96503">
        <ele>98.7229</ele>
        <time>2016-05-08T15:59:06Z</time>
      </trkpt>
      <trkpt lat="48.71766" lon="1.96506">
        <ele>99.725342</ele>
        <time>2016-05-08T15:59:08Z</time>
      </trkpt>
      <trkpt lat="48.71765" lon="1.9651">
        <ele>100.576843</ele>
        <time>2016-05-08T15:59:10Z</time>
      </trkpt>
      <trkpt lat="48.71765" lon="1.96513">
        <ele>101.169678</ele>
        <time>2016-05-08T15:59:12Z</time>
      </trkpt>
      <trkpt lat="48.71764" lon="1.96516">
        <ele>101.020264</ele>
        <time>2016-05-08T15:59:14Z</time>
      </trkpt>
      <trkpt lat="48.71764" lon="1.96517">
        <ele>100.57605</ele>
        <time>2016-05-08T15:59:16Z</time>
      </trkpt>
      <trkpt lat="48.71762" lon="1.96519">
        <ele>99.629028</ele>
        <time>2016-05-08T15:59:18Z</time>
      </trkpt>
      <trkpt lat="48.71761" lon="1.96521">
        <ele>100.438232</ele>
        <time>2016-05-08T15:59:20Z</time>
      </trkpt>
      <trkpt lat="48.71759" lon="1.96525">
        <ele>100.336182</ele>
        <time>2016-05-08T15:59:22Z</time>
      </trkpt>
      <trkpt lat="48.71756" lon="1.96528">
        <ele>100.558838</ele>
        <time>2016-05-08T15:59:24Z</time>
      </trkpt>
      <trkpt lat="48.71754" lon="1.96532">
        <ele>100.786926</ele>
        <time>2016-05-08T15:59:26Z</time>
      </trkpt>
      <trkpt lat="48.71752" lon="1.96535">
        <ele>101.202759</ele>
        <time>2016-05-08T15:59:28Z</time>
      </trkpt>
      <trkpt lat="48.7175" lon="1.96539">
        <ele>100.830322</ele>
        <time>2016-05-08T15:59:30Z</time>
      </trkpt>
      <trkpt lat="48.7175" lon="1.96541">
        <ele>100.697144</ele>
        <time>2016-05-08T15:59:32Z</time>
      </trkpt>
      <trkpt lat="48.71749" lon="1.96544">
        <ele>101.118591</ele>
        <time>2016-05-08T15:59:34Z</time>
      </trkpt>
      <trkpt lat="48.71747" lon="1.96547">
        <ele>101.822083</ele>
        <time>2016-05-08T15:59:36Z</time>
      </trkpt>
      <trkpt lat="48.71745" lon="1.9655">
        <ele>101.448547</ele>
        <time>2016-05-08T15:59:38Z</time>
      </trkpt>
      <trkpt lat="48.71742" lon="1.96553">
        <ele>100.851379</ele>
        <time>2016-05-08T15:59:40Z</time>
      </trkpt>
      <trkpt lat="48.71739" lon="1.96555">
        <ele>101.366272</ele>
        <time>2016-05-08T15:59:42Z</time>
      </trkpt>
      <trkpt lat="48.71738" lon="1.96557">
        <ele>101.770813</ele>
        <time>2016-05-08T15:59:44Z</time>
      </trkpt>
      <trkpt lat="48.71738" lon="1.96558">
        <ele>101.793701</ele>
        <time>2016-05-08T15:59:46Z</time>
      </trkpt>
      <trkpt lat="48.71738" lon="1.9656">
        <ele>101.792664</ele>
        <time>2016-05-08T15:59:48Z</time>
      </trkpt>
      <trkpt lat="48.71738" lon="1.96561">
        <ele>101.630066</ele>
        <time>2016-05-08T15:59:50Z</time>
      </trkpt>
      <trkpt lat="48.71737" lon="1.96563">
        <ele>102.105591</ele>
        <time>2016-05-08T15:59:52Z</time>
      </trkpt>
      <trkpt lat="48.71736" lon="1.96565">
        <ele>100.715332</ele>
        <time>2016-05-08T15:59:54Z</time>
      </trkpt>
      <trkpt lat="48.71734" lon="1.96567">
        <ele>100.36554</ele>
        <time>2016-05-08T15:59:56Z</time>
      </trkpt>
      <trkpt lat="48.71733" lon="1.9657">
        <ele>100.624634</ele>
        <time>2016-05-08T15:59:58Z</time>
      </trkpt>
      <trkpt lat="48.71733" lon="1.96572">
        <ele>100.13446</ele>
        <time>2016-05-08T16:00:00Z</time>
      </trkpt>
      <trkpt lat="48.71732" lon="1.96575">
        <ele>100.469299</ele>
        <time>2016-05-08T16:00:02Z</time>
      </trkpt>
      <trkpt lat="48.71732" lon="1.96578">
        <ele>101.784973</ele>
        <time>2016-05-08T16:00:04Z</time>
      </trkpt>
      <trkpt lat="48.7173" lon="1.96581">
        <ele>101.53717</ele>
        <time>2016-05-08T16:00:06Z</time>
      </trkpt>
      <trkpt lat="48.71729" lon="1.96584">
        <ele>100.401184</ele>
        <time>2016-05-08T16:00:08Z</time>
      </trkpt>
      <trkpt lat="48.71728" lon="1.96587">
        <ele>100.127319</ele>
        <time>2016-05-08T16:00:10Z</time>
      </trkpt>
      <trkpt lat="48.71728" lon="1.96589">
        <ele>100.277771</ele>
        <time>2016-05-08T16:00:12Z</time>
      </trkpt>
      <trkpt lat="48.71726" lon="1.96592">
        <ele>100.434937</ele>
        <time>2016-05-08T16:00:14Z</time>
      </trkpt>
      <trkpt lat="48.71725" lon="1.96596">
        <ele>100.403076</ele>
        <time>2016-05-08T16:00:16Z</time>
      </trkpt>
      <trkpt lat="48.71724" lon="1.96597">
        <ele>99.3526</ele>
        <time>2016-05-08T16:00:18Z</time>
      </trkpt>
      <trkpt lat="48.71724" lon="1.966">
        <ele>98.429749</ele>
        <time>2016-05-08T16:00:20Z</time>
      </trkpt>
      <trkpt lat="48.71723" lon="1.96602">
        <ele>97.559021</ele>
        <time>2016-05-08T16:00:22Z</time>
      </trkpt>
      <trkpt lat="48.71721" lon="1.96605">
        <ele>97.472656</ele>
        <time>2016-05-08T16:00:24Z</time>
      </trkpt>
      <trkpt lat="48.71719" lon="1.96608">
        <ele>98.340881</ele>
        <time>2016-05-08T16:00:26Z</time>
      </trkpt>
      <trkpt lat="48.71718" lon="1.9661">
        <ele>99.00293</ele>
        <time>2016-05-08T16:00:28Z</time>
      </trkpt>
      <trkpt lat="48.71716" lon="1.96613">
        <ele>99.530518</ele>
        <time>2016-05-08T16:00:30Z</time>
      </trkpt>
      <trkpt lat="48.71715" lon="1.96616">
        <ele>98.839478</ele>
        <time>2016-05-08T16:00:32Z</time>
      </trkpt>
      <trkpt lat="48.71713" lon="1.96617">
        <ele>98.779724</ele>
        <time>2016-05-08T16:00:34Z</time>
      </trkpt>
      <trkpt lat="48.71712" lon="1.96618">
        <ele>98.648071</ele>
        <time>2016-05-08T16:00:36Z</time>
      </trkpt>
      <trkpt lat="48.71711" lon="1.96619">
        <ele>98.429504</ele>
        <time>2016-05-08T16:00:38Z</time>
      </trkpt>
      <trkpt lat="48.71709" lon="1.96622">
        <ele>98.606384</ele>
        <time>2016-05-08T16:00:40Z</time>
      </trkpt>
      <trkpt lat="48.71709" lon="1.96625">
        <ele>99.754517</ele>
        <time>2016-05-08T16:00:42Z</time>
      </trkpt>
      <trkpt lat="48.71707" lon="1.96627">
        <ele>100.639404</ele>
        <time>2016-05-08T16:00:44Z</time>
      </trkpt>
      <trkpt lat="48.71706" lon="1.96629">
        <ele>100.195129</ele>
        <time>2016-05-08T16:00:46Z</time>
      </trkpt>
      <trkpt lat="48.71704" lon="1.96632">
        <ele>100.402283</ele>
        <time>2016-05-08T16:00:48Z</time>
      </trkpt>
      <trkpt lat="48.71702" lon="1.96635">
        <ele>101.342957</ele>
        <time>2016-05-08T16:00:50Z</time>
      </trkpt>
      <trkpt lat="48.71701" lon="1.96637">
        <ele>100.497498</ele>
        <time>2016-05-08T16:00:52Z</time>
      </trkpt>
      <trkpt lat="48.717" lon="1.96641">
        <ele>100.961548</ele>
        <time>2016-05-08T16:00:54Z</time>
      </trkpt>
      <trkpt lat="48.717" lon="1.96644">
        <ele>100.862183</ele>
        <time>2016-05-08T16:00:56Z</time>
      </trkpt>
      <trkpt lat="48.71699" lon="1.96647">
        <ele>101.459656</ele>
        <time>2016-05-08T16:00:58Z</time>
      </trkpt>
      <trkpt lat="48.71698" lon="1.96651">
        <ele>101.781738</ele>
        <time>2016-05-08T16:01:00Z</time>
      </trkpt>
      <trkpt lat="48.71696" lon="1.96655">
        <ele>103.029541</ele>
        <time>2016-05-08T16:01:02Z</time>
      </trkpt>
      <trkpt lat="48.71695" lon="1.96658">
        <ele>102.757019</ele>
        <time>2016-05-08T16:01:04Z</time>
      </trkpt>
      <trkpt lat="48.71694" lon="1.9666">
        <ele>102.355225</ele>
        <time>2016-05-08T16:01:06Z</time>
      </trkpt>
      <trkpt lat="48.71693" lon="1.96663">
        <ele>102.032227</ele>
        <time>2016-05-08T16:01:08Z</time>
      </trkpt>
      <trkpt lat="48.71693" lon="1.96665">
        <ele>101.870178</ele>
        <time>2016-05-08T16:01:10Z</time>
      </trkpt>
      <trkpt lat="48.7169" lon="1.96669">
        <ele>102.415771</ele>
        <time>2016-05-08T16:01:12Z</time>
      </trkpt>
      <trkpt lat="48.71687" lon="1.96673">
        <ele>101.099731</ele>
        <time>2016-05-08T16:01:14Z</time>
      </trkpt>
      <trkpt lat="48.71687" lon="1.96676">
        <ele>100.744873</ele>
        <time>2016-05-08T16:01:16Z</time>
      </trkpt>
      <trkpt lat="48.71686" lon="1.96679">
        <ele>101.143311</ele>
        <time>2016-05-08T16:01:18Z</time>
      </trkpt>
      <trkpt lat="48.71685" lon="1.96681">
        <ele>100.792725</ele>
        <time>2016-05-08T16:01:20Z</time>
      </trkpt>
      <trkpt lat="48.71684" lon="1.96684">
        <ele>101.298889</ele>
        <time>2016-05-08T16:01:22Z</time>
      </trkpt>
      <trkpt lat="48.71683" lon="1.96687">
        <ele>101.218018</ele>
        <time>2016-05-08T16:01:24Z</time>
      </trkpt>
      <trkpt lat="48.71681" lon="1.9669">
        <ele>101.88385</ele>
        <time>2016-05-08T16:01:26Z</time>
      </trkpt>
      <trkpt lat="48.7168" lon="1.96692">
        <ele>102.538391</ele>
        <time>2016-05-08T16:01:28Z</time>
      </trkpt>
      <trkpt lat="48.71679" lon="1.96695">
        <ele>103.274292</ele>
        <time>2016-05-08T16:01:30Z</time>
      </trkpt>
      <trkpt lat="48.71678" lon="1.96698">
        <ele>103.233154</ele>
        <time>2016-05-08T16:01:32Z</time>
      </trkpt>
      <trkpt lat="48.71677" lon="1.96703">
        <ele>104.157959</ele>
        <time>2016-05-08T16:01:34Z</time>
      </trkpt>
      <trkpt lat="48.71676" lon="1.96707">
        <ele>104.055115</ele>
        <time>2016-05-08T16:01:36Z</time>
      </trkpt>
      <trkpt lat="48.71675" lon="1.9671">
        <ele>104.059753</ele>
        <time>2016-05-08T16:01:38Z</time>
      </trkpt>
      <trkpt lat="48.71674" lon="1.96714">
        <ele>104.141357</ele>
        <time>2016-05-08T16:01:40Z</time>
      </trkpt>
      <trkpt lat="48.71672" lon="1.96716">
        <ele>102.303894</ele>
        <time>2016-05-08T16:01:42Z</time>
      </trkpt>
      <trkpt lat="48.7167" lon="1.9672">
        <ele>101.343384</ele>
        <time>2016-05-08T16:01:44Z</time>
      </trkpt>
      <trkpt lat="48.71667" lon="1.96724">
        <ele>100.059509</ele>
        <time>2016-05-08T16:01:46Z</time>
      </trkpt>
      <trkpt lat="48.71666" lon="1.96728">
        <ele>100.680176</ele>
        <time>2016-05-08T16:01:48Z</time>
      </trkpt>
      <trkpt lat="48.71665" lon="1.9673">
        <ele>101.088989</ele>
        <time>2016-05-08T16:01:49Z</time>
      </trkpt>
      <trkpt lat="48.71664" lon="1.96734">
        <ele>101.40155</ele>
        <time>2016-05-08T16:01:51Z</time>
      </trkpt>
      <trkpt lat="48.71663" lon="1.96735">
        <ele>100.899963</ele>
        <time>2016-05-08T16:01:52Z</time>
      </trkpt>
      <trkpt lat="48.71663" lon="1.96736">
        <ele>102.111267</ele>
        <time>2016-05-08T16:01:53Z</time>
      </trkpt>
      <trkpt lat="48.71663" lon="1.96737">
        <ele>102.535034</ele>
        <time>2016-05-08T16:01:54Z</time>
      </trkpt>
      <trkpt lat="48.71663" lon="1.96737">
        <ele>101.781616</ele>
        <time>2016-05-08T16:01:55Z</time>
      </trkpt>
      <trkpt lat="48.71663" lon="1.96737">
        <ele>101.871338</ele>
        <time>2016-05-08T16:01:56Z</time>
      </trkpt>
      <trkpt lat="48.71663" lon="1.96737">
        <ele>102.321777</ele>
        <time>2016-05-08T16:01:57Z</time>
      </trkpt>
      <trkpt lat="48.71663" lon="1.96737">
        <ele>101.690979</ele>
        <time>2016-05-08T16:01:58Z</time>
      </trkpt>
      <trkpt lat="48.71663" lon="1.96737">
        <ele>101.430054</ele>
        <time>2016-05-08T16:01:59Z</time>
      </trkpt>
      <trkpt lat="48.71664" lon="1.96737">
        <ele>101.06311</ele>
        <time>2016-05-08T16:02:00Z</time>
      </trkpt>
      <trkpt lat="48.71664" lon="1.96737">
        <ele>100.61731</ele>
        <time>2016-05-08T16:02:01Z</time>
      </trkpt>
      <trkpt lat="48.71664" lon="1.96737">
        <ele>100.661926</ele>
        <time>2016-05-08T16:02:02Z</time>
      </trkpt>
      <trkpt lat="48.71664" lon="1.96737">
        <ele>100.669312</ele>
        <time>2016-05-08T16:02:03Z</time>
      </trkpt>
      <trkpt lat="48.71664" lon="1.96737">
        <ele>100.668762</ele>
        <time>2016-05-08T16:02:04Z</time>
      </trkpt>
      <trkpt lat="48.71664" lon="1.96737">
        <ele>100.657532</ele>
        <time>2016-05-08T16:02:05Z</time>
      </trkpt>
      <trkpt lat="48.71664" lon="1.96737">
        <ele>100.647339</ele>
        <time>2016-05-08T16:02:06Z</time>
      </trkpt>
      <trkpt lat="48.71664" lon="1.96737">
        <ele>100.652405</ele>
        <time>2016-05-08T16:02:07Z</time>
      </trkpt>
      <trkpt lat="48.71664" lon="1.96737">
        <ele>100.654053</ele>
        <time>2016-05-08T16:02:08Z</time>
      </trkpt>
      <trkpt lat="48.71664" lon="1.96737">
        <ele>100.652588</ele>
        <time>2016-05-08T16:02:09Z</time>
      </trkpt>
      <trkpt lat="48.71664" lon="1.96737">
        <ele>101.111938</ele>
        <time>2016-05-08T16:02:10Z</time>
      </trkpt>
      <trkpt lat="48.71662" lon="1.96736">
        <ele>100.566956</ele>
        <time>2016-05-08T16:02:11Z</time>
      </trkpt>
      <trkpt lat="48.71661" lon="1.96736">
        <ele>101.508667</ele>
        <time>2016-05-08T16:02:12Z</time>
      </trkpt>
      <trkpt lat="48.7166" lon="1.96736">
        <ele>102.843506</ele>
        <time>2016-05-08T16:02:13Z</time>
      </trkpt>
      <trkpt lat="48.71659" lon="1.96737">
        <ele>103.271118</ele>
        <time>2016-05-08T16:02:14Z</time>
      </trkpt>
      <trkpt lat="48.71659" lon="1.96737">
        <ele>103.25708</ele>
        <time>2016-05-08T16:02:15Z</time>
      </trkpt>
      <trkpt lat="48.71659" lon="1.96737">
        <ele>103.257629</ele>
        <time>2016-05-08T16:02:16Z</time>
      </trkpt>
      <trkpt lat="48.71659" lon="1.96737">
        <ele>103.261108</ele>
        <time>2016-05-08T16:02:17Z</time>
      </trkpt>
      <trkpt lat="48.71659" lon="1.96737">
        <ele>103.254883</ele>
        <time>2016-05-08T16:02:18Z</time>
      </trkpt>
      <trkpt lat="48.71659" lon="1.96737">
        <ele>103.238159</ele>
        <time>2016-05-08T16:02:19Z</time>
      </trkpt>
      <trkpt lat="48.71659" lon="1.96737">
        <ele>103.238159</ele>
        <time>2016-05-08T16:02:20Z</time>
      </trkpt>
      <trkpt lat="48.71659" lon="1.96737">
        <ele>103.233765</ele>
        <time>2016-05-08T16:02:21Z</time>
      </trkpt>
      <trkpt lat="48.71659" lon="1.96737">
        <ele>103.229492</ele>
        <time>2016-05-08T16:02:22Z</time>
      </trkpt>
      <trkpt lat="48.71659" lon="1.96737">
        <ele>103.234253</ele>
        <time>2016-05-08T16:02:23Z</time>
      </trkpt>
      <trkpt lat="48.71659" lon="1.96737">
        <ele>103.247681</ele>
        <time>2016-05-08T16:02:24Z</time>
      </trkpt>
      <trkpt lat="48.71659" lon="1.96737">
        <ele>103.24762</ele>
        <time>2016-05-08T16:02:25Z</time>
      </trkpt>
      <trkpt lat="48.71659" lon="1.96737">
        <ele>103.241089</ele>
        <time>2016-05-08T16:02:26Z</time>
      </trkpt>
      <trkpt lat="48.71659" lon="1.96737">
        <ele>103.246704</ele>
        <time>2016-05-08T16:02:27Z</time>
      </trkpt>
      <trkpt lat="48.71659" lon="1.96737">
        <ele>103.26062</ele>
        <time>2016-05-08T16:02:28Z</time>
      </trkpt>
      <trkpt lat="48.71659" lon="1.96737">
        <ele>103.255981</ele>
        <time>2016-05-08T16:02:29Z</time>
      </trkpt>
      <trkpt lat="48.71659" lon="1.96737">
        <ele>103.251831</ele>
        <time>2016-05-08T16:02:30Z</time>
      </trkpt>
      <trkpt lat="48.71659" lon="1.96737">
        <ele>103.249756</ele>
        <time>2016-05-08T16:02:31Z</time>
      </trkpt>
      <trkpt lat="48.71659" lon="1.96737">
        <ele>103.245972</ele>
        <time>2016-05-08T16:02:32Z</time>
      </trkpt>
      <trkpt lat="48.71659" lon="1.96737">
        <ele>103.248657</ele>
        <time>2016-05-08T16:02:33Z</time>
      </trkpt>
      <trkpt lat="48.71659" lon="1.96737">
        <ele>103.255127</ele>
        <time>2016-05-08T16:02:34Z</time>
      </trkpt>
      <trkpt lat="48.71659" lon="1.96737">
        <ele>103.254395</ele>
        <time>2016-05-08T16:02:35Z</time>
      </trkpt>
      <trkpt lat="48.71659" lon="1.96737">
        <ele>103.254333</ele>
        <time>2016-05-08T16:02:36Z</time>
      </trkpt>
      <trkpt lat="48.71659" lon="1.96737">
        <ele>103.244568</ele>
        <time>2016-05-08T16:02:37Z</time>
      </trkpt>
      <trkpt lat="48.71659" lon="1.96737">
        <ele>103.235535</ele>
        <time>2016-05-08T16:02:38Z</time>
      </trkpt>
      <trkpt lat="48.71659" lon="1.96737">
        <ele>103.236938</ele>
        <time>2016-05-08T16:02:39Z</time>
      </trkpt>
      <trkpt lat="48.71659" lon="1.96737">
        <ele>103.22998</ele>
        <time>2016-05-08T16:02:40Z</time>
      </trkpt>
      <trkpt lat="48.71659" lon="1.96737">
        <ele>103.229736</ele>
        <time>2016-05-08T16:02:41Z</time>
      </trkpt>
      <trkpt lat="48.71659" lon="1.96737">
        <ele>103.218506</ele>
        <time>2016-05-08T16:02:42Z</time>
      </trkpt>
      <trkpt lat="48.71659" lon="1.96737">
        <ele>103.219727</ele>
        <time>2016-05-08T16:02:43Z</time>
      </trkpt>
      <trkpt lat="48.71659" lon="1.96737">
        <ele>103.219055</ele>
        <time>2016-05-08T16:02:44Z</time>
      </trkpt>
      <trkpt lat="48.71659" lon="1.96737">
        <ele>103.727295</ele>
        <time>2016-05-08T16:02:45Z</time>
      </trkpt>
      <trkpt lat="48.71659" lon="1.96737">
        <ele>101.324402</ele>
        <time>2016-05-08T16:02:46Z</time>
      </trkpt>
      <trkpt lat="48.71659" lon="1.96737">
        <ele>100.242798</ele>
        <time>2016-05-08T16:02:47Z</time>
      </trkpt>
      <trkpt lat="48.71659" lon="1.96737">
        <ele>99.560608</ele>
        <time>2016-05-08T16:02:48Z</time>
      </trkpt>
      <trkpt lat="48.71659" lon="1.96737">
        <ele>100.078186</ele>
        <time>2016-05-08T16:02:49Z</time>
      </trkpt>
      <trkpt lat="48.71657" lon="1.96739">
        <ele>99.920959</ele>
        <time>2016-05-08T16:02:50Z</time>
      </trkpt>
      <trkpt lat="48.71657" lon="1.96738">
        <ele>98.134216</ele>
        <time>2016-05-08T16:02:51Z</time>
      </trkpt>
      <trkpt lat="48.71657" lon="1.96738">
        <ele>98.205261</ele>
        <time>2016-05-08T16:02:52Z</time>
      </trkpt>
      <trkpt lat="48.71656" lon="1.96739">
        <ele>97.684265</ele>
        <time>2016-05-08T16:02:53Z</time>
      </trkpt>
      <trkpt lat="48.71657" lon="1.9674">
        <ele>97.995605</ele>
        <time>2016-05-08T16:02:54Z</time>
      </trkpt>
      <trkpt lat="48.71657" lon="1.96741">
        <ele>98.088867</ele>
        <time>2016-05-08T16:02:55Z</time>
      </trkpt>
      <trkpt lat="48.71658" lon="1.96742">
        <ele>98.009949</ele>
        <time>2016-05-08T16:02:56Z</time>
      </trkpt>
      <trkpt lat="48.71659" lon="1.96743">
        <ele>98.358643</ele>
        <time>2016-05-08T16:02:57Z</time>
      </trkpt>
      <trkpt lat="48.7166" lon="1.96744">
        <ele>98.411438</ele>
        <time>2016-05-08T16:02:58Z</time>
      </trkpt>
      <trkpt lat="48.71661" lon="1.96745">
        <ele>98.119873</ele>
        <time>2016-05-08T16:02:59Z</time>
      </trkpt>
      <trkpt lat="48.71662" lon="1.96746">
        <ele>97.302002</ele>
        <time>2016-05-08T16:03:00Z</time>
      </trkpt>
      <trkpt lat="48.71662" lon="1.96747">
        <ele>97.622314</ele>
        <time>2016-05-08T16:03:01Z</time>
      </trkpt>
      <trkpt lat="48.71663" lon="1.96749">
        <ele>97.769531</ele>
        <time>2016-05-08T16:03:02Z</time>
      </trkpt>
      <trkpt lat="48.71664" lon="1.9675">
        <ele>98.094482</ele>
        <time>2016-05-08T16:03:03Z</time>
      </trkpt>
      <trkpt lat="48.71664" lon="1.96752">
        <ele>97.822266</ele>
        <time>2016-05-08T16:03:04Z</time>
      </trkpt>
      <trkpt lat="48.71663" lon="1.96753">
        <ele>98.961304</ele>
        <time>2016-05-08T16:03:05Z</time>
      </trkpt>
      <trkpt lat="48.71663" lon="1.96753">
        <ele>99.858765</ele>
        <time>2016-05-08T16:03:06Z</time>
      </trkpt>
      <trkpt lat="48.71663" lon="1.96754">
        <ele>99.790161</ele>
        <time>2016-05-08T16:03:07Z</time>
      </trkpt>
      <trkpt lat="48.71663" lon="1.96755">
        <ele>99.623535</ele>
        <time>2016-05-08T16:03:08Z</time>
      </trkpt>
      <trkpt lat="48.71663" lon="1.96755">
        <ele>99.764893</ele>
        <time>2016-05-08T16:03:09Z</time>
      </trkpt>
      <trkpt lat="48.71663" lon="1.96755">
        <ele>100.255127</ele>
        <time>2016-05-08T16:03:10Z</time>
      </trkpt>
      <trkpt lat="48.71664" lon="1.96756">
        <ele>99.761719</ele>
        <time>2016-05-08T16:03:11Z</time>
      </trkpt>
      <trkpt lat="48.71663" lon="1.96756">
        <ele>100.412598</ele>
        <time>2016-05-08T16:03:12Z</time>
      </trkpt>
      <trkpt lat="48.71663" lon="1.96757">
        <ele>101.2099</ele>
        <time>2016-05-08T16:03:13Z</time>
      </trkpt>
      <trkpt lat="48.71662" lon="1.96757">
        <ele>101.056213</ele>
        <time>2016-05-08T16:03:14Z</time>
      </trkpt>
      <trkpt lat="48.71661" lon="1.96759">
        <ele>101.503174</ele>
        <time>2016-05-08T16:03:15Z</time>
      </trkpt>
      <trkpt lat="48.7166" lon="1.9676">
        <ele>100.805786</ele>
        <time>2016-05-08T16:03:16Z</time>
      </trkpt>
      <trkpt lat="48.7166" lon="1.96761">
        <ele>100.505737</ele>
        <time>2016-05-08T16:03:17Z</time>
      </trkpt>
      <trkpt lat="48.71659" lon="1.96763">
        <ele>99.570496</ele>
        <time>2016-05-08T16:03:18Z</time>
      </trkpt>
      <trkpt lat="48.71658" lon="1.96765">
        <ele>98.023804</ele>
        <time>2016-05-08T16:03:19Z</time>
      </trkpt>
      <trkpt lat="48.71658" lon="1.96766">
        <ele>97.897156</ele>
        <time>2016-05-08T16:03:20Z</time>
      </trkpt>
      <trkpt lat="48.71657" lon="1.96767">
        <ele>98.271851</ele>
        <time>2016-05-08T16:03:21Z</time>
      </trkpt>
      <trkpt lat="48.71656" lon="1.96768">
        <ele>97.827637</ele>
        <time>2016-05-08T16:03:22Z</time>
      </trkpt>
      <trkpt lat="48.71655" lon="1.96769">
        <ele>97.235962</ele>
        <time>2016-05-08T16:03:23Z</time>
      </trkpt>
      <trkpt lat="48.71655" lon="1.96771">
        <ele>97.473206</ele>
        <time>2016-05-08T16:03:24Z</time>
      </trkpt>
      <trkpt lat="48.71654" lon="1.96772">
        <ele>96.602844</ele>
        <time>2016-05-08T16:03:25Z</time>
      </trkpt>
      <trkpt lat="48.71653" lon="1.96773">
        <ele>95.705811</ele>
        <time>2016-05-08T16:03:26Z</time>
      </trkpt>
      <trkpt lat="48.71653" lon="1.96774">
        <ele>95.518494</ele>
        <time>2016-05-08T16:03:27Z</time>
      </trkpt>
      <trkpt lat="48.71652" lon="1.96774">
        <ele>95.837097</ele>
        <time>2016-05-08T16:03:28Z</time>
      </trkpt>
      <trkpt lat="48.71652" lon="1.96775">
        <ele>96.619019</ele>
        <time>2016-05-08T16:03:29Z</time>
      </trkpt>
      <trkpt lat="48.71651" lon="1.96776">
        <ele>96.387207</ele>
        <time>2016-05-08T16:03:30Z</time>
      </trkpt>
      <trkpt lat="48.71651" lon="1.96776">
        <ele>96.500183</ele>
        <time>2016-05-08T16:03:31Z</time>
      </trkpt>
      <trkpt lat="48.71651" lon="1.96777">
        <ele>96.588684</ele>
        <time>2016-05-08T16:03:32Z</time>
      </trkpt>
      <trkpt lat="48.7165" lon="1.96778">
        <ele>96.945618</ele>
        <time>2016-05-08T16:03:33Z</time>
      </trkpt>
      <trkpt lat="48.71649" lon="1.9678">
        <ele>96.475403</ele>
        <time>2016-05-08T16:03:34Z</time>
      </trkpt>
      <trkpt lat="48.71648" lon="1.96781">
        <ele>96.608154</ele>
        <time>2016-05-08T16:03:35Z</time>
      </trkpt>
      <trkpt lat="48.71647" lon="1.96783">
        <ele>96.959595</ele>
        <time>2016-05-08T16:03:36Z</time>
      </trkpt>
      <trkpt lat="48.71647" lon="1.96784">
        <ele>96.872375</ele>
        <time>2016-05-08T16:03:37Z</time>
      </trkpt>
      <trkpt lat="48.71646" lon="1.96786">
        <ele>97.490662</ele>
        <time>2016-05-08T16:03:38Z</time>
      </trkpt>
      <trkpt lat="48.71645" lon="1.96787">
        <ele>97.599304</ele>
        <time>2016-05-08T16:03:39Z</time>
      </trkpt>
      <trkpt lat="48.71643" lon="1.96789">
        <ele>97.711914</ele>
        <time>2016-05-08T16:03:40Z</time>
      </trkpt>
      <trkpt lat="48.71642" lon="1.96791">
        <ele>98.095764</ele>
        <time>2016-05-08T16:03:41Z</time>
      </trkpt>
      <trkpt lat="48.71641" lon="1.96793">
        <ele>98.529785</ele>
        <time>2016-05-08T16:03:42Z</time>
      </trkpt>
      <trkpt lat="48.71641" lon="1.96794">
        <ele>99.060791</ele>
        <time>2016-05-08T16:03:43Z</time>
      </trkpt>
      <trkpt lat="48.7164" lon="1.96795">
        <ele>98.744202</ele>
        <time>2016-05-08T16:03:44Z</time>
      </trkpt>
      <trkpt lat="48.7164" lon="1.96796">
        <ele>98.647827</ele>
        <time>2016-05-08T16:03:45Z</time>
      </trkpt>
      <trkpt lat="48.7164" lon="1.96797">
        <ele>98.82782</ele>
        <time>2016-05-08T16:03:46Z</time>
      </trkpt>
      <trkpt lat="48.71639" lon="1.96797">
        <ele>98.767639</ele>
        <time>2016-05-08T16:03:47Z</time>
      </trkpt>
      <trkpt lat="48.71639" lon="1.96796">
        <ele>98.894958</ele>
        <time>2016-05-08T16:03:48Z</time>
      </trkpt>
      <trkpt lat="48.7164" lon="1.96795">
        <ele>99.005554</ele>
        <time>2016-05-08T16:03:49Z</time>
      </trkpt>
      <trkpt lat="48.7164" lon="1.96796">
        <ele>99.590637</ele>
        <time>2016-05-08T16:03:50Z</time>
      </trkpt>
      <trkpt lat="48.71638" lon="1.96798">
        <ele>99.361816</ele>
        <time>2016-05-08T16:03:51Z</time>
      </trkpt>
      <trkpt lat="48.71637" lon="1.968">
        <ele>99.441223</ele>
        <time>2016-05-08T16:03:52Z</time>
      </trkpt>
      <trkpt lat="48.71635" lon="1.96801">
        <ele>99.754456</ele>
        <time>2016-05-08T16:03:53Z</time>
      </trkpt>
      <trkpt lat="48.71633" lon="1.96803">
        <ele>99.871155</ele>
        <time>2016-05-08T16:03:54Z</time>
      </trkpt>
      <trkpt lat="48.71631" lon="1.96805">
        <ele>99.985962</ele>
        <time>2016-05-08T16:03:55Z</time>
      </trkpt>
      <trkpt lat="48.71629" lon="1.96807">
        <ele>100.289429</ele>
        <time>2016-05-08T16:03:56Z</time>
      </trkpt>
      <trkpt lat="48.71627" lon="1.96809">
        <ele>100.710938</ele>
        <time>2016-05-08T16:03:57Z</time>
      </trkpt>
      <trkpt lat="48.71626" lon="1.96811">
        <ele>100.792725</ele>
        <time>2016-05-08T16:03:58Z</time>
      </trkpt>
      <trkpt lat="48.71625" lon="1.96812">
        <ele>100.436829</ele>
        <time>2016-05-08T16:03:59Z</time>
      </trkpt>
      <trkpt lat="48.71624" lon="1.96813">
        <ele>100.708923</ele>
        <time>2016-05-08T16:04:00Z</time>
      </trkpt>
      <trkpt lat="48.71623" lon="1.96815">
        <ele>100.695251</ele>
        <time>2016-05-08T16:04:01Z</time>
      </trkpt>
      <trkpt lat="48.71622" lon="1.96816">
        <ele>100.899292</ele>
        <time>2016-05-08T16:04:02Z</time>
      </trkpt>
      <trkpt lat="48.71621" lon="1.96817">
        <ele>101.0896</ele>
        <time>2016-05-08T16:04:03Z</time>
      </trkpt>
      <trkpt lat="48.71621" lon="1.96818">
        <ele>101.222412</ele>
        <time>2016-05-08T16:04:04Z</time>
      </trkpt>
      <trkpt lat="48.7162" lon="1.96818">
        <ele>101.096619</ele>
        <time>2016-05-08T16:04:06Z</time>
      </trkpt>
      <trkpt lat="48.71619" lon="1.9682">
        <ele>100.537964</ele>
        <time>2016-05-08T16:04:07Z</time>
      </trkpt>
      <trkpt lat="48.71618" lon="1.9682">
        <ele>100.579956</ele>
        <time>2016-05-08T16:04:08Z</time>
      </trkpt>
      <trkpt lat="48.71618" lon="1.9682">
        <ele>100.980042</ele>
        <time>2016-05-08T16:04:09Z</time>
      </trkpt>
      <trkpt lat="48.71617" lon="1.9682">
        <ele>99.764893</ele>
        <time>2016-05-08T16:04:10Z</time>
      </trkpt>
      <trkpt lat="48.71616" lon="1.9682">
        <ele>99.699585</ele>
        <time>2016-05-08T16:04:11Z</time>
      </trkpt>
      <trkpt lat="48.71615" lon="1.96821">
        <ele>99.726501</ele>
        <time>2016-05-08T16:04:12Z</time>
      </trkpt>
      <trkpt lat="48.71614" lon="1.96823">
        <ele>98.71875</ele>
        <time>2016-05-08T16:04:13Z</time>
      </trkpt>
      <trkpt lat="48.71613" lon="1.96825">
        <ele>98.44812</ele>
        <time>2016-05-08T16:04:14Z</time>
      </trkpt>
      <trkpt lat="48.71612" lon="1.96826">
        <ele>99.160522</ele>
        <time>2016-05-08T16:04:15Z</time>
      </trkpt>
      <trkpt lat="48.71611" lon="1.96828">
        <ele>99.096252</ele>
        <time>2016-05-08T16:04:16Z</time>
      </trkpt>
      <trkpt lat="48.71611" lon="1.96829">
        <ele>98.989258</ele>
        <time>2016-05-08T16:04:17Z</time>
      </trkpt>
      <trkpt lat="48.7161" lon="1.9683">
        <ele>98.791199</ele>
        <time>2016-05-08T16:04:18Z</time>
      </trkpt>
      <trkpt lat="48.7161" lon="1.96831">
        <ele>98.233765</ele>
        <time>2016-05-08T16:04:19Z</time>
      </trkpt>
      <trkpt lat="48.71609" lon="1.96832">
        <ele>98.485352</ele>
        <time>2016-05-08T16:04:20Z</time>
      </trkpt>
      <trkpt lat="48.71609" lon="1.96833">
        <ele>98.146729</ele>
        <time>2016-05-08T16:04:21Z</time>
      </trkpt>
      <trkpt lat="48.71609" lon="1.96834">
        <ele>98.881165</ele>
        <time>2016-05-08T16:04:22Z</time>
      </trkpt>
      <trkpt lat="48.71609" lon="1.96836">
        <ele>97.75354</ele>
        <time>2016-05-08T16:04:23Z</time>
      </trkpt>
      <trkpt lat="48.71608" lon="1.96837">
        <ele>97.806396</ele>
        <time>2016-05-08T16:04:24Z</time>
      </trkpt>
      <trkpt lat="48.71608" lon="1.96839">
        <ele>97.559937</ele>
        <time>2016-05-08T16:04:25Z</time>
      </trkpt>
      <trkpt lat="48.71608" lon="1.9684">
        <ele>96.859436</ele>
        <time>2016-05-08T16:04:26Z</time>
      </trkpt>
      <trkpt lat="48.71608" lon="1.96842">
        <ele>97.327881</ele>
        <time>2016-05-08T16:04:27Z</time>
      </trkpt>
      <trkpt lat="48.71608" lon="1.96844">
        <ele>98.000488</ele>
        <time>2016-05-08T16:04:28Z</time>
      </trkpt>
      <trkpt lat="48.71608" lon="1.96846">
        <ele>96.467224</ele>
        <time>2016-05-08T16:04:29Z</time>
      </trkpt>
      <trkpt lat="48.71608" lon="1.96848">
        <ele>95.767334</ele>
        <time>2016-05-08T16:04:30Z</time>
      </trkpt>
      <trkpt lat="48.71607" lon="1.96849">
        <ele>96.638367</ele>
        <time>2016-05-08T16:04:31Z</time>
      </trkpt>
      <trkpt lat="48.71608" lon="1.96851">
        <ele>97.39386</ele>
        <time>2016-05-08T16:04:32Z</time>
      </trkpt>
      <trkpt lat="48.71608" lon="1.96852">
        <ele>97.805298</ele>
        <time>2016-05-08T16:04:33Z</time>
      </trkpt>
      <trkpt lat="48.71608" lon="1.96853">
        <ele>97.673828</ele>
        <time>2016-05-08T16:04:34Z</time>
      </trkpt>
      <trkpt lat="48.71608" lon="1.96853">
        <ele>97.27124</ele>
        <time>2016-05-08T16:04:35Z</time>
      </trkpt>
      <trkpt lat="48.71609" lon="1.96853">
        <ele>96.415283</ele>
        <time>2016-05-08T16:04:36Z</time>
      </trkpt>
      <trkpt lat="48.71609" lon="1.96854">
        <ele>97.103149</ele>
        <time>2016-05-08T16:04:37Z</time>
      </trkpt>
      <trkpt lat="48.71609" lon="1.96855">
        <ele>97.606567</ele>
        <time>2016-05-08T16:04:38Z</time>
      </trkpt>
      <trkpt lat="48.71609" lon="1.96855">
        <ele>98.052795</ele>
        <time>2016-05-08T16:04:39Z</time>
      </trkpt>
      <trkpt lat="48.71609" lon="1.96855">
        <ele>99.082275</ele>
        <time>2016-05-08T16:04:40Z</time>
      </trkpt>
      <trkpt lat="48.71609" lon="1.96855">
        <ele>99.519409</ele>
        <time>2016-05-08T16:04:41Z</time>
      </trkpt>
      <trkpt lat="48.71609" lon="1.96855">
        <ele>99.970215</ele>
        <time>2016-05-08T16:04:42Z</time>
      </trkpt>
      <trkpt lat="48.71609" lon="1.96855">
        <ele>99.797607</ele>
        <time>2016-05-08T16:04:43Z</time>
      </trkpt>
      <trkpt lat="48.71609" lon="1.96855">
        <ele>100.142578</ele>
        <time>2016-05-08T16:04:44Z</time>
      </trkpt>
      <trkpt lat="48.71609" lon="1.96855">
        <ele>100.365662</ele>
        <time>2016-05-08T16:04:45Z</time>
      </trkpt>
      <trkpt lat="48.71609" lon="1.96855">
        <ele>100.369385</ele>
        <time>2016-05-08T16:04:46Z</time>
      </trkpt>
      <trkpt lat="48.7161" lon="1.96857">
        <ele>100.506714</ele>
        <time>2016-05-08T16:04:47Z</time>
      </trkpt>
      <trkpt lat="48.7161" lon="1.96858">
        <ele>100.197632</ele>
        <time>2016-05-08T16:04:48Z</time>
      </trkpt>
      <trkpt lat="48.7161" lon="1.96859">
        <ele>100.437805</ele>
        <time>2016-05-08T16:04:49Z</time>
      </trkpt>
      <trkpt lat="48.7161" lon="1.9686">
        <ele>100.585999</ele>
        <time>2016-05-08T16:04:50Z</time>
      </trkpt>
      <trkpt lat="48.7161" lon="1.96862">
        <ele>100.806213</ele>
        <time>2016-05-08T16:04:51Z</time>
      </trkpt>
      <trkpt lat="48.7161" lon="1.96864">
        <ele>101.006958</ele>
        <time>2016-05-08T16:04:52Z</time>
      </trkpt>
      <trkpt lat="48.7161" lon="1.96865">
        <ele>100.941528</ele>
        <time>2016-05-08T16:04:53Z</time>
      </trkpt>
      <trkpt lat="48.7161" lon="1.96866">
        <ele>100.813049</ele>
        <time>2016-05-08T16:04:54Z</time>
      </trkpt>
      <trkpt lat="48.71609" lon="1.96867">
        <ele>101.593933</ele>
        <time>2016-05-08T16:04:55Z</time>
      </trkpt>
      <trkpt lat="48.71608" lon="1.96869">
        <ele>101.669922</ele>
        <time>2016-05-08T16:04:56Z</time>
      </trkpt>
      <trkpt lat="48.71608" lon="1.9687">
        <ele>101.577576</ele>
        <time>2016-05-08T16:04:57Z</time>
      </trkpt>
      <trkpt lat="48.71607" lon="1.96871">
        <ele>101.606689</ele>
        <time>2016-05-08T16:04:58Z</time>
      </trkpt>
      <trkpt lat="48.71606" lon="1.96873">
        <ele>101.552673</ele>
        <time>2016-05-08T16:04:59Z</time>
      </trkpt>
      <trkpt lat="48.71605" lon="1.96874">
        <ele>101.737122</ele>
        <time>2016-05-08T16:05:00Z</time>
      </trkpt>
      <trkpt lat="48.71603" lon="1.96875">
        <ele>101.836304</ele>
        <time>2016-05-08T16:05:01Z</time>
      </trkpt>
      <trkpt lat="48.71603" lon="1.96876">
        <ele>102.174377</ele>
        <time>2016-05-08T16:05:02Z</time>
      </trkpt>
      <trkpt lat="48.71602" lon="1.96876">
        <ele>102.346008</ele>
        <time>2016-05-08T16:05:03Z</time>
      </trkpt>
      <trkpt lat="48.71602" lon="1.96876">
        <ele>101.933838</ele>
        <time>2016-05-08T16:05:04Z</time>
      </trkpt>
      <trkpt lat="48.71601" lon="1.96876">
        <ele>101.705811</ele>
        <time>2016-05-08T16:05:05Z</time>
      </trkpt>
      <trkpt lat="48.716" lon="1.96876">
        <ele>101.350891</ele>
        <time>2016-05-08T16:05:06Z</time>
      </trkpt>
      <trkpt lat="48.716" lon="1.96876">
        <ele>101.404114</ele>
        <time>2016-05-08T16:05:07Z</time>
      </trkpt>
      <trkpt lat="48.716" lon="1.96876">
        <ele>100.945374</ele>
        <time>2016-05-08T16:05:08Z</time>
      </trkpt>
      <trkpt lat="48.71599" lon="1.96876">
        <ele>100.579285</ele>
        <time>2016-05-08T16:05:09Z</time>
      </trkpt>
      <trkpt lat="48.71599" lon="1.96876">
        <ele>100.749939</ele>
        <time>2016-05-08T16:05:10Z</time>
      </trkpt>
      <trkpt lat="48.71598" lon="1.96876">
        <ele>100.455139</ele>
        <time>2016-05-08T16:05:11Z</time>
      </trkpt>
      <trkpt lat="48.71597" lon="1.96875">
        <ele>100.570435</ele>
        <time>2016-05-08T16:05:12Z</time>
      </trkpt>
      <trkpt lat="48.71596" lon="1.96874">
        <ele>100.409546</ele>
        <time>2016-05-08T16:05:13Z</time>
      </trkpt>
      <trkpt lat="48.71595" lon="1.96874">
        <ele>100.622925</ele>
        <time>2016-05-08T16:05:14Z</time>
      </trkpt>
      <trkpt lat="48.71594" lon="1.96874">
        <ele>101.185913</ele>
        <time>2016-05-08T16:05:15Z</time>
      </trkpt>
      <trkpt lat="48.71593" lon="1.96875">
        <ele>101.251038</ele>
        <time>2016-05-08T16:05:16Z</time>
      </trkpt>
      <trkpt lat="48.71592" lon="1.96875">
        <ele>101.115784</ele>
        <time>2016-05-08T16:05:17Z</time>
      </trkpt>
      <trkpt lat="48.71591" lon="1.96875">
        <ele>101.025513</ele>
        <time>2016-05-08T16:05:18Z</time>
      </trkpt>
      <trkpt lat="48.71589" lon="1.96875">
        <ele>100.687134</ele>
        <time>2016-05-08T16:05:19Z</time>
      </trkpt>
      <trkpt lat="48.71588" lon="1.96875">
        <ele>100.603638</ele>
        <time>2016-05-08T16:05:20Z</time>
      </trkpt>
      <trkpt lat="48.71587" lon="1.96875">
        <ele>100.820007</ele>
        <time>2016-05-08T16:05:21Z</time>
      </trkpt>
      <trkpt lat="48.71586" lon="1.96875">
        <ele>100.275635</ele>
        <time>2016-05-08T16:05:22Z</time>
      </trkpt>
      <trkpt lat="48.71585" lon="1.96875">
        <ele>100.277649</ele>
        <time>2016-05-08T16:05:23Z</time>
      </trkpt>
      <trkpt lat="48.71583" lon="1.96875">
        <ele>100.443115</ele>
        <time>2016-05-08T16:05:24Z</time>
      </trkpt>
      <trkpt lat="48.71581" lon="1.96875">
        <ele>100.659546</ele>
        <time>2016-05-08T16:05:25Z</time>
      </trkpt>
      <trkpt lat="48.7158" lon="1.96875">
        <ele>100.674072</ele>
        <time>2016-05-08T16:05:26Z</time>
      </trkpt>
      <trkpt lat="48.71579" lon="1.96876">
        <ele>100.706726</ele>
        <time>2016-05-08T16:05:27Z</time>
      </trkpt>
      <trkpt lat="48.71578" lon="1.96876">
        <ele>100.41394</ele>
        <time>2016-05-08T16:05:28Z</time>
      </trkpt>
      <trkpt lat="48.71577" lon="1.96876">
        <ele>100.434631</ele>
        <time>2016-05-08T16:05:29Z</time>
      </trkpt>
      <trkpt lat="48.71575" lon="1.96875">
        <ele>100.61792</ele>
        <time>2016-05-08T16:05:30Z</time>
      </trkpt>
      <trkpt lat="48.71574" lon="1.96875">
        <ele>100.828247</ele>
        <time>2016-05-08T16:05:31Z</time>
      </trkpt>
      <trkpt lat="48.71573" lon="1.96875">
        <ele>100.692627</ele>
        <time>2016-05-08T16:05:32Z</time>
      </trkpt>
      <trkpt lat="48.71572" lon="1.96875">
        <ele>100.741943</ele>
        <time>2016-05-08T16:05:33Z</time>
      </trkpt>
      <trkpt lat="48.71572" lon="1.96875">
        <ele>100.182129</ele>
        <time>2016-05-08T16:05:34Z</time>
      </trkpt>
      <trkpt lat="48.71572" lon="1.96875">
        <ele>100.220093</ele>
        <time>2016-05-08T16:05:35Z</time>
      </trkpt>
      <trkpt lat="48.71574" lon="1.96874">
        <ele>99.812622</ele>
        <time>2016-05-08T16:05:36Z</time>
      </trkpt>
      <trkpt lat="48.71574" lon="1.96874">
        <ele>99.199341</ele>
        <time>2016-05-08T16:05:37Z</time>
      </trkpt>
      <trkpt lat="48.71575" lon="1.96873">
        <ele>99.058472</ele>
        <time>2016-05-08T16:05:38Z</time>
      </trkpt>
      <trkpt lat="48.71575" lon="1.96872">
        <ele>99.017334</ele>
        <time>2016-05-08T16:05:39Z</time>
      </trkpt>
      <trkpt lat="48.71574" lon="1.96872">
        <ele>99.140381</ele>
        <time>2016-05-08T16:05:40Z</time>
      </trkpt>
      <trkpt lat="48.71574" lon="1.96871">
        <ele>99.050293</ele>
        <time>2016-05-08T16:05:41Z</time>
      </trkpt>
      <trkpt lat="48.71573" lon="1.9687">
        <ele>99.383301</ele>
        <time>2016-05-08T16:05:42Z</time>
      </trkpt>
      <trkpt lat="48.71573" lon="1.96869">
        <ele>98.905823</ele>
        <time>2016-05-08T16:05:43Z</time>
      </trkpt>
      <trkpt lat="48.71572" lon="1.96868">
        <ele>98.994141</ele>
        <time>2016-05-08T16:05:44Z</time>
      </trkpt>
      <trkpt lat="48.71572" lon="1.96868">
        <ele>99.250305</ele>
        <time>2016-05-08T16:05:45Z</time>
      </trkpt>
      <trkpt lat="48.71572" lon="1.96868">
        <ele>99.704468</ele>
        <time>2016-05-08T16:05:46Z</time>
      </trkpt>
      <trkpt lat="48.71572" lon="1.96868">
        <ele>99.832825</ele>
        <time>2016-05-08T16:05:47Z</time>
      </trkpt>
      <trkpt lat="48.71572" lon="1.96868">
        <ele>99.220459</ele>
        <time>2016-05-08T16:05:48Z</time>
      </trkpt>
      <trkpt lat="48.71571" lon="1.96868">
        <ele>99.190186</ele>
        <time>2016-05-08T16:05:49Z</time>
      </trkpt>
      <trkpt lat="48.71571" lon="1.96868">
        <ele>99.345276</ele>
        <time>2016-05-08T16:05:50Z</time>
      </trkpt>
      <trkpt lat="48.7157" lon="1.96868">
        <ele>98.904297</ele>
        <time>2016-05-08T16:05:51Z</time>
      </trkpt>
      <trkpt lat="48.71569" lon="1.96868">
        <ele>98.595581</ele>
        <time>2016-05-08T16:05:52Z</time>
      </trkpt>
      <trkpt lat="48.71568" lon="1.96868">
        <ele>98.540588</ele>
        <time>2016-05-08T16:05:53Z</time>
      </trkpt>
      <trkpt lat="48.71567" lon="1.96867">
        <ele>98.637939</ele>
        <time>2016-05-08T16:05:54Z</time>
      </trkpt>
      <trkpt lat="48.71566" lon="1.96866">
        <ele>98.665771</ele>
        <time>2016-05-08T16:05:55Z</time>
      </trkpt>
      <trkpt lat="48.71565" lon="1.96866">
        <ele>98.718506</ele>
        <time>2016-05-08T16:05:56Z</time>
      </trkpt>
      <trkpt lat="48.71565" lon="1.96865">
        <ele>98.506775</ele>
        <time>2016-05-08T16:05:57Z</time>
      </trkpt>
      <trkpt lat="48.71564" lon="1.96865">
        <ele>98.329224</ele>
        <time>2016-05-08T16:05:58Z</time>
      </trkpt>
      <trkpt lat="48.71563" lon="1.96864">
        <ele>98.630981</ele>
        <time>2016-05-08T16:05:59Z</time>
      </trkpt>
      <trkpt lat="48.71562" lon="1.96864">
        <ele>98.73291</ele>
        <time>2016-05-08T16:06:00Z</time>
      </trkpt>
      <trkpt lat="48.71561" lon="1.96863">
        <ele>99.100586</ele>
        <time>2016-05-08T16:06:01Z</time>
      </trkpt>
      <trkpt lat="48.71561" lon="1.96863">
        <ele>99.672485</ele>
        <time>2016-05-08T16:06:02Z</time>
      </trkpt>
      <trkpt lat="48.71561" lon="1.96863">
        <ele>99.72522</ele>
        <time>2016-05-08T16:06:03Z</time>
      </trkpt>
      <trkpt lat="48.71561" lon="1.96863">
        <ele>99.756531</ele>
        <time>2016-05-08T16:06:04Z</time>
      </trkpt>
      <trkpt lat="48.71561" lon="1.96863">
        <ele>99.493225</ele>
        <time>2016-05-08T16:06:05Z</time>
      </trkpt>
      <trkpt lat="48.71561" lon="1.96863">
        <ele>99.325928</ele>
        <time>2016-05-08T16:06:06Z</time>
      </trkpt>
      <trkpt lat="48.71561" lon="1.96863">
        <ele>99.231079</ele>
        <time>2016-05-08T16:06:07Z</time>
      </trkpt>
      <trkpt lat="48.71561" lon="1.96863">
        <ele>99.324768</ele>
        <time>2016-05-08T16:06:08Z</time>
      </trkpt>
      <trkpt lat="48.71561" lon="1.96863">
        <ele>99.321411</ele>
        <time>2016-05-08T16:06:09Z</time>
      </trkpt>
      <trkpt lat="48.71561" lon="1.96863">
        <ele>99.32074</ele>
        <time>2016-05-08T16:06:10Z</time>
      </trkpt>
      <trkpt lat="48.71561" lon="1.96863">
        <ele>99.32196</ele>
        <time>2016-05-08T16:06:11Z</time>
      </trkpt>
      <trkpt lat="48.71561" lon="1.96863">
        <ele>99.318604</ele>
        <time>2016-05-08T16:06:12Z</time>
      </trkpt>
      <trkpt lat="48.71561" lon="1.96863">
        <ele>99.313782</ele>
        <time>2016-05-08T16:06:13Z</time>
      </trkpt>
      <trkpt lat="48.71561" lon="1.96863">
        <ele>99.31134</ele>
        <time>2016-05-08T16:06:14Z</time>
      </trkpt>
      <trkpt lat="48.71561" lon="1.96863">
        <ele>99.315491</ele>
        <time>2016-05-08T16:06:15Z</time>
      </trkpt>
      <trkpt lat="48.71561" lon="1.96863">
        <ele>99.318054</ele>
        <time>2016-05-08T16:06:16Z</time>
      </trkpt>
      <trkpt lat="48.71561" lon="1.96863">
        <ele>99.365173</ele>
        <time>2016-05-08T16:06:17Z</time>
      </trkpt>
      <trkpt lat="48.71559" lon="1.96862">
        <ele>99.994812</ele>
        <time>2016-05-08T16:06:18Z</time>
      </trkpt>
      <trkpt lat="48.71557" lon="1.96862">
        <ele>100.320618</ele>
        <time>2016-05-08T16:06:19Z</time>
      </trkpt>
      <trkpt lat="48.71556" lon="1.96861">
        <ele>101.326782</ele>
        <time>2016-05-08T16:06:20Z</time>
      </trkpt>
      <trkpt lat="48.71555" lon="1.96861">
        <ele>102.37561</ele>
        <time>2016-05-08T16:06:21Z</time>
      </trkpt>
      <trkpt lat="48.71554" lon="1.9686">
        <ele>102.599792</ele>
        <time>2016-05-08T16:06:22Z</time>
      </trkpt>
      <trkpt lat="48.71552" lon="1.9686">
        <ele>102.136658</ele>
        <time>2016-05-08T16:06:23Z</time>
      </trkpt>
      <trkpt lat="48.71551" lon="1.96859">
        <ele>102.150879</ele>
        <time>2016-05-08T16:06:24Z</time>
      </trkpt>
      <trkpt lat="48.7155" lon="1.96859">
        <ele>102.584229</ele>
        <time>2016-05-08T16:06:25Z</time>
      </trkpt>
      <trkpt lat="48.71549" lon="1.96859">
        <ele>102.967529</ele>
        <time>2016-05-08T16:06:26Z</time>
      </trkpt>
      <trkpt lat="48.71549" lon="1.96859">
        <ele>103.234314</ele>
        <time>2016-05-08T16:06:27Z</time>
      </trkpt>
      <trkpt lat="48.71549" lon="1.96859">
        <ele>103.114136</ele>
        <time>2016-05-08T16:06:28Z</time>
      </trkpt>
      <trkpt lat="48.71548" lon="1.96859">
        <ele>103.40741</ele>
        <time>2016-05-08T16:06:29Z</time>
      </trkpt>
      <trkpt lat="48.71547" lon="1.96859">
        <ele>103.566345</ele>
        <time>2016-05-08T16:06:30Z</time>
      </trkpt>
      <trkpt lat="48.71546" lon="1.96858">
        <ele>103.367126</ele>
        <time>2016-05-08T16:06:31Z</time>
      </trkpt>
      <trkpt lat="48.71545" lon="1.96858">
        <ele>103.086182</ele>
        <time>2016-05-08T16:06:32Z</time>
      </trkpt>
      <trkpt lat="48.71544" lon="1.96858">
        <ele>102.970459</ele>
        <time>2016-05-08T16:06:33Z</time>
      </trkpt>
      <trkpt lat="48.71542" lon="1.96857">
        <ele>103.080933</ele>
        <time>2016-05-08T16:06:34Z</time>
      </trkpt>
      <trkpt lat="48.71541" lon="1.96856">
        <ele>102.329895</ele>
        <time>2016-05-08T16:06:35Z</time>
      </trkpt>
      <trkpt lat="48.71541" lon="1.96856">
        <ele>102.632996</ele>
        <time>2016-05-08T16:06:36Z</time>
      </trkpt>
      <trkpt lat="48.7154" lon="1.96855">
        <ele>102.334167</ele>
        <time>2016-05-08T16:06:37Z</time>
      </trkpt>
      <trkpt lat="48.71539" lon="1.96854">
        <ele>102.306824</ele>
        <time>2016-05-08T16:06:38Z</time>
      </trkpt>
      <trkpt lat="48.71538" lon="1.96854">
        <ele>102.30603</ele>
        <time>2016-05-08T16:06:39Z</time>
      </trkpt>
      <trkpt lat="48.71537" lon="1.96854">
        <ele>102.620605</ele>
        <time>2016-05-08T16:06:40Z</time>
      </trkpt>
      <trkpt lat="48.71536" lon="1.96853">
        <ele>102.236206</ele>
        <time>2016-05-08T16:06:41Z</time>
      </trkpt>
      <trkpt lat="48.71535" lon="1.96853">
        <ele>102.235657</ele>
        <time>2016-05-08T16:06:42Z</time>
      </trkpt>
      <trkpt lat="48.71534" lon="1.96853">
        <ele>102.365356</ele>
        <time>2016-05-08T16:06:43Z</time>
      </trkpt>
      <trkpt lat="48.71533" lon="1.96853">
        <ele>102.592468</ele>
        <time>2016-05-08T16:06:44Z</time>
      </trkpt>
      <trkpt lat="48.71532" lon="1.96853">
        <ele>102.836182</ele>
        <time>2016-05-08T16:06:45Z</time>
      </trkpt>
      <trkpt lat="48.71531" lon="1.96853">
        <ele>102.792358</ele>
        <time>2016-05-08T16:06:46Z</time>
      </trkpt>
      <trkpt lat="48.7153" lon="1.96853">
        <ele>102.827942</ele>
        <time>2016-05-08T16:06:47Z</time>
      </trkpt>
      <trkpt lat="48.71529" lon="1.96854">
        <ele>102.696045</ele>
        <time>2016-05-08T16:06:48Z</time>
      </trkpt>
      <trkpt lat="48.71527" lon="1.96854">
        <ele>102.615356</ele>
        <time>2016-05-08T16:06:49Z</time>
      </trkpt>
      <trkpt lat="48.71526" lon="1.96853">
        <ele>102.927246</ele>
        <time>2016-05-08T16:06:50Z</time>
      </trkpt>
      <trkpt lat="48.71525" lon="1.96852">
        <ele>102.794556</ele>
        <time>2016-05-08T16:06:51Z</time>
      </trkpt>
      <trkpt lat="48.71524" lon="1.96851">
        <ele>103.001526</ele>
        <time>2016-05-08T16:06:52Z</time>
      </trkpt>
      <trkpt lat="48.71524" lon="1.9685">
        <ele>103.072144</ele>
        <time>2016-05-08T16:06:53Z</time>
      </trkpt>
      <trkpt lat="48.71523" lon="1.9685">
        <ele>102.919556</ele>
        <time>2016-05-08T16:06:54Z</time>
      </trkpt>
      <trkpt lat="48.71522" lon="1.96849">
        <ele>102.652466</ele>
        <time>2016-05-08T16:06:55Z</time>
      </trkpt>
      <trkpt lat="48.71521" lon="1.96849">
        <ele>102.231323</ele>
        <time>2016-05-08T16:06:56Z</time>
      </trkpt>
      <trkpt lat="48.7152" lon="1.96849">
        <ele>102.307007</ele>
        <time>2016-05-08T16:06:57Z</time>
      </trkpt>
      <trkpt lat="48.71519" lon="1.96849">
        <ele>102.045959</ele>
        <time>2016-05-08T16:06:58Z</time>
      </trkpt>
      <trkpt lat="48.71518" lon="1.96848">
        <ele>102.345703</ele>
        <time>2016-05-08T16:06:59Z</time>
      </trkpt>
      <trkpt lat="48.71517" lon="1.96848">
        <ele>102.02124</ele>
        <time>2016-05-08T16:07:00Z</time>
      </trkpt>
      <trkpt lat="48.71516" lon="1.96847">
        <ele>101.645752</ele>
        <time>2016-05-08T16:07:01Z</time>
      </trkpt>
      <trkpt lat="48.71516" lon="1.96846">
        <ele>102.412781</ele>
        <time>2016-05-08T16:07:02Z</time>
      </trkpt>
      <trkpt lat="48.71515" lon="1.96845">
        <ele>102.92865</ele>
        <time>2016-05-08T16:07:03Z</time>
      </trkpt>
      <trkpt lat="48.71514" lon="1.96844">
        <ele>103.195068</ele>
        <time>2016-05-08T16:07:04Z</time>
      </trkpt>
      <trkpt lat="48.71514" lon="1.96844">
        <ele>102.712952</ele>
        <time>2016-05-08T16:07:05Z</time>
      </trkpt>
      <trkpt lat="48.71513" lon="1.96843">
        <ele>102.987244</ele>
        <time>2016-05-08T16:07:06Z</time>
      </trkpt>
      <trkpt lat="48.71512" lon="1.96842">
        <ele>103.525452</ele>
        <time>2016-05-08T16:07:07Z</time>
      </trkpt>
      <trkpt lat="48.71511" lon="1.96841">
        <ele>103.283081</ele>
        <time>2016-05-08T16:07:08Z</time>
      </trkpt>
      <trkpt lat="48.71509" lon="1.9684">
        <ele>103.722839</ele>
        <time>2016-05-08T16:07:09Z</time>
      </trkpt>
      <trkpt lat="48.71508" lon="1.9684">
        <ele>104.409546</ele>
        <time>2016-05-08T16:07:10Z</time>
      </trkpt>
      <trkpt lat="48.71508" lon="1.96839">
        <ele>105.254883</ele>
        <time>2016-05-08T16:07:11Z</time>
      </trkpt>
      <trkpt lat="48.71507" lon="1.96838">
        <ele>105.079895</ele>
        <time>2016-05-08T16:07:12Z</time>
      </trkpt>
      <trkpt lat="48.71507" lon="1.96837">
        <ele>105.304688</ele>
        <time>2016-05-08T16:07:13Z</time>
      </trkpt>
      <trkpt lat="48.71506" lon="1.96836">
        <ele>106.125977</ele>
        <time>2016-05-08T16:07:14Z</time>
      </trkpt>
      <trkpt lat="48.71505" lon="1.96836">
        <ele>106.360535</ele>
        <time>2016-05-08T16:07:15Z</time>
      </trkpt>
      <trkpt lat="48.71505" lon="1.96837">
        <ele>106.148865</ele>
        <time>2016-05-08T16:07:16Z</time>
      </trkpt>
      <trkpt lat="48.71503" lon="1.96836">
        <ele>106.344482</ele>
        <time>2016-05-08T16:07:17Z</time>
      </trkpt>
      <trkpt lat="48.71502" lon="1.96836">
        <ele>106.52124</ele>
        <time>2016-05-08T16:07:18Z</time>
      </trkpt>
      <trkpt lat="48.71501" lon="1.96836">
        <ele>106.070007</ele>
        <time>2016-05-08T16:07:19Z</time>
      </trkpt>
      <trkpt lat="48.715" lon="1.96836">
        <ele>105.252441</ele>
        <time>2016-05-08T16:07:20Z</time>
      </trkpt>
      <trkpt lat="48.715" lon="1.96836">
        <ele>104.721985</ele>
        <time>2016-05-08T16:07:21Z</time>
      </trkpt>
      <trkpt lat="48.71499" lon="1.96836">
        <ele>104.533997</ele>
        <time>2016-05-08T16:07:22Z</time>
      </trkpt>
      <trkpt lat="48.71498" lon="1.96835">
        <ele>104.673035</ele>
        <time>2016-05-08T16:07:23Z</time>
      </trkpt>
      <trkpt lat="48.71497" lon="1.96835">
        <ele>104.868896</ele>
        <time>2016-05-08T16:07:24Z</time>
      </trkpt>
      <trkpt lat="48.71497" lon="1.96834">
        <ele>105.254395</ele>
        <time>2016-05-08T16:07:25Z</time>
      </trkpt>
      <trkpt lat="48.71497" lon="1.96834">
        <ele>105.673523</ele>
        <time>2016-05-08T16:07:26Z</time>
      </trkpt>
      <trkpt lat="48.71497" lon="1.96834">
        <ele>106.001282</ele>
        <time>2016-05-08T16:07:27Z</time>
      </trkpt>
      <trkpt lat="48.71497" lon="1.96834">
        <ele>106.278381</ele>
        <time>2016-05-08T16:07:28Z</time>
      </trkpt>
      <trkpt lat="48.71497" lon="1.96832">
        <ele>106.798035</ele>
        <time>2016-05-08T16:07:29Z</time>
      </trkpt>
      <trkpt lat="48.71497" lon="1.96832">
        <ele>106.553955</ele>
        <time>2016-05-08T16:07:30Z</time>
      </trkpt>
      <trkpt lat="48.71497" lon="1.96831">
        <ele>106.660645</ele>
        <time>2016-05-08T16:07:31Z</time>
      </trkpt>
      <trkpt lat="48.71497" lon="1.96831">
        <ele>106.933289</ele>
        <time>2016-05-08T16:07:32Z</time>
      </trkpt>
      <trkpt lat="48.71497" lon="1.9683">
        <ele>107.221924</ele>
        <time>2016-05-08T16:07:33Z</time>
      </trkpt>
      <trkpt lat="48.71497" lon="1.9683">
        <ele>106.744446</ele>
        <time>2016-05-08T16:07:34Z</time>
      </trkpt>
      <trkpt lat="48.71497" lon="1.9683">
        <ele>106.925537</ele>
        <time>2016-05-08T16:07:35Z</time>
      </trkpt>
      <trkpt lat="48.71496" lon="1.96829">
        <ele>106.596863</ele>
        <time>2016-05-08T16:07:36Z</time>
      </trkpt>
      <trkpt lat="48.71496" lon="1.96829">
        <ele>107.092773</ele>
        <time>2016-05-08T16:07:37Z</time>
      </trkpt>
      <trkpt lat="48.71495" lon="1.96828">
        <ele>107.147766</ele>
        <time>2016-05-08T16:07:38Z</time>
      </trkpt>
      <trkpt lat="48.71494" lon="1.96828">
        <ele>107.443237</ele>
        <time>2016-05-08T16:07:39Z</time>
      </trkpt>
      <trkpt lat="48.71493" lon="1.96827">
        <ele>107.768005</ele>
        <time>2016-05-08T16:07:40Z</time>
      </trkpt>
      <trkpt lat="48.71492" lon="1.96827">
        <ele>108.029297</ele>
        <time>2016-05-08T16:07:41Z</time>
      </trkpt>
      <trkpt lat="48.7149" lon="1.96826">
        <ele>107.402588</ele>
        <time>2016-05-08T16:07:42Z</time>
      </trkpt>
      <trkpt lat="48.71489" lon="1.96826">
        <ele>107.112061</ele>
        <time>2016-05-08T16:07:43Z</time>
      </trkpt>
      <trkpt lat="48.71488" lon="1.96826">
        <ele>107.283691</ele>
        <time>2016-05-08T16:07:44Z</time>
      </trkpt>
      <trkpt lat="48.71487" lon="1.96825">
        <ele>107.325073</ele>
        <time>2016-05-08T16:07:45Z</time>
      </trkpt>
      <trkpt lat="48.71487" lon="1.96825">
        <ele>107.260498</ele>
        <time>2016-05-08T16:07:46Z</time>
      </trkpt>
      <trkpt lat="48.71486" lon="1.96824">
        <ele>107.169189</ele>
        <time>2016-05-08T16:07:47Z</time>
      </trkpt>
      <trkpt lat="48.71485" lon="1.96824">
        <ele>107.059998</ele>
        <time>2016-05-08T16:07:48Z</time>
      </trkpt>
      <trkpt lat="48.71484" lon="1.96824">
        <ele>107.051697</ele>
        <time>2016-05-08T16:07:49Z</time>
      </trkpt>
      <trkpt lat="48.71483" lon="1.96823">
        <ele>107.166443</ele>
        <time>2016-05-08T16:07:50Z</time>
      </trkpt>
      <trkpt lat="48.71482" lon="1.96823">
        <ele>107.355835</ele>
        <time>2016-05-08T16:07:51Z</time>
      </trkpt>
      <trkpt lat="48.71482" lon="1.96823">
        <ele>107.267578</ele>
        <time>2016-05-08T16:07:52Z</time>
      </trkpt>
      <trkpt lat="48.71482" lon="1.96822">
        <ele>107.119934</ele>
        <time>2016-05-08T16:07:53Z</time>
      </trkpt>
      <trkpt lat="48.71482" lon="1.96823">
        <ele>107.214417</ele>
        <time>2016-05-08T16:07:54Z</time>
      </trkpt>
      <trkpt lat="48.71482" lon="1.96823">
        <ele>107.132812</ele>
        <time>2016-05-08T16:07:55Z</time>
      </trkpt>
      <trkpt lat="48.71481" lon="1.96822">
        <ele>107.073853</ele>
        <time>2016-05-08T16:07:56Z</time>
      </trkpt>
      <trkpt lat="48.7148" lon="1.96822">
        <ele>106.613525</ele>
        <time>2016-05-08T16:07:57Z</time>
      </trkpt>
      <trkpt lat="48.71478" lon="1.96822">
        <ele>106.341431</ele>
        <time>2016-05-08T16:07:58Z</time>
      </trkpt>
      <trkpt lat="48.71477" lon="1.96822">
        <ele>106.402466</ele>
        <time>2016-05-08T16:07:59Z</time>
      </trkpt>
      <trkpt lat="48.71476" lon="1.96822">
        <ele>106.008179</ele>
        <time>2016-05-08T16:08:00Z</time>
      </trkpt>
      <trkpt lat="48.71475" lon="1.96821">
        <ele>105.553345</ele>
        <time>2016-05-08T16:08:01Z</time>
      </trkpt>
      <trkpt lat="48.71474" lon="1.96821">
        <ele>105.717102</ele>
        <time>2016-05-08T16:08:02Z</time>
      </trkpt>
      <trkpt lat="48.71473" lon="1.9682">
        <ele>105.616028</ele>
        <time>2016-05-08T16:08:03Z</time>
      </trkpt>
      <trkpt lat="48.71473" lon="1.96819">
        <ele>105.337036</ele>
        <time>2016-05-08T16:08:04Z</time>
      </trkpt>
      <trkpt lat="48.71473" lon="1.96819">
        <ele>105.442871</ele>
        <time>2016-05-08T16:08:05Z</time>
      </trkpt>
      <trkpt lat="48.71472" lon="1.9682">
        <ele>105.749878</ele>
        <time>2016-05-08T16:08:06Z</time>
      </trkpt>
      <trkpt lat="48.71472" lon="1.9682">
        <ele>105.853577</ele>
        <time>2016-05-08T16:08:07Z</time>
      </trkpt>
      <trkpt lat="48.71472" lon="1.9682">
        <ele>106.138428</ele>
        <time>2016-05-08T16:08:08Z</time>
      </trkpt>
      <trkpt lat="48.71472" lon="1.9682">
        <ele>106.347412</ele>
        <time>2016-05-08T16:08:09Z</time>
      </trkpt>
      <trkpt lat="48.71473" lon="1.96821">
        <ele>106.57605</ele>
        <time>2016-05-08T16:08:10Z</time>
      </trkpt>
      <trkpt lat="48.71473" lon="1.96821">
        <ele>106.987732</ele>
        <time>2016-05-08T16:08:11Z</time>
      </trkpt>
      <trkpt lat="48.71473" lon="1.96822">
        <ele>106.559692</ele>
        <time>2016-05-08T16:08:12Z</time>
      </trkpt>
      <trkpt lat="48.71473" lon="1.96822">
        <ele>106.627747</ele>
        <time>2016-05-08T16:08:13Z</time>
      </trkpt>
      <trkpt lat="48.71473" lon="1.96822">
        <ele>107.162476</ele>
        <time>2016-05-08T16:08:14Z</time>
      </trkpt>
      <trkpt lat="48.71473" lon="1.96822">
        <ele>107.165405</ele>
        <time>2016-05-08T16:08:15Z</time>
      </trkpt>
      <trkpt lat="48.71474" lon="1.96823">
        <ele>107.624695</ele>
        <time>2016-05-08T16:08:16Z</time>
      </trkpt>
      <trkpt lat="48.71474" lon="1.96823">
        <ele>107.610352</ele>
        <time>2016-05-08T16:08:17Z</time>
      </trkpt>
      <trkpt lat="48.71474" lon="1.96823">
        <ele>108.144592</ele>
        <time>2016-05-08T16:08:18Z</time>
      </trkpt>
      <trkpt lat="48.71475" lon="1.96823">
        <ele>108.009399</ele>
        <time>2016-05-08T16:08:19Z</time>
      </trkpt>
      <trkpt lat="48.71475" lon="1.96822">
        <ele>108.05011</ele>
        <time>2016-05-08T16:08:20Z</time>
      </trkpt>
      <trkpt lat="48.71474" lon="1.96821">
        <ele>108.161377</ele>
        <time>2016-05-08T16:08:21Z</time>
      </trkpt>
      <trkpt lat="48.71474" lon="1.96821">
        <ele>108.020569</ele>
        <time>2016-05-08T16:08:22Z</time>
      </trkpt>
      <trkpt lat="48.71474" lon="1.96821">
        <ele>108.037231</ele>
        <time>2016-05-08T16:08:23Z</time>
      </trkpt>
      <trkpt lat="48.71474" lon="1.96821">
        <ele>108.165833</ele>
        <time>2016-05-08T16:08:24Z</time>
      </trkpt>
      <trkpt lat="48.71474" lon="1.96821">
        <ele>108.090881</ele>
        <time>2016-05-08T16:08:25Z</time>
      </trkpt>
      <trkpt lat="48.71474" lon="1.96821">
        <ele>107.437866</ele>
        <time>2016-05-08T16:08:26Z</time>
      </trkpt>
      <trkpt lat="48.71474" lon="1.9682">
        <ele>107.511169</ele>
        <time>2016-05-08T16:08:27Z</time>
      </trkpt>
      <trkpt lat="48.71474" lon="1.96819">
        <ele>107.880188</ele>
        <time>2016-05-08T16:08:28Z</time>
      </trkpt>
      <trkpt lat="48.71474" lon="1.96818">
        <ele>107.241577</ele>
        <time>2016-05-08T16:08:29Z</time>
      </trkpt>
      <trkpt lat="48.71473" lon="1.96818">
        <ele>107.47583</ele>
        <time>2016-05-08T16:08:30Z</time>
      </trkpt>
      <trkpt lat="48.71473" lon="1.96818">
        <ele>107.253479</ele>
        <time>2016-05-08T16:08:31Z</time>
      </trkpt>
      <trkpt lat="48.71473" lon="1.96818">
        <ele>108.229431</ele>
        <time>2016-05-08T16:08:32Z</time>
      </trkpt>
      <trkpt lat="48.71473" lon="1.96818">
        <ele>108.240234</ele>
        <time>2016-05-08T16:08:33Z</time>
      </trkpt>
      <trkpt lat="48.71473" lon="1.96818">
        <ele>108.244568</ele>
        <time>2016-05-08T16:08:34Z</time>
      </trkpt>
      <trkpt lat="48.71473" lon="1.96818">
        <ele>108.245117</ele>
        <time>2016-05-08T16:08:35Z</time>
      </trkpt>
      <trkpt lat="48.71473" lon="1.96818">
        <ele>108.244995</ele>
        <time>2016-05-08T16:08:36Z</time>
      </trkpt>
      <trkpt lat="48.71473" lon="1.96818">
        <ele>108.24353</ele>
        <time>2016-05-08T16:08:37Z</time>
      </trkpt>
      <trkpt lat="48.71473" lon="1.96818">
        <ele>108.246826</ele>
        <time>2016-05-08T16:08:38Z</time>
      </trkpt>
      <trkpt lat="48.71473" lon="1.96818">
        <ele>108.244751</ele>
        <time>2016-05-08T16:08:39Z</time>
      </trkpt>
      <trkpt lat="48.71473" lon="1.96818">
        <ele>108.249329</ele>
        <time>2016-05-08T16:08:40Z</time>
      </trkpt>
      <trkpt lat="48.71473" lon="1.96818">
        <ele>108.24884</ele>
        <time>2016-05-08T16:08:41Z</time>
      </trkpt>
      <trkpt lat="48.71473" lon="1.96818">
        <ele>108.248352</ele>
        <time>2016-05-08T16:08:42Z</time>
      </trkpt>
      <trkpt lat="48.71473" lon="1.96818">
        <ele>108.247192</ele>
        <time>2016-05-08T16:08:43Z</time>
      </trkpt>
      <trkpt lat="48.71473" lon="1.96818">
        <ele>108.250549</ele>
        <time>2016-05-08T16:08:44Z</time>
      </trkpt>
      <trkpt lat="48.71473" lon="1.96818">
        <ele>108.249023</ele>
        <time>2016-05-08T16:08:45Z</time>
      </trkpt>
      <trkpt lat="48.71473" lon="1.96818">
        <ele>108.252075</ele>
        <time>2016-05-08T16:08:46Z</time>
      </trkpt>
      <trkpt lat="48.71473" lon="1.96818">
        <ele>108.256653</ele>
        <time>2016-05-08T16:08:47Z</time>
      </trkpt>
      <trkpt lat="48.71473" lon="1.96818">
        <ele>108.25946</ele>
        <time>2016-05-08T16:08:48Z</time>
      </trkpt>
      <trkpt lat="48.71473" lon="1.96818">
        <ele>108.257874</ele>
        <time>2016-05-08T16:08:49Z</time>
      </trkpt>
      <trkpt lat="48.71473" lon="1.96818">
        <ele>108.256836</ele>
        <time>2016-05-08T16:08:50Z</time>
      </trkpt>
      <trkpt lat="48.71473" lon="1.96818">
        <ele>108.256348</ele>
        <time>2016-05-08T16:08:51Z</time>
      </trkpt>
      <trkpt lat="48.71473" lon="1.96818">
        <ele>108.25885</ele>
        <time>2016-05-08T16:08:52Z</time>
      </trkpt>
      <trkpt lat="48.71473" lon="1.96818">
        <ele>108.261353</ele>
        <time>2016-05-08T16:08:53Z</time>
      </trkpt>
      <trkpt lat="48.71473" lon="1.96818">
        <ele>108.262146</ele>
        <time>2016-05-08T16:08:54Z</time>
      </trkpt>
      <trkpt lat="48.71473" lon="1.96818">
        <ele>108.26178</ele>
        <time>2016-05-08T16:08:55Z</time>
      </trkpt>
      <trkpt lat="48.71473" lon="1.96818">
        <ele>108.264465</ele>
        <time>2016-05-08T16:08:56Z</time>
      </trkpt>
      <trkpt lat="48.71473" lon="1.96818">
        <ele>108.264832</ele>
        <time>2016-05-08T16:08:57Z</time>
      </trkpt>
      <trkpt lat="48.71473" lon="1.96818">
        <ele>108.266235</ele>
        <time>2016-05-08T16:08:58Z</time>
      </trkpt>
      <trkpt lat="48.71473" lon="1.96818">
        <ele>108.2677</ele>
        <time>2016-05-08T16:09:00Z</time>
      </trkpt>
      <trkpt lat="48.71473" lon="1.96818">
        <ele>108.268921</ele>
        <time>2016-05-08T16:09:02Z</time>
      </trkpt>
      <trkpt lat="48.71473" lon="1.96818">
        <ele>108.272522</ele>
        <time>2016-05-08T16:09:04Z</time>
      </trkpt>
      <trkpt lat="48.71473" lon="1.96818">
        <ele>108.274292</ele>
        <time>2016-05-08T16:09:06Z</time>
      </trkpt>
      <trkpt lat="48.71473" lon="1.96818">
        <ele>108.277649</ele>
        <time>2016-05-08T16:09:08Z</time>
      </trkpt>
      <trkpt lat="48.71473" lon="1.96818">
        <ele>108.278809</ele>
        <time>2016-05-08T16:09:10Z</time>
      </trkpt>
      <trkpt lat="48.71473" lon="1.96818">
        <ele>108.273254</ele>
        <time>2016-05-08T16:09:12Z</time>
      </trkpt>
      <trkpt lat="48.71473" lon="1.96818">
        <ele>108.269531</ele>
        <time>2016-05-08T16:09:14Z</time>
      </trkpt>
      <trkpt lat="48.71473" lon="1.96818">
        <ele>108.27771</ele>
        <time>2016-05-08T16:09:16Z</time>
      </trkpt>
      <trkpt lat="48.71472" lon="1.9682">
        <ele>108.354858</ele>
        <time>2016-05-08T16:09:18Z</time>
      </trkpt>
      <trkpt lat="48.71471" lon="1.96823">
        <ele>108.563965</ele>
        <time>2016-05-08T16:09:20Z</time>
      </trkpt>
      <trkpt lat="48.7147" lon="1.96823">
        <ele>110.647827</ele>
        <time>2016-05-08T16:09:22Z</time>
      </trkpt>
      <trkpt lat="48.7147" lon="1.96824">
        <ele>111.380005</ele>
        <time>2016-05-08T16:09:24Z</time>
      </trkpt>
      <trkpt lat="48.71469" lon="1.96825">
        <ele>111.58667</ele>
        <time>2016-05-08T16:09:26Z</time>
      </trkpt>
      <trkpt lat="48.71468" lon="1.96825">
        <ele>112.451477</ele>
        <time>2016-05-08T16:09:28Z</time>
      </trkpt>
      <trkpt lat="48.71468" lon="1.96826">
        <ele>113.632568</ele>
        <time>2016-05-08T16:09:30Z</time>
      </trkpt>
      <trkpt lat="48.71468" lon="1.96827">
        <ele>114.138428</ele>
        <time>2016-05-08T16:09:32Z</time>
      </trkpt>
      <trkpt lat="48.71468" lon="1.96827">
        <ele>114.501343</ele>
        <time>2016-05-08T16:09:34Z</time>
      </trkpt>
      <trkpt lat="48.71468" lon="1.96827">
        <ele>114.170593</ele>
        <time>2016-05-08T16:09:36Z</time>
      </trkpt>
      <trkpt lat="48.71468" lon="1.96827">
        <ele>114.165649</ele>
        <time>2016-05-08T16:09:38Z</time>
      </trkpt>
      <trkpt lat="48.71468" lon="1.96827">
        <ele>114.167847</ele>
        <time>2016-05-08T16:09:40Z</time>
      </trkpt>
      <trkpt lat="48.71468" lon="1.96827">
        <ele>114.159729</ele>
        <time>2016-05-08T16:09:42Z</time>
      </trkpt>
      <trkpt lat="48.71468" lon="1.96827">
        <ele>113.63501</ele>
        <time>2016-05-08T16:09:44Z</time>
      </trkpt>
      <trkpt lat="48.71465" lon="1.96828">
        <ele>114.846558</ele>
        <time>2016-05-08T16:09:46Z</time>
      </trkpt>
      <trkpt lat="48.71465" lon="1.96828">
        <ele>114.846558</ele>
        <time>2016-05-08T16:09:48Z</time>
      </trkpt>
      <trkpt lat="48.71465" lon="1.96828">
        <ele>114.837891</ele>
        <time>2016-05-08T16:09:50Z</time>
      </trkpt>
      <trkpt lat="48.71465" lon="1.96828">
        <ele>114.962646</ele>
        <time>2016-05-08T16:09:52Z</time>
      </trkpt>
      <trkpt lat="48.71464" lon="1.96829">
        <ele>114.21759</ele>
        <time>2016-05-08T16:09:54Z</time>
      </trkpt>
      <trkpt lat="48.71463" lon="1.96833">
        <ele>113.190491</ele>
        <time>2016-05-08T16:09:56Z</time>
      </trkpt>
      <trkpt lat="48.71462" lon="1.96837">
        <ele>114.649231</ele>
        <time>2016-05-08T16:09:58Z</time>
      </trkpt>
      <trkpt lat="48.71462" lon="1.9684">
        <ele>114.213989</ele>
        <time>2016-05-08T16:10:00Z</time>
      </trkpt>
      <trkpt lat="48.71462" lon="1.96844">
        <ele>113.66272</ele>
        <time>2016-05-08T16:10:02Z</time>
      </trkpt>
      <trkpt lat="48.71461" lon="1.96847">
        <ele>113.618042</ele>
        <time>2016-05-08T16:10:04Z</time>
      </trkpt>
      <trkpt lat="48.7146" lon="1.9685">
        <ele>113.613403</ele>
        <time>2016-05-08T16:10:06Z</time>
      </trkpt>
      <trkpt lat="48.71459" lon="1.96851">
        <ele>114.202759</ele>
        <time>2016-05-08T16:10:08Z</time>
      </trkpt>
      <trkpt lat="48.71457" lon="1.96854">
        <ele>116.852417</ele>
        <time>2016-05-08T16:10:10Z</time>
      </trkpt>
      <trkpt lat="48.71457" lon="1.96856">
        <ele>115.987366</ele>
        <time>2016-05-08T16:10:12Z</time>
      </trkpt>
      <trkpt lat="48.71456" lon="1.96858">
        <ele>114.574829</ele>
        <time>2016-05-08T16:10:14Z</time>
      </trkpt>
      <trkpt lat="48.71456" lon="1.9686">
        <ele>115.244751</ele>
        <time>2016-05-08T16:10:16Z</time>
      </trkpt>
      <trkpt lat="48.71455" lon="1.96863">
        <ele>114.134521</ele>
        <time>2016-05-08T16:10:18Z</time>
      </trkpt>
      <trkpt lat="48.71455" lon="1.96865">
        <ele>114.472046</ele>
        <time>2016-05-08T16:10:20Z</time>
      </trkpt>
      <trkpt lat="48.71455" lon="1.96866">
        <ele>114.007935</ele>
        <time>2016-05-08T16:10:22Z</time>
      </trkpt>
      <trkpt lat="48.71454" lon="1.96868">
        <ele>115.173462</ele>
        <time>2016-05-08T16:10:24Z</time>
      </trkpt>
      <trkpt lat="48.71453" lon="1.96871">
        <ele>116.062073</ele>
        <time>2016-05-08T16:10:26Z</time>
      </trkpt>
      <trkpt lat="48.71453" lon="1.96874">
        <ele>115.948547</ele>
        <time>2016-05-08T16:10:28Z</time>
      </trkpt>
      <trkpt lat="48.71453" lon="1.96878">
        <ele>115.89502</ele>
        <time>2016-05-08T16:10:30Z</time>
      </trkpt>
      <trkpt lat="48.71454" lon="1.96881">
        <ele>115.772095</ele>
        <time>2016-05-08T16:10:32Z</time>
      </trkpt>
      <trkpt lat="48.71454" lon="1.96884">
        <ele>115.259033</ele>
        <time>2016-05-08T16:10:34Z</time>
      </trkpt>
      <trkpt lat="48.71454" lon="1.96887">
        <ele>114.771973</ele>
        <time>2016-05-08T16:10:36Z</time>
      </trkpt>
      <trkpt lat="48.71453" lon="1.96889">
        <ele>114.280334</ele>
        <time>2016-05-08T16:10:38Z</time>
      </trkpt>
      <trkpt lat="48.71452" lon="1.96893">
        <ele>114.044189</ele>
        <time>2016-05-08T16:10:40Z</time>
      </trkpt>
      <trkpt lat="48.71452" lon="1.96895">
        <ele>113.245667</ele>
        <time>2016-05-08T16:10:42Z</time>
      </trkpt>
      <trkpt lat="48.71452" lon="1.96895">
        <ele>113.512756</ele>
        <time>2016-05-08T16:10:44Z</time>
      </trkpt>
      <trkpt lat="48.71452" lon="1.96896">
        <ele>113.458252</ele>
        <time>2016-05-08T16:10:46Z</time>
      </trkpt>
      <trkpt lat="48.71453" lon="1.96897">
        <ele>112.929504</ele>
        <time>2016-05-08T16:10:48Z</time>
      </trkpt>
      <trkpt lat="48.71454" lon="1.96899">
        <ele>111.96521</ele>
        <time>2016-05-08T16:10:50Z</time>
      </trkpt>
      <trkpt lat="48.71453" lon="1.96901">
        <ele>111.571045</ele>
        <time>2016-05-08T16:10:52Z</time>
      </trkpt>
      <trkpt lat="48.71452" lon="1.96902">
        <ele>110.768127</ele>
        <time>2016-05-08T16:10:54Z</time>
      </trkpt>
      <trkpt lat="48.71452" lon="1.96905">
        <ele>110.452209</ele>
        <time>2016-05-08T16:10:56Z</time>
      </trkpt>
      <trkpt lat="48.71451" lon="1.96909">
        <ele>110.388062</ele>
        <time>2016-05-08T16:10:58Z</time>
      </trkpt>
      <trkpt lat="48.71452" lon="1.96911">
        <ele>109.872803</ele>
        <time>2016-05-08T16:11:00Z</time>
      </trkpt>
      <trkpt lat="48.71452" lon="1.96914">
        <ele>109.682434</ele>
        <time>2016-05-08T16:11:02Z</time>
      </trkpt>
      <trkpt lat="48.71452" lon="1.96917">
        <ele>109.836731</ele>
        <time>2016-05-08T16:11:04Z</time>
      </trkpt>
      <trkpt lat="48.71452" lon="1.96919">
        <ele>109.853455</ele>
        <time>2016-05-08T16:11:05Z</time>
      </trkpt>
      <trkpt lat="48.71451" lon="1.96922">
        <ele>110.129578</ele>
        <time>2016-05-08T16:11:07Z</time>
      </trkpt>
      <trkpt lat="48.71451" lon="1.96923">
        <ele>109.421997</ele>
        <time>2016-05-08T16:11:09Z</time>
      </trkpt>
      <trkpt lat="48.71451" lon="1.96923">
        <ele>109.377869</ele>
        <time>2016-05-08T16:11:11Z</time>
      </trkpt>
      <trkpt lat="48.71451" lon="1.96923">
        <ele>109.381592</ele>
        <time>2016-05-08T16:11:13Z</time>
      </trkpt>
      <trkpt lat="48.71451" lon="1.96923">
        <ele>109.38269</ele>
        <time>2016-05-08T16:11:15Z</time>
      </trkpt>
      <trkpt lat="48.71451" lon="1.96923">
        <ele>109.134094</ele>
        <time>2016-05-08T16:11:17Z</time>
      </trkpt>
      <trkpt lat="48.71451" lon="1.96924">
        <ele>109.237305</ele>
        <time>2016-05-08T16:11:19Z</time>
      </trkpt>
      <trkpt lat="48.71451" lon="1.96924">
        <ele>109.057251</ele>
        <time>2016-05-08T16:11:21Z</time>
      </trkpt>
      <trkpt lat="48.71452" lon="1.96924">
        <ele>109.187134</ele>
        <time>2016-05-08T16:11:23Z</time>
      </trkpt>
      <trkpt lat="48.71452" lon="1.96926">
        <ele>109.045044</ele>
        <time>2016-05-08T16:11:25Z</time>
      </trkpt>
      <trkpt lat="48.71452" lon="1.96928">
        <ele>109.35022</ele>
        <time>2016-05-08T16:11:27Z</time>
      </trkpt>
      <trkpt lat="48.71451" lon="1.96931">
        <ele>109.731384</ele>
        <time>2016-05-08T16:11:29Z</time>
      </trkpt>
      <trkpt lat="48.7145" lon="1.96934">
        <ele>110.305176</ele>
        <time>2016-05-08T16:11:31Z</time>
      </trkpt>
      <trkpt lat="48.71449" lon="1.96936">
        <ele>109.863525</ele>
        <time>2016-05-08T16:11:33Z</time>
      </trkpt>
      <trkpt lat="48.71448" lon="1.96939">
        <ele>110.239136</ele>
        <time>2016-05-08T16:11:35Z</time>
      </trkpt>
      <trkpt lat="48.71447" lon="1.9694">
        <ele>109.435974</ele>
        <time>2016-05-08T16:11:37Z</time>
      </trkpt>
      <trkpt lat="48.71444" lon="1.96942">
        <ele>109.313293</ele>
        <time>2016-05-08T16:11:39Z</time>
      </trkpt>
      <trkpt lat="48.71442" lon="1.96943">
        <ele>109.409424</ele>
        <time>2016-05-08T16:11:41Z</time>
      </trkpt>
      <trkpt lat="48.71441" lon="1.96943">
        <ele>109.432922</ele>
        <time>2016-05-08T16:11:43Z</time>
      </trkpt>
      <trkpt lat="48.71439" lon="1.96945">
        <ele>108.836975</ele>
        <time>2016-05-08T16:11:45Z</time>
      </trkpt>
      <trkpt lat="48.71436" lon="1.96947">
        <ele>108.66449</ele>
        <time>2016-05-08T16:11:47Z</time>
      </trkpt>
      <trkpt lat="48.71435" lon="1.96947">
        <ele>108.442261</ele>
        <time>2016-05-08T16:11:49Z</time>
      </trkpt>
      <trkpt lat="48.71434" lon="1.96947">
        <ele>107.913086</ele>
        <time>2016-05-08T16:11:51Z</time>
      </trkpt>
      <trkpt lat="48.71435" lon="1.96947">
        <ele>108.434875</ele>
        <time>2016-05-08T16:11:53Z</time>
      </trkpt>
      <trkpt lat="48.71434" lon="1.96949">
        <ele>108.860596</ele>
        <time>2016-05-08T16:11:55Z</time>
      </trkpt>
      <trkpt lat="48.71432" lon="1.96951">
        <ele>108.268616</ele>
        <time>2016-05-08T16:11:57Z</time>
      </trkpt>
      <trkpt lat="48.71431" lon="1.96952">
        <ele>108.804382</ele>
        <time>2016-05-08T16:11:59Z</time>
      </trkpt>
      <trkpt lat="48.71432" lon="1.96953">
        <ele>109.153564</ele>
        <time>2016-05-08T16:12:01Z</time>
      </trkpt>
      <trkpt lat="48.71432" lon="1.96953">
        <ele>108.814697</ele>
        <time>2016-05-08T16:12:03Z</time>
      </trkpt>
      <trkpt lat="48.71432" lon="1.96953">
        <ele>109.173157</ele>
        <time>2016-05-08T16:12:05Z</time>
      </trkpt>
      <trkpt lat="48.71432" lon="1.96953">
        <ele>108.641357</ele>
        <time>2016-05-08T16:12:07Z</time>
      </trkpt>
      <trkpt lat="48.71432" lon="1.96953">
        <ele>108.895813</ele>
        <time>2016-05-08T16:12:09Z</time>
      </trkpt>
      <trkpt lat="48.71432" lon="1.96953">
        <ele>108.164185</ele>
        <time>2016-05-08T16:12:11Z</time>
      </trkpt>
      <trkpt lat="48.71432" lon="1.96953">
        <ele>108.60437</ele>
        <time>2016-05-08T16:12:13Z</time>
      </trkpt>
      <trkpt lat="48.71432" lon="1.96953">
        <ele>108.602417</ele>
        <time>2016-05-08T16:12:15Z</time>
      </trkpt>
      <trkpt lat="48.71432" lon="1.96953">
        <ele>108.601562</ele>
        <time>2016-05-08T16:12:17Z</time>
      </trkpt>
      <trkpt lat="48.71432" lon="1.96953">
        <ele>109.105652</ele>
        <time>2016-05-08T16:12:18Z</time>
      </trkpt>
      <trkpt lat="48.71432" lon="1.96953">
        <ele>109.117065</ele>
        <time>2016-05-08T16:12:20Z</time>
      </trkpt>
      <trkpt lat="48.71432" lon="1.96953">
        <ele>109.11554</ele>
        <time>2016-05-08T16:12:21Z</time>
      </trkpt>
      <trkpt lat="48.71432" lon="1.96953">
        <ele>109.118103</ele>
        <time>2016-05-08T16:12:23Z</time>
      </trkpt>
      <trkpt lat="48.71432" lon="1.96953">
        <ele>109.113708</ele>
        <time>2016-05-08T16:12:25Z</time>
      </trkpt>
      <trkpt lat="48.71432" lon="1.96953">
        <ele>108.418091</ele>
        <time>2016-05-08T16:12:27Z</time>
      </trkpt>
      <trkpt lat="48.71434" lon="1.96951">
        <ele>107.794739</ele>
        <time>2016-05-08T16:12:29Z</time>
      </trkpt>
      <trkpt lat="48.71433" lon="1.9695">
        <ele>107.426392</ele>
        <time>2016-05-08T16:12:31Z</time>
      </trkpt>
      <trkpt lat="48.71434" lon="1.9695">
        <ele>106.967041</ele>
        <time>2016-05-08T16:12:33Z</time>
      </trkpt>
      <trkpt lat="48.71435" lon="1.96951">
        <ele>106.912598</ele>
        <time>2016-05-08T16:12:35Z</time>
      </trkpt>
      <trkpt lat="48.71435" lon="1.96952">
        <ele>106.207458</ele>
        <time>2016-05-08T16:12:37Z</time>
      </trkpt>
      <trkpt lat="48.71437" lon="1.96953">
        <ele>105.399109</ele>
        <time>2016-05-08T16:12:39Z</time>
      </trkpt>
      <trkpt lat="48.71437" lon="1.96952">
        <ele>104.298218</ele>
        <time>2016-05-08T16:12:41Z</time>
      </trkpt>
      <trkpt lat="48.71435" lon="1.96952">
        <ele>105.05011</ele>
        <time>2016-05-08T16:12:43Z</time>
      </trkpt>
      <trkpt lat="48.71435" lon="1.96952">
        <ele>104.386841</ele>
        <time>2016-05-08T16:12:45Z</time>
      </trkpt>
      <trkpt lat="48.71437" lon="1.9695">
        <ele>104.363342</ele>
        <time>2016-05-08T16:12:47Z</time>
      </trkpt>
      <trkpt lat="48.71439" lon="1.96948">
        <ele>104.729248</ele>
        <time>2016-05-08T16:12:49Z</time>
      </trkpt>
      <trkpt lat="48.71438" lon="1.96946">
        <ele>104.923157</ele>
        <time>2016-05-08T16:12:51Z</time>
      </trkpt>
      <trkpt lat="48.71437" lon="1.96944">
        <ele>104.946838</ele>
        <time>2016-05-08T16:12:53Z</time>
      </trkpt>
      <trkpt lat="48.71434" lon="1.96944">
        <ele>104.839539</ele>
        <time>2016-05-08T16:12:55Z</time>
      </trkpt>
      <trkpt lat="48.71432" lon="1.96945">
        <ele>104.335876</ele>
        <time>2016-05-08T16:12:57Z</time>
      </trkpt>
      <trkpt lat="48.71429" lon="1.96945">
        <ele>104.255737</ele>
        <time>2016-05-08T16:12:59Z</time>
      </trkpt>
      <trkpt lat="48.71428" lon="1.96945">
        <ele>104.144653</ele>
        <time>2016-05-08T16:13:01Z</time>
      </trkpt>
      <trkpt lat="48.71426" lon="1.96943">
        <ele>104.106934</ele>
        <time>2016-05-08T16:13:03Z</time>
      </trkpt>
      <trkpt lat="48.71424" lon="1.96942">
        <ele>104.14325</ele>
        <time>2016-05-08T16:13:05Z</time>
      </trkpt>
      <trkpt lat="48.71423" lon="1.96942">
        <ele>104.086243</ele>
        <time>2016-05-08T16:13:07Z</time>
      </trkpt>
      <trkpt lat="48.71421" lon="1.96943">
        <ele>103.999207</ele>
        <time>2016-05-08T16:13:09Z</time>
      </trkpt>
      <trkpt lat="48.71418" lon="1.96943">
        <ele>103.975281</ele>
        <time>2016-05-08T16:13:11Z</time>
      </trkpt>
      <trkpt lat="48.71415" lon="1.96943">
        <ele>103.658508</ele>
        <time>2016-05-08T16:13:13Z</time>
      </trkpt>
      <trkpt lat="48.71412" lon="1.96943">
        <ele>103.531189</ele>
        <time>2016-05-08T16:13:15Z</time>
      </trkpt>
      <trkpt lat="48.71411" lon="1.96945">
        <ele>103.729004</ele>
        <time>2016-05-08T16:13:17Z</time>
      </trkpt>
      <trkpt lat="48.7141" lon="1.96945">
        <ele>103.878784</ele>
        <time>2016-05-08T16:13:19Z</time>
      </trkpt>
      <trkpt lat="48.71409" lon="1.96943">
        <ele>103.831543</ele>
        <time>2016-05-08T16:13:21Z</time>
      </trkpt>
      <trkpt lat="48.71408" lon="1.9694">
        <ele>104.661438</ele>
        <time>2016-05-08T16:13:23Z</time>
      </trkpt>
      <trkpt lat="48.71406" lon="1.96939">
        <ele>104.825073</ele>
        <time>2016-05-08T16:13:25Z</time>
      </trkpt>
      <trkpt lat="48.71405" lon="1.96938">
        <ele>105.156372</ele>
        <time>2016-05-08T16:13:26Z</time>
      </trkpt>
      <trkpt lat="48.71405" lon="1.96937">
        <ele>105.16803</ele>
        <time>2016-05-08T16:13:28Z</time>
      </trkpt>
      <trkpt lat="48.71403" lon="1.96932">
        <ele>105.287964</ele>
        <time>2016-05-08T16:13:30Z</time>
      </trkpt>
      <trkpt lat="48.714" lon="1.96931">
        <ele>105.333557</ele>
        <time>2016-05-08T16:13:32Z</time>
      </trkpt>
      <trkpt lat="48.71396" lon="1.96931">
        <ele>105.709717</ele>
        <time>2016-05-08T16:13:34Z</time>
      </trkpt>
      <trkpt lat="48.71393" lon="1.96932">
        <ele>105.612183</ele>
        <time>2016-05-08T16:13:36Z</time>
      </trkpt>
      <trkpt lat="48.7139" lon="1.96931">
        <ele>106.503662</ele>
        <time>2016-05-08T16:13:38Z</time>
      </trkpt>
      <trkpt lat="48.71388" lon="1.96932">
        <ele>106.465759</ele>
        <time>2016-05-08T16:13:40Z</time>
      </trkpt>
      <trkpt lat="48.71386" lon="1.96931">
        <ele>107.569397</ele>
        <time>2016-05-08T16:13:42Z</time>
      </trkpt>
      <trkpt lat="48.71385" lon="1.9693">
        <ele>107.183167</ele>
        <time>2016-05-08T16:13:44Z</time>
      </trkpt>
      <trkpt lat="48.71383" lon="1.9693">
        <ele>107.123535</ele>
        <time>2016-05-08T16:13:46Z</time>
      </trkpt>
      <trkpt lat="48.71383" lon="1.96926">
        <ele>106.778564</ele>
        <time>2016-05-08T16:13:48Z</time>
      </trkpt>
      <trkpt lat="48.71383" lon="1.9692">
        <ele>107.818848</ele>
        <time>2016-05-08T16:13:50Z</time>
      </trkpt>
      <trkpt lat="48.71382" lon="1.96916">
        <ele>107.759155</ele>
        <time>2016-05-08T16:13:52Z</time>
      </trkpt>
      <trkpt lat="48.7138" lon="1.96914">
        <ele>109.030273</ele>
        <time>2016-05-08T16:13:54Z</time>
      </trkpt>
      <trkpt lat="48.71379" lon="1.96913">
        <ele>109.247803</ele>
        <time>2016-05-08T16:13:56Z</time>
      </trkpt>
      <trkpt lat="48.71376" lon="1.96911">
        <ele>110.210083</ele>
        <time>2016-05-08T16:13:58Z</time>
      </trkpt>
      <trkpt lat="48.71374" lon="1.96909">
        <ele>110.567871</ele>
        <time>2016-05-08T16:14:00Z</time>
      </trkpt>
      <trkpt lat="48.71372" lon="1.96908">
        <ele>111.874084</ele>
        <time>2016-05-08T16:14:02Z</time>
      </trkpt>
      <trkpt lat="48.71369" lon="1.96907">
        <ele>111.217529</ele>
        <time>2016-05-08T16:14:04Z</time>
      </trkpt>
      <trkpt lat="48.71368" lon="1.96906">
        <ele>111.934082</ele>
        <time>2016-05-08T16:14:06Z</time>
      </trkpt>
      <trkpt lat="48.71367" lon="1.96904">
        <ele>112.967896</ele>
        <time>2016-05-08T16:14:08Z</time>
      </trkpt>
      <trkpt lat="48.71365" lon="1.96902">
        <ele>112.089722</ele>
        <time>2016-05-08T16:14:10Z</time>
      </trkpt>
      <trkpt lat="48.71365" lon="1.969">
        <ele>110.437073</ele>
        <time>2016-05-08T16:14:12Z</time>
      </trkpt>
      <trkpt lat="48.71365" lon="1.96898">
        <ele>108.657349</ele>
        <time>2016-05-08T16:14:14Z</time>
      </trkpt>
      <trkpt lat="48.71364" lon="1.96897">
        <ele>108.87616</ele>
        <time>2016-05-08T16:14:16Z</time>
      </trkpt>
      <trkpt lat="48.71362" lon="1.96896">
        <ele>108.24707</ele>
        <time>2016-05-08T16:14:18Z</time>
      </trkpt>
      <trkpt lat="48.71361" lon="1.96895">
        <ele>108.364502</ele>
        <time>2016-05-08T16:14:20Z</time>
      </trkpt>
      <trkpt lat="48.71359" lon="1.96894">
        <ele>109.541809</ele>
        <time>2016-05-08T16:14:22Z</time>
      </trkpt>
      <trkpt lat="48.71357" lon="1.96894">
        <ele>109.880066</ele>
        <time>2016-05-08T16:14:24Z</time>
      </trkpt>
      <trkpt lat="48.71355" lon="1.96894">
        <ele>109.55249</ele>
        <time>2016-05-08T16:14:26Z</time>
      </trkpt>
      <trkpt lat="48.71352" lon="1.96894">
        <ele>109.32605</ele>
        <time>2016-05-08T16:14:28Z</time>
      </trkpt>
      <trkpt lat="48.71351" lon="1.96893">
        <ele>109.993835</ele>
        <time>2016-05-08T16:14:30Z</time>
      </trkpt>
      <trkpt lat="48.7135" lon="1.96892">
        <ele>109.762329</ele>
        <time>2016-05-08T16:14:32Z</time>
      </trkpt>
      <trkpt lat="48.71349" lon="1.96891">
        <ele>111.310486</ele>
        <time>2016-05-08T16:14:34Z</time>
      </trkpt>
      <trkpt lat="48.71347" lon="1.9689">
        <ele>111.078003</ele>
        <time>2016-05-08T16:14:36Z</time>
      </trkpt>
      <trkpt lat="48.71346" lon="1.96891">
        <ele>110.937866</ele>
        <time>2016-05-08T16:14:38Z</time>
      </trkpt>
      <trkpt lat="48.71344" lon="1.96891">
        <ele>111.785583</ele>
        <time>2016-05-08T16:14:40Z</time>
      </trkpt>
      <trkpt lat="48.71342" lon="1.96892">
        <ele>111.954407</ele>
        <time>2016-05-08T16:14:42Z</time>
      </trkpt>
      <trkpt lat="48.7134" lon="1.96893">
        <ele>112.376343</ele>
        <time>2016-05-08T16:14:44Z</time>
      </trkpt>
      <trkpt lat="48.71339" lon="1.96892">
        <ele>112.983459</ele>
        <time>2016-05-08T16:14:46Z</time>
      </trkpt>
      <trkpt lat="48.71337" lon="1.9689">
        <ele>113.814087</ele>
        <time>2016-05-08T16:14:48Z</time>
      </trkpt>
      <trkpt lat="48.71335" lon="1.96888">
        <ele>114.020142</ele>
        <time>2016-05-08T16:14:50Z</time>
      </trkpt>
      <trkpt lat="48.71332" lon="1.96888">
        <ele>114.22821</ele>
        <time>2016-05-08T16:14:52Z</time>
      </trkpt>
      <trkpt lat="48.71329" lon="1.96888">
        <ele>114.739624</ele>
        <time>2016-05-08T16:14:54Z</time>
      </trkpt>
      <trkpt lat="48.71326" lon="1.96888">
        <ele>115.026245</ele>
        <time>2016-05-08T16:14:56Z</time>
      </trkpt>
      <trkpt lat="48.71325" lon="1.96887">
        <ele>116.117798</ele>
        <time>2016-05-08T16:14:58Z</time>
      </trkpt>
      <trkpt lat="48.71324" lon="1.96887">
        <ele>116.137451</ele>
        <time>2016-05-08T16:15:00Z</time>
      </trkpt>
      <trkpt lat="48.71323" lon="1.96886">
        <ele>116.281311</ele>
        <time>2016-05-08T16:15:02Z</time>
      </trkpt>
      <trkpt lat="48.71323" lon="1.96885">
        <ele>115.477295</ele>
        <time>2016-05-08T16:15:04Z</time>
      </trkpt>
      <trkpt lat="48.71321" lon="1.96882">
        <ele>116.019409</ele>
        <time>2016-05-08T16:15:06Z</time>
      </trkpt>
      <trkpt lat="48.71319" lon="1.9688">
        <ele>116.165344</ele>
        <time>2016-05-08T16:15:08Z</time>
      </trkpt>
      <trkpt lat="48.71316" lon="1.96879">
        <ele>116.486023</ele>
        <time>2016-05-08T16:15:10Z</time>
      </trkpt>
      <trkpt lat="48.71314" lon="1.96877">
        <ele>116.569153</ele>
        <time>2016-05-08T16:15:12Z</time>
      </trkpt>
      <trkpt lat="48.71312" lon="1.96876">
        <ele>117.085327</ele>
        <time>2016-05-08T16:15:14Z</time>
      </trkpt>
      <trkpt lat="48.7131" lon="1.96876">
        <ele>116.770752</ele>
        <time>2016-05-08T16:15:16Z</time>
      </trkpt>
      <trkpt lat="48.71308" lon="1.96877">
        <ele>116.998535</ele>
        <time>2016-05-08T16:15:18Z</time>
      </trkpt>
      <trkpt lat="48.71306" lon="1.96876">
        <ele>117.10498</ele>
        <time>2016-05-08T16:15:20Z</time>
      </trkpt>
      <trkpt lat="48.71304" lon="1.96875">
        <ele>117.539246</ele>
        <time>2016-05-08T16:15:22Z</time>
      </trkpt>
      <trkpt lat="48.71303" lon="1.96874">
        <ele>117.844666</ele>
        <time>2016-05-08T16:15:24Z</time>
      </trkpt>
      <trkpt lat="48.71302" lon="1.96874">
        <ele>118.318848</ele>
        <time>2016-05-08T16:15:26Z</time>
      </trkpt>
      <trkpt lat="48.71301" lon="1.96874">
        <ele>118.642761</ele>
        <time>2016-05-08T16:15:28Z</time>
      </trkpt>
      <trkpt lat="48.71301" lon="1.96874">
        <ele>118.911377</ele>
        <time>2016-05-08T16:15:30Z</time>
      </trkpt>
      <trkpt lat="48.71299" lon="1.96873">
        <ele>119.123413</ele>
        <time>2016-05-08T16:15:32Z</time>
      </trkpt>
      <trkpt lat="48.71298" lon="1.96871">
        <ele>119.463623</ele>
        <time>2016-05-08T16:15:34Z</time>
      </trkpt>
      <trkpt lat="48.71297" lon="1.9687">
        <ele>119.042725</ele>
        <time>2016-05-08T16:15:36Z</time>
      </trkpt>
      <trkpt lat="48.71295" lon="1.96868">
        <ele>119.283813</ele>
        <time>2016-05-08T16:15:38Z</time>
      </trkpt>
      <trkpt lat="48.71295" lon="1.96868">
        <ele>119.560669</ele>
        <time>2016-05-08T16:15:40Z</time>
      </trkpt>
      <trkpt lat="48.71294" lon="1.96867">
        <ele>120.076721</ele>
        <time>2016-05-08T16:15:42Z</time>
      </trkpt>
      <trkpt lat="48.71292" lon="1.96866">
        <ele>120.008423</ele>
        <time>2016-05-08T16:15:44Z</time>
      </trkpt>
      <trkpt lat="48.71291" lon="1.96866">
        <ele>120.034546</ele>
        <time>2016-05-08T16:15:46Z</time>
      </trkpt>
      <trkpt lat="48.7129" lon="1.96864">
        <ele>119.643311</ele>
        <time>2016-05-08T16:15:48Z</time>
      </trkpt>
      <trkpt lat="48.71288" lon="1.96864">
        <ele>120.51593</ele>
        <time>2016-05-08T16:15:50Z</time>
      </trkpt>
      <trkpt lat="48.71287" lon="1.96863">
        <ele>120.308228</ele>
        <time>2016-05-08T16:15:52Z</time>
      </trkpt>
      <trkpt lat="48.71287" lon="1.96862">
        <ele>120.833374</ele>
        <time>2016-05-08T16:15:54Z</time>
      </trkpt>
      <trkpt lat="48.71286" lon="1.96861">
        <ele>121.153076</ele>
        <time>2016-05-08T16:15:56Z</time>
      </trkpt>
      <trkpt lat="48.71286" lon="1.9686">
        <ele>122.907715</ele>
        <time>2016-05-08T16:15:58Z</time>
      </trkpt>
      <trkpt lat="48.71286" lon="1.96857">
        <ele>123.796265</ele>
        <time>2016-05-08T16:16:00Z</time>
      </trkpt>
      <trkpt lat="48.71286" lon="1.96856">
        <ele>124.346313</ele>
        <time>2016-05-08T16:16:02Z</time>
      </trkpt>
      <trkpt lat="48.71286" lon="1.96856">
        <ele>123.83606</ele>
        <time>2016-05-08T16:16:04Z</time>
      </trkpt>
      <trkpt lat="48.71286" lon="1.96856">
        <ele>124.305176</ele>
        <time>2016-05-08T16:16:06Z</time>
      </trkpt>
      <trkpt lat="48.71286" lon="1.96855">
        <ele>124.905884</ele>
        <time>2016-05-08T16:16:08Z</time>
      </trkpt>
      <trkpt lat="48.71286" lon="1.96852">
        <ele>124.676941</ele>
        <time>2016-05-08T16:16:10Z</time>
      </trkpt>
      <trkpt lat="48.71285" lon="1.96851">
        <ele>125.025269</ele>
        <time>2016-05-08T16:16:11Z</time>
      </trkpt>
      <trkpt lat="48.71285" lon="1.96851">
        <ele>124.87384</ele>
        <time>2016-05-08T16:16:13Z</time>
      </trkpt>
      <trkpt lat="48.71284" lon="1.96851">
        <ele>125.203857</ele>
        <time>2016-05-08T16:16:15Z</time>
      </trkpt>
      <trkpt lat="48.71284" lon="1.9685">
        <ele>126.504578</ele>
        <time>2016-05-08T16:16:17Z</time>
      </trkpt>
      <trkpt lat="48.71284" lon="1.96849">
        <ele>126.730042</ele>
        <time>2016-05-08T16:16:19Z</time>
      </trkpt>
      <trkpt lat="48.71284" lon="1.96849">
        <ele>126.746338</ele>
        <time>2016-05-08T16:16:20Z</time>
      </trkpt>
      <trkpt lat="48.71284" lon="1.96848">
        <ele>126.983154</ele>
        <time>2016-05-08T16:16:21Z</time>
      </trkpt>
      <trkpt lat="48.71283" lon="1.96847">
        <ele>127.186707</ele>
        <time>2016-05-08T16:16:22Z</time>
      </trkpt>
      <trkpt lat="48.71283" lon="1.96847">
        <ele>127.885986</ele>
        <time>2016-05-08T16:16:23Z</time>
      </trkpt>
      <trkpt lat="48.71282" lon="1.96847">
        <ele>128.068909</ele>
        <time>2016-05-08T16:16:24Z</time>
      </trkpt>
      <trkpt lat="48.71282" lon="1.96847">
        <ele>128.637085</ele>
        <time>2016-05-08T16:16:25Z</time>
      </trkpt>
      <trkpt lat="48.71282" lon="1.96847">
        <ele>128.846924</ele>
        <time>2016-05-08T16:16:26Z</time>
      </trkpt>
      <trkpt lat="48.71282" lon="1.96847">
        <ele>129.33667</ele>
        <time>2016-05-08T16:16:27Z</time>
      </trkpt>
      <trkpt lat="48.71282" lon="1.96847">
        <ele>129.07959</ele>
        <time>2016-05-08T16:16:28Z</time>
      </trkpt>
      <trkpt lat="48.71281" lon="1.96846">
        <ele>129.4552</ele>
        <time>2016-05-08T16:16:29Z</time>
      </trkpt>
      <trkpt lat="48.71281" lon="1.96846">
        <ele>129.385803</ele>
        <time>2016-05-08T16:16:30Z</time>
      </trkpt>
      <trkpt lat="48.71281" lon="1.96845">
        <ele>129.023804</ele>
        <time>2016-05-08T16:16:31Z</time>
      </trkpt>
      <trkpt lat="48.71281" lon="1.96845">
        <ele>129.113525</ele>
        <time>2016-05-08T16:16:32Z</time>
      </trkpt>
      <trkpt lat="48.71281" lon="1.96845">
        <ele>129.194336</ele>
        <time>2016-05-08T16:16:33Z</time>
      </trkpt>
      <trkpt lat="48.71281" lon="1.96844">
        <ele>128.95697</ele>
        <time>2016-05-08T16:16:34Z</time>
      </trkpt>
      <trkpt lat="48.71281" lon="1.96844">
        <ele>129.178833</ele>
        <time>2016-05-08T16:16:35Z</time>
      </trkpt>
      <trkpt lat="48.7128" lon="1.96845">
        <ele>129.334839</ele>
        <time>2016-05-08T16:16:36Z</time>
      </trkpt>
      <trkpt lat="48.71279" lon="1.96845">
        <ele>129.456055</ele>
        <time>2016-05-08T16:16:37Z</time>
      </trkpt>
      <trkpt lat="48.71278" lon="1.96845">
        <ele>129.52002</ele>
        <time>2016-05-08T16:16:38Z</time>
      </trkpt>
      <trkpt lat="48.71278" lon="1.96845">
        <ele>130.044861</ele>
        <time>2016-05-08T16:16:39Z</time>
      </trkpt>
      <trkpt lat="48.71277" lon="1.96845">
        <ele>130.503296</ele>
        <time>2016-05-08T16:16:40Z</time>
      </trkpt>
      <trkpt lat="48.71277" lon="1.96846">
        <ele>130.617188</ele>
        <time>2016-05-08T16:16:41Z</time>
      </trkpt>
      <trkpt lat="48.71275" lon="1.96847">
        <ele>130.767334</ele>
        <time>2016-05-08T16:16:42Z</time>
      </trkpt>
      <trkpt lat="48.71273" lon="1.96847">
        <ele>130.813538</ele>
        <time>2016-05-08T16:16:43Z</time>
      </trkpt>
      <trkpt lat="48.71272" lon="1.96848">
        <ele>130.468933</ele>
        <time>2016-05-08T16:16:44Z</time>
      </trkpt>
      <trkpt lat="48.71271" lon="1.96848">
        <ele>130.387939</ele>
        <time>2016-05-08T16:16:45Z</time>
      </trkpt>
      <trkpt lat="48.7127" lon="1.96848">
        <ele>130.448364</ele>
        <time>2016-05-08T16:16:46Z</time>
      </trkpt>
      <trkpt lat="48.71269" lon="1.96848">
        <ele>130.467468</ele>
        <time>2016-05-08T16:16:47Z</time>
      </trkpt>
      <trkpt lat="48.71268" lon="1.96848">
        <ele>130.963196</ele>
        <time>2016-05-08T16:16:48Z</time>
      </trkpt>
      <trkpt lat="48.71267" lon="1.96848">
        <ele>131.332092</ele>
        <time>2016-05-08T16:16:49Z</time>
      </trkpt>
      <trkpt lat="48.71266" lon="1.96848">
        <ele>131.493042</ele>
        <time>2016-05-08T16:16:50Z</time>
      </trkpt>
      <trkpt lat="48.71266" lon="1.96848">
        <ele>132.251648</ele>
        <time>2016-05-08T16:16:51Z</time>
      </trkpt>
      <trkpt lat="48.71265" lon="1.96848">
        <ele>131.93457</ele>
        <time>2016-05-08T16:16:52Z</time>
      </trkpt>
      <trkpt lat="48.71264" lon="1.96848">
        <ele>131.469666</ele>
        <time>2016-05-08T16:16:53Z</time>
      </trkpt>
      <trkpt lat="48.71264" lon="1.96848">
        <ele>132.285522</ele>
        <time>2016-05-08T16:16:54Z</time>
      </trkpt>
      <trkpt lat="48.71263" lon="1.96847">
        <ele>131.940186</ele>
        <time>2016-05-08T16:16:55Z</time>
      </trkpt>
      <trkpt lat="48.71263" lon="1.96847">
        <ele>131.706848</ele>
        <time>2016-05-08T16:16:56Z</time>
      </trkpt>
      <trkpt lat="48.71263" lon="1.96845">
        <ele>132.597046</ele>
        <time>2016-05-08T16:16:57Z</time>
      </trkpt>
      <trkpt lat="48.71263" lon="1.96845">
        <ele>132.860229</ele>
        <time>2016-05-08T16:16:58Z</time>
      </trkpt>
      <trkpt lat="48.71263" lon="1.96844">
        <ele>132.947632</ele>
        <time>2016-05-08T16:16:59Z</time>
      </trkpt>
      <trkpt lat="48.71263" lon="1.96843">
        <ele>132.733032</ele>
        <time>2016-05-08T16:17:00Z</time>
      </trkpt>
      <trkpt lat="48.71263" lon="1.96842">
        <ele>132.440918</ele>
        <time>2016-05-08T16:17:01Z</time>
      </trkpt>
      <trkpt lat="48.71263" lon="1.96842">
        <ele>132.012085</ele>
        <time>2016-05-08T16:17:02Z</time>
      </trkpt>
      <trkpt lat="48.71263" lon="1.96842">
        <ele>131.562012</ele>
        <time>2016-05-08T16:17:03Z</time>
      </trkpt>
      <trkpt lat="48.71263" lon="1.96842">
        <ele>131.402649</ele>
        <time>2016-05-08T16:17:04Z</time>
      </trkpt>
      <trkpt lat="48.71264" lon="1.96837">
        <ele>131.653564</ele>
        <time>2016-05-08T16:17:05Z</time>
      </trkpt>
      <trkpt lat="48.71264" lon="1.96837">
        <ele>130.399658</ele>
        <time>2016-05-08T16:17:06Z</time>
      </trkpt>
      <trkpt lat="48.71266" lon="1.96833">
        <ele>131.182495</ele>
        <time>2016-05-08T16:17:07Z</time>
      </trkpt>
      <trkpt lat="48.71266" lon="1.96833">
        <ele>131.365234</ele>
        <time>2016-05-08T16:17:08Z</time>
      </trkpt>
      <trkpt lat="48.71266" lon="1.96833">
        <ele>131.381836</ele>
        <time>2016-05-08T16:17:09Z</time>
      </trkpt>
      <trkpt lat="48.7127" lon="1.96829">
        <ele>131.387512</ele>
        <time>2016-05-08T16:17:10Z</time>
      </trkpt>
      <trkpt lat="48.7127" lon="1.96829">
        <ele>131.3927</ele>
        <time>2016-05-08T16:17:11Z</time>
      </trkpt>
      <trkpt lat="48.7127" lon="1.96829">
        <ele>131.40332</ele>
        <time>2016-05-08T16:17:12Z</time>
      </trkpt>
      <trkpt lat="48.7127" lon="1.96829">
        <ele>131.411865</ele>
        <time>2016-05-08T16:17:13Z</time>
      </trkpt>
      <trkpt lat="48.7127" lon="1.96829">
        <ele>131.415039</ele>
        <time>2016-05-08T16:17:14Z</time>
      </trkpt>
      <trkpt lat="48.7127" lon="1.96829">
        <ele>131.646362</ele>
        <time>2016-05-08T16:17:15Z</time>
      </trkpt>
      <trkpt lat="48.7127" lon="1.96829">
        <ele>132.05658</ele>
        <time>2016-05-08T16:17:16Z</time>
      </trkpt>
      <trkpt lat="48.71271" lon="1.96826">
        <ele>132.201172</ele>
        <time>2016-05-08T16:17:17Z</time>
      </trkpt>
      <trkpt lat="48.71271" lon="1.96825">
        <ele>131.542358</ele>
        <time>2016-05-08T16:17:18Z</time>
      </trkpt>
      <trkpt lat="48.71271" lon="1.96825">
        <ele>131.705933</ele>
        <time>2016-05-08T16:17:19Z</time>
      </trkpt>
      <trkpt lat="48.71272" lon="1.96822">
        <ele>131.721069</ele>
        <time>2016-05-08T16:17:20Z</time>
      </trkpt>
      <trkpt lat="48.71272" lon="1.96822">
        <ele>131.110229</ele>
        <time>2016-05-08T16:17:21Z</time>
      </trkpt>
      <trkpt lat="48.71272" lon="1.96822">
        <ele>131.114319</ele>
        <time>2016-05-08T16:17:22Z</time>
      </trkpt>
      <trkpt lat="48.71272" lon="1.96822">
        <ele>131.112427</ele>
        <time>2016-05-08T16:17:23Z</time>
      </trkpt>
      <trkpt lat="48.71272" lon="1.96822">
        <ele>131.113586</ele>
        <time>2016-05-08T16:17:24Z</time>
      </trkpt>
      <trkpt lat="48.71272" lon="1.96822">
        <ele>131.111694</ele>
        <time>2016-05-08T16:17:25Z</time>
      </trkpt>
      <trkpt lat="48.71272" lon="1.96822">
        <ele>131.115845</ele>
        <time>2016-05-08T16:17:26Z</time>
      </trkpt>
      <trkpt lat="48.71272" lon="1.96822">
        <ele>131.11499</ele>
        <time>2016-05-08T16:17:27Z</time>
      </trkpt>
      <trkpt lat="48.71272" lon="1.96822">
        <ele>131.113281</ele>
        <time>2016-05-08T16:17:28Z</time>
      </trkpt>
      <trkpt lat="48.71272" lon="1.96822">
        <ele>131.116577</ele>
        <time>2016-05-08T16:17:29Z</time>
      </trkpt>
      <trkpt lat="48.71272" lon="1.96822">
        <ele>131.117249</ele>
        <time>2016-05-08T16:17:30Z</time>
      </trkpt>
      <trkpt lat="48.71272" lon="1.96822">
        <ele>131.109558</ele>
        <time>2016-05-08T16:17:31Z</time>
      </trkpt>
      <trkpt lat="48.71272" lon="1.96822">
        <ele>131.104492</ele>
        <time>2016-05-08T16:17:32Z</time>
      </trkpt>
      <trkpt lat="48.71272" lon="1.96822">
        <ele>131.102478</ele>
        <time>2016-05-08T16:17:33Z</time>
      </trkpt>
      <trkpt lat="48.71272" lon="1.96822">
        <ele>131.10553</ele>
        <time>2016-05-08T16:17:34Z</time>
      </trkpt>
      <trkpt lat="48.71272" lon="1.96822">
        <ele>131.106323</ele>
        <time>2016-05-08T16:17:35Z</time>
      </trkpt>
      <trkpt lat="48.71272" lon="1.96822">
        <ele>131.110107</ele>
        <time>2016-05-08T16:17:36Z</time>
      </trkpt>
      <trkpt lat="48.71272" lon="1.96822">
        <ele>131.713806</ele>
        <time>2016-05-08T16:17:37Z</time>
      </trkpt>
      <trkpt lat="48.71271" lon="1.96822">
        <ele>131.640198</ele>
        <time>2016-05-08T16:17:38Z</time>
      </trkpt>
      <trkpt lat="48.71272" lon="1.96823">
        <ele>131.532593</ele>
        <time>2016-05-08T16:17:39Z</time>
      </trkpt>
      <trkpt lat="48.71272" lon="1.96824">
        <ele>131.932068</ele>
        <time>2016-05-08T16:17:40Z</time>
      </trkpt>
      <trkpt lat="48.71272" lon="1.96824">
        <ele>133.17627</ele>
        <time>2016-05-08T16:17:41Z</time>
      </trkpt>
      <trkpt lat="48.71272" lon="1.96825">
        <ele>133.269958</ele>
        <time>2016-05-08T16:17:42Z</time>
      </trkpt>
      <trkpt lat="48.71272" lon="1.96825">
        <ele>132.864258</ele>
        <time>2016-05-08T16:17:43Z</time>
      </trkpt>
      <trkpt lat="48.71273" lon="1.96825">
        <ele>133.063782</ele>
        <time>2016-05-08T16:17:44Z</time>
      </trkpt>
      <trkpt lat="48.71273" lon="1.96826">
        <ele>132.921265</ele>
        <time>2016-05-08T16:17:45Z</time>
      </trkpt>
      <trkpt lat="48.71273" lon="1.96826">
        <ele>133.450806</ele>
        <time>2016-05-08T16:17:46Z</time>
      </trkpt>
      <trkpt lat="48.71274" lon="1.96826">
        <ele>133.591064</ele>
        <time>2016-05-08T16:17:47Z</time>
      </trkpt>
      <trkpt lat="48.71273" lon="1.96826">
        <ele>131.343872</ele>
        <time>2016-05-08T16:17:48Z</time>
      </trkpt>
      <trkpt lat="48.71273" lon="1.96826">
        <ele>132.220154</ele>
        <time>2016-05-08T16:17:49Z</time>
      </trkpt>
      <trkpt lat="48.71273" lon="1.96826">
        <ele>132.423096</ele>
        <time>2016-05-08T16:17:50Z</time>
      </trkpt>
      <trkpt lat="48.71273" lon="1.96826">
        <ele>131.816833</ele>
        <time>2016-05-08T16:17:51Z</time>
      </trkpt>
      <trkpt lat="48.71271" lon="1.96827">
        <ele>130.930237</ele>
        <time>2016-05-08T16:17:52Z</time>
      </trkpt>
      <trkpt lat="48.7127" lon="1.96828">
        <ele>131.11438</ele>
        <time>2016-05-08T16:17:53Z</time>
      </trkpt>
      <trkpt lat="48.71269" lon="1.96828">
        <ele>131.706177</ele>
        <time>2016-05-08T16:17:54Z</time>
      </trkpt>
      <trkpt lat="48.71268" lon="1.96827">
        <ele>131.750244</ele>
        <time>2016-05-08T16:17:55Z</time>
      </trkpt>
      <trkpt lat="48.71268" lon="1.96826">
        <ele>131.358887</ele>
        <time>2016-05-08T16:17:56Z</time>
      </trkpt>
      <trkpt lat="48.71267" lon="1.96825">
        <ele>130.437195</ele>
        <time>2016-05-08T16:17:57Z</time>
      </trkpt>
      <trkpt lat="48.71266" lon="1.96823">
        <ele>131.262207</ele>
        <time>2016-05-08T16:17:58Z</time>
      </trkpt>
      <trkpt lat="48.71266" lon="1.96822">
        <ele>130.62738</ele>
        <time>2016-05-08T16:17:59Z</time>
      </trkpt>
      <trkpt lat="48.71265" lon="1.96821">
        <ele>130.930237</ele>
        <time>2016-05-08T16:18:00Z</time>
      </trkpt>
      <trkpt lat="48.71265" lon="1.9682">
        <ele>131.827087</ele>
        <time>2016-05-08T16:18:01Z</time>
      </trkpt>
      <trkpt lat="48.71265" lon="1.96817">
        <ele>133.086975</ele>
        <time>2016-05-08T16:18:02Z</time>
      </trkpt>
      <trkpt lat="48.71264" lon="1.96814">
        <ele>132.670349</ele>
        <time>2016-05-08T16:18:03Z</time>
      </trkpt>
      <trkpt lat="48.71264" lon="1.96813">
        <ele>133.714478</ele>
        <time>2016-05-08T16:18:04Z</time>
      </trkpt>
      <trkpt lat="48.71263" lon="1.96811">
        <ele>134.311218</ele>
        <time>2016-05-08T16:18:05Z</time>
      </trkpt>
      <trkpt lat="48.71263" lon="1.9681">
        <ele>135.258911</ele>
        <time>2016-05-08T16:18:06Z</time>
      </trkpt>
      <trkpt lat="48.71261" lon="1.96809">
        <ele>136.134033</ele>
        <time>2016-05-08T16:18:07Z</time>
      </trkpt>
      <trkpt lat="48.71261" lon="1.96808">
        <ele>138.647461</ele>
        <time>2016-05-08T16:18:08Z</time>
      </trkpt>
      <trkpt lat="48.7126" lon="1.96806">
        <ele>137.860718</ele>
        <time>2016-05-08T16:18:09Z</time>
      </trkpt>
      <trkpt lat="48.7126" lon="1.96805">
        <ele>139.06604</ele>
        <time>2016-05-08T16:18:10Z</time>
      </trkpt>
      <trkpt lat="48.71259" lon="1.96804">
        <ele>139.623047</ele>
        <time>2016-05-08T16:18:11Z</time>
      </trkpt>
      <trkpt lat="48.71258" lon="1.96803">
        <ele>139.872681</ele>
        <time>2016-05-08T16:18:12Z</time>
      </trkpt>
      <trkpt lat="48.71258" lon="1.96802">
        <ele>140.581665</ele>
        <time>2016-05-08T16:18:13Z</time>
      </trkpt>
      <trkpt lat="48.71257" lon="1.96801">
        <ele>141.039062</ele>
        <time>2016-05-08T16:18:14Z</time>
      </trkpt>
      <trkpt lat="48.71256" lon="1.968">
        <ele>141.431335</ele>
        <time>2016-05-08T16:18:15Z</time>
      </trkpt>
      <trkpt lat="48.71255" lon="1.968">
        <ele>141.794556</ele>
        <time>2016-05-08T16:18:16Z</time>
      </trkpt>
      <trkpt lat="48.71255" lon="1.96799">
        <ele>141.874939</ele>
        <time>2016-05-08T16:18:17Z</time>
      </trkpt>
      <trkpt lat="48.71253" lon="1.96799">
        <ele>141.743774</ele>
        <time>2016-05-08T16:18:18Z</time>
      </trkpt>
      <trkpt lat="48.71253" lon="1.968">
        <ele>141.746521</ele>
        <time>2016-05-08T16:18:19Z</time>
      </trkpt>
      <trkpt lat="48.71252" lon="1.968">
        <ele>142.916016</ele>
        <time>2016-05-08T16:18:20Z</time>
      </trkpt>
      <trkpt lat="48.71251" lon="1.96799">
        <ele>143.05365</ele>
        <time>2016-05-08T16:18:21Z</time>
      </trkpt>
      <trkpt lat="48.71251" lon="1.96799">
        <ele>142.881409</ele>
        <time>2016-05-08T16:18:22Z</time>
      </trkpt>
      <trkpt lat="48.7125" lon="1.96799">
        <ele>143.273804</ele>
        <time>2016-05-08T16:18:23Z</time>
      </trkpt>
      <trkpt lat="48.71249" lon="1.96798">
        <ele>143.296387</ele>
        <time>2016-05-08T16:18:24Z</time>
      </trkpt>
      <trkpt lat="48.71249" lon="1.96798">
        <ele>144.272644</ele>
        <time>2016-05-08T16:18:25Z</time>
      </trkpt>
      <trkpt lat="48.71249" lon="1.96797">
        <ele>144.035156</ele>
        <time>2016-05-08T16:18:26Z</time>
      </trkpt>
      <trkpt lat="48.71249" lon="1.96797">
        <ele>143.484253</ele>
        <time>2016-05-08T16:18:27Z</time>
      </trkpt>
      <trkpt lat="48.71248" lon="1.96797">
        <ele>143.51178</ele>
        <time>2016-05-08T16:18:28Z</time>
      </trkpt>
      <trkpt lat="48.71248" lon="1.96796">
        <ele>143.404785</ele>
        <time>2016-05-08T16:18:29Z</time>
      </trkpt>
      <trkpt lat="48.71248" lon="1.96796">
        <ele>144.427063</ele>
        <time>2016-05-08T16:18:30Z</time>
      </trkpt>
      <trkpt lat="48.71247" lon="1.96796">
        <ele>144.791077</ele>
        <time>2016-05-08T16:18:31Z</time>
      </trkpt>
      <trkpt lat="48.71246" lon="1.96795">
        <ele>144.88269</ele>
        <time>2016-05-08T16:18:32Z</time>
      </trkpt>
      <trkpt lat="48.71245" lon="1.96795">
        <ele>145.814575</ele>
        <time>2016-05-08T16:18:33Z</time>
      </trkpt>
      <trkpt lat="48.71245" lon="1.96794">
        <ele>146.077209</ele>
        <time>2016-05-08T16:18:34Z</time>
      </trkpt>
      <trkpt lat="48.71244" lon="1.96794">
        <ele>146.255066</ele>
        <time>2016-05-08T16:18:35Z</time>
      </trkpt>
      <trkpt lat="48.71243" lon="1.96794">
        <ele>146.629028</ele>
        <time>2016-05-08T16:18:36Z</time>
      </trkpt>
      <trkpt lat="48.71242" lon="1.96794">
        <ele>147.075928</ele>
        <time>2016-05-08T16:18:37Z</time>
      </trkpt>
      <trkpt lat="48.71242" lon="1.96793">
        <ele>147.220581</ele>
        <time>2016-05-08T16:18:38Z</time>
      </trkpt>
      <trkpt lat="48.71242" lon="1.96793">
        <ele>147.009705</ele>
        <time>2016-05-08T16:18:39Z</time>
      </trkpt>
      <trkpt lat="48.7124" lon="1.96793">
        <ele>147.272339</ele>
        <time>2016-05-08T16:18:40Z</time>
      </trkpt>
      <trkpt lat="48.71239" lon="1.96793">
        <ele>147.953674</ele>
        <time>2016-05-08T16:18:41Z</time>
      </trkpt>
      <trkpt lat="48.71239" lon="1.96793">
        <ele>147.610474</ele>
        <time>2016-05-08T16:18:42Z</time>
      </trkpt>
      <trkpt lat="48.71238" lon="1.96793">
        <ele>147.51416</ele>
        <time>2016-05-08T16:18:43Z</time>
      </trkpt>
      <trkpt lat="48.71238" lon="1.96792">
        <ele>148.002319</ele>
        <time>2016-05-08T16:18:44Z</time>
      </trkpt>
      <trkpt lat="48.71238" lon="1.96792">
        <ele>148.065063</ele>
        <time>2016-05-08T16:18:45Z</time>
      </trkpt>
      <trkpt lat="48.71238" lon="1.96791">
        <ele>147.864502</ele>
        <time>2016-05-08T16:18:46Z</time>
      </trkpt>
      <trkpt lat="48.71237" lon="1.9679">
        <ele>148.384033</ele>
        <time>2016-05-08T16:18:47Z</time>
      </trkpt>
      <trkpt lat="48.71236" lon="1.9679">
        <ele>149.448853</ele>
        <time>2016-05-08T16:18:48Z</time>
      </trkpt>
      <trkpt lat="48.71235" lon="1.96789">
        <ele>150.537659</ele>
        <time>2016-05-08T16:18:49Z</time>
      </trkpt>
      <trkpt lat="48.71234" lon="1.96789">
        <ele>149.997681</ele>
        <time>2016-05-08T16:18:50Z</time>
      </trkpt>
      <trkpt lat="48.71232" lon="1.96789">
        <ele>150.471069</ele>
        <time>2016-05-08T16:18:51Z</time>
      </trkpt>
      <trkpt lat="48.71232" lon="1.96789">
        <ele>150.048584</ele>
        <time>2016-05-08T16:18:52Z</time>
      </trkpt>
      <trkpt lat="48.71231" lon="1.96788">
        <ele>150.990601</ele>
        <time>2016-05-08T16:18:53Z</time>
      </trkpt>
      <trkpt lat="48.7123" lon="1.96788">
        <ele>151.602295</ele>
        <time>2016-05-08T16:18:54Z</time>
      </trkpt>
      <trkpt lat="48.71229" lon="1.96787">
        <ele>151.567322</ele>
        <time>2016-05-08T16:18:55Z</time>
      </trkpt>
      <trkpt lat="48.71228" lon="1.96787">
        <ele>151.184509</ele>
        <time>2016-05-08T16:18:56Z</time>
      </trkpt>
      <trkpt lat="48.71227" lon="1.96787">
        <ele>151.069458</ele>
        <time>2016-05-08T16:18:57Z</time>
      </trkpt>
      <trkpt lat="48.71226" lon="1.96787">
        <ele>150.444763</ele>
        <time>2016-05-08T16:18:58Z</time>
      </trkpt>
      <trkpt lat="48.71226" lon="1.96786">
        <ele>150.12207</ele>
        <time>2016-05-08T16:18:59Z</time>
      </trkpt>
      <trkpt lat="48.71226" lon="1.96785">
        <ele>149.918518</ele>
        <time>2016-05-08T16:19:00Z</time>
      </trkpt>
      <trkpt lat="48.71225" lon="1.96784">
        <ele>150.506287</ele>
        <time>2016-05-08T16:19:01Z</time>
      </trkpt>
      <trkpt lat="48.71225" lon="1.96783">
        <ele>150.743713</ele>
        <time>2016-05-08T16:19:02Z</time>
      </trkpt>
      <trkpt lat="48.71225" lon="1.96782">
        <ele>150.801025</ele>
        <time>2016-05-08T16:19:03Z</time>
      </trkpt>
      <trkpt lat="48.71225" lon="1.96781">
        <ele>150.39679</ele>
        <time>2016-05-08T16:19:04Z</time>
      </trkpt>
      <trkpt lat="48.71225" lon="1.96781">
        <ele>150.608154</ele>
        <time>2016-05-08T16:19:05Z</time>
      </trkpt>
      <trkpt lat="48.71224" lon="1.96781">
        <ele>150.247681</ele>
        <time>2016-05-08T16:19:06Z</time>
      </trkpt>
      <trkpt lat="48.71224" lon="1.96781">
        <ele>149.900635</ele>
        <time>2016-05-08T16:19:07Z</time>
      </trkpt>
      <trkpt lat="48.71223" lon="1.9678">
        <ele>149.672607</ele>
        <time>2016-05-08T16:19:08Z</time>
      </trkpt>
      <trkpt lat="48.71223" lon="1.96779">
        <ele>149.98938</ele>
        <time>2016-05-08T16:19:09Z</time>
      </trkpt>
      <trkpt lat="48.71222" lon="1.96778">
        <ele>150.299194</ele>
        <time>2016-05-08T16:19:10Z</time>
      </trkpt>
      <trkpt lat="48.71221" lon="1.96777">
        <ele>150.020874</ele>
        <time>2016-05-08T16:19:11Z</time>
      </trkpt>
      <trkpt lat="48.7122" lon="1.96777">
        <ele>149.911865</ele>
        <time>2016-05-08T16:19:12Z</time>
      </trkpt>
      <trkpt lat="48.7122" lon="1.96777">
        <ele>150.092957</ele>
        <time>2016-05-08T16:19:13Z</time>
      </trkpt>
      <trkpt lat="48.71219" lon="1.96777">
        <ele>150.54541</ele>
        <time>2016-05-08T16:19:14Z</time>
      </trkpt>
      <trkpt lat="48.71217" lon="1.96777">
        <ele>151.660339</ele>
        <time>2016-05-08T16:19:15Z</time>
      </trkpt>
      <trkpt lat="48.71216" lon="1.96777">
        <ele>151.825439</ele>
        <time>2016-05-08T16:19:16Z</time>
      </trkpt>
      <trkpt lat="48.71215" lon="1.96777">
        <ele>152.293091</ele>
        <time>2016-05-08T16:19:17Z</time>
      </trkpt>
      <trkpt lat="48.71214" lon="1.96776">
        <ele>152.699341</ele>
        <time>2016-05-08T16:19:18Z</time>
      </trkpt>
      <trkpt lat="48.71213" lon="1.96776">
        <ele>152.768311</ele>
        <time>2016-05-08T16:19:19Z</time>
      </trkpt>
      <trkpt lat="48.71212" lon="1.96776">
        <ele>152.72644</ele>
        <time>2016-05-08T16:19:20Z</time>
      </trkpt>
      <trkpt lat="48.71211" lon="1.96776">
        <ele>152.559692</ele>
        <time>2016-05-08T16:19:21Z</time>
      </trkpt>
      <trkpt lat="48.71209" lon="1.96776">
        <ele>152.337524</ele>
        <time>2016-05-08T16:19:22Z</time>
      </trkpt>
      <trkpt lat="48.71208" lon="1.96776">
        <ele>152.483887</ele>
        <time>2016-05-08T16:19:23Z</time>
      </trkpt>
      <trkpt lat="48.71208" lon="1.96776">
        <ele>152.649292</ele>
        <time>2016-05-08T16:19:24Z</time>
      </trkpt>
      <trkpt lat="48.71207" lon="1.96775">
        <ele>151.925293</ele>
        <time>2016-05-08T16:19:25Z</time>
      </trkpt>
      <trkpt lat="48.71206" lon="1.96774">
        <ele>151.472778</ele>
        <time>2016-05-08T16:19:26Z</time>
      </trkpt>
      <trkpt lat="48.71205" lon="1.96773">
        <ele>151.751099</ele>
        <time>2016-05-08T16:19:27Z</time>
      </trkpt>
      <trkpt lat="48.71204" lon="1.96772">
        <ele>152.211792</ele>
        <time>2016-05-08T16:19:28Z</time>
      </trkpt>
      <trkpt lat="48.71203" lon="1.96771">
        <ele>152.751709</ele>
        <time>2016-05-08T16:19:29Z</time>
      </trkpt>
      <trkpt lat="48.71202" lon="1.9677">
        <ele>152.57135</ele>
        <time>2016-05-08T16:19:30Z</time>
      </trkpt>
      <trkpt lat="48.71201" lon="1.96769">
        <ele>152.343018</ele>
        <time>2016-05-08T16:19:31Z</time>
      </trkpt>
      <trkpt lat="48.712" lon="1.96769">
        <ele>152.150513</ele>
        <time>2016-05-08T16:19:32Z</time>
      </trkpt>
      <trkpt lat="48.71199" lon="1.96769">
        <ele>152.600891</ele>
        <time>2016-05-08T16:19:33Z</time>
      </trkpt>
      <trkpt lat="48.71198" lon="1.96768">
        <ele>152.541748</ele>
        <time>2016-05-08T16:19:34Z</time>
      </trkpt>
      <trkpt lat="48.71197" lon="1.96768">
        <ele>152.530273</ele>
        <time>2016-05-08T16:19:35Z</time>
      </trkpt>
      <trkpt lat="48.71195" lon="1.96768">
        <ele>152.739807</ele>
        <time>2016-05-08T16:19:36Z</time>
      </trkpt>
      <trkpt lat="48.71194" lon="1.96768">
        <ele>152.505371</ele>
        <time>2016-05-08T16:19:37Z</time>
      </trkpt>
      <trkpt lat="48.71193" lon="1.96768">
        <ele>152.387268</ele>
        <time>2016-05-08T16:19:38Z</time>
      </trkpt>
      <trkpt lat="48.71193" lon="1.96767">
        <ele>151.958618</ele>
        <time>2016-05-08T16:19:39Z</time>
      </trkpt>
      <trkpt lat="48.71192" lon="1.96767">
        <ele>151.857666</ele>
        <time>2016-05-08T16:19:40Z</time>
      </trkpt>
      <trkpt lat="48.71191" lon="1.96769">
        <ele>151.634338</ele>
        <time>2016-05-08T16:19:41Z</time>
      </trkpt>
      <trkpt lat="48.7119" lon="1.9677">
        <ele>151.289673</ele>
        <time>2016-05-08T16:19:42Z</time>
      </trkpt>
      <trkpt lat="48.7119" lon="1.9677">
        <ele>151.296509</ele>
        <time>2016-05-08T16:19:43Z</time>
      </trkpt>
      <trkpt lat="48.71189" lon="1.96771">
        <ele>151.723206</ele>
        <time>2016-05-08T16:19:44Z</time>
      </trkpt>
      <trkpt lat="48.71188" lon="1.96772">
        <ele>151.819397</ele>
        <time>2016-05-08T16:19:45Z</time>
      </trkpt>
      <trkpt lat="48.71188" lon="1.96772">
        <ele>152.69043</ele>
        <time>2016-05-08T16:19:46Z</time>
      </trkpt>
      <trkpt lat="48.71187" lon="1.96772">
        <ele>152.566528</ele>
        <time>2016-05-08T16:19:47Z</time>
      </trkpt>
      <trkpt lat="48.71186" lon="1.96773">
        <ele>152.044495</ele>
        <time>2016-05-08T16:19:48Z</time>
      </trkpt>
      <trkpt lat="48.71185" lon="1.96773">
        <ele>152.920715</ele>
        <time>2016-05-08T16:19:49Z</time>
      </trkpt>
      <trkpt lat="48.71184" lon="1.96773">
        <ele>151.453979</ele>
        <time>2016-05-08T16:19:50Z</time>
      </trkpt>
      <trkpt lat="48.71183" lon="1.96773">
        <ele>151.880493</ele>
        <time>2016-05-08T16:19:51Z</time>
      </trkpt>
      <trkpt lat="48.71183" lon="1.96773">
        <ele>153.169312</ele>
        <time>2016-05-08T16:19:52Z</time>
      </trkpt>
      <trkpt lat="48.71182" lon="1.96773">
        <ele>153.819885</ele>
        <time>2016-05-08T16:19:53Z</time>
      </trkpt>
      <trkpt lat="48.71182" lon="1.96773">
        <ele>153.631409</ele>
        <time>2016-05-08T16:19:54Z</time>
      </trkpt>
      <trkpt lat="48.71182" lon="1.96773">
        <ele>153.793823</ele>
        <time>2016-05-08T16:19:55Z</time>
      </trkpt>
      <trkpt lat="48.71181" lon="1.96773">
        <ele>153.533508</ele>
        <time>2016-05-08T16:19:56Z</time>
      </trkpt>
      <trkpt lat="48.7118" lon="1.96774">
        <ele>153.664551</ele>
        <time>2016-05-08T16:19:57Z</time>
      </trkpt>
      <trkpt lat="48.71179" lon="1.96775">
        <ele>153.713318</ele>
        <time>2016-05-08T16:19:58Z</time>
      </trkpt>
      <trkpt lat="48.71178" lon="1.96775">
        <ele>153.132019</ele>
        <time>2016-05-08T16:19:59Z</time>
      </trkpt>
      <trkpt lat="48.7118" lon="1.96775">
        <ele>152.64209</ele>
        <time>2016-05-08T16:20:00Z</time>
      </trkpt>
      <trkpt lat="48.7118" lon="1.96775">
        <ele>152.757812</ele>
        <time>2016-05-08T16:20:01Z</time>
      </trkpt>
      <trkpt lat="48.7118" lon="1.96775">
        <ele>153.632751</ele>
        <time>2016-05-08T16:20:02Z</time>
      </trkpt>
      <trkpt lat="48.7118" lon="1.96775">
        <ele>153.646912</ele>
        <time>2016-05-08T16:20:03Z</time>
      </trkpt>
      <trkpt lat="48.71183" lon="1.96776">
        <ele>154.031921</ele>
        <time>2016-05-08T16:20:04Z</time>
      </trkpt>
      <trkpt lat="48.71183" lon="1.96776">
        <ele>154.649414</ele>
        <time>2016-05-08T16:20:05Z</time>
      </trkpt>
      <trkpt lat="48.71183" lon="1.96776">
        <ele>154.551819</ele>
        <time>2016-05-08T16:20:06Z</time>
      </trkpt>
      <trkpt lat="48.71182" lon="1.96776">
        <ele>154.208374</ele>
        <time>2016-05-08T16:20:07Z</time>
      </trkpt>
      <trkpt lat="48.71181" lon="1.96776">
        <ele>154.308228</ele>
        <time>2016-05-08T16:20:08Z</time>
      </trkpt>
      <trkpt lat="48.71181" lon="1.96775">
        <ele>154.415405</ele>
        <time>2016-05-08T16:20:09Z</time>
      </trkpt>
      <trkpt lat="48.7118" lon="1.96775">
        <ele>155.626221</ele>
        <time>2016-05-08T16:20:10Z</time>
      </trkpt>
      <trkpt lat="48.7118" lon="1.96775">
        <ele>154.580872</ele>
        <time>2016-05-08T16:20:11Z</time>
      </trkpt>
      <trkpt lat="48.71179" lon="1.96774">
        <ele>155.161377</ele>
        <time>2016-05-08T16:20:12Z</time>
      </trkpt>
      <trkpt lat="48.71178" lon="1.96774">
        <ele>155.770264</ele>
        <time>2016-05-08T16:20:13Z</time>
      </trkpt>
      <trkpt lat="48.71176" lon="1.96774">
        <ele>155.467468</ele>
        <time>2016-05-08T16:20:14Z</time>
      </trkpt>
      <trkpt lat="48.71176" lon="1.96774">
        <ele>154.608521</ele>
        <time>2016-05-08T16:20:15Z</time>
      </trkpt>
      <trkpt lat="48.71175" lon="1.96773">
        <ele>153.651184</ele>
        <time>2016-05-08T16:20:16Z</time>
      </trkpt>
      <trkpt lat="48.71173" lon="1.96773">
        <ele>153.352417</ele>
        <time>2016-05-08T16:20:17Z</time>
      </trkpt>
      <trkpt lat="48.71172" lon="1.96773">
        <ele>153.782104</ele>
        <time>2016-05-08T16:20:18Z</time>
      </trkpt>
      <trkpt lat="48.7117" lon="1.96774">
        <ele>154.343872</ele>
        <time>2016-05-08T16:20:19Z</time>
      </trkpt>
      <trkpt lat="48.71169" lon="1.96774">
        <ele>155.062744</ele>
        <time>2016-05-08T16:20:20Z</time>
      </trkpt>
      <trkpt lat="48.71168" lon="1.96775">
        <ele>155.232056</ele>
        <time>2016-05-08T16:20:21Z</time>
      </trkpt>
      <trkpt lat="48.71168" lon="1.96775">
        <ele>154.057007</ele>
        <time>2016-05-08T16:20:22Z</time>
      </trkpt>
      <trkpt lat="48.71167" lon="1.96774">
        <ele>152.61499</ele>
        <time>2016-05-08T16:20:23Z</time>
      </trkpt>
      <trkpt lat="48.71167" lon="1.96774">
        <ele>151.421387</ele>
        <time>2016-05-08T16:20:24Z</time>
      </trkpt>
      <trkpt lat="48.71167" lon="1.96774">
        <ele>151.354065</ele>
        <time>2016-05-08T16:20:25Z</time>
      </trkpt>
      <trkpt lat="48.71166" lon="1.96774">
        <ele>151.490845</ele>
        <time>2016-05-08T16:20:26Z</time>
      </trkpt>
      <trkpt lat="48.71165" lon="1.96774">
        <ele>150.411682</ele>
        <time>2016-05-08T16:20:27Z</time>
      </trkpt>
      <trkpt lat="48.71164" lon="1.96774">
        <ele>149.15979</ele>
        <time>2016-05-08T16:20:28Z</time>
      </trkpt>
      <trkpt lat="48.71163" lon="1.96774">
        <ele>149.360107</ele>
        <time>2016-05-08T16:20:29Z</time>
      </trkpt>
      <trkpt lat="48.71163" lon="1.96774">
        <ele>149.319763</ele>
        <time>2016-05-08T16:20:30Z</time>
      </trkpt>
      <trkpt lat="48.71161" lon="1.96775">
        <ele>149.54425</ele>
        <time>2016-05-08T16:20:31Z</time>
      </trkpt>
      <trkpt lat="48.7116" lon="1.96775">
        <ele>148.902893</ele>
        <time>2016-05-08T16:20:32Z</time>
      </trkpt>
      <trkpt lat="48.71158" lon="1.96775">
        <ele>148.903137</ele>
        <time>2016-05-08T16:20:33Z</time>
      </trkpt>
      <trkpt lat="48.71157" lon="1.96776">
        <ele>149.342224</ele>
        <time>2016-05-08T16:20:34Z</time>
      </trkpt>
      <trkpt lat="48.71156" lon="1.96775">
        <ele>149.369629</ele>
        <time>2016-05-08T16:20:35Z</time>
      </trkpt>
      <trkpt lat="48.71154" lon="1.96775">
        <ele>149.317871</ele>
        <time>2016-05-08T16:20:36Z</time>
      </trkpt>
      <trkpt lat="48.71153" lon="1.96775">
        <ele>149.462891</ele>
        <time>2016-05-08T16:20:37Z</time>
      </trkpt>
      <trkpt lat="48.71153" lon="1.96776">
        <ele>149.609253</ele>
        <time>2016-05-08T16:20:38Z</time>
      </trkpt>
      <trkpt lat="48.71153" lon="1.96776">
        <ele>149.554138</ele>
        <time>2016-05-08T16:20:39Z</time>
      </trkpt>
      <trkpt lat="48.71152" lon="1.96776">
        <ele>150.069336</ele>
        <time>2016-05-08T16:20:40Z</time>
      </trkpt>
      <trkpt lat="48.71152" lon="1.96775">
        <ele>150.59729</ele>
        <time>2016-05-08T16:20:41Z</time>
      </trkpt>
      <trkpt lat="48.71151" lon="1.96774">
        <ele>151.260315</ele>
        <time>2016-05-08T16:20:42Z</time>
      </trkpt>
      <trkpt lat="48.7115" lon="1.96774">
        <ele>150.788513</ele>
        <time>2016-05-08T16:20:43Z</time>
      </trkpt>
      <trkpt lat="48.71149" lon="1.96774">
        <ele>151.271973</ele>
        <time>2016-05-08T16:20:44Z</time>
      </trkpt>
      <trkpt lat="48.71148" lon="1.96775">
        <ele>151.749939</ele>
        <time>2016-05-08T16:20:45Z</time>
      </trkpt>
      <trkpt lat="48.71146" lon="1.96775">
        <ele>151.736023</ele>
        <time>2016-05-08T16:20:46Z</time>
      </trkpt>
      <trkpt lat="48.71144" lon="1.96776">
        <ele>151.978149</ele>
        <time>2016-05-08T16:20:47Z</time>
      </trkpt>
      <trkpt lat="48.71143" lon="1.96777">
        <ele>151.998108</ele>
        <time>2016-05-08T16:20:48Z</time>
      </trkpt>
      <trkpt lat="48.71142" lon="1.96778">
        <ele>152.328552</ele>
        <time>2016-05-08T16:20:49Z</time>
      </trkpt>
      <trkpt lat="48.71141" lon="1.96779">
        <ele>152.811707</ele>
        <time>2016-05-08T16:20:50Z</time>
      </trkpt>
      <trkpt lat="48.7114" lon="1.9678">
        <ele>152.516235</ele>
        <time>2016-05-08T16:20:51Z</time>
      </trkpt>
      <trkpt lat="48.71139" lon="1.9678">
        <ele>152.661011</ele>
        <time>2016-05-08T16:20:52Z</time>
      </trkpt>
      <trkpt lat="48.71139" lon="1.96779">
        <ele>152.780029</ele>
        <time>2016-05-08T16:20:53Z</time>
      </trkpt>
      <trkpt lat="48.71138" lon="1.96779">
        <ele>152.444641</ele>
        <time>2016-05-08T16:20:54Z</time>
      </trkpt>
      <trkpt lat="48.71138" lon="1.96779">
        <ele>152.128052</ele>
        <time>2016-05-08T16:20:55Z</time>
      </trkpt>
      <trkpt lat="48.71137" lon="1.96779">
        <ele>152.112549</ele>
        <time>2016-05-08T16:20:56Z</time>
      </trkpt>
      <trkpt lat="48.71136" lon="1.96779">
        <ele>152.564758</ele>
        <time>2016-05-08T16:20:57Z</time>
      </trkpt>
      <trkpt lat="48.71135" lon="1.96779">
        <ele>152.696045</ele>
        <time>2016-05-08T16:20:58Z</time>
      </trkpt>
      <trkpt lat="48.71134" lon="1.96779">
        <ele>152.376038</ele>
        <time>2016-05-08T16:20:59Z</time>
      </trkpt>
      <trkpt lat="48.71133" lon="1.96779">
        <ele>151.602539</ele>
        <time>2016-05-08T16:21:00Z</time>
      </trkpt>
      <trkpt lat="48.71132" lon="1.96779">
        <ele>151.576477</ele>
        <time>2016-05-08T16:21:01Z</time>
      </trkpt>
      <trkpt lat="48.71131" lon="1.96779">
        <ele>151.44397</ele>
        <time>2016-05-08T16:21:02Z</time>
      </trkpt>
      <trkpt lat="48.7113" lon="1.96779">
        <ele>150.546692</ele>
        <time>2016-05-08T16:21:03Z</time>
      </trkpt>
      <trkpt lat="48.71129" lon="1.96779">
        <ele>150.912231</ele>
        <time>2016-05-08T16:21:04Z</time>
      </trkpt>
      <trkpt lat="48.71128" lon="1.9678">
        <ele>150.812317</ele>
        <time>2016-05-08T16:21:05Z</time>
      </trkpt>
      <trkpt lat="48.71127" lon="1.9678">
        <ele>151.220703</ele>
        <time>2016-05-08T16:21:06Z</time>
      </trkpt>
      <trkpt lat="48.71126" lon="1.9678">
        <ele>151.462219</ele>
        <time>2016-05-08T16:21:07Z</time>
      </trkpt>
      <trkpt lat="48.71125" lon="1.9678">
        <ele>151.414185</ele>
        <time>2016-05-08T16:21:08Z</time>
      </trkpt>
      <trkpt lat="48.71124" lon="1.96781">
        <ele>151.831543</ele>
        <time>2016-05-08T16:21:09Z</time>
      </trkpt>
      <trkpt lat="48.71124" lon="1.96781">
        <ele>151.652466</ele>
        <time>2016-05-08T16:21:10Z</time>
      </trkpt>
      <trkpt lat="48.71123" lon="1.9678">
        <ele>150.92395</ele>
        <time>2016-05-08T16:21:11Z</time>
      </trkpt>
      <trkpt lat="48.71121" lon="1.96781">
        <ele>150.464417</ele>
        <time>2016-05-08T16:21:12Z</time>
      </trkpt>
      <trkpt lat="48.7112" lon="1.9678">
        <ele>150.25708</ele>
        <time>2016-05-08T16:21:13Z</time>
      </trkpt>
      <trkpt lat="48.71119" lon="1.9678">
        <ele>149.724792</ele>
        <time>2016-05-08T16:21:14Z</time>
      </trkpt>
      <trkpt lat="48.71118" lon="1.9678">
        <ele>149.676575</ele>
        <time>2016-05-08T16:21:15Z</time>
      </trkpt>
      <trkpt lat="48.71117" lon="1.9678">
        <ele>148.232788</ele>
        <time>2016-05-08T16:21:16Z</time>
      </trkpt>
      <trkpt lat="48.71116" lon="1.96779">
        <ele>148.017212</ele>
        <time>2016-05-08T16:21:17Z</time>
      </trkpt>
      <trkpt lat="48.71115" lon="1.96779">
        <ele>147.339661</ele>
        <time>2016-05-08T16:21:18Z</time>
      </trkpt>
      <trkpt lat="48.71114" lon="1.9678">
        <ele>146.630249</ele>
        <time>2016-05-08T16:21:19Z</time>
      </trkpt>
      <trkpt lat="48.71114" lon="1.9678">
        <ele>146.190796</ele>
        <time>2016-05-08T16:21:20Z</time>
      </trkpt>
      <trkpt lat="48.71113" lon="1.9678">
        <ele>146.500122</ele>
        <time>2016-05-08T16:21:21Z</time>
      </trkpt>
      <trkpt lat="48.71113" lon="1.9678">
        <ele>146.347656</ele>
        <time>2016-05-08T16:21:22Z</time>
      </trkpt>
      <trkpt lat="48.71112" lon="1.9678">
        <ele>146.399475</ele>
        <time>2016-05-08T16:21:23Z</time>
      </trkpt>
      <trkpt lat="48.71111" lon="1.9678">
        <ele>146.511353</ele>
        <time>2016-05-08T16:21:24Z</time>
      </trkpt>
      <trkpt lat="48.71111" lon="1.9678">
        <ele>146.166138</ele>
        <time>2016-05-08T16:21:25Z</time>
      </trkpt>
      <trkpt lat="48.7111" lon="1.9678">
        <ele>146.080322</ele>
        <time>2016-05-08T16:21:26Z</time>
      </trkpt>
      <trkpt lat="48.7111" lon="1.9678">
        <ele>146.121521</ele>
        <time>2016-05-08T16:21:27Z</time>
      </trkpt>
      <trkpt lat="48.71109" lon="1.96781">
        <ele>145.326477</ele>
        <time>2016-05-08T16:21:28Z</time>
      </trkpt>
      <trkpt lat="48.71108" lon="1.96781">
        <ele>144.955627</ele>
        <time>2016-05-08T16:21:29Z</time>
      </trkpt>
      <trkpt lat="48.71108" lon="1.96781">
        <ele>144.75824</ele>
        <time>2016-05-08T16:21:30Z</time>
      </trkpt>
      <trkpt lat="48.71106" lon="1.96782">
        <ele>144.027405</ele>
        <time>2016-05-08T16:21:31Z</time>
      </trkpt>
      <trkpt lat="48.71105" lon="1.96782">
        <ele>144.337585</ele>
        <time>2016-05-08T16:21:32Z</time>
      </trkpt>
      <trkpt lat="48.71104" lon="1.96782">
        <ele>144.374268</ele>
        <time>2016-05-08T16:21:33Z</time>
      </trkpt>
      <trkpt lat="48.71103" lon="1.96782">
        <ele>145.081848</ele>
        <time>2016-05-08T16:21:34Z</time>
      </trkpt>
      <trkpt lat="48.71102" lon="1.96782">
        <ele>144.881653</ele>
        <time>2016-05-08T16:21:35Z</time>
      </trkpt>
      <trkpt lat="48.71101" lon="1.96782">
        <ele>144.246216</ele>
        <time>2016-05-08T16:21:36Z</time>
      </trkpt>
      <trkpt lat="48.711" lon="1.96781">
        <ele>144.360107</ele>
        <time>2016-05-08T16:21:37Z</time>
      </trkpt>
      <trkpt lat="48.711" lon="1.96781">
        <ele>144.942383</ele>
        <time>2016-05-08T16:21:38Z</time>
      </trkpt>
      <trkpt lat="48.71099" lon="1.9678">
        <ele>144.357178</ele>
        <time>2016-05-08T16:21:39Z</time>
      </trkpt>
      <trkpt lat="48.71099" lon="1.9678">
        <ele>143.84198</ele>
        <time>2016-05-08T16:21:40Z</time>
      </trkpt>
      <trkpt lat="48.71099" lon="1.96781">
        <ele>143.990051</ele>
        <time>2016-05-08T16:21:41Z</time>
      </trkpt>
      <trkpt lat="48.71098" lon="1.96781">
        <ele>144.106689</ele>
        <time>2016-05-08T16:21:42Z</time>
      </trkpt>
      <trkpt lat="48.71097" lon="1.96781">
        <ele>144.366333</ele>
        <time>2016-05-08T16:21:43Z</time>
      </trkpt>
      <trkpt lat="48.71096" lon="1.96782">
        <ele>144.831177</ele>
        <time>2016-05-08T16:21:44Z</time>
      </trkpt>
      <trkpt lat="48.71095" lon="1.96782">
        <ele>145.199585</ele>
        <time>2016-05-08T16:21:45Z</time>
      </trkpt>
      <trkpt lat="48.71094" lon="1.96781">
        <ele>145.084106</ele>
        <time>2016-05-08T16:21:46Z</time>
      </trkpt>
      <trkpt lat="48.71093" lon="1.96781">
        <ele>145.743103</ele>
        <time>2016-05-08T16:21:47Z</time>
      </trkpt>
      <trkpt lat="48.71092" lon="1.96781">
        <ele>145.876892</ele>
        <time>2016-05-08T16:21:48Z</time>
      </trkpt>
      <trkpt lat="48.71091" lon="1.96781">
        <ele>145.860474</ele>
        <time>2016-05-08T16:21:49Z</time>
      </trkpt>
      <trkpt lat="48.7109" lon="1.96781">
        <ele>146.882385</ele>
        <time>2016-05-08T16:21:50Z</time>
      </trkpt>
      <trkpt lat="48.71089" lon="1.96781">
        <ele>146.794617</ele>
        <time>2016-05-08T16:21:51Z</time>
      </trkpt>
      <trkpt lat="48.71088" lon="1.96781">
        <ele>147.589478</ele>
        <time>2016-05-08T16:21:52Z</time>
      </trkpt>
      <trkpt lat="48.71086" lon="1.96781">
        <ele>147.611572</ele>
        <time>2016-05-08T16:21:53Z</time>
      </trkpt>
      <trkpt lat="48.71085" lon="1.96781">
        <ele>147.60791</ele>
        <time>2016-05-08T16:21:54Z</time>
      </trkpt>
      <trkpt lat="48.71084" lon="1.96781">
        <ele>148.018799</ele>
        <time>2016-05-08T16:21:55Z</time>
      </trkpt>
      <trkpt lat="48.71083" lon="1.96782">
        <ele>147.745972</ele>
        <time>2016-05-08T16:21:56Z</time>
      </trkpt>
      <trkpt lat="48.71083" lon="1.96782">
        <ele>147.131226</ele>
        <time>2016-05-08T16:21:57Z</time>
      </trkpt>
      <trkpt lat="48.71082" lon="1.96781">
        <ele>147.474304</ele>
        <time>2016-05-08T16:21:58Z</time>
      </trkpt>
      <trkpt lat="48.71081" lon="1.96781">
        <ele>147.680542</ele>
        <time>2016-05-08T16:21:59Z</time>
      </trkpt>
      <trkpt lat="48.71081" lon="1.96781">
        <ele>147.904175</ele>
        <time>2016-05-08T16:22:00Z</time>
      </trkpt>
      <trkpt lat="48.7108" lon="1.96781">
        <ele>147.57019</ele>
        <time>2016-05-08T16:22:01Z</time>
      </trkpt>
      <trkpt lat="48.7108" lon="1.96782">
        <ele>147.593506</ele>
        <time>2016-05-08T16:22:02Z</time>
      </trkpt>
      <trkpt lat="48.7108" lon="1.96782">
        <ele>147.930603</ele>
        <time>2016-05-08T16:22:03Z</time>
      </trkpt>
      <trkpt lat="48.71079" lon="1.96783">
        <ele>147.161499</ele>
        <time>2016-05-08T16:22:04Z</time>
      </trkpt>
      <trkpt lat="48.71078" lon="1.96783">
        <ele>147.259033</ele>
        <time>2016-05-08T16:22:05Z</time>
      </trkpt>
      <trkpt lat="48.71077" lon="1.96783">
        <ele>146.647217</ele>
        <time>2016-05-08T16:22:06Z</time>
      </trkpt>
      <trkpt lat="48.71076" lon="1.96784">
        <ele>146.082886</ele>
        <time>2016-05-08T16:22:07Z</time>
      </trkpt>
      <trkpt lat="48.71076" lon="1.96783">
        <ele>145.834961</ele>
        <time>2016-05-08T16:22:08Z</time>
      </trkpt>
      <trkpt lat="48.71075" lon="1.96783">
        <ele>145.662476</ele>
        <time>2016-05-08T16:22:09Z</time>
      </trkpt>
      <trkpt lat="48.71074" lon="1.96783">
        <ele>146.120544</ele>
        <time>2016-05-08T16:22:10Z</time>
      </trkpt>
      <trkpt lat="48.71073" lon="1.96783">
        <ele>146.705994</ele>
        <time>2016-05-08T16:22:11Z</time>
      </trkpt>
      <trkpt lat="48.71071" lon="1.96784">
        <ele>146.985352</ele>
        <time>2016-05-08T16:22:12Z</time>
      </trkpt>
      <trkpt lat="48.7107" lon="1.96784">
        <ele>145.696167</ele>
        <time>2016-05-08T16:22:13Z</time>
      </trkpt>
      <trkpt lat="48.71069" lon="1.96784">
        <ele>145.541687</ele>
        <time>2016-05-08T16:22:14Z</time>
      </trkpt>
      <trkpt lat="48.71068" lon="1.96784">
        <ele>146.027832</ele>
        <time>2016-05-08T16:22:15Z</time>
      </trkpt>
      <trkpt lat="48.71067" lon="1.96784">
        <ele>146.463135</ele>
        <time>2016-05-08T16:22:16Z</time>
      </trkpt>
      <trkpt lat="48.71066" lon="1.96785">
        <ele>146.454102</ele>
        <time>2016-05-08T16:22:17Z</time>
      </trkpt>
      <trkpt lat="48.71064" lon="1.96786">
        <ele>146.752502</ele>
        <time>2016-05-08T16:22:18Z</time>
      </trkpt>
      <trkpt lat="48.71063" lon="1.96787">
        <ele>146.484985</ele>
        <time>2016-05-08T16:22:19Z</time>
      </trkpt>
      <trkpt lat="48.71062" lon="1.96788">
        <ele>146.140503</ele>
        <time>2016-05-08T16:22:20Z</time>
      </trkpt>
      <trkpt lat="48.71061" lon="1.9679">
        <ele>146.533325</ele>
        <time>2016-05-08T16:22:21Z</time>
      </trkpt>
      <trkpt lat="48.7106" lon="1.9679">
        <ele>147.420044</ele>
        <time>2016-05-08T16:22:22Z</time>
      </trkpt>
      <trkpt lat="48.71059" lon="1.96791">
        <ele>147.514832</ele>
        <time>2016-05-08T16:22:23Z</time>
      </trkpt>
      <trkpt lat="48.71058" lon="1.96792">
        <ele>147.572693</ele>
        <time>2016-05-08T16:22:24Z</time>
      </trkpt>
      <trkpt lat="48.71057" lon="1.96793">
        <ele>147.297302</ele>
        <time>2016-05-08T16:22:25Z</time>
      </trkpt>
      <trkpt lat="48.71057" lon="1.96794">
        <ele>147.219604</ele>
        <time>2016-05-08T16:22:26Z</time>
      </trkpt>
      <trkpt lat="48.71057" lon="1.96793">
        <ele>147.297119</ele>
        <time>2016-05-08T16:22:27Z</time>
      </trkpt>
      <trkpt lat="48.71057" lon="1.96793">
        <ele>147.884827</ele>
        <time>2016-05-08T16:22:28Z</time>
      </trkpt>
      <trkpt lat="48.71057" lon="1.96793">
        <ele>148.485107</ele>
        <time>2016-05-08T16:22:29Z</time>
      </trkpt>
      <trkpt lat="48.71057" lon="1.96793">
        <ele>148.57373</ele>
        <time>2016-05-08T16:22:30Z</time>
      </trkpt>
      <trkpt lat="48.71057" lon="1.96792">
        <ele>148.714783</ele>
        <time>2016-05-08T16:22:31Z</time>
      </trkpt>
      <trkpt lat="48.71056" lon="1.96792">
        <ele>149.280457</ele>
        <time>2016-05-08T16:22:32Z</time>
      </trkpt>
      <trkpt lat="48.71056" lon="1.96792">
        <ele>148.624878</ele>
        <time>2016-05-08T16:22:33Z</time>
      </trkpt>
      <trkpt lat="48.71056" lon="1.96792">
        <ele>148.859558</ele>
        <time>2016-05-08T16:22:34Z</time>
      </trkpt>
      <trkpt lat="48.71056" lon="1.96792">
        <ele>148.680664</ele>
        <time>2016-05-08T16:22:35Z</time>
      </trkpt>
      <trkpt lat="48.71056" lon="1.96792">
        <ele>148.687744</ele>
        <time>2016-05-08T16:22:36Z</time>
      </trkpt>
      <trkpt lat="48.71056" lon="1.96792">
        <ele>148.688599</ele>
        <time>2016-05-08T16:22:37Z</time>
      </trkpt>
      <trkpt lat="48.71056" lon="1.96792">
        <ele>148.689941</ele>
        <time>2016-05-08T16:22:38Z</time>
      </trkpt>
      <trkpt lat="48.71056" lon="1.96792">
        <ele>148.687683</ele>
        <time>2016-05-08T16:22:39Z</time>
      </trkpt>
      <trkpt lat="48.71056" lon="1.96792">
        <ele>148.688782</ele>
        <time>2016-05-08T16:22:40Z</time>
      </trkpt>
      <trkpt lat="48.71056" lon="1.96792">
        <ele>148.686584</ele>
        <time>2016-05-08T16:22:41Z</time>
      </trkpt>
      <trkpt lat="48.71056" lon="1.96792">
        <ele>148.687622</ele>
        <time>2016-05-08T16:22:42Z</time>
      </trkpt>
      <trkpt lat="48.71056" lon="1.96792">
        <ele>148.688171</ele>
        <time>2016-05-08T16:22:43Z</time>
      </trkpt>
      <trkpt lat="48.71056" lon="1.96792">
        <ele>148.690186</ele>
        <time>2016-05-08T16:22:44Z</time>
      </trkpt>
      <trkpt lat="48.71056" lon="1.96792">
        <ele>148.690857</ele>
        <time>2016-05-08T16:22:45Z</time>
      </trkpt>
      <trkpt lat="48.71056" lon="1.96792">
        <ele>148.693359</ele>
        <time>2016-05-08T16:22:46Z</time>
      </trkpt>
      <trkpt lat="48.71056" lon="1.96792">
        <ele>148.695251</ele>
        <time>2016-05-08T16:22:47Z</time>
      </trkpt>
      <trkpt lat="48.71056" lon="1.96792">
        <ele>148.693237</ele>
        <time>2016-05-08T16:22:48Z</time>
      </trkpt>
      <trkpt lat="48.71056" lon="1.96792">
        <ele>148.692688</ele>
        <time>2016-05-08T16:22:49Z</time>
      </trkpt>
      <trkpt lat="48.71056" lon="1.96792">
        <ele>148.697266</ele>
        <time>2016-05-08T16:22:50Z</time>
      </trkpt>
      <trkpt lat="48.71056" lon="1.96792">
        <ele>148.699585</ele>
        <time>2016-05-08T16:22:51Z</time>
      </trkpt>
      <trkpt lat="48.71056" lon="1.96792">
        <ele>148.697754</ele>
        <time>2016-05-08T16:22:52Z</time>
      </trkpt>
      <trkpt lat="48.71056" lon="1.96792">
        <ele>148.699097</ele>
        <time>2016-05-08T16:22:53Z</time>
      </trkpt>
      <trkpt lat="48.71056" lon="1.96792">
        <ele>148.697876</ele>
        <time>2016-05-08T16:22:54Z</time>
      </trkpt>
      <trkpt lat="48.71056" lon="1.96792">
        <ele>148.697021</ele>
        <time>2016-05-08T16:22:55Z</time>
      </trkpt>
      <trkpt lat="48.71056" lon="1.96792">
        <ele>148.696777</ele>
        <time>2016-05-08T16:22:56Z</time>
      </trkpt>
      <trkpt lat="48.71056" lon="1.96792">
        <ele>148.695801</ele>
        <time>2016-05-08T16:22:57Z</time>
      </trkpt>
      <trkpt lat="48.71056" lon="1.96792">
        <ele>148.693115</ele>
        <time>2016-05-08T16:22:58Z</time>
      </trkpt>
      <trkpt lat="48.71056" lon="1.96792">
        <ele>148.690308</ele>
        <time>2016-05-08T16:22:59Z</time>
      </trkpt>
      <trkpt lat="48.71056" lon="1.96792">
        <ele>148.682434</ele>
        <time>2016-05-08T16:23:00Z</time>
      </trkpt>
      <trkpt lat="48.71056" lon="1.96792">
        <ele>148.681763</ele>
        <time>2016-05-08T16:23:01Z</time>
      </trkpt>
      <trkpt lat="48.71056" lon="1.96792">
        <ele>148.681396</ele>
        <time>2016-05-08T16:23:02Z</time>
      </trkpt>
      <trkpt lat="48.71056" lon="1.96792">
        <ele>148.682617</ele>
        <time>2016-05-08T16:23:03Z</time>
      </trkpt>
      <trkpt lat="48.71056" lon="1.96792">
        <ele>148.685059</ele>
        <time>2016-05-08T16:23:04Z</time>
      </trkpt>
      <trkpt lat="48.71056" lon="1.96792">
        <ele>148.684204</ele>
        <time>2016-05-08T16:23:05Z</time>
      </trkpt>
      <trkpt lat="48.71056" lon="1.96792">
        <ele>148.680542</ele>
        <time>2016-05-08T16:23:06Z</time>
      </trkpt>
      <trkpt lat="48.71056" lon="1.96792">
        <ele>148.682922</ele>
        <time>2016-05-08T16:23:07Z</time>
      </trkpt>
      <trkpt lat="48.71056" lon="1.96792">
        <ele>148.678955</ele>
        <time>2016-05-08T16:23:08Z</time>
      </trkpt>
      <trkpt lat="48.71056" lon="1.96792">
        <ele>148.678711</ele>
        <time>2016-05-08T16:23:09Z</time>
      </trkpt>
      <trkpt lat="48.71056" lon="1.96792">
        <ele>148.679565</ele>
        <time>2016-05-08T16:23:10Z</time>
      </trkpt>
      <trkpt lat="48.71056" lon="1.96792">
        <ele>148.678833</ele>
        <time>2016-05-08T16:23:11Z</time>
      </trkpt>
      <trkpt lat="48.71056" lon="1.96792">
        <ele>148.679565</ele>
        <time>2016-05-08T16:23:12Z</time>
      </trkpt>
      <trkpt lat="48.71056" lon="1.96792">
        <ele>148.680786</ele>
        <time>2016-05-08T16:23:13Z</time>
      </trkpt>
      <trkpt lat="48.71056" lon="1.96792">
        <ele>148.68103</ele>
        <time>2016-05-08T16:23:14Z</time>
      </trkpt>
      <trkpt lat="48.71056" lon="1.96792">
        <ele>148.68103</ele>
        <time>2016-05-08T16:23:15Z</time>
      </trkpt>
      <trkpt lat="48.71056" lon="1.96792">
        <ele>148.682129</ele>
        <time>2016-05-08T16:23:16Z</time>
      </trkpt>
      <trkpt lat="48.71056" lon="1.96792">
        <ele>148.680054</ele>
        <time>2016-05-08T16:23:17Z</time>
      </trkpt>
      <trkpt lat="48.71056" lon="1.96792">
        <ele>148.680908</ele>
        <time>2016-05-08T16:23:18Z</time>
      </trkpt>
      <trkpt lat="48.71056" lon="1.96792">
        <ele>148.678955</ele>
        <time>2016-05-08T16:23:19Z</time>
      </trkpt>
      <trkpt lat="48.71056" lon="1.96792">
        <ele>148.679321</ele>
        <time>2016-05-08T16:23:20Z</time>
      </trkpt>
      <trkpt lat="48.71056" lon="1.96792">
        <ele>148.611206</ele>
        <time>2016-05-08T16:23:21Z</time>
      </trkpt>
      <trkpt lat="48.71056" lon="1.96792">
        <ele>148.607056</ele>
        <time>2016-05-08T16:23:22Z</time>
      </trkpt>
      <trkpt lat="48.71056" lon="1.96792">
        <ele>148.603149</ele>
        <time>2016-05-08T16:23:23Z</time>
      </trkpt>
      <trkpt lat="48.71056" lon="1.96792">
        <ele>148.597595</ele>
        <time>2016-05-08T16:23:25Z</time>
      </trkpt>
      <trkpt lat="48.71056" lon="1.96792">
        <ele>148.600586</ele>
        <time>2016-05-08T16:23:27Z</time>
      </trkpt>
      <trkpt lat="48.71056" lon="1.96792">
        <ele>148.601807</ele>
        <time>2016-05-08T16:23:29Z</time>
      </trkpt>
      <trkpt lat="48.71056" lon="1.96792">
        <ele>148.605591</ele>
        <time>2016-05-08T16:23:30Z</time>
      </trkpt>
      <trkpt lat="48.71056" lon="1.96792">
        <ele>148.612732</ele>
        <time>2016-05-08T16:23:32Z</time>
      </trkpt>
      <trkpt lat="48.71056" lon="1.96792">
        <ele>148.618469</ele>
        <time>2016-05-08T16:23:34Z</time>
      </trkpt>
      <trkpt lat="48.71056" lon="1.96792">
        <ele>148.627075</ele>
        <time>2016-05-08T16:23:36Z</time>
      </trkpt>
      <trkpt lat="48.71056" lon="1.96792">
        <ele>148.631409</ele>
        <time>2016-05-08T16:23:38Z</time>
      </trkpt>
      <trkpt lat="48.71056" lon="1.96792">
        <ele>148.635132</ele>
        <time>2016-05-08T16:23:40Z</time>
      </trkpt>
      <trkpt lat="48.71056" lon="1.96792">
        <ele>148.634766</ele>
        <time>2016-05-08T16:23:42Z</time>
      </trkpt>
      <trkpt lat="48.71056" lon="1.96792">
        <ele>148.634949</ele>
        <time>2016-05-08T16:23:44Z</time>
      </trkpt>
      <trkpt lat="48.71056" lon="1.96792">
        <ele>148.640564</ele>
        <time>2016-05-08T16:23:46Z</time>
      </trkpt>
      <trkpt lat="48.71056" lon="1.96792">
        <ele>148.645508</ele>
        <time>2016-05-08T16:23:48Z</time>
      </trkpt>
      <trkpt lat="48.71056" lon="1.96792">
        <ele>148.647522</ele>
        <time>2016-05-08T16:23:50Z</time>
      </trkpt>
      <trkpt lat="48.71056" lon="1.96792">
        <ele>148.649414</ele>
        <time>2016-05-08T16:23:52Z</time>
      </trkpt>
      <trkpt lat="48.71056" lon="1.96792">
        <ele>148.645142</ele>
        <time>2016-05-08T16:23:54Z</time>
      </trkpt>
      <trkpt lat="48.71056" lon="1.96792">
        <ele>148.647888</ele>
        <time>2016-05-08T16:23:56Z</time>
      </trkpt>
      <trkpt lat="48.71056" lon="1.96792">
        <ele>148.61377</ele>
        <time>2016-05-08T16:23:58Z</time>
      </trkpt>
      <trkpt lat="48.71056" lon="1.96789">
        <ele>148.393921</ele>
        <time>2016-05-08T16:24:00Z</time>
      </trkpt>
      <trkpt lat="48.71055" lon="1.96789">
        <ele>147.755493</ele>
        <time>2016-05-08T16:24:02Z</time>
      </trkpt>
      <trkpt lat="48.71055" lon="1.96789">
        <ele>147.758484</ele>
        <time>2016-05-08T16:24:04Z</time>
      </trkpt>
      <trkpt lat="48.71055" lon="1.96789">
        <ele>147.805298</ele>
        <time>2016-05-08T16:24:06Z</time>
      </trkpt>
      <trkpt lat="48.71055" lon="1.96789">
        <ele>147.369568</ele>
        <time>2016-05-08T16:24:08Z</time>
      </trkpt>
      <trkpt lat="48.71054" lon="1.96789">
        <ele>147.645569</ele>
        <time>2016-05-08T16:24:10Z</time>
      </trkpt>
      <trkpt lat="48.71054" lon="1.96789">
        <ele>147.325806</ele>
        <time>2016-05-08T16:24:12Z</time>
      </trkpt>
      <trkpt lat="48.71054" lon="1.96789">
        <ele>147.315979</ele>
        <time>2016-05-08T16:24:14Z</time>
      </trkpt>
      <trkpt lat="48.71054" lon="1.96789">
        <ele>147.323364</ele>
        <time>2016-05-08T16:24:16Z</time>
      </trkpt>
      <trkpt lat="48.71054" lon="1.96789">
        <ele>147.31604</ele>
        <time>2016-05-08T16:24:18Z</time>
      </trkpt>
      <trkpt lat="48.71054" lon="1.96789">
        <ele>147.314209</ele>
        <time>2016-05-08T16:24:20Z</time>
      </trkpt>
      <trkpt lat="48.71054" lon="1.96789">
        <ele>147.319824</ele>
        <time>2016-05-08T16:24:22Z</time>
      </trkpt>
      <trkpt lat="48.71054" lon="1.96789">
        <ele>147.318604</ele>
        <time>2016-05-08T16:24:24Z</time>
      </trkpt>
      <trkpt lat="48.71054" lon="1.96789">
        <ele>147.323853</ele>
        <time>2016-05-08T16:24:26Z</time>
      </trkpt>
      <trkpt lat="48.71054" lon="1.96789">
        <ele>147.327942</ele>
        <time>2016-05-08T16:24:28Z</time>
      </trkpt>
      <trkpt lat="48.71054" lon="1.96789">
        <ele>147.327759</ele>
        <time>2016-05-08T16:24:30Z</time>
      </trkpt>
      <trkpt lat="48.71054" lon="1.96789">
        <ele>147.329102</ele>
        <time>2016-05-08T16:24:32Z</time>
      </trkpt>
      <trkpt lat="48.71054" lon="1.96789">
        <ele>147.333618</ele>
        <time>2016-05-08T16:24:34Z</time>
      </trkpt>
      <trkpt lat="48.71054" lon="1.96789">
        <ele>146.967529</ele>
        <time>2016-05-08T16:24:36Z</time>
      </trkpt>
      <trkpt lat="48.71055" lon="1.96789">
        <ele>146.08783</ele>
        <time>2016-05-08T16:24:38Z</time>
      </trkpt>
      <trkpt lat="48.71055" lon="1.96789">
        <ele>144.423279</ele>
        <time>2016-05-08T16:24:40Z</time>
      </trkpt>
      <trkpt lat="48.71055" lon="1.96789">
        <ele>144.826111</ele>
        <time>2016-05-08T16:24:42Z</time>
      </trkpt>
      <trkpt lat="48.71055" lon="1.96789">
        <ele>144.232666</ele>
        <time>2016-05-08T16:24:44Z</time>
      </trkpt>
      <trkpt lat="48.71055" lon="1.96789">
        <ele>144.292664</ele>
        <time>2016-05-08T16:24:46Z</time>
      </trkpt>
      <trkpt lat="48.71055" lon="1.96789">
        <ele>144.303162</ele>
        <time>2016-05-08T16:24:48Z</time>
      </trkpt>
      <trkpt lat="48.71055" lon="1.96789">
        <ele>144.319763</ele>
        <time>2016-05-08T16:24:50Z</time>
      </trkpt>
      <trkpt lat="48.71055" lon="1.96789">
        <ele>144.314209</ele>
        <time>2016-05-08T16:24:52Z</time>
      </trkpt>
      <trkpt lat="48.71055" lon="1.96789">
        <ele>144.326416</ele>
        <time>2016-05-08T16:24:54Z</time>
      </trkpt>
      <trkpt lat="48.71055" lon="1.96789">
        <ele>144.31897</ele>
        <time>2016-05-08T16:24:56Z</time>
      </trkpt>
      <trkpt lat="48.71055" lon="1.96789">
        <ele>144.327515</ele>
        <time>2016-05-08T16:24:58Z</time>
      </trkpt>
      <trkpt lat="48.71055" lon="1.96789">
        <ele>144.347473</ele>
        <time>2016-05-08T16:25:00Z</time>
      </trkpt>
      <trkpt lat="48.71055" lon="1.96789">
        <ele>144.352905</ele>
        <time>2016-05-08T16:25:02Z</time>
      </trkpt>
      <trkpt lat="48.71055" lon="1.96789">
        <ele>144.342529</ele>
        <time>2016-05-08T16:25:04Z</time>
      </trkpt>
      <trkpt lat="48.71055" lon="1.96789">
        <ele>144.355835</ele>
        <time>2016-05-08T16:25:06Z</time>
      </trkpt>
      <trkpt lat="48.71055" lon="1.96789">
        <ele>144.358276</ele>
        <time>2016-05-08T16:25:08Z</time>
      </trkpt>
      <trkpt lat="48.71055" lon="1.96789">
        <ele>144.366333</ele>
        <time>2016-05-08T16:25:10Z</time>
      </trkpt>
      <trkpt lat="48.71055" lon="1.96789">
        <ele>144.370667</ele>
        <time>2016-05-08T16:25:12Z</time>
      </trkpt>
      <trkpt lat="48.71055" lon="1.96789">
        <ele>144.367615</ele>
        <time>2016-05-08T16:25:14Z</time>
      </trkpt>
      <trkpt lat="48.71055" lon="1.96789">
        <ele>144.363647</ele>
        <time>2016-05-08T16:25:16Z</time>
      </trkpt>
      <trkpt lat="48.71055" lon="1.96789">
        <ele>144.357178</ele>
        <time>2016-05-08T16:25:18Z</time>
      </trkpt>
      <trkpt lat="48.71055" lon="1.96789">
        <ele>144.365601</ele>
        <time>2016-05-08T16:25:20Z</time>
      </trkpt>
      <trkpt lat="48.71055" lon="1.96789">
        <ele>144.393188</ele>
        <time>2016-05-08T16:25:22Z</time>
      </trkpt>
      <trkpt lat="48.71055" lon="1.96789">
        <ele>144.403442</ele>
        <time>2016-05-08T16:25:24Z</time>
      </trkpt>
      <trkpt lat="48.71055" lon="1.96789">
        <ele>144.410156</ele>
        <time>2016-05-08T16:25:26Z</time>
      </trkpt>
      <trkpt lat="48.71055" lon="1.96789">
        <ele>144.42334</ele>
        <time>2016-05-08T16:25:28Z</time>
      </trkpt>
      <trkpt lat="48.71055" lon="1.96789">
        <ele>144.423828</ele>
        <time>2016-05-08T16:25:30Z</time>
      </trkpt>
      <trkpt lat="48.71055" lon="1.96789">
        <ele>144.441895</ele>
        <time>2016-05-08T16:25:32Z</time>
      </trkpt>
      <trkpt lat="48.71055" lon="1.96789">
        <ele>144.444641</ele>
        <time>2016-05-08T16:25:34Z</time>
      </trkpt>
      <trkpt lat="48.71055" lon="1.96789">
        <ele>144.439819</ele>
        <time>2016-05-08T16:25:36Z</time>
      </trkpt>
      <trkpt lat="48.71055" lon="1.96789">
        <ele>144.436768</ele>
        <time>2016-05-08T16:25:38Z</time>
      </trkpt>
      <trkpt lat="48.71055" lon="1.96789">
        <ele>144.468567</ele>
        <time>2016-05-08T16:25:40Z</time>
      </trkpt>
      <trkpt lat="48.71055" lon="1.96789">
        <ele>144.467407</ele>
        <time>2016-05-08T16:25:42Z</time>
      </trkpt>
      <trkpt lat="48.71055" lon="1.96789">
        <ele>144.468018</ele>
        <time>2016-05-08T16:25:44Z</time>
      </trkpt>
      <trkpt lat="48.71055" lon="1.96789">
        <ele>144.484619</ele>
        <time>2016-05-08T16:25:46Z</time>
      </trkpt>
      <trkpt lat="48.71055" lon="1.96789">
        <ele>145.244568</ele>
        <time>2016-05-08T16:25:48Z</time>
      </trkpt>
      <trkpt lat="48.71055" lon="1.96789">
        <ele>145.248413</ele>
        <time>2016-05-08T16:25:50Z</time>
      </trkpt>
      <trkpt lat="48.71055" lon="1.96789">
        <ele>145.263794</ele>
        <time>2016-05-08T16:25:52Z</time>
      </trkpt>
      <trkpt lat="48.71055" lon="1.96789">
        <ele>145.263428</ele>
        <time>2016-05-08T16:25:54Z</time>
      </trkpt>
      <trkpt lat="48.71055" lon="1.96789">
        <ele>145.264771</ele>
        <time>2016-05-08T16:25:56Z</time>
      </trkpt>
      <trkpt lat="48.71055" lon="1.96789">
        <ele>145.265015</ele>
        <time>2016-05-08T16:25:58Z</time>
      </trkpt>
      <trkpt lat="48.71055" lon="1.96789">
        <ele>145.265625</ele>
        <time>2016-05-08T16:26:00Z</time>
      </trkpt>
      <trkpt lat="48.71055" lon="1.96789">
        <ele>145.263916</ele>
        <time>2016-05-08T16:26:02Z</time>
      </trkpt>
      <trkpt lat="48.71055" lon="1.96789">
        <ele>145.255981</ele>
        <time>2016-05-08T16:26:04Z</time>
      </trkpt>
      <trkpt lat="48.71055" lon="1.96789">
        <ele>145.252075</ele>
        <time>2016-05-08T16:26:06Z</time>
      </trkpt>
      <trkpt lat="48.71055" lon="1.96789">
        <ele>145.250854</ele>
        <time>2016-05-08T16:26:08Z</time>
      </trkpt>
      <trkpt lat="48.71055" lon="1.96789">
        <ele>145.24823</ele>
        <time>2016-05-08T16:26:10Z</time>
      </trkpt>
      <trkpt lat="48.71055" lon="1.96789">
        <ele>145.245117</ele>
        <time>2016-05-08T16:26:12Z</time>
      </trkpt>
      <trkpt lat="48.71055" lon="1.96789">
        <ele>145.247437</ele>
        <time>2016-05-08T16:26:14Z</time>
      </trkpt>
      <trkpt lat="48.71055" lon="1.96789">
        <ele>145.247314</ele>
        <time>2016-05-08T16:26:16Z</time>
      </trkpt>
      <trkpt lat="48.71055" lon="1.96789">
        <ele>145.253113</ele>
        <time>2016-05-08T16:26:18Z</time>
      </trkpt>
      <trkpt lat="48.71055" lon="1.96789">
        <ele>145.263733</ele>
        <time>2016-05-08T16:26:20Z</time>
      </trkpt>
      <trkpt lat="48.71055" lon="1.96789">
        <ele>145.260803</ele>
        <time>2016-05-08T16:26:22Z</time>
      </trkpt>
      <trkpt lat="48.71055" lon="1.96789">
        <ele>145.268005</ele>
        <time>2016-05-08T16:26:24Z</time>
      </trkpt>
      <trkpt lat="48.71055" lon="1.96789">
        <ele>145.273804</ele>
        <time>2016-05-08T16:26:26Z</time>
      </trkpt>
      <trkpt lat="48.71055" lon="1.96789">
        <ele>145.277771</ele>
        <time>2016-05-08T16:26:28Z</time>
      </trkpt>
      <trkpt lat="48.71056" lon="1.96789">
        <ele>145.107178</ele>
        <time>2016-05-08T16:26:30Z</time>
      </trkpt>
      <trkpt lat="48.71056" lon="1.96788">
        <ele>145.220337</ele>
        <time>2016-05-08T16:26:32Z</time>
      </trkpt>
      <trkpt lat="48.71056" lon="1.96788">
        <ele>146.792236</ele>
        <time>2016-05-08T16:26:34Z</time>
      </trkpt>
      <trkpt lat="48.71056" lon="1.96788">
        <ele>149.37207</ele>
        <time>2016-05-08T16:26:36Z</time>
      </trkpt>
      <trkpt lat="48.71056" lon="1.96788">
        <ele>149.343384</ele>
        <time>2016-05-08T16:26:38Z</time>
      </trkpt>
      <trkpt lat="48.71056" lon="1.96788">
        <ele>149.33136</ele>
        <time>2016-05-08T16:26:40Z</time>
      </trkpt>
      <trkpt lat="48.71056" lon="1.96788">
        <ele>149.319641</ele>
        <time>2016-05-08T16:26:42Z</time>
      </trkpt>
      <trkpt lat="48.71056" lon="1.96788">
        <ele>149.319702</ele>
        <time>2016-05-08T16:26:44Z</time>
      </trkpt>
      <trkpt lat="48.71056" lon="1.96788">
        <ele>149.320312</ele>
        <time>2016-05-08T16:26:46Z</time>
      </trkpt>
      <trkpt lat="48.71056" lon="1.96788">
        <ele>149.314331</ele>
        <time>2016-05-08T16:26:48Z</time>
      </trkpt>
      <trkpt lat="48.71056" lon="1.96788">
        <ele>149.329407</ele>
        <time>2016-05-08T16:26:50Z</time>
      </trkpt>
      <trkpt lat="48.71056" lon="1.96788">
        <ele>149.33252</ele>
        <time>2016-05-08T16:26:52Z</time>
      </trkpt>
      <trkpt lat="48.71056" lon="1.96788">
        <ele>149.322021</ele>
        <time>2016-05-08T16:26:54Z</time>
      </trkpt>
      <trkpt lat="48.71056" lon="1.96788">
        <ele>149.314514</ele>
        <time>2016-05-08T16:26:56Z</time>
      </trkpt>
      <trkpt lat="48.71056" lon="1.96788">
        <ele>149.333679</ele>
        <time>2016-05-08T16:26:58Z</time>
      </trkpt>
      <trkpt lat="48.71056" lon="1.96788">
        <ele>149.345032</ele>
        <time>2016-05-08T16:27:00Z</time>
      </trkpt>
      <trkpt lat="48.71056" lon="1.96788">
        <ele>149.347168</ele>
        <time>2016-05-08T16:27:02Z</time>
      </trkpt>
      <trkpt lat="48.71056" lon="1.96788">
        <ele>149.340271</ele>
        <time>2016-05-08T16:27:04Z</time>
      </trkpt>
      <trkpt lat="48.71056" lon="1.96788">
        <ele>149.347046</ele>
        <time>2016-05-08T16:27:06Z</time>
      </trkpt>
      <trkpt lat="48.71056" lon="1.96788">
        <ele>149.34668</ele>
        <time>2016-05-08T16:27:08Z</time>
      </trkpt>
      <trkpt lat="48.71056" lon="1.96788">
        <ele>148.388489</ele>
        <time>2016-05-08T16:27:10Z</time>
      </trkpt>
      <trkpt lat="48.71056" lon="1.96788">
        <ele>148.383606</ele>
        <time>2016-05-08T16:27:12Z</time>
      </trkpt>
      <trkpt lat="48.71056" lon="1.96788">
        <ele>148.4021</ele>
        <time>2016-05-08T16:27:14Z</time>
      </trkpt>
      <trkpt lat="48.71056" lon="1.96788">
        <ele>148.397766</ele>
        <time>2016-05-08T16:27:16Z</time>
      </trkpt>
      <trkpt lat="48.71056" lon="1.96788">
        <ele>148.39978</ele>
        <time>2016-05-08T16:27:18Z</time>
      </trkpt>
      <trkpt lat="48.71056" lon="1.96788">
        <ele>148.395569</ele>
        <time>2016-05-08T16:27:20Z</time>
      </trkpt>
      <trkpt lat="48.71056" lon="1.96788">
        <ele>148.407593</ele>
        <time>2016-05-08T16:27:22Z</time>
      </trkpt>
      <trkpt lat="48.71055" lon="1.96787">
        <ele>146.502197</ele>
        <time>2016-05-08T16:27:24Z</time>
      </trkpt>
      <trkpt lat="48.71055" lon="1.96787">
        <ele>145.21936</ele>
        <time>2016-05-08T16:27:26Z</time>
      </trkpt>
      <trkpt lat="48.71055" lon="1.96787">
        <ele>145.201721</ele>
        <time>2016-05-08T16:27:28Z</time>
      </trkpt>
      <trkpt lat="48.71055" lon="1.96787">
        <ele>145.176636</ele>
        <time>2016-05-08T16:27:30Z</time>
      </trkpt>
      <trkpt lat="48.71055" lon="1.96787">
        <ele>145.182007</ele>
        <time>2016-05-08T16:27:32Z</time>
      </trkpt>
      <trkpt lat="48.71053" lon="1.96787">
        <ele>146.513306</ele>
        <time>2016-05-08T16:27:34Z</time>
      </trkpt>
      <trkpt lat="48.71053" lon="1.96788">
        <ele>145.705566</ele>
        <time>2016-05-08T16:27:36Z</time>
      </trkpt>
      <trkpt lat="48.71053" lon="1.96788">
        <ele>144.997131</ele>
        <time>2016-05-08T16:27:37Z</time>
      </trkpt>
      <trkpt lat="48.71054" lon="1.96789">
        <ele>145.09314</ele>
        <time>2016-05-08T16:27:39Z</time>
      </trkpt>
      <trkpt lat="48.71055" lon="1.96789">
        <ele>145.302429</ele>
        <time>2016-05-08T16:27:41Z</time>
      </trkpt>
      <trkpt lat="48.71055" lon="1.96789">
        <ele>145.303711</ele>
        <time>2016-05-08T16:27:43Z</time>
      </trkpt>
      <trkpt lat="48.71055" lon="1.96789">
        <ele>145.308044</ele>
        <time>2016-05-08T16:27:45Z</time>
      </trkpt>
      <trkpt lat="48.71055" lon="1.96789">
        <ele>145.302917</ele>
        <time>2016-05-08T16:27:47Z</time>
      </trkpt>
      <trkpt lat="48.71055" lon="1.96789">
        <ele>144.887146</ele>
        <time>2016-05-08T16:27:49Z</time>
      </trkpt>
      <trkpt lat="48.71055" lon="1.96789">
        <ele>145.118896</ele>
        <time>2016-05-08T16:27:51Z</time>
      </trkpt>
      <trkpt lat="48.71054" lon="1.96791">
        <ele>144.990967</ele>
        <time>2016-05-08T16:27:53Z</time>
      </trkpt>
      <trkpt lat="48.71053" lon="1.96792">
        <ele>141.833557</ele>
        <time>2016-05-08T16:27:55Z</time>
      </trkpt>
      <trkpt lat="48.71052" lon="1.96792">
        <ele>141.469116</ele>
        <time>2016-05-08T16:27:57Z</time>
      </trkpt>
      <trkpt lat="48.71051" lon="1.96792">
        <ele>142.200439</ele>
        <time>2016-05-08T16:27:59Z</time>
      </trkpt>
      <trkpt lat="48.71051" lon="1.96792">
        <ele>142.114807</ele>
        <time>2016-05-08T16:28:01Z</time>
      </trkpt>
      <trkpt lat="48.71051" lon="1.96792">
        <ele>142.120544</ele>
        <time>2016-05-08T16:28:03Z</time>
      </trkpt>
      <trkpt lat="48.71051" lon="1.96792">
        <ele>142.742676</ele>
        <time>2016-05-08T16:28:05Z</time>
      </trkpt>
      <trkpt lat="48.71051" lon="1.96792">
        <ele>142.686218</ele>
        <time>2016-05-08T16:28:07Z</time>
      </trkpt>
      <trkpt lat="48.71051" lon="1.96792">
        <ele>142.70575</ele>
        <time>2016-05-08T16:28:09Z</time>
      </trkpt>
      <trkpt lat="48.71051" lon="1.96792">
        <ele>142.713501</ele>
        <time>2016-05-08T16:28:11Z</time>
      </trkpt>
      <trkpt lat="48.71051" lon="1.96792">
        <ele>142.720642</ele>
        <time>2016-05-08T16:28:13Z</time>
      </trkpt>
      <trkpt lat="48.71051" lon="1.96792">
        <ele>142.737122</ele>
        <time>2016-05-08T16:28:15Z</time>
      </trkpt>
      <trkpt lat="48.71051" lon="1.96792">
        <ele>142.748779</ele>
        <time>2016-05-08T16:28:17Z</time>
      </trkpt>
      <trkpt lat="48.71051" lon="1.96792">
        <ele>142.747803</ele>
        <time>2016-05-08T16:28:19Z</time>
      </trkpt>
      <trkpt lat="48.71051" lon="1.96792">
        <ele>142.760315</ele>
        <time>2016-05-08T16:28:21Z</time>
      </trkpt>
      <trkpt lat="48.71051" lon="1.96792">
        <ele>142.768066</ele>
        <time>2016-05-08T16:28:23Z</time>
      </trkpt>
      <trkpt lat="48.71051" lon="1.96792">
        <ele>142.776611</ele>
        <time>2016-05-08T16:28:25Z</time>
      </trkpt>
      <trkpt lat="48.71051" lon="1.96792">
        <ele>142.767944</ele>
        <time>2016-05-08T16:28:27Z</time>
      </trkpt>
      <trkpt lat="48.71051" lon="1.96792">
        <ele>142.770386</ele>
        <time>2016-05-08T16:28:29Z</time>
      </trkpt>
      <trkpt lat="48.71051" lon="1.96792">
        <ele>142.762756</ele>
        <time>2016-05-08T16:28:31Z</time>
      </trkpt>
      <trkpt lat="48.71051" lon="1.96792">
        <ele>142.789062</ele>
        <time>2016-05-08T16:28:33Z</time>
      </trkpt>
      <trkpt lat="48.71051" lon="1.96792">
        <ele>142.799194</ele>
        <time>2016-05-08T16:28:35Z</time>
      </trkpt>
      <trkpt lat="48.71051" lon="1.96792">
        <ele>142.844238</ele>
        <time>2016-05-08T16:28:37Z</time>
      </trkpt>
      <trkpt lat="48.71051" lon="1.96792">
        <ele>142.89209</ele>
        <time>2016-05-08T16:28:39Z</time>
      </trkpt>
      <trkpt lat="48.71051" lon="1.96792">
        <ele>142.874878</ele>
        <time>2016-05-08T16:28:41Z</time>
      </trkpt>
      <trkpt lat="48.71051" lon="1.96792">
        <ele>142.865723</ele>
        <time>2016-05-08T16:28:43Z</time>
      </trkpt>
      <trkpt lat="48.71052" lon="1.96792">
        <ele>142.63855</ele>
        <time>2016-05-08T16:28:45Z</time>
      </trkpt>
      <trkpt lat="48.71052" lon="1.96793">
        <ele>142.678101</ele>
        <time>2016-05-08T16:28:47Z</time>
      </trkpt>
      <trkpt lat="48.71052" lon="1.96793">
        <ele>143.644653</ele>
        <time>2016-05-08T16:28:49Z</time>
      </trkpt>
      <trkpt lat="48.71052" lon="1.96793">
        <ele>143.648682</ele>
        <time>2016-05-08T16:28:51Z</time>
      </trkpt>
      <trkpt lat="48.71053" lon="1.96793">
        <ele>145.147827</ele>
        <time>2016-05-08T16:28:53Z</time>
      </trkpt>
      <trkpt lat="48.71054" lon="1.96792">
        <ele>148.981323</ele>
        <time>2016-05-08T16:28:55Z</time>
      </trkpt>
      <trkpt lat="48.71054" lon="1.96792">
        <ele>148.944397</ele>
        <time>2016-05-08T16:28:57Z</time>
      </trkpt>
      <trkpt lat="48.71054" lon="1.96792">
        <ele>148.931763</ele>
        <time>2016-05-08T16:28:59Z</time>
      </trkpt>
      <trkpt lat="48.71054" lon="1.96792">
        <ele>148.89447</ele>
        <time>2016-05-08T16:29:01Z</time>
      </trkpt>
      <trkpt lat="48.71054" lon="1.96792">
        <ele>148.894409</ele>
        <time>2016-05-08T16:29:03Z</time>
      </trkpt>
      <trkpt lat="48.71054" lon="1.96792">
        <ele>148.893738</ele>
        <time>2016-05-08T16:29:05Z</time>
      </trkpt>
      <trkpt lat="48.71054" lon="1.96792">
        <ele>148.88855</ele>
        <time>2016-05-08T16:29:07Z</time>
      </trkpt>
      <trkpt lat="48.71054" lon="1.96792">
        <ele>148.904541</ele>
        <time>2016-05-08T16:29:09Z</time>
      </trkpt>
      <trkpt lat="48.71054" lon="1.96792">
        <ele>148.892456</ele>
        <time>2016-05-08T16:29:11Z</time>
      </trkpt>
      <trkpt lat="48.71054" lon="1.96792">
        <ele>148.875427</ele>
        <time>2016-05-08T16:29:13Z</time>
      </trkpt>
      <trkpt lat="48.71054" lon="1.96792">
        <ele>148.888611</ele>
        <time>2016-05-08T16:29:15Z</time>
      </trkpt>
      <trkpt lat="48.71054" lon="1.96792">
        <ele>148.893555</ele>
        <time>2016-05-08T16:29:17Z</time>
      </trkpt>
      <trkpt lat="48.71054" lon="1.96792">
        <ele>148.869629</ele>
        <time>2016-05-08T16:29:19Z</time>
      </trkpt>
      <trkpt lat="48.71054" lon="1.96792">
        <ele>148.864136</ele>
        <time>2016-05-08T16:29:21Z</time>
      </trkpt>
      <trkpt lat="48.71054" lon="1.9679">
        <ele>147.430603</ele>
        <time>2016-05-08T16:29:23Z</time>
      </trkpt>
      <trkpt lat="48.71054" lon="1.9679">
        <ele>147.365723</ele>
        <time>2016-05-08T16:29:25Z</time>
      </trkpt>
      <trkpt lat="48.71054" lon="1.9679">
        <ele>147.368591</ele>
        <time>2016-05-08T16:29:27Z</time>
      </trkpt>
      <trkpt lat="48.71054" lon="1.9679">
        <ele>147.366577</ele>
        <time>2016-05-08T16:29:29Z</time>
      </trkpt>
      <trkpt lat="48.71054" lon="1.9679">
        <ele>147.37146</ele>
        <time>2016-05-08T16:29:31Z</time>
      </trkpt>
      <trkpt lat="48.71054" lon="1.9679">
        <ele>147.351929</ele>
        <time>2016-05-08T16:29:33Z</time>
      </trkpt>
      <trkpt lat="48.71054" lon="1.9679">
        <ele>147.359863</ele>
        <time>2016-05-08T16:29:35Z</time>
      </trkpt>
      <trkpt lat="48.71054" lon="1.9679">
        <ele>147.377319</ele>
        <time>2016-05-08T16:29:37Z</time>
      </trkpt>
      <trkpt lat="48.71054" lon="1.9679">
        <ele>147.363037</ele>
        <time>2016-05-08T16:29:39Z</time>
      </trkpt>
      <trkpt lat="48.71054" lon="1.9679">
        <ele>147.357422</ele>
        <time>2016-05-08T16:29:41Z</time>
      </trkpt>
      <trkpt lat="48.71054" lon="1.9679">
        <ele>147.342468</ele>
        <time>2016-05-08T16:29:43Z</time>
      </trkpt>
      <trkpt lat="48.71054" lon="1.9679">
        <ele>147.467163</ele>
        <time>2016-05-08T16:29:45Z</time>
      </trkpt>
      <trkpt lat="48.71054" lon="1.96791">
        <ele>149.023376</ele>
        <time>2016-05-08T16:29:47Z</time>
      </trkpt>
      <trkpt lat="48.71055" lon="1.96791">
        <ele>149.324707</ele>
        <time>2016-05-08T16:29:49Z</time>
      </trkpt>
      <trkpt lat="48.71055" lon="1.96791">
        <ele>148.999939</ele>
        <time>2016-05-08T16:29:51Z</time>
      </trkpt>
      <trkpt lat="48.71055" lon="1.96791">
        <ele>147.868713</ele>
        <time>2016-05-08T16:29:53Z</time>
      </trkpt>
      <trkpt lat="48.71055" lon="1.96791">
        <ele>148.458801</ele>
        <time>2016-05-08T16:29:55Z</time>
      </trkpt>
      <trkpt lat="48.71055" lon="1.9679">
        <ele>148.441223</ele>
        <time>2016-05-08T16:29:57Z</time>
      </trkpt>
      <trkpt lat="48.71055" lon="1.96789">
        <ele>148.252319</ele>
        <time>2016-05-08T16:29:59Z</time>
      </trkpt>
      <trkpt lat="48.71055" lon="1.96789">
        <ele>147.251709</ele>
        <time>2016-05-08T16:30:01Z</time>
      </trkpt>
      <trkpt lat="48.71056" lon="1.96789">
        <ele>146.174744</ele>
        <time>2016-05-08T16:30:03Z</time>
      </trkpt>
      <trkpt lat="48.71058" lon="1.96789">
        <ele>146.486816</ele>
        <time>2016-05-08T16:30:05Z</time>
      </trkpt>
      <trkpt lat="48.71059" lon="1.96789">
        <ele>145.963379</ele>
        <time>2016-05-08T16:30:07Z</time>
      </trkpt>
      <trkpt lat="48.71059" lon="1.96789">
        <ele>145.991821</ele>
        <time>2016-05-08T16:30:09Z</time>
      </trkpt>
      <trkpt lat="48.71059" lon="1.96789">
        <ele>145.989502</ele>
        <time>2016-05-08T16:30:11Z</time>
      </trkpt>
      <trkpt lat="48.71059" lon="1.96789">
        <ele>145.989136</ele>
        <time>2016-05-08T16:30:13Z</time>
      </trkpt>
      <trkpt lat="48.71059" lon="1.96789">
        <ele>145.990723</ele>
        <time>2016-05-08T16:30:15Z</time>
      </trkpt>
      <trkpt lat="48.71059" lon="1.96789">
        <ele>145.995056</ele>
        <time>2016-05-08T16:30:17Z</time>
      </trkpt>
      <trkpt lat="48.71059" lon="1.96789">
        <ele>146.027527</ele>
        <time>2016-05-08T16:30:19Z</time>
      </trkpt>
      <trkpt lat="48.71059" lon="1.96789">
        <ele>146.040405</ele>
        <time>2016-05-08T16:30:21Z</time>
      </trkpt>
      <trkpt lat="48.71059" lon="1.96789">
        <ele>146.052429</ele>
        <time>2016-05-08T16:30:23Z</time>
      </trkpt>
      <trkpt lat="48.71059" lon="1.96789">
        <ele>146.045898</ele>
        <time>2016-05-08T16:30:25Z</time>
      </trkpt>
      <trkpt lat="48.71059" lon="1.96789">
        <ele>146.045288</ele>
        <time>2016-05-08T16:30:27Z</time>
      </trkpt>
      <trkpt lat="48.71059" lon="1.96789">
        <ele>146.053894</ele>
        <time>2016-05-08T16:30:29Z</time>
      </trkpt>
      <trkpt lat="48.71059" lon="1.96789">
        <ele>146.095703</ele>
        <time>2016-05-08T16:30:31Z</time>
      </trkpt>
      <trkpt lat="48.71059" lon="1.96789">
        <ele>146.100342</ele>
        <time>2016-05-08T16:30:33Z</time>
      </trkpt>
      <trkpt lat="48.71059" lon="1.96789">
        <ele>146.100708</ele>
        <time>2016-05-08T16:30:34Z</time>
      </trkpt>
      <trkpt lat="48.71059" lon="1.96789">
        <ele>146.120972</ele>
        <time>2016-05-08T16:30:36Z</time>
      </trkpt>
      <trkpt lat="48.71059" lon="1.96789">
        <ele>146.12738</ele>
        <time>2016-05-08T16:30:37Z</time>
      </trkpt>
      <trkpt lat="48.71059" lon="1.96789">
        <ele>146.13623</ele>
        <time>2016-05-08T16:30:38Z</time>
      </trkpt>
      <trkpt lat="48.71059" lon="1.96789">
        <ele>146.152588</ele>
        <time>2016-05-08T16:30:39Z</time>
      </trkpt>
      <trkpt lat="48.71059" lon="1.96789">
        <ele>146.160645</ele>
        <time>2016-05-08T16:30:40Z</time>
      </trkpt>
      <trkpt lat="48.71059" lon="1.96789">
        <ele>146.165466</ele>
        <time>2016-05-08T16:30:41Z</time>
      </trkpt>
      <trkpt lat="48.71059" lon="1.96789">
        <ele>146.193542</ele>
        <time>2016-05-08T16:30:43Z</time>
      </trkpt>
      <trkpt lat="48.71059" lon="1.96789">
        <ele>146.202393</ele>
        <time>2016-05-08T16:30:44Z</time>
      </trkpt>
      <trkpt lat="48.71059" lon="1.96789">
        <ele>146.221436</ele>
        <time>2016-05-08T16:30:46Z</time>
      </trkpt>
      <trkpt lat="48.71059" lon="1.96789">
        <ele>146.225464</ele>
        <time>2016-05-08T16:30:48Z</time>
      </trkpt>
      <trkpt lat="48.71059" lon="1.96789">
        <ele>146.243408</ele>
        <time>2016-05-08T16:30:50Z</time>
      </trkpt>
      <trkpt lat="48.71059" lon="1.96789">
        <ele>146.277222</ele>
        <time>2016-05-08T16:30:52Z</time>
      </trkpt>
      <trkpt lat="48.71059" lon="1.96789">
        <ele>145.632507</ele>
        <time>2016-05-08T16:30:54Z</time>
      </trkpt>
      <trkpt lat="48.71059" lon="1.96789">
        <ele>145.362183</ele>
        <time>2016-05-08T16:30:56Z</time>
      </trkpt>
      <trkpt lat="48.71059" lon="1.96789">
        <ele>145.33136</ele>
        <time>2016-05-08T16:30:58Z</time>
      </trkpt>
      <trkpt lat="48.71059" lon="1.96789">
        <ele>145.27655</ele>
        <time>2016-05-08T16:31:00Z</time>
      </trkpt>
      <trkpt lat="48.7106" lon="1.96787">
        <ele>145.752808</ele>
        <time>2016-05-08T16:31:02Z</time>
      </trkpt>
      <trkpt lat="48.7106" lon="1.96787">
        <ele>145.721863</ele>
        <time>2016-05-08T16:31:04Z</time>
      </trkpt>
      <trkpt lat="48.7106" lon="1.96787">
        <ele>145.748535</ele>
        <time>2016-05-08T16:31:06Z</time>
      </trkpt>
      <trkpt lat="48.7106" lon="1.96787">
        <ele>145.762207</ele>
        <time>2016-05-08T16:31:08Z</time>
      </trkpt>
      <trkpt lat="48.7106" lon="1.96787">
        <ele>145.796387</ele>
        <time>2016-05-08T16:31:10Z</time>
      </trkpt>
      <trkpt lat="48.7106" lon="1.96787">
        <ele>145.790955</ele>
        <time>2016-05-08T16:31:12Z</time>
      </trkpt>
      <trkpt lat="48.7106" lon="1.96787">
        <ele>145.797791</ele>
        <time>2016-05-08T16:31:14Z</time>
      </trkpt>
      <trkpt lat="48.7106" lon="1.96787">
        <ele>145.785706</ele>
        <time>2016-05-08T16:31:16Z</time>
      </trkpt>
      <trkpt lat="48.7106" lon="1.96787">
        <ele>145.7948</ele>
        <time>2016-05-08T16:31:18Z</time>
      </trkpt>
      <trkpt lat="48.7106" lon="1.96787">
        <ele>145.806702</ele>
        <time>2016-05-08T16:31:20Z</time>
      </trkpt>
      <trkpt lat="48.7106" lon="1.96787">
        <ele>145.80365</ele>
        <time>2016-05-08T16:31:22Z</time>
      </trkpt>
      <trkpt lat="48.71061" lon="1.96788">
        <ele>144.847107</ele>
        <time>2016-05-08T16:31:24Z</time>
      </trkpt>
      <trkpt lat="48.71061" lon="1.96788">
        <ele>144.216431</ele>
        <time>2016-05-08T16:31:26Z</time>
      </trkpt>
      <trkpt lat="48.7106" lon="1.9679">
        <ele>144.934448</ele>
        <time>2016-05-08T16:31:28Z</time>
      </trkpt>
      <trkpt lat="48.7106" lon="1.9679">
        <ele>144.853699</ele>
        <time>2016-05-08T16:31:30Z</time>
      </trkpt>
      <trkpt lat="48.7106" lon="1.9679">
        <ele>144.837585</ele>
        <time>2016-05-08T16:31:32Z</time>
      </trkpt>
      <trkpt lat="48.7106" lon="1.9679">
        <ele>144.824097</ele>
        <time>2016-05-08T16:31:34Z</time>
      </trkpt>
      <trkpt lat="48.7106" lon="1.9679">
        <ele>144.826477</ele>
        <time>2016-05-08T16:31:36Z</time>
      </trkpt>
      <trkpt lat="48.7106" lon="1.9679">
        <ele>144.848267</ele>
        <time>2016-05-08T16:31:38Z</time>
      </trkpt>
      <trkpt lat="48.7106" lon="1.9679">
        <ele>144.869019</ele>
        <time>2016-05-08T16:31:40Z</time>
      </trkpt>
      <trkpt lat="48.7106" lon="1.9679">
        <ele>144.899658</ele>
        <time>2016-05-08T16:31:42Z</time>
      </trkpt>
      <trkpt lat="48.7106" lon="1.9679">
        <ele>144.916443</ele>
        <time>2016-05-08T16:31:44Z</time>
      </trkpt>
      <trkpt lat="48.7106" lon="1.9679">
        <ele>144.946472</ele>
        <time>2016-05-08T16:31:46Z</time>
      </trkpt>
      <trkpt lat="48.7106" lon="1.9679">
        <ele>144.978943</ele>
        <time>2016-05-08T16:31:48Z</time>
      </trkpt>
      <trkpt lat="48.7106" lon="1.9679">
        <ele>144.995972</ele>
        <time>2016-05-08T16:31:50Z</time>
      </trkpt>
      <trkpt lat="48.7106" lon="1.9679">
        <ele>144.971436</ele>
        <time>2016-05-08T16:31:52Z</time>
      </trkpt>
      <trkpt lat="48.7106" lon="1.9679">
        <ele>144.991211</ele>
        <time>2016-05-08T16:31:54Z</time>
      </trkpt>
      <trkpt lat="48.7106" lon="1.9679">
        <ele>144.989624</ele>
        <time>2016-05-08T16:31:56Z</time>
      </trkpt>
      <trkpt lat="48.7106" lon="1.9679">
        <ele>145.019409</ele>
        <time>2016-05-08T16:31:58Z</time>
      </trkpt>
      <trkpt lat="48.7106" lon="1.9679">
        <ele>145.003906</ele>
        <time>2016-05-08T16:32:00Z</time>
      </trkpt>
      <trkpt lat="48.7106" lon="1.9679">
        <ele>145.018738</ele>
        <time>2016-05-08T16:32:02Z</time>
      </trkpt>
      <trkpt lat="48.7106" lon="1.9679">
        <ele>145.036743</ele>
        <time>2016-05-08T16:32:04Z</time>
      </trkpt>
      <trkpt lat="48.7106" lon="1.9679">
        <ele>145.037109</ele>
        <time>2016-05-08T16:32:06Z</time>
      </trkpt>
      <trkpt lat="48.7106" lon="1.9679">
        <ele>145.043335</ele>
        <time>2016-05-08T16:32:08Z</time>
      </trkpt>
      <trkpt lat="48.7106" lon="1.9679">
        <ele>145.056519</ele>
        <time>2016-05-08T16:32:10Z</time>
      </trkpt>
      <trkpt lat="48.7106" lon="1.9679">
        <ele>145.057922</ele>
        <time>2016-05-08T16:32:12Z</time>
      </trkpt>
      <trkpt lat="48.7106" lon="1.9679">
        <ele>145.058472</ele>
        <time>2016-05-08T16:32:14Z</time>
      </trkpt>
      <trkpt lat="48.7106" lon="1.9679">
        <ele>145.075439</ele>
        <time>2016-05-08T16:32:16Z</time>
      </trkpt>
      <trkpt lat="48.7106" lon="1.9679">
        <ele>145.051575</ele>
        <time>2016-05-08T16:32:18Z</time>
      </trkpt>
      <trkpt lat="48.7106" lon="1.9679">
        <ele>145.067078</ele>
        <time>2016-05-08T16:32:20Z</time>
      </trkpt>
      <trkpt lat="48.7106" lon="1.9679">
        <ele>145.059937</ele>
        <time>2016-05-08T16:32:22Z</time>
      </trkpt>
      <trkpt lat="48.7106" lon="1.9679">
        <ele>145.065308</ele>
        <time>2016-05-08T16:32:24Z</time>
      </trkpt>
      <trkpt lat="48.7106" lon="1.9679">
        <ele>145.057373</ele>
        <time>2016-05-08T16:32:26Z</time>
      </trkpt>
      <trkpt lat="48.7106" lon="1.9679">
        <ele>145.076538</ele>
        <time>2016-05-08T16:32:28Z</time>
      </trkpt>
      <trkpt lat="48.7106" lon="1.9679">
        <ele>145.079956</ele>
        <time>2016-05-08T16:32:30Z</time>
      </trkpt>
      <trkpt lat="48.7106" lon="1.9679">
        <ele>145.086426</ele>
        <time>2016-05-08T16:32:32Z</time>
      </trkpt>
      <trkpt lat="48.7106" lon="1.9679">
        <ele>145.088379</ele>
        <time>2016-05-08T16:32:34Z</time>
      </trkpt>
      <trkpt lat="48.7106" lon="1.9679">
        <ele>145.101501</ele>
        <time>2016-05-08T16:32:36Z</time>
      </trkpt>
      <trkpt lat="48.7106" lon="1.9679">
        <ele>145.133545</ele>
        <time>2016-05-08T16:32:38Z</time>
      </trkpt>
      <trkpt lat="48.7106" lon="1.9679">
        <ele>145.124207</ele>
        <time>2016-05-08T16:32:40Z</time>
      </trkpt>
      <trkpt lat="48.7106" lon="1.9679">
        <ele>145.113159</ele>
        <time>2016-05-08T16:32:42Z</time>
      </trkpt>
      <trkpt lat="48.7106" lon="1.9679">
        <ele>145.115234</ele>
        <time>2016-05-08T16:32:44Z</time>
      </trkpt>
      <trkpt lat="48.7106" lon="1.9679">
        <ele>145.093567</ele>
        <time>2016-05-08T16:32:46Z</time>
      </trkpt>
      <trkpt lat="48.7106" lon="1.9679">
        <ele>145.088074</ele>
        <time>2016-05-08T16:32:48Z</time>
      </trkpt>
      <trkpt lat="48.71057" lon="1.96794">
        <ele>148.525024</ele>
        <time>2016-05-08T16:32:50Z</time>
      </trkpt>
      <trkpt lat="48.71057" lon="1.96793">
        <ele>145.857422</ele>
        <time>2016-05-08T16:32:52Z</time>
      </trkpt>
      <trkpt lat="48.71057" lon="1.96793">
        <ele>145.499512</ele>
        <time>2016-05-08T16:32:54Z</time>
      </trkpt>
      <trkpt lat="48.71057" lon="1.96793">
        <ele>146.953003</ele>
        <time>2016-05-08T16:32:56Z</time>
      </trkpt>
      <trkpt lat="48.71057" lon="1.96793">
        <ele>146.49762</ele>
        <time>2016-05-08T16:32:58Z</time>
      </trkpt>
      <trkpt lat="48.71057" lon="1.96793">
        <ele>146.500488</ele>
        <time>2016-05-08T16:33:00Z</time>
      </trkpt>
      <trkpt lat="48.71057" lon="1.96793">
        <ele>146.524475</ele>
        <time>2016-05-08T16:33:02Z</time>
      </trkpt>
      <trkpt lat="48.71057" lon="1.96793">
        <ele>146.522888</ele>
        <time>2016-05-08T16:33:04Z</time>
      </trkpt>
      <trkpt lat="48.71057" lon="1.96793">
        <ele>146.529175</ele>
        <time>2016-05-08T16:33:06Z</time>
      </trkpt>
      <trkpt lat="48.71057" lon="1.96793">
        <ele>146.539307</ele>
        <time>2016-05-08T16:33:08Z</time>
      </trkpt>
      <trkpt lat="48.71057" lon="1.96793">
        <ele>146.550415</ele>
        <time>2016-05-08T16:33:10Z</time>
      </trkpt>
      <trkpt lat="48.71057" lon="1.96793">
        <ele>146.550476</ele>
        <time>2016-05-08T16:33:12Z</time>
      </trkpt>
      <trkpt lat="48.71057" lon="1.96793">
        <ele>146.55188</ele>
        <time>2016-05-08T16:33:14Z</time>
      </trkpt>
      <trkpt lat="48.71057" lon="1.96793">
        <ele>146.418579</ele>
        <time>2016-05-08T16:33:16Z</time>
      </trkpt>
      <trkpt lat="48.71057" lon="1.96793">
        <ele>146.420227</ele>
        <time>2016-05-08T16:33:18Z</time>
      </trkpt>
      <trkpt lat="48.71057" lon="1.96793">
        <ele>146.412231</ele>
        <time>2016-05-08T16:33:20Z</time>
      </trkpt>
      <trkpt lat="48.71057" lon="1.96793">
        <ele>146.416382</ele>
        <time>2016-05-08T16:33:22Z</time>
      </trkpt>
      <trkpt lat="48.71057" lon="1.96793">
        <ele>146.414124</ele>
        <time>2016-05-08T16:33:24Z</time>
      </trkpt>
      <trkpt lat="48.71057" lon="1.96793">
        <ele>146.413818</ele>
        <time>2016-05-08T16:33:25Z</time>
      </trkpt>
      <trkpt lat="48.71057" lon="1.96793">
        <ele>146.417358</ele>
        <time>2016-05-08T16:33:27Z</time>
      </trkpt>
      <trkpt lat="48.71057" lon="1.96793">
        <ele>146.414856</ele>
        <time>2016-05-08T16:33:29Z</time>
      </trkpt>
      <trkpt lat="48.71057" lon="1.96793">
        <ele>146.422852</ele>
        <time>2016-05-08T16:33:31Z</time>
      </trkpt>
      <trkpt lat="48.71057" lon="1.96793">
        <ele>146.427979</ele>
        <time>2016-05-08T16:33:33Z</time>
      </trkpt>
      <trkpt lat="48.71057" lon="1.96793">
        <ele>146.432556</ele>
        <time>2016-05-08T16:33:35Z</time>
      </trkpt>
      <trkpt lat="48.71057" lon="1.96793">
        <ele>146.425781</ele>
        <time>2016-05-08T16:33:37Z</time>
      </trkpt>
      <trkpt lat="48.71057" lon="1.96793">
        <ele>146.395752</ele>
        <time>2016-05-08T16:33:39Z</time>
      </trkpt>
      <trkpt lat="48.71057" lon="1.96793">
        <ele>146.438904</ele>
        <time>2016-05-08T16:33:41Z</time>
      </trkpt>
      <trkpt lat="48.71055" lon="1.96791">
        <ele>144.683105</ele>
        <time>2016-05-08T16:33:43Z</time>
      </trkpt>
      <trkpt lat="48.71053" lon="1.96792">
        <ele>143.463989</ele>
        <time>2016-05-08T16:33:45Z</time>
      </trkpt>
      <trkpt lat="48.7105" lon="1.96793">
        <ele>143.103516</ele>
        <time>2016-05-08T16:33:47Z</time>
      </trkpt>
      <trkpt lat="48.71049" lon="1.96794">
        <ele>143.11499</ele>
        <time>2016-05-08T16:33:48Z</time>
      </trkpt>
      <trkpt lat="48.71049" lon="1.96794">
        <ele>142.479248</ele>
        <time>2016-05-08T16:33:50Z</time>
      </trkpt>
      <trkpt lat="48.71049" lon="1.96794">
        <ele>142.481812</ele>
        <time>2016-05-08T16:33:52Z</time>
      </trkpt>
      <trkpt lat="48.71049" lon="1.96794">
        <ele>142.481812</ele>
        <time>2016-05-08T16:33:53Z</time>
      </trkpt>
      <trkpt lat="48.71049" lon="1.96794">
        <ele>142.481812</ele>
        <time>2016-05-08T16:33:54Z</time>
      </trkpt>
      <trkpt lat="48.71049" lon="1.96794">
        <ele>142.475769</ele>
        <time>2016-05-08T16:33:56Z</time>
      </trkpt>
      <trkpt lat="48.71049" lon="1.96794">
        <ele>142.463989</ele>
        <time>2016-05-08T16:33:58Z</time>
      </trkpt>
      <trkpt lat="48.71049" lon="1.96794">
        <ele>142.4646</ele>
        <time>2016-05-08T16:34:00Z</time>
      </trkpt>
      <trkpt lat="48.71049" lon="1.96794">
        <ele>142.956299</ele>
        <time>2016-05-08T16:34:02Z</time>
      </trkpt>
      <trkpt lat="48.71046" lon="1.96796">
        <ele>141.503967</ele>
        <time>2016-05-08T16:34:04Z</time>
      </trkpt>
      <trkpt lat="48.71044" lon="1.96796">
        <ele>142.507751</ele>
        <time>2016-05-08T16:34:06Z</time>
      </trkpt>
      <trkpt lat="48.71042" lon="1.96796">
        <ele>142.830872</ele>
        <time>2016-05-08T16:34:08Z</time>
      </trkpt>
      <trkpt lat="48.7104" lon="1.96796">
        <ele>141.341919</ele>
        <time>2016-05-08T16:34:10Z</time>
      </trkpt>
      <trkpt lat="48.71038" lon="1.96795">
        <ele>140.055176</ele>
        <time>2016-05-08T16:34:12Z</time>
      </trkpt>
      <trkpt lat="48.71037" lon="1.96795">
        <ele>142.58136</ele>
        <time>2016-05-08T16:34:14Z</time>
      </trkpt>
      <trkpt lat="48.71035" lon="1.96795">
        <ele>142.885925</ele>
        <time>2016-05-08T16:34:16Z</time>
      </trkpt>
      <trkpt lat="48.71033" lon="1.96796">
        <ele>143.957214</ele>
        <time>2016-05-08T16:34:18Z</time>
      </trkpt>
      <trkpt lat="48.71031" lon="1.96796">
        <ele>143.038269</ele>
        <time>2016-05-08T16:34:20Z</time>
      </trkpt>
      <trkpt lat="48.71029" lon="1.96797">
        <ele>142.976807</ele>
        <time>2016-05-08T16:34:22Z</time>
      </trkpt>
      <trkpt lat="48.71026" lon="1.96798">
        <ele>143.513062</ele>
        <time>2016-05-08T16:34:24Z</time>
      </trkpt>
      <trkpt lat="48.71026" lon="1.96797">
        <ele>140.52771</ele>
        <time>2016-05-08T16:34:26Z</time>
      </trkpt>
      <trkpt lat="48.71025" lon="1.96797">
        <ele>140.433838</ele>
        <time>2016-05-08T16:34:28Z</time>
      </trkpt>
      <trkpt lat="48.71024" lon="1.96797">
        <ele>141.977173</ele>
        <time>2016-05-08T16:34:30Z</time>
      </trkpt>
      <trkpt lat="48.71023" lon="1.96797">
        <ele>141.732971</ele>
        <time>2016-05-08T16:34:32Z</time>
      </trkpt>
      <trkpt lat="48.71021" lon="1.96798">
        <ele>141.453369</ele>
        <time>2016-05-08T16:34:34Z</time>
      </trkpt>
      <trkpt lat="48.71018" lon="1.968">
        <ele>141.05719</ele>
        <time>2016-05-08T16:34:36Z</time>
      </trkpt>
      <trkpt lat="48.71015" lon="1.96801">
        <ele>141.889587</ele>
        <time>2016-05-08T16:34:38Z</time>
      </trkpt>
      <trkpt lat="48.71013" lon="1.96801">
        <ele>141.986633</ele>
        <time>2016-05-08T16:34:40Z</time>
      </trkpt>
      <trkpt lat="48.7101" lon="1.96801">
        <ele>142.270508</ele>
        <time>2016-05-08T16:34:42Z</time>
      </trkpt>
      <trkpt lat="48.71009" lon="1.96801">
        <ele>142.065735</ele>
        <time>2016-05-08T16:34:44Z</time>
      </trkpt>
      <trkpt lat="48.71007" lon="1.96802">
        <ele>142.279846</ele>
        <time>2016-05-08T16:34:46Z</time>
      </trkpt>
      <trkpt lat="48.71006" lon="1.96804">
        <ele>141.949097</ele>
        <time>2016-05-08T16:34:48Z</time>
      </trkpt>
      <trkpt lat="48.71005" lon="1.96805">
        <ele>141.730347</ele>
        <time>2016-05-08T16:34:50Z</time>
      </trkpt>
      <trkpt lat="48.71004" lon="1.96805">
        <ele>141.646118</ele>
        <time>2016-05-08T16:34:52Z</time>
      </trkpt>
      <trkpt lat="48.71001" lon="1.96805">
        <ele>141.842896</ele>
        <time>2016-05-08T16:34:54Z</time>
      </trkpt>
      <trkpt lat="48.70998" lon="1.96806">
        <ele>142.278137</ele>
        <time>2016-05-08T16:34:56Z</time>
      </trkpt>
      <trkpt lat="48.70995" lon="1.96808">
        <ele>142.652588</ele>
        <time>2016-05-08T16:34:58Z</time>
      </trkpt>
      <trkpt lat="48.70992" lon="1.9681">
        <ele>142.942749</ele>
        <time>2016-05-08T16:35:00Z</time>
      </trkpt>
      <trkpt lat="48.70989" lon="1.9681">
        <ele>143.35083</ele>
        <time>2016-05-08T16:35:02Z</time>
      </trkpt>
      <trkpt lat="48.70987" lon="1.9681">
        <ele>142.685547</ele>
        <time>2016-05-08T16:35:04Z</time>
      </trkpt>
      <trkpt lat="48.70985" lon="1.96811">
        <ele>142.233643</ele>
        <time>2016-05-08T16:35:06Z</time>
      </trkpt>
      <trkpt lat="48.70983" lon="1.96812">
        <ele>142.948853</ele>
        <time>2016-05-08T16:35:08Z</time>
      </trkpt>
      <trkpt lat="48.70981" lon="1.96814">
        <ele>143.301147</ele>
        <time>2016-05-08T16:35:10Z</time>
      </trkpt>
      <trkpt lat="48.70978" lon="1.96815">
        <ele>142.648743</ele>
        <time>2016-05-08T16:35:12Z</time>
      </trkpt>
      <trkpt lat="48.70976" lon="1.96817">
        <ele>141.774109</ele>
        <time>2016-05-08T16:35:14Z</time>
      </trkpt>
      <trkpt lat="48.70974" lon="1.96818">
        <ele>141.683167</ele>
        <time>2016-05-08T16:35:16Z</time>
      </trkpt>
      <trkpt lat="48.70972" lon="1.96819">
        <ele>140.551575</ele>
        <time>2016-05-08T16:35:18Z</time>
      </trkpt>
      <trkpt lat="48.70971" lon="1.9682">
        <ele>138.647705</ele>
        <time>2016-05-08T16:35:20Z</time>
      </trkpt>
      <trkpt lat="48.70969" lon="1.96822">
        <ele>139.861511</ele>
        <time>2016-05-08T16:35:22Z</time>
      </trkpt>
      <trkpt lat="48.70966" lon="1.96823">
        <ele>138.248718</ele>
        <time>2016-05-08T16:35:24Z</time>
      </trkpt>
      <trkpt lat="48.70964" lon="1.96823">
        <ele>138.841858</ele>
        <time>2016-05-08T16:35:26Z</time>
      </trkpt>
      <trkpt lat="48.70961" lon="1.96823">
        <ele>138.395447</ele>
        <time>2016-05-08T16:35:28Z</time>
      </trkpt>
      <trkpt lat="48.70959" lon="1.96824">
        <ele>140.400574</ele>
        <time>2016-05-08T16:35:30Z</time>
      </trkpt>
      <trkpt lat="48.70958" lon="1.96825">
        <ele>141.288574</ele>
        <time>2016-05-08T16:35:32Z</time>
      </trkpt>
      <trkpt lat="48.70956" lon="1.96825">
        <ele>140.990417</ele>
        <time>2016-05-08T16:35:34Z</time>
      </trkpt>
      <trkpt lat="48.70953" lon="1.96826">
        <ele>142.123596</ele>
        <time>2016-05-08T16:35:36Z</time>
      </trkpt>
      <trkpt lat="48.70951" lon="1.96827">
        <ele>144.090637</ele>
        <time>2016-05-08T16:35:38Z</time>
      </trkpt>
      <trkpt lat="48.70948" lon="1.96829">
        <ele>143.720703</ele>
        <time>2016-05-08T16:35:40Z</time>
      </trkpt>
      <trkpt lat="48.70945" lon="1.9683">
        <ele>143.314453</ele>
        <time>2016-05-08T16:35:42Z</time>
      </trkpt>
      <trkpt lat="48.70943" lon="1.9683">
        <ele>145.445251</ele>
        <time>2016-05-08T16:35:44Z</time>
      </trkpt>
      <trkpt lat="48.70939" lon="1.9683">
        <ele>146.110535</ele>
        <time>2016-05-08T16:35:46Z</time>
      </trkpt>
      <trkpt lat="48.70936" lon="1.96829">
        <ele>145.276611</ele>
        <time>2016-05-08T16:35:48Z</time>
      </trkpt>
      <trkpt lat="48.70934" lon="1.96829">
        <ele>146.424377</ele>
        <time>2016-05-08T16:35:50Z</time>
      </trkpt>
      <trkpt lat="48.70932" lon="1.96828">
        <ele>145.425354</ele>
        <time>2016-05-08T16:35:52Z</time>
      </trkpt>
      <trkpt lat="48.7093" lon="1.96827">
        <ele>144.052246</ele>
        <time>2016-05-08T16:35:54Z</time>
      </trkpt>
      <trkpt lat="48.70928" lon="1.96827">
        <ele>145.046875</ele>
        <time>2016-05-08T16:35:56Z</time>
      </trkpt>
      <trkpt lat="48.70927" lon="1.96825">
        <ele>147.504761</ele>
        <time>2016-05-08T16:35:58Z</time>
      </trkpt>
      <trkpt lat="48.70926" lon="1.96823">
        <ele>146.418091</ele>
        <time>2016-05-08T16:36:00Z</time>
      </trkpt>
      <trkpt lat="48.70924" lon="1.96822">
        <ele>145.312378</ele>
        <time>2016-05-08T16:36:02Z</time>
      </trkpt>
      <trkpt lat="48.70921" lon="1.96822">
        <ele>145.647644</ele>
        <time>2016-05-08T16:36:04Z</time>
      </trkpt>
      <trkpt lat="48.70919" lon="1.96822">
        <ele>146.301147</ele>
        <time>2016-05-08T16:36:06Z</time>
      </trkpt>
      <trkpt lat="48.70917" lon="1.96823">
        <ele>146.770203</ele>
        <time>2016-05-08T16:36:08Z</time>
      </trkpt>
      <trkpt lat="48.70916" lon="1.96824">
        <ele>147.923096</ele>
        <time>2016-05-08T16:36:10Z</time>
      </trkpt>
      <trkpt lat="48.70915" lon="1.96825">
        <ele>148.294373</ele>
        <time>2016-05-08T16:36:12Z</time>
      </trkpt>
      <trkpt lat="48.70914" lon="1.96826">
        <ele>148.029175</ele>
        <time>2016-05-08T16:36:14Z</time>
      </trkpt>
      <trkpt lat="48.70913" lon="1.96828">
        <ele>148.259521</ele>
        <time>2016-05-08T16:36:16Z</time>
      </trkpt>
      <trkpt lat="48.70912" lon="1.96829">
        <ele>146.878601</ele>
        <time>2016-05-08T16:36:18Z</time>
      </trkpt>
      <trkpt lat="48.70911" lon="1.96829">
        <ele>146.351257</ele>
        <time>2016-05-08T16:36:20Z</time>
      </trkpt>
      <trkpt lat="48.7091" lon="1.9683">
        <ele>146.098022</ele>
        <time>2016-05-08T16:36:22Z</time>
      </trkpt>
      <trkpt lat="48.70908" lon="1.96831">
        <ele>148.14978</ele>
        <time>2016-05-08T16:36:24Z</time>
      </trkpt>
      <trkpt lat="48.70908" lon="1.96834">
        <ele>148.67688</ele>
        <time>2016-05-08T16:36:26Z</time>
      </trkpt>
      <trkpt lat="48.70906" lon="1.96837">
        <ele>149.842834</ele>
        <time>2016-05-08T16:36:28Z</time>
      </trkpt>
      <trkpt lat="48.70905" lon="1.96839">
        <ele>150.814453</ele>
        <time>2016-05-08T16:36:30Z</time>
      </trkpt>
      <trkpt lat="48.70903" lon="1.96841">
        <ele>150.935059</ele>
        <time>2016-05-08T16:36:32Z</time>
      </trkpt>
      <trkpt lat="48.70902" lon="1.96843">
        <ele>151.848083</ele>
        <time>2016-05-08T16:36:34Z</time>
      </trkpt>
      <trkpt lat="48.70901" lon="1.96845">
        <ele>152.223206</ele>
        <time>2016-05-08T16:36:36Z</time>
      </trkpt>
      <trkpt lat="48.709" lon="1.96848">
        <ele>151.309387</ele>
        <time>2016-05-08T16:36:38Z</time>
      </trkpt>
      <trkpt lat="48.70899" lon="1.9685">
        <ele>150.299988</ele>
        <time>2016-05-08T16:36:40Z</time>
      </trkpt>
      <trkpt lat="48.70898" lon="1.96853">
        <ele>150.656738</ele>
        <time>2016-05-08T16:36:42Z</time>
      </trkpt>
      <trkpt lat="48.70896" lon="1.96855">
        <ele>151.192261</ele>
        <time>2016-05-08T16:36:44Z</time>
      </trkpt>
      <trkpt lat="48.70894" lon="1.96858">
        <ele>148.625122</ele>
        <time>2016-05-08T16:36:46Z</time>
      </trkpt>
      <trkpt lat="48.70892" lon="1.9686">
        <ele>150.234985</ele>
        <time>2016-05-08T16:36:48Z</time>
      </trkpt>
      <trkpt lat="48.7089" lon="1.96863">
        <ele>150.29303</ele>
        <time>2016-05-08T16:36:50Z</time>
      </trkpt>
      <trkpt lat="48.7089" lon="1.96863">
        <ele>149.787903</ele>
        <time>2016-05-08T16:36:52Z</time>
      </trkpt>
      <trkpt lat="48.7089" lon="1.96863">
        <ele>149.794189</ele>
        <time>2016-05-08T16:36:54Z</time>
      </trkpt>
      <trkpt lat="48.7089" lon="1.96863">
        <ele>149.810181</ele>
        <time>2016-05-08T16:36:56Z</time>
      </trkpt>
      <trkpt lat="48.7089" lon="1.96863">
        <ele>149.81073</ele>
        <time>2016-05-08T16:36:58Z</time>
      </trkpt>
      <trkpt lat="48.7089" lon="1.96863">
        <ele>149.828064</ele>
        <time>2016-05-08T16:37:00Z</time>
      </trkpt>
      <trkpt lat="48.7089" lon="1.96863">
        <ele>149.842529</ele>
        <time>2016-05-08T16:37:02Z</time>
      </trkpt>
      <trkpt lat="48.7089" lon="1.96863">
        <ele>149.839661</ele>
        <time>2016-05-08T16:37:04Z</time>
      </trkpt>
      <trkpt lat="48.7089" lon="1.96863">
        <ele>149.865601</ele>
        <time>2016-05-08T16:37:06Z</time>
      </trkpt>
      <trkpt lat="48.7089" lon="1.96863">
        <ele>149.87439</ele>
        <time>2016-05-08T16:37:08Z</time>
      </trkpt>
      <trkpt lat="48.7089" lon="1.96863">
        <ele>149.880493</ele>
        <time>2016-05-08T16:37:10Z</time>
      </trkpt>
      <trkpt lat="48.7089" lon="1.96863">
        <ele>149.888733</ele>
        <time>2016-05-08T16:37:12Z</time>
      </trkpt>
      <trkpt lat="48.7089" lon="1.96863">
        <ele>149.897217</ele>
        <time>2016-05-08T16:37:14Z</time>
      </trkpt>
      <trkpt lat="48.70888" lon="1.96865">
        <ele>150.644958</ele>
        <time>2016-05-08T16:37:16Z</time>
      </trkpt>
      <trkpt lat="48.70886" lon="1.96866">
        <ele>150.003662</ele>
        <time>2016-05-08T16:37:18Z</time>
      </trkpt>
      <trkpt lat="48.70884" lon="1.96868">
        <ele>150.170166</ele>
        <time>2016-05-08T16:37:20Z</time>
      </trkpt>
      <trkpt lat="48.70883" lon="1.96869">
        <ele>149.200439</ele>
        <time>2016-05-08T16:37:22Z</time>
      </trkpt>
      <trkpt lat="48.7088" lon="1.9687">
        <ele>149.273804</ele>
        <time>2016-05-08T16:37:24Z</time>
      </trkpt>
      <trkpt lat="48.70878" lon="1.96872">
        <ele>148.912781</ele>
        <time>2016-05-08T16:37:26Z</time>
      </trkpt>
      <trkpt lat="48.70877" lon="1.96874">
        <ele>150.671265</ele>
        <time>2016-05-08T16:37:28Z</time>
      </trkpt>
      <trkpt lat="48.70876" lon="1.96876">
        <ele>150.458008</ele>
        <time>2016-05-08T16:37:30Z</time>
      </trkpt>
      <trkpt lat="48.70876" lon="1.96878">
        <ele>148.106689</ele>
        <time>2016-05-08T16:37:32Z</time>
      </trkpt>
      <trkpt lat="48.70874" lon="1.96881">
        <ele>149.736755</ele>
        <time>2016-05-08T16:37:34Z</time>
      </trkpt>
      <trkpt lat="48.70872" lon="1.96884">
        <ele>149.842163</ele>
        <time>2016-05-08T16:37:36Z</time>
      </trkpt>
      <trkpt lat="48.70871" lon="1.96886">
        <ele>149.885132</ele>
        <time>2016-05-08T16:37:38Z</time>
      </trkpt>
      <trkpt lat="48.70869" lon="1.96889">
        <ele>149.347229</ele>
        <time>2016-05-08T16:37:40Z</time>
      </trkpt>
      <trkpt lat="48.70867" lon="1.96891">
        <ele>150.093384</ele>
        <time>2016-05-08T16:37:42Z</time>
      </trkpt>
      <trkpt lat="48.70866" lon="1.96893">
        <ele>151.762146</ele>
        <time>2016-05-08T16:37:44Z</time>
      </trkpt>
      <trkpt lat="48.70864" lon="1.96896">
        <ele>152.60437</ele>
        <time>2016-05-08T16:37:46Z</time>
      </trkpt>
      <trkpt lat="48.70863" lon="1.96898">
        <ele>152.86731</ele>
        <time>2016-05-08T16:37:48Z</time>
      </trkpt>
      <trkpt lat="48.70862" lon="1.96901">
        <ele>152.85083</ele>
        <time>2016-05-08T16:37:50Z</time>
      </trkpt>
      <trkpt lat="48.7086" lon="1.96905">
        <ele>152.29364</ele>
        <time>2016-05-08T16:37:52Z</time>
      </trkpt>
      <trkpt lat="48.70858" lon="1.96907">
        <ele>152.693542</ele>
        <time>2016-05-08T16:37:54Z</time>
      </trkpt>
      <trkpt lat="48.70857" lon="1.96909">
        <ele>152.144409</ele>
        <time>2016-05-08T16:37:55Z</time>
      </trkpt>
      <trkpt lat="48.70855" lon="1.9691">
        <ele>152.302124</ele>
        <time>2016-05-08T16:37:56Z</time>
      </trkpt>
      <trkpt lat="48.70854" lon="1.96911">
        <ele>152.446411</ele>
        <time>2016-05-08T16:37:57Z</time>
      </trkpt>
      <trkpt lat="48.70853" lon="1.96912">
        <ele>152.100586</ele>
        <time>2016-05-08T16:37:58Z</time>
      </trkpt>
      <trkpt lat="48.70852" lon="1.96914">
        <ele>152.548706</ele>
        <time>2016-05-08T16:37:59Z</time>
      </trkpt>
      <trkpt lat="48.70851" lon="1.96915">
        <ele>152.56958</ele>
        <time>2016-05-08T16:38:00Z</time>
      </trkpt>
      <trkpt lat="48.70851" lon="1.96916">
        <ele>152.472473</ele>
        <time>2016-05-08T16:38:01Z</time>
      </trkpt>
      <trkpt lat="48.7085" lon="1.96917">
        <ele>152.572998</ele>
        <time>2016-05-08T16:38:02Z</time>
      </trkpt>
      <trkpt lat="48.70849" lon="1.96918">
        <ele>152.853149</ele>
        <time>2016-05-08T16:38:03Z</time>
      </trkpt>
      <trkpt lat="48.70848" lon="1.96919">
        <ele>153.033569</ele>
        <time>2016-05-08T16:38:04Z</time>
      </trkpt>
      <trkpt lat="48.70847" lon="1.96921">
        <ele>152.68811</ele>
        <time>2016-05-08T16:38:05Z</time>
      </trkpt>
      <trkpt lat="48.70846" lon="1.96923">
        <ele>152.157959</ele>
        <time>2016-05-08T16:38:06Z</time>
      </trkpt>
      <trkpt lat="48.70846" lon="1.96924">
        <ele>152.438843</ele>
        <time>2016-05-08T16:38:07Z</time>
      </trkpt>
      <trkpt lat="48.70845" lon="1.96925">
        <ele>152.358826</ele>
        <time>2016-05-08T16:38:08Z</time>
      </trkpt>
      <trkpt lat="48.70845" lon="1.96926">
        <ele>152.608398</ele>
        <time>2016-05-08T16:38:09Z</time>
      </trkpt>
      <trkpt lat="48.70844" lon="1.96927">
        <ele>152.378601</ele>
        <time>2016-05-08T16:38:10Z</time>
      </trkpt>
      <trkpt lat="48.70844" lon="1.96928">
        <ele>151.832031</ele>
        <time>2016-05-08T16:38:11Z</time>
      </trkpt>
      <trkpt lat="48.70843" lon="1.96929">
        <ele>151.44043</ele>
        <time>2016-05-08T16:38:12Z</time>
      </trkpt>
      <trkpt lat="48.70843" lon="1.96931">
        <ele>150.890076</ele>
        <time>2016-05-08T16:38:13Z</time>
      </trkpt>
      <trkpt lat="48.70842" lon="1.96932">
        <ele>149.998291</ele>
        <time>2016-05-08T16:38:14Z</time>
      </trkpt>
      <trkpt lat="48.70842" lon="1.96932">
        <ele>150.318054</ele>
        <time>2016-05-08T16:38:15Z</time>
      </trkpt>
      <trkpt lat="48.70841" lon="1.96933">
        <ele>149.65686</ele>
        <time>2016-05-08T16:38:16Z</time>
      </trkpt>
      <trkpt lat="48.70841" lon="1.96933">
        <ele>148.959412</ele>
        <time>2016-05-08T16:38:17Z</time>
      </trkpt>
      <trkpt lat="48.7084" lon="1.96935">
        <ele>149.325745</ele>
        <time>2016-05-08T16:38:18Z</time>
      </trkpt>
      <trkpt lat="48.70839" lon="1.96936">
        <ele>149.986633</ele>
        <time>2016-05-08T16:38:19Z</time>
      </trkpt>
      <trkpt lat="48.70839" lon="1.96937">
        <ele>150.520447</ele>
        <time>2016-05-08T16:38:20Z</time>
      </trkpt>
      <trkpt lat="48.70838" lon="1.96939">
        <ele>151.121155</ele>
        <time>2016-05-08T16:38:21Z</time>
      </trkpt>
      <trkpt lat="48.70837" lon="1.96941">
        <ele>150.888367</ele>
        <time>2016-05-08T16:38:22Z</time>
      </trkpt>
      <trkpt lat="48.70836" lon="1.96943">
        <ele>151.656006</ele>
        <time>2016-05-08T16:38:23Z</time>
      </trkpt>
      <trkpt lat="48.70836" lon="1.96945">
        <ele>151.967041</ele>
        <time>2016-05-08T16:38:24Z</time>
      </trkpt>
      <trkpt lat="48.70835" lon="1.96948">
        <ele>153.12854</ele>
        <time>2016-05-08T16:38:25Z</time>
      </trkpt>
      <trkpt lat="48.70834" lon="1.9695">
        <ele>152.804871</ele>
        <time>2016-05-08T16:38:26Z</time>
      </trkpt>
      <trkpt lat="48.70833" lon="1.96951">
        <ele>152.275391</ele>
        <time>2016-05-08T16:38:27Z</time>
      </trkpt>
      <trkpt lat="48.70832" lon="1.96953">
        <ele>152.365723</ele>
        <time>2016-05-08T16:38:28Z</time>
      </trkpt>
      <trkpt lat="48.70831" lon="1.96954">
        <ele>153.261536</ele>
        <time>2016-05-08T16:38:29Z</time>
      </trkpt>
      <trkpt lat="48.7083" lon="1.96955">
        <ele>153.12085</ele>
        <time>2016-05-08T16:38:30Z</time>
      </trkpt>
      <trkpt lat="48.70829" lon="1.96956">
        <ele>151.723511</ele>
        <time>2016-05-08T16:38:31Z</time>
      </trkpt>
      <trkpt lat="48.70829" lon="1.96957">
        <ele>151.976929</ele>
        <time>2016-05-08T16:38:32Z</time>
      </trkpt>
      <trkpt lat="48.70828" lon="1.96959">
        <ele>152.234619</ele>
        <time>2016-05-08T16:38:33Z</time>
      </trkpt>
      <trkpt lat="48.70827" lon="1.9696">
        <ele>151.779724</ele>
        <time>2016-05-08T16:38:34Z</time>
      </trkpt>
      <trkpt lat="48.70826" lon="1.96961">
        <ele>152.38916</ele>
        <time>2016-05-08T16:38:35Z</time>
      </trkpt>
      <trkpt lat="48.70825" lon="1.96962">
        <ele>151.860046</ele>
        <time>2016-05-08T16:38:36Z</time>
      </trkpt>
      <trkpt lat="48.70824" lon="1.96962">
        <ele>151.881104</ele>
        <time>2016-05-08T16:38:37Z</time>
      </trkpt>
      <trkpt lat="48.70822" lon="1.96963">
        <ele>151.670593</ele>
        <time>2016-05-08T16:38:38Z</time>
      </trkpt>
      <trkpt lat="48.70821" lon="1.96964">
        <ele>151.248169</ele>
        <time>2016-05-08T16:38:39Z</time>
      </trkpt>
      <trkpt lat="48.7082" lon="1.96966">
        <ele>150.990173</ele>
        <time>2016-05-08T16:38:40Z</time>
      </trkpt>
      <trkpt lat="48.70819" lon="1.96966">
        <ele>150.919312</ele>
        <time>2016-05-08T16:38:41Z</time>
      </trkpt>
      <trkpt lat="48.70819" lon="1.96967">
        <ele>150.422729</ele>
        <time>2016-05-08T16:38:42Z</time>
      </trkpt>
      <trkpt lat="48.70818" lon="1.96968">
        <ele>150.862671</ele>
        <time>2016-05-08T16:38:43Z</time>
      </trkpt>
      <trkpt lat="48.70817" lon="1.96968">
        <ele>150.616577</ele>
        <time>2016-05-08T16:38:44Z</time>
      </trkpt>
      <trkpt lat="48.70816" lon="1.96969">
        <ele>151.040405</ele>
        <time>2016-05-08T16:38:45Z</time>
      </trkpt>
      <trkpt lat="48.70815" lon="1.96971">
        <ele>150.269165</ele>
        <time>2016-05-08T16:38:46Z</time>
      </trkpt>
      <trkpt lat="48.70814" lon="1.96972">
        <ele>150.562134</ele>
        <time>2016-05-08T16:38:47Z</time>
      </trkpt>
      <trkpt lat="48.70813" lon="1.96973">
        <ele>150.111572</ele>
        <time>2016-05-08T16:38:48Z</time>
      </trkpt>
      <trkpt lat="48.70813" lon="1.96974">
        <ele>149.764282</ele>
        <time>2016-05-08T16:38:49Z</time>
      </trkpt>
      <trkpt lat="48.70812" lon="1.96976">
        <ele>150.715332</ele>
        <time>2016-05-08T16:38:50Z</time>
      </trkpt>
      <trkpt lat="48.70811" lon="1.96978">
        <ele>151.07605</ele>
        <time>2016-05-08T16:38:51Z</time>
      </trkpt>
      <trkpt lat="48.7081" lon="1.96979">
        <ele>151.806519</ele>
        <time>2016-05-08T16:38:52Z</time>
      </trkpt>
      <trkpt lat="48.70809" lon="1.9698">
        <ele>151.28186</ele>
        <time>2016-05-08T16:38:53Z</time>
      </trkpt>
      <trkpt lat="48.70808" lon="1.96982">
        <ele>150.422485</ele>
        <time>2016-05-08T16:38:54Z</time>
      </trkpt>
      <trkpt lat="48.70807" lon="1.96984">
        <ele>150.8573</ele>
        <time>2016-05-08T16:38:55Z</time>
      </trkpt>
      <trkpt lat="48.70806" lon="1.96986">
        <ele>152.18927</ele>
        <time>2016-05-08T16:38:56Z</time>
      </trkpt>
      <trkpt lat="48.70805" lon="1.96988">
        <ele>151.457458</ele>
        <time>2016-05-08T16:38:57Z</time>
      </trkpt>
      <trkpt lat="48.70804" lon="1.9699">
        <ele>151.547424</ele>
        <time>2016-05-08T16:38:58Z</time>
      </trkpt>
      <trkpt lat="48.70803" lon="1.96991">
        <ele>152.030518</ele>
        <time>2016-05-08T16:38:59Z</time>
      </trkpt>
      <trkpt lat="48.70801" lon="1.96993">
        <ele>149.089233</ele>
        <time>2016-05-08T16:39:00Z</time>
      </trkpt>
      <trkpt lat="48.708" lon="1.96995">
        <ele>149.070312</ele>
        <time>2016-05-08T16:39:01Z</time>
      </trkpt>
      <trkpt lat="48.708" lon="1.96995">
        <ele>149.30072</ele>
        <time>2016-05-08T16:39:02Z</time>
      </trkpt>
      <trkpt lat="48.70799" lon="1.96996">
        <ele>149.738831</ele>
        <time>2016-05-08T16:39:03Z</time>
      </trkpt>
      <trkpt lat="48.70798" lon="1.96997">
        <ele>148.537109</ele>
        <time>2016-05-08T16:39:04Z</time>
      </trkpt>
      <trkpt lat="48.70798" lon="1.96998">
        <ele>148.391602</ele>
        <time>2016-05-08T16:39:05Z</time>
      </trkpt>
      <trkpt lat="48.70797" lon="1.97">
        <ele>147.903015</ele>
        <time>2016-05-08T16:39:06Z</time>
      </trkpt>
      <trkpt lat="48.70797" lon="1.97001">
        <ele>148.281006</ele>
        <time>2016-05-08T16:39:07Z</time>
      </trkpt>
      <trkpt lat="48.70796" lon="1.97003">
        <ele>149.262146</ele>
        <time>2016-05-08T16:39:08Z</time>
      </trkpt>
      <trkpt lat="48.70795" lon="1.97004">
        <ele>148.68927</ele>
        <time>2016-05-08T16:39:09Z</time>
      </trkpt>
      <trkpt lat="48.70794" lon="1.97006">
        <ele>147.473938</ele>
        <time>2016-05-08T16:39:10Z</time>
      </trkpt>
      <trkpt lat="48.70792" lon="1.97007">
        <ele>147.033813</ele>
        <time>2016-05-08T16:39:11Z</time>
      </trkpt>
      <trkpt lat="48.70791" lon="1.97009">
        <ele>146.275635</ele>
        <time>2016-05-08T16:39:12Z</time>
      </trkpt>
      <trkpt lat="48.7079" lon="1.9701">
        <ele>146.219604</ele>
        <time>2016-05-08T16:39:13Z</time>
      </trkpt>
      <trkpt lat="48.70789" lon="1.97012">
        <ele>147.058594</ele>
        <time>2016-05-08T16:39:14Z</time>
      </trkpt>
      <trkpt lat="48.70788" lon="1.97013">
        <ele>146.765076</ele>
        <time>2016-05-08T16:39:15Z</time>
      </trkpt>
      <trkpt lat="48.70788" lon="1.97014">
        <ele>147.23877</ele>
        <time>2016-05-08T16:39:16Z</time>
      </trkpt>
      <trkpt lat="48.70787" lon="1.97015">
        <ele>146.847046</ele>
        <time>2016-05-08T16:39:17Z</time>
      </trkpt>
      <trkpt lat="48.70786" lon="1.97017">
        <ele>146.654968</ele>
        <time>2016-05-08T16:39:18Z</time>
      </trkpt>
      <trkpt lat="48.70784" lon="1.97018">
        <ele>146.876343</ele>
        <time>2016-05-08T16:39:19Z</time>
      </trkpt>
      <trkpt lat="48.70783" lon="1.97019">
        <ele>147.788391</ele>
        <time>2016-05-08T16:39:20Z</time>
      </trkpt>
      <trkpt lat="48.70782" lon="1.9702">
        <ele>148.146973</ele>
        <time>2016-05-08T16:39:21Z</time>
      </trkpt>
      <trkpt lat="48.70781" lon="1.97022">
        <ele>148.521851</ele>
        <time>2016-05-08T16:39:22Z</time>
      </trkpt>
      <trkpt lat="48.70779" lon="1.97023">
        <ele>148.754883</ele>
        <time>2016-05-08T16:39:23Z</time>
      </trkpt>
      <trkpt lat="48.70779" lon="1.97024">
        <ele>148.017883</ele>
        <time>2016-05-08T16:39:24Z</time>
      </trkpt>
      <trkpt lat="48.70778" lon="1.97026">
        <ele>148.006287</ele>
        <time>2016-05-08T16:39:25Z</time>
      </trkpt>
      <trkpt lat="48.70777" lon="1.97027">
        <ele>148.109192</ele>
        <time>2016-05-08T16:39:26Z</time>
      </trkpt>
      <trkpt lat="48.70776" lon="1.97028">
        <ele>148.607239</ele>
        <time>2016-05-08T16:39:27Z</time>
      </trkpt>
      <trkpt lat="48.70776" lon="1.97029">
        <ele>148.609131</ele>
        <time>2016-05-08T16:39:28Z</time>
      </trkpt>
      <trkpt lat="48.70775" lon="1.9703">
        <ele>148.433167</ele>
        <time>2016-05-08T16:39:29Z</time>
      </trkpt>
      <trkpt lat="48.70775" lon="1.97031">
        <ele>147.962646</ele>
        <time>2016-05-08T16:39:30Z</time>
      </trkpt>
      <trkpt lat="48.70775" lon="1.97032">
        <ele>148.936279</ele>
        <time>2016-05-08T16:39:31Z</time>
      </trkpt>
      <trkpt lat="48.70775" lon="1.97033">
        <ele>148.578369</ele>
        <time>2016-05-08T16:39:32Z</time>
      </trkpt>
      <trkpt lat="48.70775" lon="1.97033">
        <ele>148.947266</ele>
        <time>2016-05-08T16:39:33Z</time>
      </trkpt>
      <trkpt lat="48.70776" lon="1.97034">
        <ele>149.643372</ele>
        <time>2016-05-08T16:39:34Z</time>
      </trkpt>
      <trkpt lat="48.70775" lon="1.97036">
        <ele>148.863892</ele>
        <time>2016-05-08T16:39:35Z</time>
      </trkpt>
      <trkpt lat="48.70775" lon="1.97037">
        <ele>148.398621</ele>
        <time>2016-05-08T16:39:36Z</time>
      </trkpt>
      <trkpt lat="48.70775" lon="1.97039">
        <ele>148.820007</ele>
        <time>2016-05-08T16:39:37Z</time>
      </trkpt>
      <trkpt lat="48.70774" lon="1.97041">
        <ele>149.028687</ele>
        <time>2016-05-08T16:39:38Z</time>
      </trkpt>
      <trkpt lat="48.70774" lon="1.97043">
        <ele>148.134521</ele>
        <time>2016-05-08T16:39:39Z</time>
      </trkpt>
      <trkpt lat="48.70773" lon="1.97045">
        <ele>148.639038</ele>
        <time>2016-05-08T16:39:40Z</time>
      </trkpt>
      <trkpt lat="48.70772" lon="1.97046">
        <ele>149.099121</ele>
        <time>2016-05-08T16:39:41Z</time>
      </trkpt>
      <trkpt lat="48.70772" lon="1.97048">
        <ele>148.721436</ele>
        <time>2016-05-08T16:39:42Z</time>
      </trkpt>
      <trkpt lat="48.70772" lon="1.9705">
        <ele>148.065125</ele>
        <time>2016-05-08T16:39:43Z</time>
      </trkpt>
      <trkpt lat="48.70771" lon="1.97051">
        <ele>147.983765</ele>
        <time>2016-05-08T16:39:44Z</time>
      </trkpt>
      <trkpt lat="48.7077" lon="1.97052">
        <ele>147.978516</ele>
        <time>2016-05-08T16:39:45Z</time>
      </trkpt>
      <trkpt lat="48.7077" lon="1.97054">
        <ele>148.177612</ele>
        <time>2016-05-08T16:39:46Z</time>
      </trkpt>
      <trkpt lat="48.70769" lon="1.97055">
        <ele>148.342285</ele>
        <time>2016-05-08T16:39:47Z</time>
      </trkpt>
      <trkpt lat="48.70769" lon="1.97056">
        <ele>149.007202</ele>
        <time>2016-05-08T16:39:48Z</time>
      </trkpt>
      <trkpt lat="48.70769" lon="1.97056">
        <ele>148.924194</ele>
        <time>2016-05-08T16:39:49Z</time>
      </trkpt>
      <trkpt lat="48.70769" lon="1.97057">
        <ele>148.236694</ele>
        <time>2016-05-08T16:39:50Z</time>
      </trkpt>
      <trkpt lat="48.70769" lon="1.97058">
        <ele>148.091064</ele>
        <time>2016-05-08T16:39:51Z</time>
      </trkpt>
      <trkpt lat="48.70768" lon="1.97059">
        <ele>148.070801</ele>
        <time>2016-05-08T16:39:52Z</time>
      </trkpt>
      <trkpt lat="48.70768" lon="1.9706">
        <ele>146.904114</ele>
        <time>2016-05-08T16:39:53Z</time>
      </trkpt>
      <trkpt lat="48.70769" lon="1.97061">
        <ele>147.092896</ele>
        <time>2016-05-08T16:39:54Z</time>
      </trkpt>
      <trkpt lat="48.7077" lon="1.97062">
        <ele>147.187622</ele>
        <time>2016-05-08T16:39:55Z</time>
      </trkpt>
      <trkpt lat="48.70771" lon="1.97063">
        <ele>147.39093</ele>
        <time>2016-05-08T16:39:56Z</time>
      </trkpt>
      <trkpt lat="48.70771" lon="1.97064">
        <ele>147.145569</ele>
        <time>2016-05-08T16:39:57Z</time>
      </trkpt>
      <trkpt lat="48.70771" lon="1.97065">
        <ele>147.685852</ele>
        <time>2016-05-08T16:39:58Z</time>
      </trkpt>
      <trkpt lat="48.7077" lon="1.97067">
        <ele>147.7854</ele>
        <time>2016-05-08T16:39:59Z</time>
      </trkpt>
      <trkpt lat="48.70769" lon="1.97068">
        <ele>147.971191</ele>
        <time>2016-05-08T16:40:00Z</time>
      </trkpt>
      <trkpt lat="48.70768" lon="1.97069">
        <ele>148.536743</ele>
        <time>2016-05-08T16:40:01Z</time>
      </trkpt>
      <trkpt lat="48.70767" lon="1.97069">
        <ele>148.573792</ele>
        <time>2016-05-08T16:40:02Z</time>
      </trkpt>
      <trkpt lat="48.70766" lon="1.9707">
        <ele>149.037964</ele>
        <time>2016-05-08T16:40:03Z</time>
      </trkpt>
      <trkpt lat="48.70766" lon="1.97069">
        <ele>148.978821</ele>
        <time>2016-05-08T16:40:04Z</time>
      </trkpt>
      <trkpt lat="48.70766" lon="1.97069">
        <ele>149.955444</ele>
        <time>2016-05-08T16:40:05Z</time>
      </trkpt>
      <trkpt lat="48.70766" lon="1.97069">
        <ele>149.737793</ele>
        <time>2016-05-08T16:40:06Z</time>
      </trkpt>
      <trkpt lat="48.70766" lon="1.97069">
        <ele>150.146667</ele>
        <time>2016-05-08T16:40:07Z</time>
      </trkpt>
      <trkpt lat="48.70766" lon="1.97069">
        <ele>149.990784</ele>
        <time>2016-05-08T16:40:08Z</time>
      </trkpt>
      <trkpt lat="48.70766" lon="1.97069">
        <ele>150.491943</ele>
        <time>2016-05-08T16:40:09Z</time>
      </trkpt>
      <trkpt lat="48.70766" lon="1.97069">
        <ele>150.179749</ele>
        <time>2016-05-08T16:40:10Z</time>
      </trkpt>
      <trkpt lat="48.70766" lon="1.97069">
        <ele>149.862488</ele>
        <time>2016-05-08T16:40:11Z</time>
      </trkpt>
      <trkpt lat="48.70766" lon="1.97069">
        <ele>150.34906</ele>
        <time>2016-05-08T16:40:12Z</time>
      </trkpt>
      <trkpt lat="48.70766" lon="1.97069">
        <ele>150.42041</ele>
        <time>2016-05-08T16:40:13Z</time>
      </trkpt>
      <trkpt lat="48.70765" lon="1.9707">
        <ele>150.564392</ele>
        <time>2016-05-08T16:40:14Z</time>
      </trkpt>
      <trkpt lat="48.70764" lon="1.97071">
        <ele>151.222229</ele>
        <time>2016-05-08T16:40:15Z</time>
      </trkpt>
      <trkpt lat="48.70763" lon="1.97072">
        <ele>151.702637</ele>
        <time>2016-05-08T16:40:16Z</time>
      </trkpt>
      <trkpt lat="48.70763" lon="1.97073">
        <ele>151.582214</ele>
        <time>2016-05-08T16:40:17Z</time>
      </trkpt>
      <trkpt lat="48.70762" lon="1.97075">
        <ele>151.698914</ele>
        <time>2016-05-08T16:40:18Z</time>
      </trkpt>
      <trkpt lat="48.70763" lon="1.97076">
        <ele>151.446777</ele>
        <time>2016-05-08T16:40:19Z</time>
      </trkpt>
      <trkpt lat="48.70763" lon="1.97078">
        <ele>151.563538</ele>
        <time>2016-05-08T16:40:20Z</time>
      </trkpt>
      <trkpt lat="48.70763" lon="1.97079">
        <ele>152.079224</ele>
        <time>2016-05-08T16:40:21Z</time>
      </trkpt>
      <trkpt lat="48.70763" lon="1.9708">
        <ele>152.847412</ele>
        <time>2016-05-08T16:40:22Z</time>
      </trkpt>
      <trkpt lat="48.70763" lon="1.97082">
        <ele>152.956238</ele>
        <time>2016-05-08T16:40:23Z</time>
      </trkpt>
      <trkpt lat="48.70764" lon="1.97083">
        <ele>153.1521</ele>
        <time>2016-05-08T16:40:24Z</time>
      </trkpt>
      <trkpt lat="48.70764" lon="1.97085">
        <ele>153.174438</ele>
        <time>2016-05-08T16:40:25Z</time>
      </trkpt>
      <trkpt lat="48.70764" lon="1.97087">
        <ele>152.625122</ele>
        <time>2016-05-08T16:40:26Z</time>
      </trkpt>
      <trkpt lat="48.70764" lon="1.97088">
        <ele>152.970276</ele>
        <time>2016-05-08T16:40:27Z</time>
      </trkpt>
      <trkpt lat="48.70764" lon="1.97089">
        <ele>152.510315</ele>
        <time>2016-05-08T16:40:28Z</time>
      </trkpt>
      <trkpt lat="48.70763" lon="1.9709">
        <ele>152.537842</ele>
        <time>2016-05-08T16:40:29Z</time>
      </trkpt>
      <trkpt lat="48.70763" lon="1.97092">
        <ele>152.608704</ele>
        <time>2016-05-08T16:40:30Z</time>
      </trkpt>
      <trkpt lat="48.70762" lon="1.97093">
        <ele>152.209656</ele>
        <time>2016-05-08T16:40:31Z</time>
      </trkpt>
      <trkpt lat="48.70762" lon="1.97094">
        <ele>152.576111</ele>
        <time>2016-05-08T16:40:32Z</time>
      </trkpt>
      <trkpt lat="48.70762" lon="1.97095">
        <ele>152.828796</ele>
        <time>2016-05-08T16:40:33Z</time>
      </trkpt>
      <trkpt lat="48.70762" lon="1.97097">
        <ele>152.346741</ele>
        <time>2016-05-08T16:40:34Z</time>
      </trkpt>
      <trkpt lat="48.70761" lon="1.97099">
        <ele>152.638062</ele>
        <time>2016-05-08T16:40:35Z</time>
      </trkpt>
      <trkpt lat="48.70761" lon="1.97101">
        <ele>152.584534</ele>
        <time>2016-05-08T16:40:36Z</time>
      </trkpt>
      <trkpt lat="48.7076" lon="1.97103">
        <ele>152.71875</ele>
        <time>2016-05-08T16:40:37Z</time>
      </trkpt>
      <trkpt lat="48.7076" lon="1.97105">
        <ele>153.029907</ele>
        <time>2016-05-08T16:40:38Z</time>
      </trkpt>
      <trkpt lat="48.7076" lon="1.97108">
        <ele>152.920898</ele>
        <time>2016-05-08T16:40:39Z</time>
      </trkpt>
      <trkpt lat="48.70761" lon="1.9711">
        <ele>152.626648</ele>
        <time>2016-05-08T16:40:40Z</time>
      </trkpt>
      <trkpt lat="48.70762" lon="1.97112">
        <ele>152.90979</ele>
        <time>2016-05-08T16:40:41Z</time>
      </trkpt>
      <trkpt lat="48.70762" lon="1.97114">
        <ele>152.776123</ele>
        <time>2016-05-08T16:40:42Z</time>
      </trkpt>
      <trkpt lat="48.70762" lon="1.97115">
        <ele>152.836609</ele>
        <time>2016-05-08T16:40:43Z</time>
      </trkpt>
      <trkpt lat="48.70762" lon="1.97117">
        <ele>152.527161</ele>
        <time>2016-05-08T16:40:44Z</time>
      </trkpt>
      <trkpt lat="48.70762" lon="1.97118">
        <ele>152.035706</ele>
        <time>2016-05-08T16:40:45Z</time>
      </trkpt>
      <trkpt lat="48.70762" lon="1.97119">
        <ele>152.960083</ele>
        <time>2016-05-08T16:40:46Z</time>
      </trkpt>
      <trkpt lat="48.70761" lon="1.9712">
        <ele>153.068726</ele>
        <time>2016-05-08T16:40:47Z</time>
      </trkpt>
      <trkpt lat="48.70761" lon="1.97121">
        <ele>153.307312</ele>
        <time>2016-05-08T16:40:48Z</time>
      </trkpt>
      <trkpt lat="48.70761" lon="1.97122">
        <ele>153.207397</ele>
        <time>2016-05-08T16:40:49Z</time>
      </trkpt>
      <trkpt lat="48.70761" lon="1.97123">
        <ele>152.575256</ele>
        <time>2016-05-08T16:40:50Z</time>
      </trkpt>
      <trkpt lat="48.7076" lon="1.97124">
        <ele>152.773865</ele>
        <time>2016-05-08T16:40:51Z</time>
      </trkpt>
      <trkpt lat="48.70759" lon="1.97126">
        <ele>152.642578</ele>
        <time>2016-05-08T16:40:52Z</time>
      </trkpt>
      <trkpt lat="48.70758" lon="1.97127">
        <ele>152.553223</ele>
        <time>2016-05-08T16:40:53Z</time>
      </trkpt>
      <trkpt lat="48.70757" lon="1.97129">
        <ele>152.437866</ele>
        <time>2016-05-08T16:40:54Z</time>
      </trkpt>
      <trkpt lat="48.70756" lon="1.97131">
        <ele>152.322632</ele>
        <time>2016-05-08T16:40:55Z</time>
      </trkpt>
      <trkpt lat="48.70756" lon="1.97132">
        <ele>152.370361</ele>
        <time>2016-05-08T16:40:56Z</time>
      </trkpt>
      <trkpt lat="48.70755" lon="1.97133">
        <ele>152.233643</ele>
        <time>2016-05-08T16:40:57Z</time>
      </trkpt>
      <trkpt lat="48.70754" lon="1.97135">
        <ele>153.112122</ele>
        <time>2016-05-08T16:40:58Z</time>
      </trkpt>
      <trkpt lat="48.70753" lon="1.97137">
        <ele>152.552124</ele>
        <time>2016-05-08T16:40:59Z</time>
      </trkpt>
      <trkpt lat="48.70753" lon="1.97137">
        <ele>153.184448</ele>
        <time>2016-05-08T16:41:00Z</time>
      </trkpt>
      <trkpt lat="48.70752" lon="1.97139">
        <ele>153.622803</ele>
        <time>2016-05-08T16:41:01Z</time>
      </trkpt>
      <trkpt lat="48.70751" lon="1.9714">
        <ele>154.33252</ele>
        <time>2016-05-08T16:41:02Z</time>
      </trkpt>
      <trkpt lat="48.7075" lon="1.97142">
        <ele>154.66748</ele>
        <time>2016-05-08T16:41:03Z</time>
      </trkpt>
      <trkpt lat="48.70749" lon="1.97143">
        <ele>155.415405</ele>
        <time>2016-05-08T16:41:04Z</time>
      </trkpt>
      <trkpt lat="48.70749" lon="1.97144">
        <ele>155.727356</ele>
        <time>2016-05-08T16:41:05Z</time>
      </trkpt>
      <trkpt lat="48.70748" lon="1.97145">
        <ele>155.937805</ele>
        <time>2016-05-08T16:41:06Z</time>
      </trkpt>
      <trkpt lat="48.70748" lon="1.97147">
        <ele>156.867004</ele>
        <time>2016-05-08T16:41:07Z</time>
      </trkpt>
      <trkpt lat="48.70747" lon="1.9715">
        <ele>156.459106</ele>
        <time>2016-05-08T16:41:08Z</time>
      </trkpt>
      <trkpt lat="48.70746" lon="1.97152">
        <ele>156.847839</ele>
        <time>2016-05-08T16:41:09Z</time>
      </trkpt>
      <trkpt lat="48.70745" lon="1.97154">
        <ele>157.031555</ele>
        <time>2016-05-08T16:41:10Z</time>
      </trkpt>
      <trkpt lat="48.70744" lon="1.97155">
        <ele>157.066589</ele>
        <time>2016-05-08T16:41:11Z</time>
      </trkpt>
      <trkpt lat="48.70743" lon="1.97157">
        <ele>157.116699</ele>
        <time>2016-05-08T16:41:12Z</time>
      </trkpt>
      <trkpt lat="48.70743" lon="1.97159">
        <ele>157.202087</ele>
        <time>2016-05-08T16:41:13Z</time>
      </trkpt>
      <trkpt lat="48.70743" lon="1.9716">
        <ele>157.392517</ele>
        <time>2016-05-08T16:41:14Z</time>
      </trkpt>
      <trkpt lat="48.70742" lon="1.97162">
        <ele>157.064758</ele>
        <time>2016-05-08T16:41:15Z</time>
      </trkpt>
      <trkpt lat="48.70743" lon="1.97163">
        <ele>156.468262</ele>
        <time>2016-05-08T16:41:16Z</time>
      </trkpt>
      <trkpt lat="48.70743" lon="1.97165">
        <ele>156.91571</ele>
        <time>2016-05-08T16:41:17Z</time>
      </trkpt>
      <trkpt lat="48.70742" lon="1.97167">
        <ele>156.87915</ele>
        <time>2016-05-08T16:41:18Z</time>
      </trkpt>
      <trkpt lat="48.70741" lon="1.97168">
        <ele>156.232422</ele>
        <time>2016-05-08T16:41:19Z</time>
      </trkpt>
      <trkpt lat="48.7074" lon="1.97169">
        <ele>156.092773</ele>
        <time>2016-05-08T16:41:20Z</time>
      </trkpt>
      <trkpt lat="48.7074" lon="1.9717">
        <ele>156.68634</ele>
        <time>2016-05-08T16:41:21Z</time>
      </trkpt>
      <trkpt lat="48.7074" lon="1.97171">
        <ele>157.153259</ele>
        <time>2016-05-08T16:41:22Z</time>
      </trkpt>
      <trkpt lat="48.70739" lon="1.97173">
        <ele>156.646484</ele>
        <time>2016-05-08T16:41:23Z</time>
      </trkpt>
      <trkpt lat="48.70738" lon="1.97175">
        <ele>156.815979</ele>
        <time>2016-05-08T16:41:24Z</time>
      </trkpt>
      <trkpt lat="48.70738" lon="1.97176">
        <ele>157.062012</ele>
        <time>2016-05-08T16:41:25Z</time>
      </trkpt>
      <trkpt lat="48.70738" lon="1.97177">
        <ele>157.359314</ele>
        <time>2016-05-08T16:41:26Z</time>
      </trkpt>
      <trkpt lat="48.70738" lon="1.97179">
        <ele>157.763123</ele>
        <time>2016-05-08T16:41:27Z</time>
      </trkpt>
      <trkpt lat="48.70737" lon="1.9718">
        <ele>158.140991</ele>
        <time>2016-05-08T16:41:28Z</time>
      </trkpt>
      <trkpt lat="48.70737" lon="1.97181">
        <ele>158.260986</ele>
        <time>2016-05-08T16:41:29Z</time>
      </trkpt>
      <trkpt lat="48.70736" lon="1.97182">
        <ele>158.274963</ele>
        <time>2016-05-08T16:41:30Z</time>
      </trkpt>
      <trkpt lat="48.70736" lon="1.97183">
        <ele>158.330933</ele>
        <time>2016-05-08T16:41:31Z</time>
      </trkpt>
      <trkpt lat="48.70735" lon="1.97185">
        <ele>158.080139</ele>
        <time>2016-05-08T16:41:32Z</time>
      </trkpt>
      <trkpt lat="48.70735" lon="1.97187">
        <ele>158.240845</ele>
        <time>2016-05-08T16:41:33Z</time>
      </trkpt>
      <trkpt lat="48.70735" lon="1.9719">
        <ele>159.026855</ele>
        <time>2016-05-08T16:41:34Z</time>
      </trkpt>
      <trkpt lat="48.70735" lon="1.97193">
        <ele>159.081848</ele>
        <time>2016-05-08T16:41:35Z</time>
      </trkpt>
      <trkpt lat="48.70733" lon="1.97195">
        <ele>158.416565</ele>
        <time>2016-05-08T16:41:36Z</time>
      </trkpt>
      <trkpt lat="48.70732" lon="1.97196">
        <ele>158.327332</ele>
        <time>2016-05-08T16:41:37Z</time>
      </trkpt>
      <trkpt lat="48.70732" lon="1.97197">
        <ele>157.907593</ele>
        <time>2016-05-08T16:41:38Z</time>
      </trkpt>
      <trkpt lat="48.70732" lon="1.972">
        <ele>157.575256</ele>
        <time>2016-05-08T16:41:39Z</time>
      </trkpt>
      <trkpt lat="48.70732" lon="1.97202">
        <ele>157.792236</ele>
        <time>2016-05-08T16:41:40Z</time>
      </trkpt>
      <trkpt lat="48.70733" lon="1.97204">
        <ele>158.228638</ele>
        <time>2016-05-08T16:41:41Z</time>
      </trkpt>
      <trkpt lat="48.70733" lon="1.97206">
        <ele>158.550781</ele>
        <time>2016-05-08T16:41:42Z</time>
      </trkpt>
      <trkpt lat="48.70732" lon="1.97208">
        <ele>158.309631</ele>
        <time>2016-05-08T16:41:43Z</time>
      </trkpt>
      <trkpt lat="48.7073" lon="1.9721">
        <ele>157.904907</ele>
        <time>2016-05-08T16:41:44Z</time>
      </trkpt>
      <trkpt lat="48.70729" lon="1.97211">
        <ele>157.954224</ele>
        <time>2016-05-08T16:41:45Z</time>
      </trkpt>
      <trkpt lat="48.70729" lon="1.97211">
        <ele>157.829224</ele>
        <time>2016-05-08T16:41:46Z</time>
      </trkpt>
      <trkpt lat="48.70728" lon="1.97213">
        <ele>158.599548</ele>
        <time>2016-05-08T16:41:47Z</time>
      </trkpt>
      <trkpt lat="48.70728" lon="1.97213">
        <ele>158.428833</ele>
        <time>2016-05-08T16:41:48Z</time>
      </trkpt>
      <trkpt lat="48.70727" lon="1.97215">
        <ele>158.581604</ele>
        <time>2016-05-08T16:41:49Z</time>
      </trkpt>
      <trkpt lat="48.70727" lon="1.97215">
        <ele>158.485962</ele>
        <time>2016-05-08T16:41:50Z</time>
      </trkpt>
      <trkpt lat="48.70727" lon="1.97215">
        <ele>158.059326</ele>
        <time>2016-05-08T16:41:51Z</time>
      </trkpt>
      <trkpt lat="48.70727" lon="1.97215">
        <ele>157.414917</ele>
        <time>2016-05-08T16:41:52Z</time>
      </trkpt>
      <trkpt lat="48.70723" lon="1.97216">
        <ele>156.927856</ele>
        <time>2016-05-08T16:41:53Z</time>
      </trkpt>
      <trkpt lat="48.70723" lon="1.97216">
        <ele>156.921387</ele>
        <time>2016-05-08T16:41:54Z</time>
      </trkpt>
      <trkpt lat="48.70723" lon="1.97216">
        <ele>156.912598</ele>
        <time>2016-05-08T16:41:55Z</time>
      </trkpt>
      <trkpt lat="48.70723" lon="1.97216">
        <ele>156.911255</ele>
        <time>2016-05-08T16:41:56Z</time>
      </trkpt>
      <trkpt lat="48.70723" lon="1.97216">
        <ele>156.908142</ele>
        <time>2016-05-08T16:41:57Z</time>
      </trkpt>
      <trkpt lat="48.70723" lon="1.97216">
        <ele>156.908691</ele>
        <time>2016-05-08T16:41:58Z</time>
      </trkpt>
      <trkpt lat="48.7072" lon="1.97218">
        <ele>157.018433</ele>
        <time>2016-05-08T16:41:59Z</time>
      </trkpt>
      <trkpt lat="48.70719" lon="1.97218">
        <ele>157.042969</ele>
        <time>2016-05-08T16:42:00Z</time>
      </trkpt>
      <trkpt lat="48.70719" lon="1.97218">
        <ele>156.837891</ele>
        <time>2016-05-08T16:42:01Z</time>
      </trkpt>
      <trkpt lat="48.70719" lon="1.97218">
        <ele>156.890442</ele>
        <time>2016-05-08T16:42:02Z</time>
      </trkpt>
      <trkpt lat="48.70717" lon="1.97219">
        <ele>157.408569</ele>
        <time>2016-05-08T16:42:03Z</time>
      </trkpt>
      <trkpt lat="48.70716" lon="1.97219">
        <ele>157.533325</ele>
        <time>2016-05-08T16:42:04Z</time>
      </trkpt>
      <trkpt lat="48.70716" lon="1.97219">
        <ele>157.746399</ele>
        <time>2016-05-08T16:42:05Z</time>
      </trkpt>
      <trkpt lat="48.70716" lon="1.97219">
        <ele>157.730103</ele>
        <time>2016-05-08T16:42:06Z</time>
      </trkpt>
      <trkpt lat="48.70716" lon="1.97219">
        <ele>157.728882</ele>
        <time>2016-05-08T16:42:07Z</time>
      </trkpt>
      <trkpt lat="48.70716" lon="1.97219">
        <ele>157.732605</ele>
        <time>2016-05-08T16:42:08Z</time>
      </trkpt>
      <trkpt lat="48.70716" lon="1.97219">
        <ele>157.736328</ele>
        <time>2016-05-08T16:42:09Z</time>
      </trkpt>
      <trkpt lat="48.70716" lon="1.97219">
        <ele>157.737854</ele>
        <time>2016-05-08T16:42:10Z</time>
      </trkpt>
      <trkpt lat="48.70716" lon="1.97219">
        <ele>157.735962</ele>
        <time>2016-05-08T16:42:11Z</time>
      </trkpt>
      <trkpt lat="48.70716" lon="1.97219">
        <ele>157.73938</ele>
        <time>2016-05-08T16:42:12Z</time>
      </trkpt>
      <trkpt lat="48.70716" lon="1.97219">
        <ele>157.737305</ele>
        <time>2016-05-08T16:42:13Z</time>
      </trkpt>
      <trkpt lat="48.70716" lon="1.97219">
        <ele>157.742615</ele>
        <time>2016-05-08T16:42:14Z</time>
      </trkpt>
      <trkpt lat="48.70716" lon="1.97219">
        <ele>157.744751</ele>
        <time>2016-05-08T16:42:15Z</time>
      </trkpt>
      <trkpt lat="48.70716" lon="1.97219">
        <ele>157.740723</ele>
        <time>2016-05-08T16:42:16Z</time>
      </trkpt>
      <trkpt lat="48.70716" lon="1.97219">
        <ele>157.739624</ele>
        <time>2016-05-08T16:42:17Z</time>
      </trkpt>
      <trkpt lat="48.70716" lon="1.97219">
        <ele>157.739624</ele>
        <time>2016-05-08T16:42:18Z</time>
      </trkpt>
      <trkpt lat="48.70716" lon="1.97219">
        <ele>157.742554</ele>
        <time>2016-05-08T16:42:19Z</time>
      </trkpt>
      <trkpt lat="48.70716" lon="1.97219">
        <ele>157.746216</ele>
        <time>2016-05-08T16:42:20Z</time>
      </trkpt>
      <trkpt lat="48.70716" lon="1.97219">
        <ele>157.75293</ele>
        <time>2016-05-08T16:42:21Z</time>
      </trkpt>
      <trkpt lat="48.70716" lon="1.97219">
        <ele>157.755371</ele>
        <time>2016-05-08T16:42:22Z</time>
      </trkpt>
      <trkpt lat="48.70716" lon="1.97219">
        <ele>157.760742</ele>
        <time>2016-05-08T16:42:23Z</time>
      </trkpt>
      <trkpt lat="48.70716" lon="1.97219">
        <ele>157.831055</ele>
        <time>2016-05-08T16:42:24Z</time>
      </trkpt>
      <trkpt lat="48.70716" lon="1.97219">
        <ele>159.159912</ele>
        <time>2016-05-08T16:42:25Z</time>
      </trkpt>
      <trkpt lat="48.70716" lon="1.97219">
        <ele>159.72644</ele>
        <time>2016-05-08T16:42:26Z</time>
      </trkpt>
      <trkpt lat="48.70717" lon="1.97221">
        <ele>159.51355</ele>
        <time>2016-05-08T16:42:27Z</time>
      </trkpt>
      <trkpt lat="48.70717" lon="1.97222">
        <ele>159.364014</ele>
        <time>2016-05-08T16:42:28Z</time>
      </trkpt>
      <trkpt lat="48.70718" lon="1.97222">
        <ele>159.424805</ele>
        <time>2016-05-08T16:42:29Z</time>
      </trkpt>
      <trkpt lat="48.70718" lon="1.97222">
        <ele>159.973816</ele>
        <time>2016-05-08T16:42:30Z</time>
      </trkpt>
      <trkpt lat="48.70718" lon="1.97222">
        <ele>158.294067</ele>
        <time>2016-05-08T16:42:31Z</time>
      </trkpt>
      <trkpt lat="48.70718" lon="1.97222">
        <ele>158.701416</ele>
        <time>2016-05-08T16:42:32Z</time>
      </trkpt>
      <trkpt lat="48.70717" lon="1.97222">
        <ele>158.838989</ele>
        <time>2016-05-08T16:42:33Z</time>
      </trkpt>
      <trkpt lat="48.70717" lon="1.97222">
        <ele>159.287598</ele>
        <time>2016-05-08T16:42:34Z</time>
      </trkpt>
      <trkpt lat="48.70717" lon="1.97223">
        <ele>159.979004</ele>
        <time>2016-05-08T16:42:35Z</time>
      </trkpt>
      <trkpt lat="48.70716" lon="1.97223">
        <ele>160.268066</ele>
        <time>2016-05-08T16:42:36Z</time>
      </trkpt>
      <trkpt lat="48.70716" lon="1.97224">
        <ele>159.819702</ele>
        <time>2016-05-08T16:42:37Z</time>
      </trkpt>
      <trkpt lat="48.70715" lon="1.97224">
        <ele>159.111389</ele>
        <time>2016-05-08T16:42:38Z</time>
      </trkpt>
      <trkpt lat="48.70715" lon="1.97224">
        <ele>158.515686</ele>
        <time>2016-05-08T16:42:39Z</time>
      </trkpt>
      <trkpt lat="48.70715" lon="1.97224">
        <ele>158.523315</ele>
        <time>2016-05-08T16:42:40Z</time>
      </trkpt>
      <trkpt lat="48.70715" lon="1.97224">
        <ele>158.534302</ele>
        <time>2016-05-08T16:42:41Z</time>
      </trkpt>
      <trkpt lat="48.70715" lon="1.97224">
        <ele>158.533447</ele>
        <time>2016-05-08T16:42:42Z</time>
      </trkpt>
      <trkpt lat="48.70715" lon="1.97224">
        <ele>158.519714</ele>
        <time>2016-05-08T16:42:43Z</time>
      </trkpt>
      <trkpt lat="48.70715" lon="1.97224">
        <ele>158.505005</ele>
        <time>2016-05-08T16:42:44Z</time>
      </trkpt>
      <trkpt lat="48.70715" lon="1.97224">
        <ele>158.49353</ele>
        <time>2016-05-08T16:42:45Z</time>
      </trkpt>
      <trkpt lat="48.70715" lon="1.97224">
        <ele>158.496826</ele>
        <time>2016-05-08T16:42:46Z</time>
      </trkpt>
      <trkpt lat="48.70715" lon="1.97224">
        <ele>158.502014</ele>
        <time>2016-05-08T16:42:47Z</time>
      </trkpt>
      <trkpt lat="48.70715" lon="1.97224">
        <ele>158.497314</ele>
        <time>2016-05-08T16:42:48Z</time>
      </trkpt>
      <trkpt lat="48.70715" lon="1.97224">
        <ele>158.00647</ele>
        <time>2016-05-08T16:42:49Z</time>
      </trkpt>
      <trkpt lat="48.70716" lon="1.97223">
        <ele>158.054199</ele>
        <time>2016-05-08T16:42:50Z</time>
      </trkpt>
      <trkpt lat="48.70716" lon="1.97223">
        <ele>159.042358</ele>
        <time>2016-05-08T16:42:51Z</time>
      </trkpt>
      <trkpt lat="48.70718" lon="1.97224">
        <ele>158.096741</ele>
        <time>2016-05-08T16:42:52Z</time>
      </trkpt>
      <trkpt lat="48.7072" lon="1.97224">
        <ele>158.937744</ele>
        <time>2016-05-08T16:42:53Z</time>
      </trkpt>
      <trkpt lat="48.70721" lon="1.97225">
        <ele>160.480774</ele>
        <time>2016-05-08T16:42:54Z</time>
      </trkpt>
      <trkpt lat="48.70721" lon="1.97226">
        <ele>160.339355</ele>
        <time>2016-05-08T16:42:55Z</time>
      </trkpt>
      <trkpt lat="48.70721" lon="1.97227">
        <ele>162.001648</ele>
        <time>2016-05-08T16:42:56Z</time>
      </trkpt>
      <trkpt lat="48.70721" lon="1.97228">
        <ele>162.846924</ele>
        <time>2016-05-08T16:42:57Z</time>
      </trkpt>
      <trkpt lat="48.7072" lon="1.97228">
        <ele>162.811401</ele>
        <time>2016-05-08T16:42:58Z</time>
      </trkpt>
      <trkpt lat="48.7072" lon="1.9723">
        <ele>164.663696</ele>
        <time>2016-05-08T16:42:59Z</time>
      </trkpt>
      <trkpt lat="48.70719" lon="1.97231">
        <ele>164.279663</ele>
        <time>2016-05-08T16:43:00Z</time>
      </trkpt>
      <trkpt lat="48.70718" lon="1.97232">
        <ele>163.563599</ele>
        <time>2016-05-08T16:43:01Z</time>
      </trkpt>
      <trkpt lat="48.70718" lon="1.97233">
        <ele>163.379578</ele>
        <time>2016-05-08T16:43:02Z</time>
      </trkpt>
      <trkpt lat="48.70718" lon="1.97233">
        <ele>163.869324</ele>
        <time>2016-05-08T16:43:03Z</time>
      </trkpt>
      <trkpt lat="48.70718" lon="1.97234">
        <ele>165.564758</ele>
        <time>2016-05-08T16:43:04Z</time>
      </trkpt>
      <trkpt lat="48.70719" lon="1.97235">
        <ele>164.383179</ele>
        <time>2016-05-08T16:43:05Z</time>
      </trkpt>
      <trkpt lat="48.70719" lon="1.97236">
        <ele>164.974182</ele>
        <time>2016-05-08T16:43:06Z</time>
      </trkpt>
      <trkpt lat="48.70719" lon="1.97238">
        <ele>163.541504</ele>
        <time>2016-05-08T16:43:07Z</time>
      </trkpt>
      <trkpt lat="48.70719" lon="1.9724">
        <ele>165.044006</ele>
        <time>2016-05-08T16:43:08Z</time>
      </trkpt>
      <trkpt lat="48.70719" lon="1.97242">
        <ele>164.880615</ele>
        <time>2016-05-08T16:43:09Z</time>
      </trkpt>
      <trkpt lat="48.7072" lon="1.97243">
        <ele>163.867554</ele>
        <time>2016-05-08T16:43:10Z</time>
      </trkpt>
      <trkpt lat="48.7072" lon="1.97243">
        <ele>163.668945</ele>
        <time>2016-05-08T16:43:11Z</time>
      </trkpt>
      <trkpt lat="48.70719" lon="1.97244">
        <ele>161.822937</ele>
        <time>2016-05-08T16:43:12Z</time>
      </trkpt>
      <trkpt lat="48.70719" lon="1.97245">
        <ele>162.830566</ele>
        <time>2016-05-08T16:43:13Z</time>
      </trkpt>
      <trkpt lat="48.70718" lon="1.97246">
        <ele>163.53772</ele>
        <time>2016-05-08T16:43:14Z</time>
      </trkpt>
      <trkpt lat="48.70718" lon="1.97246">
        <ele>163.934937</ele>
        <time>2016-05-08T16:43:15Z</time>
      </trkpt>
      <trkpt lat="48.70718" lon="1.97246">
        <ele>163.619629</ele>
        <time>2016-05-08T16:43:16Z</time>
      </trkpt>
      <trkpt lat="48.70718" lon="1.97246">
        <ele>163.555054</ele>
        <time>2016-05-08T16:43:17Z</time>
      </trkpt>
      <trkpt lat="48.70718" lon="1.97247">
        <ele>164.435608</ele>
        <time>2016-05-08T16:43:18Z</time>
      </trkpt>
      <trkpt lat="48.70718" lon="1.97249">
        <ele>165.009155</ele>
        <time>2016-05-08T16:43:19Z</time>
      </trkpt>
      <trkpt lat="48.70717" lon="1.9725">
        <ele>164.86499</ele>
        <time>2016-05-08T16:43:20Z</time>
      </trkpt>
      <trkpt lat="48.70717" lon="1.97252">
        <ele>165.016113</ele>
        <time>2016-05-08T16:43:21Z</time>
      </trkpt>
      <trkpt lat="48.70716" lon="1.97253">
        <ele>165.493774</ele>
        <time>2016-05-08T16:43:22Z</time>
      </trkpt>
      <trkpt lat="48.70716" lon="1.97254">
        <ele>166.000488</ele>
        <time>2016-05-08T16:43:23Z</time>
      </trkpt>
      <trkpt lat="48.70716" lon="1.97256">
        <ele>165.60791</ele>
        <time>2016-05-08T16:43:24Z</time>
      </trkpt>
      <trkpt lat="48.70717" lon="1.97257">
        <ele>165.082764</ele>
        <time>2016-05-08T16:43:25Z</time>
      </trkpt>
      <trkpt lat="48.70717" lon="1.97258">
        <ele>164.5896</ele>
        <time>2016-05-08T16:43:26Z</time>
      </trkpt>
      <trkpt lat="48.70717" lon="1.97259">
        <ele>163.966919</ele>
        <time>2016-05-08T16:43:27Z</time>
      </trkpt>
      <trkpt lat="48.70716" lon="1.97261">
        <ele>163.354248</ele>
        <time>2016-05-08T16:43:28Z</time>
      </trkpt>
      <trkpt lat="48.70715" lon="1.97262">
        <ele>162.322021</ele>
        <time>2016-05-08T16:43:29Z</time>
      </trkpt>
      <trkpt lat="48.70714" lon="1.97263">
        <ele>161.580444</ele>
        <time>2016-05-08T16:43:30Z</time>
      </trkpt>
      <trkpt lat="48.70713" lon="1.97265">
        <ele>163.251648</ele>
        <time>2016-05-08T16:43:31Z</time>
      </trkpt>
      <trkpt lat="48.70712" lon="1.97266">
        <ele>161.992737</ele>
        <time>2016-05-08T16:43:32Z</time>
      </trkpt>
      <trkpt lat="48.70712" lon="1.97267">
        <ele>162.101074</ele>
        <time>2016-05-08T16:43:33Z</time>
      </trkpt>
      <trkpt lat="48.70712" lon="1.97269">
        <ele>161.833618</ele>
        <time>2016-05-08T16:43:34Z</time>
      </trkpt>
      <trkpt lat="48.70712" lon="1.97271">
        <ele>162.784363</ele>
        <time>2016-05-08T16:43:35Z</time>
      </trkpt>
      <trkpt lat="48.70712" lon="1.97273">
        <ele>161.259216</ele>
        <time>2016-05-08T16:43:36Z</time>
      </trkpt>
      <trkpt lat="48.70711" lon="1.97275">
        <ele>161.390503</ele>
        <time>2016-05-08T16:43:37Z</time>
      </trkpt>
      <trkpt lat="48.70711" lon="1.97276">
        <ele>161.730957</ele>
        <time>2016-05-08T16:43:38Z</time>
      </trkpt>
      <trkpt lat="48.70711" lon="1.97278">
        <ele>160.663513</ele>
        <time>2016-05-08T16:43:39Z</time>
      </trkpt>
      <trkpt lat="48.7071" lon="1.97279">
        <ele>161.27356</ele>
        <time>2016-05-08T16:43:40Z</time>
      </trkpt>
      <trkpt lat="48.7071" lon="1.97281">
        <ele>161.627075</ele>
        <time>2016-05-08T16:43:41Z</time>
      </trkpt>
      <trkpt lat="48.7071" lon="1.97282">
        <ele>162.846191</ele>
        <time>2016-05-08T16:43:42Z</time>
      </trkpt>
      <trkpt lat="48.7071" lon="1.97284">
        <ele>163.825256</ele>
        <time>2016-05-08T16:43:43Z</time>
      </trkpt>
      <trkpt lat="48.70711" lon="1.97286">
        <ele>163.474121</ele>
        <time>2016-05-08T16:43:44Z</time>
      </trkpt>
      <trkpt lat="48.7071" lon="1.97287">
        <ele>163.062622</ele>
        <time>2016-05-08T16:43:45Z</time>
      </trkpt>
      <trkpt lat="48.7071" lon="1.97288">
        <ele>162.99353</ele>
        <time>2016-05-08T16:43:46Z</time>
      </trkpt>
      <trkpt lat="48.70709" lon="1.97289">
        <ele>162.86499</ele>
        <time>2016-05-08T16:43:47Z</time>
      </trkpt>
      <trkpt lat="48.70708" lon="1.97291">
        <ele>162.576538</ele>
        <time>2016-05-08T16:43:48Z</time>
      </trkpt>
      <trkpt lat="48.70707" lon="1.97292">
        <ele>164.109863</ele>
        <time>2016-05-08T16:43:49Z</time>
      </trkpt>
      <trkpt lat="48.70707" lon="1.97293">
        <ele>163.861938</ele>
        <time>2016-05-08T16:43:50Z</time>
      </trkpt>
      <trkpt lat="48.70705" lon="1.97295">
        <ele>163.846802</ele>
        <time>2016-05-08T16:43:51Z</time>
      </trkpt>
      <trkpt lat="48.70704" lon="1.97297">
        <ele>163.031311</ele>
        <time>2016-05-08T16:43:52Z</time>
      </trkpt>
      <trkpt lat="48.70703" lon="1.97299">
        <ele>161.426392</ele>
        <time>2016-05-08T16:43:53Z</time>
      </trkpt>
      <trkpt lat="48.70702" lon="1.97301">
        <ele>161.596008</ele>
        <time>2016-05-08T16:43:54Z</time>
      </trkpt>
      <trkpt lat="48.70702" lon="1.97303">
        <ele>161.091003</ele>
        <time>2016-05-08T16:43:55Z</time>
      </trkpt>
      <trkpt lat="48.70701" lon="1.97306">
        <ele>160.915955</ele>
        <time>2016-05-08T16:43:56Z</time>
      </trkpt>
      <trkpt lat="48.70701" lon="1.97307">
        <ele>160.619446</ele>
        <time>2016-05-08T16:43:57Z</time>
      </trkpt>
      <trkpt lat="48.70701" lon="1.97308">
        <ele>160.877502</ele>
        <time>2016-05-08T16:43:58Z</time>
      </trkpt>
      <trkpt lat="48.70701" lon="1.97309">
        <ele>160.909668</ele>
        <time>2016-05-08T16:43:59Z</time>
      </trkpt>
      <trkpt lat="48.70701" lon="1.9731">
        <ele>160.503906</ele>
        <time>2016-05-08T16:44:00Z</time>
      </trkpt>
      <trkpt lat="48.707" lon="1.97311">
        <ele>160.164429</ele>
        <time>2016-05-08T16:44:01Z</time>
      </trkpt>
      <trkpt lat="48.707" lon="1.97312">
        <ele>159.465759</ele>
        <time>2016-05-08T16:44:02Z</time>
      </trkpt>
      <trkpt lat="48.70699" lon="1.97314">
        <ele>160.835083</ele>
        <time>2016-05-08T16:44:03Z</time>
      </trkpt>
      <trkpt lat="48.70699" lon="1.97315">
        <ele>161.281189</ele>
        <time>2016-05-08T16:44:04Z</time>
      </trkpt>
      <trkpt lat="48.70699" lon="1.97317">
        <ele>162.777283</ele>
        <time>2016-05-08T16:44:05Z</time>
      </trkpt>
      <trkpt lat="48.70698" lon="1.97319">
        <ele>163.142761</ele>
        <time>2016-05-08T16:44:06Z</time>
      </trkpt>
      <trkpt lat="48.70699" lon="1.97321">
        <ele>163.139771</ele>
        <time>2016-05-08T16:44:07Z</time>
      </trkpt>
      <trkpt lat="48.70699" lon="1.97322">
        <ele>162.458923</ele>
        <time>2016-05-08T16:44:08Z</time>
      </trkpt>
      <trkpt lat="48.70698" lon="1.97324">
        <ele>162.906006</ele>
        <time>2016-05-08T16:44:09Z</time>
      </trkpt>
      <trkpt lat="48.70698" lon="1.97325">
        <ele>163.419617</ele>
        <time>2016-05-08T16:44:10Z</time>
      </trkpt>
      <trkpt lat="48.70697" lon="1.97327">
        <ele>164.259399</ele>
        <time>2016-05-08T16:44:11Z</time>
      </trkpt>
      <trkpt lat="48.70696" lon="1.97329">
        <ele>164.945679</ele>
        <time>2016-05-08T16:44:12Z</time>
      </trkpt>
      <trkpt lat="48.70695" lon="1.97331">
        <ele>164.473633</ele>
        <time>2016-05-08T16:44:13Z</time>
      </trkpt>
      <trkpt lat="48.70695" lon="1.97333">
        <ele>165.051331</ele>
        <time>2016-05-08T16:44:14Z</time>
      </trkpt>
      <trkpt lat="48.70695" lon="1.97334">
        <ele>164.957031</ele>
        <time>2016-05-08T16:44:15Z</time>
      </trkpt>
      <trkpt lat="48.70694" lon="1.97336">
        <ele>167.095215</ele>
        <time>2016-05-08T16:44:16Z</time>
      </trkpt>
      <trkpt lat="48.70694" lon="1.97337">
        <ele>167.645264</ele>
        <time>2016-05-08T16:44:17Z</time>
      </trkpt>
      <trkpt lat="48.70693" lon="1.97339">
        <ele>167.991943</ele>
        <time>2016-05-08T16:44:18Z</time>
      </trkpt>
      <trkpt lat="48.70692" lon="1.9734">
        <ele>167.944946</ele>
        <time>2016-05-08T16:44:19Z</time>
      </trkpt>
      <trkpt lat="48.70691" lon="1.97342">
        <ele>168.340271</ele>
        <time>2016-05-08T16:44:20Z</time>
      </trkpt>
      <trkpt lat="48.7069" lon="1.97343">
        <ele>168.218506</ele>
        <time>2016-05-08T16:44:21Z</time>
      </trkpt>
      <trkpt lat="48.70689" lon="1.97345">
        <ele>168.806213</ele>
        <time>2016-05-08T16:44:22Z</time>
      </trkpt>
      <trkpt lat="48.70689" lon="1.97347">
        <ele>168.241943</ele>
        <time>2016-05-08T16:44:23Z</time>
      </trkpt>
      <trkpt lat="48.70688" lon="1.97349">
        <ele>168.123169</ele>
        <time>2016-05-08T16:44:24Z</time>
      </trkpt>
      <trkpt lat="48.70687" lon="1.97351">
        <ele>167.639648</ele>
        <time>2016-05-08T16:44:25Z</time>
      </trkpt>
      <trkpt lat="48.70687" lon="1.97352">
        <ele>168.152222</ele>
        <time>2016-05-08T16:44:26Z</time>
      </trkpt>
      <trkpt lat="48.70687" lon="1.97354">
        <ele>168.030273</ele>
        <time>2016-05-08T16:44:27Z</time>
      </trkpt>
      <trkpt lat="48.70686" lon="1.97356">
        <ele>167.927002</ele>
        <time>2016-05-08T16:44:28Z</time>
      </trkpt>
      <trkpt lat="48.70685" lon="1.97358">
        <ele>167.673096</ele>
        <time>2016-05-08T16:44:29Z</time>
      </trkpt>
      <trkpt lat="48.70684" lon="1.97359">
        <ele>167.459595</ele>
        <time>2016-05-08T16:44:30Z</time>
      </trkpt>
      <trkpt lat="48.70683" lon="1.9736">
        <ele>167.135498</ele>
        <time>2016-05-08T16:44:31Z</time>
      </trkpt>
      <trkpt lat="48.70683" lon="1.97362">
        <ele>166.711548</ele>
        <time>2016-05-08T16:44:32Z</time>
      </trkpt>
      <trkpt lat="48.70683" lon="1.97364">
        <ele>167.421753</ele>
        <time>2016-05-08T16:44:33Z</time>
      </trkpt>
      <trkpt lat="48.70683" lon="1.97366">
        <ele>167.186523</ele>
        <time>2016-05-08T16:44:34Z</time>
      </trkpt>
      <trkpt lat="48.70683" lon="1.97369">
        <ele>166.817078</ele>
        <time>2016-05-08T16:44:35Z</time>
      </trkpt>
      <trkpt lat="48.70683" lon="1.97371">
        <ele>167.09436</ele>
        <time>2016-05-08T16:44:36Z</time>
      </trkpt>
      <trkpt lat="48.70683" lon="1.97373">
        <ele>166.366333</ele>
        <time>2016-05-08T16:44:37Z</time>
      </trkpt>
      <trkpt lat="48.70684" lon="1.97374">
        <ele>166.111633</ele>
        <time>2016-05-08T16:44:38Z</time>
      </trkpt>
      <trkpt lat="48.70684" lon="1.97376">
        <ele>165.90863</ele>
        <time>2016-05-08T16:44:39Z</time>
      </trkpt>
      <trkpt lat="48.70684" lon="1.97378">
        <ele>164.887207</ele>
        <time>2016-05-08T16:44:40Z</time>
      </trkpt>
      <trkpt lat="48.70684" lon="1.9738">
        <ele>164.684448</ele>
        <time>2016-05-08T16:44:41Z</time>
      </trkpt>
      <trkpt lat="48.70683" lon="1.97382">
        <ele>163.60498</ele>
        <time>2016-05-08T16:44:42Z</time>
      </trkpt>
      <trkpt lat="48.70682" lon="1.97384">
        <ele>162.56665</ele>
        <time>2016-05-08T16:44:43Z</time>
      </trkpt>
      <trkpt lat="48.70681" lon="1.97385">
        <ele>162.474915</ele>
        <time>2016-05-08T16:44:44Z</time>
      </trkpt>
      <trkpt lat="48.70681" lon="1.97387">
        <ele>161.594604</ele>
        <time>2016-05-08T16:44:45Z</time>
      </trkpt>
      <trkpt lat="48.7068" lon="1.97388">
        <ele>160.751221</ele>
        <time>2016-05-08T16:44:46Z</time>
      </trkpt>
      <trkpt lat="48.70679" lon="1.97389">
        <ele>160.24646</ele>
        <time>2016-05-08T16:44:47Z</time>
      </trkpt>
      <trkpt lat="48.70679" lon="1.9739">
        <ele>159.415222</ele>
        <time>2016-05-08T16:44:48Z</time>
      </trkpt>
      <trkpt lat="48.70679" lon="1.97391">
        <ele>159.268372</ele>
        <time>2016-05-08T16:44:49Z</time>
      </trkpt>
      <trkpt lat="48.70679" lon="1.97391">
        <ele>159.450684</ele>
        <time>2016-05-08T16:44:50Z</time>
      </trkpt>
      <trkpt lat="48.70679" lon="1.97392">
        <ele>159.754578</ele>
        <time>2016-05-08T16:44:51Z</time>
      </trkpt>
      <trkpt lat="48.70679" lon="1.97392">
        <ele>158.443604</ele>
        <time>2016-05-08T16:44:52Z</time>
      </trkpt>
      <trkpt lat="48.70678" lon="1.97393">
        <ele>157.197144</ele>
        <time>2016-05-08T16:44:53Z</time>
      </trkpt>
      <trkpt lat="48.70677" lon="1.97394">
        <ele>156.772095</ele>
        <time>2016-05-08T16:44:54Z</time>
      </trkpt>
      <trkpt lat="48.70676" lon="1.97394">
        <ele>155.926819</ele>
        <time>2016-05-08T16:44:55Z</time>
      </trkpt>
      <trkpt lat="48.70676" lon="1.97394">
        <ele>156.860413</ele>
        <time>2016-05-08T16:44:56Z</time>
      </trkpt>
      <trkpt lat="48.70675" lon="1.97396">
        <ele>157.424011</ele>
        <time>2016-05-08T16:44:57Z</time>
      </trkpt>
      <trkpt lat="48.70675" lon="1.97398">
        <ele>156.866089</ele>
        <time>2016-05-08T16:44:59Z</time>
      </trkpt>
      <trkpt lat="48.70675" lon="1.97399">
        <ele>156.684448</ele>
        <time>2016-05-08T16:45:00Z</time>
      </trkpt>
      <trkpt lat="48.70676" lon="1.97399">
        <ele>156.345947</ele>
        <time>2016-05-08T16:45:01Z</time>
      </trkpt>
      <trkpt lat="48.70676" lon="1.97397">
        <ele>155.200073</ele>
        <time>2016-05-08T16:45:02Z</time>
      </trkpt>
      <trkpt lat="48.70676" lon="1.97395">
        <ele>154.694092</ele>
        <time>2016-05-08T16:45:03Z</time>
      </trkpt>
      <trkpt lat="48.70676" lon="1.97394">
        <ele>153.992065</ele>
        <time>2016-05-08T16:45:04Z</time>
      </trkpt>
      <trkpt lat="48.70676" lon="1.97398">
        <ele>154.199463</ele>
        <time>2016-05-08T16:45:06Z</time>
      </trkpt>
      <trkpt lat="48.70676" lon="1.97405">
        <ele>152.768738</ele>
        <time>2016-05-08T16:45:08Z</time>
      </trkpt>
      <trkpt lat="48.70675" lon="1.97409">
        <ele>152.193237</ele>
        <time>2016-05-08T16:45:10Z</time>
      </trkpt>
      <trkpt lat="48.70674" lon="1.97412">
        <ele>152.305969</ele>
        <time>2016-05-08T16:45:12Z</time>
      </trkpt>
      <trkpt lat="48.70672" lon="1.97415">
        <ele>152.303955</ele>
        <time>2016-05-08T16:45:14Z</time>
      </trkpt>
      <trkpt lat="48.70671" lon="1.97418">
        <ele>151.742249</ele>
        <time>2016-05-08T16:45:16Z</time>
      </trkpt>
      <trkpt lat="48.70671" lon="1.97419">
        <ele>150.201538</ele>
        <time>2016-05-08T16:45:18Z</time>
      </trkpt>
      <trkpt lat="48.70671" lon="1.97419">
        <ele>150.348389</ele>
        <time>2016-05-08T16:45:20Z</time>
      </trkpt>
      <trkpt lat="48.7067" lon="1.97422">
        <ele>152.052307</ele>
        <time>2016-05-08T16:45:22Z</time>
      </trkpt>
      <trkpt lat="48.7067" lon="1.97422">
        <ele>153.024841</ele>
        <time>2016-05-08T16:45:24Z</time>
      </trkpt>
      <trkpt lat="48.7067" lon="1.97422">
        <ele>153.030762</ele>
        <time>2016-05-08T16:45:26Z</time>
      </trkpt>
      <trkpt lat="48.7067" lon="1.97422">
        <ele>153.059753</ele>
        <time>2016-05-08T16:45:28Z</time>
      </trkpt>
      <trkpt lat="48.7067" lon="1.97422">
        <ele>152.456116</ele>
        <time>2016-05-08T16:45:30Z</time>
      </trkpt>
      <trkpt lat="48.7067" lon="1.97422">
        <ele>151.831665</ele>
        <time>2016-05-08T16:45:32Z</time>
      </trkpt>
      <trkpt lat="48.70667" lon="1.97426">
        <ele>151.459839</ele>
        <time>2016-05-08T16:45:34Z</time>
      </trkpt>
      <trkpt lat="48.70667" lon="1.97427">
        <ele>151.236938</ele>
        <time>2016-05-08T16:45:36Z</time>
      </trkpt>
      <trkpt lat="48.70666" lon="1.97428">
        <ele>151.736877</ele>
        <time>2016-05-08T16:45:38Z</time>
      </trkpt>
      <trkpt lat="48.70665" lon="1.9743">
        <ele>151.226868</ele>
        <time>2016-05-08T16:45:40Z</time>
      </trkpt>
      <trkpt lat="48.70665" lon="1.97431">
        <ele>151.938904</ele>
        <time>2016-05-08T16:45:42Z</time>
      </trkpt>
      <trkpt lat="48.70664" lon="1.97434">
        <ele>151.775696</ele>
        <time>2016-05-08T16:45:44Z</time>
      </trkpt>
      <trkpt lat="48.70664" lon="1.97436">
        <ele>152.755737</ele>
        <time>2016-05-08T16:45:46Z</time>
      </trkpt>
      <trkpt lat="48.70664" lon="1.97438">
        <ele>153.591064</ele>
        <time>2016-05-08T16:45:48Z</time>
      </trkpt>
      <trkpt lat="48.70665" lon="1.97439">
        <ele>153.082581</ele>
        <time>2016-05-08T16:45:50Z</time>
      </trkpt>
      <trkpt lat="48.70666" lon="1.9744">
        <ele>152.841919</ele>
        <time>2016-05-08T16:45:52Z</time>
      </trkpt>
      <trkpt lat="48.70666" lon="1.97442">
        <ele>151.768311</ele>
        <time>2016-05-08T16:45:54Z</time>
      </trkpt>
      <trkpt lat="48.70665" lon="1.97445">
        <ele>151.905151</ele>
        <time>2016-05-08T16:45:56Z</time>
      </trkpt>
      <trkpt lat="48.70664" lon="1.97447">
        <ele>152.304993</ele>
        <time>2016-05-08T16:45:58Z</time>
      </trkpt>
      <trkpt lat="48.70664" lon="1.97452">
        <ele>152.434937</ele>
        <time>2016-05-08T16:46:00Z</time>
      </trkpt>
      <trkpt lat="48.70664" lon="1.97456">
        <ele>151.367188</ele>
        <time>2016-05-08T16:46:02Z</time>
      </trkpt>
      <trkpt lat="48.70665" lon="1.97459">
        <ele>152.322388</ele>
        <time>2016-05-08T16:46:04Z</time>
      </trkpt>
      <trkpt lat="48.70665" lon="1.9746">
        <ele>153.742065</ele>
        <time>2016-05-08T16:46:06Z</time>
      </trkpt>
      <trkpt lat="48.70666" lon="1.97462">
        <ele>155.227844</ele>
        <time>2016-05-08T16:46:08Z</time>
      </trkpt>
      <trkpt lat="48.70667" lon="1.97464">
        <ele>155.405029</ele>
        <time>2016-05-08T16:46:10Z</time>
      </trkpt>
      <trkpt lat="48.70666" lon="1.97466">
        <ele>155.874634</ele>
        <time>2016-05-08T16:46:12Z</time>
      </trkpt>
      <trkpt lat="48.70665" lon="1.97468">
        <ele>156.407959</ele>
        <time>2016-05-08T16:46:14Z</time>
      </trkpt>
      <trkpt lat="48.70664" lon="1.9747">
        <ele>156.44873</ele>
        <time>2016-05-08T16:46:16Z</time>
      </trkpt>
      <trkpt lat="48.70663" lon="1.97474">
        <ele>156.864258</ele>
        <time>2016-05-08T16:46:18Z</time>
      </trkpt>
      <trkpt lat="48.70661" lon="1.97477">
        <ele>158.407532</ele>
        <time>2016-05-08T16:46:20Z</time>
      </trkpt>
      <trkpt lat="48.7066" lon="1.9748">
        <ele>157.976746</ele>
        <time>2016-05-08T16:46:22Z</time>
      </trkpt>
      <trkpt lat="48.7066" lon="1.97486">
        <ele>157.608582</ele>
        <time>2016-05-08T16:46:24Z</time>
      </trkpt>
      <trkpt lat="48.7066" lon="1.9749">
        <ele>157.817139</ele>
        <time>2016-05-08T16:46:26Z</time>
      </trkpt>
      <trkpt lat="48.70659" lon="1.97494">
        <ele>157.226379</ele>
        <time>2016-05-08T16:46:28Z</time>
      </trkpt>
      <trkpt lat="48.70659" lon="1.97498">
        <ele>157.606812</ele>
        <time>2016-05-08T16:46:30Z</time>
      </trkpt>
      <trkpt lat="48.70659" lon="1.97501">
        <ele>157.649963</ele>
        <time>2016-05-08T16:46:32Z</time>
      </trkpt>
      <trkpt lat="48.70658" lon="1.97504">
        <ele>157.195923</ele>
        <time>2016-05-08T16:46:34Z</time>
      </trkpt>
      <trkpt lat="48.70658" lon="1.97507">
        <ele>157.952881</ele>
        <time>2016-05-08T16:46:36Z</time>
      </trkpt>
      <trkpt lat="48.70656" lon="1.97511">
        <ele>158.101685</ele>
        <time>2016-05-08T16:46:38Z</time>
      </trkpt>
      <trkpt lat="48.70655" lon="1.97514">
        <ele>158.480347</ele>
        <time>2016-05-08T16:46:40Z</time>
      </trkpt>
      <trkpt lat="48.70654" lon="1.97518">
        <ele>158.864441</ele>
        <time>2016-05-08T16:46:42Z</time>
      </trkpt>
      <trkpt lat="48.70654" lon="1.97521">
        <ele>157.980896</ele>
        <time>2016-05-08T16:46:44Z</time>
      </trkpt>
      <trkpt lat="48.70654" lon="1.97524">
        <ele>158.473083</ele>
        <time>2016-05-08T16:46:46Z</time>
      </trkpt>
      <trkpt lat="48.70653" lon="1.97527">
        <ele>158.007446</ele>
        <time>2016-05-08T16:46:48Z</time>
      </trkpt>
      <trkpt lat="48.70652" lon="1.97531">
        <ele>157.917542</ele>
        <time>2016-05-08T16:46:50Z</time>
      </trkpt>
      <trkpt lat="48.70651" lon="1.97533">
        <ele>157.79895</ele>
        <time>2016-05-08T16:46:52Z</time>
      </trkpt>
      <trkpt lat="48.7065" lon="1.97537">
        <ele>157.963501</ele>
        <time>2016-05-08T16:46:54Z</time>
      </trkpt>
      <trkpt lat="48.70649" lon="1.9754">
        <ele>159.005615</ele>
        <time>2016-05-08T16:46:56Z</time>
      </trkpt>
      <trkpt lat="48.70649" lon="1.97543">
        <ele>159.541626</ele>
        <time>2016-05-08T16:46:58Z</time>
      </trkpt>
      <trkpt lat="48.70649" lon="1.97546">
        <ele>159.318787</ele>
        <time>2016-05-08T16:47:00Z</time>
      </trkpt>
      <trkpt lat="48.70648" lon="1.97548">
        <ele>160.725708</ele>
        <time>2016-05-08T16:47:02Z</time>
      </trkpt>
      <trkpt lat="48.70648" lon="1.9755">
        <ele>160.936646</ele>
        <time>2016-05-08T16:47:04Z</time>
      </trkpt>
      <trkpt lat="48.70647" lon="1.97551">
        <ele>161.047485</ele>
        <time>2016-05-08T16:47:06Z</time>
      </trkpt>
      <trkpt lat="48.70647" lon="1.97553">
        <ele>160.860718</ele>
        <time>2016-05-08T16:47:08Z</time>
      </trkpt>
      <trkpt lat="48.70647" lon="1.97556">
        <ele>161.718994</ele>
        <time>2016-05-08T16:47:10Z</time>
      </trkpt>
      <trkpt lat="48.70646" lon="1.97559">
        <ele>162.012268</ele>
        <time>2016-05-08T16:47:12Z</time>
      </trkpt>
      <trkpt lat="48.70646" lon="1.97562">
        <ele>161.262634</ele>
        <time>2016-05-08T16:47:14Z</time>
      </trkpt>
      <trkpt lat="48.70646" lon="1.97565">
        <ele>161.736877</ele>
        <time>2016-05-08T16:47:16Z</time>
      </trkpt>
      <trkpt lat="48.70646" lon="1.97568">
        <ele>161.286377</ele>
        <time>2016-05-08T16:47:18Z</time>
      </trkpt>
      <trkpt lat="48.70645" lon="1.97572">
        <ele>161.742126</ele>
        <time>2016-05-08T16:47:20Z</time>
      </trkpt>
      <trkpt lat="48.70645" lon="1.97575">
        <ele>161.611816</ele>
        <time>2016-05-08T16:47:22Z</time>
      </trkpt>
      <trkpt lat="48.70644" lon="1.97578">
        <ele>161.176086</ele>
        <time>2016-05-08T16:47:24Z</time>
      </trkpt>
      <trkpt lat="48.70643" lon="1.97581">
        <ele>161.928467</ele>
        <time>2016-05-08T16:47:26Z</time>
      </trkpt>
      <trkpt lat="48.70642" lon="1.97584">
        <ele>162.986755</ele>
        <time>2016-05-08T16:47:28Z</time>
      </trkpt>
      <trkpt lat="48.70641" lon="1.97587">
        <ele>162.879333</ele>
        <time>2016-05-08T16:47:30Z</time>
      </trkpt>
      <trkpt lat="48.7064" lon="1.9759">
        <ele>163.134644</ele>
        <time>2016-05-08T16:47:32Z</time>
      </trkpt>
      <trkpt lat="48.70639" lon="1.97593">
        <ele>162.445618</ele>
        <time>2016-05-08T16:47:34Z</time>
      </trkpt>
      <trkpt lat="48.70639" lon="1.97596">
        <ele>162.329956</ele>
        <time>2016-05-08T16:47:36Z</time>
      </trkpt>
      <trkpt lat="48.70638" lon="1.97599">
        <ele>161.378906</ele>
        <time>2016-05-08T16:47:38Z</time>
      </trkpt>
      <trkpt lat="48.70638" lon="1.97603">
        <ele>161.696533</ele>
        <time>2016-05-08T16:47:40Z</time>
      </trkpt>
      <trkpt lat="48.70638" lon="1.97606">
        <ele>161.853882</ele>
        <time>2016-05-08T16:47:42Z</time>
      </trkpt>
      <trkpt lat="48.70638" lon="1.9761">
        <ele>161.328857</ele>
        <time>2016-05-08T16:47:44Z</time>
      </trkpt>
      <trkpt lat="48.70637" lon="1.97614">
        <ele>160.740479</ele>
        <time>2016-05-08T16:47:46Z</time>
      </trkpt>
      <trkpt lat="48.70636" lon="1.97618">
        <ele>160.441101</ele>
        <time>2016-05-08T16:47:48Z</time>
      </trkpt>
      <trkpt lat="48.70636" lon="1.97621">
        <ele>160.891724</ele>
        <time>2016-05-08T16:47:50Z</time>
      </trkpt>
      <trkpt lat="48.70635" lon="1.97625">
        <ele>161.881592</ele>
        <time>2016-05-08T16:47:52Z</time>
      </trkpt>
      <trkpt lat="48.70634" lon="1.97629">
        <ele>162.533813</ele>
        <time>2016-05-08T16:47:54Z</time>
      </trkpt>
      <trkpt lat="48.70634" lon="1.97631">
        <ele>161.918335</ele>
        <time>2016-05-08T16:47:56Z</time>
      </trkpt>
      <trkpt lat="48.70634" lon="1.97634">
        <ele>161.613037</ele>
        <time>2016-05-08T16:47:58Z</time>
      </trkpt>
      <trkpt lat="48.70633" lon="1.97637">
        <ele>160.816101</ele>
        <time>2016-05-08T16:48:00Z</time>
      </trkpt>
      <trkpt lat="48.70632" lon="1.97639">
        <ele>161.284485</ele>
        <time>2016-05-08T16:48:02Z</time>
      </trkpt>
      <trkpt lat="48.70631" lon="1.97643">
        <ele>161.584106</ele>
        <time>2016-05-08T16:48:04Z</time>
      </trkpt>
      <trkpt lat="48.70631" lon="1.97645">
        <ele>161.851196</ele>
        <time>2016-05-08T16:48:06Z</time>
      </trkpt>
      <trkpt lat="48.70631" lon="1.97647">
        <ele>162.023438</ele>
        <time>2016-05-08T16:48:08Z</time>
      </trkpt>
      <trkpt lat="48.70631" lon="1.97649">
        <ele>161.771851</ele>
        <time>2016-05-08T16:48:10Z</time>
      </trkpt>
      <trkpt lat="48.70631" lon="1.97651">
        <ele>162.103455</ele>
        <time>2016-05-08T16:48:12Z</time>
      </trkpt>
      <trkpt lat="48.7063" lon="1.97654">
        <ele>162.417847</ele>
        <time>2016-05-08T16:48:14Z</time>
      </trkpt>
      <trkpt lat="48.70629" lon="1.97657">
        <ele>162.244141</ele>
        <time>2016-05-08T16:48:16Z</time>
      </trkpt>
      <trkpt lat="48.70629" lon="1.97659">
        <ele>161.951904</ele>
        <time>2016-05-08T16:48:18Z</time>
      </trkpt>
      <trkpt lat="48.70628" lon="1.97662">
        <ele>160.687012</ele>
        <time>2016-05-08T16:48:20Z</time>
      </trkpt>
      <trkpt lat="48.70628" lon="1.97665">
        <ele>160.097595</ele>
        <time>2016-05-08T16:48:22Z</time>
      </trkpt>
      <trkpt lat="48.70628" lon="1.9767">
        <ele>159.275757</ele>
        <time>2016-05-08T16:48:24Z</time>
      </trkpt>
      <trkpt lat="48.70628" lon="1.97672">
        <ele>158.556091</ele>
        <time>2016-05-08T16:48:25Z</time>
      </trkpt>
      <trkpt lat="48.70626" lon="1.97676">
        <ele>157.841187</ele>
        <time>2016-05-08T16:48:27Z</time>
      </trkpt>
      <trkpt lat="48.70625" lon="1.9768">
        <ele>157.759766</ele>
        <time>2016-05-08T16:48:29Z</time>
      </trkpt>
      <trkpt lat="48.70624" lon="1.97684">
        <ele>157.346802</ele>
        <time>2016-05-08T16:48:31Z</time>
      </trkpt>
      <trkpt lat="48.70624" lon="1.97687">
        <ele>156.877197</ele>
        <time>2016-05-08T16:48:33Z</time>
      </trkpt>
      <trkpt lat="48.70625" lon="1.97689">
        <ele>157.064331</ele>
        <time>2016-05-08T16:48:35Z</time>
      </trkpt>
      <trkpt lat="48.70625" lon="1.97691">
        <ele>158.059692</ele>
        <time>2016-05-08T16:48:37Z</time>
      </trkpt>
      <trkpt lat="48.70625" lon="1.97694">
        <ele>159.124451</ele>
        <time>2016-05-08T16:48:39Z</time>
      </trkpt>
      <trkpt lat="48.70626" lon="1.97697">
        <ele>160.315002</ele>
        <time>2016-05-08T16:48:41Z</time>
      </trkpt>
      <trkpt lat="48.70626" lon="1.97699">
        <ele>160.852173</ele>
        <time>2016-05-08T16:48:43Z</time>
      </trkpt>
      <trkpt lat="48.70626" lon="1.97701">
        <ele>161.161133</ele>
        <time>2016-05-08T16:48:45Z</time>
      </trkpt>
      <trkpt lat="48.70626" lon="1.97705">
        <ele>160.279358</ele>
        <time>2016-05-08T16:48:47Z</time>
      </trkpt>
      <trkpt lat="48.70626" lon="1.97709">
        <ele>160.356689</ele>
        <time>2016-05-08T16:48:49Z</time>
      </trkpt>
      <trkpt lat="48.70626" lon="1.97713">
        <ele>160.286499</ele>
        <time>2016-05-08T16:48:51Z</time>
      </trkpt>
      <trkpt lat="48.70625" lon="1.97717">
        <ele>161.146973</ele>
        <time>2016-05-08T16:48:53Z</time>
      </trkpt>
      <trkpt lat="48.70625" lon="1.9772">
        <ele>160.764893</ele>
        <time>2016-05-08T16:48:55Z</time>
      </trkpt>
      <trkpt lat="48.70624" lon="1.97723">
        <ele>160.568115</ele>
        <time>2016-05-08T16:48:57Z</time>
      </trkpt>
      <trkpt lat="48.70623" lon="1.97727">
        <ele>160.557007</ele>
        <time>2016-05-08T16:48:59Z</time>
      </trkpt>
      <trkpt lat="48.70622" lon="1.97731">
        <ele>160.26001</ele>
        <time>2016-05-08T16:49:01Z</time>
      </trkpt>
      <trkpt lat="48.70621" lon="1.97735">
        <ele>159.878357</ele>
        <time>2016-05-08T16:49:03Z</time>
      </trkpt>
      <trkpt lat="48.70621" lon="1.97739">
        <ele>160.14032</ele>
        <time>2016-05-08T16:49:05Z</time>
      </trkpt>
      <trkpt lat="48.7062" lon="1.97742">
        <ele>159.791809</ele>
        <time>2016-05-08T16:49:07Z</time>
      </trkpt>
      <trkpt lat="48.70619" lon="1.97746">
        <ele>159.342529</ele>
        <time>2016-05-08T16:49:09Z</time>
      </trkpt>
      <trkpt lat="48.70618" lon="1.9775">
        <ele>159.1427</ele>
        <time>2016-05-08T16:49:11Z</time>
      </trkpt>
      <trkpt lat="48.70618" lon="1.97752">
        <ele>158.409668</ele>
        <time>2016-05-08T16:49:13Z</time>
      </trkpt>
      <trkpt lat="48.70618" lon="1.97755">
        <ele>158.672485</ele>
        <time>2016-05-08T16:49:15Z</time>
      </trkpt>
      <trkpt lat="48.70617" lon="1.97757">
        <ele>158.975464</ele>
        <time>2016-05-08T16:49:17Z</time>
      </trkpt>
      <trkpt lat="48.70617" lon="1.9776">
        <ele>158.046875</ele>
        <time>2016-05-08T16:49:19Z</time>
      </trkpt>
      <trkpt lat="48.70618" lon="1.97762">
        <ele>157.742249</ele>
        <time>2016-05-08T16:49:21Z</time>
      </trkpt>
      <trkpt lat="48.70618" lon="1.97766">
        <ele>157.973511</ele>
        <time>2016-05-08T16:49:23Z</time>
      </trkpt>
      <trkpt lat="48.70618" lon="1.97768">
        <ele>158.792725</ele>
        <time>2016-05-08T16:49:25Z</time>
      </trkpt>
      <trkpt lat="48.70619" lon="1.97771">
        <ele>157.758301</ele>
        <time>2016-05-08T16:49:27Z</time>
      </trkpt>
      <trkpt lat="48.70619" lon="1.97772">
        <ele>158.016724</ele>
        <time>2016-05-08T16:49:29Z</time>
      </trkpt>
      <trkpt lat="48.70618" lon="1.97775">
        <ele>157.76355</ele>
        <time>2016-05-08T16:49:31Z</time>
      </trkpt>
      <trkpt lat="48.70617" lon="1.97776">
        <ele>158.635986</ele>
        <time>2016-05-08T16:49:33Z</time>
      </trkpt>
      <trkpt lat="48.70616" lon="1.97776">
        <ele>158.594727</ele>
        <time>2016-05-08T16:49:35Z</time>
      </trkpt>
      <trkpt lat="48.70616" lon="1.97778">
        <ele>158.200439</ele>
        <time>2016-05-08T16:49:37Z</time>
      </trkpt>
      <trkpt lat="48.70616" lon="1.9778">
        <ele>158.287842</ele>
        <time>2016-05-08T16:49:39Z</time>
      </trkpt>
      <trkpt lat="48.70616" lon="1.97782">
        <ele>158.145142</ele>
        <time>2016-05-08T16:49:41Z</time>
      </trkpt>
      <trkpt lat="48.70615" lon="1.97784">
        <ele>158.106506</ele>
        <time>2016-05-08T16:49:43Z</time>
      </trkpt>
      <trkpt lat="48.70615" lon="1.97786">
        <ele>158.403625</ele>
        <time>2016-05-08T16:49:45Z</time>
      </trkpt>
      <trkpt lat="48.70614" lon="1.97788">
        <ele>158.406006</ele>
        <time>2016-05-08T16:49:47Z</time>
      </trkpt>
      <trkpt lat="48.70614" lon="1.97789">
        <ele>157.539673</ele>
        <time>2016-05-08T16:49:49Z</time>
      </trkpt>
      <trkpt lat="48.70613" lon="1.97791">
        <ele>156.958252</ele>
        <time>2016-05-08T16:49:51Z</time>
      </trkpt>
      <trkpt lat="48.70613" lon="1.97793">
        <ele>156.984985</ele>
        <time>2016-05-08T16:49:53Z</time>
      </trkpt>
      <trkpt lat="48.70612" lon="1.97795">
        <ele>156.615295</ele>
        <time>2016-05-08T16:49:55Z</time>
      </trkpt>
      <trkpt lat="48.70612" lon="1.97795">
        <ele>156.759583</ele>
        <time>2016-05-08T16:49:57Z</time>
      </trkpt>
      <trkpt lat="48.70613" lon="1.97797">
        <ele>156.879333</ele>
        <time>2016-05-08T16:49:59Z</time>
      </trkpt>
      <trkpt lat="48.70614" lon="1.97799">
        <ele>157.19165</ele>
        <time>2016-05-08T16:50:01Z</time>
      </trkpt>
      <trkpt lat="48.70614" lon="1.97801">
        <ele>156.878235</ele>
        <time>2016-05-08T16:50:03Z</time>
      </trkpt>
      <trkpt lat="48.70614" lon="1.97804">
        <ele>156.29126</ele>
        <time>2016-05-08T16:50:05Z</time>
      </trkpt>
      <trkpt lat="48.70613" lon="1.97808">
        <ele>155.575623</ele>
        <time>2016-05-08T16:50:07Z</time>
      </trkpt>
      <trkpt lat="48.70612" lon="1.97811">
        <ele>155.606323</ele>
        <time>2016-05-08T16:50:09Z</time>
      </trkpt>
      <trkpt lat="48.70614" lon="1.97814">
        <ele>155.590332</ele>
        <time>2016-05-08T16:50:11Z</time>
      </trkpt>
      <trkpt lat="48.70614" lon="1.97818">
        <ele>155.929993</ele>
        <time>2016-05-08T16:50:13Z</time>
      </trkpt>
      <trkpt lat="48.70614" lon="1.97823">
        <ele>155.650269</ele>
        <time>2016-05-08T16:50:15Z</time>
      </trkpt>
      <trkpt lat="48.70614" lon="1.97826">
        <ele>156.802185</ele>
        <time>2016-05-08T16:50:17Z</time>
      </trkpt>
      <trkpt lat="48.70614" lon="1.9783">
        <ele>157.605347</ele>
        <time>2016-05-08T16:50:19Z</time>
      </trkpt>
      <trkpt lat="48.70614" lon="1.97832">
        <ele>156.707947</ele>
        <time>2016-05-08T16:50:21Z</time>
      </trkpt>
      <trkpt lat="48.70615" lon="1.97835">
        <ele>156.72937</ele>
        <time>2016-05-08T16:50:23Z</time>
      </trkpt>
      <trkpt lat="48.70616" lon="1.97838">
        <ele>156.876343</ele>
        <time>2016-05-08T16:50:25Z</time>
      </trkpt>
      <trkpt lat="48.70616" lon="1.9784">
        <ele>157.284668</ele>
        <time>2016-05-08T16:50:27Z</time>
      </trkpt>
      <trkpt lat="48.70616" lon="1.97843">
        <ele>157.617004</ele>
        <time>2016-05-08T16:50:29Z</time>
      </trkpt>
      <trkpt lat="48.70615" lon="1.97845">
        <ele>157.379089</ele>
        <time>2016-05-08T16:50:31Z</time>
      </trkpt>
      <trkpt lat="48.70614" lon="1.97848">
        <ele>157.713745</ele>
        <time>2016-05-08T16:50:33Z</time>
      </trkpt>
      <trkpt lat="48.70614" lon="1.97852">
        <ele>157.290771</ele>
        <time>2016-05-08T16:50:35Z</time>
      </trkpt>
      <trkpt lat="48.70613" lon="1.97855">
        <ele>157.488403</ele>
        <time>2016-05-08T16:50:37Z</time>
      </trkpt>
      <trkpt lat="48.70614" lon="1.97858">
        <ele>157.289062</ele>
        <time>2016-05-08T16:50:39Z</time>
      </trkpt>
      <trkpt lat="48.70613" lon="1.97862">
        <ele>156.978271</ele>
        <time>2016-05-08T16:50:41Z</time>
      </trkpt>
      <trkpt lat="48.70614" lon="1.97865">
        <ele>156.390442</ele>
        <time>2016-05-08T16:50:43Z</time>
      </trkpt>
      <trkpt lat="48.70615" lon="1.97868">
        <ele>156.245422</ele>
        <time>2016-05-08T16:50:45Z</time>
      </trkpt>
      <trkpt lat="48.70616" lon="1.97871">
        <ele>156.355713</ele>
        <time>2016-05-08T16:50:47Z</time>
      </trkpt>
      <trkpt lat="48.70616" lon="1.97875">
        <ele>155.854736</ele>
        <time>2016-05-08T16:50:49Z</time>
      </trkpt>
      <trkpt lat="48.70615" lon="1.97878">
        <ele>156.144043</ele>
        <time>2016-05-08T16:50:51Z</time>
      </trkpt>
      <trkpt lat="48.70616" lon="1.97881">
        <ele>156.677429</ele>
        <time>2016-05-08T16:50:53Z</time>
      </trkpt>
      <trkpt lat="48.70616" lon="1.97884">
        <ele>156.314392</ele>
        <time>2016-05-08T16:50:55Z</time>
      </trkpt>
      <trkpt lat="48.70615" lon="1.97887">
        <ele>156.058716</ele>
        <time>2016-05-08T16:50:57Z</time>
      </trkpt>
      <trkpt lat="48.70615" lon="1.97889">
        <ele>156.099304</ele>
        <time>2016-05-08T16:50:59Z</time>
      </trkpt>
      <trkpt lat="48.70615" lon="1.9789">
        <ele>155.146606</ele>
        <time>2016-05-08T16:51:01Z</time>
      </trkpt>
      <trkpt lat="48.70614" lon="1.9789">
        <ele>154.432129</ele>
        <time>2016-05-08T16:51:03Z</time>
      </trkpt>
      <trkpt lat="48.70614" lon="1.97892">
        <ele>154.126404</ele>
        <time>2016-05-08T16:51:05Z</time>
      </trkpt>
      <trkpt lat="48.70615" lon="1.97894">
        <ele>154.122803</ele>
        <time>2016-05-08T16:51:07Z</time>
      </trkpt>
      <trkpt lat="48.70615" lon="1.97897">
        <ele>154.883484</ele>
        <time>2016-05-08T16:51:09Z</time>
      </trkpt>
      <trkpt lat="48.70615" lon="1.97901">
        <ele>154.675232</ele>
        <time>2016-05-08T16:51:11Z</time>
      </trkpt>
      <trkpt lat="48.70614" lon="1.97904">
        <ele>154.497009</ele>
        <time>2016-05-08T16:51:13Z</time>
      </trkpt>
      <trkpt lat="48.70614" lon="1.97907">
        <ele>154.314941</ele>
        <time>2016-05-08T16:51:15Z</time>
      </trkpt>
      <trkpt lat="48.70613" lon="1.97911">
        <ele>154.248047</ele>
        <time>2016-05-08T16:51:17Z</time>
      </trkpt>
      <trkpt lat="48.70613" lon="1.97914">
        <ele>153.62323</ele>
        <time>2016-05-08T16:51:19Z</time>
      </trkpt>
      <trkpt lat="48.70613" lon="1.97918">
        <ele>153.128296</ele>
        <time>2016-05-08T16:51:21Z</time>
      </trkpt>
      <trkpt lat="48.70612" lon="1.97921">
        <ele>153.174072</ele>
        <time>2016-05-08T16:51:23Z</time>
      </trkpt>
      <trkpt lat="48.70612" lon="1.97924">
        <ele>152.870544</ele>
        <time>2016-05-08T16:51:25Z</time>
      </trkpt>
      <trkpt lat="48.70612" lon="1.97925">
        <ele>152.295532</ele>
        <time>2016-05-08T16:51:27Z</time>
      </trkpt>
      <trkpt lat="48.70612" lon="1.97925">
        <ele>152.040344</ele>
        <time>2016-05-08T16:51:29Z</time>
      </trkpt>
      <trkpt lat="48.70612" lon="1.97925">
        <ele>152.036621</ele>
        <time>2016-05-08T16:51:31Z</time>
      </trkpt>
      <trkpt lat="48.70613" lon="1.97925">
        <ele>152.789001</ele>
        <time>2016-05-08T16:51:33Z</time>
      </trkpt>
      <trkpt lat="48.70614" lon="1.97926">
        <ele>152.530518</ele>
        <time>2016-05-08T16:51:35Z</time>
      </trkpt>
      <trkpt lat="48.70614" lon="1.97929">
        <ele>152.677734</ele>
        <time>2016-05-08T16:51:37Z</time>
      </trkpt>
      <trkpt lat="48.70614" lon="1.97932">
        <ele>152.175964</ele>
        <time>2016-05-08T16:51:39Z</time>
      </trkpt>
      <trkpt lat="48.70614" lon="1.97936">
        <ele>152.273071</ele>
        <time>2016-05-08T16:51:41Z</time>
      </trkpt>
      <trkpt lat="48.70613" lon="1.97939">
        <ele>152.413696</ele>
        <time>2016-05-08T16:51:43Z</time>
      </trkpt>
      <trkpt lat="48.70614" lon="1.97943">
        <ele>152.68689</ele>
        <time>2016-05-08T16:51:45Z</time>
      </trkpt>
      <trkpt lat="48.70614" lon="1.97946">
        <ele>152.591309</ele>
        <time>2016-05-08T16:51:47Z</time>
      </trkpt>
      <trkpt lat="48.70611" lon="1.97949">
        <ele>151.50293</ele>
        <time>2016-05-08T16:51:49Z</time>
      </trkpt>
      <trkpt lat="48.7061" lon="1.97952">
        <ele>151.569763</ele>
        <time>2016-05-08T16:51:51Z</time>
      </trkpt>
      <trkpt lat="48.70609" lon="1.97955">
        <ele>151.443726</ele>
        <time>2016-05-08T16:51:53Z</time>
      </trkpt>
      <trkpt lat="48.70608" lon="1.97959">
        <ele>151.396118</ele>
        <time>2016-05-08T16:51:55Z</time>
      </trkpt>
      <trkpt lat="48.70606" lon="1.97963">
        <ele>151.373657</ele>
        <time>2016-05-08T16:51:57Z</time>
      </trkpt>
      <trkpt lat="48.70606" lon="1.97967">
        <ele>151.057495</ele>
        <time>2016-05-08T16:51:59Z</time>
      </trkpt>
      <trkpt lat="48.70606" lon="1.97971">
        <ele>150.555298</ele>
        <time>2016-05-08T16:52:01Z</time>
      </trkpt>
      <trkpt lat="48.70606" lon="1.97975">
        <ele>149.90448</ele>
        <time>2016-05-08T16:52:03Z</time>
      </trkpt>
      <trkpt lat="48.70605" lon="1.97978">
        <ele>148.482544</ele>
        <time>2016-05-08T16:52:05Z</time>
      </trkpt>
      <trkpt lat="48.70606" lon="1.97981">
        <ele>149.58374</ele>
        <time>2016-05-08T16:52:07Z</time>
      </trkpt>
      <trkpt lat="48.70606" lon="1.97983">
        <ele>149.039368</ele>
        <time>2016-05-08T16:52:08Z</time>
      </trkpt>
      <trkpt lat="48.70608" lon="1.97987">
        <ele>149.360291</ele>
        <time>2016-05-08T16:52:10Z</time>
      </trkpt>
      <trkpt lat="48.70609" lon="1.97988">
        <ele>148.559204</ele>
        <time>2016-05-08T16:52:11Z</time>
      </trkpt>
      <trkpt lat="48.70609" lon="1.97992">
        <ele>147.985901</ele>
        <time>2016-05-08T16:52:13Z</time>
      </trkpt>
      <trkpt lat="48.7061" lon="1.97994">
        <ele>148.416626</ele>
        <time>2016-05-08T16:52:14Z</time>
      </trkpt>
      <trkpt lat="48.70611" lon="1.97996">
        <ele>148.097351</ele>
        <time>2016-05-08T16:52:15Z</time>
      </trkpt>
      <trkpt lat="48.70612" lon="1.97998">
        <ele>147.75</ele>
        <time>2016-05-08T16:52:16Z</time>
      </trkpt>
      <trkpt lat="48.70613" lon="1.98">
        <ele>148.351379</ele>
        <time>2016-05-08T16:52:17Z</time>
      </trkpt>
      <trkpt lat="48.70613" lon="1.98002">
        <ele>149.301758</ele>
        <time>2016-05-08T16:52:18Z</time>
      </trkpt>
      <trkpt lat="48.70614" lon="1.98004">
        <ele>150.681946</ele>
        <time>2016-05-08T16:52:19Z</time>
      </trkpt>
      <trkpt lat="48.70615" lon="1.98006">
        <ele>151.910767</ele>
        <time>2016-05-08T16:52:20Z</time>
      </trkpt>
      <trkpt lat="48.70615" lon="1.98008">
        <ele>150.451904</ele>
        <time>2016-05-08T16:52:21Z</time>
      </trkpt>
      <trkpt lat="48.70615" lon="1.9801">
        <ele>149.599792</ele>
        <time>2016-05-08T16:52:22Z</time>
      </trkpt>
      <trkpt lat="48.70615" lon="1.98012">
        <ele>149.667603</ele>
        <time>2016-05-08T16:52:23Z</time>
      </trkpt>
      <trkpt lat="48.70615" lon="1.98014">
        <ele>150.732788</ele>
        <time>2016-05-08T16:52:24Z</time>
      </trkpt>
      <trkpt lat="48.70615" lon="1.98015">
        <ele>151.311646</ele>
        <time>2016-05-08T16:52:25Z</time>
      </trkpt>
      <trkpt lat="48.70615" lon="1.98016">
        <ele>151.814087</ele>
        <time>2016-05-08T16:52:26Z</time>
      </trkpt>
      <trkpt lat="48.70615" lon="1.98018">
        <ele>150.796753</ele>
        <time>2016-05-08T16:52:27Z</time>
      </trkpt>
      <trkpt lat="48.70615" lon="1.98019">
        <ele>150.411865</ele>
        <time>2016-05-08T16:52:28Z</time>
      </trkpt>
      <trkpt lat="48.70615" lon="1.9802">
        <ele>151.074646</ele>
        <time>2016-05-08T16:52:29Z</time>
      </trkpt>
      <trkpt lat="48.70614" lon="1.98022">
        <ele>148.906616</ele>
        <time>2016-05-08T16:52:30Z</time>
      </trkpt>
      <trkpt lat="48.70613" lon="1.98024">
        <ele>148.989868</ele>
        <time>2016-05-08T16:52:31Z</time>
      </trkpt>
      <trkpt lat="48.70613" lon="1.98025">
        <ele>149.570374</ele>
        <time>2016-05-08T16:52:32Z</time>
      </trkpt>
      <trkpt lat="48.70612" lon="1.98027">
        <ele>149.120178</ele>
        <time>2016-05-08T16:52:33Z</time>
      </trkpt>
      <trkpt lat="48.70611" lon="1.98029">
        <ele>149.952515</ele>
        <time>2016-05-08T16:52:34Z</time>
      </trkpt>
      <trkpt lat="48.70611" lon="1.9803">
        <ele>149.767029</ele>
        <time>2016-05-08T16:52:35Z</time>
      </trkpt>
      <trkpt lat="48.7061" lon="1.98031">
        <ele>149.387695</ele>
        <time>2016-05-08T16:52:36Z</time>
      </trkpt>
      <trkpt lat="48.7061" lon="1.98032">
        <ele>149.801575</ele>
        <time>2016-05-08T16:52:37Z</time>
      </trkpt>
      <trkpt lat="48.7061" lon="1.98032">
        <ele>149.928833</ele>
        <time>2016-05-08T16:52:38Z</time>
      </trkpt>
      <trkpt lat="48.7061" lon="1.98033">
        <ele>149.69635</ele>
        <time>2016-05-08T16:52:39Z</time>
      </trkpt>
      <trkpt lat="48.7061" lon="1.98034">
        <ele>149.953247</ele>
        <time>2016-05-08T16:52:40Z</time>
      </trkpt>
      <trkpt lat="48.70611" lon="1.98034">
        <ele>150.36377</ele>
        <time>2016-05-08T16:52:41Z</time>
      </trkpt>
      <trkpt lat="48.70611" lon="1.98034">
        <ele>150.467224</ele>
        <time>2016-05-08T16:52:42Z</time>
      </trkpt>
      <trkpt lat="48.70611" lon="1.98034">
        <ele>150.018921</ele>
        <time>2016-05-08T16:52:43Z</time>
      </trkpt>
      <trkpt lat="48.70611" lon="1.98034">
        <ele>149.684692</ele>
        <time>2016-05-08T16:52:44Z</time>
      </trkpt>
      <trkpt lat="48.70611" lon="1.98034">
        <ele>149.664429</ele>
        <time>2016-05-08T16:52:45Z</time>
      </trkpt>
      <trkpt lat="48.70611" lon="1.98033">
        <ele>149.819702</ele>
        <time>2016-05-08T16:52:46Z</time>
      </trkpt>
      <trkpt lat="48.70611" lon="1.98033">
        <ele>150.253296</ele>
        <time>2016-05-08T16:52:47Z</time>
      </trkpt>
      <trkpt lat="48.70611" lon="1.98033">
        <ele>150.450684</ele>
        <time>2016-05-08T16:52:48Z</time>
      </trkpt>
      <trkpt lat="48.70611" lon="1.98033">
        <ele>149.749512</ele>
        <time>2016-05-08T16:52:49Z</time>
      </trkpt>
      <trkpt lat="48.70611" lon="1.98033">
        <ele>149.912354</ele>
        <time>2016-05-08T16:52:50Z</time>
      </trkpt>
      <trkpt lat="48.70611" lon="1.98033">
        <ele>149.391541</ele>
        <time>2016-05-08T16:52:51Z</time>
      </trkpt>
      <trkpt lat="48.70611" lon="1.98033">
        <ele>148.89978</ele>
        <time>2016-05-08T16:52:52Z</time>
      </trkpt>
      <trkpt lat="48.70611" lon="1.98033">
        <ele>148.233765</ele>
        <time>2016-05-08T16:52:53Z</time>
      </trkpt>
      <trkpt lat="48.70611" lon="1.98033">
        <ele>148.239929</ele>
        <time>2016-05-08T16:52:54Z</time>
      </trkpt>
      <trkpt lat="48.70611" lon="1.98033">
        <ele>148.945679</ele>
        <time>2016-05-08T16:52:55Z</time>
      </trkpt>
      <trkpt lat="48.70611" lon="1.98033">
        <ele>148.977417</ele>
        <time>2016-05-08T16:52:56Z</time>
      </trkpt>
      <trkpt lat="48.70611" lon="1.98033">
        <ele>148.976868</ele>
        <time>2016-05-08T16:52:57Z</time>
      </trkpt>
      <trkpt lat="48.70611" lon="1.98033">
        <ele>148.973572</ele>
        <time>2016-05-08T16:52:58Z</time>
      </trkpt>
      <trkpt lat="48.70611" lon="1.98033">
        <ele>148.975586</ele>
        <time>2016-05-08T16:52:59Z</time>
      </trkpt>
      <trkpt lat="48.70611" lon="1.98033">
        <ele>148.976318</ele>
        <time>2016-05-08T16:53:00Z</time>
      </trkpt>
      <trkpt lat="48.70611" lon="1.98033">
        <ele>148.977295</ele>
        <time>2016-05-08T16:53:01Z</time>
      </trkpt>
      <trkpt lat="48.70611" lon="1.98033">
        <ele>148.977356</ele>
        <time>2016-05-08T16:53:02Z</time>
      </trkpt>
      <trkpt lat="48.70611" lon="1.98033">
        <ele>148.977173</ele>
        <time>2016-05-08T16:53:03Z</time>
      </trkpt>
      <trkpt lat="48.70611" lon="1.98033">
        <ele>148.977295</ele>
        <time>2016-05-08T16:53:04Z</time>
      </trkpt>
      <trkpt lat="48.70611" lon="1.98033">
        <ele>148.974243</ele>
        <time>2016-05-08T16:53:05Z</time>
      </trkpt>
      <trkpt lat="48.70609" lon="1.98034">
        <ele>149.047607</ele>
        <time>2016-05-08T16:53:06Z</time>
      </trkpt>
      <trkpt lat="48.70608" lon="1.98035">
        <ele>150.043457</ele>
        <time>2016-05-08T16:53:07Z</time>
      </trkpt>
      <trkpt lat="48.70607" lon="1.98037">
        <ele>150.007874</ele>
        <time>2016-05-08T16:53:08Z</time>
      </trkpt>
      <trkpt lat="48.70607" lon="1.98038">
        <ele>149.93158</ele>
        <time>2016-05-08T16:53:09Z</time>
      </trkpt>
      <trkpt lat="48.70607" lon="1.9804">
        <ele>150.178894</ele>
        <time>2016-05-08T16:53:10Z</time>
      </trkpt>
      <trkpt lat="48.70607" lon="1.98041">
        <ele>150.375488</ele>
        <time>2016-05-08T16:53:11Z</time>
      </trkpt>
      <trkpt lat="48.70607" lon="1.98042">
        <ele>150.008911</ele>
        <time>2016-05-08T16:53:12Z</time>
      </trkpt>
      <trkpt lat="48.70607" lon="1.98044">
        <ele>148.577271</ele>
        <time>2016-05-08T16:53:13Z</time>
      </trkpt>
      <trkpt lat="48.70607" lon="1.98045">
        <ele>150.125916</ele>
        <time>2016-05-08T16:53:14Z</time>
      </trkpt>
      <trkpt lat="48.70608" lon="1.98047">
        <ele>149.697449</ele>
        <time>2016-05-08T16:53:15Z</time>
      </trkpt>
      <trkpt lat="48.70608" lon="1.98049">
        <ele>150.235229</ele>
        <time>2016-05-08T16:53:16Z</time>
      </trkpt>
      <trkpt lat="48.70609" lon="1.98051">
        <ele>149.652344</ele>
        <time>2016-05-08T16:53:17Z</time>
      </trkpt>
      <trkpt lat="48.70609" lon="1.98052">
        <ele>150.539185</ele>
        <time>2016-05-08T16:53:18Z</time>
      </trkpt>
      <trkpt lat="48.7061" lon="1.98054">
        <ele>150.568909</ele>
        <time>2016-05-08T16:53:19Z</time>
      </trkpt>
      <trkpt lat="48.7061" lon="1.98056">
        <ele>149.563843</ele>
        <time>2016-05-08T16:53:20Z</time>
      </trkpt>
      <trkpt lat="48.70611" lon="1.98058">
        <ele>150.084106</ele>
        <time>2016-05-08T16:53:21Z</time>
      </trkpt>
      <trkpt lat="48.70611" lon="1.98059">
        <ele>150.026367</ele>
        <time>2016-05-08T16:53:22Z</time>
      </trkpt>
      <trkpt lat="48.70611" lon="1.98061">
        <ele>150.002502</ele>
        <time>2016-05-08T16:53:23Z</time>
      </trkpt>
      <trkpt lat="48.70611" lon="1.98063">
        <ele>150.089661</ele>
        <time>2016-05-08T16:53:24Z</time>
      </trkpt>
      <trkpt lat="48.70611" lon="1.98064">
        <ele>149.338623</ele>
        <time>2016-05-08T16:53:25Z</time>
      </trkpt>
      <trkpt lat="48.70612" lon="1.98066">
        <ele>148.624878</ele>
        <time>2016-05-08T16:53:26Z</time>
      </trkpt>
      <trkpt lat="48.70612" lon="1.98068">
        <ele>149.098816</ele>
        <time>2016-05-08T16:53:27Z</time>
      </trkpt>
      <trkpt lat="48.70612" lon="1.98071">
        <ele>148.42511</ele>
        <time>2016-05-08T16:53:28Z</time>
      </trkpt>
      <trkpt lat="48.70612" lon="1.98073">
        <ele>148.841309</ele>
        <time>2016-05-08T16:53:29Z</time>
      </trkpt>
      <trkpt lat="48.70612" lon="1.98075">
        <ele>148.67627</ele>
        <time>2016-05-08T16:53:30Z</time>
      </trkpt>
      <trkpt lat="48.70612" lon="1.98077">
        <ele>148.864258</ele>
        <time>2016-05-08T16:53:31Z</time>
      </trkpt>
      <trkpt lat="48.70612" lon="1.98079">
        <ele>148.750854</ele>
        <time>2016-05-08T16:53:32Z</time>
      </trkpt>
      <trkpt lat="48.70612" lon="1.98081">
        <ele>148.916626</ele>
        <time>2016-05-08T16:53:33Z</time>
      </trkpt>
      <trkpt lat="48.70611" lon="1.98083">
        <ele>148.873962</ele>
        <time>2016-05-08T16:53:34Z</time>
      </trkpt>
      <trkpt lat="48.70611" lon="1.98085">
        <ele>148.577332</ele>
        <time>2016-05-08T16:53:35Z</time>
      </trkpt>
      <trkpt lat="48.70611" lon="1.98087">
        <ele>148.660706</ele>
        <time>2016-05-08T16:53:36Z</time>
      </trkpt>
      <trkpt lat="48.70611" lon="1.9809">
        <ele>148.633423</ele>
        <time>2016-05-08T16:53:37Z</time>
      </trkpt>
      <trkpt lat="48.70611" lon="1.98092">
        <ele>148.874146</ele>
        <time>2016-05-08T16:53:38Z</time>
      </trkpt>
      <trkpt lat="48.70611" lon="1.98094">
        <ele>148.796021</ele>
        <time>2016-05-08T16:53:39Z</time>
      </trkpt>
      <trkpt lat="48.7061" lon="1.98096">
        <ele>148.825378</ele>
        <time>2016-05-08T16:53:40Z</time>
      </trkpt>
      <trkpt lat="48.7061" lon="1.98097">
        <ele>148.855774</ele>
        <time>2016-05-08T16:53:41Z</time>
      </trkpt>
      <trkpt lat="48.7061" lon="1.98099">
        <ele>148.544678</ele>
        <time>2016-05-08T16:53:42Z</time>
      </trkpt>
      <trkpt lat="48.7061" lon="1.981">
        <ele>148.333374</ele>
        <time>2016-05-08T16:53:43Z</time>
      </trkpt>
      <trkpt lat="48.7061" lon="1.98102">
        <ele>148.433411</ele>
        <time>2016-05-08T16:53:44Z</time>
      </trkpt>
      <trkpt lat="48.7061" lon="1.98104">
        <ele>148.3974</ele>
        <time>2016-05-08T16:53:45Z</time>
      </trkpt>
      <trkpt lat="48.7061" lon="1.98106">
        <ele>148.408203</ele>
        <time>2016-05-08T16:53:46Z</time>
      </trkpt>
      <trkpt lat="48.7061" lon="1.98109">
        <ele>147.653687</ele>
        <time>2016-05-08T16:53:47Z</time>
      </trkpt>
      <trkpt lat="48.7061" lon="1.98111">
        <ele>147.347534</ele>
        <time>2016-05-08T16:53:48Z</time>
      </trkpt>
      <trkpt lat="48.7061" lon="1.98112">
        <ele>147.376831</ele>
        <time>2016-05-08T16:53:49Z</time>
      </trkpt>
      <trkpt lat="48.7061" lon="1.98114">
        <ele>147.916992</ele>
        <time>2016-05-08T16:53:50Z</time>
      </trkpt>
      <trkpt lat="48.7061" lon="1.98116">
        <ele>147.877808</ele>
        <time>2016-05-08T16:53:51Z</time>
      </trkpt>
      <trkpt lat="48.7061" lon="1.98117">
        <ele>147.749634</ele>
        <time>2016-05-08T16:53:52Z</time>
      </trkpt>
      <trkpt lat="48.7061" lon="1.98119">
        <ele>148.233765</ele>
        <time>2016-05-08T16:53:53Z</time>
      </trkpt>
      <trkpt lat="48.70611" lon="1.9812">
        <ele>148.888794</ele>
        <time>2016-05-08T16:53:54Z</time>
      </trkpt>
      <trkpt lat="48.70611" lon="1.98121">
        <ele>149.301025</ele>
        <time>2016-05-08T16:53:55Z</time>
      </trkpt>
      <trkpt lat="48.70611" lon="1.98122">
        <ele>148.79541</ele>
        <time>2016-05-08T16:53:56Z</time>
      </trkpt>
      <trkpt lat="48.70612" lon="1.98123">
        <ele>149.361206</ele>
        <time>2016-05-08T16:53:57Z</time>
      </trkpt>
      <trkpt lat="48.70612" lon="1.98125">
        <ele>149.191101</ele>
        <time>2016-05-08T16:53:58Z</time>
      </trkpt>
      <trkpt lat="48.70613" lon="1.98128">
        <ele>149.033447</ele>
        <time>2016-05-08T16:53:59Z</time>
      </trkpt>
      <trkpt lat="48.70614" lon="1.98129">
        <ele>148.761169</ele>
        <time>2016-05-08T16:54:00Z</time>
      </trkpt>
      <trkpt lat="48.70614" lon="1.98129">
        <ele>149.321533</ele>
        <time>2016-05-08T16:54:01Z</time>
      </trkpt>
      <trkpt lat="48.70614" lon="1.98129">
        <ele>147.553589</ele>
        <time>2016-05-08T16:54:02Z</time>
      </trkpt>
      <trkpt lat="48.70613" lon="1.98128">
        <ele>147.435059</ele>
        <time>2016-05-08T16:54:03Z</time>
      </trkpt>
      <trkpt lat="48.70613" lon="1.98128">
        <ele>147.52356</ele>
        <time>2016-05-08T16:54:04Z</time>
      </trkpt>
      <trkpt lat="48.70613" lon="1.98127">
        <ele>147.660217</ele>
        <time>2016-05-08T16:54:05Z</time>
      </trkpt>
      <trkpt lat="48.70613" lon="1.98127">
        <ele>149.31366</ele>
        <time>2016-05-08T16:54:06Z</time>
      </trkpt>
      <trkpt lat="48.70613" lon="1.98127">
        <ele>149.710999</ele>
        <time>2016-05-08T16:54:07Z</time>
      </trkpt>
      <trkpt lat="48.70613" lon="1.98127">
        <ele>149.241699</ele>
        <time>2016-05-08T16:54:08Z</time>
      </trkpt>
      <trkpt lat="48.70613" lon="1.98127">
        <ele>149.13385</ele>
        <time>2016-05-08T16:54:09Z</time>
      </trkpt>
      <trkpt lat="48.70613" lon="1.98127">
        <ele>149.38208</ele>
        <time>2016-05-08T16:54:10Z</time>
      </trkpt>
      <trkpt lat="48.70614" lon="1.98128">
        <ele>149.442505</ele>
        <time>2016-05-08T16:54:11Z</time>
      </trkpt>
      <trkpt lat="48.70614" lon="1.98128">
        <ele>149.398071</ele>
        <time>2016-05-08T16:54:12Z</time>
      </trkpt>
      <trkpt lat="48.70615" lon="1.98129">
        <ele>149.313599</ele>
        <time>2016-05-08T16:54:13Z</time>
      </trkpt>
      <trkpt lat="48.70615" lon="1.98128">
        <ele>149.184387</ele>
        <time>2016-05-08T16:54:14Z</time>
      </trkpt>
      <trkpt lat="48.70616" lon="1.98128">
        <ele>149.290527</ele>
        <time>2016-05-08T16:54:15Z</time>
      </trkpt>
      <trkpt lat="48.70616" lon="1.98128">
        <ele>149.033447</ele>
        <time>2016-05-08T16:54:16Z</time>
      </trkpt>
      <trkpt lat="48.70615" lon="1.98127">
        <ele>148.677612</ele>
        <time>2016-05-08T16:54:17Z</time>
      </trkpt>
      <trkpt lat="48.70615" lon="1.98128">
        <ele>148.313843</ele>
        <time>2016-05-08T16:54:18Z</time>
      </trkpt>
      <trkpt lat="48.70614" lon="1.98129">
        <ele>148.857117</ele>
        <time>2016-05-08T16:54:19Z</time>
      </trkpt>
      <trkpt lat="48.70614" lon="1.98131">
        <ele>149.070679</ele>
        <time>2016-05-08T16:54:20Z</time>
      </trkpt>
      <trkpt lat="48.70614" lon="1.98133">
        <ele>149.297913</ele>
        <time>2016-05-08T16:54:21Z</time>
      </trkpt>
      <trkpt lat="48.70614" lon="1.98134">
        <ele>149.5</ele>
        <time>2016-05-08T16:54:22Z</time>
      </trkpt>
      <trkpt lat="48.70615" lon="1.98136">
        <ele>149.702271</ele>
        <time>2016-05-08T16:54:23Z</time>
      </trkpt>
      <trkpt lat="48.70615" lon="1.98138">
        <ele>150.663818</ele>
        <time>2016-05-08T16:54:24Z</time>
      </trkpt>
      <trkpt lat="48.70616" lon="1.98139">
        <ele>150.019775</ele>
        <time>2016-05-08T16:54:25Z</time>
      </trkpt>
      <trkpt lat="48.70617" lon="1.9814">
        <ele>150.279053</ele>
        <time>2016-05-08T16:54:26Z</time>
      </trkpt>
      <trkpt lat="48.70617" lon="1.98142">
        <ele>149.857727</ele>
        <time>2016-05-08T16:54:27Z</time>
      </trkpt>
      <trkpt lat="48.70617" lon="1.98143">
        <ele>150.193237</ele>
        <time>2016-05-08T16:54:28Z</time>
      </trkpt>
      <trkpt lat="48.70618" lon="1.98145">
        <ele>150.247803</ele>
        <time>2016-05-08T16:54:29Z</time>
      </trkpt>
      <trkpt lat="48.70619" lon="1.98147">
        <ele>150.013367</ele>
        <time>2016-05-08T16:54:30Z</time>
      </trkpt>
      <trkpt lat="48.7062" lon="1.98148">
        <ele>150.727905</ele>
        <time>2016-05-08T16:54:31Z</time>
      </trkpt>
      <trkpt lat="48.70621" lon="1.9815">
        <ele>150.287048</ele>
        <time>2016-05-08T16:54:32Z</time>
      </trkpt>
      <trkpt lat="48.70622" lon="1.98151">
        <ele>150.384277</ele>
        <time>2016-05-08T16:54:33Z</time>
      </trkpt>
      <trkpt lat="48.70623" lon="1.98153">
        <ele>150.126526</ele>
        <time>2016-05-08T16:54:34Z</time>
      </trkpt>
      <trkpt lat="48.70624" lon="1.98155">
        <ele>150.424194</ele>
        <time>2016-05-08T16:54:35Z</time>
      </trkpt>
      <trkpt lat="48.70625" lon="1.98157">
        <ele>149.108215</ele>
        <time>2016-05-08T16:54:36Z</time>
      </trkpt>
      <trkpt lat="48.70626" lon="1.98159">
        <ele>148.093018</ele>
        <time>2016-05-08T16:54:37Z</time>
      </trkpt>
      <trkpt lat="48.70626" lon="1.98161">
        <ele>148.248474</ele>
        <time>2016-05-08T16:54:38Z</time>
      </trkpt>
      <trkpt lat="48.70627" lon="1.98164">
        <ele>148.294495</ele>
        <time>2016-05-08T16:54:39Z</time>
      </trkpt>
      <trkpt lat="48.70629" lon="1.98166">
        <ele>148.568481</ele>
        <time>2016-05-08T16:54:40Z</time>
      </trkpt>
      <trkpt lat="48.7063" lon="1.98168">
        <ele>147.919739</ele>
        <time>2016-05-08T16:54:41Z</time>
      </trkpt>
      <trkpt lat="48.70632" lon="1.9817">
        <ele>147.017822</ele>
        <time>2016-05-08T16:54:42Z</time>
      </trkpt>
      <trkpt lat="48.70633" lon="1.98172">
        <ele>145.873413</ele>
        <time>2016-05-08T16:54:43Z</time>
      </trkpt>
      <trkpt lat="48.70633" lon="1.98172">
        <ele>146.105713</ele>
        <time>2016-05-08T16:54:44Z</time>
      </trkpt>
      <trkpt lat="48.70634" lon="1.98172">
        <ele>147.780334</ele>
        <time>2016-05-08T16:54:45Z</time>
      </trkpt>
      <trkpt lat="48.70633" lon="1.98172">
        <ele>146.044128</ele>
        <time>2016-05-08T16:54:46Z</time>
      </trkpt>
      <trkpt lat="48.70633" lon="1.98172">
        <ele>146.080322</ele>
        <time>2016-05-08T16:54:47Z</time>
      </trkpt>
      <trkpt lat="48.70633" lon="1.98172">
        <ele>145.138</ele>
        <time>2016-05-08T16:54:48Z</time>
      </trkpt>
      <trkpt lat="48.70633" lon="1.98173">
        <ele>145.804626</ele>
        <time>2016-05-08T16:54:49Z</time>
      </trkpt>
      <trkpt lat="48.70633" lon="1.98175">
        <ele>147.472717</ele>
        <time>2016-05-08T16:54:50Z</time>
      </trkpt>
      <trkpt lat="48.70634" lon="1.98177">
        <ele>147.168396</ele>
        <time>2016-05-08T16:54:51Z</time>
      </trkpt>
      <trkpt lat="48.70634" lon="1.98178">
        <ele>146.968445</ele>
        <time>2016-05-08T16:54:52Z</time>
      </trkpt>
      <trkpt lat="48.70634" lon="1.9818">
        <ele>146.406311</ele>
        <time>2016-05-08T16:54:53Z</time>
      </trkpt>
      <trkpt lat="48.70634" lon="1.98182">
        <ele>145.768311</ele>
        <time>2016-05-08T16:54:54Z</time>
      </trkpt>
      <trkpt lat="48.70635" lon="1.98185">
        <ele>146.479248</ele>
        <time>2016-05-08T16:54:55Z</time>
      </trkpt>
      <trkpt lat="48.70635" lon="1.98187">
        <ele>147.068665</ele>
        <time>2016-05-08T16:54:56Z</time>
      </trkpt>
      <trkpt lat="48.70636" lon="1.98188">
        <ele>147.706055</ele>
        <time>2016-05-08T16:54:57Z</time>
      </trkpt>
      <trkpt lat="48.70635" lon="1.9819">
        <ele>146.765137</ele>
        <time>2016-05-08T16:54:58Z</time>
      </trkpt>
      <trkpt lat="48.70636" lon="1.98192">
        <ele>147.441772</ele>
        <time>2016-05-08T16:54:59Z</time>
      </trkpt>
      <trkpt lat="48.70636" lon="1.98195">
        <ele>148.464478</ele>
        <time>2016-05-08T16:55:00Z</time>
      </trkpt>
      <trkpt lat="48.70637" lon="1.98197">
        <ele>146.275879</ele>
        <time>2016-05-08T16:55:01Z</time>
      </trkpt>
      <trkpt lat="48.70637" lon="1.98199">
        <ele>145.548645</ele>
        <time>2016-05-08T16:55:02Z</time>
      </trkpt>
      <trkpt lat="48.70637" lon="1.98201">
        <ele>145.138428</ele>
        <time>2016-05-08T16:55:03Z</time>
      </trkpt>
      <trkpt lat="48.70637" lon="1.98203">
        <ele>145.623779</ele>
        <time>2016-05-08T16:55:04Z</time>
      </trkpt>
      <trkpt lat="48.70637" lon="1.98204">
        <ele>145.703796</ele>
        <time>2016-05-08T16:55:05Z</time>
      </trkpt>
      <trkpt lat="48.70637" lon="1.98206">
        <ele>146.207886</ele>
        <time>2016-05-08T16:55:06Z</time>
      </trkpt>
      <trkpt lat="48.70637" lon="1.98208">
        <ele>146.204285</ele>
        <time>2016-05-08T16:55:07Z</time>
      </trkpt>
      <trkpt lat="48.70638" lon="1.9821">
        <ele>147.136169</ele>
        <time>2016-05-08T16:55:08Z</time>
      </trkpt>
      <trkpt lat="48.70638" lon="1.98211">
        <ele>147.126709</ele>
        <time>2016-05-08T16:55:09Z</time>
      </trkpt>
      <trkpt lat="48.70639" lon="1.98213">
        <ele>146.972412</ele>
        <time>2016-05-08T16:55:10Z</time>
      </trkpt>
      <trkpt lat="48.70639" lon="1.98216">
        <ele>145.707764</ele>
        <time>2016-05-08T16:55:11Z</time>
      </trkpt>
      <trkpt lat="48.7064" lon="1.98219">
        <ele>147.222046</ele>
        <time>2016-05-08T16:55:12Z</time>
      </trkpt>
      <trkpt lat="48.70639" lon="1.98221">
        <ele>146.320923</ele>
        <time>2016-05-08T16:55:13Z</time>
      </trkpt>
      <trkpt lat="48.70639" lon="1.98222">
        <ele>145.658875</ele>
        <time>2016-05-08T16:55:14Z</time>
      </trkpt>
      <trkpt lat="48.70639" lon="1.98224">
        <ele>146.460999</ele>
        <time>2016-05-08T16:55:15Z</time>
      </trkpt>
      <trkpt lat="48.70639" lon="1.98226">
        <ele>145.823486</ele>
        <time>2016-05-08T16:55:16Z</time>
      </trkpt>
      <trkpt lat="48.70639" lon="1.98228">
        <ele>146.249878</ele>
        <time>2016-05-08T16:55:17Z</time>
      </trkpt>
      <trkpt lat="48.70639" lon="1.98229">
        <ele>145.702332</ele>
        <time>2016-05-08T16:55:18Z</time>
      </trkpt>
      <trkpt lat="48.70638" lon="1.98229">
        <ele>145.164673</ele>
        <time>2016-05-08T16:55:19Z</time>
      </trkpt>
      <trkpt lat="48.70638" lon="1.9823">
        <ele>145.805054</ele>
        <time>2016-05-08T16:55:20Z</time>
      </trkpt>
      <trkpt lat="48.70638" lon="1.98231">
        <ele>144.638611</ele>
        <time>2016-05-08T16:55:21Z</time>
      </trkpt>
      <trkpt lat="48.70638" lon="1.98232">
        <ele>144.338989</ele>
        <time>2016-05-08T16:55:22Z</time>
      </trkpt>
      <trkpt lat="48.70639" lon="1.98233">
        <ele>145.488647</ele>
        <time>2016-05-08T16:55:23Z</time>
      </trkpt>
      <trkpt lat="48.70639" lon="1.98234">
        <ele>145.588867</ele>
        <time>2016-05-08T16:55:24Z</time>
      </trkpt>
      <trkpt lat="48.7064" lon="1.98235">
        <ele>144.123413</ele>
        <time>2016-05-08T16:55:25Z</time>
      </trkpt>
      <trkpt lat="48.70639" lon="1.98236">
        <ele>142.897461</ele>
        <time>2016-05-08T16:55:26Z</time>
      </trkpt>
      <trkpt lat="48.70638" lon="1.98237">
        <ele>142.404541</ele>
        <time>2016-05-08T16:55:27Z</time>
      </trkpt>
      <trkpt lat="48.70638" lon="1.98237">
        <ele>141.676086</ele>
        <time>2016-05-08T16:55:28Z</time>
      </trkpt>
      <trkpt lat="48.70638" lon="1.98237">
        <ele>142.037659</ele>
        <time>2016-05-08T16:55:29Z</time>
      </trkpt>
      <trkpt lat="48.70638" lon="1.98237">
        <ele>142.028992</ele>
        <time>2016-05-08T16:55:30Z</time>
      </trkpt>
      <trkpt lat="48.70638" lon="1.98237">
        <ele>142.022644</ele>
        <time>2016-05-08T16:55:31Z</time>
      </trkpt>
      <trkpt lat="48.70638" lon="1.98237">
        <ele>142.020569</ele>
        <time>2016-05-08T16:55:32Z</time>
      </trkpt>
      <trkpt lat="48.70639" lon="1.98235">
        <ele>142.34668</ele>
        <time>2016-05-08T16:55:33Z</time>
      </trkpt>
      <trkpt lat="48.70639" lon="1.98236">
        <ele>142.389282</ele>
        <time>2016-05-08T16:55:34Z</time>
      </trkpt>
      <trkpt lat="48.70639" lon="1.98236">
        <ele>141.942932</ele>
        <time>2016-05-08T16:55:35Z</time>
      </trkpt>
      <trkpt lat="48.7064" lon="1.98236">
        <ele>141.920349</ele>
        <time>2016-05-08T16:55:36Z</time>
      </trkpt>
      <trkpt lat="48.7064" lon="1.98237">
        <ele>141.999451</ele>
        <time>2016-05-08T16:55:37Z</time>
      </trkpt>
      <trkpt lat="48.70641" lon="1.98239">
        <ele>141.454163</ele>
        <time>2016-05-08T16:55:38Z</time>
      </trkpt>
      <trkpt lat="48.70641" lon="1.9824">
        <ele>140.81665</ele>
        <time>2016-05-08T16:55:39Z</time>
      </trkpt>
      <trkpt lat="48.70641" lon="1.98241">
        <ele>141.575562</ele>
        <time>2016-05-08T16:55:40Z</time>
      </trkpt>
      <trkpt lat="48.70642" lon="1.98242">
        <ele>141.199402</ele>
        <time>2016-05-08T16:55:41Z</time>
      </trkpt>
      <trkpt lat="48.70641" lon="1.98243">
        <ele>140.892822</ele>
        <time>2016-05-08T16:55:42Z</time>
      </trkpt>
      <trkpt lat="48.70641" lon="1.98245">
        <ele>141.265503</ele>
        <time>2016-05-08T16:55:43Z</time>
      </trkpt>
      <trkpt lat="48.70641" lon="1.98246">
        <ele>140.867737</ele>
        <time>2016-05-08T16:55:44Z</time>
      </trkpt>
      <trkpt lat="48.70641" lon="1.98247">
        <ele>141.709839</ele>
        <time>2016-05-08T16:55:45Z</time>
      </trkpt>
      <trkpt lat="48.70641" lon="1.98248">
        <ele>142.454102</ele>
        <time>2016-05-08T16:55:46Z</time>
      </trkpt>
      <trkpt lat="48.7064" lon="1.9825">
        <ele>142.784363</ele>
        <time>2016-05-08T16:55:47Z</time>
      </trkpt>
      <trkpt lat="48.7064" lon="1.98252">
        <ele>142.855591</ele>
        <time>2016-05-08T16:55:48Z</time>
      </trkpt>
      <trkpt lat="48.70639" lon="1.98253">
        <ele>142.513062</ele>
        <time>2016-05-08T16:55:49Z</time>
      </trkpt>
      <trkpt lat="48.70639" lon="1.98254">
        <ele>143.477905</ele>
        <time>2016-05-08T16:55:50Z</time>
      </trkpt>
      <trkpt lat="48.70639" lon="1.98256">
        <ele>143.762451</ele>
        <time>2016-05-08T16:55:51Z</time>
      </trkpt>
      <trkpt lat="48.70639" lon="1.98258">
        <ele>143.896118</ele>
        <time>2016-05-08T16:55:52Z</time>
      </trkpt>
      <trkpt lat="48.70639" lon="1.98259">
        <ele>143.907349</ele>
        <time>2016-05-08T16:55:53Z</time>
      </trkpt>
      <trkpt lat="48.70639" lon="1.9826">
        <ele>143.406921</ele>
        <time>2016-05-08T16:55:54Z</time>
      </trkpt>
      <trkpt lat="48.7064" lon="1.98262">
        <ele>142.667419</ele>
        <time>2016-05-08T16:55:55Z</time>
      </trkpt>
      <trkpt lat="48.70641" lon="1.98264">
        <ele>141.724243</ele>
        <time>2016-05-08T16:55:56Z</time>
      </trkpt>
      <trkpt lat="48.70641" lon="1.98266">
        <ele>142.190186</ele>
        <time>2016-05-08T16:55:57Z</time>
      </trkpt>
      <trkpt lat="48.70642" lon="1.98268">
        <ele>142.249268</ele>
        <time>2016-05-08T16:55:58Z</time>
      </trkpt>
      <trkpt lat="48.70643" lon="1.98269">
        <ele>141.229492</ele>
        <time>2016-05-08T16:55:59Z</time>
      </trkpt>
      <trkpt lat="48.70644" lon="1.9827">
        <ele>140.827209</ele>
        <time>2016-05-08T16:56:00Z</time>
      </trkpt>
      <trkpt lat="48.70645" lon="1.98271">
        <ele>140.54718</ele>
        <time>2016-05-08T16:56:01Z</time>
      </trkpt>
      <trkpt lat="48.70647" lon="1.98272">
        <ele>140.713257</ele>
        <time>2016-05-08T16:56:02Z</time>
      </trkpt>
      <trkpt lat="48.70647" lon="1.98273">
        <ele>140.213257</ele>
        <time>2016-05-08T16:56:03Z</time>
      </trkpt>
      <trkpt lat="48.70648" lon="1.98275">
        <ele>140.214355</ele>
        <time>2016-05-08T16:56:04Z</time>
      </trkpt>
      <trkpt lat="48.70648" lon="1.98275">
        <ele>139.917664</ele>
        <time>2016-05-08T16:56:05Z</time>
      </trkpt>
      <trkpt lat="48.70649" lon="1.98276">
        <ele>139.340759</ele>
        <time>2016-05-08T16:56:06Z</time>
      </trkpt>
      <trkpt lat="48.70649" lon="1.98277">
        <ele>139.942627</ele>
        <time>2016-05-08T16:56:07Z</time>
      </trkpt>
      <trkpt lat="48.70649" lon="1.98279">
        <ele>139.003479</ele>
        <time>2016-05-08T16:56:08Z</time>
      </trkpt>
      <trkpt lat="48.70649" lon="1.98281">
        <ele>138.597778</ele>
        <time>2016-05-08T16:56:09Z</time>
      </trkpt>
      <trkpt lat="48.70648" lon="1.98283">
        <ele>137.893921</ele>
        <time>2016-05-08T16:56:10Z</time>
      </trkpt>
      <trkpt lat="48.70648" lon="1.98285">
        <ele>138.463806</ele>
        <time>2016-05-08T16:56:11Z</time>
      </trkpt>
      <trkpt lat="48.70648" lon="1.98286">
        <ele>138.287903</ele>
        <time>2016-05-08T16:56:12Z</time>
      </trkpt>
      <trkpt lat="48.70648" lon="1.98289">
        <ele>138.400391</ele>
        <time>2016-05-08T16:56:13Z</time>
      </trkpt>
      <trkpt lat="48.70648" lon="1.9829">
        <ele>138.608643</ele>
        <time>2016-05-08T16:56:14Z</time>
      </trkpt>
      <trkpt lat="48.70648" lon="1.98291">
        <ele>139.191528</ele>
        <time>2016-05-08T16:56:15Z</time>
      </trkpt>
      <trkpt lat="48.70648" lon="1.98292">
        <ele>139.181641</ele>
        <time>2016-05-08T16:56:16Z</time>
      </trkpt>
      <trkpt lat="48.70648" lon="1.98293">
        <ele>138.768921</ele>
        <time>2016-05-08T16:56:17Z</time>
      </trkpt>
      <trkpt lat="48.70648" lon="1.98293">
        <ele>138.002075</ele>
        <time>2016-05-08T16:56:18Z</time>
      </trkpt>
      <trkpt lat="48.70647" lon="1.98294">
        <ele>138.315552</ele>
        <time>2016-05-08T16:56:19Z</time>
      </trkpt>
      <trkpt lat="48.70647" lon="1.98294">
        <ele>138.863892</ele>
        <time>2016-05-08T16:56:20Z</time>
      </trkpt>
      <trkpt lat="48.70647" lon="1.98293">
        <ele>138.888794</ele>
        <time>2016-05-08T16:56:21Z</time>
      </trkpt>
      <trkpt lat="48.70646" lon="1.98293">
        <ele>138.175049</ele>
        <time>2016-05-08T16:56:22Z</time>
      </trkpt>
      <trkpt lat="48.70644" lon="1.98293">
        <ele>138.531067</ele>
        <time>2016-05-08T16:56:23Z</time>
      </trkpt>
      <trkpt lat="48.70644" lon="1.98293">
        <ele>137.809814</ele>
        <time>2016-05-08T16:56:24Z</time>
      </trkpt>
      <trkpt lat="48.70644" lon="1.98293">
        <ele>138.587219</ele>
        <time>2016-05-08T16:56:25Z</time>
      </trkpt>
      <trkpt lat="48.70644" lon="1.98293">
        <ele>138.762573</ele>
        <time>2016-05-08T16:56:26Z</time>
      </trkpt>
      <trkpt lat="48.70641" lon="1.98294">
        <ele>139.485046</ele>
        <time>2016-05-08T16:56:27Z</time>
      </trkpt>
      <trkpt lat="48.70641" lon="1.98295">
        <ele>139.477661</ele>
        <time>2016-05-08T16:56:28Z</time>
      </trkpt>
      <trkpt lat="48.70641" lon="1.98296">
        <ele>138.44928</ele>
        <time>2016-05-08T16:56:29Z</time>
      </trkpt>
      <trkpt lat="48.70641" lon="1.98296">
        <ele>138.721252</ele>
        <time>2016-05-08T16:56:30Z</time>
      </trkpt>
      <trkpt lat="48.7064" lon="1.98295">
        <ele>138.589172</ele>
        <time>2016-05-08T16:56:31Z</time>
      </trkpt>
      <trkpt lat="48.7064" lon="1.98293">
        <ele>138.488647</ele>
        <time>2016-05-08T16:56:32Z</time>
      </trkpt>
      <trkpt lat="48.70639" lon="1.98293">
        <ele>140.029114</ele>
        <time>2016-05-08T16:56:33Z</time>
      </trkpt>
      <trkpt lat="48.70637" lon="1.98295">
        <ele>139.703369</ele>
        <time>2016-05-08T16:56:34Z</time>
      </trkpt>
      <trkpt lat="48.70637" lon="1.98295">
        <ele>140.019958</ele>
        <time>2016-05-08T16:56:35Z</time>
      </trkpt>
      <trkpt lat="48.70637" lon="1.98297">
        <ele>139.899048</ele>
        <time>2016-05-08T16:56:36Z</time>
      </trkpt>
      <trkpt lat="48.70637" lon="1.98295">
        <ele>139.544556</ele>
        <time>2016-05-08T16:56:37Z</time>
      </trkpt>
      <trkpt lat="48.70637" lon="1.98295">
        <ele>139.263062</ele>
        <time>2016-05-08T16:56:38Z</time>
      </trkpt>
      <trkpt lat="48.70639" lon="1.98294">
        <ele>139.071411</ele>
        <time>2016-05-08T16:56:39Z</time>
      </trkpt>
      <trkpt lat="48.70639" lon="1.98293">
        <ele>138.621948</ele>
        <time>2016-05-08T16:56:40Z</time>
      </trkpt>
      <trkpt lat="48.7064" lon="1.98292">
        <ele>138.378174</ele>
        <time>2016-05-08T16:56:41Z</time>
      </trkpt>
      <trkpt lat="48.7064" lon="1.98291">
        <ele>138.614502</ele>
        <time>2016-05-08T16:56:42Z</time>
      </trkpt>
      <trkpt lat="48.70641" lon="1.9829">
        <ele>139.286621</ele>
        <time>2016-05-08T16:56:43Z</time>
      </trkpt>
      <trkpt lat="48.70642" lon="1.98288">
        <ele>139.81189</ele>
        <time>2016-05-08T16:56:44Z</time>
      </trkpt>
      <trkpt lat="48.70643" lon="1.98287">
        <ele>139.199463</ele>
        <time>2016-05-08T16:56:45Z</time>
      </trkpt>
      <trkpt lat="48.70643" lon="1.98287">
        <ele>140.428345</ele>
        <time>2016-05-08T16:56:46Z</time>
      </trkpt>
      <trkpt lat="48.70645" lon="1.98284">
        <ele>141.561707</ele>
        <time>2016-05-08T16:56:47Z</time>
      </trkpt>
      <trkpt lat="48.70645" lon="1.98283">
        <ele>142.128601</ele>
        <time>2016-05-08T16:56:48Z</time>
      </trkpt>
      <trkpt lat="48.70645" lon="1.98283">
        <ele>142.623535</ele>
        <time>2016-05-08T16:56:49Z</time>
      </trkpt>
      <trkpt lat="48.70645" lon="1.98283">
        <ele>142.531677</ele>
        <time>2016-05-08T16:56:50Z</time>
      </trkpt>
      <trkpt lat="48.70644" lon="1.98283">
        <ele>142.444397</ele>
        <time>2016-05-08T16:56:51Z</time>
      </trkpt>
      <trkpt lat="48.70643" lon="1.98284">
        <ele>142.852905</ele>
        <time>2016-05-08T16:56:52Z</time>
      </trkpt>
      <trkpt lat="48.70641" lon="1.98285">
        <ele>143.555542</ele>
        <time>2016-05-08T16:56:53Z</time>
      </trkpt>
      <trkpt lat="48.7064" lon="1.98286">
        <ele>144.964905</ele>
        <time>2016-05-08T16:56:54Z</time>
      </trkpt>
      <trkpt lat="48.7064" lon="1.98288">
        <ele>145.289185</ele>
        <time>2016-05-08T16:56:55Z</time>
      </trkpt>
      <trkpt lat="48.70641" lon="1.9829">
        <ele>145.759705</ele>
        <time>2016-05-08T16:56:56Z</time>
      </trkpt>
      <trkpt lat="48.70643" lon="1.98291">
        <ele>145.628906</ele>
        <time>2016-05-08T16:56:57Z</time>
      </trkpt>
      <trkpt lat="48.70645" lon="1.98292">
        <ele>145.485718</ele>
        <time>2016-05-08T16:56:58Z</time>
      </trkpt>
      <trkpt lat="48.70645" lon="1.98292">
        <ele>145.609619</ele>
        <time>2016-05-08T16:56:59Z</time>
      </trkpt>
      <trkpt lat="48.70645" lon="1.98292">
        <ele>143.53772</ele>
        <time>2016-05-08T16:57:00Z</time>
      </trkpt>
      <trkpt lat="48.70645" lon="1.98292">
        <ele>143.245544</ele>
        <time>2016-05-08T16:57:01Z</time>
      </trkpt>
      <trkpt lat="48.70644" lon="1.98292">
        <ele>143.374878</ele>
        <time>2016-05-08T16:57:02Z</time>
      </trkpt>
      <trkpt lat="48.70644" lon="1.98292">
        <ele>144.143005</ele>
        <time>2016-05-08T16:57:03Z</time>
      </trkpt>
      <trkpt lat="48.70642" lon="1.98292">
        <ele>143.69281</ele>
        <time>2016-05-08T16:57:04Z</time>
      </trkpt>
      <trkpt lat="48.70641" lon="1.98292">
        <ele>143.392639</ele>
        <time>2016-05-08T16:57:05Z</time>
      </trkpt>
      <trkpt lat="48.70641" lon="1.98292">
        <ele>143.10437</ele>
        <time>2016-05-08T16:57:06Z</time>
      </trkpt>
      <trkpt lat="48.7064" lon="1.98291">
        <ele>143.234558</ele>
        <time>2016-05-08T16:57:07Z</time>
      </trkpt>
      <trkpt lat="48.70641" lon="1.98291">
        <ele>142.088135</ele>
        <time>2016-05-08T16:57:08Z</time>
      </trkpt>
      <trkpt lat="48.70641" lon="1.9829">
        <ele>141.918457</ele>
        <time>2016-05-08T16:57:09Z</time>
      </trkpt>
      <trkpt lat="48.70641" lon="1.9829">
        <ele>140.501221</ele>
        <time>2016-05-08T16:57:10Z</time>
      </trkpt>
      <trkpt lat="48.70642" lon="1.98289">
        <ele>139.870117</ele>
        <time>2016-05-08T16:57:11Z</time>
      </trkpt>
      <trkpt lat="48.70642" lon="1.98288">
        <ele>139.143921</ele>
        <time>2016-05-08T16:57:12Z</time>
      </trkpt>
      <trkpt lat="48.70643" lon="1.9829">
        <ele>135.19873</ele>
        <time>2016-05-08T16:57:13Z</time>
      </trkpt>
      <trkpt lat="48.70643" lon="1.98292">
        <ele>134.644409</ele>
        <time>2016-05-08T16:57:14Z</time>
      </trkpt>
      <trkpt lat="48.70644" lon="1.98293">
        <ele>133.35614</ele>
        <time>2016-05-08T16:57:15Z</time>
      </trkpt>
      <trkpt lat="48.70644" lon="1.98293">
        <ele>134.27887</ele>
        <time>2016-05-08T16:57:16Z</time>
      </trkpt>
      <trkpt lat="48.70644" lon="1.98293">
        <ele>134.448181</ele>
        <time>2016-05-08T16:57:17Z</time>
      </trkpt>
      <trkpt lat="48.70644" lon="1.98292">
        <ele>134.880737</ele>
        <time>2016-05-08T16:57:18Z</time>
      </trkpt>
      <trkpt lat="48.70644" lon="1.9829">
        <ele>135.071594</ele>
        <time>2016-05-08T16:57:19Z</time>
      </trkpt>
      <trkpt lat="48.70643" lon="1.98289">
        <ele>134.661865</ele>
        <time>2016-05-08T16:57:20Z</time>
      </trkpt>
      <trkpt lat="48.70643" lon="1.98289">
        <ele>134.69574</ele>
        <time>2016-05-08T16:57:21Z</time>
      </trkpt>
      <trkpt lat="48.70643" lon="1.98289">
        <ele>134.684082</ele>
        <time>2016-05-08T16:57:22Z</time>
      </trkpt>
      <trkpt lat="48.70643" lon="1.98289">
        <ele>134.693298</ele>
        <time>2016-05-08T16:57:23Z</time>
      </trkpt>
      <trkpt lat="48.70643" lon="1.98289">
        <ele>134.695312</ele>
        <time>2016-05-08T16:57:24Z</time>
      </trkpt>
      <trkpt lat="48.70643" lon="1.98289">
        <ele>134.690247</ele>
        <time>2016-05-08T16:57:25Z</time>
      </trkpt>
      <trkpt lat="48.70643" lon="1.98289">
        <ele>134.693848</ele>
        <time>2016-05-08T16:57:26Z</time>
      </trkpt>
      <trkpt lat="48.70643" lon="1.98289">
        <ele>134.713867</ele>
        <time>2016-05-08T16:57:27Z</time>
      </trkpt>
      <trkpt lat="48.70643" lon="1.98289">
        <ele>135.571045</ele>
        <time>2016-05-08T16:57:28Z</time>
      </trkpt>
      <trkpt lat="48.70642" lon="1.98287">
        <ele>135.079224</ele>
        <time>2016-05-08T16:57:29Z</time>
      </trkpt>
      <trkpt lat="48.70642" lon="1.98288">
        <ele>136.002686</ele>
        <time>2016-05-08T16:57:30Z</time>
      </trkpt>
      <trkpt lat="48.70642" lon="1.98288">
        <ele>136.210449</ele>
        <time>2016-05-08T16:57:31Z</time>
      </trkpt>
      <trkpt lat="48.70642" lon="1.98288">
        <ele>135.752075</ele>
        <time>2016-05-08T16:57:32Z</time>
      </trkpt>
      <trkpt lat="48.70642" lon="1.98288">
        <ele>136.580444</ele>
        <time>2016-05-08T16:57:33Z</time>
      </trkpt>
      <trkpt lat="48.70642" lon="1.98288">
        <ele>137.954468</ele>
        <time>2016-05-08T16:57:34Z</time>
      </trkpt>
      <trkpt lat="48.70642" lon="1.98289">
        <ele>136.818848</ele>
        <time>2016-05-08T16:57:35Z</time>
      </trkpt>
      <trkpt lat="48.70642" lon="1.9829">
        <ele>137.314819</ele>
        <time>2016-05-08T16:57:36Z</time>
      </trkpt>
      <trkpt lat="48.70642" lon="1.9829">
        <ele>139.210083</ele>
        <time>2016-05-08T16:57:37Z</time>
      </trkpt>
      <trkpt lat="48.70642" lon="1.98291">
        <ele>140.246887</ele>
        <time>2016-05-08T16:57:38Z</time>
      </trkpt>
      <trkpt lat="48.70641" lon="1.98291">
        <ele>141.040955</ele>
        <time>2016-05-08T16:57:39Z</time>
      </trkpt>
      <trkpt lat="48.70641" lon="1.98292">
        <ele>140.598267</ele>
        <time>2016-05-08T16:57:40Z</time>
      </trkpt>
      <trkpt lat="48.70641" lon="1.98292">
        <ele>140.764526</ele>
        <time>2016-05-08T16:57:41Z</time>
      </trkpt>
      <trkpt lat="48.70641" lon="1.98292">
        <ele>141.692688</ele>
        <time>2016-05-08T16:57:42Z</time>
      </trkpt>
      <trkpt lat="48.70641" lon="1.98292">
        <ele>140.780457</ele>
        <time>2016-05-08T16:57:43Z</time>
      </trkpt>
      <trkpt lat="48.70643" lon="1.98292">
        <ele>139.877563</ele>
        <time>2016-05-08T16:57:44Z</time>
      </trkpt>
      <trkpt lat="48.70644" lon="1.98293">
        <ele>136.62677</ele>
        <time>2016-05-08T16:57:45Z</time>
      </trkpt>
      <trkpt lat="48.70646" lon="1.98294">
        <ele>135.748901</ele>
        <time>2016-05-08T16:57:46Z</time>
      </trkpt>
      <trkpt lat="48.70648" lon="1.98296">
        <ele>136.709961</ele>
        <time>2016-05-08T16:57:47Z</time>
      </trkpt>
      <trkpt lat="48.70648" lon="1.98298">
        <ele>136.574829</ele>
        <time>2016-05-08T16:57:48Z</time>
      </trkpt>
      <trkpt lat="48.70649" lon="1.98299">
        <ele>136.492493</ele>
        <time>2016-05-08T16:57:49Z</time>
      </trkpt>
      <trkpt lat="48.70649" lon="1.98301">
        <ele>136.399658</ele>
        <time>2016-05-08T16:57:50Z</time>
      </trkpt>
      <trkpt lat="48.70649" lon="1.98302">
        <ele>137.062378</ele>
        <time>2016-05-08T16:57:51Z</time>
      </trkpt>
      <trkpt lat="48.70649" lon="1.98303">
        <ele>137.734314</ele>
        <time>2016-05-08T16:57:52Z</time>
      </trkpt>
      <trkpt lat="48.70648" lon="1.98304">
        <ele>136.798218</ele>
        <time>2016-05-08T16:57:53Z</time>
      </trkpt>
      <trkpt lat="48.70648" lon="1.98305">
        <ele>136.846375</ele>
        <time>2016-05-08T16:57:54Z</time>
      </trkpt>
      <trkpt lat="48.70647" lon="1.98306">
        <ele>135.249023</ele>
        <time>2016-05-08T16:57:55Z</time>
      </trkpt>
      <trkpt lat="48.70646" lon="1.98307">
        <ele>136.204529</ele>
        <time>2016-05-08T16:57:56Z</time>
      </trkpt>
      <trkpt lat="48.70645" lon="1.98309">
        <ele>136.080688</ele>
        <time>2016-05-08T16:57:57Z</time>
      </trkpt>
      <trkpt lat="48.70645" lon="1.9831">
        <ele>136.399658</ele>
        <time>2016-05-08T16:57:58Z</time>
      </trkpt>
      <trkpt lat="48.70645" lon="1.98311">
        <ele>136.290649</ele>
        <time>2016-05-08T16:57:59Z</time>
      </trkpt>
      <trkpt lat="48.70645" lon="1.98312">
        <ele>135.467041</ele>
        <time>2016-05-08T16:58:00Z</time>
      </trkpt>
      <trkpt lat="48.70645" lon="1.98313">
        <ele>135.138062</ele>
        <time>2016-05-08T16:58:01Z</time>
      </trkpt>
      <trkpt lat="48.70645" lon="1.98314">
        <ele>135.12793</ele>
        <time>2016-05-08T16:58:02Z</time>
      </trkpt>
      <trkpt lat="48.70645" lon="1.98315">
        <ele>135.379333</ele>
        <time>2016-05-08T16:58:03Z</time>
      </trkpt>
      <trkpt lat="48.70646" lon="1.98317">
        <ele>134.40332</ele>
        <time>2016-05-08T16:58:04Z</time>
      </trkpt>
      <trkpt lat="48.70647" lon="1.98319">
        <ele>134.61261</ele>
        <time>2016-05-08T16:58:05Z</time>
      </trkpt>
      <trkpt lat="48.70647" lon="1.98321">
        <ele>134.723083</ele>
        <time>2016-05-08T16:58:06Z</time>
      </trkpt>
      <trkpt lat="48.70648" lon="1.98323">
        <ele>135.398315</ele>
        <time>2016-05-08T16:58:07Z</time>
      </trkpt>
      <trkpt lat="48.70649" lon="1.98325">
        <ele>135.327393</ele>
        <time>2016-05-08T16:58:08Z</time>
      </trkpt>
      <trkpt lat="48.70651" lon="1.98327">
        <ele>135.667236</ele>
        <time>2016-05-08T16:58:09Z</time>
      </trkpt>
      <trkpt lat="48.70652" lon="1.98329">
        <ele>135.199341</ele>
        <time>2016-05-08T16:58:10Z</time>
      </trkpt>
      <trkpt lat="48.70654" lon="1.98331">
        <ele>135.287354</ele>
        <time>2016-05-08T16:58:11Z</time>
      </trkpt>
      <trkpt lat="48.70656" lon="1.98332">
        <ele>135.212646</ele>
        <time>2016-05-08T16:58:12Z</time>
      </trkpt>
      <trkpt lat="48.70657" lon="1.98334">
        <ele>135.543335</ele>
        <time>2016-05-08T16:58:13Z</time>
      </trkpt>
      <trkpt lat="48.70658" lon="1.98336">
        <ele>135.214355</ele>
        <time>2016-05-08T16:58:14Z</time>
      </trkpt>
      <trkpt lat="48.70659" lon="1.98338">
        <ele>135.849731</ele>
        <time>2016-05-08T16:58:15Z</time>
      </trkpt>
      <trkpt lat="48.70659" lon="1.98339">
        <ele>135.112305</ele>
        <time>2016-05-08T16:58:16Z</time>
      </trkpt>
      <trkpt lat="48.7066" lon="1.98343">
        <ele>134.518921</ele>
        <time>2016-05-08T16:58:17Z</time>
      </trkpt>
      <trkpt lat="48.7066" lon="1.98346">
        <ele>134.423828</ele>
        <time>2016-05-08T16:58:18Z</time>
      </trkpt>
      <trkpt lat="48.7066" lon="1.98348">
        <ele>134.213013</ele>
        <time>2016-05-08T16:58:19Z</time>
      </trkpt>
      <trkpt lat="48.7066" lon="1.9835">
        <ele>134.995239</ele>
        <time>2016-05-08T16:58:20Z</time>
      </trkpt>
      <trkpt lat="48.70659" lon="1.98352">
        <ele>134.957581</ele>
        <time>2016-05-08T16:58:21Z</time>
      </trkpt>
      <trkpt lat="48.70658" lon="1.98354">
        <ele>135.269165</ele>
        <time>2016-05-08T16:58:22Z</time>
      </trkpt>
      <trkpt lat="48.70658" lon="1.98355">
        <ele>135.219055</ele>
        <time>2016-05-08T16:58:23Z</time>
      </trkpt>
      <trkpt lat="48.70657" lon="1.98356">
        <ele>135.793457</ele>
        <time>2016-05-08T16:58:24Z</time>
      </trkpt>
      <trkpt lat="48.70656" lon="1.98357">
        <ele>135.881042</ele>
        <time>2016-05-08T16:58:25Z</time>
      </trkpt>
      <trkpt lat="48.70656" lon="1.98359">
        <ele>135.744629</ele>
        <time>2016-05-08T16:58:26Z</time>
      </trkpt>
      <trkpt lat="48.70656" lon="1.98361">
        <ele>135.666992</ele>
        <time>2016-05-08T16:58:27Z</time>
      </trkpt>
      <trkpt lat="48.70657" lon="1.98362">
        <ele>135.943726</ele>
        <time>2016-05-08T16:58:28Z</time>
      </trkpt>
      <trkpt lat="48.70658" lon="1.98363">
        <ele>135.853333</ele>
        <time>2016-05-08T16:58:29Z</time>
      </trkpt>
      <trkpt lat="48.7066" lon="1.98364">
        <ele>135.854614</ele>
        <time>2016-05-08T16:58:30Z</time>
      </trkpt>
      <trkpt lat="48.70661" lon="1.98366">
        <ele>135.570374</ele>
        <time>2016-05-08T16:58:31Z</time>
      </trkpt>
      <trkpt lat="48.70663" lon="1.98367">
        <ele>135.765564</ele>
        <time>2016-05-08T16:58:32Z</time>
      </trkpt>
      <trkpt lat="48.70663" lon="1.98367">
        <ele>136.205811</ele>
        <time>2016-05-08T16:58:33Z</time>
      </trkpt>
      <trkpt lat="48.70664" lon="1.98368">
        <ele>136.585144</ele>
        <time>2016-05-08T16:58:34Z</time>
      </trkpt>
      <trkpt lat="48.70665" lon="1.98369">
        <ele>136.054565</ele>
        <time>2016-05-08T16:58:35Z</time>
      </trkpt>
      <trkpt lat="48.70665" lon="1.98369">
        <ele>136.014587</ele>
        <time>2016-05-08T16:58:36Z</time>
      </trkpt>
      <trkpt lat="48.70666" lon="1.9837">
        <ele>136.544434</ele>
        <time>2016-05-08T16:58:37Z</time>
      </trkpt>
      <trkpt lat="48.70667" lon="1.9837">
        <ele>136.780701</ele>
        <time>2016-05-08T16:58:38Z</time>
      </trkpt>
      <trkpt lat="48.70668" lon="1.9837">
        <ele>136.807251</ele>
        <time>2016-05-08T16:58:39Z</time>
      </trkpt>
      <trkpt lat="48.70668" lon="1.9837">
        <ele>136.648987</ele>
        <time>2016-05-08T16:58:40Z</time>
      </trkpt>
      <trkpt lat="48.70669" lon="1.98371">
        <ele>136.425476</ele>
        <time>2016-05-08T16:58:41Z</time>
      </trkpt>
      <trkpt lat="48.7067" lon="1.98372">
        <ele>137.390686</ele>
        <time>2016-05-08T16:58:42Z</time>
      </trkpt>
      <trkpt lat="48.70671" lon="1.98373">
        <ele>137.469482</ele>
        <time>2016-05-08T16:58:43Z</time>
      </trkpt>
      <trkpt lat="48.70672" lon="1.98373">
        <ele>136.728638</ele>
        <time>2016-05-08T16:58:44Z</time>
      </trkpt>
      <trkpt lat="48.70672" lon="1.98373">
        <ele>136.98877</ele>
        <time>2016-05-08T16:58:45Z</time>
      </trkpt>
      <trkpt lat="48.70672" lon="1.98373">
        <ele>136.527466</ele>
        <time>2016-05-08T16:58:46Z</time>
      </trkpt>
      <trkpt lat="48.70672" lon="1.98373">
        <ele>136.65741</ele>
        <time>2016-05-08T16:58:47Z</time>
      </trkpt>
      <trkpt lat="48.70672" lon="1.98373">
        <ele>136.970764</ele>
        <time>2016-05-08T16:58:48Z</time>
      </trkpt>
      <trkpt lat="48.70673" lon="1.98374">
        <ele>136.741272</ele>
        <time>2016-05-08T16:58:49Z</time>
      </trkpt>
      <trkpt lat="48.70673" lon="1.98373">
        <ele>135.371887</ele>
        <time>2016-05-08T16:58:50Z</time>
      </trkpt>
      <trkpt lat="48.70672" lon="1.98373">
        <ele>135.342834</ele>
        <time>2016-05-08T16:58:51Z</time>
      </trkpt>
      <trkpt lat="48.70672" lon="1.98372">
        <ele>135.803101</ele>
        <time>2016-05-08T16:58:52Z</time>
      </trkpt>
      <trkpt lat="48.70672" lon="1.98372">
        <ele>135.655823</ele>
        <time>2016-05-08T16:58:53Z</time>
      </trkpt>
      <trkpt lat="48.70671" lon="1.98371">
        <ele>136.799438</ele>
        <time>2016-05-08T16:58:54Z</time>
      </trkpt>
      <trkpt lat="48.7067" lon="1.98369">
        <ele>134.843628</ele>
        <time>2016-05-08T16:58:55Z</time>
      </trkpt>
      <trkpt lat="48.7067" lon="1.98369">
        <ele>134.292358</ele>
        <time>2016-05-08T16:58:56Z</time>
      </trkpt>
      <trkpt lat="48.7067" lon="1.98369">
        <ele>133.80365</ele>
        <time>2016-05-08T16:58:57Z</time>
      </trkpt>
      <trkpt lat="48.70669" lon="1.98368">
        <ele>134.517334</ele>
        <time>2016-05-08T16:58:58Z</time>
      </trkpt>
      <trkpt lat="48.70669" lon="1.98368">
        <ele>135.189148</ele>
        <time>2016-05-08T16:58:59Z</time>
      </trkpt>
      <trkpt lat="48.70669" lon="1.98368">
        <ele>135.864807</ele>
        <time>2016-05-08T16:59:00Z</time>
      </trkpt>
      <trkpt lat="48.70669" lon="1.98368">
        <ele>135.632629</ele>
        <time>2016-05-08T16:59:01Z</time>
      </trkpt>
      <trkpt lat="48.70669" lon="1.98368">
        <ele>135.179382</ele>
        <time>2016-05-08T16:59:02Z</time>
      </trkpt>
      <trkpt lat="48.70669" lon="1.98367">
        <ele>135.332886</ele>
        <time>2016-05-08T16:59:03Z</time>
      </trkpt>
      <trkpt lat="48.70669" lon="1.98367">
        <ele>135.565674</ele>
        <time>2016-05-08T16:59:04Z</time>
      </trkpt>
      <trkpt lat="48.7067" lon="1.98367">
        <ele>134.780396</ele>
        <time>2016-05-08T16:59:05Z</time>
      </trkpt>
      <trkpt lat="48.7067" lon="1.98368">
        <ele>134.898376</ele>
        <time>2016-05-08T16:59:06Z</time>
      </trkpt>
      <trkpt lat="48.7067" lon="1.98369">
        <ele>135.781982</ele>
        <time>2016-05-08T16:59:07Z</time>
      </trkpt>
      <trkpt lat="48.7067" lon="1.98369">
        <ele>135.7547</ele>
        <time>2016-05-08T16:59:08Z</time>
      </trkpt>
      <trkpt lat="48.7067" lon="1.98369">
        <ele>135.963684</ele>
        <time>2016-05-08T16:59:09Z</time>
      </trkpt>
      <trkpt lat="48.7067" lon="1.98369">
        <ele>136.21167</ele>
        <time>2016-05-08T16:59:10Z</time>
      </trkpt>
      <trkpt lat="48.7067" lon="1.98369">
        <ele>136.736084</ele>
        <time>2016-05-08T16:59:11Z</time>
      </trkpt>
      <trkpt lat="48.7067" lon="1.98369">
        <ele>136.70697</ele>
        <time>2016-05-08T16:59:12Z</time>
      </trkpt>
      <trkpt lat="48.70671" lon="1.98371">
        <ele>137.477295</ele>
        <time>2016-05-08T16:59:13Z</time>
      </trkpt>
      <trkpt lat="48.70672" lon="1.98371">
        <ele>138.069824</ele>
        <time>2016-05-08T16:59:14Z</time>
      </trkpt>
      <trkpt lat="48.70672" lon="1.98372">
        <ele>137.609375</ele>
        <time>2016-05-08T16:59:15Z</time>
      </trkpt>
      <trkpt lat="48.70672" lon="1.98373">
        <ele>138.15033</ele>
        <time>2016-05-08T16:59:16Z</time>
      </trkpt>
      <trkpt lat="48.70673" lon="1.98374">
        <ele>138.397461</ele>
        <time>2016-05-08T16:59:17Z</time>
      </trkpt>
      <trkpt lat="48.70673" lon="1.98374">
        <ele>140.268555</ele>
        <time>2016-05-08T16:59:18Z</time>
      </trkpt>
      <trkpt lat="48.70673" lon="1.98374">
        <ele>140.974609</ele>
        <time>2016-05-08T16:59:19Z</time>
      </trkpt>
      <trkpt lat="48.70674" lon="1.98376">
        <ele>141.122437</ele>
        <time>2016-05-08T16:59:21Z</time>
      </trkpt>
      <trkpt lat="48.70675" lon="1.98376">
        <ele>140.337646</ele>
        <time>2016-05-08T16:59:22Z</time>
      </trkpt>
      <trkpt lat="48.70677" lon="1.98378">
        <ele>138.841614</ele>
        <time>2016-05-08T16:59:24Z</time>
      </trkpt>
      <trkpt lat="48.70677" lon="1.9838">
        <ele>139.087402</ele>
        <time>2016-05-08T16:59:25Z</time>
      </trkpt>
      <trkpt lat="48.70677" lon="1.98382">
        <ele>138.181396</ele>
        <time>2016-05-08T16:59:26Z</time>
      </trkpt>
      <trkpt lat="48.70676" lon="1.98384">
        <ele>136.909546</ele>
        <time>2016-05-08T16:59:27Z</time>
      </trkpt>
      <trkpt lat="48.70676" lon="1.98387">
        <ele>135.724609</ele>
        <time>2016-05-08T16:59:28Z</time>
      </trkpt>
      <trkpt lat="48.70675" lon="1.98388">
        <ele>134.456543</ele>
        <time>2016-05-08T16:59:29Z</time>
      </trkpt>
      <trkpt lat="48.70674" lon="1.98389">
        <ele>133.286804</ele>
        <time>2016-05-08T16:59:30Z</time>
      </trkpt>
      <trkpt lat="48.70673" lon="1.98389">
        <ele>132.725586</ele>
        <time>2016-05-08T16:59:31Z</time>
      </trkpt>
      <trkpt lat="48.70672" lon="1.9839">
        <ele>132.445618</ele>
        <time>2016-05-08T16:59:32Z</time>
      </trkpt>
      <trkpt lat="48.70671" lon="1.9839">
        <ele>132.710876</ele>
        <time>2016-05-08T16:59:33Z</time>
      </trkpt>
      <trkpt lat="48.70669" lon="1.98391">
        <ele>132.705566</ele>
        <time>2016-05-08T16:59:34Z</time>
      </trkpt>
      <trkpt lat="48.70668" lon="1.98391">
        <ele>132.465637</ele>
        <time>2016-05-08T16:59:35Z</time>
      </trkpt>
      <trkpt lat="48.70668" lon="1.98392">
        <ele>133.937866</ele>
        <time>2016-05-08T16:59:36Z</time>
      </trkpt>
      <trkpt lat="48.70667" lon="1.98393">
        <ele>134.115967</ele>
        <time>2016-05-08T16:59:37Z</time>
      </trkpt>
      <trkpt lat="48.70666" lon="1.98394">
        <ele>133.2677</ele>
        <time>2016-05-08T16:59:38Z</time>
      </trkpt>
      <trkpt lat="48.70666" lon="1.98395">
        <ele>132.357178</ele>
        <time>2016-05-08T16:59:39Z</time>
      </trkpt>
      <trkpt lat="48.70666" lon="1.98396">
        <ele>132.561646</ele>
        <time>2016-05-08T16:59:40Z</time>
      </trkpt>
      <trkpt lat="48.70666" lon="1.98398">
        <ele>132.398621</ele>
        <time>2016-05-08T16:59:41Z</time>
      </trkpt>
      <trkpt lat="48.70666" lon="1.98399">
        <ele>131.740173</ele>
        <time>2016-05-08T16:59:42Z</time>
      </trkpt>
      <trkpt lat="48.70666" lon="1.984">
        <ele>131.914124</ele>
        <time>2016-05-08T16:59:43Z</time>
      </trkpt>
      <trkpt lat="48.70665" lon="1.98401">
        <ele>131.408325</ele>
        <time>2016-05-08T16:59:44Z</time>
      </trkpt>
      <trkpt lat="48.70665" lon="1.98402">
        <ele>130.974548</ele>
        <time>2016-05-08T16:59:45Z</time>
      </trkpt>
      <trkpt lat="48.70665" lon="1.98403">
        <ele>130.952087</ele>
        <time>2016-05-08T16:59:46Z</time>
      </trkpt>
      <trkpt lat="48.70665" lon="1.98403">
        <ele>131.250732</ele>
        <time>2016-05-08T16:59:47Z</time>
      </trkpt>
      <trkpt lat="48.70666" lon="1.98404">
        <ele>131.363708</ele>
        <time>2016-05-08T16:59:48Z</time>
      </trkpt>
      <trkpt lat="48.70665" lon="1.98404">
        <ele>130.579651</ele>
        <time>2016-05-08T16:59:49Z</time>
      </trkpt>
      <trkpt lat="48.70665" lon="1.98405">
        <ele>130.578308</ele>
        <time>2016-05-08T16:59:50Z</time>
      </trkpt>
      <trkpt lat="48.70665" lon="1.98406">
        <ele>130.440063</ele>
        <time>2016-05-08T16:59:51Z</time>
      </trkpt>
      <trkpt lat="48.70664" lon="1.98408">
        <ele>130.616821</ele>
        <time>2016-05-08T16:59:52Z</time>
      </trkpt>
      <trkpt lat="48.70664" lon="1.98409">
        <ele>130.535034</ele>
        <time>2016-05-08T16:59:53Z</time>
      </trkpt>
      <trkpt lat="48.70663" lon="1.9841">
        <ele>130.366577</ele>
        <time>2016-05-08T16:59:54Z</time>
      </trkpt>
      <trkpt lat="48.70662" lon="1.98412">
        <ele>130.233276</ele>
        <time>2016-05-08T16:59:55Z</time>
      </trkpt>
      <trkpt lat="48.70662" lon="1.98413">
        <ele>130.347595</ele>
        <time>2016-05-08T16:59:56Z</time>
      </trkpt>
      <trkpt lat="48.70661" lon="1.98415">
        <ele>130.496582</ele>
        <time>2016-05-08T16:59:57Z</time>
      </trkpt>
      <trkpt lat="48.7066" lon="1.98417">
        <ele>130.772461</ele>
        <time>2016-05-08T16:59:58Z</time>
      </trkpt>
      <trkpt lat="48.7066" lon="1.98418">
        <ele>130.605042</ele>
        <time>2016-05-08T16:59:59Z</time>
      </trkpt>
      <trkpt lat="48.7066" lon="1.98421">
        <ele>130.76178</ele>
        <time>2016-05-08T17:00:00Z</time>
      </trkpt>
      <trkpt lat="48.70659" lon="1.98422">
        <ele>130.786194</ele>
        <time>2016-05-08T17:00:01Z</time>
      </trkpt>
      <trkpt lat="48.70659" lon="1.98424">
        <ele>130.65033</ele>
        <time>2016-05-08T17:00:02Z</time>
      </trkpt>
      <trkpt lat="48.70659" lon="1.98425">
        <ele>131.058105</ele>
        <time>2016-05-08T17:00:03Z</time>
      </trkpt>
      <trkpt lat="48.70659" lon="1.98426">
        <ele>131.273315</ele>
        <time>2016-05-08T17:00:04Z</time>
      </trkpt>
      <trkpt lat="48.70659" lon="1.98428">
        <ele>130.433167</ele>
        <time>2016-05-08T17:00:05Z</time>
      </trkpt>
      <trkpt lat="48.70659" lon="1.98429">
        <ele>130.151978</ele>
        <time>2016-05-08T17:00:06Z</time>
      </trkpt>
      <trkpt lat="48.70659" lon="1.98431">
        <ele>130.093567</ele>
        <time>2016-05-08T17:00:07Z</time>
      </trkpt>
      <trkpt lat="48.70659" lon="1.98433">
        <ele>130.056396</ele>
        <time>2016-05-08T17:00:08Z</time>
      </trkpt>
      <trkpt lat="48.70659" lon="1.98434">
        <ele>129.668762</ele>
        <time>2016-05-08T17:00:09Z</time>
      </trkpt>
      <trkpt lat="48.70659" lon="1.98436">
        <ele>129.525391</ele>
        <time>2016-05-08T17:00:10Z</time>
      </trkpt>
      <trkpt lat="48.70659" lon="1.98437">
        <ele>129.494324</ele>
        <time>2016-05-08T17:00:11Z</time>
      </trkpt>
      <trkpt lat="48.7066" lon="1.98439">
        <ele>129.015869</ele>
        <time>2016-05-08T17:00:12Z</time>
      </trkpt>
      <trkpt lat="48.7066" lon="1.9844">
        <ele>129.490479</ele>
        <time>2016-05-08T17:00:13Z</time>
      </trkpt>
      <trkpt lat="48.7066" lon="1.9844">
        <ele>128.74939</ele>
        <time>2016-05-08T17:00:14Z</time>
      </trkpt>
      <trkpt lat="48.7066" lon="1.9844">
        <ele>129.211121</ele>
        <time>2016-05-08T17:00:15Z</time>
      </trkpt>
      <trkpt lat="48.7066" lon="1.9844">
        <ele>129.000488</ele>
        <time>2016-05-08T17:00:16Z</time>
      </trkpt>
      <trkpt lat="48.7066" lon="1.9844">
        <ele>128.296875</ele>
        <time>2016-05-08T17:00:17Z</time>
      </trkpt>
      <trkpt lat="48.7066" lon="1.9844">
        <ele>127.962952</ele>
        <time>2016-05-08T17:00:18Z</time>
      </trkpt>
      <trkpt lat="48.7066" lon="1.9844">
        <ele>128.185913</ele>
        <time>2016-05-08T17:00:19Z</time>
      </trkpt>
      <trkpt lat="48.7066" lon="1.98441">
        <ele>128.119812</ele>
        <time>2016-05-08T17:00:20Z</time>
      </trkpt>
      <trkpt lat="48.7066" lon="1.98441">
        <ele>128.398193</ele>
        <time>2016-05-08T17:00:21Z</time>
      </trkpt>
      <trkpt lat="48.70659" lon="1.98442">
        <ele>128.571899</ele>
        <time>2016-05-08T17:00:22Z</time>
      </trkpt>
      <trkpt lat="48.7066" lon="1.98443">
        <ele>128.319031</ele>
        <time>2016-05-08T17:00:23Z</time>
      </trkpt>
      <trkpt lat="48.70661" lon="1.98444">
        <ele>128.304565</ele>
        <time>2016-05-08T17:00:24Z</time>
      </trkpt>
      <trkpt lat="48.70662" lon="1.98445">
        <ele>128.133423</ele>
        <time>2016-05-08T17:00:25Z</time>
      </trkpt>
      <trkpt lat="48.70664" lon="1.98447">
        <ele>128.783447</ele>
        <time>2016-05-08T17:00:26Z</time>
      </trkpt>
      <trkpt lat="48.70665" lon="1.98448">
        <ele>128.656006</ele>
        <time>2016-05-08T17:00:27Z</time>
      </trkpt>
      <trkpt lat="48.70666" lon="1.9845">
        <ele>128.73053</ele>
        <time>2016-05-08T17:00:28Z</time>
      </trkpt>
      <trkpt lat="48.70666" lon="1.98451">
        <ele>128.166626</ele>
        <time>2016-05-08T17:00:29Z</time>
      </trkpt>
      <trkpt lat="48.70667" lon="1.98452">
        <ele>127.908447</ele>
        <time>2016-05-08T17:00:30Z</time>
      </trkpt>
      <trkpt lat="48.70667" lon="1.98453">
        <ele>128.085022</ele>
        <time>2016-05-08T17:00:31Z</time>
      </trkpt>
      <trkpt lat="48.70668" lon="1.98454">
        <ele>128.078308</ele>
        <time>2016-05-08T17:00:32Z</time>
      </trkpt>
      <trkpt lat="48.70669" lon="1.98456">
        <ele>128.129639</ele>
        <time>2016-05-08T17:00:33Z</time>
      </trkpt>
      <trkpt lat="48.7067" lon="1.98457">
        <ele>128.290161</ele>
        <time>2016-05-08T17:00:34Z</time>
      </trkpt>
      <trkpt lat="48.70671" lon="1.98459">
        <ele>128.283203</ele>
        <time>2016-05-08T17:00:35Z</time>
      </trkpt>
      <trkpt lat="48.70672" lon="1.9846">
        <ele>128.417969</ele>
        <time>2016-05-08T17:00:36Z</time>
      </trkpt>
      <trkpt lat="48.70672" lon="1.98461">
        <ele>128.045898</ele>
        <time>2016-05-08T17:00:37Z</time>
      </trkpt>
      <trkpt lat="48.70673" lon="1.98463">
        <ele>127.773132</ele>
        <time>2016-05-08T17:00:38Z</time>
      </trkpt>
      <trkpt lat="48.70674" lon="1.98464">
        <ele>127.794556</ele>
        <time>2016-05-08T17:00:39Z</time>
      </trkpt>
      <trkpt lat="48.70674" lon="1.98466">
        <ele>127.604858</ele>
        <time>2016-05-08T17:00:40Z</time>
      </trkpt>
      <trkpt lat="48.70675" lon="1.98467">
        <ele>127.565857</ele>
        <time>2016-05-08T17:00:41Z</time>
      </trkpt>
      <trkpt lat="48.70676" lon="1.98469">
        <ele>126.952698</ele>
        <time>2016-05-08T17:00:42Z</time>
      </trkpt>
      <trkpt lat="48.70677" lon="1.9847">
        <ele>126.957275</ele>
        <time>2016-05-08T17:00:43Z</time>
      </trkpt>
      <trkpt lat="48.70679" lon="1.98471">
        <ele>127.006165</ele>
        <time>2016-05-08T17:00:44Z</time>
      </trkpt>
      <trkpt lat="48.7068" lon="1.98472">
        <ele>127.107544</ele>
        <time>2016-05-08T17:00:45Z</time>
      </trkpt>
      <trkpt lat="48.70681" lon="1.98473">
        <ele>127.275635</ele>
        <time>2016-05-08T17:00:46Z</time>
      </trkpt>
      <trkpt lat="48.70682" lon="1.98474">
        <ele>127.244995</ele>
        <time>2016-05-08T17:00:47Z</time>
      </trkpt>
      <trkpt lat="48.70683" lon="1.98475">
        <ele>126.663269</ele>
        <time>2016-05-08T17:00:48Z</time>
      </trkpt>
      <trkpt lat="48.70684" lon="1.98477">
        <ele>125.923706</ele>
        <time>2016-05-08T17:00:49Z</time>
      </trkpt>
      <trkpt lat="48.70686" lon="1.98478">
        <ele>125.722473</ele>
        <time>2016-05-08T17:00:50Z</time>
      </trkpt>
      <trkpt lat="48.70687" lon="1.98479">
        <ele>125.442505</ele>
        <time>2016-05-08T17:00:51Z</time>
      </trkpt>
      <trkpt lat="48.70689" lon="1.9848">
        <ele>125.892151</ele>
        <time>2016-05-08T17:00:52Z</time>
      </trkpt>
      <trkpt lat="48.7069" lon="1.98482">
        <ele>126.321777</ele>
        <time>2016-05-08T17:00:53Z</time>
      </trkpt>
      <trkpt lat="48.7069" lon="1.98483">
        <ele>125.621765</ele>
        <time>2016-05-08T17:00:54Z</time>
      </trkpt>
      <trkpt lat="48.70691" lon="1.98485">
        <ele>125.377563</ele>
        <time>2016-05-08T17:00:55Z</time>
      </trkpt>
      <trkpt lat="48.70692" lon="1.98486">
        <ele>125.368286</ele>
        <time>2016-05-08T17:00:56Z</time>
      </trkpt>
      <trkpt lat="48.70693" lon="1.98488">
        <ele>125.449097</ele>
        <time>2016-05-08T17:00:57Z</time>
      </trkpt>
      <trkpt lat="48.70693" lon="1.9849">
        <ele>124.658936</ele>
        <time>2016-05-08T17:00:58Z</time>
      </trkpt>
      <trkpt lat="48.70694" lon="1.98491">
        <ele>125.482422</ele>
        <time>2016-05-08T17:00:59Z</time>
      </trkpt>
      <trkpt lat="48.70694" lon="1.98493">
        <ele>125.007019</ele>
        <time>2016-05-08T17:01:00Z</time>
      </trkpt>
      <trkpt lat="48.70695" lon="1.98494">
        <ele>124.778076</ele>
        <time>2016-05-08T17:01:01Z</time>
      </trkpt>
      <trkpt lat="48.70696" lon="1.98496">
        <ele>124.685974</ele>
        <time>2016-05-08T17:01:02Z</time>
      </trkpt>
      <trkpt lat="48.70696" lon="1.98497">
        <ele>124.460266</ele>
        <time>2016-05-08T17:01:03Z</time>
      </trkpt>
      <trkpt lat="48.70697" lon="1.98499">
        <ele>124.271423</ele>
        <time>2016-05-08T17:01:04Z</time>
      </trkpt>
      <trkpt lat="48.70697" lon="1.985">
        <ele>123.851196</ele>
        <time>2016-05-08T17:01:05Z</time>
      </trkpt>
      <trkpt lat="48.70698" lon="1.98501">
        <ele>124.231628</ele>
        <time>2016-05-08T17:01:06Z</time>
      </trkpt>
      <trkpt lat="48.70698" lon="1.98502">
        <ele>124.959961</ele>
        <time>2016-05-08T17:01:07Z</time>
      </trkpt>
      <trkpt lat="48.70698" lon="1.98504">
        <ele>125.320801</ele>
        <time>2016-05-08T17:01:08Z</time>
      </trkpt>
      <trkpt lat="48.70698" lon="1.98506">
        <ele>125.038696</ele>
        <time>2016-05-08T17:01:09Z</time>
      </trkpt>
      <trkpt lat="48.70698" lon="1.98507">
        <ele>125.211243</ele>
        <time>2016-05-08T17:01:10Z</time>
      </trkpt>
      <trkpt lat="48.70697" lon="1.98508">
        <ele>124.735596</ele>
        <time>2016-05-08T17:01:11Z</time>
      </trkpt>
      <trkpt lat="48.70697" lon="1.98509">
        <ele>124.67157</ele>
        <time>2016-05-08T17:01:12Z</time>
      </trkpt>
      <trkpt lat="48.70697" lon="1.9851">
        <ele>124.025269</ele>
        <time>2016-05-08T17:01:13Z</time>
      </trkpt>
      <trkpt lat="48.70697" lon="1.98511">
        <ele>124.080566</ele>
        <time>2016-05-08T17:01:14Z</time>
      </trkpt>
      <trkpt lat="48.70697" lon="1.98512">
        <ele>124.212646</ele>
        <time>2016-05-08T17:01:15Z</time>
      </trkpt>
      <trkpt lat="48.70696" lon="1.98513">
        <ele>123.696716</ele>
        <time>2016-05-08T17:01:16Z</time>
      </trkpt>
      <trkpt lat="48.70695" lon="1.98514">
        <ele>124.001892</ele>
        <time>2016-05-08T17:01:17Z</time>
      </trkpt>
      <trkpt lat="48.70694" lon="1.98515">
        <ele>123.351807</ele>
        <time>2016-05-08T17:01:18Z</time>
      </trkpt>
      <trkpt lat="48.70693" lon="1.98515">
        <ele>122.95459</ele>
        <time>2016-05-08T17:01:19Z</time>
      </trkpt>
      <trkpt lat="48.70692" lon="1.98516">
        <ele>120.812988</ele>
        <time>2016-05-08T17:01:20Z</time>
      </trkpt>
      <trkpt lat="48.70691" lon="1.98517">
        <ele>120.323608</ele>
        <time>2016-05-08T17:01:21Z</time>
      </trkpt>
      <trkpt lat="48.7069" lon="1.98518">
        <ele>119.053467</ele>
        <time>2016-05-08T17:01:22Z</time>
      </trkpt>
      <trkpt lat="48.70689" lon="1.98519">
        <ele>119.397888</ele>
        <time>2016-05-08T17:01:23Z</time>
      </trkpt>
      <trkpt lat="48.70688" lon="1.98521">
        <ele>119.038879</ele>
        <time>2016-05-08T17:01:24Z</time>
      </trkpt>
      <trkpt lat="48.70688" lon="1.98522">
        <ele>119.513672</ele>
        <time>2016-05-08T17:01:25Z</time>
      </trkpt>
      <trkpt lat="48.70687" lon="1.98524">
        <ele>120.11731</ele>
        <time>2016-05-08T17:01:26Z</time>
      </trkpt>
      <trkpt lat="48.70686" lon="1.98525">
        <ele>119.258728</ele>
        <time>2016-05-08T17:01:27Z</time>
      </trkpt>
      <trkpt lat="48.70686" lon="1.98526">
        <ele>119.329163</ele>
        <time>2016-05-08T17:01:28Z</time>
      </trkpt>
      <trkpt lat="48.70685" lon="1.98528">
        <ele>120.591309</ele>
        <time>2016-05-08T17:01:29Z</time>
      </trkpt>
      <trkpt lat="48.70685" lon="1.98529">
        <ele>121.028687</ele>
        <time>2016-05-08T17:01:30Z</time>
      </trkpt>
      <trkpt lat="48.70684" lon="1.98531">
        <ele>121.507812</ele>
        <time>2016-05-08T17:01:31Z</time>
      </trkpt>
      <trkpt lat="48.70684" lon="1.98534">
        <ele>121.278809</ele>
        <time>2016-05-08T17:01:32Z</time>
      </trkpt>
      <trkpt lat="48.70684" lon="1.98535">
        <ele>121.523804</ele>
        <time>2016-05-08T17:01:33Z</time>
      </trkpt>
      <trkpt lat="48.70684" lon="1.98536">
        <ele>121.410706</ele>
        <time>2016-05-08T17:01:34Z</time>
      </trkpt>
      <trkpt lat="48.70684" lon="1.98537">
        <ele>120.595337</ele>
        <time>2016-05-08T17:01:35Z</time>
      </trkpt>
      <trkpt lat="48.70683" lon="1.98538">
        <ele>119.936584</ele>
        <time>2016-05-08T17:01:36Z</time>
      </trkpt>
      <trkpt lat="48.70683" lon="1.98539">
        <ele>120.507202</ele>
        <time>2016-05-08T17:01:37Z</time>
      </trkpt>
      <trkpt lat="48.70682" lon="1.9854">
        <ele>120.923218</ele>
        <time>2016-05-08T17:01:38Z</time>
      </trkpt>
      <trkpt lat="48.70682" lon="1.98542">
        <ele>121.274841</ele>
        <time>2016-05-08T17:01:39Z</time>
      </trkpt>
      <trkpt lat="48.70681" lon="1.98543">
        <ele>121.539551</ele>
        <time>2016-05-08T17:01:40Z</time>
      </trkpt>
      <trkpt lat="48.70681" lon="1.98543">
        <ele>121.012451</ele>
        <time>2016-05-08T17:01:41Z</time>
      </trkpt>
      <trkpt lat="48.7068" lon="1.98543">
        <ele>120.702209</ele>
        <time>2016-05-08T17:01:42Z</time>
      </trkpt>
      <trkpt lat="48.70679" lon="1.98543">
        <ele>121.258362</ele>
        <time>2016-05-08T17:01:43Z</time>
      </trkpt>
      <trkpt lat="48.70678" lon="1.98543">
        <ele>121.140381</ele>
        <time>2016-05-08T17:01:44Z</time>
      </trkpt>
      <trkpt lat="48.70676" lon="1.98543">
        <ele>118.46228</ele>
        <time>2016-05-08T17:01:45Z</time>
      </trkpt>
      <trkpt lat="48.70675" lon="1.98544">
        <ele>119.586548</ele>
        <time>2016-05-08T17:01:46Z</time>
      </trkpt>
      <trkpt lat="48.70674" lon="1.98545">
        <ele>119.949585</ele>
        <time>2016-05-08T17:01:47Z</time>
      </trkpt>
      <trkpt lat="48.70673" lon="1.98546">
        <ele>119.915161</ele>
        <time>2016-05-08T17:01:48Z</time>
      </trkpt>
      <trkpt lat="48.70673" lon="1.98546">
        <ele>119.518555</ele>
        <time>2016-05-08T17:01:49Z</time>
      </trkpt>
      <trkpt lat="48.70672" lon="1.98547">
        <ele>119.788452</ele>
        <time>2016-05-08T17:01:50Z</time>
      </trkpt>
      <trkpt lat="48.70671" lon="1.98548">
        <ele>119.767029</ele>
        <time>2016-05-08T17:01:51Z</time>
      </trkpt>
      <trkpt lat="48.7067" lon="1.98548">
        <ele>120.427917</ele>
        <time>2016-05-08T17:01:52Z</time>
      </trkpt>
      <trkpt lat="48.70669" lon="1.98548">
        <ele>120.54126</ele>
        <time>2016-05-08T17:01:53Z</time>
      </trkpt>
      <trkpt lat="48.70669" lon="1.98548">
        <ele>119.444397</ele>
        <time>2016-05-08T17:01:54Z</time>
      </trkpt>
      <trkpt lat="48.70668" lon="1.98549">
        <ele>118.70929</ele>
        <time>2016-05-08T17:01:55Z</time>
      </trkpt>
      <trkpt lat="48.70668" lon="1.98551">
        <ele>119.680481</ele>
        <time>2016-05-08T17:01:56Z</time>
      </trkpt>
      <trkpt lat="48.70667" lon="1.98552">
        <ele>120.005127</ele>
        <time>2016-05-08T17:01:57Z</time>
      </trkpt>
      <trkpt lat="48.70666" lon="1.98553">
        <ele>119.714417</ele>
        <time>2016-05-08T17:01:58Z</time>
      </trkpt>
      <trkpt lat="48.70666" lon="1.98554">
        <ele>119.378052</ele>
        <time>2016-05-08T17:01:59Z</time>
      </trkpt>
      <trkpt lat="48.70665" lon="1.98556">
        <ele>119.029175</ele>
        <time>2016-05-08T17:02:00Z</time>
      </trkpt>
      <trkpt lat="48.70665" lon="1.98557">
        <ele>119.349731</ele>
        <time>2016-05-08T17:02:01Z</time>
      </trkpt>
      <trkpt lat="48.70665" lon="1.98558">
        <ele>119.651611</ele>
        <time>2016-05-08T17:02:02Z</time>
      </trkpt>
      <trkpt lat="48.70665" lon="1.9856">
        <ele>119.18335</ele>
        <time>2016-05-08T17:02:03Z</time>
      </trkpt>
      <trkpt lat="48.70664" lon="1.98561">
        <ele>118.926086</ele>
        <time>2016-05-08T17:02:04Z</time>
      </trkpt>
      <trkpt lat="48.70664" lon="1.98562">
        <ele>118.657959</ele>
        <time>2016-05-08T17:02:05Z</time>
      </trkpt>
      <trkpt lat="48.70664" lon="1.98562">
        <ele>118.657959</ele>
        <time>2016-05-08T17:02:06Z</time>
      </trkpt>
      <trkpt lat="48.70662" lon="1.98564">
        <ele>118.37677</ele>
        <time>2016-05-08T17:02:07Z</time>
      </trkpt>
      <trkpt lat="48.70662" lon="1.98564">
        <ele>117.996094</ele>
        <time>2016-05-08T17:02:08Z</time>
      </trkpt>
      <trkpt lat="48.70662" lon="1.98564">
        <ele>118.018188</ele>
        <time>2016-05-08T17:02:09Z</time>
      </trkpt>
      <trkpt lat="48.70661" lon="1.98565">
        <ele>117.837097</ele>
        <time>2016-05-08T17:02:10Z</time>
      </trkpt>
      <trkpt lat="48.7066" lon="1.98566">
        <ele>117.694702</ele>
        <time>2016-05-08T17:02:11Z</time>
      </trkpt>
      <trkpt lat="48.70658" lon="1.98566">
        <ele>117.758301</ele>
        <time>2016-05-08T17:02:12Z</time>
      </trkpt>
      <trkpt lat="48.70657" lon="1.98567">
        <ele>117.903687</ele>
        <time>2016-05-08T17:02:13Z</time>
      </trkpt>
      <trkpt lat="48.70656" lon="1.98568">
        <ele>117.741821</ele>
        <time>2016-05-08T17:02:14Z</time>
      </trkpt>
      <trkpt lat="48.70655" lon="1.98568">
        <ele>117.961548</ele>
        <time>2016-05-08T17:02:15Z</time>
      </trkpt>
      <trkpt lat="48.70654" lon="1.98569">
        <ele>117.887573</ele>
        <time>2016-05-08T17:02:16Z</time>
      </trkpt>
      <trkpt lat="48.70653" lon="1.98569">
        <ele>117.708862</ele>
        <time>2016-05-08T17:02:17Z</time>
      </trkpt>
      <trkpt lat="48.70652" lon="1.9857">
        <ele>117.432068</ele>
        <time>2016-05-08T17:02:18Z</time>
      </trkpt>
      <trkpt lat="48.70651" lon="1.9857">
        <ele>117.268982</ele>
        <time>2016-05-08T17:02:19Z</time>
      </trkpt>
      <trkpt lat="48.7065" lon="1.98571">
        <ele>116.734497</ele>
        <time>2016-05-08T17:02:20Z</time>
      </trkpt>
      <trkpt lat="48.7065" lon="1.98571">
        <ele>116.53833</ele>
        <time>2016-05-08T17:02:21Z</time>
      </trkpt>
      <trkpt lat="48.70649" lon="1.98572">
        <ele>116.578674</ele>
        <time>2016-05-08T17:02:22Z</time>
      </trkpt>
      <trkpt lat="48.70648" lon="1.98572">
        <ele>115.92395</ele>
        <time>2016-05-08T17:02:23Z</time>
      </trkpt>
      <trkpt lat="48.70648" lon="1.98573">
        <ele>115.427246</ele>
        <time>2016-05-08T17:02:24Z</time>
      </trkpt>
      <trkpt lat="48.70648" lon="1.98573">
        <ele>115.686829</ele>
        <time>2016-05-08T17:02:25Z</time>
      </trkpt>
      <trkpt lat="48.70648" lon="1.98574">
        <ele>115.526733</ele>
        <time>2016-05-08T17:02:26Z</time>
      </trkpt>
      <trkpt lat="48.70648" lon="1.98574">
        <ele>115.908081</ele>
        <time>2016-05-08T17:02:27Z</time>
      </trkpt>
      <trkpt lat="48.70648" lon="1.98575">
        <ele>115.719604</ele>
        <time>2016-05-08T17:02:28Z</time>
      </trkpt>
      <trkpt lat="48.70648" lon="1.98575">
        <ele>115.566528</ele>
        <time>2016-05-08T17:02:29Z</time>
      </trkpt>
      <trkpt lat="48.70648" lon="1.98576">
        <ele>115.47522</ele>
        <time>2016-05-08T17:02:30Z</time>
      </trkpt>
      <trkpt lat="48.70648" lon="1.98577">
        <ele>115.751221</ele>
        <time>2016-05-08T17:02:31Z</time>
      </trkpt>
      <trkpt lat="48.70647" lon="1.98578">
        <ele>115.537476</ele>
        <time>2016-05-08T17:02:32Z</time>
      </trkpt>
      <trkpt lat="48.70647" lon="1.98578">
        <ele>114.983337</ele>
        <time>2016-05-08T17:02:33Z</time>
      </trkpt>
      <trkpt lat="48.70647" lon="1.98578">
        <ele>114.636536</ele>
        <time>2016-05-08T17:02:34Z</time>
      </trkpt>
      <trkpt lat="48.70647" lon="1.98578">
        <ele>114.788208</ele>
        <time>2016-05-08T17:02:35Z</time>
      </trkpt>
      <trkpt lat="48.70647" lon="1.98578">
        <ele>114.589539</ele>
        <time>2016-05-08T17:02:36Z</time>
      </trkpt>
      <trkpt lat="48.70647" lon="1.98578">
        <ele>114.790405</ele>
        <time>2016-05-08T17:02:37Z</time>
      </trkpt>
      <trkpt lat="48.70647" lon="1.98578">
        <ele>114.546448</ele>
        <time>2016-05-08T17:02:38Z</time>
      </trkpt>
      <trkpt lat="48.70648" lon="1.98579">
        <ele>114.523682</ele>
        <time>2016-05-08T17:02:39Z</time>
      </trkpt>
      <trkpt lat="48.70648" lon="1.98579">
        <ele>114.500183</ele>
        <time>2016-05-08T17:02:40Z</time>
      </trkpt>
      <trkpt lat="48.70647" lon="1.98579">
        <ele>114.396606</ele>
        <time>2016-05-08T17:02:41Z</time>
      </trkpt>
      <trkpt lat="48.70647" lon="1.98579">
        <ele>114.506409</ele>
        <time>2016-05-08T17:02:42Z</time>
      </trkpt>
      <trkpt lat="48.70648" lon="1.98578">
        <ele>114.523376</ele>
        <time>2016-05-08T17:02:43Z</time>
      </trkpt>
      <trkpt lat="48.70648" lon="1.98578">
        <ele>115.417603</ele>
        <time>2016-05-08T17:02:44Z</time>
      </trkpt>
      <trkpt lat="48.70648" lon="1.98578">
        <ele>115.812195</ele>
        <time>2016-05-08T17:02:45Z</time>
      </trkpt>
      <trkpt lat="48.70648" lon="1.98578">
        <ele>115.928589</ele>
        <time>2016-05-08T17:02:46Z</time>
      </trkpt>
      <trkpt lat="48.70648" lon="1.98578">
        <ele>115.732117</ele>
        <time>2016-05-08T17:02:47Z</time>
      </trkpt>
      <trkpt lat="48.70648" lon="1.98578">
        <ele>115.461609</ele>
        <time>2016-05-08T17:02:48Z</time>
      </trkpt>
      <trkpt lat="48.70647" lon="1.98577">
        <ele>114.929443</ele>
        <time>2016-05-08T17:02:49Z</time>
      </trkpt>
      <trkpt lat="48.70647" lon="1.98577">
        <ele>114.504883</ele>
        <time>2016-05-08T17:02:50Z</time>
      </trkpt>
      <trkpt lat="48.70648" lon="1.98576">
        <ele>114.522034</ele>
        <time>2016-05-08T17:02:51Z</time>
      </trkpt>
      <trkpt lat="48.70647" lon="1.98576">
        <ele>114.36908</ele>
        <time>2016-05-08T17:02:52Z</time>
      </trkpt>
      <trkpt lat="48.70647" lon="1.98577">
        <ele>114.078552</ele>
        <time>2016-05-08T17:02:53Z</time>
      </trkpt>
      <trkpt lat="48.70647" lon="1.98578">
        <ele>114.233521</ele>
        <time>2016-05-08T17:02:54Z</time>
      </trkpt>
      <trkpt lat="48.70646" lon="1.98578">
        <ele>114.193726</ele>
        <time>2016-05-08T17:02:55Z</time>
      </trkpt>
      <trkpt lat="48.70646" lon="1.98579">
        <ele>114.254028</ele>
        <time>2016-05-08T17:02:56Z</time>
      </trkpt>
      <trkpt lat="48.70645" lon="1.98579">
        <ele>114.127075</ele>
        <time>2016-05-08T17:02:57Z</time>
      </trkpt>
      <trkpt lat="48.70645" lon="1.98578">
        <ele>114.304321</ele>
        <time>2016-05-08T17:02:58Z</time>
      </trkpt>
      <trkpt lat="48.70644" lon="1.98578">
        <ele>114.163574</ele>
        <time>2016-05-08T17:02:59Z</time>
      </trkpt>
      <trkpt lat="48.70644" lon="1.98579">
        <ele>113.859741</ele>
        <time>2016-05-08T17:03:00Z</time>
      </trkpt>
      <trkpt lat="48.70644" lon="1.98579">
        <ele>113.736694</ele>
        <time>2016-05-08T17:03:01Z</time>
      </trkpt>
      <trkpt lat="48.70644" lon="1.98579">
        <ele>113.691772</ele>
        <time>2016-05-08T17:03:02Z</time>
      </trkpt>
      <trkpt lat="48.70644" lon="1.98579">
        <ele>113.385376</ele>
        <time>2016-05-08T17:03:03Z</time>
      </trkpt>
      <trkpt lat="48.70644" lon="1.98579">
        <ele>113.839417</ele>
        <time>2016-05-08T17:03:04Z</time>
      </trkpt>
      <trkpt lat="48.70644" lon="1.98579">
        <ele>113.928284</ele>
        <time>2016-05-08T17:03:05Z</time>
      </trkpt>
      <trkpt lat="48.70644" lon="1.98579">
        <ele>113.727051</ele>
        <time>2016-05-08T17:03:06Z</time>
      </trkpt>
      <trkpt lat="48.70644" lon="1.98579">
        <ele>113.932007</ele>
        <time>2016-05-08T17:03:07Z</time>
      </trkpt>
      <trkpt lat="48.70644" lon="1.98579">
        <ele>114.59082</ele>
        <time>2016-05-08T17:03:08Z</time>
      </trkpt>
      <trkpt lat="48.70644" lon="1.98579">
        <ele>115.485168</ele>
        <time>2016-05-08T17:03:09Z</time>
      </trkpt>
      <trkpt lat="48.70644" lon="1.98579">
        <ele>115.479553</ele>
        <time>2016-05-08T17:03:10Z</time>
      </trkpt>
      <trkpt lat="48.70644" lon="1.98579">
        <ele>115.823608</ele>
        <time>2016-05-08T17:03:11Z</time>
      </trkpt>
      <trkpt lat="48.70644" lon="1.98579">
        <ele>115.753357</ele>
        <time>2016-05-08T17:03:12Z</time>
      </trkpt>
      <trkpt lat="48.70644" lon="1.98579">
        <ele>114.87439</ele>
        <time>2016-05-08T17:03:13Z</time>
      </trkpt>
      <trkpt lat="48.70647" lon="1.98581">
        <ele>114.258545</ele>
        <time>2016-05-08T17:03:14Z</time>
      </trkpt>
      <trkpt lat="48.70648" lon="1.98581">
        <ele>114.053955</ele>
        <time>2016-05-08T17:03:15Z</time>
      </trkpt>
      <trkpt lat="48.70648" lon="1.98582">
        <ele>113.864136</ele>
        <time>2016-05-08T17:03:16Z</time>
      </trkpt>
      <trkpt lat="48.70648" lon="1.98582">
        <ele>113.607544</ele>
        <time>2016-05-08T17:03:17Z</time>
      </trkpt>
      <trkpt lat="48.70648" lon="1.98582">
        <ele>113.630249</ele>
        <time>2016-05-08T17:03:18Z</time>
      </trkpt>
      <trkpt lat="48.70648" lon="1.98582">
        <ele>113.335083</ele>
        <time>2016-05-08T17:03:19Z</time>
      </trkpt>
      <trkpt lat="48.70648" lon="1.9858">
        <ele>112.585999</ele>
        <time>2016-05-08T17:03:20Z</time>
      </trkpt>
      <trkpt lat="48.70648" lon="1.9858">
        <ele>112.497803</ele>
        <time>2016-05-08T17:03:21Z</time>
      </trkpt>
      <trkpt lat="48.70648" lon="1.9858">
        <ele>112.614014</ele>
        <time>2016-05-08T17:03:22Z</time>
      </trkpt>
      <trkpt lat="48.70648" lon="1.98579">
        <ele>112.097168</ele>
        <time>2016-05-08T17:03:23Z</time>
      </trkpt>
      <trkpt lat="48.70647" lon="1.98579">
        <ele>112.70343</ele>
        <time>2016-05-08T17:03:24Z</time>
      </trkpt>
      <trkpt lat="48.70647" lon="1.98579">
        <ele>112.478516</ele>
        <time>2016-05-08T17:03:25Z</time>
      </trkpt>
      <trkpt lat="48.70646" lon="1.98579">
        <ele>112.814209</ele>
        <time>2016-05-08T17:03:26Z</time>
      </trkpt>
      <trkpt lat="48.70646" lon="1.98579">
        <ele>112.614197</ele>
        <time>2016-05-08T17:03:27Z</time>
      </trkpt>
      <trkpt lat="48.70646" lon="1.98579">
        <ele>113.966553</ele>
        <time>2016-05-08T17:03:28Z</time>
      </trkpt>
      <trkpt lat="48.70646" lon="1.98579">
        <ele>113.43219</ele>
        <time>2016-05-08T17:03:29Z</time>
      </trkpt>
      <trkpt lat="48.70646" lon="1.98579">
        <ele>112.761841</ele>
        <time>2016-05-08T17:03:30Z</time>
      </trkpt>
      <trkpt lat="48.70646" lon="1.98579">
        <ele>112.126038</ele>
        <time>2016-05-08T17:03:31Z</time>
      </trkpt>
      <trkpt lat="48.70646" lon="1.98579">
        <ele>112.220947</ele>
        <time>2016-05-08T17:03:32Z</time>
      </trkpt>
      <trkpt lat="48.70646" lon="1.98579">
        <ele>112.027954</ele>
        <time>2016-05-08T17:03:33Z</time>
      </trkpt>
      <trkpt lat="48.70646" lon="1.98579">
        <ele>110.303711</ele>
        <time>2016-05-08T17:03:34Z</time>
      </trkpt>
      <trkpt lat="48.70649" lon="1.98581">
        <ele>112.272461</ele>
        <time>2016-05-08T17:03:35Z</time>
      </trkpt>
      <trkpt lat="48.70648" lon="1.98582">
        <ele>112.899414</ele>
        <time>2016-05-08T17:03:36Z</time>
      </trkpt>
      <trkpt lat="48.70648" lon="1.98582">
        <ele>112.572998</ele>
        <time>2016-05-08T17:03:37Z</time>
      </trkpt>
      <trkpt lat="48.70648" lon="1.98582">
        <ele>113.095093</ele>
        <time>2016-05-08T17:03:38Z</time>
      </trkpt>
      <trkpt lat="48.70648" lon="1.98583">
        <ele>113.819153</ele>
        <time>2016-05-08T17:03:39Z</time>
      </trkpt>
      <trkpt lat="48.70648" lon="1.98583">
        <ele>111.866089</ele>
        <time>2016-05-08T17:03:40Z</time>
      </trkpt>
      <trkpt lat="48.70649" lon="1.98583">
        <ele>111.154907</ele>
        <time>2016-05-08T17:03:41Z</time>
      </trkpt>
      <trkpt lat="48.7065" lon="1.98583">
        <ele>110.92981</ele>
        <time>2016-05-08T17:03:42Z</time>
      </trkpt>
      <trkpt lat="48.7065" lon="1.98582">
        <ele>110.924561</ele>
        <time>2016-05-08T17:03:43Z</time>
      </trkpt>
      <trkpt lat="48.7065" lon="1.98582">
        <ele>111.717773</ele>
        <time>2016-05-08T17:03:44Z</time>
      </trkpt>
      <trkpt lat="48.7065" lon="1.98582">
        <ele>114.359802</ele>
        <time>2016-05-08T17:03:45Z</time>
      </trkpt>
      <trkpt lat="48.7065" lon="1.9858">
        <ele>112.848022</ele>
        <time>2016-05-08T17:03:46Z</time>
      </trkpt>
      <trkpt lat="48.70651" lon="1.98579">
        <ele>112.877563</ele>
        <time>2016-05-08T17:03:47Z</time>
      </trkpt>
      <trkpt lat="48.70651" lon="1.98578">
        <ele>113.299561</ele>
        <time>2016-05-08T17:03:48Z</time>
      </trkpt>
      <trkpt lat="48.70651" lon="1.98578">
        <ele>113.739136</ele>
        <time>2016-05-08T17:03:49Z</time>
      </trkpt>
      <trkpt lat="48.70651" lon="1.98578">
        <ele>112.335754</ele>
        <time>2016-05-08T17:03:50Z</time>
      </trkpt>
      <trkpt lat="48.70651" lon="1.98578">
        <ele>112.851074</ele>
        <time>2016-05-08T17:03:51Z</time>
      </trkpt>
      <trkpt lat="48.70651" lon="1.98577">
        <ele>112.364624</ele>
        <time>2016-05-08T17:03:52Z</time>
      </trkpt>
      <trkpt lat="48.70651" lon="1.98578">
        <ele>112.175781</ele>
        <time>2016-05-08T17:03:53Z</time>
      </trkpt>
      <trkpt lat="48.70651" lon="1.98578">
        <ele>112.611145</ele>
        <time>2016-05-08T17:03:54Z</time>
      </trkpt>
      <trkpt lat="48.7065" lon="1.98579">
        <ele>111.730469</ele>
        <time>2016-05-08T17:03:55Z</time>
      </trkpt>
      <trkpt lat="48.7065" lon="1.98579">
        <ele>111.408569</ele>
        <time>2016-05-08T17:03:56Z</time>
      </trkpt>
      <trkpt lat="48.7065" lon="1.98578">
        <ele>109.467407</ele>
        <time>2016-05-08T17:03:57Z</time>
      </trkpt>
      <trkpt lat="48.7065" lon="1.98578">
        <ele>109.670654</ele>
        <time>2016-05-08T17:03:58Z</time>
      </trkpt>
      <trkpt lat="48.7065" lon="1.98578">
        <ele>109.670654</ele>
        <time>2016-05-08T17:03:59Z</time>
      </trkpt>
      <trkpt lat="48.7065" lon="1.98577">
        <ele>109.03302</ele>
        <time>2016-05-08T17:04:00Z</time>
      </trkpt>
      <trkpt lat="48.7065" lon="1.98575">
        <ele>108.768555</ele>
        <time>2016-05-08T17:04:01Z</time>
      </trkpt>
      <trkpt lat="48.7065" lon="1.98573">
        <ele>108.36908</ele>
        <time>2016-05-08T17:04:02Z</time>
      </trkpt>
      <trkpt lat="48.7065" lon="1.98572">
        <ele>107.606445</ele>
        <time>2016-05-08T17:04:03Z</time>
      </trkpt>
      <trkpt lat="48.7065" lon="1.98571">
        <ele>107.766846</ele>
        <time>2016-05-08T17:04:04Z</time>
      </trkpt>
      <trkpt lat="48.7065" lon="1.98571">
        <ele>108.460327</ele>
        <time>2016-05-08T17:04:05Z</time>
      </trkpt>
      <trkpt lat="48.7065" lon="1.98571">
        <ele>108.543518</ele>
        <time>2016-05-08T17:04:06Z</time>
      </trkpt>
      <trkpt lat="48.7065" lon="1.98571">
        <ele>108.566284</ele>
        <time>2016-05-08T17:04:07Z</time>
      </trkpt>
      <trkpt lat="48.7065" lon="1.98571">
        <ele>108.551636</ele>
        <time>2016-05-08T17:04:08Z</time>
      </trkpt>
      <trkpt lat="48.7065" lon="1.98571">
        <ele>108.557007</ele>
        <time>2016-05-08T17:04:09Z</time>
      </trkpt>
      <trkpt lat="48.7065" lon="1.98571">
        <ele>108.575012</ele>
        <time>2016-05-08T17:04:10Z</time>
      </trkpt>
      <trkpt lat="48.7065" lon="1.98571">
        <ele>108.577332</ele>
        <time>2016-05-08T17:04:11Z</time>
      </trkpt>
      <trkpt lat="48.7065" lon="1.98571">
        <ele>108.598511</ele>
        <time>2016-05-08T17:04:12Z</time>
      </trkpt>
      <trkpt lat="48.7065" lon="1.98571">
        <ele>108.61731</ele>
        <time>2016-05-08T17:04:13Z</time>
      </trkpt>
      <trkpt lat="48.7065" lon="1.98571">
        <ele>108.644531</ele>
        <time>2016-05-08T17:04:14Z</time>
      </trkpt>
      <trkpt lat="48.7065" lon="1.98571">
        <ele>108.652832</ele>
        <time>2016-05-08T17:04:15Z</time>
      </trkpt>
      <trkpt lat="48.7065" lon="1.98571">
        <ele>108.67511</ele>
        <time>2016-05-08T17:04:16Z</time>
      </trkpt>
      <trkpt lat="48.7065" lon="1.98571">
        <ele>108.675476</ele>
        <time>2016-05-08T17:04:17Z</time>
      </trkpt>
      <trkpt lat="48.7065" lon="1.98571">
        <ele>108.708008</ele>
        <time>2016-05-08T17:04:18Z</time>
      </trkpt>
      <trkpt lat="48.7065" lon="1.98571">
        <ele>108.740784</ele>
        <time>2016-05-08T17:04:19Z</time>
      </trkpt>
      <trkpt lat="48.7065" lon="1.98571">
        <ele>108.745911</ele>
        <time>2016-05-08T17:04:20Z</time>
      </trkpt>
      <trkpt lat="48.7065" lon="1.98571">
        <ele>108.729736</ele>
        <time>2016-05-08T17:04:21Z</time>
      </trkpt>
      <trkpt lat="48.7065" lon="1.98571">
        <ele>108.722778</ele>
        <time>2016-05-08T17:04:22Z</time>
      </trkpt>
      <trkpt lat="48.7065" lon="1.98571">
        <ele>108.708862</ele>
        <time>2016-05-08T17:04:23Z</time>
      </trkpt>
      <trkpt lat="48.7065" lon="1.98571">
        <ele>108.701538</ele>
        <time>2016-05-08T17:04:24Z</time>
      </trkpt>
      <trkpt lat="48.7065" lon="1.98571">
        <ele>108.701294</ele>
        <time>2016-05-08T17:04:25Z</time>
      </trkpt>
      <trkpt lat="48.7065" lon="1.98571">
        <ele>108.739258</ele>
        <time>2016-05-08T17:04:26Z</time>
      </trkpt>
      <trkpt lat="48.7065" lon="1.98571">
        <ele>108.770935</ele>
        <time>2016-05-08T17:04:27Z</time>
      </trkpt>
      <trkpt lat="48.7065" lon="1.98571">
        <ele>108.781738</ele>
        <time>2016-05-08T17:04:28Z</time>
      </trkpt>
      <trkpt lat="48.7065" lon="1.98571">
        <ele>108.795654</ele>
        <time>2016-05-08T17:04:29Z</time>
      </trkpt>
      <trkpt lat="48.7065" lon="1.98571">
        <ele>108.787903</ele>
        <time>2016-05-08T17:04:30Z</time>
      </trkpt>
      <trkpt lat="48.7065" lon="1.98571">
        <ele>108.769653</ele>
        <time>2016-05-08T17:04:31Z</time>
      </trkpt>
      <trkpt lat="48.7065" lon="1.98571">
        <ele>108.763611</ele>
        <time>2016-05-08T17:04:32Z</time>
      </trkpt>
      <trkpt lat="48.7065" lon="1.98571">
        <ele>108.753845</ele>
        <time>2016-05-08T17:04:33Z</time>
      </trkpt>
      <trkpt lat="48.7065" lon="1.98571">
        <ele>108.729309</ele>
        <time>2016-05-08T17:04:34Z</time>
      </trkpt>
      <trkpt lat="48.7065" lon="1.98571">
        <ele>108.714478</ele>
        <time>2016-05-08T17:04:35Z</time>
      </trkpt>
      <trkpt lat="48.7065" lon="1.98571">
        <ele>108.704346</ele>
        <time>2016-05-08T17:04:36Z</time>
      </trkpt>
      <trkpt lat="48.7065" lon="1.98571">
        <ele>108.676208</ele>
        <time>2016-05-08T17:04:37Z</time>
      </trkpt>
      <trkpt lat="48.7065" lon="1.98571">
        <ele>108.681458</ele>
        <time>2016-05-08T17:04:38Z</time>
      </trkpt>
      <trkpt lat="48.7065" lon="1.98571">
        <ele>108.671509</ele>
        <time>2016-05-08T17:04:39Z</time>
      </trkpt>
      <trkpt lat="48.7065" lon="1.98571">
        <ele>108.677551</ele>
        <time>2016-05-08T17:04:40Z</time>
      </trkpt>
      <trkpt lat="48.7065" lon="1.98571">
        <ele>108.680664</ele>
        <time>2016-05-08T17:04:41Z</time>
      </trkpt>
      <trkpt lat="48.7065" lon="1.98571">
        <ele>108.675232</ele>
        <time>2016-05-08T17:04:42Z</time>
      </trkpt>
      <trkpt lat="48.7065" lon="1.98571">
        <ele>108.671631</ele>
        <time>2016-05-08T17:04:43Z</time>
      </trkpt>
      <trkpt lat="48.7065" lon="1.98571">
        <ele>109.47876</ele>
        <time>2016-05-08T17:04:44Z</time>
      </trkpt>
      <trkpt lat="48.70648" lon="1.9857">
        <ele>108.724731</ele>
        <time>2016-05-08T17:04:45Z</time>
      </trkpt>
      <trkpt lat="48.70647" lon="1.9857">
        <ele>108.588257</ele>
        <time>2016-05-08T17:04:46Z</time>
      </trkpt>
      <trkpt lat="48.70646" lon="1.98571">
        <ele>108.796753</ele>
        <time>2016-05-08T17:04:47Z</time>
      </trkpt>
      <trkpt lat="48.70646" lon="1.98571">
        <ele>109.171875</ele>
        <time>2016-05-08T17:04:48Z</time>
      </trkpt>
      <trkpt lat="48.70645" lon="1.98572">
        <ele>107.60791</ele>
        <time>2016-05-08T17:04:49Z</time>
      </trkpt>
      <trkpt lat="48.70644" lon="1.98574">
        <ele>108.820923</ele>
        <time>2016-05-08T17:04:50Z</time>
      </trkpt>
      <trkpt lat="48.70644" lon="1.98575">
        <ele>109.404053</ele>
        <time>2016-05-08T17:04:51Z</time>
      </trkpt>
      <trkpt lat="48.70643" lon="1.98576">
        <ele>109.168091</ele>
        <time>2016-05-08T17:04:52Z</time>
      </trkpt>
      <trkpt lat="48.70643" lon="1.98578">
        <ele>107.816833</ele>
        <time>2016-05-08T17:04:53Z</time>
      </trkpt>
      <trkpt lat="48.70643" lon="1.98579">
        <ele>107.213257</ele>
        <time>2016-05-08T17:04:54Z</time>
      </trkpt>
      <trkpt lat="48.70642" lon="1.9858">
        <ele>106.477417</ele>
        <time>2016-05-08T17:04:55Z</time>
      </trkpt>
      <trkpt lat="48.70642" lon="1.98582">
        <ele>106.682556</ele>
        <time>2016-05-08T17:04:56Z</time>
      </trkpt>
      <trkpt lat="48.70642" lon="1.98583">
        <ele>106.823486</ele>
        <time>2016-05-08T17:04:57Z</time>
      </trkpt>
      <trkpt lat="48.70641" lon="1.98584">
        <ele>106.599915</ele>
        <time>2016-05-08T17:04:58Z</time>
      </trkpt>
      <trkpt lat="48.70641" lon="1.98585">
        <ele>107.37616</ele>
        <time>2016-05-08T17:04:59Z</time>
      </trkpt>
      <trkpt lat="48.7064" lon="1.98586">
        <ele>104.594238</ele>
        <time>2016-05-08T17:05:00Z</time>
      </trkpt>
      <trkpt lat="48.7064" lon="1.98586">
        <ele>105.368958</ele>
        <time>2016-05-08T17:05:01Z</time>
      </trkpt>
      <trkpt lat="48.7064" lon="1.98587">
        <ele>106.786987</ele>
        <time>2016-05-08T17:05:02Z</time>
      </trkpt>
      <trkpt lat="48.70639" lon="1.98587">
        <ele>106.63501</ele>
        <time>2016-05-08T17:05:03Z</time>
      </trkpt>
      <trkpt lat="48.70639" lon="1.98588">
        <ele>106.490356</ele>
        <time>2016-05-08T17:05:04Z</time>
      </trkpt>
      <trkpt lat="48.70639" lon="1.98588">
        <ele>107.341187</ele>
        <time>2016-05-08T17:05:05Z</time>
      </trkpt>
      <trkpt lat="48.70638" lon="1.98589">
        <ele>106.496155</ele>
        <time>2016-05-08T17:05:06Z</time>
      </trkpt>
      <trkpt lat="48.70638" lon="1.98589">
        <ele>106.93689</ele>
        <time>2016-05-08T17:05:07Z</time>
      </trkpt>
      <trkpt lat="48.70637" lon="1.9859">
        <ele>107.21936</ele>
        <time>2016-05-08T17:05:08Z</time>
      </trkpt>
      <trkpt lat="48.70636" lon="1.98591">
        <ele>106.323608</ele>
        <time>2016-05-08T17:05:09Z</time>
      </trkpt>
      <trkpt lat="48.70636" lon="1.98592">
        <ele>106.149353</ele>
        <time>2016-05-08T17:05:10Z</time>
      </trkpt>
      <trkpt lat="48.70635" lon="1.98593">
        <ele>106.040649</ele>
        <time>2016-05-08T17:05:11Z</time>
      </trkpt>
      <trkpt lat="48.70634" lon="1.98594">
        <ele>105.883301</ele>
        <time>2016-05-08T17:05:12Z</time>
      </trkpt>
      <trkpt lat="48.70634" lon="1.98595">
        <ele>105.900452</ele>
        <time>2016-05-08T17:05:13Z</time>
      </trkpt>
      <trkpt lat="48.70633" lon="1.98596">
        <ele>107.097656</ele>
        <time>2016-05-08T17:05:14Z</time>
      </trkpt>
      <trkpt lat="48.70633" lon="1.98597">
        <ele>107.275757</ele>
        <time>2016-05-08T17:05:15Z</time>
      </trkpt>
      <trkpt lat="48.70632" lon="1.98597">
        <ele>106.931274</ele>
        <time>2016-05-08T17:05:16Z</time>
      </trkpt>
      <trkpt lat="48.70631" lon="1.98598">
        <ele>107.749146</ele>
        <time>2016-05-08T17:05:17Z</time>
      </trkpt>
      <trkpt lat="48.7063" lon="1.986">
        <ele>107.859009</ele>
        <time>2016-05-08T17:05:18Z</time>
      </trkpt>
      <trkpt lat="48.7063" lon="1.98601">
        <ele>107.536011</ele>
        <time>2016-05-08T17:05:19Z</time>
      </trkpt>
      <trkpt lat="48.70629" lon="1.98602">
        <ele>107.278992</ele>
        <time>2016-05-08T17:05:20Z</time>
      </trkpt>
      <trkpt lat="48.70628" lon="1.98602">
        <ele>107.069336</ele>
        <time>2016-05-08T17:05:21Z</time>
      </trkpt>
      <trkpt lat="48.70627" lon="1.98603">
        <ele>107.587158</ele>
        <time>2016-05-08T17:05:22Z</time>
      </trkpt>
      <trkpt lat="48.70626" lon="1.98603">
        <ele>107.658875</ele>
        <time>2016-05-08T17:05:23Z</time>
      </trkpt>
      <trkpt lat="48.70625" lon="1.98604">
        <ele>107.353455</ele>
        <time>2016-05-08T17:05:24Z</time>
      </trkpt>
      <trkpt lat="48.70624" lon="1.98604">
        <ele>107.85498</ele>
        <time>2016-05-08T17:05:25Z</time>
      </trkpt>
      <trkpt lat="48.70623" lon="1.98605">
        <ele>107.630493</ele>
        <time>2016-05-08T17:05:26Z</time>
      </trkpt>
      <trkpt lat="48.70622" lon="1.98606">
        <ele>107.608826</ele>
        <time>2016-05-08T17:05:27Z</time>
      </trkpt>
      <trkpt lat="48.7062" lon="1.98607">
        <ele>107.927368</ele>
        <time>2016-05-08T17:05:28Z</time>
      </trkpt>
      <trkpt lat="48.70618" lon="1.98609">
        <ele>107.668457</ele>
        <time>2016-05-08T17:05:29Z</time>
      </trkpt>
      <trkpt lat="48.70616" lon="1.9861">
        <ele>107.811218</ele>
        <time>2016-05-08T17:05:30Z</time>
      </trkpt>
      <trkpt lat="48.70615" lon="1.98611">
        <ele>107.706543</ele>
        <time>2016-05-08T17:05:31Z</time>
      </trkpt>
      <trkpt lat="48.70614" lon="1.98611">
        <ele>110.051575</ele>
        <time>2016-05-08T17:05:32Z</time>
      </trkpt>
      <trkpt lat="48.70614" lon="1.98612">
        <ele>106.435791</ele>
        <time>2016-05-08T17:05:33Z</time>
      </trkpt>
      <trkpt lat="48.70613" lon="1.98614">
        <ele>106.228821</ele>
        <time>2016-05-08T17:05:34Z</time>
      </trkpt>
      <trkpt lat="48.70613" lon="1.98615">
        <ele>106.53656</ele>
        <time>2016-05-08T17:05:35Z</time>
      </trkpt>
      <trkpt lat="48.70613" lon="1.98616">
        <ele>107.233276</ele>
        <time>2016-05-08T17:05:36Z</time>
      </trkpt>
      <trkpt lat="48.70612" lon="1.98617">
        <ele>107.72467</ele>
        <time>2016-05-08T17:05:37Z</time>
      </trkpt>
      <trkpt lat="48.70611" lon="1.98618">
        <ele>108.134277</ele>
        <time>2016-05-08T17:05:38Z</time>
      </trkpt>
      <trkpt lat="48.70609" lon="1.98618">
        <ele>106.742798</ele>
        <time>2016-05-08T17:05:39Z</time>
      </trkpt>
      <trkpt lat="48.70609" lon="1.9862">
        <ele>104.651489</ele>
        <time>2016-05-08T17:05:40Z</time>
      </trkpt>
      <trkpt lat="48.70608" lon="1.98622">
        <ele>104.888428</ele>
        <time>2016-05-08T17:05:41Z</time>
      </trkpt>
      <trkpt lat="48.70608" lon="1.98623">
        <ele>104.254028</ele>
        <time>2016-05-08T17:05:42Z</time>
      </trkpt>
      <trkpt lat="48.70608" lon="1.98625">
        <ele>102.835815</ele>
        <time>2016-05-08T17:05:43Z</time>
      </trkpt>
      <trkpt lat="48.70607" lon="1.98627">
        <ele>103.164062</ele>
        <time>2016-05-08T17:05:44Z</time>
      </trkpt>
      <trkpt lat="48.70606" lon="1.98628">
        <ele>102.856323</ele>
        <time>2016-05-08T17:05:45Z</time>
      </trkpt>
      <trkpt lat="48.70605" lon="1.9863">
        <ele>103.811646</ele>
        <time>2016-05-08T17:05:46Z</time>
      </trkpt>
      <trkpt lat="48.70603" lon="1.98632">
        <ele>103.958679</ele>
        <time>2016-05-08T17:05:47Z</time>
      </trkpt>
      <trkpt lat="48.70602" lon="1.98633">
        <ele>104.062988</ele>
        <time>2016-05-08T17:05:48Z</time>
      </trkpt>
      <trkpt lat="48.70601" lon="1.98634">
        <ele>103.952942</ele>
        <time>2016-05-08T17:05:49Z</time>
      </trkpt>
      <trkpt lat="48.706" lon="1.98635">
        <ele>103.954285</ele>
        <time>2016-05-08T17:05:50Z</time>
      </trkpt>
      <trkpt lat="48.70599" lon="1.98636">
        <ele>104.026611</ele>
        <time>2016-05-08T17:05:51Z</time>
      </trkpt>
      <trkpt lat="48.70598" lon="1.98637">
        <ele>105.775574</ele>
        <time>2016-05-08T17:05:52Z</time>
      </trkpt>
      <trkpt lat="48.70597" lon="1.98637">
        <ele>105.598755</ele>
        <time>2016-05-08T17:05:53Z</time>
      </trkpt>
      <trkpt lat="48.70597" lon="1.98638">
        <ele>104.325562</ele>
        <time>2016-05-08T17:05:54Z</time>
      </trkpt>
      <trkpt lat="48.70596" lon="1.98638">
        <ele>104.208191</ele>
        <time>2016-05-08T17:05:55Z</time>
      </trkpt>
      <trkpt lat="48.70595" lon="1.98639">
        <ele>101.992798</ele>
        <time>2016-05-08T17:05:56Z</time>
      </trkpt>
      <trkpt lat="48.70594" lon="1.9864">
        <ele>99.790222</ele>
        <time>2016-05-08T17:05:57Z</time>
      </trkpt>
      <trkpt lat="48.70594" lon="1.98641">
        <ele>100.132874</ele>
        <time>2016-05-08T17:05:58Z</time>
      </trkpt>
      <trkpt lat="48.70593" lon="1.98641">
        <ele>101.267334</ele>
        <time>2016-05-08T17:05:59Z</time>
      </trkpt>
      <trkpt lat="48.70592" lon="1.98642">
        <ele>101.856323</ele>
        <time>2016-05-08T17:06:00Z</time>
      </trkpt>
      <trkpt lat="48.70591" lon="1.98643">
        <ele>100.011353</ele>
        <time>2016-05-08T17:06:01Z</time>
      </trkpt>
      <trkpt lat="48.7059" lon="1.98644">
        <ele>99.491089</ele>
        <time>2016-05-08T17:06:02Z</time>
      </trkpt>
      <trkpt lat="48.70589" lon="1.98645">
        <ele>97.399231</ele>
        <time>2016-05-08T17:06:03Z</time>
      </trkpt>
      <trkpt lat="48.70588" lon="1.98646">
        <ele>96.393311</ele>
        <time>2016-05-08T17:06:04Z</time>
      </trkpt>
      <trkpt lat="48.70587" lon="1.98646">
        <ele>96.449463</ele>
        <time>2016-05-08T17:06:05Z</time>
      </trkpt>
      <trkpt lat="48.70586" lon="1.98646">
        <ele>96.600464</ele>
        <time>2016-05-08T17:06:06Z</time>
      </trkpt>
      <trkpt lat="48.70586" lon="1.98646">
        <ele>95.957581</ele>
        <time>2016-05-08T17:06:07Z</time>
      </trkpt>
      <trkpt lat="48.70585" lon="1.98646">
        <ele>96.349915</ele>
        <time>2016-05-08T17:06:08Z</time>
      </trkpt>
      <trkpt lat="48.70584" lon="1.98646">
        <ele>95.884033</ele>
        <time>2016-05-08T17:06:09Z</time>
      </trkpt>
      <trkpt lat="48.70582" lon="1.98646">
        <ele>94.592041</ele>
        <time>2016-05-08T17:06:10Z</time>
      </trkpt>
      <trkpt lat="48.70581" lon="1.98647">
        <ele>95.059387</ele>
        <time>2016-05-08T17:06:11Z</time>
      </trkpt>
      <trkpt lat="48.7058" lon="1.98647">
        <ele>93.139893</ele>
        <time>2016-05-08T17:06:12Z</time>
      </trkpt>
      <trkpt lat="48.7058" lon="1.98648">
        <ele>90.172852</ele>
        <time>2016-05-08T17:06:13Z</time>
      </trkpt>
      <trkpt lat="48.70579" lon="1.98649">
        <ele>90.273315</ele>
        <time>2016-05-08T17:06:14Z</time>
      </trkpt>
      <trkpt lat="48.70579" lon="1.9865">
        <ele>89.96875</ele>
        <time>2016-05-08T17:06:15Z</time>
      </trkpt>
      <trkpt lat="48.70579" lon="1.98651">
        <ele>89.827271</ele>
        <time>2016-05-08T17:06:16Z</time>
      </trkpt>
      <trkpt lat="48.70578" lon="1.98652">
        <ele>90.522339</ele>
        <time>2016-05-08T17:06:17Z</time>
      </trkpt>
      <trkpt lat="48.70577" lon="1.98654">
        <ele>87.943176</ele>
        <time>2016-05-08T17:06:18Z</time>
      </trkpt>
      <trkpt lat="48.70576" lon="1.98655">
        <ele>87.754883</ele>
        <time>2016-05-08T17:06:19Z</time>
      </trkpt>
      <trkpt lat="48.70575" lon="1.98656">
        <ele>88.968994</ele>
        <time>2016-05-08T17:06:20Z</time>
      </trkpt>
      <trkpt lat="48.70574" lon="1.98657">
        <ele>89.42395</ele>
        <time>2016-05-08T17:06:21Z</time>
      </trkpt>
      <trkpt lat="48.70573" lon="1.98657">
        <ele>89.276855</ele>
        <time>2016-05-08T17:06:22Z</time>
      </trkpt>
      <trkpt lat="48.70572" lon="1.98658">
        <ele>89.647583</ele>
        <time>2016-05-08T17:06:23Z</time>
      </trkpt>
      <trkpt lat="48.70572" lon="1.98658">
        <ele>89.663635</ele>
        <time>2016-05-08T17:06:24Z</time>
      </trkpt>
      <trkpt lat="48.70572" lon="1.98658">
        <ele>89.661011</ele>
        <time>2016-05-08T17:06:25Z</time>
      </trkpt>
      <trkpt lat="48.70572" lon="1.98658">
        <ele>89.68219</ele>
        <time>2016-05-08T17:06:26Z</time>
      </trkpt>
      <trkpt lat="48.70572" lon="1.98658">
        <ele>89.703369</ele>
        <time>2016-05-08T17:06:27Z</time>
      </trkpt>
      <trkpt lat="48.70572" lon="1.98658">
        <ele>87.650391</ele>
        <time>2016-05-08T17:06:28Z</time>
      </trkpt>
      <trkpt lat="48.70572" lon="1.98659">
        <ele>87.699829</ele>
        <time>2016-05-08T17:06:30Z</time>
      </trkpt>
      <trkpt lat="48.70572" lon="1.98659">
        <ele>87.644775</ele>
        <time>2016-05-08T17:06:31Z</time>
      </trkpt>
      <trkpt lat="48.70571" lon="1.9866">
        <ele>88.085266</ele>
        <time>2016-05-08T17:06:33Z</time>
      </trkpt>
      <trkpt lat="48.70571" lon="1.9866">
        <ele>89.184692</ele>
        <time>2016-05-08T17:06:35Z</time>
      </trkpt>
      <trkpt lat="48.70571" lon="1.98659">
        <ele>89.061096</ele>
        <time>2016-05-08T17:06:37Z</time>
      </trkpt>
      <trkpt lat="48.70571" lon="1.98659">
        <ele>88.180725</ele>
        <time>2016-05-08T17:06:39Z</time>
      </trkpt>
      <trkpt lat="48.70571" lon="1.98659">
        <ele>88.617676</ele>
        <time>2016-05-08T17:06:41Z</time>
      </trkpt>
      <trkpt lat="48.70571" lon="1.98659">
        <ele>88.589233</ele>
        <time>2016-05-08T17:06:43Z</time>
      </trkpt>
      <trkpt lat="48.70572" lon="1.98659">
        <ele>89.147888</ele>
        <time>2016-05-08T17:06:45Z</time>
      </trkpt>
      <trkpt lat="48.70572" lon="1.98661">
        <ele>88.511841</ele>
        <time>2016-05-08T17:06:47Z</time>
      </trkpt>
      <trkpt lat="48.70572" lon="1.98663">
        <ele>88.512207</ele>
        <time>2016-05-08T17:06:49Z</time>
      </trkpt>
      <trkpt lat="48.70574" lon="1.98664">
        <ele>87.438599</ele>
        <time>2016-05-08T17:06:51Z</time>
      </trkpt>
      <trkpt lat="48.70575" lon="1.98666">
        <ele>87.560791</ele>
        <time>2016-05-08T17:06:53Z</time>
      </trkpt>
      <trkpt lat="48.70575" lon="1.98667">
        <ele>87.311279</ele>
        <time>2016-05-08T17:06:55Z</time>
      </trkpt>
      <trkpt lat="48.70577" lon="1.98669">
        <ele>87.076965</ele>
        <time>2016-05-08T17:06:57Z</time>
      </trkpt>
      <trkpt lat="48.70578" lon="1.9867">
        <ele>85.812256</ele>
        <time>2016-05-08T17:06:59Z</time>
      </trkpt>
      <trkpt lat="48.70579" lon="1.98671">
        <ele>85.245239</ele>
        <time>2016-05-08T17:07:01Z</time>
      </trkpt>
      <trkpt lat="48.70581" lon="1.98672">
        <ele>85.75415</ele>
        <time>2016-05-08T17:07:03Z</time>
      </trkpt>
      <trkpt lat="48.70582" lon="1.98674">
        <ele>86.495056</ele>
        <time>2016-05-08T17:07:05Z</time>
      </trkpt>
      <trkpt lat="48.70582" lon="1.98676">
        <ele>87.08075</ele>
        <time>2016-05-08T17:07:07Z</time>
      </trkpt>
      <trkpt lat="48.70583" lon="1.98678">
        <ele>87.994141</ele>
        <time>2016-05-08T17:07:09Z</time>
      </trkpt>
      <trkpt lat="48.70584" lon="1.98681">
        <ele>88.345093</ele>
        <time>2016-05-08T17:07:11Z</time>
      </trkpt>
      <trkpt lat="48.70585" lon="1.98683">
        <ele>88.082886</ele>
        <time>2016-05-08T17:07:13Z</time>
      </trkpt>
      <trkpt lat="48.70587" lon="1.98684">
        <ele>89.364929</ele>
        <time>2016-05-08T17:07:15Z</time>
      </trkpt>
      <trkpt lat="48.70589" lon="1.98684">
        <ele>89.42511</ele>
        <time>2016-05-08T17:07:17Z</time>
      </trkpt>
      <trkpt lat="48.7059" lon="1.98686">
        <ele>87.958496</ele>
        <time>2016-05-08T17:07:19Z</time>
      </trkpt>
      <trkpt lat="48.70591" lon="1.98686">
        <ele>87.850342</ele>
        <time>2016-05-08T17:07:21Z</time>
      </trkpt>
      <trkpt lat="48.70592" lon="1.98684">
        <ele>87.794189</ele>
        <time>2016-05-08T17:07:23Z</time>
      </trkpt>
      <trkpt lat="48.70593" lon="1.98683">
        <ele>88.064331</ele>
        <time>2016-05-08T17:07:25Z</time>
      </trkpt>
      <trkpt lat="48.70593" lon="1.98683">
        <ele>87.774292</ele>
        <time>2016-05-08T17:07:27Z</time>
      </trkpt>
      <trkpt lat="48.70593" lon="1.98683">
        <ele>88.372986</ele>
        <time>2016-05-08T17:07:29Z</time>
      </trkpt>
      <trkpt lat="48.70593" lon="1.98683">
        <ele>88.343689</ele>
        <time>2016-05-08T17:07:31Z</time>
      </trkpt>
      <trkpt lat="48.70593" lon="1.98683">
        <ele>88.347595</ele>
        <time>2016-05-08T17:07:33Z</time>
      </trkpt>
      <trkpt lat="48.70593" lon="1.98683">
        <ele>88.348877</ele>
        <time>2016-05-08T17:07:35Z</time>
      </trkpt>
      <trkpt lat="48.70593" lon="1.98683">
        <ele>88.349548</ele>
        <time>2016-05-08T17:07:37Z</time>
      </trkpt>
      <trkpt lat="48.70593" lon="1.98683">
        <ele>88.235535</ele>
        <time>2016-05-08T17:07:39Z</time>
      </trkpt>
      <trkpt lat="48.70595" lon="1.98687">
        <ele>88.359802</ele>
        <time>2016-05-08T17:07:41Z</time>
      </trkpt>
      <trkpt lat="48.70596" lon="1.98689">
        <ele>88.87207</ele>
        <time>2016-05-08T17:07:43Z</time>
      </trkpt>
      <trkpt lat="48.70596" lon="1.98691">
        <ele>88.97644</ele>
        <time>2016-05-08T17:07:45Z</time>
      </trkpt>
      <trkpt lat="48.70596" lon="1.98692">
        <ele>89.704407</ele>
        <time>2016-05-08T17:07:47Z</time>
      </trkpt>
      <trkpt lat="48.70597" lon="1.98694">
        <ele>89.286194</ele>
        <time>2016-05-08T17:07:49Z</time>
      </trkpt>
      <trkpt lat="48.70598" lon="1.98697">
        <ele>89.599854</ele>
        <time>2016-05-08T17:07:51Z</time>
      </trkpt>
      <trkpt lat="48.70599" lon="1.98699">
        <ele>90.065491</ele>
        <time>2016-05-08T17:07:53Z</time>
      </trkpt>
      <trkpt lat="48.70599" lon="1.98701">
        <ele>90.585083</ele>
        <time>2016-05-08T17:07:55Z</time>
      </trkpt>
      <trkpt lat="48.706" lon="1.98702">
        <ele>90.632935</ele>
        <time>2016-05-08T17:07:57Z</time>
      </trkpt>
      <trkpt lat="48.70601" lon="1.98704">
        <ele>90.297363</ele>
        <time>2016-05-08T17:07:59Z</time>
      </trkpt>
      <trkpt lat="48.70602" lon="1.98704">
        <ele>89.962646</ele>
        <time>2016-05-08T17:08:01Z</time>
      </trkpt>
      <trkpt lat="48.70603" lon="1.98703">
        <ele>89.557861</ele>
        <time>2016-05-08T17:08:03Z</time>
      </trkpt>
      <trkpt lat="48.70603" lon="1.98702">
        <ele>89.666687</ele>
        <time>2016-05-08T17:08:05Z</time>
      </trkpt>
      <trkpt lat="48.70604" lon="1.98701">
        <ele>89.709839</ele>
        <time>2016-05-08T17:08:07Z</time>
      </trkpt>
      <trkpt lat="48.70605" lon="1.98702">
        <ele>89.961304</ele>
        <time>2016-05-08T17:08:09Z</time>
      </trkpt>
      <trkpt lat="48.70606" lon="1.98704">
        <ele>89.828491</ele>
        <time>2016-05-08T17:08:11Z</time>
      </trkpt>
      <trkpt lat="48.70606" lon="1.98704">
        <ele>90.374756</ele>
        <time>2016-05-08T17:08:13Z</time>
      </trkpt>
      <trkpt lat="48.70608" lon="1.98706">
        <ele>90.796021</ele>
        <time>2016-05-08T17:08:15Z</time>
      </trkpt>
      <trkpt lat="48.7061" lon="1.98709">
        <ele>91.025024</ele>
        <time>2016-05-08T17:08:17Z</time>
      </trkpt>
      <trkpt lat="48.70612" lon="1.98711">
        <ele>90.467102</ele>
        <time>2016-05-08T17:08:19Z</time>
      </trkpt>
      <trkpt lat="48.70613" lon="1.98713">
        <ele>89.840332</ele>
        <time>2016-05-08T17:08:21Z</time>
      </trkpt>
      <trkpt lat="48.70613" lon="1.98714">
        <ele>90.869995</ele>
        <time>2016-05-08T17:08:23Z</time>
      </trkpt>
      <trkpt lat="48.70614" lon="1.98717">
        <ele>90.349487</ele>
        <time>2016-05-08T17:08:25Z</time>
      </trkpt>
      <trkpt lat="48.70617" lon="1.98719">
        <ele>90.115906</ele>
        <time>2016-05-08T17:08:27Z</time>
      </trkpt>
      <trkpt lat="48.70619" lon="1.9872">
        <ele>89.956421</ele>
        <time>2016-05-08T17:08:29Z</time>
      </trkpt>
      <trkpt lat="48.7062" lon="1.98722">
        <ele>89.91626</ele>
        <time>2016-05-08T17:08:31Z</time>
      </trkpt>
      <trkpt lat="48.70622" lon="1.98725">
        <ele>89.70575</ele>
        <time>2016-05-08T17:08:33Z</time>
      </trkpt>
      <trkpt lat="48.70624" lon="1.98728">
        <ele>89.730042</ele>
        <time>2016-05-08T17:08:35Z</time>
      </trkpt>
      <trkpt lat="48.70626" lon="1.98731">
        <ele>89.54425</ele>
        <time>2016-05-08T17:08:37Z</time>
      </trkpt>
      <trkpt lat="48.70627" lon="1.98734">
        <ele>89.700623</ele>
        <time>2016-05-08T17:08:39Z</time>
      </trkpt>
      <trkpt lat="48.70629" lon="1.98737">
        <ele>89.903381</ele>
        <time>2016-05-08T17:08:41Z</time>
      </trkpt>
      <trkpt lat="48.70631" lon="1.9874">
        <ele>90.231689</ele>
        <time>2016-05-08T17:08:43Z</time>
      </trkpt>
      <trkpt lat="48.70633" lon="1.98743">
        <ele>90.014404</ele>
        <time>2016-05-08T17:08:45Z</time>
      </trkpt>
      <trkpt lat="48.70635" lon="1.98744">
        <ele>90.160278</ele>
        <time>2016-05-08T17:08:47Z</time>
      </trkpt>
      <trkpt lat="48.70635" lon="1.98745">
        <ele>91.4328</ele>
        <time>2016-05-08T17:08:49Z</time>
      </trkpt>
      <trkpt lat="48.70636" lon="1.98748">
        <ele>92.129822</ele>
        <time>2016-05-08T17:08:51Z</time>
      </trkpt>
      <trkpt lat="48.70638" lon="1.98749">
        <ele>91.940857</ele>
        <time>2016-05-08T17:08:53Z</time>
      </trkpt>
      <trkpt lat="48.7064" lon="1.98748">
        <ele>91.537659</ele>
        <time>2016-05-08T17:08:55Z</time>
      </trkpt>
      <trkpt lat="48.70642" lon="1.98746">
        <ele>91.477356</ele>
        <time>2016-05-08T17:08:57Z</time>
      </trkpt>
      <trkpt lat="48.70644" lon="1.98743">
        <ele>90.626343</ele>
        <time>2016-05-08T17:08:59Z</time>
      </trkpt>
      <trkpt lat="48.70646" lon="1.98741">
        <ele>89.946411</ele>
        <time>2016-05-08T17:09:01Z</time>
      </trkpt>
      <trkpt lat="48.70648" lon="1.98741">
        <ele>88.537964</ele>
        <time>2016-05-08T17:09:03Z</time>
      </trkpt>
      <trkpt lat="48.70649" lon="1.98743">
        <ele>89.089478</ele>
        <time>2016-05-08T17:09:05Z</time>
      </trkpt>
      <trkpt lat="48.7065" lon="1.98746">
        <ele>90.630859</ele>
        <time>2016-05-08T17:09:07Z</time>
      </trkpt>
      <trkpt lat="48.70651" lon="1.9875">
        <ele>90.937683</ele>
        <time>2016-05-08T17:09:09Z</time>
      </trkpt>
      <trkpt lat="48.70651" lon="1.98753">
        <ele>91.516113</ele>
        <time>2016-05-08T17:09:11Z</time>
      </trkpt>
      <trkpt lat="48.7065" lon="1.98756">
        <ele>92.383179</ele>
        <time>2016-05-08T17:09:13Z</time>
      </trkpt>
      <trkpt lat="48.70649" lon="1.98759">
        <ele>92.95575</ele>
        <time>2016-05-08T17:09:15Z</time>
      </trkpt>
      <trkpt lat="48.70649" lon="1.98763">
        <ele>92.566406</ele>
        <time>2016-05-08T17:09:17Z</time>
      </trkpt>
      <trkpt lat="48.70649" lon="1.98767">
        <ele>93.028931</ele>
        <time>2016-05-08T17:09:19Z</time>
      </trkpt>
      <trkpt lat="48.70648" lon="1.98771">
        <ele>92.895386</ele>
        <time>2016-05-08T17:09:21Z</time>
      </trkpt>
      <trkpt lat="48.70648" lon="1.98776">
        <ele>92.119263</ele>
        <time>2016-05-08T17:09:23Z</time>
      </trkpt>
      <trkpt lat="48.70649" lon="1.9878">
        <ele>92.482483</ele>
        <time>2016-05-08T17:09:25Z</time>
      </trkpt>
      <trkpt lat="48.70651" lon="1.98784">
        <ele>92.395752</ele>
        <time>2016-05-08T17:09:27Z</time>
      </trkpt>
      <trkpt lat="48.70651" lon="1.98788">
        <ele>92.601074</ele>
        <time>2016-05-08T17:09:29Z</time>
      </trkpt>
      <trkpt lat="48.70651" lon="1.98791">
        <ele>94.00061</ele>
        <time>2016-05-08T17:09:31Z</time>
      </trkpt>
      <trkpt lat="48.70651" lon="1.98795">
        <ele>94.369507</ele>
        <time>2016-05-08T17:09:33Z</time>
      </trkpt>
      <trkpt lat="48.70653" lon="1.98798">
        <ele>93.730286</ele>
        <time>2016-05-08T17:09:35Z</time>
      </trkpt>
      <trkpt lat="48.70654" lon="1.98799">
        <ele>93.62207</ele>
        <time>2016-05-08T17:09:37Z</time>
      </trkpt>
      <trkpt lat="48.70655" lon="1.98802">
        <ele>94.440002</ele>
        <time>2016-05-08T17:09:39Z</time>
      </trkpt>
      <trkpt lat="48.70656" lon="1.98804">
        <ele>93.89917</ele>
        <time>2016-05-08T17:09:41Z</time>
      </trkpt>
      <trkpt lat="48.70658" lon="1.98807">
        <ele>93.554443</ele>
        <time>2016-05-08T17:09:43Z</time>
      </trkpt>
      <trkpt lat="48.70659" lon="1.98809">
        <ele>94.708801</ele>
        <time>2016-05-08T17:09:45Z</time>
      </trkpt>
      <trkpt lat="48.70659" lon="1.98811">
        <ele>94.522217</ele>
        <time>2016-05-08T17:09:47Z</time>
      </trkpt>
      <trkpt lat="48.7066" lon="1.98814">
        <ele>94.850403</ele>
        <time>2016-05-08T17:09:49Z</time>
      </trkpt>
      <trkpt lat="48.70661" lon="1.98817">
        <ele>94.524353</ele>
        <time>2016-05-08T17:09:51Z</time>
      </trkpt>
      <trkpt lat="48.7066" lon="1.98822">
        <ele>94.403809</ele>
        <time>2016-05-08T17:09:53Z</time>
      </trkpt>
      <trkpt lat="48.7066" lon="1.98825">
        <ele>94.922119</ele>
        <time>2016-05-08T17:09:55Z</time>
      </trkpt>
      <trkpt lat="48.7066" lon="1.98828">
        <ele>93.975281</ele>
        <time>2016-05-08T17:09:57Z</time>
      </trkpt>
      <trkpt lat="48.7066" lon="1.98833">
        <ele>94.620361</ele>
        <time>2016-05-08T17:09:59Z</time>
      </trkpt>
      <trkpt lat="48.7066" lon="1.98834">
        <ele>94.647095</ele>
        <time>2016-05-08T17:10:01Z</time>
      </trkpt>
      <trkpt lat="48.7066" lon="1.98836">
        <ele>93.455322</ele>
        <time>2016-05-08T17:10:03Z</time>
      </trkpt>
      <trkpt lat="48.7066" lon="1.98836">
        <ele>92.304443</ele>
        <time>2016-05-08T17:10:05Z</time>
      </trkpt>
      <trkpt lat="48.7066" lon="1.98836">
        <ele>91.41156</ele>
        <time>2016-05-08T17:10:07Z</time>
      </trkpt>
      <trkpt lat="48.7066" lon="1.98836">
        <ele>91.503296</ele>
        <time>2016-05-08T17:10:09Z</time>
      </trkpt>
      <trkpt lat="48.7066" lon="1.98836">
        <ele>91.956787</ele>
        <time>2016-05-08T17:10:11Z</time>
      </trkpt>
      <trkpt lat="48.7066" lon="1.98836">
        <ele>92.177612</ele>
        <time>2016-05-08T17:10:13Z</time>
      </trkpt>
      <trkpt lat="48.7066" lon="1.98836">
        <ele>92.325073</ele>
        <time>2016-05-08T17:10:15Z</time>
      </trkpt>
      <trkpt lat="48.7066" lon="1.98836">
        <ele>92.323547</ele>
        <time>2016-05-08T17:10:17Z</time>
      </trkpt>
      <trkpt lat="48.7066" lon="1.98836">
        <ele>92.32373</ele>
        <time>2016-05-08T17:10:19Z</time>
      </trkpt>
      <trkpt lat="48.7066" lon="1.98836">
        <ele>92.386963</ele>
        <time>2016-05-08T17:10:21Z</time>
      </trkpt>
      <trkpt lat="48.7066" lon="1.98836">
        <ele>92.38855</ele>
        <time>2016-05-08T17:10:23Z</time>
      </trkpt>
      <trkpt lat="48.70659" lon="1.98837">
        <ele>92.636292</ele>
        <time>2016-05-08T17:10:25Z</time>
      </trkpt>
      <trkpt lat="48.7066" lon="1.98837">
        <ele>92.768799</ele>
        <time>2016-05-08T17:10:27Z</time>
      </trkpt>
      <trkpt lat="48.70661" lon="1.98836">
        <ele>92.175781</ele>
        <time>2016-05-08T17:10:29Z</time>
      </trkpt>
      <trkpt lat="48.70661" lon="1.98835">
        <ele>92.790649</ele>
        <time>2016-05-08T17:10:31Z</time>
      </trkpt>
      <trkpt lat="48.70659" lon="1.98835">
        <ele>94.442017</ele>
        <time>2016-05-08T17:10:33Z</time>
      </trkpt>
      <trkpt lat="48.70658" lon="1.98835">
        <ele>94.933044</ele>
        <time>2016-05-08T17:10:35Z</time>
      </trkpt>
      <trkpt lat="48.70658" lon="1.98835">
        <ele>95.51593</ele>
        <time>2016-05-08T17:10:36Z</time>
      </trkpt>
      <trkpt lat="48.70658" lon="1.98835">
        <ele>95.512939</ele>
        <time>2016-05-08T17:10:38Z</time>
      </trkpt>
      <trkpt lat="48.70658" lon="1.98835">
        <ele>95.50531</ele>
        <time>2016-05-08T17:10:40Z</time>
      </trkpt>
      <trkpt lat="48.70658" lon="1.98835">
        <ele>95.502686</ele>
        <time>2016-05-08T17:10:42Z</time>
      </trkpt>
      <trkpt lat="48.70658" lon="1.98835">
        <ele>95.503479</ele>
        <time>2016-05-08T17:10:44Z</time>
      </trkpt>
      <trkpt lat="48.70658" lon="1.98835">
        <ele>95.516602</ele>
        <time>2016-05-08T17:10:46Z</time>
      </trkpt>
      <trkpt lat="48.70658" lon="1.98835">
        <ele>95.524414</ele>
        <time>2016-05-08T17:10:48Z</time>
      </trkpt>
      <trkpt lat="48.70658" lon="1.98835">
        <ele>95.580933</ele>
        <time>2016-05-08T17:11:17Z</time>
      </trkpt>
    </trkseg>
  </trk>
</gpx>